<?xml version="1.0" encoding="UTF-8" standalone="no" ?>
<gpx xmlns="http://www.topografix.com/GPX/1/1" xmlns:xsi="http://www.w3.org/2001/XMLSchema-instance" xsi:schemaLocation="http://www.topografix.com/GPX/1/1 http://www.topografix.com/GPX/1/1/gpx.xsd" version="1.1" creator="VisuGPX - https://www.visugpx.com">
  <metadata>
    <name>Glisy</name>
  </metadata>
  <trk>
    <name><![CDATA[Glisy_1]]></name>
    <trkseg>
      <trkpt lat="49.86706" lon="2.37909">
        <ele>66.4</ele>
        <time>2022-05-28T12:01:54Z</time>
      </trkpt>
      <trkpt lat="49.86706" lon="2.37909">
        <ele>66.4</ele>
        <time>2022-05-28T12:01:55Z</time>
      </trkpt>
      <trkpt lat="49.86706" lon="2.37909">
        <ele>66.4</ele>
        <time>2022-05-28T12:01:56Z</time>
      </trkpt>
      <trkpt lat="49.86706" lon="2.37909">
        <ele>66.4</ele>
        <time>2022-05-28T12:01:57Z</time>
      </trkpt>
      <trkpt lat="49.86706" lon="2.37909">
        <ele>66.4</ele>
        <time>2022-05-28T12:01:58Z</time>
      </trkpt>
      <trkpt lat="49.86706" lon="2.37909">
        <ele>66.4</ele>
        <time>2022-05-28T12:01:59Z</time>
      </trkpt>
      <trkpt lat="49.86706" lon="2.37909">
        <ele>66.4</ele>
        <time>2022-05-28T12:02:00Z</time>
      </trkpt>
      <trkpt lat="49.86706" lon="2.37909">
        <ele>66.4</ele>
        <time>2022-05-28T12:02:01Z</time>
      </trkpt>
      <trkpt lat="49.86706" lon="2.37909">
        <ele>66.4</ele>
        <time>2022-05-28T12:02:02Z</time>
      </trkpt>
      <trkpt lat="49.86706" lon="2.37909">
        <ele>66.4</ele>
        <time>2022-05-28T12:02:03Z</time>
      </trkpt>
      <trkpt lat="49.86706" lon="2.37909">
        <ele>66.4</ele>
        <time>2022-05-28T12:02:04Z</time>
      </trkpt>
      <trkpt lat="49.86706" lon="2.37909">
        <ele>66.4</ele>
        <time>2022-05-28T12:02:05Z</time>
      </trkpt>
      <trkpt lat="49.86706" lon="2.37909">
        <ele>66.4</ele>
        <time>2022-05-28T12:02:06Z</time>
      </trkpt>
      <trkpt lat="49.86706" lon="2.37909">
        <ele>66.4</ele>
        <time>2022-05-28T12:02:07Z</time>
      </trkpt>
      <trkpt lat="49.86706" lon="2.37909">
        <ele>66.4</ele>
        <time>2022-05-28T12:02:08Z</time>
      </trkpt>
      <trkpt lat="49.86706" lon="2.37909">
        <ele>66.4</ele>
        <time>2022-05-28T12:02:09Z</time>
      </trkpt>
      <trkpt lat="49.86706" lon="2.37909">
        <ele>66.4</ele>
        <time>2022-05-28T12:02:10Z</time>
      </trkpt>
      <trkpt lat="49.86706" lon="2.37909">
        <ele>66.4</ele>
        <time>2022-05-28T12:02:11Z</time>
      </trkpt>
      <trkpt lat="49.86706" lon="2.37909">
        <ele>66.4</ele>
        <time>2022-05-28T12:02:12Z</time>
      </trkpt>
      <trkpt lat="49.86706" lon="2.37909">
        <ele>66.4</ele>
        <time>2022-05-28T12:02:13Z</time>
      </trkpt>
      <trkpt lat="49.86706" lon="2.37909">
        <ele>66.4</ele>
        <time>2022-05-28T12:02:14Z</time>
      </trkpt>
      <trkpt lat="49.86706" lon="2.37909">
        <ele>66.4</ele>
        <time>2022-05-28T12:02:15Z</time>
      </trkpt>
      <trkpt lat="49.86706" lon="2.37909">
        <ele>66.4</ele>
        <time>2022-05-28T12:02:16Z</time>
      </trkpt>
      <trkpt lat="49.86706" lon="2.37909">
        <ele>66.4</ele>
        <time>2022-05-28T12:02:17Z</time>
      </trkpt>
      <trkpt lat="49.86706" lon="2.37909">
        <ele>66.4</ele>
        <time>2022-05-28T12:02:18Z</time>
      </trkpt>
      <trkpt lat="49.86706" lon="2.37909">
        <ele>66.4</ele>
        <time>2022-05-28T12:02:19Z</time>
      </trkpt>
      <trkpt lat="49.86706" lon="2.37909">
        <ele>66.4</ele>
        <time>2022-05-28T12:02:20Z</time>
      </trkpt>
      <trkpt lat="49.86706" lon="2.37909">
        <ele>66.4</ele>
        <time>2022-05-28T12:02:21Z</time>
      </trkpt>
      <trkpt lat="49.86706" lon="2.37909">
        <ele>66.4</ele>
        <time>2022-05-28T12:02:22Z</time>
      </trkpt>
      <trkpt lat="49.86706" lon="2.37909">
        <ele>66.4</ele>
        <time>2022-05-28T12:02:23Z</time>
      </trkpt>
      <trkpt lat="49.86706" lon="2.37909">
        <ele>66.4</ele>
        <time>2022-05-28T12:02:24Z</time>
      </trkpt>
      <trkpt lat="49.86706" lon="2.37909">
        <ele>66.4</ele>
        <time>2022-05-28T12:02:25Z</time>
      </trkpt>
      <trkpt lat="49.86706" lon="2.37909">
        <ele>66.4</ele>
        <time>2022-05-28T12:02:26Z</time>
      </trkpt>
      <trkpt lat="49.86706" lon="2.37909">
        <ele>66.4</ele>
        <time>2022-05-28T12:02:27Z</time>
      </trkpt>
      <trkpt lat="49.86706" lon="2.37909">
        <ele>66.4</ele>
        <time>2022-05-28T12:02:28Z</time>
      </trkpt>
      <trkpt lat="49.86706" lon="2.37909">
        <ele>66.4</ele>
        <time>2022-05-28T12:02:29Z</time>
      </trkpt>
      <trkpt lat="49.86706" lon="2.37909">
        <ele>66.4</ele>
        <time>2022-05-28T12:02:30Z</time>
      </trkpt>
      <trkpt lat="49.86706" lon="2.37909">
        <ele>66.4</ele>
        <time>2022-05-28T12:02:31Z</time>
      </trkpt>
      <trkpt lat="49.86706" lon="2.37909">
        <ele>66.4</ele>
        <time>2022-05-28T12:02:32Z</time>
      </trkpt>
      <trkpt lat="49.86706" lon="2.37909">
        <ele>66.4</ele>
        <time>2022-05-28T12:02:33Z</time>
      </trkpt>
      <trkpt lat="49.86706" lon="2.37909">
        <ele>66.4</ele>
        <time>2022-05-28T12:02:34Z</time>
      </trkpt>
      <trkpt lat="49.86706" lon="2.37909">
        <ele>66.4</ele>
        <time>2022-05-28T12:02:35Z</time>
      </trkpt>
      <trkpt lat="49.86706" lon="2.37909">
        <ele>66.4</ele>
        <time>2022-05-28T12:02:36Z</time>
      </trkpt>
      <trkpt lat="49.86706" lon="2.37909">
        <ele>66.4</ele>
        <time>2022-05-28T12:02:37Z</time>
      </trkpt>
      <trkpt lat="49.86706" lon="2.37909">
        <ele>66.4</ele>
        <time>2022-05-28T12:02:38Z</time>
      </trkpt>
      <trkpt lat="49.86706" lon="2.37909">
        <ele>66.4</ele>
        <time>2022-05-28T12:02:39Z</time>
      </trkpt>
      <trkpt lat="49.86706" lon="2.37909">
        <ele>66.4</ele>
        <time>2022-05-28T12:02:40Z</time>
      </trkpt>
      <trkpt lat="49.86706" lon="2.37909">
        <ele>66.4</ele>
        <time>2022-05-28T12:02:41Z</time>
      </trkpt>
      <trkpt lat="49.86706" lon="2.37909">
        <ele>66.4</ele>
        <time>2022-05-28T12:02:42Z</time>
      </trkpt>
      <trkpt lat="49.86706" lon="2.37909">
        <ele>66.4</ele>
        <time>2022-05-28T12:02:43Z</time>
      </trkpt>
      <trkpt lat="49.86706" lon="2.37909">
        <ele>66.4</ele>
        <time>2022-05-28T12:02:44Z</time>
      </trkpt>
      <trkpt lat="49.86706" lon="2.37909">
        <ele>66.4</ele>
        <time>2022-05-28T12:02:45Z</time>
      </trkpt>
      <trkpt lat="49.86706" lon="2.37909">
        <ele>66.4</ele>
        <time>2022-05-28T12:02:46Z</time>
      </trkpt>
      <trkpt lat="49.86706" lon="2.37909">
        <ele>66.4</ele>
        <time>2022-05-28T12:02:47Z</time>
      </trkpt>
      <trkpt lat="49.86706" lon="2.37909">
        <ele>66.4</ele>
        <time>2022-05-28T12:02:48Z</time>
      </trkpt>
      <trkpt lat="49.86706" lon="2.37909">
        <ele>66.4</ele>
        <time>2022-05-28T12:02:49Z</time>
      </trkpt>
      <trkpt lat="49.86706" lon="2.37909">
        <ele>66.4</ele>
        <time>2022-05-28T12:02:50Z</time>
      </trkpt>
      <trkpt lat="49.86706" lon="2.37909">
        <ele>66.4</ele>
        <time>2022-05-28T12:02:51Z</time>
      </trkpt>
      <trkpt lat="49.86706" lon="2.37909">
        <ele>66.4</ele>
        <time>2022-05-28T12:02:52Z</time>
      </trkpt>
      <trkpt lat="49.86706" lon="2.37909">
        <ele>66.4</ele>
        <time>2022-05-28T12:02:53Z</time>
      </trkpt>
      <trkpt lat="49.86706" lon="2.3791">
        <ele>66.4</ele>
        <time>2022-05-28T12:02:54Z</time>
      </trkpt>
      <trkpt lat="49.86705" lon="2.37913">
        <ele>66.4</ele>
        <time>2022-05-28T12:02:55Z</time>
      </trkpt>
      <trkpt lat="49.86704" lon="2.37916">
        <ele>66.4</ele>
        <time>2022-05-28T12:02:56Z</time>
      </trkpt>
      <trkpt lat="49.86704" lon="2.37918">
        <ele>66.5</ele>
        <time>2022-05-28T12:02:57Z</time>
      </trkpt>
      <trkpt lat="49.86704" lon="2.37918">
        <ele>66.5</ele>
        <time>2022-05-28T12:02:58Z</time>
      </trkpt>
      <trkpt lat="49.86703" lon="2.37919">
        <ele>66.5</ele>
        <time>2022-05-28T12:02:59Z</time>
      </trkpt>
      <trkpt lat="49.86703" lon="2.37919">
        <ele>66.5</ele>
        <time>2022-05-28T12:03:00Z</time>
      </trkpt>
      <trkpt lat="49.86703" lon="2.3792">
        <ele>66.5</ele>
        <time>2022-05-28T12:03:01Z</time>
      </trkpt>
      <trkpt lat="49.86703" lon="2.3792">
        <ele>66.5</ele>
        <time>2022-05-28T12:03:02Z</time>
      </trkpt>
      <trkpt lat="49.86702" lon="2.3792">
        <ele>66.5</ele>
        <time>2022-05-28T12:03:03Z</time>
      </trkpt>
      <trkpt lat="49.86702" lon="2.37921">
        <ele>66.5</ele>
        <time>2022-05-28T12:03:04Z</time>
      </trkpt>
      <trkpt lat="49.86701" lon="2.37922">
        <ele>66.5</ele>
        <time>2022-05-28T12:03:05Z</time>
      </trkpt>
      <trkpt lat="49.86701" lon="2.37923">
        <ele>66.5</ele>
        <time>2022-05-28T12:03:06Z</time>
      </trkpt>
      <trkpt lat="49.867" lon="2.37924">
        <ele>66.5</ele>
        <time>2022-05-28T12:03:07Z</time>
      </trkpt>
      <trkpt lat="49.86699" lon="2.37925">
        <ele>66.5</ele>
        <time>2022-05-28T12:03:08Z</time>
      </trkpt>
      <trkpt lat="49.86699" lon="2.37927">
        <ele>66.5</ele>
        <time>2022-05-28T12:03:09Z</time>
      </trkpt>
      <trkpt lat="49.86698" lon="2.37928">
        <ele>66.6</ele>
        <time>2022-05-28T12:03:10Z</time>
      </trkpt>
      <trkpt lat="49.86698" lon="2.3793">
        <ele>66.6</ele>
        <time>2022-05-28T12:03:11Z</time>
      </trkpt>
      <trkpt lat="49.86697" lon="2.37931">
        <ele>66.6</ele>
        <time>2022-05-28T12:03:12Z</time>
      </trkpt>
      <trkpt lat="49.86697" lon="2.37933">
        <ele>66.6</ele>
        <time>2022-05-28T12:03:13Z</time>
      </trkpt>
      <trkpt lat="49.86697" lon="2.37934">
        <ele>66.8</ele>
        <time>2022-05-28T12:03:14Z</time>
      </trkpt>
      <trkpt lat="49.86696" lon="2.37936">
        <ele>66.8</ele>
        <time>2022-05-28T12:03:15Z</time>
      </trkpt>
      <trkpt lat="49.86696" lon="2.37938">
        <ele>66.9</ele>
        <time>2022-05-28T12:03:16Z</time>
      </trkpt>
      <trkpt lat="49.86695" lon="2.37942">
        <ele>67</ele>
        <time>2022-05-28T12:03:17Z</time>
      </trkpt>
      <trkpt lat="49.86694" lon="2.37943">
        <ele>67</ele>
        <time>2022-05-28T12:03:18Z</time>
      </trkpt>
      <trkpt lat="49.86694" lon="2.37944">
        <ele>67.1</ele>
        <time>2022-05-28T12:03:19Z</time>
      </trkpt>
      <trkpt lat="49.86693" lon="2.37946">
        <ele>67.1</ele>
        <time>2022-05-28T12:03:20Z</time>
      </trkpt>
      <trkpt lat="49.86693" lon="2.37948">
        <ele>67.3</ele>
        <time>2022-05-28T12:03:21Z</time>
      </trkpt>
      <trkpt lat="49.86692" lon="2.37949">
        <ele>67.3</ele>
        <time>2022-05-28T12:03:22Z</time>
      </trkpt>
      <trkpt lat="49.86692" lon="2.3795">
        <ele>67.3</ele>
        <time>2022-05-28T12:03:23Z</time>
      </trkpt>
      <trkpt lat="49.86692" lon="2.37951">
        <ele>67.3</ele>
        <time>2022-05-28T12:03:24Z</time>
      </trkpt>
      <trkpt lat="49.86692" lon="2.37951">
        <ele>67.3</ele>
        <time>2022-05-28T12:03:25Z</time>
      </trkpt>
      <trkpt lat="49.86692" lon="2.37952">
        <ele>67.3</ele>
        <time>2022-05-28T12:03:26Z</time>
      </trkpt>
      <trkpt lat="49.86692" lon="2.37953">
        <ele>67.3</ele>
        <time>2022-05-28T12:03:27Z</time>
      </trkpt>
      <trkpt lat="49.86692" lon="2.37954">
        <ele>67.3</ele>
        <time>2022-05-28T12:03:28Z</time>
      </trkpt>
      <trkpt lat="49.86692" lon="2.37955">
        <ele>67.3</ele>
        <time>2022-05-28T12:03:29Z</time>
      </trkpt>
      <trkpt lat="49.86692" lon="2.37956">
        <ele>67.3</ele>
        <time>2022-05-28T12:03:30Z</time>
      </trkpt>
      <trkpt lat="49.86692" lon="2.37957">
        <ele>67.3</ele>
        <time>2022-05-28T12:03:31Z</time>
      </trkpt>
      <trkpt lat="49.86692" lon="2.37957">
        <ele>67.3</ele>
        <time>2022-05-28T12:03:32Z</time>
      </trkpt>
      <trkpt lat="49.86692" lon="2.37958">
        <ele>67.3</ele>
        <time>2022-05-28T12:03:33Z</time>
      </trkpt>
      <trkpt lat="49.86691" lon="2.37958">
        <ele>67.2</ele>
        <time>2022-05-28T12:03:34Z</time>
      </trkpt>
      <trkpt lat="49.86691" lon="2.37959">
        <ele>67.2</ele>
        <time>2022-05-28T12:03:35Z</time>
      </trkpt>
      <trkpt lat="49.86691" lon="2.3796">
        <ele>67.2</ele>
        <time>2022-05-28T12:03:36Z</time>
      </trkpt>
      <trkpt lat="49.86691" lon="2.37961">
        <ele>67.2</ele>
        <time>2022-05-28T12:03:37Z</time>
      </trkpt>
      <trkpt lat="49.8669" lon="2.37961">
        <ele>67.2</ele>
        <time>2022-05-28T12:03:38Z</time>
      </trkpt>
      <trkpt lat="49.8669" lon="2.37962">
        <ele>67.2</ele>
        <time>2022-05-28T12:03:39Z</time>
      </trkpt>
      <trkpt lat="49.86689" lon="2.37962">
        <ele>67.2</ele>
        <time>2022-05-28T12:03:40Z</time>
      </trkpt>
      <trkpt lat="49.86689" lon="2.37963">
        <ele>67.3</ele>
        <time>2022-05-28T12:03:41Z</time>
      </trkpt>
      <trkpt lat="49.86689" lon="2.37963">
        <ele>67.3</ele>
        <time>2022-05-28T12:03:42Z</time>
      </trkpt>
      <trkpt lat="49.86689" lon="2.37963">
        <ele>67.3</ele>
        <time>2022-05-28T12:03:43Z</time>
      </trkpt>
      <trkpt lat="49.86688" lon="2.37964">
        <ele>67.3</ele>
        <time>2022-05-28T12:03:44Z</time>
      </trkpt>
      <trkpt lat="49.86688" lon="2.37964">
        <ele>67.3</ele>
        <time>2022-05-28T12:03:45Z</time>
      </trkpt>
      <trkpt lat="49.86687" lon="2.37965">
        <ele>67.3</ele>
        <time>2022-05-28T12:03:46Z</time>
      </trkpt>
      <trkpt lat="49.86686" lon="2.37967">
        <ele>67.4</ele>
        <time>2022-05-28T12:03:47Z</time>
      </trkpt>
      <trkpt lat="49.86685" lon="2.37968">
        <ele>67.4</ele>
        <time>2022-05-28T12:03:48Z</time>
      </trkpt>
      <trkpt lat="49.86684" lon="2.37969">
        <ele>67.4</ele>
        <time>2022-05-28T12:03:49Z</time>
      </trkpt>
      <trkpt lat="49.86683" lon="2.3797">
        <ele>67.5</ele>
        <time>2022-05-28T12:03:50Z</time>
      </trkpt>
      <trkpt lat="49.86682" lon="2.3797">
        <ele>67.5</ele>
        <time>2022-05-28T12:03:51Z</time>
      </trkpt>
      <trkpt lat="49.86682" lon="2.37971">
        <ele>67.5</ele>
        <time>2022-05-28T12:03:52Z</time>
      </trkpt>
      <trkpt lat="49.86681" lon="2.37971">
        <ele>67.5</ele>
        <time>2022-05-28T12:03:53Z</time>
      </trkpt>
      <trkpt lat="49.86681" lon="2.37972">
        <ele>67.5</ele>
        <time>2022-05-28T12:03:54Z</time>
      </trkpt>
      <trkpt lat="49.8668" lon="2.37972">
        <ele>67.6</ele>
        <time>2022-05-28T12:03:55Z</time>
      </trkpt>
      <trkpt lat="49.86679" lon="2.37973">
        <ele>67.6</ele>
        <time>2022-05-28T12:03:56Z</time>
      </trkpt>
      <trkpt lat="49.86678" lon="2.37974">
        <ele>67.6</ele>
        <time>2022-05-28T12:03:57Z</time>
      </trkpt>
      <trkpt lat="49.86678" lon="2.37975">
        <ele>67.6</ele>
        <time>2022-05-28T12:03:58Z</time>
      </trkpt>
      <trkpt lat="49.86677" lon="2.37975">
        <ele>67.6</ele>
        <time>2022-05-28T12:03:59Z</time>
      </trkpt>
      <trkpt lat="49.86676" lon="2.37976">
        <ele>67.7</ele>
        <time>2022-05-28T12:04:00Z</time>
      </trkpt>
      <trkpt lat="49.86675" lon="2.37976">
        <ele>67.7</ele>
        <time>2022-05-28T12:04:01Z</time>
      </trkpt>
      <trkpt lat="49.86675" lon="2.37977">
        <ele>67.7</ele>
        <time>2022-05-28T12:04:02Z</time>
      </trkpt>
      <trkpt lat="49.86674" lon="2.37977">
        <ele>67.7</ele>
        <time>2022-05-28T12:04:03Z</time>
      </trkpt>
      <trkpt lat="49.86673" lon="2.37978">
        <ele>67.7</ele>
        <time>2022-05-28T12:04:04Z</time>
      </trkpt>
      <trkpt lat="49.86672" lon="2.37978">
        <ele>67.8</ele>
        <time>2022-05-28T12:04:05Z</time>
      </trkpt>
      <trkpt lat="49.86671" lon="2.37978">
        <ele>67.8</ele>
        <time>2022-05-28T12:04:06Z</time>
      </trkpt>
      <trkpt lat="49.86668" lon="2.37979">
        <ele>67.8</ele>
        <time>2022-05-28T12:04:07Z</time>
      </trkpt>
      <trkpt lat="49.86667" lon="2.37979">
        <ele>67.8</ele>
        <time>2022-05-28T12:04:08Z</time>
      </trkpt>
      <trkpt lat="49.86666" lon="2.37979">
        <ele>67.8</ele>
        <time>2022-05-28T12:04:09Z</time>
      </trkpt>
      <trkpt lat="49.86664" lon="2.37978">
        <ele>67.9</ele>
        <time>2022-05-28T12:04:10Z</time>
      </trkpt>
      <trkpt lat="49.86663" lon="2.37978">
        <ele>67.9</ele>
        <time>2022-05-28T12:04:11Z</time>
      </trkpt>
      <trkpt lat="49.8666" lon="2.37977">
        <ele>67.9</ele>
        <time>2022-05-28T12:04:12Z</time>
      </trkpt>
      <trkpt lat="49.8666" lon="2.37977">
        <ele>67.9</ele>
        <time>2022-05-28T12:04:13Z</time>
      </trkpt>
      <trkpt lat="49.86659" lon="2.37976">
        <ele>67.9</ele>
        <time>2022-05-28T12:04:14Z</time>
      </trkpt>
      <trkpt lat="49.86658" lon="2.37976">
        <ele>67.9</ele>
        <time>2022-05-28T12:04:15Z</time>
      </trkpt>
      <trkpt lat="49.86657" lon="2.37975">
        <ele>67.9</ele>
        <time>2022-05-28T12:04:16Z</time>
      </trkpt>
      <trkpt lat="49.86656" lon="2.37974">
        <ele>67.9</ele>
        <time>2022-05-28T12:04:17Z</time>
      </trkpt>
      <trkpt lat="49.86656" lon="2.37974">
        <ele>67.9</ele>
        <time>2022-05-28T12:04:18Z</time>
      </trkpt>
      <trkpt lat="49.86655" lon="2.37974">
        <ele>67.9</ele>
        <time>2022-05-28T12:04:19Z</time>
      </trkpt>
      <trkpt lat="49.86655" lon="2.37973">
        <ele>67.9</ele>
        <time>2022-05-28T12:04:20Z</time>
      </trkpt>
      <trkpt lat="49.86655" lon="2.37972">
        <ele>67.9</ele>
        <time>2022-05-28T12:04:21Z</time>
      </trkpt>
      <trkpt lat="49.86654" lon="2.37971">
        <ele>67.9</ele>
        <time>2022-05-28T12:04:22Z</time>
      </trkpt>
      <trkpt lat="49.86654" lon="2.37971">
        <ele>67.9</ele>
        <time>2022-05-28T12:04:23Z</time>
      </trkpt>
      <trkpt lat="49.86653" lon="2.3797">
        <ele>67.9</ele>
        <time>2022-05-28T12:04:24Z</time>
      </trkpt>
      <trkpt lat="49.86653" lon="2.37969">
        <ele>67.9</ele>
        <time>2022-05-28T12:04:25Z</time>
      </trkpt>
      <trkpt lat="49.86652" lon="2.37968">
        <ele>67.9</ele>
        <time>2022-05-28T12:04:26Z</time>
      </trkpt>
      <trkpt lat="49.86651" lon="2.37967">
        <ele>67.9</ele>
        <time>2022-05-28T12:04:27Z</time>
      </trkpt>
      <trkpt lat="49.86651" lon="2.37966">
        <ele>67.9</ele>
        <time>2022-05-28T12:04:28Z</time>
      </trkpt>
      <trkpt lat="49.8665" lon="2.37965">
        <ele>67.9</ele>
        <time>2022-05-28T12:04:29Z</time>
      </trkpt>
      <trkpt lat="49.8665" lon="2.37964">
        <ele>67.9</ele>
        <time>2022-05-28T12:04:30Z</time>
      </trkpt>
      <trkpt lat="49.86649" lon="2.37963">
        <ele>67.9</ele>
        <time>2022-05-28T12:04:31Z</time>
      </trkpt>
      <trkpt lat="49.86649" lon="2.37962">
        <ele>67.9</ele>
        <time>2022-05-28T12:04:32Z</time>
      </trkpt>
      <trkpt lat="49.86648" lon="2.37961">
        <ele>67.9</ele>
        <time>2022-05-28T12:04:33Z</time>
      </trkpt>
      <trkpt lat="49.86647" lon="2.3796">
        <ele>67.9</ele>
        <time>2022-05-28T12:04:34Z</time>
      </trkpt>
      <trkpt lat="49.86647" lon="2.37959">
        <ele>67.9</ele>
        <time>2022-05-28T12:04:35Z</time>
      </trkpt>
      <trkpt lat="49.86646" lon="2.37958">
        <ele>67.9</ele>
        <time>2022-05-28T12:04:36Z</time>
      </trkpt>
      <trkpt lat="49.86645" lon="2.37956">
        <ele>67.9</ele>
        <time>2022-05-28T12:04:37Z</time>
      </trkpt>
      <trkpt lat="49.86645" lon="2.37956">
        <ele>67.9</ele>
        <time>2022-05-28T12:04:38Z</time>
      </trkpt>
      <trkpt lat="49.86644" lon="2.37956">
        <ele>67.9</ele>
        <time>2022-05-28T12:04:39Z</time>
      </trkpt>
      <trkpt lat="49.86643" lon="2.37955">
        <ele>67.9</ele>
        <time>2022-05-28T12:04:40Z</time>
      </trkpt>
      <trkpt lat="49.86642" lon="2.37954">
        <ele>67.9</ele>
        <time>2022-05-28T12:04:41Z</time>
      </trkpt>
      <trkpt lat="49.86641" lon="2.37954">
        <ele>67.9</ele>
        <time>2022-05-28T12:04:42Z</time>
      </trkpt>
      <trkpt lat="49.86641" lon="2.37953">
        <ele>67.9</ele>
        <time>2022-05-28T12:04:43Z</time>
      </trkpt>
      <trkpt lat="49.8664" lon="2.37953">
        <ele>67.9</ele>
        <time>2022-05-28T12:04:44Z</time>
      </trkpt>
      <trkpt lat="49.86639" lon="2.37952">
        <ele>67.9</ele>
        <time>2022-05-28T12:04:45Z</time>
      </trkpt>
      <trkpt lat="49.86639" lon="2.37952">
        <ele>67.9</ele>
        <time>2022-05-28T12:04:46Z</time>
      </trkpt>
      <trkpt lat="49.86638" lon="2.37951">
        <ele>67.9</ele>
        <time>2022-05-28T12:04:47Z</time>
      </trkpt>
      <trkpt lat="49.86637" lon="2.37951">
        <ele>67.9</ele>
        <time>2022-05-28T12:04:48Z</time>
      </trkpt>
      <trkpt lat="49.86636" lon="2.3795">
        <ele>67.9</ele>
        <time>2022-05-28T12:04:49Z</time>
      </trkpt>
      <trkpt lat="49.86635" lon="2.3795">
        <ele>67.9</ele>
        <time>2022-05-28T12:04:50Z</time>
      </trkpt>
      <trkpt lat="49.86635" lon="2.37949">
        <ele>67.9</ele>
        <time>2022-05-28T12:04:51Z</time>
      </trkpt>
      <trkpt lat="49.86634" lon="2.37948">
        <ele>67.9</ele>
        <time>2022-05-28T12:04:52Z</time>
      </trkpt>
      <trkpt lat="49.86634" lon="2.37948">
        <ele>67.9</ele>
        <time>2022-05-28T12:04:53Z</time>
      </trkpt>
      <trkpt lat="49.86633" lon="2.37947">
        <ele>67.9</ele>
        <time>2022-05-28T12:04:54Z</time>
      </trkpt>
      <trkpt lat="49.86632" lon="2.37947">
        <ele>67.9</ele>
        <time>2022-05-28T12:04:55Z</time>
      </trkpt>
      <trkpt lat="49.86631" lon="2.37946">
        <ele>67.9</ele>
        <time>2022-05-28T12:04:56Z</time>
      </trkpt>
      <trkpt lat="49.8663" lon="2.37946">
        <ele>67.9</ele>
        <time>2022-05-28T12:04:57Z</time>
      </trkpt>
      <trkpt lat="49.86629" lon="2.37946">
        <ele>67.8</ele>
        <time>2022-05-28T12:04:58Z</time>
      </trkpt>
      <trkpt lat="49.86628" lon="2.37945">
        <ele>67.8</ele>
        <time>2022-05-28T12:04:59Z</time>
      </trkpt>
      <trkpt lat="49.86627" lon="2.37945">
        <ele>67.8</ele>
        <time>2022-05-28T12:05:00Z</time>
      </trkpt>
      <trkpt lat="49.86626" lon="2.37945">
        <ele>67.8</ele>
        <time>2022-05-28T12:05:01Z</time>
      </trkpt>
      <trkpt lat="49.86626" lon="2.37944">
        <ele>67.8</ele>
        <time>2022-05-28T12:05:02Z</time>
      </trkpt>
      <trkpt lat="49.86625" lon="2.37944">
        <ele>67.8</ele>
        <time>2022-05-28T12:05:03Z</time>
      </trkpt>
      <trkpt lat="49.86624" lon="2.37944">
        <ele>67.8</ele>
        <time>2022-05-28T12:05:04Z</time>
      </trkpt>
      <trkpt lat="49.86623" lon="2.37943">
        <ele>67.8</ele>
        <time>2022-05-28T12:05:05Z</time>
      </trkpt>
      <trkpt lat="49.86621" lon="2.37943">
        <ele>67.8</ele>
        <time>2022-05-28T12:05:06Z</time>
      </trkpt>
      <trkpt lat="49.8662" lon="2.37942">
        <ele>67.8</ele>
        <time>2022-05-28T12:05:07Z</time>
      </trkpt>
      <trkpt lat="49.8662" lon="2.37942">
        <ele>67.8</ele>
        <time>2022-05-28T12:05:08Z</time>
      </trkpt>
      <trkpt lat="49.86618" lon="2.37942">
        <ele>67.8</ele>
        <time>2022-05-28T12:05:09Z</time>
      </trkpt>
      <trkpt lat="49.86617" lon="2.37941">
        <ele>67.8</ele>
        <time>2022-05-28T12:05:10Z</time>
      </trkpt>
      <trkpt lat="49.86616" lon="2.37941">
        <ele>67.8</ele>
        <time>2022-05-28T12:05:11Z</time>
      </trkpt>
      <trkpt lat="49.86616" lon="2.3794">
        <ele>67.7</ele>
        <time>2022-05-28T12:05:12Z</time>
      </trkpt>
      <trkpt lat="49.86615" lon="2.3794">
        <ele>67.7</ele>
        <time>2022-05-28T12:05:13Z</time>
      </trkpt>
      <trkpt lat="49.86615" lon="2.3794">
        <ele>67.7</ele>
        <time>2022-05-28T12:05:14Z</time>
      </trkpt>
      <trkpt lat="49.86614" lon="2.37939">
        <ele>67.7</ele>
        <time>2022-05-28T12:05:15Z</time>
      </trkpt>
      <trkpt lat="49.86613" lon="2.37939">
        <ele>67.7</ele>
        <time>2022-05-28T12:05:16Z</time>
      </trkpt>
      <trkpt lat="49.86611" lon="2.37939">
        <ele>67.7</ele>
        <time>2022-05-28T12:05:17Z</time>
      </trkpt>
      <trkpt lat="49.8661" lon="2.37938">
        <ele>67.7</ele>
        <time>2022-05-28T12:05:18Z</time>
      </trkpt>
      <trkpt lat="49.86609" lon="2.37938">
        <ele>67.7</ele>
        <time>2022-05-28T12:05:19Z</time>
      </trkpt>
      <trkpt lat="49.86607" lon="2.37938">
        <ele>67.7</ele>
        <time>2022-05-28T12:05:20Z</time>
      </trkpt>
      <trkpt lat="49.86606" lon="2.37938">
        <ele>67.7</ele>
        <time>2022-05-28T12:05:21Z</time>
      </trkpt>
      <trkpt lat="49.86605" lon="2.37938">
        <ele>67.7</ele>
        <time>2022-05-28T12:05:22Z</time>
      </trkpt>
      <trkpt lat="49.86604" lon="2.37938">
        <ele>67.7</ele>
        <time>2022-05-28T12:05:23Z</time>
      </trkpt>
      <trkpt lat="49.86604" lon="2.37937">
        <ele>67.7</ele>
        <time>2022-05-28T12:05:24Z</time>
      </trkpt>
      <trkpt lat="49.86603" lon="2.37937">
        <ele>67.7</ele>
        <time>2022-05-28T12:05:25Z</time>
      </trkpt>
      <trkpt lat="49.86601" lon="2.37937">
        <ele>67.7</ele>
        <time>2022-05-28T12:05:26Z</time>
      </trkpt>
      <trkpt lat="49.86599" lon="2.37936">
        <ele>67.7</ele>
        <time>2022-05-28T12:05:27Z</time>
      </trkpt>
      <trkpt lat="49.86599" lon="2.37936">
        <ele>67.7</ele>
        <time>2022-05-28T12:05:28Z</time>
      </trkpt>
      <trkpt lat="49.86598" lon="2.37936">
        <ele>67.7</ele>
        <time>2022-05-28T12:05:29Z</time>
      </trkpt>
      <trkpt lat="49.86597" lon="2.37935">
        <ele>67.7</ele>
        <time>2022-05-28T12:05:30Z</time>
      </trkpt>
      <trkpt lat="49.86596" lon="2.37935">
        <ele>67.7</ele>
        <time>2022-05-28T12:05:31Z</time>
      </trkpt>
      <trkpt lat="49.86595" lon="2.37935">
        <ele>67.7</ele>
        <time>2022-05-28T12:05:32Z</time>
      </trkpt>
      <trkpt lat="49.86594" lon="2.37935">
        <ele>67.7</ele>
        <time>2022-05-28T12:05:33Z</time>
      </trkpt>
      <trkpt lat="49.86592" lon="2.37935">
        <ele>67.6</ele>
        <time>2022-05-28T12:05:34Z</time>
      </trkpt>
      <trkpt lat="49.86591" lon="2.37935">
        <ele>67.6</ele>
        <time>2022-05-28T12:05:35Z</time>
      </trkpt>
      <trkpt lat="49.8659" lon="2.37935">
        <ele>67.6</ele>
        <time>2022-05-28T12:05:36Z</time>
      </trkpt>
      <trkpt lat="49.86589" lon="2.37934">
        <ele>67.6</ele>
        <time>2022-05-28T12:05:37Z</time>
      </trkpt>
      <trkpt lat="49.86588" lon="2.37934">
        <ele>67.6</ele>
        <time>2022-05-28T12:05:38Z</time>
      </trkpt>
      <trkpt lat="49.86588" lon="2.37934">
        <ele>67.6</ele>
        <time>2022-05-28T12:05:39Z</time>
      </trkpt>
      <trkpt lat="49.86587" lon="2.37934">
        <ele>67.6</ele>
        <time>2022-05-28T12:05:40Z</time>
      </trkpt>
      <trkpt lat="49.86586" lon="2.37933">
        <ele>67.6</ele>
        <time>2022-05-28T12:05:41Z</time>
      </trkpt>
      <trkpt lat="49.86585" lon="2.37933">
        <ele>67.6</ele>
        <time>2022-05-28T12:05:42Z</time>
      </trkpt>
      <trkpt lat="49.86584" lon="2.37933">
        <ele>67.6</ele>
        <time>2022-05-28T12:05:43Z</time>
      </trkpt>
      <trkpt lat="49.86583" lon="2.37933">
        <ele>67.6</ele>
        <time>2022-05-28T12:05:44Z</time>
      </trkpt>
      <trkpt lat="49.86582" lon="2.37932">
        <ele>67.6</ele>
        <time>2022-05-28T12:05:45Z</time>
      </trkpt>
      <trkpt lat="49.86582" lon="2.37932">
        <ele>67.6</ele>
        <time>2022-05-28T12:05:46Z</time>
      </trkpt>
      <trkpt lat="49.86582" lon="2.37932">
        <ele>67.6</ele>
        <time>2022-05-28T12:05:47Z</time>
      </trkpt>
      <trkpt lat="49.86581" lon="2.37932">
        <ele>67.6</ele>
        <time>2022-05-28T12:05:48Z</time>
      </trkpt>
      <trkpt lat="49.86581" lon="2.37932">
        <ele>67.6</ele>
        <time>2022-05-28T12:05:49Z</time>
      </trkpt>
      <trkpt lat="49.8658" lon="2.37931">
        <ele>67.6</ele>
        <time>2022-05-28T12:05:50Z</time>
      </trkpt>
      <trkpt lat="49.86579" lon="2.37931">
        <ele>67.6</ele>
        <time>2022-05-28T12:05:51Z</time>
      </trkpt>
      <trkpt lat="49.86578" lon="2.37931">
        <ele>67.6</ele>
        <time>2022-05-28T12:05:52Z</time>
      </trkpt>
      <trkpt lat="49.86578" lon="2.37931">
        <ele>67.6</ele>
        <time>2022-05-28T12:05:53Z</time>
      </trkpt>
      <trkpt lat="49.86577" lon="2.3793">
        <ele>67.6</ele>
        <time>2022-05-28T12:05:54Z</time>
      </trkpt>
      <trkpt lat="49.86576" lon="2.3793">
        <ele>67.6</ele>
        <time>2022-05-28T12:05:55Z</time>
      </trkpt>
      <trkpt lat="49.86575" lon="2.3793">
        <ele>67.5</ele>
        <time>2022-05-28T12:05:56Z</time>
      </trkpt>
      <trkpt lat="49.86573" lon="2.3793">
        <ele>67.5</ele>
        <time>2022-05-28T12:05:57Z</time>
      </trkpt>
      <trkpt lat="49.86573" lon="2.3793">
        <ele>67.5</ele>
        <time>2022-05-28T12:05:58Z</time>
      </trkpt>
      <trkpt lat="49.86572" lon="2.37929">
        <ele>67.5</ele>
        <time>2022-05-28T12:05:59Z</time>
      </trkpt>
      <trkpt lat="49.86571" lon="2.37929">
        <ele>67.5</ele>
        <time>2022-05-28T12:06:00Z</time>
      </trkpt>
      <trkpt lat="49.8657" lon="2.37929">
        <ele>67.5</ele>
        <time>2022-05-28T12:06:01Z</time>
      </trkpt>
      <trkpt lat="49.86568" lon="2.37929">
        <ele>67.5</ele>
        <time>2022-05-28T12:06:02Z</time>
      </trkpt>
      <trkpt lat="49.86567" lon="2.37928">
        <ele>67.5</ele>
        <time>2022-05-28T12:06:03Z</time>
      </trkpt>
      <trkpt lat="49.86565" lon="2.37928">
        <ele>67.5</ele>
        <time>2022-05-28T12:06:04Z</time>
      </trkpt>
      <trkpt lat="49.86564" lon="2.37928">
        <ele>67.5</ele>
        <time>2022-05-28T12:06:05Z</time>
      </trkpt>
      <trkpt lat="49.86563" lon="2.37928">
        <ele>67.4</ele>
        <time>2022-05-28T12:06:06Z</time>
      </trkpt>
      <trkpt lat="49.86562" lon="2.37928">
        <ele>67.4</ele>
        <time>2022-05-28T12:06:07Z</time>
      </trkpt>
      <trkpt lat="49.86562" lon="2.37928">
        <ele>67.4</ele>
        <time>2022-05-28T12:06:08Z</time>
      </trkpt>
      <trkpt lat="49.86561" lon="2.37927">
        <ele>67.4</ele>
        <time>2022-05-28T12:06:09Z</time>
      </trkpt>
      <trkpt lat="49.86559" lon="2.37926">
        <ele>67.4</ele>
        <time>2022-05-28T12:06:10Z</time>
      </trkpt>
      <trkpt lat="49.86558" lon="2.37926">
        <ele>67.4</ele>
        <time>2022-05-28T12:06:11Z</time>
      </trkpt>
      <trkpt lat="49.86557" lon="2.37925">
        <ele>67.4</ele>
        <time>2022-05-28T12:06:12Z</time>
      </trkpt>
      <trkpt lat="49.86556" lon="2.37925">
        <ele>67.4</ele>
        <time>2022-05-28T12:06:13Z</time>
      </trkpt>
      <trkpt lat="49.86555" lon="2.37925">
        <ele>67.4</ele>
        <time>2022-05-28T12:06:14Z</time>
      </trkpt>
      <trkpt lat="49.86554" lon="2.37924">
        <ele>67.4</ele>
        <time>2022-05-28T12:06:15Z</time>
      </trkpt>
      <trkpt lat="49.86554" lon="2.37924">
        <ele>67.4</ele>
        <time>2022-05-28T12:06:16Z</time>
      </trkpt>
      <trkpt lat="49.86553" lon="2.37924">
        <ele>67.4</ele>
        <time>2022-05-28T12:06:17Z</time>
      </trkpt>
      <trkpt lat="49.86552" lon="2.37924">
        <ele>67.4</ele>
        <time>2022-05-28T12:06:18Z</time>
      </trkpt>
      <trkpt lat="49.86552" lon="2.37923">
        <ele>67.4</ele>
        <time>2022-05-28T12:06:19Z</time>
      </trkpt>
      <trkpt lat="49.86551" lon="2.37923">
        <ele>67.4</ele>
        <time>2022-05-28T12:06:20Z</time>
      </trkpt>
      <trkpt lat="49.8655" lon="2.37923">
        <ele>67.4</ele>
        <time>2022-05-28T12:06:21Z</time>
      </trkpt>
      <trkpt lat="49.86549" lon="2.37922">
        <ele>67.3</ele>
        <time>2022-05-28T12:06:22Z</time>
      </trkpt>
      <trkpt lat="49.86548" lon="2.37922">
        <ele>67.3</ele>
        <time>2022-05-28T12:06:23Z</time>
      </trkpt>
      <trkpt lat="49.86547" lon="2.37922">
        <ele>67.3</ele>
        <time>2022-05-28T12:06:24Z</time>
      </trkpt>
      <trkpt lat="49.86545" lon="2.37921">
        <ele>67.3</ele>
        <time>2022-05-28T12:06:25Z</time>
      </trkpt>
      <trkpt lat="49.86544" lon="2.37921">
        <ele>67.3</ele>
        <time>2022-05-28T12:06:26Z</time>
      </trkpt>
      <trkpt lat="49.86544" lon="2.37921">
        <ele>67.3</ele>
        <time>2022-05-28T12:06:27Z</time>
      </trkpt>
      <trkpt lat="49.86543" lon="2.3792">
        <ele>67.3</ele>
        <time>2022-05-28T12:06:28Z</time>
      </trkpt>
      <trkpt lat="49.86542" lon="2.3792">
        <ele>67.3</ele>
        <time>2022-05-28T12:06:29Z</time>
      </trkpt>
      <trkpt lat="49.8654" lon="2.3792">
        <ele>67.3</ele>
        <time>2022-05-28T12:06:30Z</time>
      </trkpt>
      <trkpt lat="49.86539" lon="2.37919">
        <ele>67.3</ele>
        <time>2022-05-28T12:06:31Z</time>
      </trkpt>
      <trkpt lat="49.86538" lon="2.37919">
        <ele>67.3</ele>
        <time>2022-05-28T12:06:32Z</time>
      </trkpt>
      <trkpt lat="49.86537" lon="2.37918">
        <ele>67.2</ele>
        <time>2022-05-28T12:06:33Z</time>
      </trkpt>
      <trkpt lat="49.86535" lon="2.37918">
        <ele>67.2</ele>
        <time>2022-05-28T12:06:34Z</time>
      </trkpt>
      <trkpt lat="49.86534" lon="2.37917">
        <ele>67.2</ele>
        <time>2022-05-28T12:06:35Z</time>
      </trkpt>
      <trkpt lat="49.86533" lon="2.37917">
        <ele>67.2</ele>
        <time>2022-05-28T12:06:36Z</time>
      </trkpt>
      <trkpt lat="49.86531" lon="2.37916">
        <ele>67.2</ele>
        <time>2022-05-28T12:06:37Z</time>
      </trkpt>
      <trkpt lat="49.86529" lon="2.37916">
        <ele>67.1</ele>
        <time>2022-05-28T12:06:38Z</time>
      </trkpt>
      <trkpt lat="49.86528" lon="2.37915">
        <ele>67.1</ele>
        <time>2022-05-28T12:06:39Z</time>
      </trkpt>
      <trkpt lat="49.86527" lon="2.37915">
        <ele>67.1</ele>
        <time>2022-05-28T12:06:40Z</time>
      </trkpt>
      <trkpt lat="49.86526" lon="2.37915">
        <ele>67.1</ele>
        <time>2022-05-28T12:06:41Z</time>
      </trkpt>
      <trkpt lat="49.86525" lon="2.37914">
        <ele>67.1</ele>
        <time>2022-05-28T12:06:42Z</time>
      </trkpt>
      <trkpt lat="49.86523" lon="2.37914">
        <ele>67</ele>
        <time>2022-05-28T12:06:43Z</time>
      </trkpt>
      <trkpt lat="49.86523" lon="2.37914">
        <ele>67</ele>
        <time>2022-05-28T12:06:44Z</time>
      </trkpt>
      <trkpt lat="49.86522" lon="2.37914">
        <ele>67</ele>
        <time>2022-05-28T12:06:45Z</time>
      </trkpt>
      <trkpt lat="49.86521" lon="2.37914">
        <ele>67</ele>
        <time>2022-05-28T12:06:46Z</time>
      </trkpt>
      <trkpt lat="49.8652" lon="2.37913">
        <ele>67</ele>
        <time>2022-05-28T12:06:47Z</time>
      </trkpt>
      <trkpt lat="49.8652" lon="2.37913">
        <ele>67</ele>
        <time>2022-05-28T12:06:48Z</time>
      </trkpt>
      <trkpt lat="49.8652" lon="2.37913">
        <ele>67</ele>
        <time>2022-05-28T12:06:49Z</time>
      </trkpt>
      <trkpt lat="49.86519" lon="2.37913">
        <ele>67</ele>
        <time>2022-05-28T12:06:50Z</time>
      </trkpt>
      <trkpt lat="49.86518" lon="2.37913">
        <ele>67</ele>
        <time>2022-05-28T12:06:51Z</time>
      </trkpt>
      <trkpt lat="49.86518" lon="2.37913">
        <ele>66.9</ele>
        <time>2022-05-28T12:06:52Z</time>
      </trkpt>
      <trkpt lat="49.86517" lon="2.37913">
        <ele>66.9</ele>
        <time>2022-05-28T12:06:53Z</time>
      </trkpt>
      <trkpt lat="49.86516" lon="2.37913">
        <ele>66.9</ele>
        <time>2022-05-28T12:06:54Z</time>
      </trkpt>
      <trkpt lat="49.86515" lon="2.37913">
        <ele>66.9</ele>
        <time>2022-05-28T12:06:55Z</time>
      </trkpt>
      <trkpt lat="49.86513" lon="2.37913">
        <ele>66.9</ele>
        <time>2022-05-28T12:06:56Z</time>
      </trkpt>
      <trkpt lat="49.86511" lon="2.37913">
        <ele>66.8</ele>
        <time>2022-05-28T12:06:57Z</time>
      </trkpt>
      <trkpt lat="49.86509" lon="2.37912">
        <ele>66.8</ele>
        <time>2022-05-28T12:06:58Z</time>
      </trkpt>
      <trkpt lat="49.86509" lon="2.37911">
        <ele>66.8</ele>
        <time>2022-05-28T12:06:59Z</time>
      </trkpt>
      <trkpt lat="49.86508" lon="2.37911">
        <ele>66.8</ele>
        <time>2022-05-28T12:07:00Z</time>
      </trkpt>
      <trkpt lat="49.86507" lon="2.37911">
        <ele>66.8</ele>
        <time>2022-05-28T12:07:01Z</time>
      </trkpt>
      <trkpt lat="49.86506" lon="2.37911">
        <ele>66.8</ele>
        <time>2022-05-28T12:07:02Z</time>
      </trkpt>
      <trkpt lat="49.86505" lon="2.3791">
        <ele>66.7</ele>
        <time>2022-05-28T12:07:03Z</time>
      </trkpt>
      <trkpt lat="49.86504" lon="2.3791">
        <ele>66.7</ele>
        <time>2022-05-28T12:07:04Z</time>
      </trkpt>
      <trkpt lat="49.86503" lon="2.3791">
        <ele>66.7</ele>
        <time>2022-05-28T12:07:05Z</time>
      </trkpt>
      <trkpt lat="49.86503" lon="2.3791">
        <ele>66.7</ele>
        <time>2022-05-28T12:07:06Z</time>
      </trkpt>
      <trkpt lat="49.86502" lon="2.3791">
        <ele>66.7</ele>
        <time>2022-05-28T12:07:07Z</time>
      </trkpt>
      <trkpt lat="49.86502" lon="2.3791">
        <ele>66.7</ele>
        <time>2022-05-28T12:07:08Z</time>
      </trkpt>
      <trkpt lat="49.86501" lon="2.3791">
        <ele>66.7</ele>
        <time>2022-05-28T12:07:09Z</time>
      </trkpt>
      <trkpt lat="49.865" lon="2.37909">
        <ele>66.7</ele>
        <time>2022-05-28T12:07:10Z</time>
      </trkpt>
      <trkpt lat="49.86499" lon="2.37909">
        <ele>66.6</ele>
        <time>2022-05-28T12:07:11Z</time>
      </trkpt>
      <trkpt lat="49.86498" lon="2.37909">
        <ele>66.6</ele>
        <time>2022-05-28T12:07:12Z</time>
      </trkpt>
      <trkpt lat="49.86497" lon="2.37908">
        <ele>66.6</ele>
        <time>2022-05-28T12:07:13Z</time>
      </trkpt>
      <trkpt lat="49.86497" lon="2.37908">
        <ele>66.6</ele>
        <time>2022-05-28T12:07:14Z</time>
      </trkpt>
      <trkpt lat="49.86496" lon="2.37908">
        <ele>66.6</ele>
        <time>2022-05-28T12:07:15Z</time>
      </trkpt>
      <trkpt lat="49.86495" lon="2.37909">
        <ele>66.6</ele>
        <time>2022-05-28T12:07:16Z</time>
      </trkpt>
      <trkpt lat="49.86493" lon="2.37909">
        <ele>66.6</ele>
        <time>2022-05-28T12:07:17Z</time>
      </trkpt>
      <trkpt lat="49.86493" lon="2.37908">
        <ele>66.5</ele>
        <time>2022-05-28T12:07:18Z</time>
      </trkpt>
      <trkpt lat="49.86492" lon="2.37908">
        <ele>66.5</ele>
        <time>2022-05-28T12:07:19Z</time>
      </trkpt>
      <trkpt lat="49.86491" lon="2.37908">
        <ele>66.5</ele>
        <time>2022-05-28T12:07:20Z</time>
      </trkpt>
      <trkpt lat="49.86491" lon="2.37908">
        <ele>66.5</ele>
        <time>2022-05-28T12:07:21Z</time>
      </trkpt>
      <trkpt lat="49.8649" lon="2.37908">
        <ele>66.5</ele>
        <time>2022-05-28T12:07:22Z</time>
      </trkpt>
      <trkpt lat="49.86489" lon="2.37909">
        <ele>66.5</ele>
        <time>2022-05-28T12:07:23Z</time>
      </trkpt>
      <trkpt lat="49.86489" lon="2.37909">
        <ele>66.5</ele>
        <time>2022-05-28T12:07:24Z</time>
      </trkpt>
      <trkpt lat="49.86488" lon="2.37908">
        <ele>66.5</ele>
        <time>2022-05-28T12:07:25Z</time>
      </trkpt>
      <trkpt lat="49.86488" lon="2.37908">
        <ele>66.5</ele>
        <time>2022-05-28T12:07:26Z</time>
      </trkpt>
      <trkpt lat="49.86487" lon="2.37908">
        <ele>66.4</ele>
        <time>2022-05-28T12:07:27Z</time>
      </trkpt>
      <trkpt lat="49.86485" lon="2.37908">
        <ele>66.4</ele>
        <time>2022-05-28T12:07:28Z</time>
      </trkpt>
      <trkpt lat="49.86485" lon="2.37907">
        <ele>66.4</ele>
        <time>2022-05-28T12:07:29Z</time>
      </trkpt>
      <trkpt lat="49.86484" lon="2.37907">
        <ele>66.4</ele>
        <time>2022-05-28T12:07:30Z</time>
      </trkpt>
      <trkpt lat="49.86483" lon="2.37907">
        <ele>66.4</ele>
        <time>2022-05-28T12:07:31Z</time>
      </trkpt>
      <trkpt lat="49.86482" lon="2.37907">
        <ele>66.3</ele>
        <time>2022-05-28T12:07:32Z</time>
      </trkpt>
      <trkpt lat="49.8648" lon="2.37907">
        <ele>66.3</ele>
        <time>2022-05-28T12:07:33Z</time>
      </trkpt>
      <trkpt lat="49.86478" lon="2.37906">
        <ele>66.3</ele>
        <time>2022-05-28T12:07:34Z</time>
      </trkpt>
      <trkpt lat="49.86478" lon="2.37906">
        <ele>66.3</ele>
        <time>2022-05-28T12:07:35Z</time>
      </trkpt>
      <trkpt lat="49.86477" lon="2.37905">
        <ele>66.2</ele>
        <time>2022-05-28T12:07:36Z</time>
      </trkpt>
      <trkpt lat="49.86475" lon="2.37905">
        <ele>66.2</ele>
        <time>2022-05-28T12:07:37Z</time>
      </trkpt>
      <trkpt lat="49.86474" lon="2.37905">
        <ele>66.2</ele>
        <time>2022-05-28T12:07:38Z</time>
      </trkpt>
      <trkpt lat="49.86473" lon="2.37904">
        <ele>66.2</ele>
        <time>2022-05-28T12:07:39Z</time>
      </trkpt>
      <trkpt lat="49.86473" lon="2.37903">
        <ele>66.1</ele>
        <time>2022-05-28T12:07:40Z</time>
      </trkpt>
      <trkpt lat="49.86472" lon="2.37903">
        <ele>66.1</ele>
        <time>2022-05-28T12:07:41Z</time>
      </trkpt>
      <trkpt lat="49.86472" lon="2.37902">
        <ele>66.1</ele>
        <time>2022-05-28T12:07:42Z</time>
      </trkpt>
      <trkpt lat="49.86471" lon="2.37902">
        <ele>66.1</ele>
        <time>2022-05-28T12:07:43Z</time>
      </trkpt>
      <trkpt lat="49.86469" lon="2.37901">
        <ele>66</ele>
        <time>2022-05-28T12:07:44Z</time>
      </trkpt>
      <trkpt lat="49.86468" lon="2.379">
        <ele>66</ele>
        <time>2022-05-28T12:07:45Z</time>
      </trkpt>
      <trkpt lat="49.86467" lon="2.379">
        <ele>66</ele>
        <time>2022-05-28T12:07:46Z</time>
      </trkpt>
      <trkpt lat="49.86466" lon="2.37899">
        <ele>65.9</ele>
        <time>2022-05-28T12:07:47Z</time>
      </trkpt>
      <trkpt lat="49.86466" lon="2.37899">
        <ele>65.9</ele>
        <time>2022-05-28T12:07:48Z</time>
      </trkpt>
      <trkpt lat="49.86465" lon="2.37899">
        <ele>65.9</ele>
        <time>2022-05-28T12:07:49Z</time>
      </trkpt>
      <trkpt lat="49.86464" lon="2.37898">
        <ele>65.9</ele>
        <time>2022-05-28T12:07:50Z</time>
      </trkpt>
      <trkpt lat="49.86463" lon="2.37898">
        <ele>65.8</ele>
        <time>2022-05-28T12:07:51Z</time>
      </trkpt>
      <trkpt lat="49.86462" lon="2.37897">
        <ele>65.8</ele>
        <time>2022-05-28T12:07:52Z</time>
      </trkpt>
      <trkpt lat="49.86461" lon="2.37897">
        <ele>65.8</ele>
        <time>2022-05-28T12:07:53Z</time>
      </trkpt>
      <trkpt lat="49.86459" lon="2.37896">
        <ele>65.7</ele>
        <time>2022-05-28T12:07:54Z</time>
      </trkpt>
      <trkpt lat="49.86458" lon="2.37896">
        <ele>65.7</ele>
        <time>2022-05-28T12:07:55Z</time>
      </trkpt>
      <trkpt lat="49.86457" lon="2.37896">
        <ele>65.7</ele>
        <time>2022-05-28T12:07:56Z</time>
      </trkpt>
      <trkpt lat="49.86455" lon="2.37895">
        <ele>65.6</ele>
        <time>2022-05-28T12:07:57Z</time>
      </trkpt>
      <trkpt lat="49.86454" lon="2.37895">
        <ele>65.5</ele>
        <time>2022-05-28T12:07:58Z</time>
      </trkpt>
      <trkpt lat="49.86453" lon="2.37894">
        <ele>65.5</ele>
        <time>2022-05-28T12:07:59Z</time>
      </trkpt>
      <trkpt lat="49.86452" lon="2.37894">
        <ele>65.5</ele>
        <time>2022-05-28T12:08:00Z</time>
      </trkpt>
      <trkpt lat="49.86451" lon="2.37893">
        <ele>65.5</ele>
        <time>2022-05-28T12:08:01Z</time>
      </trkpt>
      <trkpt lat="49.8645" lon="2.37893">
        <ele>65.4</ele>
        <time>2022-05-28T12:08:02Z</time>
      </trkpt>
      <trkpt lat="49.86449" lon="2.37892">
        <ele>65.4</ele>
        <time>2022-05-28T12:08:03Z</time>
      </trkpt>
      <trkpt lat="49.86448" lon="2.37893">
        <ele>65.4</ele>
        <time>2022-05-28T12:08:04Z</time>
      </trkpt>
      <trkpt lat="49.86448" lon="2.37892">
        <ele>65.4</ele>
        <time>2022-05-28T12:08:05Z</time>
      </trkpt>
      <trkpt lat="49.86448" lon="2.37892">
        <ele>65.4</ele>
        <time>2022-05-28T12:08:06Z</time>
      </trkpt>
      <trkpt lat="49.86447" lon="2.37892">
        <ele>65.3</ele>
        <time>2022-05-28T12:08:07Z</time>
      </trkpt>
      <trkpt lat="49.86446" lon="2.37892">
        <ele>65.3</ele>
        <time>2022-05-28T12:08:08Z</time>
      </trkpt>
      <trkpt lat="49.86444" lon="2.37892">
        <ele>65.2</ele>
        <time>2022-05-28T12:08:09Z</time>
      </trkpt>
      <trkpt lat="49.86443" lon="2.37892">
        <ele>65.2</ele>
        <time>2022-05-28T12:08:10Z</time>
      </trkpt>
      <trkpt lat="49.86442" lon="2.37892">
        <ele>65.2</ele>
        <time>2022-05-28T12:08:11Z</time>
      </trkpt>
      <trkpt lat="49.86441" lon="2.37892">
        <ele>65.1</ele>
        <time>2022-05-28T12:08:12Z</time>
      </trkpt>
      <trkpt lat="49.86441" lon="2.37892">
        <ele>65.1</ele>
        <time>2022-05-28T12:08:13Z</time>
      </trkpt>
      <trkpt lat="49.86441" lon="2.37892">
        <ele>65.1</ele>
        <time>2022-05-28T12:08:14Z</time>
      </trkpt>
      <trkpt lat="49.86441" lon="2.37892">
        <ele>65.1</ele>
        <time>2022-05-28T12:08:15Z</time>
      </trkpt>
      <trkpt lat="49.86441" lon="2.37892">
        <ele>65.1</ele>
        <time>2022-05-28T12:08:16Z</time>
      </trkpt>
      <trkpt lat="49.8644" lon="2.37892">
        <ele>65.1</ele>
        <time>2022-05-28T12:08:17Z</time>
      </trkpt>
      <trkpt lat="49.86439" lon="2.37891">
        <ele>65</ele>
        <time>2022-05-28T12:08:18Z</time>
      </trkpt>
      <trkpt lat="49.86439" lon="2.37891">
        <ele>65</ele>
        <time>2022-05-28T12:08:19Z</time>
      </trkpt>
      <trkpt lat="49.86437" lon="2.3789">
        <ele>65</ele>
        <time>2022-05-28T12:08:20Z</time>
      </trkpt>
      <trkpt lat="49.86437" lon="2.37889">
        <ele>64.9</ele>
        <time>2022-05-28T12:08:21Z</time>
      </trkpt>
      <trkpt lat="49.86436" lon="2.37889">
        <ele>64.9</ele>
        <time>2022-05-28T12:08:22Z</time>
      </trkpt>
      <trkpt lat="49.86435" lon="2.37888">
        <ele>64.9</ele>
        <time>2022-05-28T12:08:23Z</time>
      </trkpt>
      <trkpt lat="49.86435" lon="2.37888">
        <ele>64.9</ele>
        <time>2022-05-28T12:08:24Z</time>
      </trkpt>
      <trkpt lat="49.86434" lon="2.37888">
        <ele>64.9</ele>
        <time>2022-05-28T12:08:25Z</time>
      </trkpt>
      <trkpt lat="49.86433" lon="2.37887">
        <ele>64.8</ele>
        <time>2022-05-28T12:08:26Z</time>
      </trkpt>
      <trkpt lat="49.86432" lon="2.37887">
        <ele>64.8</ele>
        <time>2022-05-28T12:08:27Z</time>
      </trkpt>
      <trkpt lat="49.8643" lon="2.37886">
        <ele>64.7</ele>
        <time>2022-05-28T12:08:28Z</time>
      </trkpt>
      <trkpt lat="49.86429" lon="2.37886">
        <ele>64.7</ele>
        <time>2022-05-28T12:08:29Z</time>
      </trkpt>
      <trkpt lat="49.86429" lon="2.37886">
        <ele>64.6</ele>
        <time>2022-05-28T12:08:30Z</time>
      </trkpt>
      <trkpt lat="49.86427" lon="2.37886">
        <ele>64.6</ele>
        <time>2022-05-28T12:08:31Z</time>
      </trkpt>
      <trkpt lat="49.86426" lon="2.37885">
        <ele>64.5</ele>
        <time>2022-05-28T12:08:32Z</time>
      </trkpt>
      <trkpt lat="49.86424" lon="2.37885">
        <ele>64.5</ele>
        <time>2022-05-28T12:08:33Z</time>
      </trkpt>
      <trkpt lat="49.86423" lon="2.37884">
        <ele>64.4</ele>
        <time>2022-05-28T12:08:34Z</time>
      </trkpt>
      <trkpt lat="49.86421" lon="2.37884">
        <ele>64.4</ele>
        <time>2022-05-28T12:08:35Z</time>
      </trkpt>
      <trkpt lat="49.8642" lon="2.37884">
        <ele>64.4</ele>
        <time>2022-05-28T12:08:36Z</time>
      </trkpt>
      <trkpt lat="49.86419" lon="2.37884">
        <ele>64.4</ele>
        <time>2022-05-28T12:08:37Z</time>
      </trkpt>
      <trkpt lat="49.86418" lon="2.37883">
        <ele>64.3</ele>
        <time>2022-05-28T12:08:38Z</time>
      </trkpt>
      <trkpt lat="49.86417" lon="2.37883">
        <ele>64.3</ele>
        <time>2022-05-28T12:08:39Z</time>
      </trkpt>
      <trkpt lat="49.86416" lon="2.37883">
        <ele>64.3</ele>
        <time>2022-05-28T12:08:40Z</time>
      </trkpt>
      <trkpt lat="49.86416" lon="2.37883">
        <ele>64.3</ele>
        <time>2022-05-28T12:08:41Z</time>
      </trkpt>
      <trkpt lat="49.86415" lon="2.37883">
        <ele>64.3</ele>
        <time>2022-05-28T12:08:42Z</time>
      </trkpt>
      <trkpt lat="49.86415" lon="2.37884">
        <ele>64.3</ele>
        <time>2022-05-28T12:08:43Z</time>
      </trkpt>
      <trkpt lat="49.86414" lon="2.37885">
        <ele>64.3</ele>
        <time>2022-05-28T12:08:44Z</time>
      </trkpt>
      <trkpt lat="49.86414" lon="2.37886">
        <ele>64.2</ele>
        <time>2022-05-28T12:08:45Z</time>
      </trkpt>
      <trkpt lat="49.86412" lon="2.37889">
        <ele>64.2</ele>
        <time>2022-05-28T12:08:46Z</time>
      </trkpt>
      <trkpt lat="49.86412" lon="2.37889">
        <ele>64.2</ele>
        <time>2022-05-28T12:08:47Z</time>
      </trkpt>
      <trkpt lat="49.86411" lon="2.3789">
        <ele>64.2</ele>
        <time>2022-05-28T12:08:48Z</time>
      </trkpt>
      <trkpt lat="49.86409" lon="2.37892">
        <ele>64.1</ele>
        <time>2022-05-28T12:08:49Z</time>
      </trkpt>
      <trkpt lat="49.86409" lon="2.37893">
        <ele>64.1</ele>
        <time>2022-05-28T12:08:50Z</time>
      </trkpt>
      <trkpt lat="49.86408" lon="2.37894">
        <ele>64.1</ele>
        <time>2022-05-28T12:08:51Z</time>
      </trkpt>
      <trkpt lat="49.86406" lon="2.37896">
        <ele>64.1</ele>
        <time>2022-05-28T12:08:52Z</time>
      </trkpt>
      <trkpt lat="49.86405" lon="2.37898">
        <ele>64.1</ele>
        <time>2022-05-28T12:08:53Z</time>
      </trkpt>
      <trkpt lat="49.86404" lon="2.37899">
        <ele>64</ele>
        <time>2022-05-28T12:08:54Z</time>
      </trkpt>
      <trkpt lat="49.86403" lon="2.379">
        <ele>64</ele>
        <time>2022-05-28T12:08:55Z</time>
      </trkpt>
      <trkpt lat="49.86402" lon="2.37901">
        <ele>64</ele>
        <time>2022-05-28T12:08:56Z</time>
      </trkpt>
      <trkpt lat="49.864" lon="2.37903">
        <ele>64</ele>
        <time>2022-05-28T12:08:57Z</time>
      </trkpt>
      <trkpt lat="49.86398" lon="2.37905">
        <ele>63.9</ele>
        <time>2022-05-28T12:08:58Z</time>
      </trkpt>
      <trkpt lat="49.86398" lon="2.37906">
        <ele>63.9</ele>
        <time>2022-05-28T12:08:59Z</time>
      </trkpt>
      <trkpt lat="49.86397" lon="2.37907">
        <ele>63.9</ele>
        <time>2022-05-28T12:09:00Z</time>
      </trkpt>
      <trkpt lat="49.86397" lon="2.37909">
        <ele>63.9</ele>
        <time>2022-05-28T12:09:01Z</time>
      </trkpt>
      <trkpt lat="49.86397" lon="2.37911">
        <ele>63.9</ele>
        <time>2022-05-28T12:09:02Z</time>
      </trkpt>
      <trkpt lat="49.86396" lon="2.37914">
        <ele>63.9</ele>
        <time>2022-05-28T12:09:03Z</time>
      </trkpt>
      <trkpt lat="49.86396" lon="2.37914">
        <ele>63.9</ele>
        <time>2022-05-28T12:09:04Z</time>
      </trkpt>
      <trkpt lat="49.86396" lon="2.37914">
        <ele>63.9</ele>
        <time>2022-05-28T12:09:05Z</time>
      </trkpt>
      <trkpt lat="49.86396" lon="2.37915">
        <ele>63.9</ele>
        <time>2022-05-28T12:09:06Z</time>
      </trkpt>
      <trkpt lat="49.86396" lon="2.37915">
        <ele>63.9</ele>
        <time>2022-05-28T12:09:07Z</time>
      </trkpt>
      <trkpt lat="49.86396" lon="2.37915">
        <ele>63.9</ele>
        <time>2022-05-28T12:09:08Z</time>
      </trkpt>
      <trkpt lat="49.86396" lon="2.37916">
        <ele>63.9</ele>
        <time>2022-05-28T12:09:09Z</time>
      </trkpt>
      <trkpt lat="49.86396" lon="2.37916">
        <ele>63.9</ele>
        <time>2022-05-28T12:09:10Z</time>
      </trkpt>
      <trkpt lat="49.86396" lon="2.37917">
        <ele>63.9</ele>
        <time>2022-05-28T12:09:11Z</time>
      </trkpt>
      <trkpt lat="49.86396" lon="2.37918">
        <ele>63.9</ele>
        <time>2022-05-28T12:09:12Z</time>
      </trkpt>
      <trkpt lat="49.86396" lon="2.37919">
        <ele>63.9</ele>
        <time>2022-05-28T12:09:13Z</time>
      </trkpt>
      <trkpt lat="49.86396" lon="2.3792">
        <ele>63.9</ele>
        <time>2022-05-28T12:09:14Z</time>
      </trkpt>
      <trkpt lat="49.86395" lon="2.37921">
        <ele>63.9</ele>
        <time>2022-05-28T12:09:15Z</time>
      </trkpt>
      <trkpt lat="49.86395" lon="2.37922">
        <ele>64</ele>
        <time>2022-05-28T12:09:16Z</time>
      </trkpt>
      <trkpt lat="49.86395" lon="2.37923">
        <ele>64</ele>
        <time>2022-05-28T12:09:17Z</time>
      </trkpt>
      <trkpt lat="49.86394" lon="2.37924">
        <ele>64</ele>
        <time>2022-05-28T12:09:18Z</time>
      </trkpt>
      <trkpt lat="49.86394" lon="2.37925">
        <ele>64</ele>
        <time>2022-05-28T12:09:19Z</time>
      </trkpt>
      <trkpt lat="49.86393" lon="2.37926">
        <ele>64</ele>
        <time>2022-05-28T12:09:20Z</time>
      </trkpt>
      <trkpt lat="49.86393" lon="2.37927">
        <ele>64</ele>
        <time>2022-05-28T12:09:21Z</time>
      </trkpt>
      <trkpt lat="49.86392" lon="2.37929">
        <ele>64</ele>
        <time>2022-05-28T12:09:22Z</time>
      </trkpt>
      <trkpt lat="49.86392" lon="2.3793">
        <ele>64</ele>
        <time>2022-05-28T12:09:23Z</time>
      </trkpt>
      <trkpt lat="49.86392" lon="2.37931">
        <ele>64</ele>
        <time>2022-05-28T12:09:24Z</time>
      </trkpt>
      <trkpt lat="49.86391" lon="2.37932">
        <ele>64</ele>
        <time>2022-05-28T12:09:25Z</time>
      </trkpt>
      <trkpt lat="49.86391" lon="2.37933">
        <ele>64</ele>
        <time>2022-05-28T12:09:26Z</time>
      </trkpt>
      <trkpt lat="49.86391" lon="2.37934">
        <ele>64</ele>
        <time>2022-05-28T12:09:27Z</time>
      </trkpt>
      <trkpt lat="49.86391" lon="2.37935">
        <ele>64</ele>
        <time>2022-05-28T12:09:28Z</time>
      </trkpt>
      <trkpt lat="49.86391" lon="2.37936">
        <ele>64</ele>
        <time>2022-05-28T12:09:29Z</time>
      </trkpt>
      <trkpt lat="49.8639" lon="2.37937">
        <ele>64</ele>
        <time>2022-05-28T12:09:30Z</time>
      </trkpt>
      <trkpt lat="49.8639" lon="2.37939">
        <ele>64</ele>
        <time>2022-05-28T12:09:31Z</time>
      </trkpt>
      <trkpt lat="49.8639" lon="2.3794">
        <ele>64.1</ele>
        <time>2022-05-28T12:09:32Z</time>
      </trkpt>
      <trkpt lat="49.86389" lon="2.37942">
        <ele>64.1</ele>
        <time>2022-05-28T12:09:33Z</time>
      </trkpt>
      <trkpt lat="49.86389" lon="2.37944">
        <ele>64.1</ele>
        <time>2022-05-28T12:09:34Z</time>
      </trkpt>
      <trkpt lat="49.86388" lon="2.37945">
        <ele>64.1</ele>
        <time>2022-05-28T12:09:35Z</time>
      </trkpt>
      <trkpt lat="49.86388" lon="2.37947">
        <ele>64.1</ele>
        <time>2022-05-28T12:09:36Z</time>
      </trkpt>
      <trkpt lat="49.86388" lon="2.37948">
        <ele>64.1</ele>
        <time>2022-05-28T12:09:37Z</time>
      </trkpt>
      <trkpt lat="49.86388" lon="2.3795">
        <ele>64.1</ele>
        <time>2022-05-28T12:09:38Z</time>
      </trkpt>
      <trkpt lat="49.86387" lon="2.37951">
        <ele>64.1</ele>
        <time>2022-05-28T12:09:39Z</time>
      </trkpt>
      <trkpt lat="49.86387" lon="2.37951">
        <ele>64.1</ele>
        <time>2022-05-28T12:09:40Z</time>
      </trkpt>
      <trkpt lat="49.86387" lon="2.37953">
        <ele>64.1</ele>
        <time>2022-05-28T12:09:41Z</time>
      </trkpt>
      <trkpt lat="49.86386" lon="2.37953">
        <ele>64.1</ele>
        <time>2022-05-28T12:09:42Z</time>
      </trkpt>
      <trkpt lat="49.86386" lon="2.37955">
        <ele>64.1</ele>
        <time>2022-05-28T12:09:43Z</time>
      </trkpt>
      <trkpt lat="49.86386" lon="2.37956">
        <ele>64.1</ele>
        <time>2022-05-28T12:09:44Z</time>
      </trkpt>
      <trkpt lat="49.86386" lon="2.37957">
        <ele>64.1</ele>
        <time>2022-05-28T12:09:45Z</time>
      </trkpt>
      <trkpt lat="49.86385" lon="2.37958">
        <ele>64.1</ele>
        <time>2022-05-28T12:09:46Z</time>
      </trkpt>
      <trkpt lat="49.86385" lon="2.37959">
        <ele>64.1</ele>
        <time>2022-05-28T12:09:47Z</time>
      </trkpt>
      <trkpt lat="49.86385" lon="2.37961">
        <ele>64.1</ele>
        <time>2022-05-28T12:09:48Z</time>
      </trkpt>
      <trkpt lat="49.86385" lon="2.37962">
        <ele>64.1</ele>
        <time>2022-05-28T12:09:49Z</time>
      </trkpt>
      <trkpt lat="49.86384" lon="2.37963">
        <ele>64.1</ele>
        <time>2022-05-28T12:09:50Z</time>
      </trkpt>
      <trkpt lat="49.86384" lon="2.37965">
        <ele>64.1</ele>
        <time>2022-05-28T12:09:51Z</time>
      </trkpt>
      <trkpt lat="49.86384" lon="2.37966">
        <ele>64.2</ele>
        <time>2022-05-28T12:09:52Z</time>
      </trkpt>
      <trkpt lat="49.86384" lon="2.37967">
        <ele>64.2</ele>
        <time>2022-05-28T12:09:53Z</time>
      </trkpt>
      <trkpt lat="49.86383" lon="2.37968">
        <ele>64.2</ele>
        <time>2022-05-28T12:09:54Z</time>
      </trkpt>
      <trkpt lat="49.86383" lon="2.37969">
        <ele>64.2</ele>
        <time>2022-05-28T12:09:55Z</time>
      </trkpt>
      <trkpt lat="49.86383" lon="2.3797">
        <ele>64.2</ele>
        <time>2022-05-28T12:09:56Z</time>
      </trkpt>
      <trkpt lat="49.86382" lon="2.37972">
        <ele>64.2</ele>
        <time>2022-05-28T12:09:57Z</time>
      </trkpt>
      <trkpt lat="49.86382" lon="2.37973">
        <ele>64.2</ele>
        <time>2022-05-28T12:09:58Z</time>
      </trkpt>
      <trkpt lat="49.86381" lon="2.37974">
        <ele>64.2</ele>
        <time>2022-05-28T12:09:59Z</time>
      </trkpt>
      <trkpt lat="49.86381" lon="2.37974">
        <ele>64.2</ele>
        <time>2022-05-28T12:10:00Z</time>
      </trkpt>
      <trkpt lat="49.86381" lon="2.37976">
        <ele>64.2</ele>
        <time>2022-05-28T12:10:01Z</time>
      </trkpt>
      <trkpt lat="49.86381" lon="2.37977">
        <ele>64.2</ele>
        <time>2022-05-28T12:10:02Z</time>
      </trkpt>
      <trkpt lat="49.8638" lon="2.37978">
        <ele>64.2</ele>
        <time>2022-05-28T12:10:03Z</time>
      </trkpt>
      <trkpt lat="49.8638" lon="2.3798">
        <ele>64.2</ele>
        <time>2022-05-28T12:10:04Z</time>
      </trkpt>
      <trkpt lat="49.8638" lon="2.3798">
        <ele>64.2</ele>
        <time>2022-05-28T12:10:05Z</time>
      </trkpt>
      <trkpt lat="49.8638" lon="2.37981">
        <ele>64.2</ele>
        <time>2022-05-28T12:10:06Z</time>
      </trkpt>
      <trkpt lat="49.86379" lon="2.37983">
        <ele>64.2</ele>
        <time>2022-05-28T12:10:07Z</time>
      </trkpt>
      <trkpt lat="49.86379" lon="2.37984">
        <ele>64.2</ele>
        <time>2022-05-28T12:10:08Z</time>
      </trkpt>
      <trkpt lat="49.86379" lon="2.37986">
        <ele>64.2</ele>
        <time>2022-05-28T12:10:09Z</time>
      </trkpt>
      <trkpt lat="49.86379" lon="2.37987">
        <ele>64.2</ele>
        <time>2022-05-28T12:10:10Z</time>
      </trkpt>
      <trkpt lat="49.86379" lon="2.37988">
        <ele>64.2</ele>
        <time>2022-05-28T12:10:11Z</time>
      </trkpt>
      <trkpt lat="49.86378" lon="2.37989">
        <ele>64.2</ele>
        <time>2022-05-28T12:10:12Z</time>
      </trkpt>
      <trkpt lat="49.86378" lon="2.3799">
        <ele>64.2</ele>
        <time>2022-05-28T12:10:13Z</time>
      </trkpt>
      <trkpt lat="49.86378" lon="2.37992">
        <ele>64.2</ele>
        <time>2022-05-28T12:10:14Z</time>
      </trkpt>
      <trkpt lat="49.86377" lon="2.37993">
        <ele>64.3</ele>
        <time>2022-05-28T12:10:15Z</time>
      </trkpt>
      <trkpt lat="49.86377" lon="2.37995">
        <ele>64.3</ele>
        <time>2022-05-28T12:10:16Z</time>
      </trkpt>
      <trkpt lat="49.86377" lon="2.37996">
        <ele>64.3</ele>
        <time>2022-05-28T12:10:17Z</time>
      </trkpt>
      <trkpt lat="49.86376" lon="2.37997">
        <ele>64.3</ele>
        <time>2022-05-28T12:10:18Z</time>
      </trkpt>
      <trkpt lat="49.86376" lon="2.37998">
        <ele>64.3</ele>
        <time>2022-05-28T12:10:19Z</time>
      </trkpt>
      <trkpt lat="49.86376" lon="2.38">
        <ele>64.3</ele>
        <time>2022-05-28T12:10:20Z</time>
      </trkpt>
      <trkpt lat="49.86375" lon="2.38001">
        <ele>64.3</ele>
        <time>2022-05-28T12:10:21Z</time>
      </trkpt>
      <trkpt lat="49.86375" lon="2.38003">
        <ele>64.3</ele>
        <time>2022-05-28T12:10:22Z</time>
      </trkpt>
      <trkpt lat="49.86375" lon="2.38004">
        <ele>64.3</ele>
        <time>2022-05-28T12:10:23Z</time>
      </trkpt>
      <trkpt lat="49.86375" lon="2.38005">
        <ele>64.3</ele>
        <time>2022-05-28T12:10:24Z</time>
      </trkpt>
      <trkpt lat="49.86374" lon="2.38006">
        <ele>64.3</ele>
        <time>2022-05-28T12:10:25Z</time>
      </trkpt>
      <trkpt lat="49.86374" lon="2.38008">
        <ele>64.3</ele>
        <time>2022-05-28T12:10:26Z</time>
      </trkpt>
      <trkpt lat="49.86374" lon="2.38009">
        <ele>64.3</ele>
        <time>2022-05-28T12:10:27Z</time>
      </trkpt>
      <trkpt lat="49.86373" lon="2.3801">
        <ele>64.3</ele>
        <time>2022-05-28T12:10:28Z</time>
      </trkpt>
      <trkpt lat="49.86373" lon="2.38012">
        <ele>64.3</ele>
        <time>2022-05-28T12:10:29Z</time>
      </trkpt>
      <trkpt lat="49.86373" lon="2.38013">
        <ele>64.3</ele>
        <time>2022-05-28T12:10:30Z</time>
      </trkpt>
      <trkpt lat="49.86373" lon="2.38014">
        <ele>64.3</ele>
        <time>2022-05-28T12:10:31Z</time>
      </trkpt>
      <trkpt lat="49.86372" lon="2.38016">
        <ele>64.3</ele>
        <time>2022-05-28T12:10:32Z</time>
      </trkpt>
      <trkpt lat="49.86372" lon="2.38017">
        <ele>64.3</ele>
        <time>2022-05-28T12:10:33Z</time>
      </trkpt>
      <trkpt lat="49.86371" lon="2.38019">
        <ele>64.3</ele>
        <time>2022-05-28T12:10:34Z</time>
      </trkpt>
      <trkpt lat="49.86371" lon="2.3802">
        <ele>64.3</ele>
        <time>2022-05-28T12:10:35Z</time>
      </trkpt>
      <trkpt lat="49.86371" lon="2.38021">
        <ele>64.3</ele>
        <time>2022-05-28T12:10:36Z</time>
      </trkpt>
      <trkpt lat="49.86371" lon="2.38022">
        <ele>64.3</ele>
        <time>2022-05-28T12:10:37Z</time>
      </trkpt>
      <trkpt lat="49.8637" lon="2.38023">
        <ele>64.3</ele>
        <time>2022-05-28T12:10:38Z</time>
      </trkpt>
      <trkpt lat="49.8637" lon="2.38024">
        <ele>64.3</ele>
        <time>2022-05-28T12:10:39Z</time>
      </trkpt>
      <trkpt lat="49.8637" lon="2.38025">
        <ele>64.3</ele>
        <time>2022-05-28T12:10:40Z</time>
      </trkpt>
      <trkpt lat="49.86369" lon="2.38026">
        <ele>64.3</ele>
        <time>2022-05-28T12:10:41Z</time>
      </trkpt>
      <trkpt lat="49.86369" lon="2.38027">
        <ele>64.3</ele>
        <time>2022-05-28T12:10:42Z</time>
      </trkpt>
      <trkpt lat="49.86369" lon="2.38028">
        <ele>64.3</ele>
        <time>2022-05-28T12:10:43Z</time>
      </trkpt>
      <trkpt lat="49.86368" lon="2.38029">
        <ele>64.3</ele>
        <time>2022-05-28T12:10:44Z</time>
      </trkpt>
      <trkpt lat="49.86368" lon="2.38031">
        <ele>64.3</ele>
        <time>2022-05-28T12:10:45Z</time>
      </trkpt>
      <trkpt lat="49.86367" lon="2.38033">
        <ele>64.3</ele>
        <time>2022-05-28T12:10:46Z</time>
      </trkpt>
      <trkpt lat="49.86367" lon="2.38034">
        <ele>64.3</ele>
        <time>2022-05-28T12:10:47Z</time>
      </trkpt>
      <trkpt lat="49.86366" lon="2.38035">
        <ele>64.3</ele>
        <time>2022-05-28T12:10:48Z</time>
      </trkpt>
      <trkpt lat="49.86366" lon="2.38036">
        <ele>64.3</ele>
        <time>2022-05-28T12:10:49Z</time>
      </trkpt>
      <trkpt lat="49.86366" lon="2.38037">
        <ele>64.3</ele>
        <time>2022-05-28T12:10:50Z</time>
      </trkpt>
      <trkpt lat="49.86365" lon="2.38039">
        <ele>64.3</ele>
        <time>2022-05-28T12:10:51Z</time>
      </trkpt>
      <trkpt lat="49.86365" lon="2.3804">
        <ele>64.3</ele>
        <time>2022-05-28T12:10:52Z</time>
      </trkpt>
      <trkpt lat="49.86365" lon="2.38041">
        <ele>64.3</ele>
        <time>2022-05-28T12:10:53Z</time>
      </trkpt>
      <trkpt lat="49.86364" lon="2.38043">
        <ele>64.3</ele>
        <time>2022-05-28T12:10:54Z</time>
      </trkpt>
      <trkpt lat="49.86364" lon="2.38044">
        <ele>64.3</ele>
        <time>2022-05-28T12:10:55Z</time>
      </trkpt>
      <trkpt lat="49.86364" lon="2.38045">
        <ele>64.3</ele>
        <time>2022-05-28T12:10:56Z</time>
      </trkpt>
      <trkpt lat="49.86364" lon="2.38048">
        <ele>64.3</ele>
        <time>2022-05-28T12:10:57Z</time>
      </trkpt>
      <trkpt lat="49.86363" lon="2.3805">
        <ele>64.3</ele>
        <time>2022-05-28T12:10:58Z</time>
      </trkpt>
      <trkpt lat="49.86363" lon="2.38051">
        <ele>64.3</ele>
        <time>2022-05-28T12:10:59Z</time>
      </trkpt>
      <trkpt lat="49.86363" lon="2.38053">
        <ele>64.3</ele>
        <time>2022-05-28T12:11:00Z</time>
      </trkpt>
      <trkpt lat="49.86363" lon="2.38054">
        <ele>64.3</ele>
        <time>2022-05-28T12:11:01Z</time>
      </trkpt>
      <trkpt lat="49.86362" lon="2.38055">
        <ele>64.3</ele>
        <time>2022-05-28T12:11:02Z</time>
      </trkpt>
      <trkpt lat="49.86362" lon="2.38056">
        <ele>64.3</ele>
        <time>2022-05-28T12:11:03Z</time>
      </trkpt>
      <trkpt lat="49.86361" lon="2.38058">
        <ele>64.3</ele>
        <time>2022-05-28T12:11:04Z</time>
      </trkpt>
      <trkpt lat="49.86361" lon="2.3806">
        <ele>64.3</ele>
        <time>2022-05-28T12:11:05Z</time>
      </trkpt>
      <trkpt lat="49.8636" lon="2.38061">
        <ele>64.3</ele>
        <time>2022-05-28T12:11:06Z</time>
      </trkpt>
      <trkpt lat="49.8636" lon="2.38064">
        <ele>64.3</ele>
        <time>2022-05-28T12:11:07Z</time>
      </trkpt>
      <trkpt lat="49.86359" lon="2.38065">
        <ele>64.3</ele>
        <time>2022-05-28T12:11:08Z</time>
      </trkpt>
      <trkpt lat="49.86359" lon="2.38066">
        <ele>64.3</ele>
        <time>2022-05-28T12:11:09Z</time>
      </trkpt>
      <trkpt lat="49.86358" lon="2.38067">
        <ele>64.3</ele>
        <time>2022-05-28T12:11:10Z</time>
      </trkpt>
      <trkpt lat="49.86358" lon="2.38068">
        <ele>64.3</ele>
        <time>2022-05-28T12:11:11Z</time>
      </trkpt>
      <trkpt lat="49.86357" lon="2.38069">
        <ele>64.3</ele>
        <time>2022-05-28T12:11:12Z</time>
      </trkpt>
      <trkpt lat="49.86357" lon="2.3807">
        <ele>64.3</ele>
        <time>2022-05-28T12:11:13Z</time>
      </trkpt>
      <trkpt lat="49.86356" lon="2.38072">
        <ele>64.3</ele>
        <time>2022-05-28T12:11:14Z</time>
      </trkpt>
      <trkpt lat="49.86356" lon="2.38073">
        <ele>64.2</ele>
        <time>2022-05-28T12:11:15Z</time>
      </trkpt>
      <trkpt lat="49.86356" lon="2.38075">
        <ele>64.2</ele>
        <time>2022-05-28T12:11:16Z</time>
      </trkpt>
      <trkpt lat="49.86355" lon="2.38076">
        <ele>64.2</ele>
        <time>2022-05-28T12:11:17Z</time>
      </trkpt>
      <trkpt lat="49.86355" lon="2.38078">
        <ele>64.2</ele>
        <time>2022-05-28T12:11:18Z</time>
      </trkpt>
      <trkpt lat="49.86355" lon="2.38079">
        <ele>64.2</ele>
        <time>2022-05-28T12:11:19Z</time>
      </trkpt>
      <trkpt lat="49.86355" lon="2.38081">
        <ele>64.2</ele>
        <time>2022-05-28T12:11:20Z</time>
      </trkpt>
      <trkpt lat="49.86355" lon="2.38083">
        <ele>64.2</ele>
        <time>2022-05-28T12:11:21Z</time>
      </trkpt>
      <trkpt lat="49.86354" lon="2.38084">
        <ele>64.2</ele>
        <time>2022-05-28T12:11:22Z</time>
      </trkpt>
      <trkpt lat="49.86354" lon="2.38086">
        <ele>64.2</ele>
        <time>2022-05-28T12:11:23Z</time>
      </trkpt>
      <trkpt lat="49.86353" lon="2.38089">
        <ele>64.2</ele>
        <time>2022-05-28T12:11:24Z</time>
      </trkpt>
      <trkpt lat="49.86353" lon="2.38091">
        <ele>64.2</ele>
        <time>2022-05-28T12:11:25Z</time>
      </trkpt>
      <trkpt lat="49.86353" lon="2.38093">
        <ele>64.2</ele>
        <time>2022-05-28T12:11:26Z</time>
      </trkpt>
      <trkpt lat="49.86353" lon="2.38094">
        <ele>64.2</ele>
        <time>2022-05-28T12:11:27Z</time>
      </trkpt>
      <trkpt lat="49.86353" lon="2.38095">
        <ele>64.2</ele>
        <time>2022-05-28T12:11:28Z</time>
      </trkpt>
      <trkpt lat="49.86352" lon="2.38098">
        <ele>64.2</ele>
        <time>2022-05-28T12:11:29Z</time>
      </trkpt>
      <trkpt lat="49.86352" lon="2.381">
        <ele>64.2</ele>
        <time>2022-05-28T12:11:30Z</time>
      </trkpt>
      <trkpt lat="49.86352" lon="2.38101">
        <ele>64.2</ele>
        <time>2022-05-28T12:11:31Z</time>
      </trkpt>
      <trkpt lat="49.86351" lon="2.38103">
        <ele>64.2</ele>
        <time>2022-05-28T12:11:32Z</time>
      </trkpt>
      <trkpt lat="49.86351" lon="2.38104">
        <ele>64.2</ele>
        <time>2022-05-28T12:11:33Z</time>
      </trkpt>
      <trkpt lat="49.86351" lon="2.38106">
        <ele>64.2</ele>
        <time>2022-05-28T12:11:34Z</time>
      </trkpt>
      <trkpt lat="49.8635" lon="2.38109">
        <ele>64.2</ele>
        <time>2022-05-28T12:11:35Z</time>
      </trkpt>
      <trkpt lat="49.8635" lon="2.3811">
        <ele>64.2</ele>
        <time>2022-05-28T12:11:36Z</time>
      </trkpt>
      <trkpt lat="49.86349" lon="2.38111">
        <ele>64.2</ele>
        <time>2022-05-28T12:11:37Z</time>
      </trkpt>
      <trkpt lat="49.86349" lon="2.38113">
        <ele>64.2</ele>
        <time>2022-05-28T12:11:38Z</time>
      </trkpt>
      <trkpt lat="49.86348" lon="2.38115">
        <ele>64.2</ele>
        <time>2022-05-28T12:11:39Z</time>
      </trkpt>
      <trkpt lat="49.86348" lon="2.38116">
        <ele>64.2</ele>
        <time>2022-05-28T12:11:40Z</time>
      </trkpt>
      <trkpt lat="49.86347" lon="2.38117">
        <ele>64.2</ele>
        <time>2022-05-28T12:11:41Z</time>
      </trkpt>
      <trkpt lat="49.86347" lon="2.38118">
        <ele>64.2</ele>
        <time>2022-05-28T12:11:42Z</time>
      </trkpt>
      <trkpt lat="49.86347" lon="2.38119">
        <ele>64.2</ele>
        <time>2022-05-28T12:11:43Z</time>
      </trkpt>
      <trkpt lat="49.86346" lon="2.38119">
        <ele>64.2</ele>
        <time>2022-05-28T12:11:44Z</time>
      </trkpt>
      <trkpt lat="49.86345" lon="2.3812">
        <ele>64.2</ele>
        <time>2022-05-28T12:11:45Z</time>
      </trkpt>
      <trkpt lat="49.86345" lon="2.38121">
        <ele>64.2</ele>
        <time>2022-05-28T12:11:46Z</time>
      </trkpt>
      <trkpt lat="49.86344" lon="2.38121">
        <ele>64.2</ele>
        <time>2022-05-28T12:11:47Z</time>
      </trkpt>
      <trkpt lat="49.86344" lon="2.38123">
        <ele>64.2</ele>
        <time>2022-05-28T12:11:48Z</time>
      </trkpt>
      <trkpt lat="49.86342" lon="2.38126">
        <ele>64.2</ele>
        <time>2022-05-28T12:11:49Z</time>
      </trkpt>
      <trkpt lat="49.86342" lon="2.38126">
        <ele>64.2</ele>
        <time>2022-05-28T12:11:50Z</time>
      </trkpt>
      <trkpt lat="49.86341" lon="2.38127">
        <ele>64.2</ele>
        <time>2022-05-28T12:11:51Z</time>
      </trkpt>
      <trkpt lat="49.86341" lon="2.38128">
        <ele>64.2</ele>
        <time>2022-05-28T12:11:52Z</time>
      </trkpt>
      <trkpt lat="49.8634" lon="2.38129">
        <ele>64.2</ele>
        <time>2022-05-28T12:11:53Z</time>
      </trkpt>
      <trkpt lat="49.86338" lon="2.3813">
        <ele>64.2</ele>
        <time>2022-05-28T12:11:54Z</time>
      </trkpt>
      <trkpt lat="49.86338" lon="2.3813">
        <ele>64.2</ele>
        <time>2022-05-28T12:11:55Z</time>
      </trkpt>
      <trkpt lat="49.86337" lon="2.38132">
        <ele>64.2</ele>
        <time>2022-05-28T12:11:56Z</time>
      </trkpt>
      <trkpt lat="49.86337" lon="2.38133">
        <ele>64.2</ele>
        <time>2022-05-28T12:11:57Z</time>
      </trkpt>
      <trkpt lat="49.86336" lon="2.38133">
        <ele>64.2</ele>
        <time>2022-05-28T12:11:58Z</time>
      </trkpt>
      <trkpt lat="49.86336" lon="2.38134">
        <ele>64.2</ele>
        <time>2022-05-28T12:11:59Z</time>
      </trkpt>
      <trkpt lat="49.86336" lon="2.38134">
        <ele>64.2</ele>
        <time>2022-05-28T12:12:00Z</time>
      </trkpt>
      <trkpt lat="49.86336" lon="2.38135">
        <ele>64.2</ele>
        <time>2022-05-28T12:12:01Z</time>
      </trkpt>
      <trkpt lat="49.86335" lon="2.38136">
        <ele>64.2</ele>
        <time>2022-05-28T12:12:02Z</time>
      </trkpt>
      <trkpt lat="49.86335" lon="2.38136">
        <ele>64.2</ele>
        <time>2022-05-28T12:12:03Z</time>
      </trkpt>
      <trkpt lat="49.86334" lon="2.38137">
        <ele>64.2</ele>
        <time>2022-05-28T12:12:04Z</time>
      </trkpt>
      <trkpt lat="49.86334" lon="2.38138">
        <ele>64.2</ele>
        <time>2022-05-28T12:12:05Z</time>
      </trkpt>
      <trkpt lat="49.86333" lon="2.38139">
        <ele>64.2</ele>
        <time>2022-05-28T12:12:06Z</time>
      </trkpt>
      <trkpt lat="49.86333" lon="2.38141">
        <ele>64.2</ele>
        <time>2022-05-28T12:12:07Z</time>
      </trkpt>
      <trkpt lat="49.86333" lon="2.38142">
        <ele>64.2</ele>
        <time>2022-05-28T12:12:08Z</time>
      </trkpt>
      <trkpt lat="49.86332" lon="2.38144">
        <ele>64.1</ele>
        <time>2022-05-28T12:12:09Z</time>
      </trkpt>
      <trkpt lat="49.86332" lon="2.38145">
        <ele>64.1</ele>
        <time>2022-05-28T12:12:10Z</time>
      </trkpt>
      <trkpt lat="49.86332" lon="2.38147">
        <ele>64.1</ele>
        <time>2022-05-28T12:12:11Z</time>
      </trkpt>
      <trkpt lat="49.86332" lon="2.38148">
        <ele>64.1</ele>
        <time>2022-05-28T12:12:12Z</time>
      </trkpt>
      <trkpt lat="49.86331" lon="2.3815">
        <ele>64.1</ele>
        <time>2022-05-28T12:12:13Z</time>
      </trkpt>
      <trkpt lat="49.86331" lon="2.38153">
        <ele>64.1</ele>
        <time>2022-05-28T12:12:14Z</time>
      </trkpt>
      <trkpt lat="49.86331" lon="2.38154">
        <ele>64.1</ele>
        <time>2022-05-28T12:12:15Z</time>
      </trkpt>
      <trkpt lat="49.8633" lon="2.38156">
        <ele>64.1</ele>
        <time>2022-05-28T12:12:16Z</time>
      </trkpt>
      <trkpt lat="49.86329" lon="2.38158">
        <ele>64</ele>
        <time>2022-05-28T12:12:17Z</time>
      </trkpt>
      <trkpt lat="49.86329" lon="2.38161">
        <ele>64</ele>
        <time>2022-05-28T12:12:18Z</time>
      </trkpt>
      <trkpt lat="49.86328" lon="2.38162">
        <ele>64</ele>
        <time>2022-05-28T12:12:19Z</time>
      </trkpt>
      <trkpt lat="49.86328" lon="2.38163">
        <ele>64</ele>
        <time>2022-05-28T12:12:20Z</time>
      </trkpt>
      <trkpt lat="49.86328" lon="2.38165">
        <ele>64</ele>
        <time>2022-05-28T12:12:21Z</time>
      </trkpt>
      <trkpt lat="49.86328" lon="2.38167">
        <ele>64</ele>
        <time>2022-05-28T12:12:22Z</time>
      </trkpt>
      <trkpt lat="49.86327" lon="2.38169">
        <ele>64</ele>
        <time>2022-05-28T12:12:23Z</time>
      </trkpt>
      <trkpt lat="49.86327" lon="2.3817">
        <ele>63.9</ele>
        <time>2022-05-28T12:12:24Z</time>
      </trkpt>
      <trkpt lat="49.86327" lon="2.38171">
        <ele>63.9</ele>
        <time>2022-05-28T12:12:25Z</time>
      </trkpt>
      <trkpt lat="49.86328" lon="2.38172">
        <ele>63.9</ele>
        <time>2022-05-28T12:12:26Z</time>
      </trkpt>
      <trkpt lat="49.86328" lon="2.38173">
        <ele>63.9</ele>
        <time>2022-05-28T12:12:27Z</time>
      </trkpt>
      <trkpt lat="49.86327" lon="2.38175">
        <ele>63.9</ele>
        <time>2022-05-28T12:12:28Z</time>
      </trkpt>
      <trkpt lat="49.86327" lon="2.38176">
        <ele>63.9</ele>
        <time>2022-05-28T12:12:29Z</time>
      </trkpt>
      <trkpt lat="49.86327" lon="2.38177">
        <ele>63.9</ele>
        <time>2022-05-28T12:12:30Z</time>
      </trkpt>
      <trkpt lat="49.86327" lon="2.38178">
        <ele>63.9</ele>
        <time>2022-05-28T12:12:31Z</time>
      </trkpt>
      <trkpt lat="49.86326" lon="2.3818">
        <ele>63.9</ele>
        <time>2022-05-28T12:12:32Z</time>
      </trkpt>
      <trkpt lat="49.86326" lon="2.38181">
        <ele>63.9</ele>
        <time>2022-05-28T12:12:33Z</time>
      </trkpt>
      <trkpt lat="49.86326" lon="2.38183">
        <ele>63.8</ele>
        <time>2022-05-28T12:12:34Z</time>
      </trkpt>
      <trkpt lat="49.86325" lon="2.38185">
        <ele>63.8</ele>
        <time>2022-05-28T12:12:35Z</time>
      </trkpt>
      <trkpt lat="49.86325" lon="2.38187">
        <ele>63.8</ele>
        <time>2022-05-28T12:12:36Z</time>
      </trkpt>
      <trkpt lat="49.86325" lon="2.38189">
        <ele>63.8</ele>
        <time>2022-05-28T12:12:37Z</time>
      </trkpt>
      <trkpt lat="49.86325" lon="2.3819">
        <ele>63.8</ele>
        <time>2022-05-28T12:12:38Z</time>
      </trkpt>
      <trkpt lat="49.86325" lon="2.38191">
        <ele>63.8</ele>
        <time>2022-05-28T12:12:39Z</time>
      </trkpt>
      <trkpt lat="49.86325" lon="2.38193">
        <ele>63.7</ele>
        <time>2022-05-28T12:12:40Z</time>
      </trkpt>
      <trkpt lat="49.86324" lon="2.38194">
        <ele>63.7</ele>
        <time>2022-05-28T12:12:41Z</time>
      </trkpt>
      <trkpt lat="49.86324" lon="2.38195">
        <ele>63.7</ele>
        <time>2022-05-28T12:12:42Z</time>
      </trkpt>
      <trkpt lat="49.86324" lon="2.38196">
        <ele>63.7</ele>
        <time>2022-05-28T12:12:43Z</time>
      </trkpt>
      <trkpt lat="49.86323" lon="2.38197">
        <ele>63.7</ele>
        <time>2022-05-28T12:12:44Z</time>
      </trkpt>
      <trkpt lat="49.86323" lon="2.38198">
        <ele>63.7</ele>
        <time>2022-05-28T12:12:45Z</time>
      </trkpt>
      <trkpt lat="49.86322" lon="2.382">
        <ele>63.7</ele>
        <time>2022-05-28T12:12:46Z</time>
      </trkpt>
      <trkpt lat="49.86322" lon="2.38202">
        <ele>63.7</ele>
        <time>2022-05-28T12:12:47Z</time>
      </trkpt>
      <trkpt lat="49.86321" lon="2.38203">
        <ele>63.6</ele>
        <time>2022-05-28T12:12:48Z</time>
      </trkpt>
      <trkpt lat="49.86321" lon="2.38203">
        <ele>63.6</ele>
        <time>2022-05-28T12:12:49Z</time>
      </trkpt>
      <trkpt lat="49.86321" lon="2.38204">
        <ele>63.6</ele>
        <time>2022-05-28T12:12:50Z</time>
      </trkpt>
      <trkpt lat="49.8632" lon="2.38205">
        <ele>63.6</ele>
        <time>2022-05-28T12:12:51Z</time>
      </trkpt>
      <trkpt lat="49.8632" lon="2.38205">
        <ele>63.6</ele>
        <time>2022-05-28T12:12:52Z</time>
      </trkpt>
      <trkpt lat="49.8632" lon="2.38206">
        <ele>63.6</ele>
        <time>2022-05-28T12:12:53Z</time>
      </trkpt>
      <trkpt lat="49.86319" lon="2.38207">
        <ele>63.6</ele>
        <time>2022-05-28T12:12:54Z</time>
      </trkpt>
      <trkpt lat="49.86319" lon="2.38208">
        <ele>63.6</ele>
        <time>2022-05-28T12:12:55Z</time>
      </trkpt>
      <trkpt lat="49.86319" lon="2.38209">
        <ele>63.6</ele>
        <time>2022-05-28T12:12:56Z</time>
      </trkpt>
      <trkpt lat="49.86319" lon="2.3821">
        <ele>63.6</ele>
        <time>2022-05-28T12:12:57Z</time>
      </trkpt>
      <trkpt lat="49.86318" lon="2.38211">
        <ele>63.6</ele>
        <time>2022-05-28T12:12:58Z</time>
      </trkpt>
      <trkpt lat="49.86318" lon="2.38212">
        <ele>63.5</ele>
        <time>2022-05-28T12:12:59Z</time>
      </trkpt>
      <trkpt lat="49.86318" lon="2.38214">
        <ele>63.5</ele>
        <time>2022-05-28T12:13:00Z</time>
      </trkpt>
      <trkpt lat="49.86318" lon="2.38215">
        <ele>63.5</ele>
        <time>2022-05-28T12:13:01Z</time>
      </trkpt>
      <trkpt lat="49.86317" lon="2.38217">
        <ele>63.5</ele>
        <time>2022-05-28T12:13:02Z</time>
      </trkpt>
      <trkpt lat="49.86317" lon="2.38219">
        <ele>63.5</ele>
        <time>2022-05-28T12:13:03Z</time>
      </trkpt>
      <trkpt lat="49.86317" lon="2.38223">
        <ele>63.4</ele>
        <time>2022-05-28T12:13:04Z</time>
      </trkpt>
      <trkpt lat="49.86316" lon="2.38224">
        <ele>63.4</ele>
        <time>2022-05-28T12:13:05Z</time>
      </trkpt>
      <trkpt lat="49.86316" lon="2.38226">
        <ele>63.4</ele>
        <time>2022-05-28T12:13:06Z</time>
      </trkpt>
      <trkpt lat="49.86316" lon="2.38228">
        <ele>63.4</ele>
        <time>2022-05-28T12:13:07Z</time>
      </trkpt>
      <trkpt lat="49.86315" lon="2.38229">
        <ele>63.4</ele>
        <time>2022-05-28T12:13:08Z</time>
      </trkpt>
      <trkpt lat="49.86315" lon="2.38231">
        <ele>63.4</ele>
        <time>2022-05-28T12:13:09Z</time>
      </trkpt>
      <trkpt lat="49.86315" lon="2.38234">
        <ele>63.3</ele>
        <time>2022-05-28T12:13:10Z</time>
      </trkpt>
      <trkpt lat="49.86314" lon="2.38236">
        <ele>63.3</ele>
        <time>2022-05-28T12:13:11Z</time>
      </trkpt>
      <trkpt lat="49.86314" lon="2.38237">
        <ele>63.3</ele>
        <time>2022-05-28T12:13:12Z</time>
      </trkpt>
      <trkpt lat="49.86313" lon="2.38239">
        <ele>63.3</ele>
        <time>2022-05-28T12:13:13Z</time>
      </trkpt>
      <trkpt lat="49.86313" lon="2.3824">
        <ele>63.3</ele>
        <time>2022-05-28T12:13:14Z</time>
      </trkpt>
      <trkpt lat="49.86313" lon="2.38242">
        <ele>63.3</ele>
        <time>2022-05-28T12:13:15Z</time>
      </trkpt>
      <trkpt lat="49.86312" lon="2.38243">
        <ele>63.3</ele>
        <time>2022-05-28T12:13:16Z</time>
      </trkpt>
      <trkpt lat="49.86312" lon="2.38244">
        <ele>63.2</ele>
        <time>2022-05-28T12:13:17Z</time>
      </trkpt>
      <trkpt lat="49.86311" lon="2.38247">
        <ele>63.2</ele>
        <time>2022-05-28T12:13:18Z</time>
      </trkpt>
      <trkpt lat="49.86311" lon="2.38248">
        <ele>63.2</ele>
        <time>2022-05-28T12:13:19Z</time>
      </trkpt>
      <trkpt lat="49.8631" lon="2.38249">
        <ele>63.2</ele>
        <time>2022-05-28T12:13:20Z</time>
      </trkpt>
      <trkpt lat="49.8631" lon="2.3825">
        <ele>63.2</ele>
        <time>2022-05-28T12:13:21Z</time>
      </trkpt>
      <trkpt lat="49.8631" lon="2.38251">
        <ele>63.2</ele>
        <time>2022-05-28T12:13:22Z</time>
      </trkpt>
      <trkpt lat="49.86309" lon="2.38252">
        <ele>63.2</ele>
        <time>2022-05-28T12:13:23Z</time>
      </trkpt>
      <trkpt lat="49.86309" lon="2.38253">
        <ele>63.2</ele>
        <time>2022-05-28T12:13:24Z</time>
      </trkpt>
      <trkpt lat="49.86309" lon="2.38254">
        <ele>63.1</ele>
        <time>2022-05-28T12:13:25Z</time>
      </trkpt>
      <trkpt lat="49.86308" lon="2.38255">
        <ele>63.1</ele>
        <time>2022-05-28T12:13:26Z</time>
      </trkpt>
      <trkpt lat="49.86308" lon="2.38255">
        <ele>63.1</ele>
        <time>2022-05-28T12:13:27Z</time>
      </trkpt>
      <trkpt lat="49.86308" lon="2.38256">
        <ele>63.1</ele>
        <time>2022-05-28T12:13:28Z</time>
      </trkpt>
      <trkpt lat="49.86308" lon="2.38257">
        <ele>63.1</ele>
        <time>2022-05-28T12:13:29Z</time>
      </trkpt>
      <trkpt lat="49.86307" lon="2.38258">
        <ele>63.1</ele>
        <time>2022-05-28T12:13:30Z</time>
      </trkpt>
      <trkpt lat="49.86307" lon="2.38259">
        <ele>63.1</ele>
        <time>2022-05-28T12:13:31Z</time>
      </trkpt>
      <trkpt lat="49.86307" lon="2.38259">
        <ele>63.1</ele>
        <time>2022-05-28T12:13:32Z</time>
      </trkpt>
      <trkpt lat="49.86307" lon="2.38259">
        <ele>63.1</ele>
        <time>2022-05-28T12:13:33Z</time>
      </trkpt>
      <trkpt lat="49.86307" lon="2.3826">
        <ele>63.1</ele>
        <time>2022-05-28T12:13:34Z</time>
      </trkpt>
      <trkpt lat="49.86307" lon="2.3826">
        <ele>63.1</ele>
        <time>2022-05-28T12:13:35Z</time>
      </trkpt>
      <trkpt lat="49.86307" lon="2.3826">
        <ele>63.1</ele>
        <time>2022-05-28T12:13:36Z</time>
      </trkpt>
      <trkpt lat="49.86307" lon="2.38261">
        <ele>63.1</ele>
        <time>2022-05-28T12:13:37Z</time>
      </trkpt>
      <trkpt lat="49.86307" lon="2.38262">
        <ele>63.1</ele>
        <time>2022-05-28T12:13:38Z</time>
      </trkpt>
      <trkpt lat="49.86306" lon="2.38262">
        <ele>63.1</ele>
        <time>2022-05-28T12:13:39Z</time>
      </trkpt>
      <trkpt lat="49.86306" lon="2.38262">
        <ele>63.1</ele>
        <time>2022-05-28T12:13:40Z</time>
      </trkpt>
      <trkpt lat="49.86306" lon="2.38262">
        <ele>63.1</ele>
        <time>2022-05-28T12:13:41Z</time>
      </trkpt>
      <trkpt lat="49.86305" lon="2.38263">
        <ele>63</ele>
        <time>2022-05-28T12:13:42Z</time>
      </trkpt>
      <trkpt lat="49.86305" lon="2.38264">
        <ele>63</ele>
        <time>2022-05-28T12:13:43Z</time>
      </trkpt>
      <trkpt lat="49.86305" lon="2.38265">
        <ele>63</ele>
        <time>2022-05-28T12:13:44Z</time>
      </trkpt>
      <trkpt lat="49.86304" lon="2.38267">
        <ele>63</ele>
        <time>2022-05-28T12:13:45Z</time>
      </trkpt>
      <trkpt lat="49.86304" lon="2.38268">
        <ele>63</ele>
        <time>2022-05-28T12:13:46Z</time>
      </trkpt>
      <trkpt lat="49.86304" lon="2.3827">
        <ele>63</ele>
        <time>2022-05-28T12:13:47Z</time>
      </trkpt>
      <trkpt lat="49.86303" lon="2.38272">
        <ele>63</ele>
        <time>2022-05-28T12:13:48Z</time>
      </trkpt>
      <trkpt lat="49.86303" lon="2.38274">
        <ele>63</ele>
        <time>2022-05-28T12:13:49Z</time>
      </trkpt>
      <trkpt lat="49.86303" lon="2.38275">
        <ele>62.9</ele>
        <time>2022-05-28T12:13:50Z</time>
      </trkpt>
      <trkpt lat="49.86303" lon="2.38277">
        <ele>62.9</ele>
        <time>2022-05-28T12:13:51Z</time>
      </trkpt>
      <trkpt lat="49.86303" lon="2.38278">
        <ele>62.9</ele>
        <time>2022-05-28T12:13:52Z</time>
      </trkpt>
      <trkpt lat="49.86302" lon="2.3828">
        <ele>62.9</ele>
        <time>2022-05-28T12:13:53Z</time>
      </trkpt>
      <trkpt lat="49.86302" lon="2.38281">
        <ele>62.9</ele>
        <time>2022-05-28T12:13:54Z</time>
      </trkpt>
      <trkpt lat="49.86302" lon="2.38283">
        <ele>62.9</ele>
        <time>2022-05-28T12:13:55Z</time>
      </trkpt>
      <trkpt lat="49.86302" lon="2.38284">
        <ele>62.9</ele>
        <time>2022-05-28T12:13:56Z</time>
      </trkpt>
      <trkpt lat="49.86302" lon="2.38286">
        <ele>62.9</ele>
        <time>2022-05-28T12:13:57Z</time>
      </trkpt>
      <trkpt lat="49.86301" lon="2.3829">
        <ele>62.8</ele>
        <time>2022-05-28T12:13:58Z</time>
      </trkpt>
      <trkpt lat="49.86301" lon="2.38291">
        <ele>62.8</ele>
        <time>2022-05-28T12:13:59Z</time>
      </trkpt>
      <trkpt lat="49.86301" lon="2.38293">
        <ele>62.8</ele>
        <time>2022-05-28T12:14:00Z</time>
      </trkpt>
      <trkpt lat="49.86301" lon="2.38296">
        <ele>62.8</ele>
        <time>2022-05-28T12:14:01Z</time>
      </trkpt>
      <trkpt lat="49.86301" lon="2.38298">
        <ele>62.8</ele>
        <time>2022-05-28T12:14:02Z</time>
      </trkpt>
      <trkpt lat="49.86301" lon="2.38301">
        <ele>62.8</ele>
        <time>2022-05-28T12:14:03Z</time>
      </trkpt>
      <trkpt lat="49.86301" lon="2.38303">
        <ele>62.7</ele>
        <time>2022-05-28T12:14:04Z</time>
      </trkpt>
      <trkpt lat="49.863" lon="2.38305">
        <ele>62.7</ele>
        <time>2022-05-28T12:14:05Z</time>
      </trkpt>
      <trkpt lat="49.863" lon="2.38307">
        <ele>62.7</ele>
        <time>2022-05-28T12:14:06Z</time>
      </trkpt>
      <trkpt lat="49.86299" lon="2.38308">
        <ele>62.7</ele>
        <time>2022-05-28T12:14:07Z</time>
      </trkpt>
      <trkpt lat="49.86299" lon="2.38311">
        <ele>62.7</ele>
        <time>2022-05-28T12:14:08Z</time>
      </trkpt>
      <trkpt lat="49.86299" lon="2.38313">
        <ele>62.7</ele>
        <time>2022-05-28T12:14:09Z</time>
      </trkpt>
      <trkpt lat="49.86298" lon="2.38314">
        <ele>62.7</ele>
        <time>2022-05-28T12:14:10Z</time>
      </trkpt>
      <trkpt lat="49.86298" lon="2.38315">
        <ele>62.7</ele>
        <time>2022-05-28T12:14:11Z</time>
      </trkpt>
      <trkpt lat="49.86298" lon="2.38317">
        <ele>62.7</ele>
        <time>2022-05-28T12:14:12Z</time>
      </trkpt>
      <trkpt lat="49.86298" lon="2.38318">
        <ele>62.7</ele>
        <time>2022-05-28T12:14:13Z</time>
      </trkpt>
      <trkpt lat="49.86298" lon="2.3832">
        <ele>62.7</ele>
        <time>2022-05-28T12:14:14Z</time>
      </trkpt>
      <trkpt lat="49.86298" lon="2.38321">
        <ele>62.7</ele>
        <time>2022-05-28T12:14:15Z</time>
      </trkpt>
      <trkpt lat="49.86298" lon="2.38322">
        <ele>62.7</ele>
        <time>2022-05-28T12:14:16Z</time>
      </trkpt>
      <trkpt lat="49.86298" lon="2.38323">
        <ele>62.7</ele>
        <time>2022-05-28T12:14:17Z</time>
      </trkpt>
      <trkpt lat="49.86297" lon="2.38323">
        <ele>62.7</ele>
        <time>2022-05-28T12:14:18Z</time>
      </trkpt>
      <trkpt lat="49.86297" lon="2.38323">
        <ele>62.7</ele>
        <time>2022-05-28T12:14:19Z</time>
      </trkpt>
      <trkpt lat="49.86297" lon="2.38323">
        <ele>62.7</ele>
        <time>2022-05-28T12:14:20Z</time>
      </trkpt>
      <trkpt lat="49.86298" lon="2.38324">
        <ele>62.7</ele>
        <time>2022-05-28T12:14:21Z</time>
      </trkpt>
      <trkpt lat="49.86298" lon="2.38324">
        <ele>62.7</ele>
        <time>2022-05-28T12:14:22Z</time>
      </trkpt>
      <trkpt lat="49.86298" lon="2.38325">
        <ele>62.7</ele>
        <time>2022-05-28T12:14:23Z</time>
      </trkpt>
      <trkpt lat="49.86298" lon="2.38326">
        <ele>62.7</ele>
        <time>2022-05-28T12:14:24Z</time>
      </trkpt>
      <trkpt lat="49.86298" lon="2.38328">
        <ele>62.7</ele>
        <time>2022-05-28T12:14:25Z</time>
      </trkpt>
      <trkpt lat="49.86298" lon="2.38329">
        <ele>62.7</ele>
        <time>2022-05-28T12:14:26Z</time>
      </trkpt>
      <trkpt lat="49.86298" lon="2.3833">
        <ele>62.7</ele>
        <time>2022-05-28T12:14:27Z</time>
      </trkpt>
      <trkpt lat="49.86299" lon="2.38331">
        <ele>62.7</ele>
        <time>2022-05-28T12:14:28Z</time>
      </trkpt>
      <trkpt lat="49.86299" lon="2.38332">
        <ele>62.7</ele>
        <time>2022-05-28T12:14:29Z</time>
      </trkpt>
      <trkpt lat="49.86299" lon="2.38333">
        <ele>62.7</ele>
        <time>2022-05-28T12:14:30Z</time>
      </trkpt>
      <trkpt lat="49.863" lon="2.38334">
        <ele>62.7</ele>
        <time>2022-05-28T12:14:31Z</time>
      </trkpt>
      <trkpt lat="49.863" lon="2.38335">
        <ele>62.7</ele>
        <time>2022-05-28T12:14:32Z</time>
      </trkpt>
      <trkpt lat="49.863" lon="2.38336">
        <ele>62.8</ele>
        <time>2022-05-28T12:14:33Z</time>
      </trkpt>
      <trkpt lat="49.86301" lon="2.38337">
        <ele>62.8</ele>
        <time>2022-05-28T12:14:34Z</time>
      </trkpt>
      <trkpt lat="49.86301" lon="2.38338">
        <ele>62.8</ele>
        <time>2022-05-28T12:14:35Z</time>
      </trkpt>
      <trkpt lat="49.86302" lon="2.38339">
        <ele>62.8</ele>
        <time>2022-05-28T12:14:36Z</time>
      </trkpt>
      <trkpt lat="49.86303" lon="2.3834">
        <ele>62.8</ele>
        <time>2022-05-28T12:14:37Z</time>
      </trkpt>
      <trkpt lat="49.86303" lon="2.38341">
        <ele>62.8</ele>
        <time>2022-05-28T12:14:38Z</time>
      </trkpt>
      <trkpt lat="49.86303" lon="2.38342">
        <ele>62.8</ele>
        <time>2022-05-28T12:14:39Z</time>
      </trkpt>
      <trkpt lat="49.86304" lon="2.38344">
        <ele>62.8</ele>
        <time>2022-05-28T12:14:40Z</time>
      </trkpt>
      <trkpt lat="49.86305" lon="2.38345">
        <ele>62.8</ele>
        <time>2022-05-28T12:14:41Z</time>
      </trkpt>
      <trkpt lat="49.86305" lon="2.38346">
        <ele>62.8</ele>
        <time>2022-05-28T12:14:42Z</time>
      </trkpt>
      <trkpt lat="49.86306" lon="2.38347">
        <ele>62.8</ele>
        <time>2022-05-28T12:14:43Z</time>
      </trkpt>
      <trkpt lat="49.86306" lon="2.38349">
        <ele>62.8</ele>
        <time>2022-05-28T12:14:44Z</time>
      </trkpt>
      <trkpt lat="49.86307" lon="2.3835">
        <ele>62.8</ele>
        <time>2022-05-28T12:14:45Z</time>
      </trkpt>
      <trkpt lat="49.86307" lon="2.38351">
        <ele>62.8</ele>
        <time>2022-05-28T12:14:46Z</time>
      </trkpt>
      <trkpt lat="49.86307" lon="2.38353">
        <ele>62.8</ele>
        <time>2022-05-28T12:14:47Z</time>
      </trkpt>
      <trkpt lat="49.86307" lon="2.38354">
        <ele>62.8</ele>
        <time>2022-05-28T12:14:48Z</time>
      </trkpt>
      <trkpt lat="49.86308" lon="2.38355">
        <ele>62.8</ele>
        <time>2022-05-28T12:14:49Z</time>
      </trkpt>
      <trkpt lat="49.86308" lon="2.38357">
        <ele>62.8</ele>
        <time>2022-05-28T12:14:50Z</time>
      </trkpt>
      <trkpt lat="49.86308" lon="2.38359">
        <ele>62.9</ele>
        <time>2022-05-28T12:14:51Z</time>
      </trkpt>
      <trkpt lat="49.86308" lon="2.3836">
        <ele>62.9</ele>
        <time>2022-05-28T12:14:52Z</time>
      </trkpt>
      <trkpt lat="49.86308" lon="2.38362">
        <ele>62.9</ele>
        <time>2022-05-28T12:14:53Z</time>
      </trkpt>
      <trkpt lat="49.86309" lon="2.38363">
        <ele>62.9</ele>
        <time>2022-05-28T12:14:54Z</time>
      </trkpt>
      <trkpt lat="49.86309" lon="2.38368">
        <ele>62.9</ele>
        <time>2022-05-28T12:14:55Z</time>
      </trkpt>
      <trkpt lat="49.86309" lon="2.38371">
        <ele>62.9</ele>
        <time>2022-05-28T12:14:56Z</time>
      </trkpt>
      <trkpt lat="49.8631" lon="2.38372">
        <ele>62.9</ele>
        <time>2022-05-28T12:14:57Z</time>
      </trkpt>
      <trkpt lat="49.8631" lon="2.38374">
        <ele>62.9</ele>
        <time>2022-05-28T12:14:58Z</time>
      </trkpt>
      <trkpt lat="49.8631" lon="2.38376">
        <ele>62.9</ele>
        <time>2022-05-28T12:14:59Z</time>
      </trkpt>
      <trkpt lat="49.8631" lon="2.38378">
        <ele>62.9</ele>
        <time>2022-05-28T12:15:00Z</time>
      </trkpt>
      <trkpt lat="49.86311" lon="2.38379">
        <ele>62.9</ele>
        <time>2022-05-28T12:15:01Z</time>
      </trkpt>
      <trkpt lat="49.86311" lon="2.38381">
        <ele>62.9</ele>
        <time>2022-05-28T12:15:02Z</time>
      </trkpt>
      <trkpt lat="49.86311" lon="2.38382">
        <ele>62.9</ele>
        <time>2022-05-28T12:15:03Z</time>
      </trkpt>
      <trkpt lat="49.86311" lon="2.38384">
        <ele>62.9</ele>
        <time>2022-05-28T12:15:04Z</time>
      </trkpt>
      <trkpt lat="49.86311" lon="2.38385">
        <ele>62.9</ele>
        <time>2022-05-28T12:15:05Z</time>
      </trkpt>
      <trkpt lat="49.8631" lon="2.38387">
        <ele>62.9</ele>
        <time>2022-05-28T12:15:06Z</time>
      </trkpt>
      <trkpt lat="49.8631" lon="2.38388">
        <ele>63</ele>
        <time>2022-05-28T12:15:07Z</time>
      </trkpt>
      <trkpt lat="49.8631" lon="2.3839">
        <ele>63</ele>
        <time>2022-05-28T12:15:08Z</time>
      </trkpt>
      <trkpt lat="49.86309" lon="2.38391">
        <ele>63</ele>
        <time>2022-05-28T12:15:09Z</time>
      </trkpt>
      <trkpt lat="49.86309" lon="2.38392">
        <ele>63</ele>
        <time>2022-05-28T12:15:10Z</time>
      </trkpt>
      <trkpt lat="49.86309" lon="2.38393">
        <ele>63</ele>
        <time>2022-05-28T12:15:11Z</time>
      </trkpt>
      <trkpt lat="49.86308" lon="2.38395">
        <ele>63</ele>
        <time>2022-05-28T12:15:12Z</time>
      </trkpt>
      <trkpt lat="49.86308" lon="2.38396">
        <ele>62.9</ele>
        <time>2022-05-28T12:15:13Z</time>
      </trkpt>
      <trkpt lat="49.86308" lon="2.38398">
        <ele>62.9</ele>
        <time>2022-05-28T12:15:14Z</time>
      </trkpt>
      <trkpt lat="49.86307" lon="2.384">
        <ele>62.9</ele>
        <time>2022-05-28T12:15:15Z</time>
      </trkpt>
      <trkpt lat="49.86307" lon="2.38401">
        <ele>62.9</ele>
        <time>2022-05-28T12:15:16Z</time>
      </trkpt>
      <trkpt lat="49.86307" lon="2.38402">
        <ele>62.8</ele>
        <time>2022-05-28T12:15:17Z</time>
      </trkpt>
      <trkpt lat="49.86306" lon="2.38403">
        <ele>62.8</ele>
        <time>2022-05-28T12:15:18Z</time>
      </trkpt>
      <trkpt lat="49.86306" lon="2.38404">
        <ele>62.8</ele>
        <time>2022-05-28T12:15:19Z</time>
      </trkpt>
      <trkpt lat="49.86304" lon="2.38407">
        <ele>62.8</ele>
        <time>2022-05-28T12:15:20Z</time>
      </trkpt>
      <trkpt lat="49.86304" lon="2.38407">
        <ele>62.7</ele>
        <time>2022-05-28T12:15:21Z</time>
      </trkpt>
      <trkpt lat="49.86304" lon="2.38407">
        <ele>62.7</ele>
        <time>2022-05-28T12:15:22Z</time>
      </trkpt>
      <trkpt lat="49.86303" lon="2.38408">
        <ele>62.7</ele>
        <time>2022-05-28T12:15:23Z</time>
      </trkpt>
      <trkpt lat="49.86302" lon="2.38409">
        <ele>62.7</ele>
        <time>2022-05-28T12:15:24Z</time>
      </trkpt>
      <trkpt lat="49.86301" lon="2.38409">
        <ele>62.7</ele>
        <time>2022-05-28T12:15:25Z</time>
      </trkpt>
      <trkpt lat="49.863" lon="2.3841">
        <ele>62.6</ele>
        <time>2022-05-28T12:15:26Z</time>
      </trkpt>
      <trkpt lat="49.86299" lon="2.38411">
        <ele>62.5</ele>
        <time>2022-05-28T12:15:27Z</time>
      </trkpt>
      <trkpt lat="49.86298" lon="2.38412">
        <ele>62.5</ele>
        <time>2022-05-28T12:15:28Z</time>
      </trkpt>
      <trkpt lat="49.86297" lon="2.38412">
        <ele>62.5</ele>
        <time>2022-05-28T12:15:29Z</time>
      </trkpt>
      <trkpt lat="49.86296" lon="2.38414">
        <ele>62.6</ele>
        <time>2022-05-28T12:15:30Z</time>
      </trkpt>
      <trkpt lat="49.86296" lon="2.38414">
        <ele>62.6</ele>
        <time>2022-05-28T12:15:31Z</time>
      </trkpt>
      <trkpt lat="49.86295" lon="2.38415">
        <ele>62.6</ele>
        <time>2022-05-28T12:15:32Z</time>
      </trkpt>
      <trkpt lat="49.86296" lon="2.38416">
        <ele>62.6</ele>
        <time>2022-05-28T12:15:33Z</time>
      </trkpt>
      <trkpt lat="49.86296" lon="2.38417">
        <ele>62.6</ele>
        <time>2022-05-28T12:15:34Z</time>
      </trkpt>
      <trkpt lat="49.86297" lon="2.38418">
        <ele>62.6</ele>
        <time>2022-05-28T12:15:35Z</time>
      </trkpt>
      <trkpt lat="49.86298" lon="2.3842">
        <ele>62.7</ele>
        <time>2022-05-28T12:15:36Z</time>
      </trkpt>
      <trkpt lat="49.86298" lon="2.3842">
        <ele>62.7</ele>
        <time>2022-05-28T12:15:37Z</time>
      </trkpt>
      <trkpt lat="49.86299" lon="2.3842">
        <ele>62.7</ele>
        <time>2022-05-28T12:15:38Z</time>
      </trkpt>
      <trkpt lat="49.863" lon="2.38421">
        <ele>62.7</ele>
        <time>2022-05-28T12:15:39Z</time>
      </trkpt>
      <trkpt lat="49.86302" lon="2.38421">
        <ele>62.8</ele>
        <time>2022-05-28T12:15:40Z</time>
      </trkpt>
      <trkpt lat="49.86303" lon="2.38421">
        <ele>62.8</ele>
        <time>2022-05-28T12:15:41Z</time>
      </trkpt>
      <trkpt lat="49.86304" lon="2.3842">
        <ele>62.8</ele>
        <time>2022-05-28T12:15:42Z</time>
      </trkpt>
      <trkpt lat="49.86305" lon="2.3842">
        <ele>62.8</ele>
        <time>2022-05-28T12:15:43Z</time>
      </trkpt>
      <trkpt lat="49.86306" lon="2.3842">
        <ele>62.8</ele>
        <time>2022-05-28T12:15:44Z</time>
      </trkpt>
      <trkpt lat="49.86307" lon="2.3842">
        <ele>62.9</ele>
        <time>2022-05-28T12:15:45Z</time>
      </trkpt>
      <trkpt lat="49.86307" lon="2.3842">
        <ele>62.9</ele>
        <time>2022-05-28T12:15:46Z</time>
      </trkpt>
      <trkpt lat="49.86308" lon="2.38421">
        <ele>62.9</ele>
        <time>2022-05-28T12:15:47Z</time>
      </trkpt>
      <trkpt lat="49.86309" lon="2.38421">
        <ele>62.9</ele>
        <time>2022-05-28T12:15:48Z</time>
      </trkpt>
      <trkpt lat="49.8631" lon="2.38421">
        <ele>62.9</ele>
        <time>2022-05-28T12:15:49Z</time>
      </trkpt>
      <trkpt lat="49.86311" lon="2.38421">
        <ele>63</ele>
        <time>2022-05-28T12:15:50Z</time>
      </trkpt>
      <trkpt lat="49.86312" lon="2.38421">
        <ele>63</ele>
        <time>2022-05-28T12:15:51Z</time>
      </trkpt>
      <trkpt lat="49.86313" lon="2.38422">
        <ele>63</ele>
        <time>2022-05-28T12:15:52Z</time>
      </trkpt>
      <trkpt lat="49.86314" lon="2.38422">
        <ele>63</ele>
        <time>2022-05-28T12:15:53Z</time>
      </trkpt>
      <trkpt lat="49.86314" lon="2.38422">
        <ele>63</ele>
        <time>2022-05-28T12:15:54Z</time>
      </trkpt>
      <trkpt lat="49.86316" lon="2.38422">
        <ele>63.1</ele>
        <time>2022-05-28T12:15:55Z</time>
      </trkpt>
      <trkpt lat="49.86317" lon="2.38422">
        <ele>63.1</ele>
        <time>2022-05-28T12:15:56Z</time>
      </trkpt>
      <trkpt lat="49.86318" lon="2.38423">
        <ele>63.1</ele>
        <time>2022-05-28T12:15:57Z</time>
      </trkpt>
      <trkpt lat="49.86319" lon="2.38423">
        <ele>63.1</ele>
        <time>2022-05-28T12:15:58Z</time>
      </trkpt>
      <trkpt lat="49.86319" lon="2.38423">
        <ele>63.2</ele>
        <time>2022-05-28T12:15:59Z</time>
      </trkpt>
      <trkpt lat="49.8632" lon="2.38423">
        <ele>63.2</ele>
        <time>2022-05-28T12:16:00Z</time>
      </trkpt>
      <trkpt lat="49.86321" lon="2.38423">
        <ele>63.2</ele>
        <time>2022-05-28T12:16:01Z</time>
      </trkpt>
      <trkpt lat="49.86322" lon="2.38423">
        <ele>63.2</ele>
        <time>2022-05-28T12:16:02Z</time>
      </trkpt>
      <trkpt lat="49.86323" lon="2.38423">
        <ele>63.3</ele>
        <time>2022-05-28T12:16:03Z</time>
      </trkpt>
      <trkpt lat="49.86324" lon="2.38423">
        <ele>63.3</ele>
        <time>2022-05-28T12:16:04Z</time>
      </trkpt>
      <trkpt lat="49.86325" lon="2.38423">
        <ele>63.3</ele>
        <time>2022-05-28T12:16:05Z</time>
      </trkpt>
      <trkpt lat="49.86325" lon="2.38423">
        <ele>63.3</ele>
        <time>2022-05-28T12:16:06Z</time>
      </trkpt>
      <trkpt lat="49.86325" lon="2.38423">
        <ele>63.3</ele>
        <time>2022-05-28T12:16:07Z</time>
      </trkpt>
      <trkpt lat="49.86326" lon="2.38424">
        <ele>63.3</ele>
        <time>2022-05-28T12:16:08Z</time>
      </trkpt>
      <trkpt lat="49.86326" lon="2.38424">
        <ele>63.3</ele>
        <time>2022-05-28T12:16:09Z</time>
      </trkpt>
      <trkpt lat="49.86327" lon="2.38425">
        <ele>63.4</ele>
        <time>2022-05-28T12:16:10Z</time>
      </trkpt>
      <trkpt lat="49.86327" lon="2.38426">
        <ele>63.4</ele>
        <time>2022-05-28T12:16:11Z</time>
      </trkpt>
      <trkpt lat="49.86327" lon="2.38427">
        <ele>63.4</ele>
        <time>2022-05-28T12:16:12Z</time>
      </trkpt>
      <trkpt lat="49.86328" lon="2.38427">
        <ele>63.4</ele>
        <time>2022-05-28T12:16:13Z</time>
      </trkpt>
      <trkpt lat="49.86329" lon="2.38428">
        <ele>63.4</ele>
        <time>2022-05-28T12:16:14Z</time>
      </trkpt>
      <trkpt lat="49.86329" lon="2.38428">
        <ele>63.4</ele>
        <time>2022-05-28T12:16:15Z</time>
      </trkpt>
      <trkpt lat="49.86331" lon="2.38429">
        <ele>63.5</ele>
        <time>2022-05-28T12:16:16Z</time>
      </trkpt>
      <trkpt lat="49.86332" lon="2.38429">
        <ele>63.5</ele>
        <time>2022-05-28T12:16:17Z</time>
      </trkpt>
      <trkpt lat="49.86333" lon="2.3843">
        <ele>63.5</ele>
        <time>2022-05-28T12:16:18Z</time>
      </trkpt>
      <trkpt lat="49.86334" lon="2.3843">
        <ele>63.6</ele>
        <time>2022-05-28T12:16:19Z</time>
      </trkpt>
      <trkpt lat="49.86335" lon="2.38431">
        <ele>63.6</ele>
        <time>2022-05-28T12:16:20Z</time>
      </trkpt>
      <trkpt lat="49.86336" lon="2.38431">
        <ele>63.6</ele>
        <time>2022-05-28T12:16:21Z</time>
      </trkpt>
      <trkpt lat="49.86336" lon="2.38431">
        <ele>63.6</ele>
        <time>2022-05-28T12:16:22Z</time>
      </trkpt>
      <trkpt lat="49.86337" lon="2.38432">
        <ele>63.6</ele>
        <time>2022-05-28T12:16:23Z</time>
      </trkpt>
      <trkpt lat="49.86338" lon="2.38433">
        <ele>63.6</ele>
        <time>2022-05-28T12:16:24Z</time>
      </trkpt>
      <trkpt lat="49.86339" lon="2.38434">
        <ele>63.7</ele>
        <time>2022-05-28T12:16:25Z</time>
      </trkpt>
      <trkpt lat="49.8634" lon="2.38435">
        <ele>63.7</ele>
        <time>2022-05-28T12:16:26Z</time>
      </trkpt>
      <trkpt lat="49.86341" lon="2.38435">
        <ele>63.7</ele>
        <time>2022-05-28T12:16:27Z</time>
      </trkpt>
      <trkpt lat="49.86341" lon="2.38436">
        <ele>63.7</ele>
        <time>2022-05-28T12:16:28Z</time>
      </trkpt>
      <trkpt lat="49.86342" lon="2.38437">
        <ele>63.8</ele>
        <time>2022-05-28T12:16:29Z</time>
      </trkpt>
      <trkpt lat="49.86343" lon="2.38438">
        <ele>63.8</ele>
        <time>2022-05-28T12:16:30Z</time>
      </trkpt>
      <trkpt lat="49.86344" lon="2.38439">
        <ele>63.8</ele>
        <time>2022-05-28T12:16:31Z</time>
      </trkpt>
      <trkpt lat="49.86345" lon="2.38439">
        <ele>63.8</ele>
        <time>2022-05-28T12:16:32Z</time>
      </trkpt>
      <trkpt lat="49.86345" lon="2.3844">
        <ele>63.8</ele>
        <time>2022-05-28T12:16:33Z</time>
      </trkpt>
      <trkpt lat="49.86346" lon="2.38441">
        <ele>63.9</ele>
        <time>2022-05-28T12:16:34Z</time>
      </trkpt>
      <trkpt lat="49.86348" lon="2.38442">
        <ele>63.9</ele>
        <time>2022-05-28T12:16:36Z</time>
      </trkpt>
      <trkpt lat="49.86349" lon="2.38443">
        <ele>63.9</ele>
        <time>2022-05-28T12:16:37Z</time>
      </trkpt>
      <trkpt lat="49.8635" lon="2.38444">
        <ele>64</ele>
        <time>2022-05-28T12:16:38Z</time>
      </trkpt>
      <trkpt lat="49.86351" lon="2.38445">
        <ele>64</ele>
        <time>2022-05-28T12:16:39Z</time>
      </trkpt>
      <trkpt lat="49.86352" lon="2.38445">
        <ele>64</ele>
        <time>2022-05-28T12:16:40Z</time>
      </trkpt>
      <trkpt lat="49.86353" lon="2.38446">
        <ele>64</ele>
        <time>2022-05-28T12:16:41Z</time>
      </trkpt>
      <trkpt lat="49.86354" lon="2.38447">
        <ele>64</ele>
        <time>2022-05-28T12:16:42Z</time>
      </trkpt>
      <trkpt lat="49.86355" lon="2.38447">
        <ele>64.1</ele>
        <time>2022-05-28T12:16:43Z</time>
      </trkpt>
      <trkpt lat="49.86356" lon="2.38448">
        <ele>64.1</ele>
        <time>2022-05-28T12:16:44Z</time>
      </trkpt>
      <trkpt lat="49.86357" lon="2.38448">
        <ele>64.1</ele>
        <time>2022-05-28T12:16:45Z</time>
      </trkpt>
      <trkpt lat="49.86358" lon="2.38449">
        <ele>64.1</ele>
        <time>2022-05-28T12:16:46Z</time>
      </trkpt>
      <trkpt lat="49.86359" lon="2.38449">
        <ele>64.2</ele>
        <time>2022-05-28T12:16:47Z</time>
      </trkpt>
      <trkpt lat="49.8636" lon="2.3845">
        <ele>64.2</ele>
        <time>2022-05-28T12:16:48Z</time>
      </trkpt>
      <trkpt lat="49.86362" lon="2.38451">
        <ele>64.2</ele>
        <time>2022-05-28T12:16:49Z</time>
      </trkpt>
      <trkpt lat="49.86363" lon="2.38451">
        <ele>64.2</ele>
        <time>2022-05-28T12:16:50Z</time>
      </trkpt>
      <trkpt lat="49.86363" lon="2.38452">
        <ele>64.2</ele>
        <time>2022-05-28T12:16:51Z</time>
      </trkpt>
      <trkpt lat="49.86364" lon="2.38452">
        <ele>64.3</ele>
        <time>2022-05-28T12:16:52Z</time>
      </trkpt>
      <trkpt lat="49.86365" lon="2.38453">
        <ele>64.3</ele>
        <time>2022-05-28T12:16:53Z</time>
      </trkpt>
      <trkpt lat="49.86366" lon="2.38454">
        <ele>64.3</ele>
        <time>2022-05-28T12:16:54Z</time>
      </trkpt>
      <trkpt lat="49.86367" lon="2.38454">
        <ele>64.3</ele>
        <time>2022-05-28T12:16:55Z</time>
      </trkpt>
      <trkpt lat="49.86368" lon="2.38455">
        <ele>64.3</ele>
        <time>2022-05-28T12:16:56Z</time>
      </trkpt>
      <trkpt lat="49.86369" lon="2.38455">
        <ele>64.3</ele>
        <time>2022-05-28T12:16:57Z</time>
      </trkpt>
      <trkpt lat="49.8637" lon="2.38455">
        <ele>64.4</ele>
        <time>2022-05-28T12:16:58Z</time>
      </trkpt>
      <trkpt lat="49.86371" lon="2.38456">
        <ele>64.4</ele>
        <time>2022-05-28T12:16:59Z</time>
      </trkpt>
      <trkpt lat="49.86372" lon="2.38456">
        <ele>64.4</ele>
        <time>2022-05-28T12:17:00Z</time>
      </trkpt>
      <trkpt lat="49.86373" lon="2.38457">
        <ele>64.4</ele>
        <time>2022-05-28T12:17:01Z</time>
      </trkpt>
      <trkpt lat="49.86373" lon="2.38457">
        <ele>64.4</ele>
        <time>2022-05-28T12:17:02Z</time>
      </trkpt>
      <trkpt lat="49.86374" lon="2.38457">
        <ele>64.4</ele>
        <time>2022-05-28T12:17:03Z</time>
      </trkpt>
      <trkpt lat="49.86375" lon="2.38458">
        <ele>64.5</ele>
        <time>2022-05-28T12:17:04Z</time>
      </trkpt>
      <trkpt lat="49.86376" lon="2.38458">
        <ele>64.5</ele>
        <time>2022-05-28T12:17:05Z</time>
      </trkpt>
      <trkpt lat="49.86376" lon="2.38458">
        <ele>64.5</ele>
        <time>2022-05-28T12:17:06Z</time>
      </trkpt>
      <trkpt lat="49.86377" lon="2.38459">
        <ele>64.5</ele>
        <time>2022-05-28T12:17:07Z</time>
      </trkpt>
      <trkpt lat="49.86378" lon="2.38459">
        <ele>64.5</ele>
        <time>2022-05-28T12:17:08Z</time>
      </trkpt>
      <trkpt lat="49.86379" lon="2.3846">
        <ele>64.5</ele>
        <time>2022-05-28T12:17:09Z</time>
      </trkpt>
      <trkpt lat="49.8638" lon="2.3846">
        <ele>64.6</ele>
        <time>2022-05-28T12:17:10Z</time>
      </trkpt>
      <trkpt lat="49.86381" lon="2.3846">
        <ele>64.6</ele>
        <time>2022-05-28T12:17:11Z</time>
      </trkpt>
      <trkpt lat="49.86381" lon="2.3846">
        <ele>64.6</ele>
        <time>2022-05-28T12:17:12Z</time>
      </trkpt>
      <trkpt lat="49.86382" lon="2.38461">
        <ele>64.6</ele>
        <time>2022-05-28T12:17:13Z</time>
      </trkpt>
      <trkpt lat="49.86383" lon="2.38461">
        <ele>64.6</ele>
        <time>2022-05-28T12:17:14Z</time>
      </trkpt>
      <trkpt lat="49.86384" lon="2.38462">
        <ele>64.7</ele>
        <time>2022-05-28T12:17:15Z</time>
      </trkpt>
      <trkpt lat="49.86384" lon="2.38462">
        <ele>64.7</ele>
        <time>2022-05-28T12:17:16Z</time>
      </trkpt>
      <trkpt lat="49.86385" lon="2.38462">
        <ele>64.7</ele>
        <time>2022-05-28T12:17:17Z</time>
      </trkpt>
      <trkpt lat="49.86386" lon="2.38463">
        <ele>64.7</ele>
        <time>2022-05-28T12:17:18Z</time>
      </trkpt>
      <trkpt lat="49.86387" lon="2.38463">
        <ele>64.8</ele>
        <time>2022-05-28T12:17:19Z</time>
      </trkpt>
      <trkpt lat="49.86387" lon="2.38463">
        <ele>64.8</ele>
        <time>2022-05-28T12:17:20Z</time>
      </trkpt>
      <trkpt lat="49.86388" lon="2.38463">
        <ele>64.8</ele>
        <time>2022-05-28T12:17:21Z</time>
      </trkpt>
      <trkpt lat="49.86388" lon="2.38464">
        <ele>64.8</ele>
        <time>2022-05-28T12:17:22Z</time>
      </trkpt>
      <trkpt lat="49.86389" lon="2.38464">
        <ele>64.9</ele>
        <time>2022-05-28T12:17:23Z</time>
      </trkpt>
      <trkpt lat="49.8639" lon="2.38464">
        <ele>64.9</ele>
        <time>2022-05-28T12:17:24Z</time>
      </trkpt>
      <trkpt lat="49.86391" lon="2.38464">
        <ele>64.9</ele>
        <time>2022-05-28T12:17:25Z</time>
      </trkpt>
      <trkpt lat="49.86392" lon="2.38465">
        <ele>64.9</ele>
        <time>2022-05-28T12:17:26Z</time>
      </trkpt>
      <trkpt lat="49.86392" lon="2.38465">
        <ele>65</ele>
        <time>2022-05-28T12:17:27Z</time>
      </trkpt>
      <trkpt lat="49.86393" lon="2.38465">
        <ele>65</ele>
        <time>2022-05-28T12:17:28Z</time>
      </trkpt>
      <trkpt lat="49.86395" lon="2.38465">
        <ele>65</ele>
        <time>2022-05-28T12:17:29Z</time>
      </trkpt>
      <trkpt lat="49.86396" lon="2.38466">
        <ele>65.1</ele>
        <time>2022-05-28T12:17:30Z</time>
      </trkpt>
      <trkpt lat="49.86397" lon="2.38466">
        <ele>65.1</ele>
        <time>2022-05-28T12:17:31Z</time>
      </trkpt>
      <trkpt lat="49.86398" lon="2.38466">
        <ele>65.1</ele>
        <time>2022-05-28T12:17:32Z</time>
      </trkpt>
      <trkpt lat="49.86399" lon="2.38466">
        <ele>65.2</ele>
        <time>2022-05-28T12:17:33Z</time>
      </trkpt>
      <trkpt lat="49.86399" lon="2.38466">
        <ele>65.2</ele>
        <time>2022-05-28T12:17:34Z</time>
      </trkpt>
      <trkpt lat="49.864" lon="2.38466">
        <ele>65.2</ele>
        <time>2022-05-28T12:17:35Z</time>
      </trkpt>
      <trkpt lat="49.86401" lon="2.38466">
        <ele>65.3</ele>
        <time>2022-05-28T12:17:36Z</time>
      </trkpt>
      <trkpt lat="49.86402" lon="2.38467">
        <ele>65.3</ele>
        <time>2022-05-28T12:17:37Z</time>
      </trkpt>
      <trkpt lat="49.86403" lon="2.38467">
        <ele>65.3</ele>
        <time>2022-05-28T12:17:38Z</time>
      </trkpt>
      <trkpt lat="49.86404" lon="2.38468">
        <ele>65.3</ele>
        <time>2022-05-28T12:17:39Z</time>
      </trkpt>
      <trkpt lat="49.86405" lon="2.38468">
        <ele>65.4</ele>
        <time>2022-05-28T12:17:40Z</time>
      </trkpt>
      <trkpt lat="49.86406" lon="2.38469">
        <ele>65.4</ele>
        <time>2022-05-28T12:17:41Z</time>
      </trkpt>
      <trkpt lat="49.86406" lon="2.38469">
        <ele>65.4</ele>
        <time>2022-05-28T12:17:42Z</time>
      </trkpt>
      <trkpt lat="49.86407" lon="2.3847">
        <ele>65.4</ele>
        <time>2022-05-28T12:17:43Z</time>
      </trkpt>
      <trkpt lat="49.86408" lon="2.3847">
        <ele>65.5</ele>
        <time>2022-05-28T12:17:44Z</time>
      </trkpt>
      <trkpt lat="49.86409" lon="2.3847">
        <ele>65.5</ele>
        <time>2022-05-28T12:17:45Z</time>
      </trkpt>
      <trkpt lat="49.86411" lon="2.38471">
        <ele>65.5</ele>
        <time>2022-05-28T12:17:46Z</time>
      </trkpt>
      <trkpt lat="49.86411" lon="2.38472">
        <ele>65.5</ele>
        <time>2022-05-28T12:17:47Z</time>
      </trkpt>
      <trkpt lat="49.86412" lon="2.38472">
        <ele>65.6</ele>
        <time>2022-05-28T12:17:48Z</time>
      </trkpt>
      <trkpt lat="49.86413" lon="2.38473">
        <ele>65.6</ele>
        <time>2022-05-28T12:17:49Z</time>
      </trkpt>
      <trkpt lat="49.86414" lon="2.38473">
        <ele>65.6</ele>
        <time>2022-05-28T12:17:50Z</time>
      </trkpt>
      <trkpt lat="49.86415" lon="2.38474">
        <ele>65.6</ele>
        <time>2022-05-28T12:17:51Z</time>
      </trkpt>
      <trkpt lat="49.86416" lon="2.38474">
        <ele>65.6</ele>
        <time>2022-05-28T12:17:52Z</time>
      </trkpt>
      <trkpt lat="49.86417" lon="2.38475">
        <ele>65.7</ele>
        <time>2022-05-28T12:17:53Z</time>
      </trkpt>
      <trkpt lat="49.86418" lon="2.38475">
        <ele>65.7</ele>
        <time>2022-05-28T12:17:54Z</time>
      </trkpt>
      <trkpt lat="49.86419" lon="2.38475">
        <ele>65.7</ele>
        <time>2022-05-28T12:17:55Z</time>
      </trkpt>
      <trkpt lat="49.8642" lon="2.38476">
        <ele>65.7</ele>
        <time>2022-05-28T12:17:56Z</time>
      </trkpt>
      <trkpt lat="49.86421" lon="2.38476">
        <ele>65.7</ele>
        <time>2022-05-28T12:17:57Z</time>
      </trkpt>
      <trkpt lat="49.86422" lon="2.38477">
        <ele>65.7</ele>
        <time>2022-05-28T12:17:58Z</time>
      </trkpt>
      <trkpt lat="49.86423" lon="2.38477">
        <ele>65.8</ele>
        <time>2022-05-28T12:17:59Z</time>
      </trkpt>
      <trkpt lat="49.86424" lon="2.38477">
        <ele>65.8</ele>
        <time>2022-05-28T12:18:00Z</time>
      </trkpt>
      <trkpt lat="49.86426" lon="2.38478">
        <ele>65.8</ele>
        <time>2022-05-28T12:18:01Z</time>
      </trkpt>
      <trkpt lat="49.86426" lon="2.38478">
        <ele>65.8</ele>
        <time>2022-05-28T12:18:02Z</time>
      </trkpt>
      <trkpt lat="49.86427" lon="2.38479">
        <ele>65.8</ele>
        <time>2022-05-28T12:18:03Z</time>
      </trkpt>
      <trkpt lat="49.86429" lon="2.38479">
        <ele>65.9</ele>
        <time>2022-05-28T12:18:04Z</time>
      </trkpt>
      <trkpt lat="49.86429" lon="2.38479">
        <ele>65.9</ele>
        <time>2022-05-28T12:18:05Z</time>
      </trkpt>
      <trkpt lat="49.8643" lon="2.3848">
        <ele>65.9</ele>
        <time>2022-05-28T12:18:06Z</time>
      </trkpt>
      <trkpt lat="49.86431" lon="2.3848">
        <ele>65.9</ele>
        <time>2022-05-28T12:18:07Z</time>
      </trkpt>
      <trkpt lat="49.86431" lon="2.3848">
        <ele>65.9</ele>
        <time>2022-05-28T12:18:08Z</time>
      </trkpt>
      <trkpt lat="49.86432" lon="2.3848">
        <ele>66</ele>
        <time>2022-05-28T12:18:09Z</time>
      </trkpt>
      <trkpt lat="49.86433" lon="2.38481">
        <ele>66</ele>
        <time>2022-05-28T12:18:10Z</time>
      </trkpt>
      <trkpt lat="49.86434" lon="2.38481">
        <ele>66</ele>
        <time>2022-05-28T12:18:11Z</time>
      </trkpt>
      <trkpt lat="49.86435" lon="2.38481">
        <ele>66</ele>
        <time>2022-05-28T12:18:12Z</time>
      </trkpt>
      <trkpt lat="49.86436" lon="2.38481">
        <ele>66.1</ele>
        <time>2022-05-28T12:18:13Z</time>
      </trkpt>
      <trkpt lat="49.86438" lon="2.38482">
        <ele>66.1</ele>
        <time>2022-05-28T12:18:14Z</time>
      </trkpt>
      <trkpt lat="49.86439" lon="2.38482">
        <ele>66.2</ele>
        <time>2022-05-28T12:18:15Z</time>
      </trkpt>
      <trkpt lat="49.8644" lon="2.38482">
        <ele>66.2</ele>
        <time>2022-05-28T12:18:16Z</time>
      </trkpt>
      <trkpt lat="49.86441" lon="2.38482">
        <ele>66.2</ele>
        <time>2022-05-28T12:18:17Z</time>
      </trkpt>
      <trkpt lat="49.86442" lon="2.38482">
        <ele>66.2</ele>
        <time>2022-05-28T12:18:18Z</time>
      </trkpt>
      <trkpt lat="49.86443" lon="2.38483">
        <ele>66.3</ele>
        <time>2022-05-28T12:18:19Z</time>
      </trkpt>
      <trkpt lat="49.86445" lon="2.38483">
        <ele>66.3</ele>
        <time>2022-05-28T12:18:20Z</time>
      </trkpt>
      <trkpt lat="49.86447" lon="2.38484">
        <ele>66.4</ele>
        <time>2022-05-28T12:18:21Z</time>
      </trkpt>
      <trkpt lat="49.86447" lon="2.38484">
        <ele>66.4</ele>
        <time>2022-05-28T12:18:22Z</time>
      </trkpt>
      <trkpt lat="49.86447" lon="2.38484">
        <ele>66.4</ele>
        <time>2022-05-28T12:18:23Z</time>
      </trkpt>
      <trkpt lat="49.86448" lon="2.38484">
        <ele>66.5</ele>
        <time>2022-05-28T12:18:24Z</time>
      </trkpt>
      <trkpt lat="49.86449" lon="2.38484">
        <ele>66.5</ele>
        <time>2022-05-28T12:18:25Z</time>
      </trkpt>
      <trkpt lat="49.86449" lon="2.38485">
        <ele>66.5</ele>
        <time>2022-05-28T12:18:26Z</time>
      </trkpt>
      <trkpt lat="49.8645" lon="2.38485">
        <ele>66.5</ele>
        <time>2022-05-28T12:18:27Z</time>
      </trkpt>
      <trkpt lat="49.86451" lon="2.38485">
        <ele>66.6</ele>
        <time>2022-05-28T12:18:28Z</time>
      </trkpt>
      <trkpt lat="49.86452" lon="2.38486">
        <ele>66.6</ele>
        <time>2022-05-28T12:18:29Z</time>
      </trkpt>
      <trkpt lat="49.86452" lon="2.38486">
        <ele>66.6</ele>
        <time>2022-05-28T12:18:30Z</time>
      </trkpt>
      <trkpt lat="49.86453" lon="2.38486">
        <ele>66.7</ele>
        <time>2022-05-28T12:18:31Z</time>
      </trkpt>
      <trkpt lat="49.86453" lon="2.38487">
        <ele>66.7</ele>
        <time>2022-05-28T12:18:32Z</time>
      </trkpt>
      <trkpt lat="49.86454" lon="2.38487">
        <ele>66.7</ele>
        <time>2022-05-28T12:18:33Z</time>
      </trkpt>
      <trkpt lat="49.86455" lon="2.38487">
        <ele>66.7</ele>
        <time>2022-05-28T12:18:34Z</time>
      </trkpt>
      <trkpt lat="49.86455" lon="2.38487">
        <ele>66.7</ele>
        <time>2022-05-28T12:18:35Z</time>
      </trkpt>
      <trkpt lat="49.86456" lon="2.38488">
        <ele>66.8</ele>
        <time>2022-05-28T12:18:36Z</time>
      </trkpt>
      <trkpt lat="49.86457" lon="2.38488">
        <ele>66.8</ele>
        <time>2022-05-28T12:18:37Z</time>
      </trkpt>
      <trkpt lat="49.86457" lon="2.38488">
        <ele>66.8</ele>
        <time>2022-05-28T12:18:38Z</time>
      </trkpt>
      <trkpt lat="49.86458" lon="2.38489">
        <ele>66.9</ele>
        <time>2022-05-28T12:18:39Z</time>
      </trkpt>
      <trkpt lat="49.86459" lon="2.38489">
        <ele>66.9</ele>
        <time>2022-05-28T12:18:40Z</time>
      </trkpt>
      <trkpt lat="49.8646" lon="2.38489">
        <ele>66.9</ele>
        <time>2022-05-28T12:18:41Z</time>
      </trkpt>
      <trkpt lat="49.86461" lon="2.38489">
        <ele>66.9</ele>
        <time>2022-05-28T12:18:42Z</time>
      </trkpt>
      <trkpt lat="49.86461" lon="2.38489">
        <ele>67</ele>
        <time>2022-05-28T12:18:43Z</time>
      </trkpt>
      <trkpt lat="49.86462" lon="2.3849">
        <ele>67</ele>
        <time>2022-05-28T12:18:44Z</time>
      </trkpt>
      <trkpt lat="49.86463" lon="2.3849">
        <ele>67</ele>
        <time>2022-05-28T12:18:45Z</time>
      </trkpt>
      <trkpt lat="49.86464" lon="2.3849">
        <ele>67</ele>
        <time>2022-05-28T12:18:46Z</time>
      </trkpt>
      <trkpt lat="49.86465" lon="2.38491">
        <ele>67</ele>
        <time>2022-05-28T12:18:47Z</time>
      </trkpt>
      <trkpt lat="49.86466" lon="2.38491">
        <ele>67.1</ele>
        <time>2022-05-28T12:18:48Z</time>
      </trkpt>
      <trkpt lat="49.86467" lon="2.38491">
        <ele>67.1</ele>
        <time>2022-05-28T12:18:49Z</time>
      </trkpt>
      <trkpt lat="49.86468" lon="2.38491">
        <ele>67.1</ele>
        <time>2022-05-28T12:18:50Z</time>
      </trkpt>
      <trkpt lat="49.86469" lon="2.38491">
        <ele>67.1</ele>
        <time>2022-05-28T12:18:51Z</time>
      </trkpt>
      <trkpt lat="49.8647" lon="2.38492">
        <ele>67.1</ele>
        <time>2022-05-28T12:18:52Z</time>
      </trkpt>
      <trkpt lat="49.8647" lon="2.38492">
        <ele>67.2</ele>
        <time>2022-05-28T12:18:53Z</time>
      </trkpt>
      <trkpt lat="49.86471" lon="2.38492">
        <ele>67.2</ele>
        <time>2022-05-28T12:18:54Z</time>
      </trkpt>
      <trkpt lat="49.86472" lon="2.38492">
        <ele>67.2</ele>
        <time>2022-05-28T12:18:55Z</time>
      </trkpt>
      <trkpt lat="49.86472" lon="2.38493">
        <ele>67.2</ele>
        <time>2022-05-28T12:18:56Z</time>
      </trkpt>
      <trkpt lat="49.86472" lon="2.38493">
        <ele>67.2</ele>
        <time>2022-05-28T12:18:57Z</time>
      </trkpt>
      <trkpt lat="49.86473" lon="2.38493">
        <ele>67.2</ele>
        <time>2022-05-28T12:18:58Z</time>
      </trkpt>
      <trkpt lat="49.86473" lon="2.38493">
        <ele>67.2</ele>
        <time>2022-05-28T12:18:59Z</time>
      </trkpt>
      <trkpt lat="49.86474" lon="2.38494">
        <ele>67.2</ele>
        <time>2022-05-28T12:19:00Z</time>
      </trkpt>
      <trkpt lat="49.86475" lon="2.38494">
        <ele>67.2</ele>
        <time>2022-05-28T12:19:01Z</time>
      </trkpt>
      <trkpt lat="49.86476" lon="2.38494">
        <ele>67.3</ele>
        <time>2022-05-28T12:19:02Z</time>
      </trkpt>
      <trkpt lat="49.86477" lon="2.38495">
        <ele>67.3</ele>
        <time>2022-05-28T12:19:03Z</time>
      </trkpt>
      <trkpt lat="49.86478" lon="2.38495">
        <ele>67.3</ele>
        <time>2022-05-28T12:19:04Z</time>
      </trkpt>
      <trkpt lat="49.86478" lon="2.38496">
        <ele>67.3</ele>
        <time>2022-05-28T12:19:05Z</time>
      </trkpt>
      <trkpt lat="49.86479" lon="2.38496">
        <ele>67.3</ele>
        <time>2022-05-28T12:19:06Z</time>
      </trkpt>
      <trkpt lat="49.8648" lon="2.38497">
        <ele>67.3</ele>
        <time>2022-05-28T12:19:07Z</time>
      </trkpt>
      <trkpt lat="49.86481" lon="2.38497">
        <ele>67.3</ele>
        <time>2022-05-28T12:19:08Z</time>
      </trkpt>
      <trkpt lat="49.86482" lon="2.38498">
        <ele>67.3</ele>
        <time>2022-05-28T12:19:09Z</time>
      </trkpt>
      <trkpt lat="49.86483" lon="2.38498">
        <ele>67.3</ele>
        <time>2022-05-28T12:19:10Z</time>
      </trkpt>
      <trkpt lat="49.86483" lon="2.38499">
        <ele>67.3</ele>
        <time>2022-05-28T12:19:11Z</time>
      </trkpt>
      <trkpt lat="49.86484" lon="2.38499">
        <ele>67.3</ele>
        <time>2022-05-28T12:19:12Z</time>
      </trkpt>
      <trkpt lat="49.86484" lon="2.385">
        <ele>67.3</ele>
        <time>2022-05-28T12:19:13Z</time>
      </trkpt>
      <trkpt lat="49.86485" lon="2.38501">
        <ele>67.4</ele>
        <time>2022-05-28T12:19:14Z</time>
      </trkpt>
      <trkpt lat="49.86486" lon="2.38502">
        <ele>67.4</ele>
        <time>2022-05-28T12:19:15Z</time>
      </trkpt>
      <trkpt lat="49.86486" lon="2.38502">
        <ele>67.4</ele>
        <time>2022-05-28T12:19:16Z</time>
      </trkpt>
      <trkpt lat="49.86487" lon="2.38504">
        <ele>67.4</ele>
        <time>2022-05-28T12:19:17Z</time>
      </trkpt>
      <trkpt lat="49.86488" lon="2.38505">
        <ele>67.4</ele>
        <time>2022-05-28T12:19:18Z</time>
      </trkpt>
      <trkpt lat="49.86488" lon="2.38507">
        <ele>67.4</ele>
        <time>2022-05-28T12:19:19Z</time>
      </trkpt>
      <trkpt lat="49.86488" lon="2.38508">
        <ele>67.4</ele>
        <time>2022-05-28T12:19:20Z</time>
      </trkpt>
      <trkpt lat="49.86488" lon="2.38511">
        <ele>67.4</ele>
        <time>2022-05-28T12:19:21Z</time>
      </trkpt>
      <trkpt lat="49.86488" lon="2.38512">
        <ele>67.4</ele>
        <time>2022-05-28T12:19:22Z</time>
      </trkpt>
      <trkpt lat="49.86488" lon="2.38513">
        <ele>67.4</ele>
        <time>2022-05-28T12:19:23Z</time>
      </trkpt>
      <trkpt lat="49.86488" lon="2.38513">
        <ele>67.4</ele>
        <time>2022-05-28T12:19:24Z</time>
      </trkpt>
      <trkpt lat="49.86488" lon="2.38514">
        <ele>67.4</ele>
        <time>2022-05-28T12:19:25Z</time>
      </trkpt>
      <trkpt lat="49.86488" lon="2.38515">
        <ele>67.4</ele>
        <time>2022-05-28T12:19:26Z</time>
      </trkpt>
      <trkpt lat="49.86488" lon="2.38517">
        <ele>67.4</ele>
        <time>2022-05-28T12:19:27Z</time>
      </trkpt>
      <trkpt lat="49.86487" lon="2.38518">
        <ele>67.4</ele>
        <time>2022-05-28T12:19:28Z</time>
      </trkpt>
      <trkpt lat="49.86487" lon="2.38519">
        <ele>67.4</ele>
        <time>2022-05-28T12:19:29Z</time>
      </trkpt>
      <trkpt lat="49.86487" lon="2.38521">
        <ele>67.4</ele>
        <time>2022-05-28T12:19:30Z</time>
      </trkpt>
      <trkpt lat="49.86487" lon="2.38522">
        <ele>67.4</ele>
        <time>2022-05-28T12:19:31Z</time>
      </trkpt>
      <trkpt lat="49.86487" lon="2.38523">
        <ele>67.4</ele>
        <time>2022-05-28T12:19:32Z</time>
      </trkpt>
      <trkpt lat="49.86487" lon="2.38523">
        <ele>67.4</ele>
        <time>2022-05-28T12:19:33Z</time>
      </trkpt>
      <trkpt lat="49.86487" lon="2.38524">
        <ele>67.4</ele>
        <time>2022-05-28T12:19:34Z</time>
      </trkpt>
      <trkpt lat="49.86487" lon="2.38525">
        <ele>67.4</ele>
        <time>2022-05-28T12:19:35Z</time>
      </trkpt>
      <trkpt lat="49.86488" lon="2.38526">
        <ele>67.4</ele>
        <time>2022-05-28T12:19:36Z</time>
      </trkpt>
      <trkpt lat="49.86488" lon="2.38527">
        <ele>67.4</ele>
        <time>2022-05-28T12:19:37Z</time>
      </trkpt>
      <trkpt lat="49.86488" lon="2.3853">
        <ele>67.4</ele>
        <time>2022-05-28T12:19:38Z</time>
      </trkpt>
      <trkpt lat="49.86488" lon="2.38531">
        <ele>67.4</ele>
        <time>2022-05-28T12:19:39Z</time>
      </trkpt>
      <trkpt lat="49.86488" lon="2.38532">
        <ele>67.4</ele>
        <time>2022-05-28T12:19:40Z</time>
      </trkpt>
      <trkpt lat="49.86489" lon="2.38533">
        <ele>67.4</ele>
        <time>2022-05-28T12:19:41Z</time>
      </trkpt>
      <trkpt lat="49.86489" lon="2.38533">
        <ele>67.4</ele>
        <time>2022-05-28T12:19:42Z</time>
      </trkpt>
      <trkpt lat="49.86489" lon="2.38535">
        <ele>67.4</ele>
        <time>2022-05-28T12:19:43Z</time>
      </trkpt>
      <trkpt lat="49.86489" lon="2.38536">
        <ele>67.4</ele>
        <time>2022-05-28T12:19:44Z</time>
      </trkpt>
      <trkpt lat="49.86489" lon="2.38538">
        <ele>67.4</ele>
        <time>2022-05-28T12:19:45Z</time>
      </trkpt>
      <trkpt lat="49.86489" lon="2.38539">
        <ele>67.4</ele>
        <time>2022-05-28T12:19:46Z</time>
      </trkpt>
      <trkpt lat="49.86489" lon="2.38541">
        <ele>67.4</ele>
        <time>2022-05-28T12:19:47Z</time>
      </trkpt>
      <trkpt lat="49.86489" lon="2.38542">
        <ele>67.4</ele>
        <time>2022-05-28T12:19:48Z</time>
      </trkpt>
      <trkpt lat="49.86489" lon="2.38543">
        <ele>67.4</ele>
        <time>2022-05-28T12:19:49Z</time>
      </trkpt>
      <trkpt lat="49.86488" lon="2.38545">
        <ele>67.4</ele>
        <time>2022-05-28T12:19:50Z</time>
      </trkpt>
      <trkpt lat="49.86488" lon="2.38546">
        <ele>67.4</ele>
        <time>2022-05-28T12:19:51Z</time>
      </trkpt>
      <trkpt lat="49.86488" lon="2.38548">
        <ele>67.4</ele>
        <time>2022-05-28T12:19:52Z</time>
      </trkpt>
      <trkpt lat="49.86488" lon="2.38549">
        <ele>67.5</ele>
        <time>2022-05-28T12:19:53Z</time>
      </trkpt>
      <trkpt lat="49.86487" lon="2.3855">
        <ele>67.5</ele>
        <time>2022-05-28T12:19:54Z</time>
      </trkpt>
      <trkpt lat="49.86487" lon="2.38552">
        <ele>67.5</ele>
        <time>2022-05-28T12:19:55Z</time>
      </trkpt>
      <trkpt lat="49.86487" lon="2.38553">
        <ele>67.5</ele>
        <time>2022-05-28T12:19:56Z</time>
      </trkpt>
      <trkpt lat="49.86487" lon="2.38555">
        <ele>67.5</ele>
        <time>2022-05-28T12:19:57Z</time>
      </trkpt>
      <trkpt lat="49.86487" lon="2.38557">
        <ele>67.5</ele>
        <time>2022-05-28T12:19:58Z</time>
      </trkpt>
      <trkpt lat="49.86486" lon="2.38558">
        <ele>67.5</ele>
        <time>2022-05-28T12:19:59Z</time>
      </trkpt>
      <trkpt lat="49.86486" lon="2.38559">
        <ele>67.5</ele>
        <time>2022-05-28T12:20:00Z</time>
      </trkpt>
      <trkpt lat="49.86486" lon="2.38561">
        <ele>67.6</ele>
        <time>2022-05-28T12:20:01Z</time>
      </trkpt>
      <trkpt lat="49.86486" lon="2.38563">
        <ele>67.6</ele>
        <time>2022-05-28T12:20:02Z</time>
      </trkpt>
      <trkpt lat="49.86486" lon="2.38564">
        <ele>67.6</ele>
        <time>2022-05-28T12:20:03Z</time>
      </trkpt>
      <trkpt lat="49.86486" lon="2.38566">
        <ele>67.6</ele>
        <time>2022-05-28T12:20:04Z</time>
      </trkpt>
      <trkpt lat="49.86486" lon="2.38567">
        <ele>67.6</ele>
        <time>2022-05-28T12:20:05Z</time>
      </trkpt>
      <trkpt lat="49.86486" lon="2.38568">
        <ele>67.6</ele>
        <time>2022-05-28T12:20:06Z</time>
      </trkpt>
      <trkpt lat="49.86486" lon="2.3857">
        <ele>67.6</ele>
        <time>2022-05-28T12:20:07Z</time>
      </trkpt>
      <trkpt lat="49.86486" lon="2.38571">
        <ele>67.7</ele>
        <time>2022-05-28T12:20:08Z</time>
      </trkpt>
      <trkpt lat="49.86486" lon="2.38573">
        <ele>67.7</ele>
        <time>2022-05-28T12:20:09Z</time>
      </trkpt>
      <trkpt lat="49.86486" lon="2.38574">
        <ele>67.7</ele>
        <time>2022-05-28T12:20:10Z</time>
      </trkpt>
      <trkpt lat="49.86486" lon="2.38575">
        <ele>67.7</ele>
        <time>2022-05-28T12:20:11Z</time>
      </trkpt>
      <trkpt lat="49.86486" lon="2.38577">
        <ele>67.7</ele>
        <time>2022-05-28T12:20:12Z</time>
      </trkpt>
      <trkpt lat="49.86486" lon="2.38578">
        <ele>67.7</ele>
        <time>2022-05-28T12:20:13Z</time>
      </trkpt>
      <trkpt lat="49.86486" lon="2.38579">
        <ele>67.7</ele>
        <time>2022-05-28T12:20:14Z</time>
      </trkpt>
      <trkpt lat="49.86486" lon="2.38581">
        <ele>67.7</ele>
        <time>2022-05-28T12:20:15Z</time>
      </trkpt>
      <trkpt lat="49.86486" lon="2.38582">
        <ele>67.7</ele>
        <time>2022-05-28T12:20:16Z</time>
      </trkpt>
      <trkpt lat="49.86485" lon="2.38583">
        <ele>67.7</ele>
        <time>2022-05-28T12:20:17Z</time>
      </trkpt>
      <trkpt lat="49.86485" lon="2.38584">
        <ele>67.7</ele>
        <time>2022-05-28T12:20:18Z</time>
      </trkpt>
      <trkpt lat="49.86485" lon="2.38584">
        <ele>67.8</ele>
        <time>2022-05-28T12:20:19Z</time>
      </trkpt>
      <trkpt lat="49.86485" lon="2.38585">
        <ele>67.8</ele>
        <time>2022-05-28T12:20:20Z</time>
      </trkpt>
      <trkpt lat="49.86485" lon="2.38586">
        <ele>67.8</ele>
        <time>2022-05-28T12:20:21Z</time>
      </trkpt>
      <trkpt lat="49.86485" lon="2.38587">
        <ele>67.8</ele>
        <time>2022-05-28T12:20:22Z</time>
      </trkpt>
      <trkpt lat="49.86485" lon="2.38588">
        <ele>67.8</ele>
        <time>2022-05-28T12:20:23Z</time>
      </trkpt>
      <trkpt lat="49.86485" lon="2.3859">
        <ele>67.8</ele>
        <time>2022-05-28T12:20:24Z</time>
      </trkpt>
      <trkpt lat="49.86485" lon="2.38591">
        <ele>67.8</ele>
        <time>2022-05-28T12:20:25Z</time>
      </trkpt>
      <trkpt lat="49.86485" lon="2.38593">
        <ele>67.8</ele>
        <time>2022-05-28T12:20:26Z</time>
      </trkpt>
      <trkpt lat="49.86485" lon="2.38594">
        <ele>67.8</ele>
        <time>2022-05-28T12:20:27Z</time>
      </trkpt>
      <trkpt lat="49.86485" lon="2.38596">
        <ele>67.8</ele>
        <time>2022-05-28T12:20:28Z</time>
      </trkpt>
      <trkpt lat="49.86485" lon="2.38597">
        <ele>67.8</ele>
        <time>2022-05-28T12:20:29Z</time>
      </trkpt>
      <trkpt lat="49.86485" lon="2.38599">
        <ele>67.9</ele>
        <time>2022-05-28T12:20:30Z</time>
      </trkpt>
      <trkpt lat="49.86485" lon="2.38601">
        <ele>67.9</ele>
        <time>2022-05-28T12:20:31Z</time>
      </trkpt>
      <trkpt lat="49.86485" lon="2.38603">
        <ele>67.9</ele>
        <time>2022-05-28T12:20:32Z</time>
      </trkpt>
      <trkpt lat="49.86485" lon="2.38604">
        <ele>67.9</ele>
        <time>2022-05-28T12:20:33Z</time>
      </trkpt>
      <trkpt lat="49.86485" lon="2.38606">
        <ele>67.9</ele>
        <time>2022-05-28T12:20:34Z</time>
      </trkpt>
      <trkpt lat="49.86485" lon="2.38607">
        <ele>67.9</ele>
        <time>2022-05-28T12:20:35Z</time>
      </trkpt>
      <trkpt lat="49.86485" lon="2.38608">
        <ele>67.9</ele>
        <time>2022-05-28T12:20:36Z</time>
      </trkpt>
      <trkpt lat="49.86485" lon="2.38609">
        <ele>67.9</ele>
        <time>2022-05-28T12:20:37Z</time>
      </trkpt>
      <trkpt lat="49.86485" lon="2.38611">
        <ele>67.9</ele>
        <time>2022-05-28T12:20:38Z</time>
      </trkpt>
      <trkpt lat="49.86485" lon="2.38612">
        <ele>68</ele>
        <time>2022-05-28T12:20:39Z</time>
      </trkpt>
      <trkpt lat="49.86484" lon="2.38614">
        <ele>68</ele>
        <time>2022-05-28T12:20:40Z</time>
      </trkpt>
      <trkpt lat="49.86484" lon="2.38616">
        <ele>68</ele>
        <time>2022-05-28T12:20:41Z</time>
      </trkpt>
      <trkpt lat="49.86484" lon="2.38618">
        <ele>68</ele>
        <time>2022-05-28T12:20:42Z</time>
      </trkpt>
      <trkpt lat="49.86484" lon="2.38619">
        <ele>68</ele>
        <time>2022-05-28T12:20:43Z</time>
      </trkpt>
      <trkpt lat="49.86484" lon="2.38621">
        <ele>68</ele>
        <time>2022-05-28T12:20:44Z</time>
      </trkpt>
      <trkpt lat="49.86484" lon="2.38623">
        <ele>68</ele>
        <time>2022-05-28T12:20:45Z</time>
      </trkpt>
      <trkpt lat="49.86485" lon="2.38625">
        <ele>68.1</ele>
        <time>2022-05-28T12:20:46Z</time>
      </trkpt>
      <trkpt lat="49.86485" lon="2.38628">
        <ele>68.1</ele>
        <time>2022-05-28T12:20:47Z</time>
      </trkpt>
      <trkpt lat="49.86485" lon="2.3863">
        <ele>68.1</ele>
        <time>2022-05-28T12:20:48Z</time>
      </trkpt>
      <trkpt lat="49.86485" lon="2.38632">
        <ele>68.1</ele>
        <time>2022-05-28T12:20:49Z</time>
      </trkpt>
      <trkpt lat="49.86485" lon="2.38634">
        <ele>68.1</ele>
        <time>2022-05-28T12:20:50Z</time>
      </trkpt>
      <trkpt lat="49.86485" lon="2.38638">
        <ele>68.2</ele>
        <time>2022-05-28T12:20:51Z</time>
      </trkpt>
      <trkpt lat="49.86485" lon="2.38639">
        <ele>68.2</ele>
        <time>2022-05-28T12:20:52Z</time>
      </trkpt>
      <trkpt lat="49.86486" lon="2.3864">
        <ele>68.2</ele>
        <time>2022-05-28T12:20:53Z</time>
      </trkpt>
      <trkpt lat="49.86486" lon="2.38642">
        <ele>68.2</ele>
        <time>2022-05-28T12:20:54Z</time>
      </trkpt>
      <trkpt lat="49.86486" lon="2.38643">
        <ele>68.2</ele>
        <time>2022-05-28T12:20:55Z</time>
      </trkpt>
      <trkpt lat="49.86486" lon="2.38645">
        <ele>68.2</ele>
        <time>2022-05-28T12:20:56Z</time>
      </trkpt>
      <trkpt lat="49.86486" lon="2.38646">
        <ele>68.2</ele>
        <time>2022-05-28T12:20:57Z</time>
      </trkpt>
      <trkpt lat="49.86486" lon="2.38647">
        <ele>68.2</ele>
        <time>2022-05-28T12:20:58Z</time>
      </trkpt>
      <trkpt lat="49.86486" lon="2.38647">
        <ele>68.2</ele>
        <time>2022-05-28T12:20:59Z</time>
      </trkpt>
      <trkpt lat="49.86486" lon="2.38649">
        <ele>68.3</ele>
        <time>2022-05-28T12:21:00Z</time>
      </trkpt>
      <trkpt lat="49.86487" lon="2.3865">
        <ele>68.3</ele>
        <time>2022-05-28T12:21:01Z</time>
      </trkpt>
      <trkpt lat="49.86487" lon="2.38651">
        <ele>68.3</ele>
        <time>2022-05-28T12:21:02Z</time>
      </trkpt>
      <trkpt lat="49.86487" lon="2.38651">
        <ele>68.3</ele>
        <time>2022-05-28T12:21:03Z</time>
      </trkpt>
      <trkpt lat="49.86487" lon="2.38653">
        <ele>68.3</ele>
        <time>2022-05-28T12:21:04Z</time>
      </trkpt>
      <trkpt lat="49.86487" lon="2.38654">
        <ele>68.3</ele>
        <time>2022-05-28T12:21:05Z</time>
      </trkpt>
      <trkpt lat="49.86487" lon="2.38656">
        <ele>68.3</ele>
        <time>2022-05-28T12:21:06Z</time>
      </trkpt>
      <trkpt lat="49.86487" lon="2.38657">
        <ele>68.3</ele>
        <time>2022-05-28T12:21:07Z</time>
      </trkpt>
      <trkpt lat="49.86487" lon="2.38658">
        <ele>68.4</ele>
        <time>2022-05-28T12:21:08Z</time>
      </trkpt>
      <trkpt lat="49.86487" lon="2.38659">
        <ele>68.4</ele>
        <time>2022-05-28T12:21:09Z</time>
      </trkpt>
      <trkpt lat="49.86487" lon="2.3866">
        <ele>68.4</ele>
        <time>2022-05-28T12:21:10Z</time>
      </trkpt>
      <trkpt lat="49.86487" lon="2.38661">
        <ele>68.4</ele>
        <time>2022-05-28T12:21:11Z</time>
      </trkpt>
      <trkpt lat="49.86487" lon="2.38663">
        <ele>68.4</ele>
        <time>2022-05-28T12:21:12Z</time>
      </trkpt>
      <trkpt lat="49.86487" lon="2.38664">
        <ele>68.4</ele>
        <time>2022-05-28T12:21:13Z</time>
      </trkpt>
      <trkpt lat="49.86487" lon="2.38666">
        <ele>68.4</ele>
        <time>2022-05-28T12:21:14Z</time>
      </trkpt>
      <trkpt lat="49.86487" lon="2.38667">
        <ele>68.5</ele>
        <time>2022-05-28T12:21:15Z</time>
      </trkpt>
      <trkpt lat="49.86487" lon="2.38668">
        <ele>68.5</ele>
        <time>2022-05-28T12:21:16Z</time>
      </trkpt>
      <trkpt lat="49.86487" lon="2.3867">
        <ele>68.5</ele>
        <time>2022-05-28T12:21:17Z</time>
      </trkpt>
      <trkpt lat="49.86487" lon="2.38671">
        <ele>68.5</ele>
        <time>2022-05-28T12:21:18Z</time>
      </trkpt>
      <trkpt lat="49.86487" lon="2.38673">
        <ele>68.5</ele>
        <time>2022-05-28T12:21:19Z</time>
      </trkpt>
      <trkpt lat="49.86487" lon="2.38674">
        <ele>68.5</ele>
        <time>2022-05-28T12:21:20Z</time>
      </trkpt>
      <trkpt lat="49.86486" lon="2.38676">
        <ele>68.6</ele>
        <time>2022-05-28T12:21:21Z</time>
      </trkpt>
      <trkpt lat="49.86486" lon="2.38677">
        <ele>68.6</ele>
        <time>2022-05-28T12:21:22Z</time>
      </trkpt>
      <trkpt lat="49.86486" lon="2.38678">
        <ele>68.6</ele>
        <time>2022-05-28T12:21:23Z</time>
      </trkpt>
      <trkpt lat="49.86486" lon="2.38679">
        <ele>68.6</ele>
        <time>2022-05-28T12:21:24Z</time>
      </trkpt>
      <trkpt lat="49.86486" lon="2.3868">
        <ele>68.6</ele>
        <time>2022-05-28T12:21:25Z</time>
      </trkpt>
      <trkpt lat="49.86486" lon="2.38681">
        <ele>68.6</ele>
        <time>2022-05-28T12:21:26Z</time>
      </trkpt>
      <trkpt lat="49.86486" lon="2.38683">
        <ele>68.6</ele>
        <time>2022-05-28T12:21:27Z</time>
      </trkpt>
      <trkpt lat="49.86486" lon="2.38685">
        <ele>68.7</ele>
        <time>2022-05-28T12:21:28Z</time>
      </trkpt>
      <trkpt lat="49.86486" lon="2.38686">
        <ele>68.7</ele>
        <time>2022-05-28T12:21:29Z</time>
      </trkpt>
      <trkpt lat="49.86486" lon="2.38687">
        <ele>68.7</ele>
        <time>2022-05-28T12:21:30Z</time>
      </trkpt>
      <trkpt lat="49.86486" lon="2.38688">
        <ele>68.7</ele>
        <time>2022-05-28T12:21:31Z</time>
      </trkpt>
      <trkpt lat="49.86486" lon="2.3869">
        <ele>68.7</ele>
        <time>2022-05-28T12:21:32Z</time>
      </trkpt>
      <trkpt lat="49.86486" lon="2.38692">
        <ele>68.7</ele>
        <time>2022-05-28T12:21:33Z</time>
      </trkpt>
      <trkpt lat="49.86486" lon="2.38693">
        <ele>68.7</ele>
        <time>2022-05-28T12:21:34Z</time>
      </trkpt>
      <trkpt lat="49.86485" lon="2.38696">
        <ele>68.7</ele>
        <time>2022-05-28T12:21:35Z</time>
      </trkpt>
      <trkpt lat="49.86485" lon="2.38698">
        <ele>68.7</ele>
        <time>2022-05-28T12:21:36Z</time>
      </trkpt>
      <trkpt lat="49.86485" lon="2.38699">
        <ele>68.7</ele>
        <time>2022-05-28T12:21:37Z</time>
      </trkpt>
      <trkpt lat="49.86485" lon="2.387">
        <ele>68.7</ele>
        <time>2022-05-28T12:21:38Z</time>
      </trkpt>
      <trkpt lat="49.86485" lon="2.38702">
        <ele>68.7</ele>
        <time>2022-05-28T12:21:39Z</time>
      </trkpt>
      <trkpt lat="49.86485" lon="2.38704">
        <ele>68.7</ele>
        <time>2022-05-28T12:21:40Z</time>
      </trkpt>
      <trkpt lat="49.86485" lon="2.38705">
        <ele>68.7</ele>
        <time>2022-05-28T12:21:41Z</time>
      </trkpt>
      <trkpt lat="49.86485" lon="2.38706">
        <ele>68.7</ele>
        <time>2022-05-28T12:21:42Z</time>
      </trkpt>
      <trkpt lat="49.86485" lon="2.38707">
        <ele>68.7</ele>
        <time>2022-05-28T12:21:43Z</time>
      </trkpt>
      <trkpt lat="49.86485" lon="2.38709">
        <ele>68.7</ele>
        <time>2022-05-28T12:21:44Z</time>
      </trkpt>
      <trkpt lat="49.86485" lon="2.38712">
        <ele>68.7</ele>
        <time>2022-05-28T12:21:45Z</time>
      </trkpt>
      <trkpt lat="49.86485" lon="2.38713">
        <ele>68.7</ele>
        <time>2022-05-28T12:21:46Z</time>
      </trkpt>
      <trkpt lat="49.86485" lon="2.38715">
        <ele>68.7</ele>
        <time>2022-05-28T12:21:47Z</time>
      </trkpt>
      <trkpt lat="49.86485" lon="2.38716">
        <ele>68.7</ele>
        <time>2022-05-28T12:21:48Z</time>
      </trkpt>
      <trkpt lat="49.86485" lon="2.38717">
        <ele>68.7</ele>
        <time>2022-05-28T12:21:49Z</time>
      </trkpt>
      <trkpt lat="49.86485" lon="2.38718">
        <ele>68.7</ele>
        <time>2022-05-28T12:21:50Z</time>
      </trkpt>
      <trkpt lat="49.86485" lon="2.3872">
        <ele>68.7</ele>
        <time>2022-05-28T12:21:51Z</time>
      </trkpt>
      <trkpt lat="49.86485" lon="2.38722">
        <ele>68.7</ele>
        <time>2022-05-28T12:21:52Z</time>
      </trkpt>
      <trkpt lat="49.86485" lon="2.38723">
        <ele>68.7</ele>
        <time>2022-05-28T12:21:53Z</time>
      </trkpt>
      <trkpt lat="49.86485" lon="2.38724">
        <ele>68.7</ele>
        <time>2022-05-28T12:21:54Z</time>
      </trkpt>
      <trkpt lat="49.86485" lon="2.38727">
        <ele>68.7</ele>
        <time>2022-05-28T12:21:55Z</time>
      </trkpt>
      <trkpt lat="49.86485" lon="2.38728">
        <ele>68.7</ele>
        <time>2022-05-28T12:21:56Z</time>
      </trkpt>
      <trkpt lat="49.86485" lon="2.38729">
        <ele>68.7</ele>
        <time>2022-05-28T12:21:57Z</time>
      </trkpt>
      <trkpt lat="49.86485" lon="2.3873">
        <ele>68.7</ele>
        <time>2022-05-28T12:21:58Z</time>
      </trkpt>
      <trkpt lat="49.86485" lon="2.38732">
        <ele>68.7</ele>
        <time>2022-05-28T12:21:59Z</time>
      </trkpt>
      <trkpt lat="49.86485" lon="2.38733">
        <ele>68.6</ele>
        <time>2022-05-28T12:22:00Z</time>
      </trkpt>
      <trkpt lat="49.86485" lon="2.38735">
        <ele>68.6</ele>
        <time>2022-05-28T12:22:01Z</time>
      </trkpt>
      <trkpt lat="49.86485" lon="2.38736">
        <ele>68.6</ele>
        <time>2022-05-28T12:22:02Z</time>
      </trkpt>
      <trkpt lat="49.86485" lon="2.38738">
        <ele>68.6</ele>
        <time>2022-05-28T12:22:03Z</time>
      </trkpt>
      <trkpt lat="49.86485" lon="2.38739">
        <ele>68.6</ele>
        <time>2022-05-28T12:22:04Z</time>
      </trkpt>
      <trkpt lat="49.86485" lon="2.38742">
        <ele>68.6</ele>
        <time>2022-05-28T12:22:05Z</time>
      </trkpt>
      <trkpt lat="49.86485" lon="2.38744">
        <ele>68.6</ele>
        <time>2022-05-28T12:22:06Z</time>
      </trkpt>
      <trkpt lat="49.86485" lon="2.38747">
        <ele>68.6</ele>
        <time>2022-05-28T12:22:07Z</time>
      </trkpt>
      <trkpt lat="49.86485" lon="2.38748">
        <ele>68.6</ele>
        <time>2022-05-28T12:22:08Z</time>
      </trkpt>
      <trkpt lat="49.86485" lon="2.3875">
        <ele>68.6</ele>
        <time>2022-05-28T12:22:09Z</time>
      </trkpt>
      <trkpt lat="49.86485" lon="2.38753">
        <ele>68.6</ele>
        <time>2022-05-28T12:22:10Z</time>
      </trkpt>
      <trkpt lat="49.86485" lon="2.38754">
        <ele>68.5</ele>
        <time>2022-05-28T12:22:11Z</time>
      </trkpt>
      <trkpt lat="49.86485" lon="2.38756">
        <ele>68.5</ele>
        <time>2022-05-28T12:22:12Z</time>
      </trkpt>
      <trkpt lat="49.86485" lon="2.38756">
        <ele>68.5</ele>
        <time>2022-05-28T12:22:13Z</time>
      </trkpt>
      <trkpt lat="49.86485" lon="2.38757">
        <ele>68.5</ele>
        <time>2022-05-28T12:22:14Z</time>
      </trkpt>
      <trkpt lat="49.86485" lon="2.38759">
        <ele>68.5</ele>
        <time>2022-05-28T12:22:15Z</time>
      </trkpt>
      <trkpt lat="49.86485" lon="2.3876">
        <ele>68.5</ele>
        <time>2022-05-28T12:22:16Z</time>
      </trkpt>
      <trkpt lat="49.86485" lon="2.38762">
        <ele>68.5</ele>
        <time>2022-05-28T12:22:17Z</time>
      </trkpt>
      <trkpt lat="49.86485" lon="2.38763">
        <ele>68.5</ele>
        <time>2022-05-28T12:22:18Z</time>
      </trkpt>
      <trkpt lat="49.86485" lon="2.38765">
        <ele>68.5</ele>
        <time>2022-05-28T12:22:19Z</time>
      </trkpt>
      <trkpt lat="49.86485" lon="2.38766">
        <ele>68.5</ele>
        <time>2022-05-28T12:22:20Z</time>
      </trkpt>
      <trkpt lat="49.86485" lon="2.38767">
        <ele>68.5</ele>
        <time>2022-05-28T12:22:21Z</time>
      </trkpt>
      <trkpt lat="49.86486" lon="2.3877">
        <ele>68.5</ele>
        <time>2022-05-28T12:22:22Z</time>
      </trkpt>
      <trkpt lat="49.86486" lon="2.3877">
        <ele>68.5</ele>
        <time>2022-05-28T12:22:23Z</time>
      </trkpt>
      <trkpt lat="49.86486" lon="2.38772">
        <ele>68.5</ele>
        <time>2022-05-28T12:22:24Z</time>
      </trkpt>
      <trkpt lat="49.86486" lon="2.38773">
        <ele>68.5</ele>
        <time>2022-05-28T12:22:25Z</time>
      </trkpt>
      <trkpt lat="49.86486" lon="2.38775">
        <ele>68.5</ele>
        <time>2022-05-28T12:22:26Z</time>
      </trkpt>
      <trkpt lat="49.86486" lon="2.38777">
        <ele>68.4</ele>
        <time>2022-05-28T12:22:27Z</time>
      </trkpt>
      <trkpt lat="49.86486" lon="2.38778">
        <ele>68.4</ele>
        <time>2022-05-28T12:22:28Z</time>
      </trkpt>
      <trkpt lat="49.86486" lon="2.3878">
        <ele>68.4</ele>
        <time>2022-05-28T12:22:29Z</time>
      </trkpt>
      <trkpt lat="49.86486" lon="2.38781">
        <ele>68.4</ele>
        <time>2022-05-28T12:22:30Z</time>
      </trkpt>
      <trkpt lat="49.86486" lon="2.38782">
        <ele>68.4</ele>
        <time>2022-05-28T12:22:31Z</time>
      </trkpt>
      <trkpt lat="49.86486" lon="2.38785">
        <ele>68.4</ele>
        <time>2022-05-28T12:22:32Z</time>
      </trkpt>
      <trkpt lat="49.86486" lon="2.38785">
        <ele>68.4</ele>
        <time>2022-05-28T12:22:33Z</time>
      </trkpt>
      <trkpt lat="49.86486" lon="2.38787">
        <ele>68.4</ele>
        <time>2022-05-28T12:22:34Z</time>
      </trkpt>
      <trkpt lat="49.86486" lon="2.38788">
        <ele>68.4</ele>
        <time>2022-05-28T12:22:35Z</time>
      </trkpt>
      <trkpt lat="49.86486" lon="2.3879">
        <ele>68.4</ele>
        <time>2022-05-28T12:22:36Z</time>
      </trkpt>
      <trkpt lat="49.86486" lon="2.38791">
        <ele>68.4</ele>
        <time>2022-05-28T12:22:37Z</time>
      </trkpt>
      <trkpt lat="49.86486" lon="2.38792">
        <ele>68.4</ele>
        <time>2022-05-28T12:22:38Z</time>
      </trkpt>
      <trkpt lat="49.86486" lon="2.38793">
        <ele>68.4</ele>
        <time>2022-05-28T12:22:39Z</time>
      </trkpt>
      <trkpt lat="49.86486" lon="2.38795">
        <ele>68.4</ele>
        <time>2022-05-28T12:22:40Z</time>
      </trkpt>
      <trkpt lat="49.86486" lon="2.38796">
        <ele>68.4</ele>
        <time>2022-05-28T12:22:41Z</time>
      </trkpt>
      <trkpt lat="49.86486" lon="2.38799">
        <ele>68.4</ele>
        <time>2022-05-28T12:22:42Z</time>
      </trkpt>
      <trkpt lat="49.86485" lon="2.388">
        <ele>68.4</ele>
        <time>2022-05-28T12:22:43Z</time>
      </trkpt>
      <trkpt lat="49.86486" lon="2.38802">
        <ele>68.4</ele>
        <time>2022-05-28T12:22:44Z</time>
      </trkpt>
      <trkpt lat="49.86486" lon="2.38803">
        <ele>68.4</ele>
        <time>2022-05-28T12:22:45Z</time>
      </trkpt>
      <trkpt lat="49.86485" lon="2.38804">
        <ele>68.4</ele>
        <time>2022-05-28T12:22:46Z</time>
      </trkpt>
      <trkpt lat="49.86485" lon="2.38806">
        <ele>68.4</ele>
        <time>2022-05-28T12:22:47Z</time>
      </trkpt>
      <trkpt lat="49.86485" lon="2.38807">
        <ele>68.4</ele>
        <time>2022-05-28T12:22:48Z</time>
      </trkpt>
      <trkpt lat="49.86485" lon="2.38809">
        <ele>68.4</ele>
        <time>2022-05-28T12:22:49Z</time>
      </trkpt>
      <trkpt lat="49.86485" lon="2.3881">
        <ele>68.4</ele>
        <time>2022-05-28T12:22:50Z</time>
      </trkpt>
      <trkpt lat="49.86485" lon="2.38812">
        <ele>68.4</ele>
        <time>2022-05-28T12:22:51Z</time>
      </trkpt>
      <trkpt lat="49.86485" lon="2.38814">
        <ele>68.4</ele>
        <time>2022-05-28T12:22:52Z</time>
      </trkpt>
      <trkpt lat="49.86485" lon="2.38815">
        <ele>68.4</ele>
        <time>2022-05-28T12:22:53Z</time>
      </trkpt>
      <trkpt lat="49.86485" lon="2.38817">
        <ele>68.4</ele>
        <time>2022-05-28T12:22:54Z</time>
      </trkpt>
      <trkpt lat="49.86485" lon="2.38818">
        <ele>68.4</ele>
        <time>2022-05-28T12:22:55Z</time>
      </trkpt>
      <trkpt lat="49.86485" lon="2.3882">
        <ele>68.4</ele>
        <time>2022-05-28T12:22:56Z</time>
      </trkpt>
      <trkpt lat="49.86485" lon="2.38823">
        <ele>68.4</ele>
        <time>2022-05-28T12:22:57Z</time>
      </trkpt>
      <trkpt lat="49.86485" lon="2.38823">
        <ele>68.4</ele>
        <time>2022-05-28T12:22:58Z</time>
      </trkpt>
      <trkpt lat="49.86485" lon="2.38825">
        <ele>68.4</ele>
        <time>2022-05-28T12:22:59Z</time>
      </trkpt>
      <trkpt lat="49.86485" lon="2.38828">
        <ele>68.4</ele>
        <time>2022-05-28T12:23:00Z</time>
      </trkpt>
      <trkpt lat="49.86485" lon="2.38829">
        <ele>68.4</ele>
        <time>2022-05-28T12:23:01Z</time>
      </trkpt>
      <trkpt lat="49.86485" lon="2.38831">
        <ele>68.4</ele>
        <time>2022-05-28T12:23:02Z</time>
      </trkpt>
      <trkpt lat="49.86486" lon="2.38833">
        <ele>68.4</ele>
        <time>2022-05-28T12:23:03Z</time>
      </trkpt>
      <trkpt lat="49.86486" lon="2.38835">
        <ele>68.4</ele>
        <time>2022-05-28T12:23:04Z</time>
      </trkpt>
      <trkpt lat="49.86486" lon="2.38837">
        <ele>68.4</ele>
        <time>2022-05-28T12:23:05Z</time>
      </trkpt>
      <trkpt lat="49.86486" lon="2.38839">
        <ele>68.3</ele>
        <time>2022-05-28T12:23:06Z</time>
      </trkpt>
      <trkpt lat="49.86486" lon="2.38843">
        <ele>68.3</ele>
        <time>2022-05-28T12:23:07Z</time>
      </trkpt>
      <trkpt lat="49.86486" lon="2.38844">
        <ele>68.3</ele>
        <time>2022-05-28T12:23:08Z</time>
      </trkpt>
      <trkpt lat="49.86486" lon="2.38845">
        <ele>68.3</ele>
        <time>2022-05-28T12:23:09Z</time>
      </trkpt>
      <trkpt lat="49.86486" lon="2.38846">
        <ele>68.3</ele>
        <time>2022-05-28T12:23:10Z</time>
      </trkpt>
      <trkpt lat="49.86486" lon="2.38847">
        <ele>68.3</ele>
        <time>2022-05-28T12:23:11Z</time>
      </trkpt>
      <trkpt lat="49.86486" lon="2.38849">
        <ele>68.3</ele>
        <time>2022-05-28T12:23:12Z</time>
      </trkpt>
      <trkpt lat="49.86486" lon="2.38849">
        <ele>68.3</ele>
        <time>2022-05-28T12:23:13Z</time>
      </trkpt>
      <trkpt lat="49.86486" lon="2.3885">
        <ele>68.3</ele>
        <time>2022-05-28T12:23:14Z</time>
      </trkpt>
      <trkpt lat="49.86486" lon="2.38851">
        <ele>68.3</ele>
        <time>2022-05-28T12:23:15Z</time>
      </trkpt>
      <trkpt lat="49.86486" lon="2.38852">
        <ele>68.3</ele>
        <time>2022-05-28T12:23:16Z</time>
      </trkpt>
      <trkpt lat="49.86486" lon="2.38853">
        <ele>68.3</ele>
        <time>2022-05-28T12:23:17Z</time>
      </trkpt>
      <trkpt lat="49.86486" lon="2.38854">
        <ele>68.3</ele>
        <time>2022-05-28T12:23:18Z</time>
      </trkpt>
      <trkpt lat="49.86486" lon="2.38856">
        <ele>68.3</ele>
        <time>2022-05-28T12:23:19Z</time>
      </trkpt>
      <trkpt lat="49.86486" lon="2.38857">
        <ele>68.3</ele>
        <time>2022-05-28T12:23:20Z</time>
      </trkpt>
      <trkpt lat="49.86486" lon="2.38858">
        <ele>68.3</ele>
        <time>2022-05-28T12:23:21Z</time>
      </trkpt>
      <trkpt lat="49.86486" lon="2.3886">
        <ele>68.3</ele>
        <time>2022-05-28T12:23:22Z</time>
      </trkpt>
      <trkpt lat="49.86485" lon="2.3886">
        <ele>68.3</ele>
        <time>2022-05-28T12:23:23Z</time>
      </trkpt>
      <trkpt lat="49.86485" lon="2.38862">
        <ele>68.3</ele>
        <time>2022-05-28T12:23:24Z</time>
      </trkpt>
      <trkpt lat="49.86485" lon="2.38863">
        <ele>68.3</ele>
        <time>2022-05-28T12:23:25Z</time>
      </trkpt>
      <trkpt lat="49.86485" lon="2.38865">
        <ele>68.3</ele>
        <time>2022-05-28T12:23:26Z</time>
      </trkpt>
      <trkpt lat="49.86485" lon="2.38867">
        <ele>68.3</ele>
        <time>2022-05-28T12:23:27Z</time>
      </trkpt>
      <trkpt lat="49.86485" lon="2.38869">
        <ele>68.3</ele>
        <time>2022-05-28T12:23:28Z</time>
      </trkpt>
      <trkpt lat="49.86485" lon="2.3887">
        <ele>68.3</ele>
        <time>2022-05-28T12:23:29Z</time>
      </trkpt>
      <trkpt lat="49.86485" lon="2.38871">
        <ele>68.3</ele>
        <time>2022-05-28T12:23:30Z</time>
      </trkpt>
      <trkpt lat="49.86485" lon="2.38872">
        <ele>68.3</ele>
        <time>2022-05-28T12:23:31Z</time>
      </trkpt>
      <trkpt lat="49.86485" lon="2.38873">
        <ele>68.3</ele>
        <time>2022-05-28T12:23:32Z</time>
      </trkpt>
      <trkpt lat="49.86485" lon="2.38875">
        <ele>68.3</ele>
        <time>2022-05-28T12:23:33Z</time>
      </trkpt>
      <trkpt lat="49.86484" lon="2.38876">
        <ele>68.3</ele>
        <time>2022-05-28T12:23:34Z</time>
      </trkpt>
      <trkpt lat="49.86484" lon="2.38877">
        <ele>68.3</ele>
        <time>2022-05-28T12:23:35Z</time>
      </trkpt>
      <trkpt lat="49.86485" lon="2.38878">
        <ele>68.3</ele>
        <time>2022-05-28T12:23:36Z</time>
      </trkpt>
      <trkpt lat="49.86485" lon="2.38879">
        <ele>68.2</ele>
        <time>2022-05-28T12:23:37Z</time>
      </trkpt>
      <trkpt lat="49.86485" lon="2.38881">
        <ele>68.2</ele>
        <time>2022-05-28T12:23:38Z</time>
      </trkpt>
      <trkpt lat="49.86485" lon="2.38882">
        <ele>68.2</ele>
        <time>2022-05-28T12:23:39Z</time>
      </trkpt>
      <trkpt lat="49.86485" lon="2.38884">
        <ele>68.2</ele>
        <time>2022-05-28T12:23:40Z</time>
      </trkpt>
      <trkpt lat="49.86485" lon="2.38887">
        <ele>68.2</ele>
        <time>2022-05-28T12:23:41Z</time>
      </trkpt>
      <trkpt lat="49.86485" lon="2.38888">
        <ele>68.1</ele>
        <time>2022-05-28T12:23:42Z</time>
      </trkpt>
      <trkpt lat="49.86485" lon="2.38889">
        <ele>68.1</ele>
        <time>2022-05-28T12:23:43Z</time>
      </trkpt>
      <trkpt lat="49.86485" lon="2.38891">
        <ele>68.1</ele>
        <time>2022-05-28T12:23:44Z</time>
      </trkpt>
      <trkpt lat="49.86485" lon="2.38893">
        <ele>68.1</ele>
        <time>2022-05-28T12:23:45Z</time>
      </trkpt>
      <trkpt lat="49.86485" lon="2.38894">
        <ele>68.1</ele>
        <time>2022-05-28T12:23:46Z</time>
      </trkpt>
      <trkpt lat="49.86485" lon="2.38896">
        <ele>68</ele>
        <time>2022-05-28T12:23:47Z</time>
      </trkpt>
      <trkpt lat="49.86485" lon="2.38898">
        <ele>68</ele>
        <time>2022-05-28T12:23:48Z</time>
      </trkpt>
      <trkpt lat="49.86485" lon="2.38899">
        <ele>68</ele>
        <time>2022-05-28T12:23:49Z</time>
      </trkpt>
      <trkpt lat="49.86485" lon="2.38901">
        <ele>68</ele>
        <time>2022-05-28T12:23:50Z</time>
      </trkpt>
      <trkpt lat="49.86485" lon="2.38902">
        <ele>68</ele>
        <time>2022-05-28T12:23:51Z</time>
      </trkpt>
      <trkpt lat="49.86485" lon="2.38904">
        <ele>67.9</ele>
        <time>2022-05-28T12:23:52Z</time>
      </trkpt>
      <trkpt lat="49.86485" lon="2.38906">
        <ele>67.9</ele>
        <time>2022-05-28T12:23:53Z</time>
      </trkpt>
      <trkpt lat="49.86485" lon="2.38907">
        <ele>67.9</ele>
        <time>2022-05-28T12:23:54Z</time>
      </trkpt>
      <trkpt lat="49.86485" lon="2.38908">
        <ele>67.9</ele>
        <time>2022-05-28T12:23:55Z</time>
      </trkpt>
      <trkpt lat="49.86485" lon="2.3891">
        <ele>67.9</ele>
        <time>2022-05-28T12:23:56Z</time>
      </trkpt>
      <trkpt lat="49.86486" lon="2.38911">
        <ele>67.8</ele>
        <time>2022-05-28T12:23:57Z</time>
      </trkpt>
      <trkpt lat="49.86486" lon="2.38913">
        <ele>67.8</ele>
        <time>2022-05-28T12:23:58Z</time>
      </trkpt>
      <trkpt lat="49.86486" lon="2.38914">
        <ele>67.8</ele>
        <time>2022-05-28T12:23:59Z</time>
      </trkpt>
      <trkpt lat="49.86487" lon="2.38916">
        <ele>67.8</ele>
        <time>2022-05-28T12:24:00Z</time>
      </trkpt>
      <trkpt lat="49.86487" lon="2.38917">
        <ele>67.8</ele>
        <time>2022-05-28T12:24:01Z</time>
      </trkpt>
      <trkpt lat="49.86488" lon="2.38919">
        <ele>67.8</ele>
        <time>2022-05-28T12:24:02Z</time>
      </trkpt>
      <trkpt lat="49.86488" lon="2.3892">
        <ele>67.8</ele>
        <time>2022-05-28T12:24:03Z</time>
      </trkpt>
      <trkpt lat="49.86488" lon="2.38921">
        <ele>67.8</ele>
        <time>2022-05-28T12:24:04Z</time>
      </trkpt>
      <trkpt lat="49.86489" lon="2.38922">
        <ele>67.8</ele>
        <time>2022-05-28T12:24:05Z</time>
      </trkpt>
      <trkpt lat="49.86489" lon="2.38922">
        <ele>67.8</ele>
        <time>2022-05-28T12:24:06Z</time>
      </trkpt>
      <trkpt lat="49.86489" lon="2.38922">
        <ele>67.8</ele>
        <time>2022-05-28T12:24:07Z</time>
      </trkpt>
      <trkpt lat="49.8649" lon="2.38922">
        <ele>67.7</ele>
        <time>2022-05-28T12:24:08Z</time>
      </trkpt>
      <trkpt lat="49.86489" lon="2.38922">
        <ele>67.7</ele>
        <time>2022-05-28T12:24:09Z</time>
      </trkpt>
      <trkpt lat="49.86489" lon="2.38922">
        <ele>67.7</ele>
        <time>2022-05-28T12:24:10Z</time>
      </trkpt>
      <trkpt lat="49.86489" lon="2.38922">
        <ele>67.7</ele>
        <time>2022-05-28T12:24:11Z</time>
      </trkpt>
      <trkpt lat="49.86489" lon="2.38923">
        <ele>67.7</ele>
        <time>2022-05-28T12:24:12Z</time>
      </trkpt>
      <trkpt lat="49.86489" lon="2.38925">
        <ele>67.7</ele>
        <time>2022-05-28T12:24:13Z</time>
      </trkpt>
      <trkpt lat="49.86489" lon="2.38926">
        <ele>67.7</ele>
        <time>2022-05-28T12:24:14Z</time>
      </trkpt>
      <trkpt lat="49.86489" lon="2.38927">
        <ele>67.7</ele>
        <time>2022-05-28T12:24:15Z</time>
      </trkpt>
      <trkpt lat="49.8649" lon="2.38928">
        <ele>67.7</ele>
        <time>2022-05-28T12:24:16Z</time>
      </trkpt>
      <trkpt lat="49.8649" lon="2.3893">
        <ele>67.7</ele>
        <time>2022-05-28T12:24:17Z</time>
      </trkpt>
      <trkpt lat="49.8649" lon="2.38932">
        <ele>67.7</ele>
        <time>2022-05-28T12:24:18Z</time>
      </trkpt>
      <trkpt lat="49.86491" lon="2.38933">
        <ele>67.7</ele>
        <time>2022-05-28T12:24:19Z</time>
      </trkpt>
      <trkpt lat="49.86491" lon="2.38934">
        <ele>67.7</ele>
        <time>2022-05-28T12:24:20Z</time>
      </trkpt>
      <trkpt lat="49.86491" lon="2.38935">
        <ele>67.7</ele>
        <time>2022-05-28T12:24:21Z</time>
      </trkpt>
      <trkpt lat="49.86491" lon="2.38936">
        <ele>67.7</ele>
        <time>2022-05-28T12:24:22Z</time>
      </trkpt>
      <trkpt lat="49.86491" lon="2.38936">
        <ele>67.7</ele>
        <time>2022-05-28T12:24:23Z</time>
      </trkpt>
      <trkpt lat="49.86491" lon="2.38937">
        <ele>67.7</ele>
        <time>2022-05-28T12:24:24Z</time>
      </trkpt>
      <trkpt lat="49.86492" lon="2.38939">
        <ele>67.7</ele>
        <time>2022-05-28T12:24:25Z</time>
      </trkpt>
      <trkpt lat="49.86492" lon="2.3894">
        <ele>67.6</ele>
        <time>2022-05-28T12:24:26Z</time>
      </trkpt>
      <trkpt lat="49.86492" lon="2.38941">
        <ele>67.6</ele>
        <time>2022-05-28T12:24:27Z</time>
      </trkpt>
      <trkpt lat="49.86492" lon="2.38944">
        <ele>67.6</ele>
        <time>2022-05-28T12:24:28Z</time>
      </trkpt>
      <trkpt lat="49.86493" lon="2.38944">
        <ele>67.6</ele>
        <time>2022-05-28T12:24:29Z</time>
      </trkpt>
      <trkpt lat="49.86493" lon="2.38946">
        <ele>67.6</ele>
        <time>2022-05-28T12:24:30Z</time>
      </trkpt>
      <trkpt lat="49.86493" lon="2.38947">
        <ele>67.6</ele>
        <time>2022-05-28T12:24:31Z</time>
      </trkpt>
      <trkpt lat="49.86493" lon="2.38949">
        <ele>67.6</ele>
        <time>2022-05-28T12:24:32Z</time>
      </trkpt>
      <trkpt lat="49.86493" lon="2.3895">
        <ele>67.5</ele>
        <time>2022-05-28T12:24:33Z</time>
      </trkpt>
      <trkpt lat="49.86493" lon="2.38951">
        <ele>67.5</ele>
        <time>2022-05-28T12:24:34Z</time>
      </trkpt>
      <trkpt lat="49.86493" lon="2.38953">
        <ele>67.5</ele>
        <time>2022-05-28T12:24:35Z</time>
      </trkpt>
      <trkpt lat="49.86494" lon="2.38955">
        <ele>67.5</ele>
        <time>2022-05-28T12:24:36Z</time>
      </trkpt>
      <trkpt lat="49.86494" lon="2.38957">
        <ele>67.5</ele>
        <time>2022-05-28T12:24:37Z</time>
      </trkpt>
      <trkpt lat="49.86494" lon="2.38958">
        <ele>67.5</ele>
        <time>2022-05-28T12:24:38Z</time>
      </trkpt>
      <trkpt lat="49.86494" lon="2.38959">
        <ele>67.4</ele>
        <time>2022-05-28T12:24:39Z</time>
      </trkpt>
      <trkpt lat="49.86494" lon="2.38961">
        <ele>67.4</ele>
        <time>2022-05-28T12:24:40Z</time>
      </trkpt>
      <trkpt lat="49.86495" lon="2.38962">
        <ele>67.4</ele>
        <time>2022-05-28T12:24:41Z</time>
      </trkpt>
      <trkpt lat="49.86495" lon="2.38963">
        <ele>67.4</ele>
        <time>2022-05-28T12:24:42Z</time>
      </trkpt>
      <trkpt lat="49.86495" lon="2.38965">
        <ele>67.4</ele>
        <time>2022-05-28T12:24:43Z</time>
      </trkpt>
      <trkpt lat="49.86496" lon="2.38967">
        <ele>67.4</ele>
        <time>2022-05-28T12:24:44Z</time>
      </trkpt>
      <trkpt lat="49.86496" lon="2.38969">
        <ele>67.4</ele>
        <time>2022-05-28T12:24:45Z</time>
      </trkpt>
      <trkpt lat="49.86497" lon="2.38971">
        <ele>67.4</ele>
        <time>2022-05-28T12:24:46Z</time>
      </trkpt>
      <trkpt lat="49.86497" lon="2.38973">
        <ele>67.3</ele>
        <time>2022-05-28T12:24:47Z</time>
      </trkpt>
      <trkpt lat="49.86498" lon="2.38975">
        <ele>67.3</ele>
        <time>2022-05-28T12:24:48Z</time>
      </trkpt>
      <trkpt lat="49.86499" lon="2.38977">
        <ele>67.3</ele>
        <time>2022-05-28T12:24:49Z</time>
      </trkpt>
      <trkpt lat="49.865" lon="2.38981">
        <ele>67.3</ele>
        <time>2022-05-28T12:24:50Z</time>
      </trkpt>
      <trkpt lat="49.865" lon="2.38982">
        <ele>67.3</ele>
        <time>2022-05-28T12:24:51Z</time>
      </trkpt>
      <trkpt lat="49.865" lon="2.38983">
        <ele>67.3</ele>
        <time>2022-05-28T12:24:52Z</time>
      </trkpt>
      <trkpt lat="49.86501" lon="2.38985">
        <ele>67.3</ele>
        <time>2022-05-28T12:24:53Z</time>
      </trkpt>
      <trkpt lat="49.86501" lon="2.38986">
        <ele>67.3</ele>
        <time>2022-05-28T12:24:54Z</time>
      </trkpt>
      <trkpt lat="49.86502" lon="2.38987">
        <ele>67.3</ele>
        <time>2022-05-28T12:24:55Z</time>
      </trkpt>
      <trkpt lat="49.86502" lon="2.38989">
        <ele>67.3</ele>
        <time>2022-05-28T12:24:56Z</time>
      </trkpt>
      <trkpt lat="49.86503" lon="2.3899">
        <ele>67.3</ele>
        <time>2022-05-28T12:24:57Z</time>
      </trkpt>
      <trkpt lat="49.86503" lon="2.38992">
        <ele>67.3</ele>
        <time>2022-05-28T12:24:58Z</time>
      </trkpt>
      <trkpt lat="49.86504" lon="2.38993">
        <ele>67.3</ele>
        <time>2022-05-28T12:24:59Z</time>
      </trkpt>
      <trkpt lat="49.86504" lon="2.38995">
        <ele>67.3</ele>
        <time>2022-05-28T12:25:00Z</time>
      </trkpt>
      <trkpt lat="49.86505" lon="2.38996">
        <ele>67.3</ele>
        <time>2022-05-28T12:25:01Z</time>
      </trkpt>
      <trkpt lat="49.86505" lon="2.38998">
        <ele>67.3</ele>
        <time>2022-05-28T12:25:02Z</time>
      </trkpt>
      <trkpt lat="49.86505" lon="2.38999">
        <ele>67.3</ele>
        <time>2022-05-28T12:25:03Z</time>
      </trkpt>
      <trkpt lat="49.86506" lon="2.39001">
        <ele>67.3</ele>
        <time>2022-05-28T12:25:04Z</time>
      </trkpt>
      <trkpt lat="49.86506" lon="2.39002">
        <ele>67.3</ele>
        <time>2022-05-28T12:25:05Z</time>
      </trkpt>
      <trkpt lat="49.86506" lon="2.39003">
        <ele>67.3</ele>
        <time>2022-05-28T12:25:06Z</time>
      </trkpt>
      <trkpt lat="49.86507" lon="2.39005">
        <ele>67.3</ele>
        <time>2022-05-28T12:25:07Z</time>
      </trkpt>
      <trkpt lat="49.86508" lon="2.39007">
        <ele>67.2</ele>
        <time>2022-05-28T12:25:08Z</time>
      </trkpt>
      <trkpt lat="49.86508" lon="2.39008">
        <ele>67.2</ele>
        <time>2022-05-28T12:25:09Z</time>
      </trkpt>
      <trkpt lat="49.86509" lon="2.39009">
        <ele>67.2</ele>
        <time>2022-05-28T12:25:10Z</time>
      </trkpt>
      <trkpt lat="49.86509" lon="2.3901">
        <ele>67.2</ele>
        <time>2022-05-28T12:25:11Z</time>
      </trkpt>
      <trkpt lat="49.86509" lon="2.39011">
        <ele>67.2</ele>
        <time>2022-05-28T12:25:12Z</time>
      </trkpt>
      <trkpt lat="49.8651" lon="2.39013">
        <ele>67.2</ele>
        <time>2022-05-28T12:25:13Z</time>
      </trkpt>
      <trkpt lat="49.8651" lon="2.39014">
        <ele>67.2</ele>
        <time>2022-05-28T12:25:14Z</time>
      </trkpt>
      <trkpt lat="49.86511" lon="2.39015">
        <ele>67.2</ele>
        <time>2022-05-28T12:25:15Z</time>
      </trkpt>
      <trkpt lat="49.86511" lon="2.39017">
        <ele>67.2</ele>
        <time>2022-05-28T12:25:16Z</time>
      </trkpt>
      <trkpt lat="49.86511" lon="2.39018">
        <ele>67.2</ele>
        <time>2022-05-28T12:25:17Z</time>
      </trkpt>
      <trkpt lat="49.86512" lon="2.39019">
        <ele>67.2</ele>
        <time>2022-05-28T12:25:18Z</time>
      </trkpt>
      <trkpt lat="49.86513" lon="2.39021">
        <ele>67.2</ele>
        <time>2022-05-28T12:25:19Z</time>
      </trkpt>
      <trkpt lat="49.86513" lon="2.39023">
        <ele>67.2</ele>
        <time>2022-05-28T12:25:20Z</time>
      </trkpt>
      <trkpt lat="49.86514" lon="2.39024">
        <ele>67.2</ele>
        <time>2022-05-28T12:25:21Z</time>
      </trkpt>
      <trkpt lat="49.86514" lon="2.39025">
        <ele>67.2</ele>
        <time>2022-05-28T12:25:22Z</time>
      </trkpt>
      <trkpt lat="49.86515" lon="2.39027">
        <ele>67.2</ele>
        <time>2022-05-28T12:25:23Z</time>
      </trkpt>
      <trkpt lat="49.86515" lon="2.39029">
        <ele>67.2</ele>
        <time>2022-05-28T12:25:24Z</time>
      </trkpt>
      <trkpt lat="49.86516" lon="2.3903">
        <ele>67.2</ele>
        <time>2022-05-28T12:25:25Z</time>
      </trkpt>
      <trkpt lat="49.86516" lon="2.39031">
        <ele>67.2</ele>
        <time>2022-05-28T12:25:26Z</time>
      </trkpt>
      <trkpt lat="49.86516" lon="2.39033">
        <ele>67.2</ele>
        <time>2022-05-28T12:25:27Z</time>
      </trkpt>
      <trkpt lat="49.86517" lon="2.39034">
        <ele>67.2</ele>
        <time>2022-05-28T12:25:28Z</time>
      </trkpt>
      <trkpt lat="49.86517" lon="2.39036">
        <ele>67.2</ele>
        <time>2022-05-28T12:25:29Z</time>
      </trkpt>
      <trkpt lat="49.86517" lon="2.39038">
        <ele>67.2</ele>
        <time>2022-05-28T12:25:30Z</time>
      </trkpt>
      <trkpt lat="49.86518" lon="2.39039">
        <ele>67.2</ele>
        <time>2022-05-28T12:25:31Z</time>
      </trkpt>
      <trkpt lat="49.86518" lon="2.3904">
        <ele>67.3</ele>
        <time>2022-05-28T12:25:32Z</time>
      </trkpt>
      <trkpt lat="49.86518" lon="2.39042">
        <ele>67.3</ele>
        <time>2022-05-28T12:25:33Z</time>
      </trkpt>
      <trkpt lat="49.86519" lon="2.39044">
        <ele>67.3</ele>
        <time>2022-05-28T12:25:34Z</time>
      </trkpt>
      <trkpt lat="49.86519" lon="2.39045">
        <ele>67.3</ele>
        <time>2022-05-28T12:25:35Z</time>
      </trkpt>
      <trkpt lat="49.86519" lon="2.39046">
        <ele>67.3</ele>
        <time>2022-05-28T12:25:36Z</time>
      </trkpt>
      <trkpt lat="49.86519" lon="2.39048">
        <ele>67.3</ele>
        <time>2022-05-28T12:25:37Z</time>
      </trkpt>
      <trkpt lat="49.8652" lon="2.39049">
        <ele>67.3</ele>
        <time>2022-05-28T12:25:38Z</time>
      </trkpt>
      <trkpt lat="49.8652" lon="2.39051">
        <ele>67.3</ele>
        <time>2022-05-28T12:25:39Z</time>
      </trkpt>
      <trkpt lat="49.8652" lon="2.39052">
        <ele>67.3</ele>
        <time>2022-05-28T12:25:40Z</time>
      </trkpt>
      <trkpt lat="49.86521" lon="2.39053">
        <ele>67.3</ele>
        <time>2022-05-28T12:25:41Z</time>
      </trkpt>
      <trkpt lat="49.86521" lon="2.39054">
        <ele>67.3</ele>
        <time>2022-05-28T12:25:42Z</time>
      </trkpt>
      <trkpt lat="49.86521" lon="2.39056">
        <ele>67.3</ele>
        <time>2022-05-28T12:25:43Z</time>
      </trkpt>
      <trkpt lat="49.86522" lon="2.39057">
        <ele>67.3</ele>
        <time>2022-05-28T12:25:44Z</time>
      </trkpt>
      <trkpt lat="49.86522" lon="2.39059">
        <ele>67.3</ele>
        <time>2022-05-28T12:25:45Z</time>
      </trkpt>
      <trkpt lat="49.86523" lon="2.3906">
        <ele>67.3</ele>
        <time>2022-05-28T12:25:46Z</time>
      </trkpt>
      <trkpt lat="49.86523" lon="2.39061">
        <ele>67.3</ele>
        <time>2022-05-28T12:25:47Z</time>
      </trkpt>
      <trkpt lat="49.86523" lon="2.39062">
        <ele>67.3</ele>
        <time>2022-05-28T12:25:48Z</time>
      </trkpt>
      <trkpt lat="49.86524" lon="2.39064">
        <ele>67.3</ele>
        <time>2022-05-28T12:25:49Z</time>
      </trkpt>
      <trkpt lat="49.86524" lon="2.39065">
        <ele>67.3</ele>
        <time>2022-05-28T12:25:50Z</time>
      </trkpt>
      <trkpt lat="49.86525" lon="2.39067">
        <ele>67.3</ele>
        <time>2022-05-28T12:25:51Z</time>
      </trkpt>
      <trkpt lat="49.86525" lon="2.39068">
        <ele>67.3</ele>
        <time>2022-05-28T12:25:52Z</time>
      </trkpt>
      <trkpt lat="49.86526" lon="2.39069">
        <ele>67.3</ele>
        <time>2022-05-28T12:25:53Z</time>
      </trkpt>
      <trkpt lat="49.86527" lon="2.39072">
        <ele>67.3</ele>
        <time>2022-05-28T12:25:54Z</time>
      </trkpt>
      <trkpt lat="49.86527" lon="2.39073">
        <ele>67.3</ele>
        <time>2022-05-28T12:25:55Z</time>
      </trkpt>
      <trkpt lat="49.86527" lon="2.39073">
        <ele>67.3</ele>
        <time>2022-05-28T12:25:56Z</time>
      </trkpt>
      <trkpt lat="49.86528" lon="2.39074">
        <ele>67.3</ele>
        <time>2022-05-28T12:25:57Z</time>
      </trkpt>
      <trkpt lat="49.86528" lon="2.39076">
        <ele>67.3</ele>
        <time>2022-05-28T12:25:58Z</time>
      </trkpt>
      <trkpt lat="49.86529" lon="2.39077">
        <ele>67.3</ele>
        <time>2022-05-28T12:25:59Z</time>
      </trkpt>
      <trkpt lat="49.86529" lon="2.39078">
        <ele>67.3</ele>
        <time>2022-05-28T12:26:00Z</time>
      </trkpt>
      <trkpt lat="49.8653" lon="2.39079">
        <ele>67.3</ele>
        <time>2022-05-28T12:26:01Z</time>
      </trkpt>
      <trkpt lat="49.8653" lon="2.39081">
        <ele>67.3</ele>
        <time>2022-05-28T12:26:02Z</time>
      </trkpt>
      <trkpt lat="49.8653" lon="2.39082">
        <ele>67.3</ele>
        <time>2022-05-28T12:26:03Z</time>
      </trkpt>
      <trkpt lat="49.86531" lon="2.39084">
        <ele>67.3</ele>
        <time>2022-05-28T12:26:04Z</time>
      </trkpt>
      <trkpt lat="49.86531" lon="2.39085">
        <ele>67.3</ele>
        <time>2022-05-28T12:26:05Z</time>
      </trkpt>
      <trkpt lat="49.86532" lon="2.39086">
        <ele>67.3</ele>
        <time>2022-05-28T12:26:06Z</time>
      </trkpt>
      <trkpt lat="49.86532" lon="2.39087">
        <ele>67.3</ele>
        <time>2022-05-28T12:26:07Z</time>
      </trkpt>
      <trkpt lat="49.86533" lon="2.39089">
        <ele>67.3</ele>
        <time>2022-05-28T12:26:08Z</time>
      </trkpt>
      <trkpt lat="49.86534" lon="2.3909">
        <ele>67.3</ele>
        <time>2022-05-28T12:26:09Z</time>
      </trkpt>
      <trkpt lat="49.86534" lon="2.39092">
        <ele>67.3</ele>
        <time>2022-05-28T12:26:10Z</time>
      </trkpt>
      <trkpt lat="49.86535" lon="2.39093">
        <ele>67.3</ele>
        <time>2022-05-28T12:26:11Z</time>
      </trkpt>
      <trkpt lat="49.86535" lon="2.39094">
        <ele>67.3</ele>
        <time>2022-05-28T12:26:12Z</time>
      </trkpt>
      <trkpt lat="49.86536" lon="2.39095">
        <ele>67.3</ele>
        <time>2022-05-28T12:26:13Z</time>
      </trkpt>
      <trkpt lat="49.86536" lon="2.39098">
        <ele>67.3</ele>
        <time>2022-05-28T12:26:14Z</time>
      </trkpt>
      <trkpt lat="49.86537" lon="2.39099">
        <ele>67.3</ele>
        <time>2022-05-28T12:26:15Z</time>
      </trkpt>
      <trkpt lat="49.86537" lon="2.39099">
        <ele>67.3</ele>
        <time>2022-05-28T12:26:16Z</time>
      </trkpt>
      <trkpt lat="49.86537" lon="2.391">
        <ele>67.2</ele>
        <time>2022-05-28T12:26:17Z</time>
      </trkpt>
      <trkpt lat="49.86537" lon="2.39102">
        <ele>67.2</ele>
        <time>2022-05-28T12:26:18Z</time>
      </trkpt>
      <trkpt lat="49.86538" lon="2.39103">
        <ele>67.2</ele>
        <time>2022-05-28T12:26:19Z</time>
      </trkpt>
      <trkpt lat="49.86538" lon="2.39105">
        <ele>67.2</ele>
        <time>2022-05-28T12:26:20Z</time>
      </trkpt>
      <trkpt lat="49.86539" lon="2.39107">
        <ele>67.2</ele>
        <time>2022-05-28T12:26:21Z</time>
      </trkpt>
      <trkpt lat="49.86539" lon="2.39108">
        <ele>67.2</ele>
        <time>2022-05-28T12:26:22Z</time>
      </trkpt>
      <trkpt lat="49.86539" lon="2.3911">
        <ele>67.2</ele>
        <time>2022-05-28T12:26:23Z</time>
      </trkpt>
      <trkpt lat="49.8654" lon="2.39111">
        <ele>67.2</ele>
        <time>2022-05-28T12:26:24Z</time>
      </trkpt>
      <trkpt lat="49.8654" lon="2.39113">
        <ele>67.2</ele>
        <time>2022-05-28T12:26:25Z</time>
      </trkpt>
      <trkpt lat="49.8654" lon="2.39114">
        <ele>67.2</ele>
        <time>2022-05-28T12:26:26Z</time>
      </trkpt>
      <trkpt lat="49.86541" lon="2.39115">
        <ele>67.2</ele>
        <time>2022-05-28T12:26:27Z</time>
      </trkpt>
      <trkpt lat="49.86541" lon="2.39117">
        <ele>67.2</ele>
        <time>2022-05-28T12:26:28Z</time>
      </trkpt>
      <trkpt lat="49.86541" lon="2.39118">
        <ele>67.2</ele>
        <time>2022-05-28T12:26:29Z</time>
      </trkpt>
      <trkpt lat="49.86541" lon="2.39119">
        <ele>67.2</ele>
        <time>2022-05-28T12:26:30Z</time>
      </trkpt>
      <trkpt lat="49.86542" lon="2.3912">
        <ele>67.2</ele>
        <time>2022-05-28T12:26:31Z</time>
      </trkpt>
      <trkpt lat="49.86542" lon="2.39122">
        <ele>67.2</ele>
        <time>2022-05-28T12:26:32Z</time>
      </trkpt>
      <trkpt lat="49.86542" lon="2.39123">
        <ele>67.2</ele>
        <time>2022-05-28T12:26:33Z</time>
      </trkpt>
      <trkpt lat="49.86542" lon="2.39124">
        <ele>67.2</ele>
        <time>2022-05-28T12:26:34Z</time>
      </trkpt>
      <trkpt lat="49.86542" lon="2.39126">
        <ele>67.2</ele>
        <time>2022-05-28T12:26:35Z</time>
      </trkpt>
      <trkpt lat="49.86542" lon="2.39127">
        <ele>67.2</ele>
        <time>2022-05-28T12:26:36Z</time>
      </trkpt>
      <trkpt lat="49.86542" lon="2.39128">
        <ele>67.2</ele>
        <time>2022-05-28T12:26:37Z</time>
      </trkpt>
      <trkpt lat="49.86542" lon="2.3913">
        <ele>67.2</ele>
        <time>2022-05-28T12:26:38Z</time>
      </trkpt>
      <trkpt lat="49.86541" lon="2.39131">
        <ele>67.2</ele>
        <time>2022-05-28T12:26:39Z</time>
      </trkpt>
      <trkpt lat="49.86541" lon="2.39132">
        <ele>67.2</ele>
        <time>2022-05-28T12:26:40Z</time>
      </trkpt>
      <trkpt lat="49.86541" lon="2.39133">
        <ele>67.2</ele>
        <time>2022-05-28T12:26:41Z</time>
      </trkpt>
      <trkpt lat="49.86541" lon="2.39135">
        <ele>67.2</ele>
        <time>2022-05-28T12:26:42Z</time>
      </trkpt>
      <trkpt lat="49.86541" lon="2.39136">
        <ele>67.2</ele>
        <time>2022-05-28T12:26:43Z</time>
      </trkpt>
      <trkpt lat="49.86541" lon="2.39137">
        <ele>67.2</ele>
        <time>2022-05-28T12:26:44Z</time>
      </trkpt>
      <trkpt lat="49.86541" lon="2.39139">
        <ele>67.2</ele>
        <time>2022-05-28T12:26:45Z</time>
      </trkpt>
      <trkpt lat="49.86542" lon="2.3914">
        <ele>67.2</ele>
        <time>2022-05-28T12:26:46Z</time>
      </trkpt>
      <trkpt lat="49.86542" lon="2.39141">
        <ele>67.2</ele>
        <time>2022-05-28T12:26:47Z</time>
      </trkpt>
      <trkpt lat="49.86543" lon="2.39141">
        <ele>67.2</ele>
        <time>2022-05-28T12:26:48Z</time>
      </trkpt>
      <trkpt lat="49.86543" lon="2.39142">
        <ele>67.2</ele>
        <time>2022-05-28T12:26:49Z</time>
      </trkpt>
      <trkpt lat="49.86543" lon="2.39142">
        <ele>67.2</ele>
        <time>2022-05-28T12:26:50Z</time>
      </trkpt>
      <trkpt lat="49.86543" lon="2.39142">
        <ele>67.2</ele>
        <time>2022-05-28T12:26:51Z</time>
      </trkpt>
      <trkpt lat="49.86543" lon="2.39142">
        <ele>67.2</ele>
        <time>2022-05-28T12:26:52Z</time>
      </trkpt>
      <trkpt lat="49.86543" lon="2.39142">
        <ele>67.2</ele>
        <time>2022-05-28T12:26:53Z</time>
      </trkpt>
      <trkpt lat="49.86543" lon="2.39142">
        <ele>67.2</ele>
        <time>2022-05-28T12:26:54Z</time>
      </trkpt>
      <trkpt lat="49.86543" lon="2.39142">
        <ele>67.2</ele>
        <time>2022-05-28T12:26:55Z</time>
      </trkpt>
      <trkpt lat="49.86543" lon="2.39142">
        <ele>67.2</ele>
        <time>2022-05-28T12:26:56Z</time>
      </trkpt>
      <trkpt lat="49.86543" lon="2.39141">
        <ele>67.2</ele>
        <time>2022-05-28T12:26:57Z</time>
      </trkpt>
      <trkpt lat="49.86543" lon="2.39141">
        <ele>67.2</ele>
        <time>2022-05-28T12:26:58Z</time>
      </trkpt>
      <trkpt lat="49.86543" lon="2.39141">
        <ele>67.2</ele>
        <time>2022-05-28T12:26:59Z</time>
      </trkpt>
      <trkpt lat="49.86543" lon="2.39141">
        <ele>67.2</ele>
        <time>2022-05-28T12:27:00Z</time>
      </trkpt>
      <trkpt lat="49.86543" lon="2.39141">
        <ele>67.2</ele>
        <time>2022-05-28T12:27:01Z</time>
      </trkpt>
      <trkpt lat="49.86543" lon="2.39141">
        <ele>67.2</ele>
        <time>2022-05-28T12:27:02Z</time>
      </trkpt>
      <trkpt lat="49.86543" lon="2.39141">
        <ele>67.2</ele>
        <time>2022-05-28T12:27:03Z</time>
      </trkpt>
      <trkpt lat="49.86543" lon="2.39141">
        <ele>67.2</ele>
        <time>2022-05-28T12:27:04Z</time>
      </trkpt>
      <trkpt lat="49.86543" lon="2.39141">
        <ele>67.2</ele>
        <time>2022-05-28T12:27:05Z</time>
      </trkpt>
      <trkpt lat="49.86543" lon="2.39141">
        <ele>67.2</ele>
        <time>2022-05-28T12:27:06Z</time>
      </trkpt>
      <trkpt lat="49.86543" lon="2.39141">
        <ele>67.2</ele>
        <time>2022-05-28T12:27:07Z</time>
      </trkpt>
      <trkpt lat="49.86543" lon="2.39141">
        <ele>67.2</ele>
        <time>2022-05-28T12:27:08Z</time>
      </trkpt>
      <trkpt lat="49.86543" lon="2.39141">
        <ele>67.2</ele>
        <time>2022-05-28T12:27:09Z</time>
      </trkpt>
      <trkpt lat="49.86543" lon="2.39141">
        <ele>67.2</ele>
        <time>2022-05-28T12:27:10Z</time>
      </trkpt>
      <trkpt lat="49.86543" lon="2.39141">
        <ele>67.1</ele>
        <time>2022-05-28T12:27:11Z</time>
      </trkpt>
      <trkpt lat="49.86543" lon="2.39141">
        <ele>67.1</ele>
        <time>2022-05-28T12:27:12Z</time>
      </trkpt>
      <trkpt lat="49.86543" lon="2.39141">
        <ele>67.1</ele>
        <time>2022-05-28T12:27:13Z</time>
      </trkpt>
      <trkpt lat="49.86543" lon="2.39141">
        <ele>67.1</ele>
        <time>2022-05-28T12:27:14Z</time>
      </trkpt>
      <trkpt lat="49.86543" lon="2.39141">
        <ele>67.1</ele>
        <time>2022-05-28T12:27:15Z</time>
      </trkpt>
      <trkpt lat="49.86543" lon="2.39141">
        <ele>67.1</ele>
        <time>2022-05-28T12:27:16Z</time>
      </trkpt>
      <trkpt lat="49.86543" lon="2.39141">
        <ele>67.1</ele>
        <time>2022-05-28T12:27:17Z</time>
      </trkpt>
      <trkpt lat="49.86543" lon="2.39141">
        <ele>67.1</ele>
        <time>2022-05-28T12:27:18Z</time>
      </trkpt>
      <trkpt lat="49.86543" lon="2.39141">
        <ele>67.1</ele>
        <time>2022-05-28T12:27:19Z</time>
      </trkpt>
      <trkpt lat="49.86543" lon="2.39141">
        <ele>67.1</ele>
        <time>2022-05-28T12:27:20Z</time>
      </trkpt>
      <trkpt lat="49.86543" lon="2.39141">
        <ele>67.1</ele>
        <time>2022-05-28T12:27:21Z</time>
      </trkpt>
      <trkpt lat="49.86543" lon="2.3914">
        <ele>67.1</ele>
        <time>2022-05-28T12:27:22Z</time>
      </trkpt>
      <trkpt lat="49.86543" lon="2.3914">
        <ele>67.1</ele>
        <time>2022-05-28T12:27:23Z</time>
      </trkpt>
      <trkpt lat="49.86543" lon="2.3914">
        <ele>67.1</ele>
        <time>2022-05-28T12:27:24Z</time>
      </trkpt>
      <trkpt lat="49.86543" lon="2.3914">
        <ele>67.1</ele>
        <time>2022-05-28T12:27:25Z</time>
      </trkpt>
      <trkpt lat="49.86543" lon="2.3914">
        <ele>67.1</ele>
        <time>2022-05-28T12:27:26Z</time>
      </trkpt>
      <trkpt lat="49.86543" lon="2.3914">
        <ele>67.1</ele>
        <time>2022-05-28T12:27:27Z</time>
      </trkpt>
      <trkpt lat="49.86543" lon="2.3914">
        <ele>67.1</ele>
        <time>2022-05-28T12:27:28Z</time>
      </trkpt>
      <trkpt lat="49.86543" lon="2.3914">
        <ele>67.1</ele>
        <time>2022-05-28T12:27:29Z</time>
      </trkpt>
      <trkpt lat="49.86543" lon="2.3914">
        <ele>67.1</ele>
        <time>2022-05-28T12:27:30Z</time>
      </trkpt>
      <trkpt lat="49.86543" lon="2.3914">
        <ele>67.1</ele>
        <time>2022-05-28T12:27:31Z</time>
      </trkpt>
      <trkpt lat="49.86543" lon="2.3914">
        <ele>67.1</ele>
        <time>2022-05-28T12:27:32Z</time>
      </trkpt>
      <trkpt lat="49.86543" lon="2.3914">
        <ele>67.1</ele>
        <time>2022-05-28T12:27:33Z</time>
      </trkpt>
      <trkpt lat="49.86542" lon="2.3914">
        <ele>67.1</ele>
        <time>2022-05-28T12:27:34Z</time>
      </trkpt>
      <trkpt lat="49.86542" lon="2.3914">
        <ele>67.1</ele>
        <time>2022-05-28T12:27:35Z</time>
      </trkpt>
      <trkpt lat="49.86542" lon="2.3914">
        <ele>67.1</ele>
        <time>2022-05-28T12:27:36Z</time>
      </trkpt>
      <trkpt lat="49.86542" lon="2.3914">
        <ele>67.1</ele>
        <time>2022-05-28T12:27:37Z</time>
      </trkpt>
      <trkpt lat="49.86542" lon="2.3914">
        <ele>67.1</ele>
        <time>2022-05-28T12:27:38Z</time>
      </trkpt>
      <trkpt lat="49.86542" lon="2.3914">
        <ele>67.1</ele>
        <time>2022-05-28T12:27:39Z</time>
      </trkpt>
      <trkpt lat="49.86542" lon="2.3914">
        <ele>67.1</ele>
        <time>2022-05-28T12:27:40Z</time>
      </trkpt>
      <trkpt lat="49.86542" lon="2.3914">
        <ele>67.1</ele>
        <time>2022-05-28T12:27:41Z</time>
      </trkpt>
      <trkpt lat="49.86542" lon="2.3914">
        <ele>67.1</ele>
        <time>2022-05-28T12:27:42Z</time>
      </trkpt>
      <trkpt lat="49.86542" lon="2.3914">
        <ele>67.1</ele>
        <time>2022-05-28T12:27:43Z</time>
      </trkpt>
      <trkpt lat="49.86542" lon="2.3914">
        <ele>67.1</ele>
        <time>2022-05-28T12:27:44Z</time>
      </trkpt>
      <trkpt lat="49.86542" lon="2.3914">
        <ele>67.1</ele>
        <time>2022-05-28T12:27:45Z</time>
      </trkpt>
      <trkpt lat="49.86542" lon="2.39139">
        <ele>67.1</ele>
        <time>2022-05-28T12:27:46Z</time>
      </trkpt>
      <trkpt lat="49.86542" lon="2.39139">
        <ele>67.1</ele>
        <time>2022-05-28T12:27:47Z</time>
      </trkpt>
      <trkpt lat="49.86542" lon="2.39139">
        <ele>67.1</ele>
        <time>2022-05-28T12:27:48Z</time>
      </trkpt>
      <trkpt lat="49.86542" lon="2.39139">
        <ele>67.1</ele>
        <time>2022-05-28T12:27:49Z</time>
      </trkpt>
      <trkpt lat="49.86542" lon="2.39139">
        <ele>67.1</ele>
        <time>2022-05-28T12:27:50Z</time>
      </trkpt>
      <trkpt lat="49.86542" lon="2.39139">
        <ele>67.1</ele>
        <time>2022-05-28T12:27:51Z</time>
      </trkpt>
      <trkpt lat="49.86542" lon="2.39139">
        <ele>67.1</ele>
        <time>2022-05-28T12:27:52Z</time>
      </trkpt>
      <trkpt lat="49.86542" lon="2.39139">
        <ele>67.1</ele>
        <time>2022-05-28T12:27:53Z</time>
      </trkpt>
      <trkpt lat="49.86542" lon="2.39139">
        <ele>67.1</ele>
        <time>2022-05-28T12:27:54Z</time>
      </trkpt>
      <trkpt lat="49.86542" lon="2.39139">
        <ele>67.1</ele>
        <time>2022-05-28T12:27:55Z</time>
      </trkpt>
      <trkpt lat="49.86542" lon="2.39139">
        <ele>67.1</ele>
        <time>2022-05-28T12:27:56Z</time>
      </trkpt>
      <trkpt lat="49.86542" lon="2.39139">
        <ele>67.1</ele>
        <time>2022-05-28T12:27:57Z</time>
      </trkpt>
      <trkpt lat="49.86542" lon="2.39139">
        <ele>67.1</ele>
        <time>2022-05-28T12:27:58Z</time>
      </trkpt>
      <trkpt lat="49.86542" lon="2.39139">
        <ele>67.1</ele>
        <time>2022-05-28T12:27:59Z</time>
      </trkpt>
      <trkpt lat="49.86542" lon="2.39139">
        <ele>67.1</ele>
        <time>2022-05-28T12:28:00Z</time>
      </trkpt>
      <trkpt lat="49.86542" lon="2.39139">
        <ele>67.1</ele>
        <time>2022-05-28T12:28:01Z</time>
      </trkpt>
      <trkpt lat="49.86542" lon="2.39139">
        <ele>67.1</ele>
        <time>2022-05-28T12:28:02Z</time>
      </trkpt>
      <trkpt lat="49.86542" lon="2.39139">
        <ele>67.1</ele>
        <time>2022-05-28T12:28:03Z</time>
      </trkpt>
      <trkpt lat="49.86542" lon="2.39139">
        <ele>67.1</ele>
        <time>2022-05-28T12:28:04Z</time>
      </trkpt>
      <trkpt lat="49.86542" lon="2.39139">
        <ele>67.1</ele>
        <time>2022-05-28T12:28:05Z</time>
      </trkpt>
      <trkpt lat="49.86542" lon="2.39139">
        <ele>67.1</ele>
        <time>2022-05-28T12:28:06Z</time>
      </trkpt>
      <trkpt lat="49.86542" lon="2.39139">
        <ele>67.1</ele>
        <time>2022-05-28T12:28:07Z</time>
      </trkpt>
      <trkpt lat="49.86542" lon="2.39139">
        <ele>67.1</ele>
        <time>2022-05-28T12:28:08Z</time>
      </trkpt>
      <trkpt lat="49.86542" lon="2.39139">
        <ele>67.1</ele>
        <time>2022-05-28T12:28:09Z</time>
      </trkpt>
      <trkpt lat="49.86542" lon="2.39138">
        <ele>67.1</ele>
        <time>2022-05-28T12:28:10Z</time>
      </trkpt>
      <trkpt lat="49.86542" lon="2.39138">
        <ele>67.1</ele>
        <time>2022-05-28T12:28:11Z</time>
      </trkpt>
      <trkpt lat="49.86542" lon="2.39138">
        <ele>67.1</ele>
        <time>2022-05-28T12:28:12Z</time>
      </trkpt>
      <trkpt lat="49.86542" lon="2.39138">
        <ele>67.1</ele>
        <time>2022-05-28T12:28:13Z</time>
      </trkpt>
      <trkpt lat="49.86542" lon="2.39138">
        <ele>67.1</ele>
        <time>2022-05-28T12:28:14Z</time>
      </trkpt>
      <trkpt lat="49.86542" lon="2.39138">
        <ele>67.1</ele>
        <time>2022-05-28T12:28:15Z</time>
      </trkpt>
      <trkpt lat="49.86542" lon="2.39138">
        <ele>67.1</ele>
        <time>2022-05-28T12:28:16Z</time>
      </trkpt>
      <trkpt lat="49.86542" lon="2.39138">
        <ele>67.1</ele>
        <time>2022-05-28T12:28:17Z</time>
      </trkpt>
      <trkpt lat="49.86542" lon="2.39138">
        <ele>67.1</ele>
        <time>2022-05-28T12:28:18Z</time>
      </trkpt>
      <trkpt lat="49.86542" lon="2.39138">
        <ele>67.1</ele>
        <time>2022-05-28T12:28:19Z</time>
      </trkpt>
      <trkpt lat="49.86542" lon="2.39138">
        <ele>67.1</ele>
        <time>2022-05-28T12:28:20Z</time>
      </trkpt>
      <trkpt lat="49.86542" lon="2.39138">
        <ele>67.1</ele>
        <time>2022-05-28T12:28:21Z</time>
      </trkpt>
      <trkpt lat="49.86542" lon="2.39138">
        <ele>67.1</ele>
        <time>2022-05-28T12:28:22Z</time>
      </trkpt>
      <trkpt lat="49.86542" lon="2.39138">
        <ele>67.1</ele>
        <time>2022-05-28T12:28:23Z</time>
      </trkpt>
      <trkpt lat="49.86542" lon="2.39138">
        <ele>67.1</ele>
        <time>2022-05-28T12:28:24Z</time>
      </trkpt>
      <trkpt lat="49.86542" lon="2.39138">
        <ele>67.1</ele>
        <time>2022-05-28T12:28:25Z</time>
      </trkpt>
      <trkpt lat="49.86542" lon="2.39138">
        <ele>67.1</ele>
        <time>2022-05-28T12:28:26Z</time>
      </trkpt>
      <trkpt lat="49.86542" lon="2.39138">
        <ele>67.1</ele>
        <time>2022-05-28T12:28:27Z</time>
      </trkpt>
      <trkpt lat="49.86542" lon="2.39138">
        <ele>67.1</ele>
        <time>2022-05-28T12:28:28Z</time>
      </trkpt>
      <trkpt lat="49.86542" lon="2.39138">
        <ele>67.1</ele>
        <time>2022-05-28T12:28:29Z</time>
      </trkpt>
      <trkpt lat="49.86542" lon="2.39138">
        <ele>67.1</ele>
        <time>2022-05-28T12:28:30Z</time>
      </trkpt>
      <trkpt lat="49.86542" lon="2.39138">
        <ele>67.1</ele>
        <time>2022-05-28T12:28:31Z</time>
      </trkpt>
      <trkpt lat="49.86542" lon="2.39138">
        <ele>67.1</ele>
        <time>2022-05-28T12:28:32Z</time>
      </trkpt>
      <trkpt lat="49.86542" lon="2.39138">
        <ele>67.1</ele>
        <time>2022-05-28T12:28:33Z</time>
      </trkpt>
      <trkpt lat="49.86542" lon="2.39138">
        <ele>67.1</ele>
        <time>2022-05-28T12:28:34Z</time>
      </trkpt>
      <trkpt lat="49.86542" lon="2.39137">
        <ele>67.1</ele>
        <time>2022-05-28T12:28:35Z</time>
      </trkpt>
      <trkpt lat="49.86542" lon="2.39137">
        <ele>67.1</ele>
        <time>2022-05-28T12:28:36Z</time>
      </trkpt>
      <trkpt lat="49.86542" lon="2.39137">
        <ele>67.1</ele>
        <time>2022-05-28T12:28:37Z</time>
      </trkpt>
      <trkpt lat="49.86542" lon="2.39137">
        <ele>67.1</ele>
        <time>2022-05-28T12:28:38Z</time>
      </trkpt>
      <trkpt lat="49.86542" lon="2.39137">
        <ele>67.1</ele>
        <time>2022-05-28T12:28:39Z</time>
      </trkpt>
      <trkpt lat="49.86542" lon="2.39137">
        <ele>67.1</ele>
        <time>2022-05-28T12:28:40Z</time>
      </trkpt>
      <trkpt lat="49.86542" lon="2.39137">
        <ele>67.1</ele>
        <time>2022-05-28T12:28:41Z</time>
      </trkpt>
      <trkpt lat="49.86542" lon="2.39137">
        <ele>67.1</ele>
        <time>2022-05-28T12:28:42Z</time>
      </trkpt>
      <trkpt lat="49.86542" lon="2.39137">
        <ele>67.1</ele>
        <time>2022-05-28T12:28:43Z</time>
      </trkpt>
      <trkpt lat="49.86542" lon="2.39137">
        <ele>67.1</ele>
        <time>2022-05-28T12:28:44Z</time>
      </trkpt>
      <trkpt lat="49.86542" lon="2.39137">
        <ele>67.1</ele>
        <time>2022-05-28T12:28:45Z</time>
      </trkpt>
      <trkpt lat="49.86542" lon="2.39137">
        <ele>67.1</ele>
        <time>2022-05-28T12:28:46Z</time>
      </trkpt>
      <trkpt lat="49.86542" lon="2.39137">
        <ele>67.1</ele>
        <time>2022-05-28T12:28:47Z</time>
      </trkpt>
      <trkpt lat="49.86542" lon="2.39137">
        <ele>67.1</ele>
        <time>2022-05-28T12:28:48Z</time>
      </trkpt>
      <trkpt lat="49.86542" lon="2.39137">
        <ele>67.1</ele>
        <time>2022-05-28T12:28:49Z</time>
      </trkpt>
      <trkpt lat="49.86542" lon="2.39137">
        <ele>67.1</ele>
        <time>2022-05-28T12:28:50Z</time>
      </trkpt>
      <trkpt lat="49.86542" lon="2.39137">
        <ele>67.1</ele>
        <time>2022-05-28T12:28:51Z</time>
      </trkpt>
      <trkpt lat="49.86542" lon="2.39137">
        <ele>67.1</ele>
        <time>2022-05-28T12:28:52Z</time>
      </trkpt>
      <trkpt lat="49.86542" lon="2.39137">
        <ele>67.1</ele>
        <time>2022-05-28T12:28:53Z</time>
      </trkpt>
      <trkpt lat="49.86541" lon="2.39137">
        <ele>67.1</ele>
        <time>2022-05-28T12:28:54Z</time>
      </trkpt>
      <trkpt lat="49.86541" lon="2.39137">
        <ele>67.1</ele>
        <time>2022-05-28T12:28:55Z</time>
      </trkpt>
      <trkpt lat="49.86541" lon="2.39137">
        <ele>67.1</ele>
        <time>2022-05-28T12:28:56Z</time>
      </trkpt>
      <trkpt lat="49.86541" lon="2.39137">
        <ele>67.1</ele>
        <time>2022-05-28T12:28:57Z</time>
      </trkpt>
      <trkpt lat="49.86541" lon="2.39137">
        <ele>67.1</ele>
        <time>2022-05-28T12:28:58Z</time>
      </trkpt>
      <trkpt lat="49.86541" lon="2.39136">
        <ele>67.1</ele>
        <time>2022-05-28T12:28:59Z</time>
      </trkpt>
      <trkpt lat="49.86541" lon="2.39136">
        <ele>67.1</ele>
        <time>2022-05-28T12:29:00Z</time>
      </trkpt>
      <trkpt lat="49.86541" lon="2.39136">
        <ele>67.1</ele>
        <time>2022-05-28T12:29:01Z</time>
      </trkpt>
      <trkpt lat="49.86541" lon="2.39136">
        <ele>67.1</ele>
        <time>2022-05-28T12:29:02Z</time>
      </trkpt>
      <trkpt lat="49.86541" lon="2.39136">
        <ele>67.1</ele>
        <time>2022-05-28T12:29:03Z</time>
      </trkpt>
      <trkpt lat="49.86541" lon="2.39136">
        <ele>67.1</ele>
        <time>2022-05-28T12:29:04Z</time>
      </trkpt>
      <trkpt lat="49.86541" lon="2.39136">
        <ele>67.1</ele>
        <time>2022-05-28T12:29:05Z</time>
      </trkpt>
      <trkpt lat="49.86541" lon="2.39136">
        <ele>67.1</ele>
        <time>2022-05-28T12:29:06Z</time>
      </trkpt>
      <trkpt lat="49.86541" lon="2.39136">
        <ele>67.1</ele>
        <time>2022-05-28T12:29:07Z</time>
      </trkpt>
      <trkpt lat="49.86541" lon="2.39136">
        <ele>67.1</ele>
        <time>2022-05-28T12:29:08Z</time>
      </trkpt>
      <trkpt lat="49.86541" lon="2.39136">
        <ele>67.1</ele>
        <time>2022-05-28T12:29:09Z</time>
      </trkpt>
      <trkpt lat="49.86541" lon="2.39136">
        <ele>67.1</ele>
        <time>2022-05-28T12:29:10Z</time>
      </trkpt>
      <trkpt lat="49.86541" lon="2.39136">
        <ele>67.1</ele>
        <time>2022-05-28T12:29:11Z</time>
      </trkpt>
      <trkpt lat="49.86541" lon="2.39136">
        <ele>67.1</ele>
        <time>2022-05-28T12:29:12Z</time>
      </trkpt>
      <trkpt lat="49.86541" lon="2.39136">
        <ele>67.1</ele>
        <time>2022-05-28T12:29:13Z</time>
      </trkpt>
      <trkpt lat="49.86541" lon="2.39136">
        <ele>67.1</ele>
        <time>2022-05-28T12:29:14Z</time>
      </trkpt>
      <trkpt lat="49.86541" lon="2.39136">
        <ele>67.1</ele>
        <time>2022-05-28T12:29:15Z</time>
      </trkpt>
      <trkpt lat="49.86541" lon="2.39136">
        <ele>67.1</ele>
        <time>2022-05-28T12:29:16Z</time>
      </trkpt>
      <trkpt lat="49.86541" lon="2.39136">
        <ele>67.1</ele>
        <time>2022-05-28T12:29:17Z</time>
      </trkpt>
      <trkpt lat="49.86541" lon="2.39136">
        <ele>67.1</ele>
        <time>2022-05-28T12:29:18Z</time>
      </trkpt>
      <trkpt lat="49.86541" lon="2.39136">
        <ele>67.1</ele>
        <time>2022-05-28T12:29:19Z</time>
      </trkpt>
      <trkpt lat="49.86541" lon="2.39136">
        <ele>67.1</ele>
        <time>2022-05-28T12:29:20Z</time>
      </trkpt>
      <trkpt lat="49.86541" lon="2.39136">
        <ele>67.1</ele>
        <time>2022-05-28T12:29:21Z</time>
      </trkpt>
      <trkpt lat="49.86541" lon="2.39136">
        <ele>67.1</ele>
        <time>2022-05-28T12:29:22Z</time>
      </trkpt>
      <trkpt lat="49.86541" lon="2.39136">
        <ele>67.1</ele>
        <time>2022-05-28T12:29:23Z</time>
      </trkpt>
      <trkpt lat="49.86541" lon="2.39135">
        <ele>67.1</ele>
        <time>2022-05-28T12:29:24Z</time>
      </trkpt>
      <trkpt lat="49.86541" lon="2.39135">
        <ele>67.1</ele>
        <time>2022-05-28T12:29:25Z</time>
      </trkpt>
      <trkpt lat="49.86541" lon="2.39135">
        <ele>67.1</ele>
        <time>2022-05-28T12:29:26Z</time>
      </trkpt>
      <trkpt lat="49.8654" lon="2.39132">
        <ele>67.1</ele>
        <time>2022-05-28T12:29:27Z</time>
      </trkpt>
      <trkpt lat="49.86539" lon="2.39131">
        <ele>67.1</ele>
        <time>2022-05-28T12:29:28Z</time>
      </trkpt>
      <trkpt lat="49.86539" lon="2.39131">
        <ele>67.1</ele>
        <time>2022-05-28T12:29:29Z</time>
      </trkpt>
      <trkpt lat="49.86539" lon="2.3913">
        <ele>67.1</ele>
        <time>2022-05-28T12:29:30Z</time>
      </trkpt>
      <trkpt lat="49.86539" lon="2.3913">
        <ele>67.1</ele>
        <time>2022-05-28T12:29:31Z</time>
      </trkpt>
      <trkpt lat="49.86539" lon="2.3913">
        <ele>67.1</ele>
        <time>2022-05-28T12:29:32Z</time>
      </trkpt>
      <trkpt lat="49.86539" lon="2.3913">
        <ele>67.1</ele>
        <time>2022-05-28T12:29:33Z</time>
      </trkpt>
      <trkpt lat="49.86538" lon="2.3913">
        <ele>67.1</ele>
        <time>2022-05-28T12:29:34Z</time>
      </trkpt>
      <trkpt lat="49.86539" lon="2.3913">
        <ele>67.1</ele>
        <time>2022-05-28T12:29:35Z</time>
      </trkpt>
      <trkpt lat="49.86539" lon="2.3913">
        <ele>67.1</ele>
        <time>2022-05-28T12:29:36Z</time>
      </trkpt>
      <trkpt lat="49.86539" lon="2.3913">
        <ele>67.1</ele>
        <time>2022-05-28T12:29:37Z</time>
      </trkpt>
      <trkpt lat="49.86539" lon="2.39131">
        <ele>67.1</ele>
        <time>2022-05-28T12:29:38Z</time>
      </trkpt>
      <trkpt lat="49.86539" lon="2.39131">
        <ele>67.1</ele>
        <time>2022-05-28T12:29:39Z</time>
      </trkpt>
      <trkpt lat="49.86539" lon="2.39131">
        <ele>67.1</ele>
        <time>2022-05-28T12:29:40Z</time>
      </trkpt>
      <trkpt lat="49.86539" lon="2.39131">
        <ele>67.1</ele>
        <time>2022-05-28T12:29:41Z</time>
      </trkpt>
      <trkpt lat="49.86539" lon="2.39131">
        <ele>67.1</ele>
        <time>2022-05-28T12:29:42Z</time>
      </trkpt>
      <trkpt lat="49.86539" lon="2.39131">
        <ele>67.1</ele>
        <time>2022-05-28T12:29:43Z</time>
      </trkpt>
      <trkpt lat="49.86539" lon="2.39131">
        <ele>67.1</ele>
        <time>2022-05-28T12:29:44Z</time>
      </trkpt>
      <trkpt lat="49.86539" lon="2.39131">
        <ele>67.1</ele>
        <time>2022-05-28T12:29:45Z</time>
      </trkpt>
      <trkpt lat="49.86539" lon="2.39131">
        <ele>67.1</ele>
        <time>2022-05-28T12:29:46Z</time>
      </trkpt>
      <trkpt lat="49.86539" lon="2.39131">
        <ele>67.1</ele>
        <time>2022-05-28T12:29:47Z</time>
      </trkpt>
      <trkpt lat="49.86539" lon="2.39131">
        <ele>67.1</ele>
        <time>2022-05-28T12:29:48Z</time>
      </trkpt>
      <trkpt lat="49.86539" lon="2.39131">
        <ele>67.1</ele>
        <time>2022-05-28T12:29:49Z</time>
      </trkpt>
      <trkpt lat="49.86539" lon="2.39131">
        <ele>67.1</ele>
        <time>2022-05-28T12:29:50Z</time>
      </trkpt>
      <trkpt lat="49.86539" lon="2.39131">
        <ele>67.1</ele>
        <time>2022-05-28T12:29:51Z</time>
      </trkpt>
      <trkpt lat="49.86539" lon="2.39131">
        <ele>67.1</ele>
        <time>2022-05-28T12:29:52Z</time>
      </trkpt>
      <trkpt lat="49.86539" lon="2.39131">
        <ele>67.1</ele>
        <time>2022-05-28T12:29:53Z</time>
      </trkpt>
      <trkpt lat="49.86539" lon="2.39131">
        <ele>67.1</ele>
        <time>2022-05-28T12:29:54Z</time>
      </trkpt>
      <trkpt lat="49.86539" lon="2.39131">
        <ele>67.1</ele>
        <time>2022-05-28T12:29:55Z</time>
      </trkpt>
      <trkpt lat="49.86539" lon="2.39131">
        <ele>67.1</ele>
        <time>2022-05-28T12:29:56Z</time>
      </trkpt>
      <trkpt lat="49.86539" lon="2.39131">
        <ele>67.1</ele>
        <time>2022-05-28T12:29:57Z</time>
      </trkpt>
      <trkpt lat="49.86539" lon="2.39131">
        <ele>67.1</ele>
        <time>2022-05-28T12:29:58Z</time>
      </trkpt>
      <trkpt lat="49.86539" lon="2.39131">
        <ele>67.1</ele>
        <time>2022-05-28T12:29:59Z</time>
      </trkpt>
      <trkpt lat="49.86539" lon="2.39131">
        <ele>67.1</ele>
        <time>2022-05-28T12:30:00Z</time>
      </trkpt>
      <trkpt lat="49.86539" lon="2.39131">
        <ele>67.1</ele>
        <time>2022-05-28T12:30:01Z</time>
      </trkpt>
      <trkpt lat="49.86539" lon="2.39131">
        <ele>67.1</ele>
        <time>2022-05-28T12:30:02Z</time>
      </trkpt>
      <trkpt lat="49.86539" lon="2.39131">
        <ele>67.1</ele>
        <time>2022-05-28T12:30:03Z</time>
      </trkpt>
      <trkpt lat="49.86539" lon="2.39131">
        <ele>67.1</ele>
        <time>2022-05-28T12:30:04Z</time>
      </trkpt>
      <trkpt lat="49.86539" lon="2.39131">
        <ele>67.1</ele>
        <time>2022-05-28T12:30:05Z</time>
      </trkpt>
      <trkpt lat="49.86539" lon="2.39131">
        <ele>67.1</ele>
        <time>2022-05-28T12:30:06Z</time>
      </trkpt>
      <trkpt lat="49.86539" lon="2.39131">
        <ele>67.1</ele>
        <time>2022-05-28T12:30:07Z</time>
      </trkpt>
      <trkpt lat="49.86539" lon="2.39131">
        <ele>67.1</ele>
        <time>2022-05-28T12:30:08Z</time>
      </trkpt>
      <trkpt lat="49.86539" lon="2.39131">
        <ele>67.1</ele>
        <time>2022-05-28T12:30:09Z</time>
      </trkpt>
      <trkpt lat="49.8654" lon="2.39133">
        <ele>67.1</ele>
        <time>2022-05-28T12:30:10Z</time>
      </trkpt>
      <trkpt lat="49.8654" lon="2.39135">
        <ele>67.1</ele>
        <time>2022-05-28T12:30:11Z</time>
      </trkpt>
      <trkpt lat="49.8654" lon="2.39136">
        <ele>67.1</ele>
        <time>2022-05-28T12:30:12Z</time>
      </trkpt>
      <trkpt lat="49.8654" lon="2.39138">
        <ele>67.1</ele>
        <time>2022-05-28T12:30:13Z</time>
      </trkpt>
      <trkpt lat="49.8654" lon="2.39139">
        <ele>67.1</ele>
        <time>2022-05-28T12:30:14Z</time>
      </trkpt>
      <trkpt lat="49.86539" lon="2.39141">
        <ele>67.1</ele>
        <time>2022-05-28T12:30:15Z</time>
      </trkpt>
      <trkpt lat="49.86539" lon="2.39143">
        <ele>67.1</ele>
        <time>2022-05-28T12:30:16Z</time>
      </trkpt>
      <trkpt lat="49.86539" lon="2.39145">
        <ele>67.1</ele>
        <time>2022-05-28T12:30:17Z</time>
      </trkpt>
      <trkpt lat="49.86539" lon="2.39146">
        <ele>67.1</ele>
        <time>2022-05-28T12:30:18Z</time>
      </trkpt>
      <trkpt lat="49.86539" lon="2.39147">
        <ele>67.1</ele>
        <time>2022-05-28T12:30:19Z</time>
      </trkpt>
      <trkpt lat="49.86539" lon="2.39148">
        <ele>67.1</ele>
        <time>2022-05-28T12:30:20Z</time>
      </trkpt>
      <trkpt lat="49.86539" lon="2.3915">
        <ele>67.1</ele>
        <time>2022-05-28T12:30:21Z</time>
      </trkpt>
      <trkpt lat="49.86539" lon="2.39151">
        <ele>67.1</ele>
        <time>2022-05-28T12:30:22Z</time>
      </trkpt>
      <trkpt lat="49.86538" lon="2.39153">
        <ele>67.1</ele>
        <time>2022-05-28T12:30:23Z</time>
      </trkpt>
      <trkpt lat="49.86538" lon="2.39154">
        <ele>67.1</ele>
        <time>2022-05-28T12:30:24Z</time>
      </trkpt>
      <trkpt lat="49.86537" lon="2.39156">
        <ele>67</ele>
        <time>2022-05-28T12:30:25Z</time>
      </trkpt>
      <trkpt lat="49.86537" lon="2.39157">
        <ele>67</ele>
        <time>2022-05-28T12:30:26Z</time>
      </trkpt>
      <trkpt lat="49.86537" lon="2.39158">
        <ele>67</ele>
        <time>2022-05-28T12:30:27Z</time>
      </trkpt>
      <trkpt lat="49.86537" lon="2.3916">
        <ele>67</ele>
        <time>2022-05-28T12:30:28Z</time>
      </trkpt>
      <trkpt lat="49.86536" lon="2.39161">
        <ele>67</ele>
        <time>2022-05-28T12:30:29Z</time>
      </trkpt>
      <trkpt lat="49.86536" lon="2.39162">
        <ele>67</ele>
        <time>2022-05-28T12:30:30Z</time>
      </trkpt>
      <trkpt lat="49.86536" lon="2.39164">
        <ele>67</ele>
        <time>2022-05-28T12:30:31Z</time>
      </trkpt>
      <trkpt lat="49.86535" lon="2.39165">
        <ele>67</ele>
        <time>2022-05-28T12:30:32Z</time>
      </trkpt>
      <trkpt lat="49.86535" lon="2.39167">
        <ele>67</ele>
        <time>2022-05-28T12:30:33Z</time>
      </trkpt>
      <trkpt lat="49.86535" lon="2.39168">
        <ele>67</ele>
        <time>2022-05-28T12:30:34Z</time>
      </trkpt>
      <trkpt lat="49.86535" lon="2.39169">
        <ele>67</ele>
        <time>2022-05-28T12:30:35Z</time>
      </trkpt>
      <trkpt lat="49.86535" lon="2.3917">
        <ele>67</ele>
        <time>2022-05-28T12:30:36Z</time>
      </trkpt>
      <trkpt lat="49.86535" lon="2.39171">
        <ele>67</ele>
        <time>2022-05-28T12:30:37Z</time>
      </trkpt>
      <trkpt lat="49.86535" lon="2.39172">
        <ele>67</ele>
        <time>2022-05-28T12:30:38Z</time>
      </trkpt>
      <trkpt lat="49.86534" lon="2.39173">
        <ele>67</ele>
        <time>2022-05-28T12:30:39Z</time>
      </trkpt>
      <trkpt lat="49.86534" lon="2.39175">
        <ele>67</ele>
        <time>2022-05-28T12:30:40Z</time>
      </trkpt>
      <trkpt lat="49.86534" lon="2.39176">
        <ele>67</ele>
        <time>2022-05-28T12:30:41Z</time>
      </trkpt>
      <trkpt lat="49.86534" lon="2.39177">
        <ele>67</ele>
        <time>2022-05-28T12:30:42Z</time>
      </trkpt>
      <trkpt lat="49.86534" lon="2.39178">
        <ele>67</ele>
        <time>2022-05-28T12:30:43Z</time>
      </trkpt>
      <trkpt lat="49.86533" lon="2.39179">
        <ele>67</ele>
        <time>2022-05-28T12:30:44Z</time>
      </trkpt>
      <trkpt lat="49.86533" lon="2.39181">
        <ele>67</ele>
        <time>2022-05-28T12:30:45Z</time>
      </trkpt>
      <trkpt lat="49.86533" lon="2.39182">
        <ele>67</ele>
        <time>2022-05-28T12:30:46Z</time>
      </trkpt>
      <trkpt lat="49.86533" lon="2.39183">
        <ele>67</ele>
        <time>2022-05-28T12:30:47Z</time>
      </trkpt>
      <trkpt lat="49.86533" lon="2.39185">
        <ele>67</ele>
        <time>2022-05-28T12:30:48Z</time>
      </trkpt>
      <trkpt lat="49.86533" lon="2.39186">
        <ele>67</ele>
        <time>2022-05-28T12:30:49Z</time>
      </trkpt>
      <trkpt lat="49.86532" lon="2.39187">
        <ele>66.9</ele>
        <time>2022-05-28T12:30:50Z</time>
      </trkpt>
      <trkpt lat="49.86532" lon="2.39189">
        <ele>66.9</ele>
        <time>2022-05-28T12:30:51Z</time>
      </trkpt>
      <trkpt lat="49.86532" lon="2.39191">
        <ele>66.9</ele>
        <time>2022-05-28T12:30:52Z</time>
      </trkpt>
      <trkpt lat="49.86532" lon="2.39192">
        <ele>66.9</ele>
        <time>2022-05-28T12:30:53Z</time>
      </trkpt>
      <trkpt lat="49.86532" lon="2.39194">
        <ele>66.9</ele>
        <time>2022-05-28T12:30:54Z</time>
      </trkpt>
      <trkpt lat="49.86531" lon="2.39195">
        <ele>66.9</ele>
        <time>2022-05-28T12:30:55Z</time>
      </trkpt>
      <trkpt lat="49.86531" lon="2.39197">
        <ele>66.9</ele>
        <time>2022-05-28T12:30:56Z</time>
      </trkpt>
      <trkpt lat="49.86531" lon="2.39199">
        <ele>66.9</ele>
        <time>2022-05-28T12:30:57Z</time>
      </trkpt>
      <trkpt lat="49.86531" lon="2.392">
        <ele>66.9</ele>
        <time>2022-05-28T12:30:58Z</time>
      </trkpt>
      <trkpt lat="49.86531" lon="2.39202">
        <ele>66.9</ele>
        <time>2022-05-28T12:30:59Z</time>
      </trkpt>
      <trkpt lat="49.86531" lon="2.39204">
        <ele>66.9</ele>
        <time>2022-05-28T12:31:00Z</time>
      </trkpt>
      <trkpt lat="49.86531" lon="2.39204">
        <ele>66.9</ele>
        <time>2022-05-28T12:31:01Z</time>
      </trkpt>
      <trkpt lat="49.8653" lon="2.39206">
        <ele>66.9</ele>
        <time>2022-05-28T12:31:02Z</time>
      </trkpt>
      <trkpt lat="49.8653" lon="2.39207">
        <ele>66.8</ele>
        <time>2022-05-28T12:31:03Z</time>
      </trkpt>
      <trkpt lat="49.8653" lon="2.39209">
        <ele>66.8</ele>
        <time>2022-05-28T12:31:04Z</time>
      </trkpt>
      <trkpt lat="49.8653" lon="2.3921">
        <ele>66.8</ele>
        <time>2022-05-28T12:31:05Z</time>
      </trkpt>
      <trkpt lat="49.8653" lon="2.39211">
        <ele>66.8</ele>
        <time>2022-05-28T12:31:06Z</time>
      </trkpt>
      <trkpt lat="49.86529" lon="2.39212">
        <ele>66.8</ele>
        <time>2022-05-28T12:31:07Z</time>
      </trkpt>
      <trkpt lat="49.86529" lon="2.39214">
        <ele>66.8</ele>
        <time>2022-05-28T12:31:08Z</time>
      </trkpt>
      <trkpt lat="49.86529" lon="2.39215">
        <ele>66.8</ele>
        <time>2022-05-28T12:31:09Z</time>
      </trkpt>
      <trkpt lat="49.86528" lon="2.39217">
        <ele>66.8</ele>
        <time>2022-05-28T12:31:10Z</time>
      </trkpt>
      <trkpt lat="49.86528" lon="2.39217">
        <ele>66.8</ele>
        <time>2022-05-28T12:31:11Z</time>
      </trkpt>
      <trkpt lat="49.86528" lon="2.39218">
        <ele>66.8</ele>
        <time>2022-05-28T12:31:12Z</time>
      </trkpt>
      <trkpt lat="49.86527" lon="2.3922">
        <ele>66.8</ele>
        <time>2022-05-28T12:31:13Z</time>
      </trkpt>
      <trkpt lat="49.86527" lon="2.39221">
        <ele>66.8</ele>
        <time>2022-05-28T12:31:14Z</time>
      </trkpt>
      <trkpt lat="49.86526" lon="2.39223">
        <ele>66.8</ele>
        <time>2022-05-28T12:31:15Z</time>
      </trkpt>
      <trkpt lat="49.86526" lon="2.39224">
        <ele>66.8</ele>
        <time>2022-05-28T12:31:16Z</time>
      </trkpt>
      <trkpt lat="49.86526" lon="2.39225">
        <ele>66.8</ele>
        <time>2022-05-28T12:31:17Z</time>
      </trkpt>
      <trkpt lat="49.86526" lon="2.39226">
        <ele>66.7</ele>
        <time>2022-05-28T12:31:18Z</time>
      </trkpt>
      <trkpt lat="49.86525" lon="2.39227">
        <ele>66.7</ele>
        <time>2022-05-28T12:31:19Z</time>
      </trkpt>
      <trkpt lat="49.86525" lon="2.39229">
        <ele>66.7</ele>
        <time>2022-05-28T12:31:20Z</time>
      </trkpt>
      <trkpt lat="49.86525" lon="2.39229">
        <ele>66.7</ele>
        <time>2022-05-28T12:31:21Z</time>
      </trkpt>
      <trkpt lat="49.86525" lon="2.3923">
        <ele>66.7</ele>
        <time>2022-05-28T12:31:22Z</time>
      </trkpt>
      <trkpt lat="49.86525" lon="2.39231">
        <ele>66.7</ele>
        <time>2022-05-28T12:31:23Z</time>
      </trkpt>
      <trkpt lat="49.86525" lon="2.39232">
        <ele>66.7</ele>
        <time>2022-05-28T12:31:24Z</time>
      </trkpt>
      <trkpt lat="49.86524" lon="2.39233">
        <ele>66.7</ele>
        <time>2022-05-28T12:31:25Z</time>
      </trkpt>
      <trkpt lat="49.86524" lon="2.39234">
        <ele>66.7</ele>
        <time>2022-05-28T12:31:26Z</time>
      </trkpt>
      <trkpt lat="49.86524" lon="2.39235">
        <ele>66.7</ele>
        <time>2022-05-28T12:31:27Z</time>
      </trkpt>
      <trkpt lat="49.86524" lon="2.39236">
        <ele>66.7</ele>
        <time>2022-05-28T12:31:28Z</time>
      </trkpt>
      <trkpt lat="49.86524" lon="2.39237">
        <ele>66.7</ele>
        <time>2022-05-28T12:31:29Z</time>
      </trkpt>
      <trkpt lat="49.86523" lon="2.39239">
        <ele>66.7</ele>
        <time>2022-05-28T12:31:30Z</time>
      </trkpt>
      <trkpt lat="49.86523" lon="2.39239">
        <ele>66.7</ele>
        <time>2022-05-28T12:31:31Z</time>
      </trkpt>
      <trkpt lat="49.86523" lon="2.3924">
        <ele>66.7</ele>
        <time>2022-05-28T12:31:32Z</time>
      </trkpt>
      <trkpt lat="49.86523" lon="2.39242">
        <ele>66.7</ele>
        <time>2022-05-28T12:31:33Z</time>
      </trkpt>
      <trkpt lat="49.86522" lon="2.39243">
        <ele>66.7</ele>
        <time>2022-05-28T12:31:34Z</time>
      </trkpt>
      <trkpt lat="49.86522" lon="2.39244">
        <ele>66.7</ele>
        <time>2022-05-28T12:31:35Z</time>
      </trkpt>
      <trkpt lat="49.86522" lon="2.39246">
        <ele>66.6</ele>
        <time>2022-05-28T12:31:36Z</time>
      </trkpt>
      <trkpt lat="49.86522" lon="2.39247">
        <ele>66.6</ele>
        <time>2022-05-28T12:31:37Z</time>
      </trkpt>
      <trkpt lat="49.86521" lon="2.39248">
        <ele>66.6</ele>
        <time>2022-05-28T12:31:38Z</time>
      </trkpt>
      <trkpt lat="49.86521" lon="2.3925">
        <ele>66.6</ele>
        <time>2022-05-28T12:31:39Z</time>
      </trkpt>
      <trkpt lat="49.8652" lon="2.39251">
        <ele>66.6</ele>
        <time>2022-05-28T12:31:40Z</time>
      </trkpt>
      <trkpt lat="49.8652" lon="2.39252">
        <ele>66.6</ele>
        <time>2022-05-28T12:31:41Z</time>
      </trkpt>
      <trkpt lat="49.8652" lon="2.39253">
        <ele>66.6</ele>
        <time>2022-05-28T12:31:42Z</time>
      </trkpt>
      <trkpt lat="49.86519" lon="2.39254">
        <ele>66.6</ele>
        <time>2022-05-28T12:31:43Z</time>
      </trkpt>
      <trkpt lat="49.86519" lon="2.39256">
        <ele>66.6</ele>
        <time>2022-05-28T12:31:44Z</time>
      </trkpt>
      <trkpt lat="49.86518" lon="2.39257">
        <ele>66.6</ele>
        <time>2022-05-28T12:31:45Z</time>
      </trkpt>
      <trkpt lat="49.86518" lon="2.39258">
        <ele>66.6</ele>
        <time>2022-05-28T12:31:46Z</time>
      </trkpt>
      <trkpt lat="49.86517" lon="2.39259">
        <ele>66.6</ele>
        <time>2022-05-28T12:31:47Z</time>
      </trkpt>
      <trkpt lat="49.86516" lon="2.3926">
        <ele>66.6</ele>
        <time>2022-05-28T12:31:48Z</time>
      </trkpt>
      <trkpt lat="49.86515" lon="2.39261">
        <ele>66.6</ele>
        <time>2022-05-28T12:31:49Z</time>
      </trkpt>
      <trkpt lat="49.86515" lon="2.39262">
        <ele>66.5</ele>
        <time>2022-05-28T12:31:50Z</time>
      </trkpt>
      <trkpt lat="49.86514" lon="2.39263">
        <ele>66.5</ele>
        <time>2022-05-28T12:31:51Z</time>
      </trkpt>
      <trkpt lat="49.86514" lon="2.39264">
        <ele>66.5</ele>
        <time>2022-05-28T12:31:52Z</time>
      </trkpt>
      <trkpt lat="49.86514" lon="2.39266">
        <ele>66.5</ele>
        <time>2022-05-28T12:31:53Z</time>
      </trkpt>
      <trkpt lat="49.86513" lon="2.39267">
        <ele>66.5</ele>
        <time>2022-05-28T12:31:54Z</time>
      </trkpt>
      <trkpt lat="49.86513" lon="2.3927">
        <ele>66.5</ele>
        <time>2022-05-28T12:31:55Z</time>
      </trkpt>
      <trkpt lat="49.86512" lon="2.39271">
        <ele>66.5</ele>
        <time>2022-05-28T12:31:56Z</time>
      </trkpt>
      <trkpt lat="49.86512" lon="2.39272">
        <ele>66.5</ele>
        <time>2022-05-28T12:31:57Z</time>
      </trkpt>
      <trkpt lat="49.86512" lon="2.39274">
        <ele>66.5</ele>
        <time>2022-05-28T12:31:58Z</time>
      </trkpt>
      <trkpt lat="49.86512" lon="2.39275">
        <ele>66.5</ele>
        <time>2022-05-28T12:31:59Z</time>
      </trkpt>
      <trkpt lat="49.86511" lon="2.39277">
        <ele>66.5</ele>
        <time>2022-05-28T12:32:00Z</time>
      </trkpt>
      <trkpt lat="49.86511" lon="2.39278">
        <ele>66.5</ele>
        <time>2022-05-28T12:32:01Z</time>
      </trkpt>
      <trkpt lat="49.86511" lon="2.39279">
        <ele>66.5</ele>
        <time>2022-05-28T12:32:02Z</time>
      </trkpt>
      <trkpt lat="49.86511" lon="2.39281">
        <ele>66.5</ele>
        <time>2022-05-28T12:32:03Z</time>
      </trkpt>
      <trkpt lat="49.86511" lon="2.39283">
        <ele>66.4</ele>
        <time>2022-05-28T12:32:04Z</time>
      </trkpt>
      <trkpt lat="49.8651" lon="2.39284">
        <ele>66.4</ele>
        <time>2022-05-28T12:32:05Z</time>
      </trkpt>
      <trkpt lat="49.86511" lon="2.39286">
        <ele>66.4</ele>
        <time>2022-05-28T12:32:06Z</time>
      </trkpt>
      <trkpt lat="49.8651" lon="2.39288">
        <ele>66.4</ele>
        <time>2022-05-28T12:32:07Z</time>
      </trkpt>
      <trkpt lat="49.8651" lon="2.39289">
        <ele>66.4</ele>
        <time>2022-05-28T12:32:08Z</time>
      </trkpt>
      <trkpt lat="49.8651" lon="2.3929">
        <ele>66.4</ele>
        <time>2022-05-28T12:32:09Z</time>
      </trkpt>
      <trkpt lat="49.8651" lon="2.39292">
        <ele>66.4</ele>
        <time>2022-05-28T12:32:10Z</time>
      </trkpt>
      <trkpt lat="49.8651" lon="2.39293">
        <ele>66.4</ele>
        <time>2022-05-28T12:32:11Z</time>
      </trkpt>
      <trkpt lat="49.8651" lon="2.39295">
        <ele>66.4</ele>
        <time>2022-05-28T12:32:12Z</time>
      </trkpt>
      <trkpt lat="49.8651" lon="2.39296">
        <ele>66.4</ele>
        <time>2022-05-28T12:32:13Z</time>
      </trkpt>
      <trkpt lat="49.8651" lon="2.39297">
        <ele>66.4</ele>
        <time>2022-05-28T12:32:14Z</time>
      </trkpt>
      <trkpt lat="49.86509" lon="2.39299">
        <ele>66.4</ele>
        <time>2022-05-28T12:32:15Z</time>
      </trkpt>
      <trkpt lat="49.86509" lon="2.393">
        <ele>66.3</ele>
        <time>2022-05-28T12:32:16Z</time>
      </trkpt>
      <trkpt lat="49.86509" lon="2.39301">
        <ele>66.3</ele>
        <time>2022-05-28T12:32:17Z</time>
      </trkpt>
      <trkpt lat="49.86509" lon="2.39303">
        <ele>66.3</ele>
        <time>2022-05-28T12:32:18Z</time>
      </trkpt>
      <trkpt lat="49.86509" lon="2.39304">
        <ele>66.3</ele>
        <time>2022-05-28T12:32:19Z</time>
      </trkpt>
      <trkpt lat="49.86509" lon="2.39305">
        <ele>66.3</ele>
        <time>2022-05-28T12:32:20Z</time>
      </trkpt>
      <trkpt lat="49.86509" lon="2.39307">
        <ele>66.3</ele>
        <time>2022-05-28T12:32:21Z</time>
      </trkpt>
      <trkpt lat="49.86509" lon="2.39308">
        <ele>66.3</ele>
        <time>2022-05-28T12:32:22Z</time>
      </trkpt>
      <trkpt lat="49.86509" lon="2.39309">
        <ele>66.3</ele>
        <time>2022-05-28T12:32:23Z</time>
      </trkpt>
      <trkpt lat="49.86509" lon="2.3931">
        <ele>66.3</ele>
        <time>2022-05-28T12:32:24Z</time>
      </trkpt>
      <trkpt lat="49.86508" lon="2.39312">
        <ele>66.3</ele>
        <time>2022-05-28T12:32:25Z</time>
      </trkpt>
      <trkpt lat="49.86508" lon="2.39313">
        <ele>66.3</ele>
        <time>2022-05-28T12:32:26Z</time>
      </trkpt>
      <trkpt lat="49.86508" lon="2.39314">
        <ele>66.2</ele>
        <time>2022-05-28T12:32:27Z</time>
      </trkpt>
      <trkpt lat="49.86508" lon="2.39316">
        <ele>66.2</ele>
        <time>2022-05-28T12:32:28Z</time>
      </trkpt>
      <trkpt lat="49.86508" lon="2.39317">
        <ele>66.2</ele>
        <time>2022-05-28T12:32:29Z</time>
      </trkpt>
      <trkpt lat="49.86508" lon="2.39318">
        <ele>66.2</ele>
        <time>2022-05-28T12:32:30Z</time>
      </trkpt>
      <trkpt lat="49.86508" lon="2.39319">
        <ele>66.2</ele>
        <time>2022-05-28T12:32:31Z</time>
      </trkpt>
      <trkpt lat="49.86508" lon="2.3932">
        <ele>66.2</ele>
        <time>2022-05-28T12:32:32Z</time>
      </trkpt>
      <trkpt lat="49.86507" lon="2.39322">
        <ele>66.2</ele>
        <time>2022-05-28T12:32:33Z</time>
      </trkpt>
      <trkpt lat="49.86507" lon="2.39323">
        <ele>66.2</ele>
        <time>2022-05-28T12:32:34Z</time>
      </trkpt>
      <trkpt lat="49.86507" lon="2.39324">
        <ele>66.2</ele>
        <time>2022-05-28T12:32:35Z</time>
      </trkpt>
      <trkpt lat="49.86507" lon="2.39325">
        <ele>66.1</ele>
        <time>2022-05-28T12:32:36Z</time>
      </trkpt>
      <trkpt lat="49.86507" lon="2.39326">
        <ele>66.1</ele>
        <time>2022-05-28T12:32:37Z</time>
      </trkpt>
      <trkpt lat="49.86507" lon="2.39327">
        <ele>66.1</ele>
        <time>2022-05-28T12:32:38Z</time>
      </trkpt>
      <trkpt lat="49.86507" lon="2.39328">
        <ele>66.1</ele>
        <time>2022-05-28T12:32:39Z</time>
      </trkpt>
      <trkpt lat="49.86507" lon="2.39329">
        <ele>66.1</ele>
        <time>2022-05-28T12:32:40Z</time>
      </trkpt>
      <trkpt lat="49.86506" lon="2.39331">
        <ele>66.1</ele>
        <time>2022-05-28T12:32:41Z</time>
      </trkpt>
      <trkpt lat="49.86506" lon="2.39331">
        <ele>66.1</ele>
        <time>2022-05-28T12:32:42Z</time>
      </trkpt>
      <trkpt lat="49.86506" lon="2.39332">
        <ele>66.1</ele>
        <time>2022-05-28T12:32:43Z</time>
      </trkpt>
      <trkpt lat="49.86506" lon="2.39334">
        <ele>66.1</ele>
        <time>2022-05-28T12:32:44Z</time>
      </trkpt>
      <trkpt lat="49.86506" lon="2.39335">
        <ele>66.1</ele>
        <time>2022-05-28T12:32:45Z</time>
      </trkpt>
      <trkpt lat="49.86505" lon="2.39336">
        <ele>66</ele>
        <time>2022-05-28T12:32:46Z</time>
      </trkpt>
      <trkpt lat="49.86505" lon="2.39337">
        <ele>66</ele>
        <time>2022-05-28T12:32:47Z</time>
      </trkpt>
      <trkpt lat="49.86505" lon="2.39339">
        <ele>66</ele>
        <time>2022-05-28T12:32:48Z</time>
      </trkpt>
      <trkpt lat="49.86505" lon="2.3934">
        <ele>66</ele>
        <time>2022-05-28T12:32:49Z</time>
      </trkpt>
      <trkpt lat="49.86504" lon="2.39342">
        <ele>66</ele>
        <time>2022-05-28T12:32:50Z</time>
      </trkpt>
      <trkpt lat="49.86504" lon="2.39343">
        <ele>66</ele>
        <time>2022-05-28T12:32:51Z</time>
      </trkpt>
      <trkpt lat="49.86504" lon="2.39344">
        <ele>66</ele>
        <time>2022-05-28T12:32:52Z</time>
      </trkpt>
      <trkpt lat="49.86503" lon="2.39345">
        <ele>66</ele>
        <time>2022-05-28T12:32:53Z</time>
      </trkpt>
      <trkpt lat="49.86503" lon="2.39346">
        <ele>65.9</ele>
        <time>2022-05-28T12:32:54Z</time>
      </trkpt>
      <trkpt lat="49.86503" lon="2.39347">
        <ele>65.9</ele>
        <time>2022-05-28T12:32:55Z</time>
      </trkpt>
      <trkpt lat="49.86502" lon="2.39348">
        <ele>65.9</ele>
        <time>2022-05-28T12:32:56Z</time>
      </trkpt>
      <trkpt lat="49.86502" lon="2.39348">
        <ele>65.9</ele>
        <time>2022-05-28T12:32:57Z</time>
      </trkpt>
      <trkpt lat="49.86501" lon="2.39349">
        <ele>65.9</ele>
        <time>2022-05-28T12:32:58Z</time>
      </trkpt>
      <trkpt lat="49.86501" lon="2.39349">
        <ele>65.9</ele>
        <time>2022-05-28T12:32:59Z</time>
      </trkpt>
      <trkpt lat="49.86501" lon="2.39349">
        <ele>65.9</ele>
        <time>2022-05-28T12:33:00Z</time>
      </trkpt>
      <trkpt lat="49.86501" lon="2.39348">
        <ele>65.9</ele>
        <time>2022-05-28T12:33:01Z</time>
      </trkpt>
      <trkpt lat="49.86501" lon="2.39348">
        <ele>65.9</ele>
        <time>2022-05-28T12:33:02Z</time>
      </trkpt>
      <trkpt lat="49.86501" lon="2.39348">
        <ele>65.9</ele>
        <time>2022-05-28T12:33:03Z</time>
      </trkpt>
      <trkpt lat="49.86501" lon="2.39348">
        <ele>65.9</ele>
        <time>2022-05-28T12:33:04Z</time>
      </trkpt>
      <trkpt lat="49.86501" lon="2.39348">
        <ele>65.9</ele>
        <time>2022-05-28T12:33:05Z</time>
      </trkpt>
      <trkpt lat="49.86501" lon="2.39348">
        <ele>65.9</ele>
        <time>2022-05-28T12:33:06Z</time>
      </trkpt>
      <trkpt lat="49.86501" lon="2.39348">
        <ele>65.9</ele>
        <time>2022-05-28T12:33:07Z</time>
      </trkpt>
      <trkpt lat="49.86501" lon="2.39348">
        <ele>65.9</ele>
        <time>2022-05-28T12:33:08Z</time>
      </trkpt>
      <trkpt lat="49.86501" lon="2.39348">
        <ele>65.9</ele>
        <time>2022-05-28T12:33:09Z</time>
      </trkpt>
      <trkpt lat="49.86501" lon="2.39348">
        <ele>65.9</ele>
        <time>2022-05-28T12:33:10Z</time>
      </trkpt>
      <trkpt lat="49.86501" lon="2.39348">
        <ele>65.9</ele>
        <time>2022-05-28T12:33:11Z</time>
      </trkpt>
      <trkpt lat="49.86501" lon="2.39348">
        <ele>65.9</ele>
        <time>2022-05-28T12:33:12Z</time>
      </trkpt>
      <trkpt lat="49.86501" lon="2.39348">
        <ele>65.9</ele>
        <time>2022-05-28T12:33:13Z</time>
      </trkpt>
      <trkpt lat="49.86501" lon="2.39348">
        <ele>65.9</ele>
        <time>2022-05-28T12:33:14Z</time>
      </trkpt>
      <trkpt lat="49.86501" lon="2.39348">
        <ele>65.9</ele>
        <time>2022-05-28T12:33:15Z</time>
      </trkpt>
      <trkpt lat="49.86501" lon="2.39348">
        <ele>65.9</ele>
        <time>2022-05-28T12:33:16Z</time>
      </trkpt>
      <trkpt lat="49.86502" lon="2.39346">
        <ele>65.9</ele>
        <time>2022-05-28T12:33:17Z</time>
      </trkpt>
      <trkpt lat="49.86503" lon="2.39345">
        <ele>65.9</ele>
        <time>2022-05-28T12:33:18Z</time>
      </trkpt>
      <trkpt lat="49.86503" lon="2.39345">
        <ele>65.9</ele>
        <time>2022-05-28T12:33:19Z</time>
      </trkpt>
      <trkpt lat="49.86503" lon="2.39346">
        <ele>65.9</ele>
        <time>2022-05-28T12:33:20Z</time>
      </trkpt>
      <trkpt lat="49.86503" lon="2.39347">
        <ele>65.8</ele>
        <time>2022-05-28T12:33:21Z</time>
      </trkpt>
      <trkpt lat="49.86503" lon="2.39347">
        <ele>65.8</ele>
        <time>2022-05-28T12:33:22Z</time>
      </trkpt>
      <trkpt lat="49.86503" lon="2.39348">
        <ele>65.8</ele>
        <time>2022-05-28T12:33:23Z</time>
      </trkpt>
      <trkpt lat="49.86503" lon="2.39349">
        <ele>65.8</ele>
        <time>2022-05-28T12:33:24Z</time>
      </trkpt>
      <trkpt lat="49.86503" lon="2.39349">
        <ele>65.8</ele>
        <time>2022-05-28T12:33:25Z</time>
      </trkpt>
      <trkpt lat="49.86503" lon="2.3935">
        <ele>65.8</ele>
        <time>2022-05-28T12:33:26Z</time>
      </trkpt>
      <trkpt lat="49.86503" lon="2.39351">
        <ele>65.8</ele>
        <time>2022-05-28T12:33:27Z</time>
      </trkpt>
      <trkpt lat="49.86503" lon="2.39353">
        <ele>65.8</ele>
        <time>2022-05-28T12:33:28Z</time>
      </trkpt>
      <trkpt lat="49.86503" lon="2.39354">
        <ele>65.8</ele>
        <time>2022-05-28T12:33:29Z</time>
      </trkpt>
      <trkpt lat="49.86503" lon="2.39355">
        <ele>65.8</ele>
        <time>2022-05-28T12:33:30Z</time>
      </trkpt>
      <trkpt lat="49.86503" lon="2.39356">
        <ele>65.8</ele>
        <time>2022-05-28T12:33:31Z</time>
      </trkpt>
      <trkpt lat="49.86502" lon="2.39357">
        <ele>65.7</ele>
        <time>2022-05-28T12:33:32Z</time>
      </trkpt>
      <trkpt lat="49.86502" lon="2.39358">
        <ele>65.7</ele>
        <time>2022-05-28T12:33:33Z</time>
      </trkpt>
      <trkpt lat="49.86502" lon="2.39359">
        <ele>65.7</ele>
        <time>2022-05-28T12:33:34Z</time>
      </trkpt>
      <trkpt lat="49.86502" lon="2.39361">
        <ele>65.7</ele>
        <time>2022-05-28T12:33:35Z</time>
      </trkpt>
      <trkpt lat="49.86501" lon="2.39362">
        <ele>65.7</ele>
        <time>2022-05-28T12:33:36Z</time>
      </trkpt>
      <trkpt lat="49.86501" lon="2.39363">
        <ele>65.7</ele>
        <time>2022-05-28T12:33:37Z</time>
      </trkpt>
      <trkpt lat="49.86501" lon="2.39363">
        <ele>65.7</ele>
        <time>2022-05-28T12:33:38Z</time>
      </trkpt>
      <trkpt lat="49.86501" lon="2.39363">
        <ele>65.7</ele>
        <time>2022-05-28T12:33:39Z</time>
      </trkpt>
      <trkpt lat="49.86501" lon="2.39364">
        <ele>65.7</ele>
        <time>2022-05-28T12:33:40Z</time>
      </trkpt>
      <trkpt lat="49.86501" lon="2.39365">
        <ele>65.7</ele>
        <time>2022-05-28T12:33:41Z</time>
      </trkpt>
      <trkpt lat="49.86501" lon="2.39366">
        <ele>65.7</ele>
        <time>2022-05-28T12:33:42Z</time>
      </trkpt>
      <trkpt lat="49.86501" lon="2.39367">
        <ele>65.6</ele>
        <time>2022-05-28T12:33:43Z</time>
      </trkpt>
      <trkpt lat="49.865" lon="2.39369">
        <ele>65.6</ele>
        <time>2022-05-28T12:33:44Z</time>
      </trkpt>
      <trkpt lat="49.865" lon="2.39369">
        <ele>65.6</ele>
        <time>2022-05-28T12:33:45Z</time>
      </trkpt>
      <trkpt lat="49.865" lon="2.39371">
        <ele>65.6</ele>
        <time>2022-05-28T12:33:46Z</time>
      </trkpt>
      <trkpt lat="49.865" lon="2.39372">
        <ele>65.6</ele>
        <time>2022-05-28T12:33:47Z</time>
      </trkpt>
      <trkpt lat="49.865" lon="2.39372">
        <ele>65.6</ele>
        <time>2022-05-28T12:33:48Z</time>
      </trkpt>
      <trkpt lat="49.865" lon="2.39373">
        <ele>65.6</ele>
        <time>2022-05-28T12:33:49Z</time>
      </trkpt>
      <trkpt lat="49.865" lon="2.39374">
        <ele>65.6</ele>
        <time>2022-05-28T12:33:50Z</time>
      </trkpt>
      <trkpt lat="49.86499" lon="2.39375">
        <ele>65.6</ele>
        <time>2022-05-28T12:33:51Z</time>
      </trkpt>
      <trkpt lat="49.86499" lon="2.39376">
        <ele>65.6</ele>
        <time>2022-05-28T12:33:52Z</time>
      </trkpt>
      <trkpt lat="49.86499" lon="2.39377">
        <ele>65.5</ele>
        <time>2022-05-28T12:33:53Z</time>
      </trkpt>
      <trkpt lat="49.86499" lon="2.39378">
        <ele>65.5</ele>
        <time>2022-05-28T12:33:54Z</time>
      </trkpt>
      <trkpt lat="49.86498" lon="2.3938">
        <ele>65.5</ele>
        <time>2022-05-28T12:33:55Z</time>
      </trkpt>
      <trkpt lat="49.86498" lon="2.39381">
        <ele>65.5</ele>
        <time>2022-05-28T12:33:56Z</time>
      </trkpt>
      <trkpt lat="49.86498" lon="2.39382">
        <ele>65.5</ele>
        <time>2022-05-28T12:33:57Z</time>
      </trkpt>
      <trkpt lat="49.86497" lon="2.39384">
        <ele>65.5</ele>
        <time>2022-05-28T12:33:58Z</time>
      </trkpt>
      <trkpt lat="49.86497" lon="2.39385">
        <ele>65.5</ele>
        <time>2022-05-28T12:33:59Z</time>
      </trkpt>
      <trkpt lat="49.86497" lon="2.39387">
        <ele>65.5</ele>
        <time>2022-05-28T12:34:00Z</time>
      </trkpt>
      <trkpt lat="49.86496" lon="2.39389">
        <ele>65.4</ele>
        <time>2022-05-28T12:34:01Z</time>
      </trkpt>
      <trkpt lat="49.86496" lon="2.39389">
        <ele>65.4</ele>
        <time>2022-05-28T12:34:02Z</time>
      </trkpt>
      <trkpt lat="49.86495" lon="2.39391">
        <ele>65.4</ele>
        <time>2022-05-28T12:34:03Z</time>
      </trkpt>
      <trkpt lat="49.86495" lon="2.39391">
        <ele>65.4</ele>
        <time>2022-05-28T12:34:04Z</time>
      </trkpt>
      <trkpt lat="49.86494" lon="2.39392">
        <ele>65.4</ele>
        <time>2022-05-28T12:34:05Z</time>
      </trkpt>
      <trkpt lat="49.86494" lon="2.39392">
        <ele>65.4</ele>
        <time>2022-05-28T12:34:06Z</time>
      </trkpt>
      <trkpt lat="49.86494" lon="2.39392">
        <ele>65.4</ele>
        <time>2022-05-28T12:34:07Z</time>
      </trkpt>
      <trkpt lat="49.86494" lon="2.39392">
        <ele>65.4</ele>
        <time>2022-05-28T12:34:08Z</time>
      </trkpt>
      <trkpt lat="49.86494" lon="2.39392">
        <ele>65.4</ele>
        <time>2022-05-28T12:34:09Z</time>
      </trkpt>
      <trkpt lat="49.86494" lon="2.39392">
        <ele>65.4</ele>
        <time>2022-05-28T12:34:10Z</time>
      </trkpt>
      <trkpt lat="49.86494" lon="2.39391">
        <ele>65.4</ele>
        <time>2022-05-28T12:34:11Z</time>
      </trkpt>
      <trkpt lat="49.86494" lon="2.39391">
        <ele>65.4</ele>
        <time>2022-05-28T12:34:12Z</time>
      </trkpt>
      <trkpt lat="49.86494" lon="2.39392">
        <ele>65.4</ele>
        <time>2022-05-28T12:34:13Z</time>
      </trkpt>
      <trkpt lat="49.86494" lon="2.39392">
        <ele>65.4</ele>
        <time>2022-05-28T12:34:14Z</time>
      </trkpt>
      <trkpt lat="49.86494" lon="2.39393">
        <ele>65.4</ele>
        <time>2022-05-28T12:34:15Z</time>
      </trkpt>
      <trkpt lat="49.86493" lon="2.39395">
        <ele>65.4</ele>
        <time>2022-05-28T12:34:16Z</time>
      </trkpt>
      <trkpt lat="49.86493" lon="2.39396">
        <ele>65.4</ele>
        <time>2022-05-28T12:34:17Z</time>
      </trkpt>
      <trkpt lat="49.86493" lon="2.39397">
        <ele>65.3</ele>
        <time>2022-05-28T12:34:18Z</time>
      </trkpt>
      <trkpt lat="49.86493" lon="2.39398">
        <ele>65.3</ele>
        <time>2022-05-28T12:34:19Z</time>
      </trkpt>
      <trkpt lat="49.86493" lon="2.394">
        <ele>65.3</ele>
        <time>2022-05-28T12:34:20Z</time>
      </trkpt>
      <trkpt lat="49.86493" lon="2.39401">
        <ele>65.3</ele>
        <time>2022-05-28T12:34:21Z</time>
      </trkpt>
      <trkpt lat="49.86493" lon="2.39401">
        <ele>65.3</ele>
        <time>2022-05-28T12:34:22Z</time>
      </trkpt>
      <trkpt lat="49.86492" lon="2.39402">
        <ele>65.3</ele>
        <time>2022-05-28T12:34:23Z</time>
      </trkpt>
      <trkpt lat="49.86492" lon="2.39404">
        <ele>65.3</ele>
        <time>2022-05-28T12:34:24Z</time>
      </trkpt>
      <trkpt lat="49.86492" lon="2.39405">
        <ele>65.3</ele>
        <time>2022-05-28T12:34:25Z</time>
      </trkpt>
      <trkpt lat="49.86492" lon="2.39406">
        <ele>65.3</ele>
        <time>2022-05-28T12:34:26Z</time>
      </trkpt>
      <trkpt lat="49.86491" lon="2.39408">
        <ele>65.3</ele>
        <time>2022-05-28T12:34:27Z</time>
      </trkpt>
      <trkpt lat="49.86491" lon="2.39409">
        <ele>65.3</ele>
        <time>2022-05-28T12:34:28Z</time>
      </trkpt>
      <trkpt lat="49.86491" lon="2.39411">
        <ele>65.3</ele>
        <time>2022-05-28T12:34:29Z</time>
      </trkpt>
      <trkpt lat="49.8649" lon="2.39412">
        <ele>65.2</ele>
        <time>2022-05-28T12:34:30Z</time>
      </trkpt>
      <trkpt lat="49.8649" lon="2.39414">
        <ele>65.2</ele>
        <time>2022-05-28T12:34:31Z</time>
      </trkpt>
      <trkpt lat="49.8649" lon="2.39415">
        <ele>65.2</ele>
        <time>2022-05-28T12:34:32Z</time>
      </trkpt>
      <trkpt lat="49.8649" lon="2.39416">
        <ele>65.2</ele>
        <time>2022-05-28T12:34:33Z</time>
      </trkpt>
      <trkpt lat="49.86489" lon="2.39417">
        <ele>65.2</ele>
        <time>2022-05-28T12:34:34Z</time>
      </trkpt>
      <trkpt lat="49.86489" lon="2.39419">
        <ele>65.2</ele>
        <time>2022-05-28T12:34:35Z</time>
      </trkpt>
      <trkpt lat="49.86489" lon="2.3942">
        <ele>65.2</ele>
        <time>2022-05-28T12:34:36Z</time>
      </trkpt>
      <trkpt lat="49.86488" lon="2.39421">
        <ele>65.2</ele>
        <time>2022-05-28T12:34:37Z</time>
      </trkpt>
      <trkpt lat="49.86488" lon="2.39422">
        <ele>65.2</ele>
        <time>2022-05-28T12:34:38Z</time>
      </trkpt>
      <trkpt lat="49.86488" lon="2.39423">
        <ele>65.2</ele>
        <time>2022-05-28T12:34:39Z</time>
      </trkpt>
      <trkpt lat="49.86487" lon="2.39424">
        <ele>65.2</ele>
        <time>2022-05-28T12:34:40Z</time>
      </trkpt>
      <trkpt lat="49.86487" lon="2.39425">
        <ele>65.2</ele>
        <time>2022-05-28T12:34:41Z</time>
      </trkpt>
      <trkpt lat="49.86486" lon="2.39426">
        <ele>65.1</ele>
        <time>2022-05-28T12:34:42Z</time>
      </trkpt>
      <trkpt lat="49.86486" lon="2.39427">
        <ele>65.1</ele>
        <time>2022-05-28T12:34:43Z</time>
      </trkpt>
      <trkpt lat="49.86486" lon="2.39428">
        <ele>65.1</ele>
        <time>2022-05-28T12:34:44Z</time>
      </trkpt>
      <trkpt lat="49.86486" lon="2.39429">
        <ele>65.1</ele>
        <time>2022-05-28T12:34:45Z</time>
      </trkpt>
      <trkpt lat="49.86485" lon="2.3943">
        <ele>65.1</ele>
        <time>2022-05-28T12:34:46Z</time>
      </trkpt>
      <trkpt lat="49.86485" lon="2.39431">
        <ele>65.1</ele>
        <time>2022-05-28T12:34:47Z</time>
      </trkpt>
      <trkpt lat="49.86485" lon="2.39432">
        <ele>65.1</ele>
        <time>2022-05-28T12:34:48Z</time>
      </trkpt>
      <trkpt lat="49.86485" lon="2.39433">
        <ele>65.1</ele>
        <time>2022-05-28T12:34:49Z</time>
      </trkpt>
      <trkpt lat="49.86484" lon="2.39434">
        <ele>65.1</ele>
        <time>2022-05-28T12:34:50Z</time>
      </trkpt>
      <trkpt lat="49.86484" lon="2.39435">
        <ele>65.1</ele>
        <time>2022-05-28T12:34:51Z</time>
      </trkpt>
      <trkpt lat="49.86484" lon="2.39436">
        <ele>65.1</ele>
        <time>2022-05-28T12:34:52Z</time>
      </trkpt>
      <trkpt lat="49.86484" lon="2.39437">
        <ele>65.1</ele>
        <time>2022-05-28T12:34:53Z</time>
      </trkpt>
      <trkpt lat="49.86484" lon="2.39438">
        <ele>65.1</ele>
        <time>2022-05-28T12:34:54Z</time>
      </trkpt>
      <trkpt lat="49.86484" lon="2.39439">
        <ele>65.1</ele>
        <time>2022-05-28T12:34:55Z</time>
      </trkpt>
      <trkpt lat="49.86484" lon="2.39441">
        <ele>65</ele>
        <time>2022-05-28T12:34:56Z</time>
      </trkpt>
      <trkpt lat="49.86484" lon="2.39441">
        <ele>65</ele>
        <time>2022-05-28T12:34:57Z</time>
      </trkpt>
      <trkpt lat="49.86484" lon="2.39442">
        <ele>65</ele>
        <time>2022-05-28T12:34:58Z</time>
      </trkpt>
      <trkpt lat="49.86483" lon="2.39444">
        <ele>65</ele>
        <time>2022-05-28T12:34:59Z</time>
      </trkpt>
      <trkpt lat="49.86483" lon="2.39445">
        <ele>65</ele>
        <time>2022-05-28T12:35:00Z</time>
      </trkpt>
      <trkpt lat="49.86483" lon="2.39446">
        <ele>65</ele>
        <time>2022-05-28T12:35:01Z</time>
      </trkpt>
      <trkpt lat="49.86483" lon="2.39447">
        <ele>65</ele>
        <time>2022-05-28T12:35:02Z</time>
      </trkpt>
      <trkpt lat="49.86483" lon="2.39448">
        <ele>65</ele>
        <time>2022-05-28T12:35:03Z</time>
      </trkpt>
      <trkpt lat="49.86482" lon="2.39449">
        <ele>65</ele>
        <time>2022-05-28T12:35:04Z</time>
      </trkpt>
      <trkpt lat="49.86482" lon="2.3945">
        <ele>65</ele>
        <time>2022-05-28T12:35:05Z</time>
      </trkpt>
      <trkpt lat="49.86482" lon="2.39451">
        <ele>64.9</ele>
        <time>2022-05-28T12:35:06Z</time>
      </trkpt>
      <trkpt lat="49.86481" lon="2.39452">
        <ele>64.9</ele>
        <time>2022-05-28T12:35:07Z</time>
      </trkpt>
      <trkpt lat="49.86481" lon="2.39453">
        <ele>64.9</ele>
        <time>2022-05-28T12:35:08Z</time>
      </trkpt>
      <trkpt lat="49.86481" lon="2.39455">
        <ele>64.9</ele>
        <time>2022-05-28T12:35:09Z</time>
      </trkpt>
      <trkpt lat="49.86481" lon="2.39456">
        <ele>64.9</ele>
        <time>2022-05-28T12:35:10Z</time>
      </trkpt>
      <trkpt lat="49.8648" lon="2.39457">
        <ele>64.9</ele>
        <time>2022-05-28T12:35:11Z</time>
      </trkpt>
      <trkpt lat="49.8648" lon="2.39458">
        <ele>64.9</ele>
        <time>2022-05-28T12:35:12Z</time>
      </trkpt>
      <trkpt lat="49.8648" lon="2.39459">
        <ele>64.9</ele>
        <time>2022-05-28T12:35:13Z</time>
      </trkpt>
      <trkpt lat="49.86479" lon="2.39461">
        <ele>64.9</ele>
        <time>2022-05-28T12:35:14Z</time>
      </trkpt>
      <trkpt lat="49.86479" lon="2.39462">
        <ele>64.8</ele>
        <time>2022-05-28T12:35:15Z</time>
      </trkpt>
      <trkpt lat="49.86479" lon="2.39463">
        <ele>64.8</ele>
        <time>2022-05-28T12:35:16Z</time>
      </trkpt>
      <trkpt lat="49.86479" lon="2.39464">
        <ele>64.8</ele>
        <time>2022-05-28T12:35:17Z</time>
      </trkpt>
      <trkpt lat="49.86479" lon="2.39465">
        <ele>64.8</ele>
        <time>2022-05-28T12:35:18Z</time>
      </trkpt>
      <trkpt lat="49.86479" lon="2.39467">
        <ele>64.8</ele>
        <time>2022-05-28T12:35:19Z</time>
      </trkpt>
      <trkpt lat="49.86478" lon="2.39468">
        <ele>64.8</ele>
        <time>2022-05-28T12:35:20Z</time>
      </trkpt>
      <trkpt lat="49.86478" lon="2.39469">
        <ele>64.8</ele>
        <time>2022-05-28T12:35:21Z</time>
      </trkpt>
      <trkpt lat="49.86478" lon="2.39471">
        <ele>64.8</ele>
        <time>2022-05-28T12:35:22Z</time>
      </trkpt>
      <trkpt lat="49.86478" lon="2.39472">
        <ele>64.8</ele>
        <time>2022-05-28T12:35:23Z</time>
      </trkpt>
      <trkpt lat="49.86478" lon="2.39473">
        <ele>64.7</ele>
        <time>2022-05-28T12:35:24Z</time>
      </trkpt>
      <trkpt lat="49.86477" lon="2.39475">
        <ele>64.7</ele>
        <time>2022-05-28T12:35:25Z</time>
      </trkpt>
      <trkpt lat="49.86477" lon="2.39477">
        <ele>64.7</ele>
        <time>2022-05-28T12:35:26Z</time>
      </trkpt>
      <trkpt lat="49.86477" lon="2.39478">
        <ele>64.7</ele>
        <time>2022-05-28T12:35:27Z</time>
      </trkpt>
      <trkpt lat="49.86476" lon="2.39479">
        <ele>64.7</ele>
        <time>2022-05-28T12:35:28Z</time>
      </trkpt>
      <trkpt lat="49.86476" lon="2.3948">
        <ele>64.7</ele>
        <time>2022-05-28T12:35:29Z</time>
      </trkpt>
      <trkpt lat="49.86476" lon="2.39482">
        <ele>64.7</ele>
        <time>2022-05-28T12:35:30Z</time>
      </trkpt>
      <trkpt lat="49.86476" lon="2.39484">
        <ele>64.7</ele>
        <time>2022-05-28T12:35:31Z</time>
      </trkpt>
      <trkpt lat="49.86476" lon="2.39485">
        <ele>64.7</ele>
        <time>2022-05-28T12:35:32Z</time>
      </trkpt>
      <trkpt lat="49.86475" lon="2.39487">
        <ele>64.6</ele>
        <time>2022-05-28T12:35:33Z</time>
      </trkpt>
      <trkpt lat="49.86475" lon="2.39488">
        <ele>64.6</ele>
        <time>2022-05-28T12:35:34Z</time>
      </trkpt>
      <trkpt lat="49.86475" lon="2.3949">
        <ele>64.6</ele>
        <time>2022-05-28T12:35:35Z</time>
      </trkpt>
      <trkpt lat="49.86475" lon="2.39491">
        <ele>64.6</ele>
        <time>2022-05-28T12:35:36Z</time>
      </trkpt>
      <trkpt lat="49.86475" lon="2.39492">
        <ele>64.6</ele>
        <time>2022-05-28T12:35:37Z</time>
      </trkpt>
      <trkpt lat="49.86475" lon="2.39493">
        <ele>64.6</ele>
        <time>2022-05-28T12:35:38Z</time>
      </trkpt>
      <trkpt lat="49.86474" lon="2.39494">
        <ele>64.6</ele>
        <time>2022-05-28T12:35:39Z</time>
      </trkpt>
      <trkpt lat="49.86474" lon="2.39495">
        <ele>64.6</ele>
        <time>2022-05-28T12:35:40Z</time>
      </trkpt>
      <trkpt lat="49.86474" lon="2.39497">
        <ele>64.6</ele>
        <time>2022-05-28T12:35:41Z</time>
      </trkpt>
      <trkpt lat="49.86474" lon="2.39498">
        <ele>64.6</ele>
        <time>2022-05-28T12:35:42Z</time>
      </trkpt>
      <trkpt lat="49.86474" lon="2.39499">
        <ele>64.6</ele>
        <time>2022-05-28T12:35:43Z</time>
      </trkpt>
      <trkpt lat="49.86474" lon="2.395">
        <ele>64.5</ele>
        <time>2022-05-28T12:35:44Z</time>
      </trkpt>
      <trkpt lat="49.86474" lon="2.39501">
        <ele>64.5</ele>
        <time>2022-05-28T12:35:45Z</time>
      </trkpt>
      <trkpt lat="49.86474" lon="2.39502">
        <ele>64.5</ele>
        <time>2022-05-28T12:35:46Z</time>
      </trkpt>
      <trkpt lat="49.86473" lon="2.39504">
        <ele>64.5</ele>
        <time>2022-05-28T12:35:47Z</time>
      </trkpt>
      <trkpt lat="49.86473" lon="2.39505">
        <ele>64.5</ele>
        <time>2022-05-28T12:35:48Z</time>
      </trkpt>
      <trkpt lat="49.86472" lon="2.39506">
        <ele>64.5</ele>
        <time>2022-05-28T12:35:49Z</time>
      </trkpt>
      <trkpt lat="49.86472" lon="2.39508">
        <ele>64.5</ele>
        <time>2022-05-28T12:35:50Z</time>
      </trkpt>
      <trkpt lat="49.86472" lon="2.39509">
        <ele>64.5</ele>
        <time>2022-05-28T12:35:51Z</time>
      </trkpt>
      <trkpt lat="49.86471" lon="2.39509">
        <ele>64.5</ele>
        <time>2022-05-28T12:35:52Z</time>
      </trkpt>
      <trkpt lat="49.86471" lon="2.3951">
        <ele>64.5</ele>
        <time>2022-05-28T12:35:53Z</time>
      </trkpt>
      <trkpt lat="49.86471" lon="2.39511">
        <ele>64.5</ele>
        <time>2022-05-28T12:35:54Z</time>
      </trkpt>
      <trkpt lat="49.86471" lon="2.39511">
        <ele>64.5</ele>
        <time>2022-05-28T12:35:55Z</time>
      </trkpt>
      <trkpt lat="49.8647" lon="2.39512">
        <ele>64.5</ele>
        <time>2022-05-28T12:35:56Z</time>
      </trkpt>
      <trkpt lat="49.8647" lon="2.39512">
        <ele>64.5</ele>
        <time>2022-05-28T12:35:57Z</time>
      </trkpt>
      <trkpt lat="49.8647" lon="2.39512">
        <ele>64.5</ele>
        <time>2022-05-28T12:35:58Z</time>
      </trkpt>
      <trkpt lat="49.8647" lon="2.39512">
        <ele>64.5</ele>
        <time>2022-05-28T12:35:59Z</time>
      </trkpt>
      <trkpt lat="49.8647" lon="2.39512">
        <ele>64.5</ele>
        <time>2022-05-28T12:36:00Z</time>
      </trkpt>
      <trkpt lat="49.8647" lon="2.39512">
        <ele>64.5</ele>
        <time>2022-05-28T12:36:01Z</time>
      </trkpt>
      <trkpt lat="49.8647" lon="2.39511">
        <ele>64.5</ele>
        <time>2022-05-28T12:36:02Z</time>
      </trkpt>
      <trkpt lat="49.8647" lon="2.39511">
        <ele>64.5</ele>
        <time>2022-05-28T12:36:03Z</time>
      </trkpt>
      <trkpt lat="49.86471" lon="2.39511">
        <ele>64.5</ele>
        <time>2022-05-28T12:36:04Z</time>
      </trkpt>
      <trkpt lat="49.86471" lon="2.39511">
        <ele>64.5</ele>
        <time>2022-05-28T12:36:05Z</time>
      </trkpt>
      <trkpt lat="49.8647" lon="2.39512">
        <ele>64.5</ele>
        <time>2022-05-28T12:36:06Z</time>
      </trkpt>
      <trkpt lat="49.8647" lon="2.39512">
        <ele>64.5</ele>
        <time>2022-05-28T12:36:07Z</time>
      </trkpt>
      <trkpt lat="49.8647" lon="2.39512">
        <ele>64.5</ele>
        <time>2022-05-28T12:36:08Z</time>
      </trkpt>
      <trkpt lat="49.8647" lon="2.39512">
        <ele>64.5</ele>
        <time>2022-05-28T12:36:09Z</time>
      </trkpt>
      <trkpt lat="49.8647" lon="2.39513">
        <ele>64.5</ele>
        <time>2022-05-28T12:36:10Z</time>
      </trkpt>
      <trkpt lat="49.8647" lon="2.39513">
        <ele>64.5</ele>
        <time>2022-05-28T12:36:11Z</time>
      </trkpt>
      <trkpt lat="49.8647" lon="2.39513">
        <ele>64.5</ele>
        <time>2022-05-28T12:36:12Z</time>
      </trkpt>
      <trkpt lat="49.8647" lon="2.39514">
        <ele>64.4</ele>
        <time>2022-05-28T12:36:13Z</time>
      </trkpt>
      <trkpt lat="49.86471" lon="2.39514">
        <ele>64.4</ele>
        <time>2022-05-28T12:36:14Z</time>
      </trkpt>
      <trkpt lat="49.86471" lon="2.39515">
        <ele>64.4</ele>
        <time>2022-05-28T12:36:15Z</time>
      </trkpt>
      <trkpt lat="49.86471" lon="2.39516">
        <ele>64.4</ele>
        <time>2022-05-28T12:36:16Z</time>
      </trkpt>
      <trkpt lat="49.8647" lon="2.39517">
        <ele>64.4</ele>
        <time>2022-05-28T12:36:17Z</time>
      </trkpt>
      <trkpt lat="49.8647" lon="2.39518">
        <ele>64.4</ele>
        <time>2022-05-28T12:36:18Z</time>
      </trkpt>
      <trkpt lat="49.8647" lon="2.39521">
        <ele>64.4</ele>
        <time>2022-05-28T12:36:19Z</time>
      </trkpt>
      <trkpt lat="49.8647" lon="2.39522">
        <ele>64.4</ele>
        <time>2022-05-28T12:36:20Z</time>
      </trkpt>
      <trkpt lat="49.86469" lon="2.39523">
        <ele>64.4</ele>
        <time>2022-05-28T12:36:21Z</time>
      </trkpt>
      <trkpt lat="49.86469" lon="2.39524">
        <ele>64.4</ele>
        <time>2022-05-28T12:36:22Z</time>
      </trkpt>
      <trkpt lat="49.86469" lon="2.39525">
        <ele>64.4</ele>
        <time>2022-05-28T12:36:23Z</time>
      </trkpt>
      <trkpt lat="49.86469" lon="2.39527">
        <ele>64.4</ele>
        <time>2022-05-28T12:36:24Z</time>
      </trkpt>
      <trkpt lat="49.86469" lon="2.39528">
        <ele>64.4</ele>
        <time>2022-05-28T12:36:25Z</time>
      </trkpt>
      <trkpt lat="49.86468" lon="2.3953">
        <ele>64.4</ele>
        <time>2022-05-28T12:36:26Z</time>
      </trkpt>
      <trkpt lat="49.86468" lon="2.39531">
        <ele>64.4</ele>
        <time>2022-05-28T12:36:27Z</time>
      </trkpt>
      <trkpt lat="49.86468" lon="2.39533">
        <ele>64.4</ele>
        <time>2022-05-28T12:36:28Z</time>
      </trkpt>
      <trkpt lat="49.86468" lon="2.39534">
        <ele>64.4</ele>
        <time>2022-05-28T12:36:29Z</time>
      </trkpt>
      <trkpt lat="49.86467" lon="2.39536">
        <ele>64.4</ele>
        <time>2022-05-28T12:36:30Z</time>
      </trkpt>
      <trkpt lat="49.86467" lon="2.39537">
        <ele>64.3</ele>
        <time>2022-05-28T12:36:31Z</time>
      </trkpt>
      <trkpt lat="49.86467" lon="2.39538">
        <ele>64.3</ele>
        <time>2022-05-28T12:36:32Z</time>
      </trkpt>
      <trkpt lat="49.86467" lon="2.3954">
        <ele>64.3</ele>
        <time>2022-05-28T12:36:33Z</time>
      </trkpt>
      <trkpt lat="49.86466" lon="2.39541">
        <ele>64.3</ele>
        <time>2022-05-28T12:36:34Z</time>
      </trkpt>
      <trkpt lat="49.86466" lon="2.39543">
        <ele>64.3</ele>
        <time>2022-05-28T12:36:35Z</time>
      </trkpt>
      <trkpt lat="49.86466" lon="2.39544">
        <ele>64.3</ele>
        <time>2022-05-28T12:36:36Z</time>
      </trkpt>
      <trkpt lat="49.86466" lon="2.39546">
        <ele>64.3</ele>
        <time>2022-05-28T12:36:37Z</time>
      </trkpt>
      <trkpt lat="49.86465" lon="2.39547">
        <ele>64.3</ele>
        <time>2022-05-28T12:36:38Z</time>
      </trkpt>
      <trkpt lat="49.86465" lon="2.39548">
        <ele>64.3</ele>
        <time>2022-05-28T12:36:39Z</time>
      </trkpt>
      <trkpt lat="49.86465" lon="2.39549">
        <ele>64.3</ele>
        <time>2022-05-28T12:36:40Z</time>
      </trkpt>
      <trkpt lat="49.86465" lon="2.3955">
        <ele>64.3</ele>
        <time>2022-05-28T12:36:41Z</time>
      </trkpt>
      <trkpt lat="49.86465" lon="2.39552">
        <ele>64.3</ele>
        <time>2022-05-28T12:36:42Z</time>
      </trkpt>
      <trkpt lat="49.86465" lon="2.39553">
        <ele>64.3</ele>
        <time>2022-05-28T12:36:43Z</time>
      </trkpt>
      <trkpt lat="49.86464" lon="2.39555">
        <ele>64.3</ele>
        <time>2022-05-28T12:36:44Z</time>
      </trkpt>
      <trkpt lat="49.86464" lon="2.39556">
        <ele>64.3</ele>
        <time>2022-05-28T12:36:45Z</time>
      </trkpt>
      <trkpt lat="49.86464" lon="2.39557">
        <ele>64.3</ele>
        <time>2022-05-28T12:36:46Z</time>
      </trkpt>
      <trkpt lat="49.86464" lon="2.39558">
        <ele>64.3</ele>
        <time>2022-05-28T12:36:47Z</time>
      </trkpt>
      <trkpt lat="49.86463" lon="2.39559">
        <ele>64.3</ele>
        <time>2022-05-28T12:36:48Z</time>
      </trkpt>
      <trkpt lat="49.86463" lon="2.3956">
        <ele>64.3</ele>
        <time>2022-05-28T12:36:49Z</time>
      </trkpt>
      <trkpt lat="49.86463" lon="2.39561">
        <ele>64.3</ele>
        <time>2022-05-28T12:36:50Z</time>
      </trkpt>
      <trkpt lat="49.86463" lon="2.39562">
        <ele>64.3</ele>
        <time>2022-05-28T12:36:51Z</time>
      </trkpt>
      <trkpt lat="49.86463" lon="2.39563">
        <ele>64.3</ele>
        <time>2022-05-28T12:36:52Z</time>
      </trkpt>
      <trkpt lat="49.86463" lon="2.39564">
        <ele>64.3</ele>
        <time>2022-05-28T12:36:53Z</time>
      </trkpt>
      <trkpt lat="49.86463" lon="2.39564">
        <ele>64.3</ele>
        <time>2022-05-28T12:36:54Z</time>
      </trkpt>
      <trkpt lat="49.86462" lon="2.39565">
        <ele>64.3</ele>
        <time>2022-05-28T12:36:55Z</time>
      </trkpt>
      <trkpt lat="49.86462" lon="2.39566">
        <ele>64.3</ele>
        <time>2022-05-28T12:36:56Z</time>
      </trkpt>
      <trkpt lat="49.86462" lon="2.39567">
        <ele>64.2</ele>
        <time>2022-05-28T12:36:57Z</time>
      </trkpt>
      <trkpt lat="49.86462" lon="2.39568">
        <ele>64.2</ele>
        <time>2022-05-28T12:36:58Z</time>
      </trkpt>
      <trkpt lat="49.86461" lon="2.39568">
        <ele>64.2</ele>
        <time>2022-05-28T12:36:59Z</time>
      </trkpt>
      <trkpt lat="49.86461" lon="2.39569">
        <ele>64.2</ele>
        <time>2022-05-28T12:37:00Z</time>
      </trkpt>
      <trkpt lat="49.86461" lon="2.3957">
        <ele>64.2</ele>
        <time>2022-05-28T12:37:01Z</time>
      </trkpt>
      <trkpt lat="49.8646" lon="2.39571">
        <ele>64.2</ele>
        <time>2022-05-28T12:37:02Z</time>
      </trkpt>
      <trkpt lat="49.8646" lon="2.39573">
        <ele>64.2</ele>
        <time>2022-05-28T12:37:03Z</time>
      </trkpt>
      <trkpt lat="49.86459" lon="2.39574">
        <ele>64.2</ele>
        <time>2022-05-28T12:37:04Z</time>
      </trkpt>
      <trkpt lat="49.86459" lon="2.39576">
        <ele>64.2</ele>
        <time>2022-05-28T12:37:05Z</time>
      </trkpt>
      <trkpt lat="49.86458" lon="2.39577">
        <ele>64.2</ele>
        <time>2022-05-28T12:37:06Z</time>
      </trkpt>
      <trkpt lat="49.86458" lon="2.39579">
        <ele>64.2</ele>
        <time>2022-05-28T12:37:07Z</time>
      </trkpt>
      <trkpt lat="49.86457" lon="2.3958">
        <ele>64.2</ele>
        <time>2022-05-28T12:37:08Z</time>
      </trkpt>
      <trkpt lat="49.86457" lon="2.39581">
        <ele>64.2</ele>
        <time>2022-05-28T12:37:09Z</time>
      </trkpt>
      <trkpt lat="49.86457" lon="2.39583">
        <ele>64.2</ele>
        <time>2022-05-28T12:37:10Z</time>
      </trkpt>
      <trkpt lat="49.86456" lon="2.39585">
        <ele>64.2</ele>
        <time>2022-05-28T12:37:11Z</time>
      </trkpt>
      <trkpt lat="49.86456" lon="2.39586">
        <ele>64.2</ele>
        <time>2022-05-28T12:37:12Z</time>
      </trkpt>
      <trkpt lat="49.86456" lon="2.39588">
        <ele>64.2</ele>
        <time>2022-05-28T12:37:13Z</time>
      </trkpt>
      <trkpt lat="49.86456" lon="2.39589">
        <ele>64.2</ele>
        <time>2022-05-28T12:37:14Z</time>
      </trkpt>
      <trkpt lat="49.86455" lon="2.3959">
        <ele>64.2</ele>
        <time>2022-05-28T12:37:15Z</time>
      </trkpt>
      <trkpt lat="49.86455" lon="2.39591">
        <ele>64.2</ele>
        <time>2022-05-28T12:37:16Z</time>
      </trkpt>
      <trkpt lat="49.86455" lon="2.39593">
        <ele>64.2</ele>
        <time>2022-05-28T12:37:17Z</time>
      </trkpt>
      <trkpt lat="49.86455" lon="2.39594">
        <ele>64.2</ele>
        <time>2022-05-28T12:37:18Z</time>
      </trkpt>
      <trkpt lat="49.86455" lon="2.39595">
        <ele>64.2</ele>
        <time>2022-05-28T12:37:19Z</time>
      </trkpt>
      <trkpt lat="49.86454" lon="2.39596">
        <ele>64.2</ele>
        <time>2022-05-28T12:37:20Z</time>
      </trkpt>
      <trkpt lat="49.86454" lon="2.39598">
        <ele>64.2</ele>
        <time>2022-05-28T12:37:21Z</time>
      </trkpt>
      <trkpt lat="49.86454" lon="2.39599">
        <ele>64.2</ele>
        <time>2022-05-28T12:37:22Z</time>
      </trkpt>
      <trkpt lat="49.86454" lon="2.39601">
        <ele>64.2</ele>
        <time>2022-05-28T12:37:23Z</time>
      </trkpt>
      <trkpt lat="49.86453" lon="2.39603">
        <ele>64.2</ele>
        <time>2022-05-28T12:37:24Z</time>
      </trkpt>
      <trkpt lat="49.86453" lon="2.39604">
        <ele>64.2</ele>
        <time>2022-05-28T12:37:25Z</time>
      </trkpt>
      <trkpt lat="49.86453" lon="2.39606">
        <ele>64.2</ele>
        <time>2022-05-28T12:37:26Z</time>
      </trkpt>
      <trkpt lat="49.86453" lon="2.39607">
        <ele>64.2</ele>
        <time>2022-05-28T12:37:27Z</time>
      </trkpt>
      <trkpt lat="49.86453" lon="2.39609">
        <ele>64.3</ele>
        <time>2022-05-28T12:37:28Z</time>
      </trkpt>
      <trkpt lat="49.86453" lon="2.3961">
        <ele>64.3</ele>
        <time>2022-05-28T12:37:29Z</time>
      </trkpt>
      <trkpt lat="49.86453" lon="2.39611">
        <ele>64.3</ele>
        <time>2022-05-28T12:37:30Z</time>
      </trkpt>
      <trkpt lat="49.86453" lon="2.39612">
        <ele>64.3</ele>
        <time>2022-05-28T12:37:31Z</time>
      </trkpt>
      <trkpt lat="49.86453" lon="2.39613">
        <ele>64.3</ele>
        <time>2022-05-28T12:37:32Z</time>
      </trkpt>
      <trkpt lat="49.86453" lon="2.39614">
        <ele>64.3</ele>
        <time>2022-05-28T12:37:33Z</time>
      </trkpt>
      <trkpt lat="49.86453" lon="2.39615">
        <ele>64.3</ele>
        <time>2022-05-28T12:37:34Z</time>
      </trkpt>
      <trkpt lat="49.86452" lon="2.39616">
        <ele>64.3</ele>
        <time>2022-05-28T12:37:35Z</time>
      </trkpt>
      <trkpt lat="49.86452" lon="2.39617">
        <ele>64.3</ele>
        <time>2022-05-28T12:37:36Z</time>
      </trkpt>
      <trkpt lat="49.86452" lon="2.39618">
        <ele>64.3</ele>
        <time>2022-05-28T12:37:37Z</time>
      </trkpt>
      <trkpt lat="49.86452" lon="2.39619">
        <ele>64.3</ele>
        <time>2022-05-28T12:37:38Z</time>
      </trkpt>
      <trkpt lat="49.86452" lon="2.3962">
        <ele>64.3</ele>
        <time>2022-05-28T12:37:39Z</time>
      </trkpt>
      <trkpt lat="49.86451" lon="2.39621">
        <ele>64.3</ele>
        <time>2022-05-28T12:37:40Z</time>
      </trkpt>
      <trkpt lat="49.86451" lon="2.39622">
        <ele>64.3</ele>
        <time>2022-05-28T12:37:41Z</time>
      </trkpt>
      <trkpt lat="49.86451" lon="2.39623">
        <ele>64.3</ele>
        <time>2022-05-28T12:37:42Z</time>
      </trkpt>
      <trkpt lat="49.8645" lon="2.39623">
        <ele>64.3</ele>
        <time>2022-05-28T12:37:43Z</time>
      </trkpt>
      <trkpt lat="49.8645" lon="2.39624">
        <ele>64.3</ele>
        <time>2022-05-28T12:37:44Z</time>
      </trkpt>
      <trkpt lat="49.8645" lon="2.39624">
        <ele>64.3</ele>
        <time>2022-05-28T12:37:45Z</time>
      </trkpt>
      <trkpt lat="49.8645" lon="2.39624">
        <ele>64.3</ele>
        <time>2022-05-28T12:37:46Z</time>
      </trkpt>
      <trkpt lat="49.8645" lon="2.39624">
        <ele>64.3</ele>
        <time>2022-05-28T12:37:47Z</time>
      </trkpt>
      <trkpt lat="49.8645" lon="2.39624">
        <ele>64.3</ele>
        <time>2022-05-28T12:37:48Z</time>
      </trkpt>
      <trkpt lat="49.8645" lon="2.39623">
        <ele>64.3</ele>
        <time>2022-05-28T12:37:49Z</time>
      </trkpt>
      <trkpt lat="49.8645" lon="2.39623">
        <ele>64.3</ele>
        <time>2022-05-28T12:37:50Z</time>
      </trkpt>
      <trkpt lat="49.8645" lon="2.39623">
        <ele>64.3</ele>
        <time>2022-05-28T12:37:51Z</time>
      </trkpt>
      <trkpt lat="49.8645" lon="2.39623">
        <ele>64.3</ele>
        <time>2022-05-28T12:37:52Z</time>
      </trkpt>
      <trkpt lat="49.8645" lon="2.39623">
        <ele>64.3</ele>
        <time>2022-05-28T12:37:53Z</time>
      </trkpt>
      <trkpt lat="49.86449" lon="2.39623">
        <ele>64.3</ele>
        <time>2022-05-28T12:37:54Z</time>
      </trkpt>
      <trkpt lat="49.86449" lon="2.39623">
        <ele>64.3</ele>
        <time>2022-05-28T12:37:55Z</time>
      </trkpt>
      <trkpt lat="49.86449" lon="2.39622">
        <ele>64.3</ele>
        <time>2022-05-28T12:37:56Z</time>
      </trkpt>
      <trkpt lat="49.86449" lon="2.39622">
        <ele>64.3</ele>
        <time>2022-05-28T12:37:57Z</time>
      </trkpt>
      <trkpt lat="49.86449" lon="2.39622">
        <ele>64.3</ele>
        <time>2022-05-28T12:37:58Z</time>
      </trkpt>
      <trkpt lat="49.86449" lon="2.39622">
        <ele>64.3</ele>
        <time>2022-05-28T12:37:59Z</time>
      </trkpt>
      <trkpt lat="49.86449" lon="2.39622">
        <ele>64.3</ele>
        <time>2022-05-28T12:38:00Z</time>
      </trkpt>
      <trkpt lat="49.86449" lon="2.39622">
        <ele>64.3</ele>
        <time>2022-05-28T12:38:01Z</time>
      </trkpt>
      <trkpt lat="49.86449" lon="2.39622">
        <ele>64.3</ele>
        <time>2022-05-28T12:38:02Z</time>
      </trkpt>
      <trkpt lat="49.86449" lon="2.39623">
        <ele>64.3</ele>
        <time>2022-05-28T12:38:03Z</time>
      </trkpt>
      <trkpt lat="49.8645" lon="2.39625">
        <ele>64.3</ele>
        <time>2022-05-28T12:38:04Z</time>
      </trkpt>
      <trkpt lat="49.8645" lon="2.39627">
        <ele>64.3</ele>
        <time>2022-05-28T12:38:05Z</time>
      </trkpt>
      <trkpt lat="49.8645" lon="2.39628">
        <ele>64.3</ele>
        <time>2022-05-28T12:38:06Z</time>
      </trkpt>
      <trkpt lat="49.8645" lon="2.39629">
        <ele>64.3</ele>
        <time>2022-05-28T12:38:07Z</time>
      </trkpt>
      <trkpt lat="49.8645" lon="2.39629">
        <ele>64.3</ele>
        <time>2022-05-28T12:38:08Z</time>
      </trkpt>
      <trkpt lat="49.86451" lon="2.3963">
        <ele>64.3</ele>
        <time>2022-05-28T12:38:09Z</time>
      </trkpt>
      <trkpt lat="49.86451" lon="2.3963">
        <ele>64.3</ele>
        <time>2022-05-28T12:38:10Z</time>
      </trkpt>
      <trkpt lat="49.86451" lon="2.39631">
        <ele>64.3</ele>
        <time>2022-05-28T12:38:11Z</time>
      </trkpt>
      <trkpt lat="49.86451" lon="2.39632">
        <ele>64.3</ele>
        <time>2022-05-28T12:38:12Z</time>
      </trkpt>
      <trkpt lat="49.8645" lon="2.39632">
        <ele>64.3</ele>
        <time>2022-05-28T12:38:13Z</time>
      </trkpt>
      <trkpt lat="49.8645" lon="2.39631">
        <ele>64.3</ele>
        <time>2022-05-28T12:38:14Z</time>
      </trkpt>
      <trkpt lat="49.8645" lon="2.39631">
        <ele>64.3</ele>
        <time>2022-05-28T12:38:15Z</time>
      </trkpt>
      <trkpt lat="49.8645" lon="2.3963">
        <ele>64.3</ele>
        <time>2022-05-28T12:38:16Z</time>
      </trkpt>
      <trkpt lat="49.8645" lon="2.3963">
        <ele>64.3</ele>
        <time>2022-05-28T12:38:17Z</time>
      </trkpt>
      <trkpt lat="49.8645" lon="2.3963">
        <ele>64.3</ele>
        <time>2022-05-28T12:38:18Z</time>
      </trkpt>
      <trkpt lat="49.8645" lon="2.3963">
        <ele>64.3</ele>
        <time>2022-05-28T12:38:19Z</time>
      </trkpt>
      <trkpt lat="49.8645" lon="2.3963">
        <ele>64.3</ele>
        <time>2022-05-28T12:38:20Z</time>
      </trkpt>
      <trkpt lat="49.8645" lon="2.3963">
        <ele>64.3</ele>
        <time>2022-05-28T12:38:21Z</time>
      </trkpt>
      <trkpt lat="49.8645" lon="2.3963">
        <ele>64.3</ele>
        <time>2022-05-28T12:38:22Z</time>
      </trkpt>
      <trkpt lat="49.8645" lon="2.39629">
        <ele>64.3</ele>
        <time>2022-05-28T12:38:23Z</time>
      </trkpt>
      <trkpt lat="49.8645" lon="2.39628">
        <ele>64.3</ele>
        <time>2022-05-28T12:38:24Z</time>
      </trkpt>
      <trkpt lat="49.86451" lon="2.39628">
        <ele>64.3</ele>
        <time>2022-05-28T12:38:25Z</time>
      </trkpt>
      <trkpt lat="49.86451" lon="2.39628">
        <ele>64.3</ele>
        <time>2022-05-28T12:38:26Z</time>
      </trkpt>
      <trkpt lat="49.86451" lon="2.39628">
        <ele>64.3</ele>
        <time>2022-05-28T12:38:27Z</time>
      </trkpt>
      <trkpt lat="49.86452" lon="2.39629">
        <ele>64.3</ele>
        <time>2022-05-28T12:38:28Z</time>
      </trkpt>
      <trkpt lat="49.86452" lon="2.3963">
        <ele>64.3</ele>
        <time>2022-05-28T12:38:29Z</time>
      </trkpt>
      <trkpt lat="49.86453" lon="2.39631">
        <ele>64.3</ele>
        <time>2022-05-28T12:38:30Z</time>
      </trkpt>
      <trkpt lat="49.86453" lon="2.39631">
        <ele>64.3</ele>
        <time>2022-05-28T12:38:31Z</time>
      </trkpt>
      <trkpt lat="49.86453" lon="2.39632">
        <ele>64.3</ele>
        <time>2022-05-28T12:38:32Z</time>
      </trkpt>
      <trkpt lat="49.86453" lon="2.39634">
        <ele>64.3</ele>
        <time>2022-05-28T12:38:33Z</time>
      </trkpt>
      <trkpt lat="49.86453" lon="2.39635">
        <ele>64.3</ele>
        <time>2022-05-28T12:38:34Z</time>
      </trkpt>
      <trkpt lat="49.86453" lon="2.39636">
        <ele>64.3</ele>
        <time>2022-05-28T12:38:35Z</time>
      </trkpt>
      <trkpt lat="49.86453" lon="2.39638">
        <ele>64.3</ele>
        <time>2022-05-28T12:38:36Z</time>
      </trkpt>
      <trkpt lat="49.86453" lon="2.39639">
        <ele>64.3</ele>
        <time>2022-05-28T12:38:37Z</time>
      </trkpt>
      <trkpt lat="49.86453" lon="2.39641">
        <ele>64.3</ele>
        <time>2022-05-28T12:38:38Z</time>
      </trkpt>
      <trkpt lat="49.86453" lon="2.39643">
        <ele>64.3</ele>
        <time>2022-05-28T12:38:39Z</time>
      </trkpt>
      <trkpt lat="49.86453" lon="2.39644">
        <ele>64.3</ele>
        <time>2022-05-28T12:38:40Z</time>
      </trkpt>
      <trkpt lat="49.86453" lon="2.39646">
        <ele>64.3</ele>
        <time>2022-05-28T12:38:41Z</time>
      </trkpt>
      <trkpt lat="49.86454" lon="2.39648">
        <ele>64.3</ele>
        <time>2022-05-28T12:38:42Z</time>
      </trkpt>
      <trkpt lat="49.86454" lon="2.39649">
        <ele>64.3</ele>
        <time>2022-05-28T12:38:43Z</time>
      </trkpt>
      <trkpt lat="49.86454" lon="2.39651">
        <ele>64.3</ele>
        <time>2022-05-28T12:38:44Z</time>
      </trkpt>
      <trkpt lat="49.86455" lon="2.39652">
        <ele>64.3</ele>
        <time>2022-05-28T12:38:45Z</time>
      </trkpt>
      <trkpt lat="49.86455" lon="2.39654">
        <ele>64.3</ele>
        <time>2022-05-28T12:38:46Z</time>
      </trkpt>
      <trkpt lat="49.86455" lon="2.39656">
        <ele>64.3</ele>
        <time>2022-05-28T12:38:47Z</time>
      </trkpt>
      <trkpt lat="49.86455" lon="2.39657">
        <ele>64.3</ele>
        <time>2022-05-28T12:38:48Z</time>
      </trkpt>
      <trkpt lat="49.86455" lon="2.39659">
        <ele>64.3</ele>
        <time>2022-05-28T12:38:49Z</time>
      </trkpt>
      <trkpt lat="49.86455" lon="2.3966">
        <ele>64.3</ele>
        <time>2022-05-28T12:38:50Z</time>
      </trkpt>
      <trkpt lat="49.86455" lon="2.39662">
        <ele>64.3</ele>
        <time>2022-05-28T12:38:51Z</time>
      </trkpt>
      <trkpt lat="49.86455" lon="2.39663">
        <ele>64.3</ele>
        <time>2022-05-28T12:38:52Z</time>
      </trkpt>
      <trkpt lat="49.86455" lon="2.39664">
        <ele>64.3</ele>
        <time>2022-05-28T12:38:53Z</time>
      </trkpt>
      <trkpt lat="49.86455" lon="2.39666">
        <ele>64.3</ele>
        <time>2022-05-28T12:38:54Z</time>
      </trkpt>
      <trkpt lat="49.86455" lon="2.39667">
        <ele>64.3</ele>
        <time>2022-05-28T12:38:55Z</time>
      </trkpt>
      <trkpt lat="49.86455" lon="2.39668">
        <ele>64.3</ele>
        <time>2022-05-28T12:38:56Z</time>
      </trkpt>
      <trkpt lat="49.86455" lon="2.39669">
        <ele>64.3</ele>
        <time>2022-05-28T12:38:57Z</time>
      </trkpt>
      <trkpt lat="49.86456" lon="2.39671">
        <ele>64.3</ele>
        <time>2022-05-28T12:38:58Z</time>
      </trkpt>
      <trkpt lat="49.86456" lon="2.39672">
        <ele>64.3</ele>
        <time>2022-05-28T12:38:59Z</time>
      </trkpt>
      <trkpt lat="49.86456" lon="2.39673">
        <ele>64.3</ele>
        <time>2022-05-28T12:39:00Z</time>
      </trkpt>
      <trkpt lat="49.86456" lon="2.39675">
        <ele>64.3</ele>
        <time>2022-05-28T12:39:01Z</time>
      </trkpt>
      <trkpt lat="49.86456" lon="2.39676">
        <ele>64.3</ele>
        <time>2022-05-28T12:39:02Z</time>
      </trkpt>
      <trkpt lat="49.86456" lon="2.39678">
        <ele>64.3</ele>
        <time>2022-05-28T12:39:03Z</time>
      </trkpt>
      <trkpt lat="49.86456" lon="2.39679">
        <ele>64.3</ele>
        <time>2022-05-28T12:39:04Z</time>
      </trkpt>
      <trkpt lat="49.86456" lon="2.39681">
        <ele>64.3</ele>
        <time>2022-05-28T12:39:05Z</time>
      </trkpt>
      <trkpt lat="49.86456" lon="2.39682">
        <ele>64.3</ele>
        <time>2022-05-28T12:39:06Z</time>
      </trkpt>
      <trkpt lat="49.86456" lon="2.39684">
        <ele>64.3</ele>
        <time>2022-05-28T12:39:07Z</time>
      </trkpt>
      <trkpt lat="49.86456" lon="2.39685">
        <ele>64.3</ele>
        <time>2022-05-28T12:39:08Z</time>
      </trkpt>
      <trkpt lat="49.86456" lon="2.39687">
        <ele>64.3</ele>
        <time>2022-05-28T12:39:09Z</time>
      </trkpt>
      <trkpt lat="49.86456" lon="2.39689">
        <ele>64.3</ele>
        <time>2022-05-28T12:39:10Z</time>
      </trkpt>
      <trkpt lat="49.86457" lon="2.3969">
        <ele>64.3</ele>
        <time>2022-05-28T12:39:11Z</time>
      </trkpt>
      <trkpt lat="49.86457" lon="2.39692">
        <ele>64.3</ele>
        <time>2022-05-28T12:39:12Z</time>
      </trkpt>
      <trkpt lat="49.86456" lon="2.39693">
        <ele>64.3</ele>
        <time>2022-05-28T12:39:13Z</time>
      </trkpt>
      <trkpt lat="49.86456" lon="2.39695">
        <ele>64.3</ele>
        <time>2022-05-28T12:39:14Z</time>
      </trkpt>
      <trkpt lat="49.86456" lon="2.39696">
        <ele>64.4</ele>
        <time>2022-05-28T12:39:15Z</time>
      </trkpt>
      <trkpt lat="49.86456" lon="2.39697">
        <ele>64.4</ele>
        <time>2022-05-28T12:39:16Z</time>
      </trkpt>
      <trkpt lat="49.86456" lon="2.39699">
        <ele>64.4</ele>
        <time>2022-05-28T12:39:17Z</time>
      </trkpt>
      <trkpt lat="49.86456" lon="2.39701">
        <ele>64.4</ele>
        <time>2022-05-28T12:39:18Z</time>
      </trkpt>
      <trkpt lat="49.86456" lon="2.39703">
        <ele>64.4</ele>
        <time>2022-05-28T12:39:19Z</time>
      </trkpt>
      <trkpt lat="49.86457" lon="2.39704">
        <ele>64.4</ele>
        <time>2022-05-28T12:39:20Z</time>
      </trkpt>
      <trkpt lat="49.86457" lon="2.39705">
        <ele>64.4</ele>
        <time>2022-05-28T12:39:21Z</time>
      </trkpt>
      <trkpt lat="49.86457" lon="2.39707">
        <ele>64.4</ele>
        <time>2022-05-28T12:39:22Z</time>
      </trkpt>
      <trkpt lat="49.86457" lon="2.39708">
        <ele>64.4</ele>
        <time>2022-05-28T12:39:23Z</time>
      </trkpt>
      <trkpt lat="49.86457" lon="2.39709">
        <ele>64.4</ele>
        <time>2022-05-28T12:39:24Z</time>
      </trkpt>
      <trkpt lat="49.86457" lon="2.39711">
        <ele>64.4</ele>
        <time>2022-05-28T12:39:25Z</time>
      </trkpt>
      <trkpt lat="49.86457" lon="2.39712">
        <ele>64.4</ele>
        <time>2022-05-28T12:39:26Z</time>
      </trkpt>
      <trkpt lat="49.86457" lon="2.39714">
        <ele>64.4</ele>
        <time>2022-05-28T12:39:27Z</time>
      </trkpt>
      <trkpt lat="49.86457" lon="2.39716">
        <ele>64.4</ele>
        <time>2022-05-28T12:39:28Z</time>
      </trkpt>
      <trkpt lat="49.86457" lon="2.39717">
        <ele>64.4</ele>
        <time>2022-05-28T12:39:29Z</time>
      </trkpt>
      <trkpt lat="49.86457" lon="2.39718">
        <ele>64.4</ele>
        <time>2022-05-28T12:39:30Z</time>
      </trkpt>
      <trkpt lat="49.86457" lon="2.3972">
        <ele>64.4</ele>
        <time>2022-05-28T12:39:31Z</time>
      </trkpt>
      <trkpt lat="49.86457" lon="2.39721">
        <ele>64.4</ele>
        <time>2022-05-28T12:39:32Z</time>
      </trkpt>
      <trkpt lat="49.86457" lon="2.39722">
        <ele>64.4</ele>
        <time>2022-05-28T12:39:33Z</time>
      </trkpt>
      <trkpt lat="49.86457" lon="2.39724">
        <ele>64.4</ele>
        <time>2022-05-28T12:39:34Z</time>
      </trkpt>
      <trkpt lat="49.86457" lon="2.39725">
        <ele>64.4</ele>
        <time>2022-05-28T12:39:35Z</time>
      </trkpt>
      <trkpt lat="49.86457" lon="2.39727">
        <ele>64.4</ele>
        <time>2022-05-28T12:39:36Z</time>
      </trkpt>
      <trkpt lat="49.86457" lon="2.39728">
        <ele>64.4</ele>
        <time>2022-05-28T12:39:37Z</time>
      </trkpt>
      <trkpt lat="49.86457" lon="2.39729">
        <ele>64.4</ele>
        <time>2022-05-28T12:39:38Z</time>
      </trkpt>
      <trkpt lat="49.86457" lon="2.39731">
        <ele>64.4</ele>
        <time>2022-05-28T12:39:39Z</time>
      </trkpt>
      <trkpt lat="49.86457" lon="2.39732">
        <ele>64.4</ele>
        <time>2022-05-28T12:39:40Z</time>
      </trkpt>
      <trkpt lat="49.86457" lon="2.39733">
        <ele>64.4</ele>
        <time>2022-05-28T12:39:41Z</time>
      </trkpt>
      <trkpt lat="49.86457" lon="2.39735">
        <ele>64.4</ele>
        <time>2022-05-28T12:39:42Z</time>
      </trkpt>
      <trkpt lat="49.86457" lon="2.39736">
        <ele>64.4</ele>
        <time>2022-05-28T12:39:43Z</time>
      </trkpt>
      <trkpt lat="49.86457" lon="2.39738">
        <ele>64.4</ele>
        <time>2022-05-28T12:39:44Z</time>
      </trkpt>
      <trkpt lat="49.86457" lon="2.3974">
        <ele>64.5</ele>
        <time>2022-05-28T12:39:45Z</time>
      </trkpt>
      <trkpt lat="49.86457" lon="2.39741">
        <ele>64.5</ele>
        <time>2022-05-28T12:39:46Z</time>
      </trkpt>
      <trkpt lat="49.86457" lon="2.39743">
        <ele>64.5</ele>
        <time>2022-05-28T12:39:47Z</time>
      </trkpt>
      <trkpt lat="49.86457" lon="2.39744">
        <ele>64.5</ele>
        <time>2022-05-28T12:39:48Z</time>
      </trkpt>
      <trkpt lat="49.86457" lon="2.39745">
        <ele>64.5</ele>
        <time>2022-05-28T12:39:49Z</time>
      </trkpt>
      <trkpt lat="49.86457" lon="2.39746">
        <ele>64.5</ele>
        <time>2022-05-28T12:39:50Z</time>
      </trkpt>
      <trkpt lat="49.86457" lon="2.39747">
        <ele>64.5</ele>
        <time>2022-05-28T12:39:51Z</time>
      </trkpt>
      <trkpt lat="49.86457" lon="2.39748">
        <ele>64.5</ele>
        <time>2022-05-28T12:39:52Z</time>
      </trkpt>
      <trkpt lat="49.86457" lon="2.39751">
        <ele>64.5</ele>
        <time>2022-05-28T12:39:53Z</time>
      </trkpt>
      <trkpt lat="49.86457" lon="2.39752">
        <ele>64.5</ele>
        <time>2022-05-28T12:39:54Z</time>
      </trkpt>
      <trkpt lat="49.86456" lon="2.39753">
        <ele>64.5</ele>
        <time>2022-05-28T12:39:55Z</time>
      </trkpt>
      <trkpt lat="49.86456" lon="2.39755">
        <ele>64.5</ele>
        <time>2022-05-28T12:39:56Z</time>
      </trkpt>
      <trkpt lat="49.86456" lon="2.39756">
        <ele>64.5</ele>
        <time>2022-05-28T12:39:57Z</time>
      </trkpt>
      <trkpt lat="49.86456" lon="2.39757">
        <ele>64.5</ele>
        <time>2022-05-28T12:39:58Z</time>
      </trkpt>
      <trkpt lat="49.86456" lon="2.39759">
        <ele>64.5</ele>
        <time>2022-05-28T12:39:59Z</time>
      </trkpt>
      <trkpt lat="49.86456" lon="2.3976">
        <ele>64.5</ele>
        <time>2022-05-28T12:40:00Z</time>
      </trkpt>
      <trkpt lat="49.86456" lon="2.39762">
        <ele>64.5</ele>
        <time>2022-05-28T12:40:01Z</time>
      </trkpt>
      <trkpt lat="49.86456" lon="2.39763">
        <ele>64.5</ele>
        <time>2022-05-28T12:40:02Z</time>
      </trkpt>
      <trkpt lat="49.86456" lon="2.39765">
        <ele>64.5</ele>
        <time>2022-05-28T12:40:03Z</time>
      </trkpt>
      <trkpt lat="49.86456" lon="2.39766">
        <ele>64.5</ele>
        <time>2022-05-28T12:40:04Z</time>
      </trkpt>
      <trkpt lat="49.86456" lon="2.39767">
        <ele>64.5</ele>
        <time>2022-05-28T12:40:05Z</time>
      </trkpt>
      <trkpt lat="49.86456" lon="2.39768">
        <ele>64.5</ele>
        <time>2022-05-28T12:40:06Z</time>
      </trkpt>
      <trkpt lat="49.86456" lon="2.3977">
        <ele>64.5</ele>
        <time>2022-05-28T12:40:07Z</time>
      </trkpt>
      <trkpt lat="49.86456" lon="2.39772">
        <ele>64.5</ele>
        <time>2022-05-28T12:40:08Z</time>
      </trkpt>
      <trkpt lat="49.86456" lon="2.39772">
        <ele>64.5</ele>
        <time>2022-05-28T12:40:09Z</time>
      </trkpt>
      <trkpt lat="49.86457" lon="2.39774">
        <ele>64.5</ele>
        <time>2022-05-28T12:40:10Z</time>
      </trkpt>
      <trkpt lat="49.86457" lon="2.39775">
        <ele>64.5</ele>
        <time>2022-05-28T12:40:11Z</time>
      </trkpt>
      <trkpt lat="49.86457" lon="2.39777">
        <ele>64.5</ele>
        <time>2022-05-28T12:40:12Z</time>
      </trkpt>
      <trkpt lat="49.86457" lon="2.39779">
        <ele>64.6</ele>
        <time>2022-05-28T12:40:13Z</time>
      </trkpt>
      <trkpt lat="49.86457" lon="2.3978">
        <ele>64.6</ele>
        <time>2022-05-28T12:40:14Z</time>
      </trkpt>
      <trkpt lat="49.86457" lon="2.39781">
        <ele>64.6</ele>
        <time>2022-05-28T12:40:15Z</time>
      </trkpt>
      <trkpt lat="49.86457" lon="2.39782">
        <ele>64.6</ele>
        <time>2022-05-28T12:40:16Z</time>
      </trkpt>
      <trkpt lat="49.86457" lon="2.39784">
        <ele>64.6</ele>
        <time>2022-05-28T12:40:17Z</time>
      </trkpt>
      <trkpt lat="49.86457" lon="2.39786">
        <ele>64.6</ele>
        <time>2022-05-28T12:40:18Z</time>
      </trkpt>
      <trkpt lat="49.86457" lon="2.39787">
        <ele>64.6</ele>
        <time>2022-05-28T12:40:19Z</time>
      </trkpt>
      <trkpt lat="49.86457" lon="2.39788">
        <ele>64.6</ele>
        <time>2022-05-28T12:40:20Z</time>
      </trkpt>
      <trkpt lat="49.86457" lon="2.39789">
        <ele>64.6</ele>
        <time>2022-05-28T12:40:21Z</time>
      </trkpt>
      <trkpt lat="49.86457" lon="2.39791">
        <ele>64.6</ele>
        <time>2022-05-28T12:40:22Z</time>
      </trkpt>
      <trkpt lat="49.86458" lon="2.39793">
        <ele>64.6</ele>
        <time>2022-05-28T12:40:23Z</time>
      </trkpt>
      <trkpt lat="49.86458" lon="2.39795">
        <ele>64.6</ele>
        <time>2022-05-28T12:40:24Z</time>
      </trkpt>
      <trkpt lat="49.86458" lon="2.39796">
        <ele>64.6</ele>
        <time>2022-05-28T12:40:25Z</time>
      </trkpt>
      <trkpt lat="49.86458" lon="2.39797">
        <ele>64.6</ele>
        <time>2022-05-28T12:40:26Z</time>
      </trkpt>
      <trkpt lat="49.86458" lon="2.39798">
        <ele>64.6</ele>
        <time>2022-05-28T12:40:27Z</time>
      </trkpt>
      <trkpt lat="49.86458" lon="2.39799">
        <ele>64.6</ele>
        <time>2022-05-28T12:40:28Z</time>
      </trkpt>
      <trkpt lat="49.86458" lon="2.398">
        <ele>64.6</ele>
        <time>2022-05-28T12:40:29Z</time>
      </trkpt>
      <trkpt lat="49.86458" lon="2.39802">
        <ele>64.6</ele>
        <time>2022-05-28T12:40:30Z</time>
      </trkpt>
      <trkpt lat="49.86458" lon="2.39803">
        <ele>64.6</ele>
        <time>2022-05-28T12:40:31Z</time>
      </trkpt>
      <trkpt lat="49.86458" lon="2.39804">
        <ele>64.6</ele>
        <time>2022-05-28T12:40:32Z</time>
      </trkpt>
      <trkpt lat="49.86457" lon="2.39805">
        <ele>64.6</ele>
        <time>2022-05-28T12:40:33Z</time>
      </trkpt>
      <trkpt lat="49.86457" lon="2.39806">
        <ele>64.6</ele>
        <time>2022-05-28T12:40:34Z</time>
      </trkpt>
      <trkpt lat="49.86457" lon="2.39806">
        <ele>64.6</ele>
        <time>2022-05-28T12:40:35Z</time>
      </trkpt>
      <trkpt lat="49.86457" lon="2.39806">
        <ele>64.6</ele>
        <time>2022-05-28T12:40:36Z</time>
      </trkpt>
      <trkpt lat="49.86457" lon="2.39807">
        <ele>64.6</ele>
        <time>2022-05-28T12:40:37Z</time>
      </trkpt>
      <trkpt lat="49.86457" lon="2.39808">
        <ele>64.6</ele>
        <time>2022-05-28T12:40:38Z</time>
      </trkpt>
      <trkpt lat="49.86457" lon="2.39809">
        <ele>64.6</ele>
        <time>2022-05-28T12:40:39Z</time>
      </trkpt>
      <trkpt lat="49.86457" lon="2.39809">
        <ele>64.6</ele>
        <time>2022-05-28T12:40:40Z</time>
      </trkpt>
      <trkpt lat="49.86457" lon="2.39809">
        <ele>64.6</ele>
        <time>2022-05-28T12:40:41Z</time>
      </trkpt>
      <trkpt lat="49.86457" lon="2.39809">
        <ele>64.6</ele>
        <time>2022-05-28T12:40:42Z</time>
      </trkpt>
      <trkpt lat="49.86457" lon="2.39809">
        <ele>64.6</ele>
        <time>2022-05-28T12:40:43Z</time>
      </trkpt>
      <trkpt lat="49.86457" lon="2.39809">
        <ele>64.6</ele>
        <time>2022-05-28T12:40:44Z</time>
      </trkpt>
      <trkpt lat="49.86457" lon="2.39809">
        <ele>64.6</ele>
        <time>2022-05-28T12:40:45Z</time>
      </trkpt>
      <trkpt lat="49.86457" lon="2.39809">
        <ele>64.6</ele>
        <time>2022-05-28T12:40:46Z</time>
      </trkpt>
      <trkpt lat="49.86457" lon="2.39809">
        <ele>64.6</ele>
        <time>2022-05-28T12:40:47Z</time>
      </trkpt>
      <trkpt lat="49.86457" lon="2.39808">
        <ele>64.6</ele>
        <time>2022-05-28T12:40:48Z</time>
      </trkpt>
      <trkpt lat="49.86457" lon="2.39808">
        <ele>64.6</ele>
        <time>2022-05-28T12:40:49Z</time>
      </trkpt>
      <trkpt lat="49.86457" lon="2.39808">
        <ele>64.6</ele>
        <time>2022-05-28T12:40:50Z</time>
      </trkpt>
      <trkpt lat="49.86457" lon="2.39808">
        <ele>64.6</ele>
        <time>2022-05-28T12:40:51Z</time>
      </trkpt>
      <trkpt lat="49.86457" lon="2.39808">
        <ele>64.6</ele>
        <time>2022-05-28T12:40:52Z</time>
      </trkpt>
      <trkpt lat="49.86457" lon="2.39808">
        <ele>64.6</ele>
        <time>2022-05-28T12:40:53Z</time>
      </trkpt>
      <trkpt lat="49.86457" lon="2.39808">
        <ele>64.6</ele>
        <time>2022-05-28T12:40:54Z</time>
      </trkpt>
      <trkpt lat="49.86457" lon="2.39807">
        <ele>64.6</ele>
        <time>2022-05-28T12:40:55Z</time>
      </trkpt>
      <trkpt lat="49.86457" lon="2.39806">
        <ele>64.6</ele>
        <time>2022-05-28T12:40:56Z</time>
      </trkpt>
      <trkpt lat="49.86457" lon="2.39806">
        <ele>64.6</ele>
        <time>2022-05-28T12:40:57Z</time>
      </trkpt>
      <trkpt lat="49.86457" lon="2.39806">
        <ele>64.6</ele>
        <time>2022-05-28T12:40:58Z</time>
      </trkpt>
      <trkpt lat="49.86457" lon="2.39807">
        <ele>64.6</ele>
        <time>2022-05-28T12:40:59Z</time>
      </trkpt>
      <trkpt lat="49.86458" lon="2.39808">
        <ele>64.6</ele>
        <time>2022-05-28T12:41:00Z</time>
      </trkpt>
      <trkpt lat="49.86458" lon="2.39809">
        <ele>64.6</ele>
        <time>2022-05-28T12:41:01Z</time>
      </trkpt>
      <trkpt lat="49.86458" lon="2.39809">
        <ele>64.6</ele>
        <time>2022-05-28T12:41:02Z</time>
      </trkpt>
      <trkpt lat="49.86458" lon="2.3981">
        <ele>64.6</ele>
        <time>2022-05-28T12:41:03Z</time>
      </trkpt>
      <trkpt lat="49.86458" lon="2.39811">
        <ele>64.6</ele>
        <time>2022-05-28T12:41:04Z</time>
      </trkpt>
      <trkpt lat="49.86458" lon="2.39812">
        <ele>64.6</ele>
        <time>2022-05-28T12:41:05Z</time>
      </trkpt>
      <trkpt lat="49.86458" lon="2.39813">
        <ele>64.6</ele>
        <time>2022-05-28T12:41:06Z</time>
      </trkpt>
      <trkpt lat="49.86458" lon="2.39814">
        <ele>64.6</ele>
        <time>2022-05-28T12:41:07Z</time>
      </trkpt>
      <trkpt lat="49.86458" lon="2.39816">
        <ele>64.6</ele>
        <time>2022-05-28T12:41:08Z</time>
      </trkpt>
      <trkpt lat="49.86458" lon="2.39817">
        <ele>64.6</ele>
        <time>2022-05-28T12:41:09Z</time>
      </trkpt>
      <trkpt lat="49.86458" lon="2.39818">
        <ele>64.6</ele>
        <time>2022-05-28T12:41:10Z</time>
      </trkpt>
      <trkpt lat="49.86458" lon="2.39819">
        <ele>64.6</ele>
        <time>2022-05-28T12:41:11Z</time>
      </trkpt>
      <trkpt lat="49.86458" lon="2.3982">
        <ele>64.6</ele>
        <time>2022-05-28T12:41:12Z</time>
      </trkpt>
      <trkpt lat="49.86458" lon="2.39821">
        <ele>64.6</ele>
        <time>2022-05-28T12:41:13Z</time>
      </trkpt>
      <trkpt lat="49.86458" lon="2.39822">
        <ele>64.6</ele>
        <time>2022-05-28T12:41:14Z</time>
      </trkpt>
      <trkpt lat="49.86458" lon="2.39823">
        <ele>64.6</ele>
        <time>2022-05-28T12:41:15Z</time>
      </trkpt>
      <trkpt lat="49.86458" lon="2.39825">
        <ele>64.6</ele>
        <time>2022-05-28T12:41:16Z</time>
      </trkpt>
      <trkpt lat="49.86458" lon="2.39826">
        <ele>64.6</ele>
        <time>2022-05-28T12:41:17Z</time>
      </trkpt>
      <trkpt lat="49.86458" lon="2.39827">
        <ele>64.7</ele>
        <time>2022-05-28T12:41:18Z</time>
      </trkpt>
      <trkpt lat="49.86458" lon="2.39829">
        <ele>64.7</ele>
        <time>2022-05-28T12:41:19Z</time>
      </trkpt>
      <trkpt lat="49.86458" lon="2.3983">
        <ele>64.7</ele>
        <time>2022-05-28T12:41:20Z</time>
      </trkpt>
      <trkpt lat="49.86458" lon="2.39831">
        <ele>64.7</ele>
        <time>2022-05-28T12:41:21Z</time>
      </trkpt>
      <trkpt lat="49.86458" lon="2.39832">
        <ele>64.7</ele>
        <time>2022-05-28T12:41:22Z</time>
      </trkpt>
      <trkpt lat="49.86458" lon="2.39834">
        <ele>64.7</ele>
        <time>2022-05-28T12:41:23Z</time>
      </trkpt>
      <trkpt lat="49.86458" lon="2.39835">
        <ele>64.7</ele>
        <time>2022-05-28T12:41:24Z</time>
      </trkpt>
      <trkpt lat="49.86458" lon="2.39836">
        <ele>64.7</ele>
        <time>2022-05-28T12:41:25Z</time>
      </trkpt>
      <trkpt lat="49.86458" lon="2.39837">
        <ele>64.7</ele>
        <time>2022-05-28T12:41:26Z</time>
      </trkpt>
      <trkpt lat="49.86458" lon="2.39839">
        <ele>64.7</ele>
        <time>2022-05-28T12:41:27Z</time>
      </trkpt>
      <trkpt lat="49.86458" lon="2.3984">
        <ele>64.7</ele>
        <time>2022-05-28T12:41:28Z</time>
      </trkpt>
      <trkpt lat="49.86458" lon="2.39842">
        <ele>64.7</ele>
        <time>2022-05-28T12:41:29Z</time>
      </trkpt>
      <trkpt lat="49.86458" lon="2.39843">
        <ele>64.7</ele>
        <time>2022-05-28T12:41:30Z</time>
      </trkpt>
      <trkpt lat="49.86458" lon="2.39844">
        <ele>64.7</ele>
        <time>2022-05-28T12:41:31Z</time>
      </trkpt>
      <trkpt lat="49.86458" lon="2.39846">
        <ele>64.7</ele>
        <time>2022-05-28T12:41:32Z</time>
      </trkpt>
      <trkpt lat="49.86458" lon="2.39847">
        <ele>64.7</ele>
        <time>2022-05-28T12:41:33Z</time>
      </trkpt>
      <trkpt lat="49.86458" lon="2.39849">
        <ele>64.7</ele>
        <time>2022-05-28T12:41:34Z</time>
      </trkpt>
      <trkpt lat="49.86458" lon="2.39851">
        <ele>64.7</ele>
        <time>2022-05-28T12:41:35Z</time>
      </trkpt>
      <trkpt lat="49.86458" lon="2.39852">
        <ele>64.7</ele>
        <time>2022-05-28T12:41:36Z</time>
      </trkpt>
      <trkpt lat="49.86458" lon="2.39853">
        <ele>64.7</ele>
        <time>2022-05-28T12:41:37Z</time>
      </trkpt>
      <trkpt lat="49.86459" lon="2.39854">
        <ele>64.7</ele>
        <time>2022-05-28T12:41:38Z</time>
      </trkpt>
      <trkpt lat="49.86459" lon="2.39856">
        <ele>64.7</ele>
        <time>2022-05-28T12:41:39Z</time>
      </trkpt>
      <trkpt lat="49.86459" lon="2.39857">
        <ele>64.7</ele>
        <time>2022-05-28T12:41:40Z</time>
      </trkpt>
      <trkpt lat="49.86459" lon="2.39859">
        <ele>64.7</ele>
        <time>2022-05-28T12:41:41Z</time>
      </trkpt>
      <trkpt lat="49.86459" lon="2.3986">
        <ele>64.7</ele>
        <time>2022-05-28T12:41:42Z</time>
      </trkpt>
      <trkpt lat="49.86459" lon="2.39861">
        <ele>64.7</ele>
        <time>2022-05-28T12:41:43Z</time>
      </trkpt>
      <trkpt lat="49.86459" lon="2.39863">
        <ele>64.7</ele>
        <time>2022-05-28T12:41:44Z</time>
      </trkpt>
      <trkpt lat="49.86459" lon="2.39864">
        <ele>64.8</ele>
        <time>2022-05-28T12:41:45Z</time>
      </trkpt>
      <trkpt lat="49.86459" lon="2.39865">
        <ele>64.8</ele>
        <time>2022-05-28T12:41:46Z</time>
      </trkpt>
      <trkpt lat="49.86459" lon="2.39867">
        <ele>64.8</ele>
        <time>2022-05-28T12:41:47Z</time>
      </trkpt>
      <trkpt lat="49.86459" lon="2.39868">
        <ele>64.8</ele>
        <time>2022-05-28T12:41:48Z</time>
      </trkpt>
      <trkpt lat="49.86459" lon="2.39869">
        <ele>64.8</ele>
        <time>2022-05-28T12:41:49Z</time>
      </trkpt>
      <trkpt lat="49.86459" lon="2.39871">
        <ele>64.8</ele>
        <time>2022-05-28T12:41:50Z</time>
      </trkpt>
      <trkpt lat="49.86459" lon="2.39872">
        <ele>64.8</ele>
        <time>2022-05-28T12:41:51Z</time>
      </trkpt>
      <trkpt lat="49.86459" lon="2.39874">
        <ele>64.8</ele>
        <time>2022-05-28T12:41:52Z</time>
      </trkpt>
      <trkpt lat="49.86459" lon="2.39875">
        <ele>64.8</ele>
        <time>2022-05-28T12:41:53Z</time>
      </trkpt>
      <trkpt lat="49.86459" lon="2.39877">
        <ele>64.8</ele>
        <time>2022-05-28T12:41:54Z</time>
      </trkpt>
      <trkpt lat="49.86459" lon="2.39878">
        <ele>64.8</ele>
        <time>2022-05-28T12:41:55Z</time>
      </trkpt>
      <trkpt lat="49.86459" lon="2.39879">
        <ele>64.8</ele>
        <time>2022-05-28T12:41:56Z</time>
      </trkpt>
      <trkpt lat="49.86459" lon="2.3988">
        <ele>64.8</ele>
        <time>2022-05-28T12:41:57Z</time>
      </trkpt>
      <trkpt lat="49.86459" lon="2.39882">
        <ele>64.8</ele>
        <time>2022-05-28T12:41:58Z</time>
      </trkpt>
      <trkpt lat="49.86459" lon="2.39883">
        <ele>64.8</ele>
        <time>2022-05-28T12:41:59Z</time>
      </trkpt>
      <trkpt lat="49.86459" lon="2.39885">
        <ele>64.8</ele>
        <time>2022-05-28T12:42:00Z</time>
      </trkpt>
      <trkpt lat="49.86459" lon="2.39886">
        <ele>64.9</ele>
        <time>2022-05-28T12:42:01Z</time>
      </trkpt>
      <trkpt lat="49.86459" lon="2.39887">
        <ele>64.9</ele>
        <time>2022-05-28T12:42:02Z</time>
      </trkpt>
      <trkpt lat="49.86459" lon="2.39888">
        <ele>64.9</ele>
        <time>2022-05-28T12:42:03Z</time>
      </trkpt>
      <trkpt lat="49.86459" lon="2.3989">
        <ele>64.9</ele>
        <time>2022-05-28T12:42:04Z</time>
      </trkpt>
      <trkpt lat="49.86459" lon="2.39891">
        <ele>64.9</ele>
        <time>2022-05-28T12:42:05Z</time>
      </trkpt>
      <trkpt lat="49.86459" lon="2.39893">
        <ele>64.9</ele>
        <time>2022-05-28T12:42:06Z</time>
      </trkpt>
      <trkpt lat="49.86459" lon="2.39895">
        <ele>64.9</ele>
        <time>2022-05-28T12:42:07Z</time>
      </trkpt>
      <trkpt lat="49.86459" lon="2.39896">
        <ele>64.9</ele>
        <time>2022-05-28T12:42:08Z</time>
      </trkpt>
      <trkpt lat="49.86459" lon="2.39898">
        <ele>64.9</ele>
        <time>2022-05-28T12:42:09Z</time>
      </trkpt>
      <trkpt lat="49.86459" lon="2.39899">
        <ele>64.9</ele>
        <time>2022-05-28T12:42:10Z</time>
      </trkpt>
      <trkpt lat="49.86459" lon="2.399">
        <ele>65</ele>
        <time>2022-05-28T12:42:11Z</time>
      </trkpt>
      <trkpt lat="49.86459" lon="2.39902">
        <ele>65</ele>
        <time>2022-05-28T12:42:12Z</time>
      </trkpt>
      <trkpt lat="49.86459" lon="2.39904">
        <ele>65</ele>
        <time>2022-05-28T12:42:13Z</time>
      </trkpt>
      <trkpt lat="49.86459" lon="2.39905">
        <ele>65</ele>
        <time>2022-05-28T12:42:14Z</time>
      </trkpt>
      <trkpt lat="49.86459" lon="2.39907">
        <ele>65</ele>
        <time>2022-05-28T12:42:15Z</time>
      </trkpt>
      <trkpt lat="49.86459" lon="2.39908">
        <ele>65</ele>
        <time>2022-05-28T12:42:16Z</time>
      </trkpt>
      <trkpt lat="49.86459" lon="2.39909">
        <ele>65</ele>
        <time>2022-05-28T12:42:17Z</time>
      </trkpt>
      <trkpt lat="49.86459" lon="2.39911">
        <ele>65</ele>
        <time>2022-05-28T12:42:18Z</time>
      </trkpt>
      <trkpt lat="49.86459" lon="2.39913">
        <ele>65</ele>
        <time>2022-05-28T12:42:19Z</time>
      </trkpt>
      <trkpt lat="49.86459" lon="2.39914">
        <ele>65</ele>
        <time>2022-05-28T12:42:20Z</time>
      </trkpt>
      <trkpt lat="49.86459" lon="2.39916">
        <ele>65</ele>
        <time>2022-05-28T12:42:21Z</time>
      </trkpt>
      <trkpt lat="49.86459" lon="2.39917">
        <ele>65</ele>
        <time>2022-05-28T12:42:22Z</time>
      </trkpt>
      <trkpt lat="49.86459" lon="2.39918">
        <ele>65</ele>
        <time>2022-05-28T12:42:23Z</time>
      </trkpt>
      <trkpt lat="49.86459" lon="2.3992">
        <ele>65</ele>
        <time>2022-05-28T12:42:24Z</time>
      </trkpt>
      <trkpt lat="49.86459" lon="2.39921">
        <ele>65</ele>
        <time>2022-05-28T12:42:25Z</time>
      </trkpt>
      <trkpt lat="49.86459" lon="2.39923">
        <ele>65.1</ele>
        <time>2022-05-28T12:42:26Z</time>
      </trkpt>
      <trkpt lat="49.86459" lon="2.39924">
        <ele>65.1</ele>
        <time>2022-05-28T12:42:27Z</time>
      </trkpt>
      <trkpt lat="49.8646" lon="2.39925">
        <ele>65.1</ele>
        <time>2022-05-28T12:42:28Z</time>
      </trkpt>
      <trkpt lat="49.8646" lon="2.39927">
        <ele>65.1</ele>
        <time>2022-05-28T12:42:29Z</time>
      </trkpt>
      <trkpt lat="49.8646" lon="2.39928">
        <ele>65.1</ele>
        <time>2022-05-28T12:42:30Z</time>
      </trkpt>
      <trkpt lat="49.8646" lon="2.39929">
        <ele>65.1</ele>
        <time>2022-05-28T12:42:31Z</time>
      </trkpt>
      <trkpt lat="49.8646" lon="2.3993">
        <ele>65.1</ele>
        <time>2022-05-28T12:42:32Z</time>
      </trkpt>
      <trkpt lat="49.8646" lon="2.39932">
        <ele>65.1</ele>
        <time>2022-05-28T12:42:33Z</time>
      </trkpt>
      <trkpt lat="49.86461" lon="2.39933">
        <ele>65.1</ele>
        <time>2022-05-28T12:42:34Z</time>
      </trkpt>
      <trkpt lat="49.86461" lon="2.39935">
        <ele>65.1</ele>
        <time>2022-05-28T12:42:35Z</time>
      </trkpt>
      <trkpt lat="49.86461" lon="2.39937">
        <ele>65.1</ele>
        <time>2022-05-28T12:42:36Z</time>
      </trkpt>
      <trkpt lat="49.86461" lon="2.39938">
        <ele>65.1</ele>
        <time>2022-05-28T12:42:37Z</time>
      </trkpt>
      <trkpt lat="49.86461" lon="2.3994">
        <ele>65.1</ele>
        <time>2022-05-28T12:42:38Z</time>
      </trkpt>
      <trkpt lat="49.86462" lon="2.3994">
        <ele>65.1</ele>
        <time>2022-05-28T12:42:39Z</time>
      </trkpt>
      <trkpt lat="49.86462" lon="2.3994">
        <ele>65.1</ele>
        <time>2022-05-28T12:42:40Z</time>
      </trkpt>
      <trkpt lat="49.86462" lon="2.3994">
        <ele>65.1</ele>
        <time>2022-05-28T12:42:41Z</time>
      </trkpt>
      <trkpt lat="49.86462" lon="2.3994">
        <ele>65.1</ele>
        <time>2022-05-28T12:42:42Z</time>
      </trkpt>
      <trkpt lat="49.86462" lon="2.3994">
        <ele>65.1</ele>
        <time>2022-05-28T12:42:43Z</time>
      </trkpt>
      <trkpt lat="49.86462" lon="2.3994">
        <ele>65.1</ele>
        <time>2022-05-28T12:42:44Z</time>
      </trkpt>
      <trkpt lat="49.86462" lon="2.3994">
        <ele>65.1</ele>
        <time>2022-05-28T12:42:45Z</time>
      </trkpt>
      <trkpt lat="49.86462" lon="2.3994">
        <ele>65.1</ele>
        <time>2022-05-28T12:42:46Z</time>
      </trkpt>
      <trkpt lat="49.86462" lon="2.3994">
        <ele>65.1</ele>
        <time>2022-05-28T12:42:47Z</time>
      </trkpt>
      <trkpt lat="49.86462" lon="2.3994">
        <ele>65.1</ele>
        <time>2022-05-28T12:42:48Z</time>
      </trkpt>
      <trkpt lat="49.86462" lon="2.3994">
        <ele>65.1</ele>
        <time>2022-05-28T12:42:49Z</time>
      </trkpt>
      <trkpt lat="49.86462" lon="2.3994">
        <ele>65.1</ele>
        <time>2022-05-28T12:42:50Z</time>
      </trkpt>
      <trkpt lat="49.86462" lon="2.3994">
        <ele>65.1</ele>
        <time>2022-05-28T12:42:51Z</time>
      </trkpt>
      <trkpt lat="49.86462" lon="2.3994">
        <ele>65.1</ele>
        <time>2022-05-28T12:42:52Z</time>
      </trkpt>
      <trkpt lat="49.86462" lon="2.3994">
        <ele>65.1</ele>
        <time>2022-05-28T12:42:53Z</time>
      </trkpt>
      <trkpt lat="49.86462" lon="2.39939">
        <ele>65.1</ele>
        <time>2022-05-28T12:42:54Z</time>
      </trkpt>
      <trkpt lat="49.86462" lon="2.39939">
        <ele>65.1</ele>
        <time>2022-05-28T12:42:55Z</time>
      </trkpt>
      <trkpt lat="49.86462" lon="2.39939">
        <ele>65.1</ele>
        <time>2022-05-28T12:42:56Z</time>
      </trkpt>
      <trkpt lat="49.86462" lon="2.39939">
        <ele>65.1</ele>
        <time>2022-05-28T12:42:57Z</time>
      </trkpt>
      <trkpt lat="49.86462" lon="2.39939">
        <ele>65.1</ele>
        <time>2022-05-28T12:42:58Z</time>
      </trkpt>
      <trkpt lat="49.86462" lon="2.39939">
        <ele>65.1</ele>
        <time>2022-05-28T12:42:59Z</time>
      </trkpt>
      <trkpt lat="49.86462" lon="2.39939">
        <ele>65.1</ele>
        <time>2022-05-28T12:43:00Z</time>
      </trkpt>
      <trkpt lat="49.86462" lon="2.39939">
        <ele>65.1</ele>
        <time>2022-05-28T12:43:01Z</time>
      </trkpt>
      <trkpt lat="49.86462" lon="2.39939">
        <ele>65.1</ele>
        <time>2022-05-28T12:43:02Z</time>
      </trkpt>
      <trkpt lat="49.86462" lon="2.39939">
        <ele>65.1</ele>
        <time>2022-05-28T12:43:03Z</time>
      </trkpt>
      <trkpt lat="49.86462" lon="2.39939">
        <ele>65.1</ele>
        <time>2022-05-28T12:43:04Z</time>
      </trkpt>
      <trkpt lat="49.86462" lon="2.39939">
        <ele>65.1</ele>
        <time>2022-05-28T12:43:05Z</time>
      </trkpt>
      <trkpt lat="49.86462" lon="2.39939">
        <ele>65.1</ele>
        <time>2022-05-28T12:43:06Z</time>
      </trkpt>
      <trkpt lat="49.86462" lon="2.39939">
        <ele>65.1</ele>
        <time>2022-05-28T12:43:07Z</time>
      </trkpt>
      <trkpt lat="49.86462" lon="2.39939">
        <ele>65.1</ele>
        <time>2022-05-28T12:43:08Z</time>
      </trkpt>
      <trkpt lat="49.86462" lon="2.39939">
        <ele>65.1</ele>
        <time>2022-05-28T12:43:09Z</time>
      </trkpt>
      <trkpt lat="49.86462" lon="2.39939">
        <ele>65.1</ele>
        <time>2022-05-28T12:43:10Z</time>
      </trkpt>
      <trkpt lat="49.86462" lon="2.39939">
        <ele>65.1</ele>
        <time>2022-05-28T12:43:11Z</time>
      </trkpt>
      <trkpt lat="49.86462" lon="2.39939">
        <ele>65.1</ele>
        <time>2022-05-28T12:43:12Z</time>
      </trkpt>
      <trkpt lat="49.86462" lon="2.39939">
        <ele>65.1</ele>
        <time>2022-05-28T12:43:13Z</time>
      </trkpt>
      <trkpt lat="49.86462" lon="2.39939">
        <ele>65.1</ele>
        <time>2022-05-28T12:43:14Z</time>
      </trkpt>
      <trkpt lat="49.86462" lon="2.39939">
        <ele>65.1</ele>
        <time>2022-05-28T12:43:15Z</time>
      </trkpt>
      <trkpt lat="49.86462" lon="2.39939">
        <ele>65.1</ele>
        <time>2022-05-28T12:43:16Z</time>
      </trkpt>
      <trkpt lat="49.86462" lon="2.39939">
        <ele>65.1</ele>
        <time>2022-05-28T12:43:17Z</time>
      </trkpt>
      <trkpt lat="49.86461" lon="2.39939">
        <ele>65.1</ele>
        <time>2022-05-28T12:43:18Z</time>
      </trkpt>
      <trkpt lat="49.86461" lon="2.39939">
        <ele>65.1</ele>
        <time>2022-05-28T12:43:19Z</time>
      </trkpt>
      <trkpt lat="49.8646" lon="2.3994">
        <ele>65.1</ele>
        <time>2022-05-28T12:43:20Z</time>
      </trkpt>
      <trkpt lat="49.8646" lon="2.39941">
        <ele>65.1</ele>
        <time>2022-05-28T12:43:21Z</time>
      </trkpt>
      <trkpt lat="49.8646" lon="2.39942">
        <ele>65.1</ele>
        <time>2022-05-28T12:43:22Z</time>
      </trkpt>
      <trkpt lat="49.8646" lon="2.39943">
        <ele>65</ele>
        <time>2022-05-28T12:43:23Z</time>
      </trkpt>
      <trkpt lat="49.86461" lon="2.39945">
        <ele>65</ele>
        <time>2022-05-28T12:43:24Z</time>
      </trkpt>
      <trkpt lat="49.86461" lon="2.39946">
        <ele>65</ele>
        <time>2022-05-28T12:43:25Z</time>
      </trkpt>
      <trkpt lat="49.86461" lon="2.39948">
        <ele>65</ele>
        <time>2022-05-28T12:43:26Z</time>
      </trkpt>
      <trkpt lat="49.86461" lon="2.39949">
        <ele>65</ele>
        <time>2022-05-28T12:43:27Z</time>
      </trkpt>
      <trkpt lat="49.86461" lon="2.3995">
        <ele>65</ele>
        <time>2022-05-28T12:43:28Z</time>
      </trkpt>
      <trkpt lat="49.86461" lon="2.39952">
        <ele>65</ele>
        <time>2022-05-28T12:43:29Z</time>
      </trkpt>
      <trkpt lat="49.86462" lon="2.39953">
        <ele>65</ele>
        <time>2022-05-28T12:43:30Z</time>
      </trkpt>
      <trkpt lat="49.86462" lon="2.39954">
        <ele>65</ele>
        <time>2022-05-28T12:43:31Z</time>
      </trkpt>
      <trkpt lat="49.86462" lon="2.39955">
        <ele>65</ele>
        <time>2022-05-28T12:43:32Z</time>
      </trkpt>
      <trkpt lat="49.86463" lon="2.39957">
        <ele>65</ele>
        <time>2022-05-28T12:43:33Z</time>
      </trkpt>
      <trkpt lat="49.86463" lon="2.39958">
        <ele>64.9</ele>
        <time>2022-05-28T12:43:34Z</time>
      </trkpt>
      <trkpt lat="49.86463" lon="2.39959">
        <ele>64.9</ele>
        <time>2022-05-28T12:43:35Z</time>
      </trkpt>
      <trkpt lat="49.86463" lon="2.39961">
        <ele>64.9</ele>
        <time>2022-05-28T12:43:36Z</time>
      </trkpt>
      <trkpt lat="49.86463" lon="2.39962">
        <ele>64.9</ele>
        <time>2022-05-28T12:43:37Z</time>
      </trkpt>
      <trkpt lat="49.86463" lon="2.39963">
        <ele>64.9</ele>
        <time>2022-05-28T12:43:38Z</time>
      </trkpt>
      <trkpt lat="49.86464" lon="2.39965">
        <ele>64.9</ele>
        <time>2022-05-28T12:43:39Z</time>
      </trkpt>
      <trkpt lat="49.86464" lon="2.39966">
        <ele>65</ele>
        <time>2022-05-28T12:43:40Z</time>
      </trkpt>
      <trkpt lat="49.86464" lon="2.39967">
        <ele>65</ele>
        <time>2022-05-28T12:43:41Z</time>
      </trkpt>
      <trkpt lat="49.86465" lon="2.39968">
        <ele>65</ele>
        <time>2022-05-28T12:43:42Z</time>
      </trkpt>
      <trkpt lat="49.86464" lon="2.3997">
        <ele>65</ele>
        <time>2022-05-28T12:43:43Z</time>
      </trkpt>
      <trkpt lat="49.86464" lon="2.39971">
        <ele>65.1</ele>
        <time>2022-05-28T12:43:44Z</time>
      </trkpt>
      <trkpt lat="49.86464" lon="2.39973">
        <ele>65.1</ele>
        <time>2022-05-28T12:43:45Z</time>
      </trkpt>
      <trkpt lat="49.86465" lon="2.39974">
        <ele>65.1</ele>
        <time>2022-05-28T12:43:46Z</time>
      </trkpt>
      <trkpt lat="49.86465" lon="2.39976">
        <ele>65.1</ele>
        <time>2022-05-28T12:43:47Z</time>
      </trkpt>
      <trkpt lat="49.86465" lon="2.39978">
        <ele>65.1</ele>
        <time>2022-05-28T12:43:48Z</time>
      </trkpt>
      <trkpt lat="49.86465" lon="2.39979">
        <ele>65.2</ele>
        <time>2022-05-28T12:43:49Z</time>
      </trkpt>
      <trkpt lat="49.86465" lon="2.3998">
        <ele>65.2</ele>
        <time>2022-05-28T12:43:50Z</time>
      </trkpt>
      <trkpt lat="49.86465" lon="2.39982">
        <ele>65.2</ele>
        <time>2022-05-28T12:43:51Z</time>
      </trkpt>
      <trkpt lat="49.86465" lon="2.39983">
        <ele>65.3</ele>
        <time>2022-05-28T12:43:52Z</time>
      </trkpt>
      <trkpt lat="49.86465" lon="2.39985">
        <ele>65.3</ele>
        <time>2022-05-28T12:43:53Z</time>
      </trkpt>
      <trkpt lat="49.86465" lon="2.39986">
        <ele>65.3</ele>
        <time>2022-05-28T12:43:54Z</time>
      </trkpt>
      <trkpt lat="49.86465" lon="2.39987">
        <ele>65.4</ele>
        <time>2022-05-28T12:43:55Z</time>
      </trkpt>
      <trkpt lat="49.86465" lon="2.39988">
        <ele>65.4</ele>
        <time>2022-05-28T12:43:56Z</time>
      </trkpt>
      <trkpt lat="49.86465" lon="2.3999">
        <ele>65.4</ele>
        <time>2022-05-28T12:43:57Z</time>
      </trkpt>
      <trkpt lat="49.86465" lon="2.3999">
        <ele>65.4</ele>
        <time>2022-05-28T12:43:58Z</time>
      </trkpt>
      <trkpt lat="49.86466" lon="2.39991">
        <ele>65.5</ele>
        <time>2022-05-28T12:43:59Z</time>
      </trkpt>
      <trkpt lat="49.86466" lon="2.39992">
        <ele>65.3</ele>
        <time>2022-05-28T12:44:00Z</time>
      </trkpt>
      <trkpt lat="49.86466" lon="2.39993">
        <ele>65.3</ele>
        <time>2022-05-28T12:44:01Z</time>
      </trkpt>
      <trkpt lat="49.86466" lon="2.39995">
        <ele>65.3</ele>
        <time>2022-05-28T12:44:02Z</time>
      </trkpt>
      <trkpt lat="49.86466" lon="2.39996">
        <ele>65.4</ele>
        <time>2022-05-28T12:44:03Z</time>
      </trkpt>
      <trkpt lat="49.86465" lon="2.39998">
        <ele>65.6</ele>
        <time>2022-05-28T12:44:04Z</time>
      </trkpt>
      <trkpt lat="49.86465" lon="2.39999">
        <ele>65.6</ele>
        <time>2022-05-28T12:44:05Z</time>
      </trkpt>
      <trkpt lat="49.86464" lon="2.4">
        <ele>65.7</ele>
        <time>2022-05-28T12:44:06Z</time>
      </trkpt>
      <trkpt lat="49.86464" lon="2.40001">
        <ele>65.7</ele>
        <time>2022-05-28T12:44:07Z</time>
      </trkpt>
      <trkpt lat="49.86463" lon="2.40002">
        <ele>65.7</ele>
        <time>2022-05-28T12:44:08Z</time>
      </trkpt>
      <trkpt lat="49.86463" lon="2.40003">
        <ele>65.9</ele>
        <time>2022-05-28T12:44:09Z</time>
      </trkpt>
      <trkpt lat="49.86462" lon="2.40004">
        <ele>65.9</ele>
        <time>2022-05-28T12:44:10Z</time>
      </trkpt>
      <trkpt lat="49.86462" lon="2.40005">
        <ele>66</ele>
        <time>2022-05-28T12:44:11Z</time>
      </trkpt>
      <trkpt lat="49.86462" lon="2.40006">
        <ele>66</ele>
        <time>2022-05-28T12:44:12Z</time>
      </trkpt>
      <trkpt lat="49.86462" lon="2.40007">
        <ele>66</ele>
        <time>2022-05-28T12:44:13Z</time>
      </trkpt>
      <trkpt lat="49.86461" lon="2.40007">
        <ele>66</ele>
        <time>2022-05-28T12:44:14Z</time>
      </trkpt>
      <trkpt lat="49.86461" lon="2.40008">
        <ele>66</ele>
        <time>2022-05-28T12:44:15Z</time>
      </trkpt>
      <trkpt lat="49.8646" lon="2.40009">
        <ele>66.3</ele>
        <time>2022-05-28T12:44:16Z</time>
      </trkpt>
      <trkpt lat="49.8646" lon="2.40009">
        <ele>66.3</ele>
        <time>2022-05-28T12:44:17Z</time>
      </trkpt>
      <trkpt lat="49.86459" lon="2.4001">
        <ele>66.3</ele>
        <time>2022-05-28T12:44:18Z</time>
      </trkpt>
      <trkpt lat="49.86459" lon="2.4001">
        <ele>66.3</ele>
        <time>2022-05-28T12:44:19Z</time>
      </trkpt>
      <trkpt lat="49.86458" lon="2.40011">
        <ele>66.3</ele>
        <time>2022-05-28T12:44:20Z</time>
      </trkpt>
      <trkpt lat="49.86458" lon="2.40011">
        <ele>66.3</ele>
        <time>2022-05-28T12:44:21Z</time>
      </trkpt>
      <trkpt lat="49.86458" lon="2.40011">
        <ele>66.3</ele>
        <time>2022-05-28T12:44:22Z</time>
      </trkpt>
      <trkpt lat="49.86458" lon="2.4001">
        <ele>66.3</ele>
        <time>2022-05-28T12:44:23Z</time>
      </trkpt>
      <trkpt lat="49.86458" lon="2.4001">
        <ele>66.3</ele>
        <time>2022-05-28T12:44:24Z</time>
      </trkpt>
      <trkpt lat="49.86458" lon="2.4001">
        <ele>66.3</ele>
        <time>2022-05-28T12:44:25Z</time>
      </trkpt>
      <trkpt lat="49.86458" lon="2.4001">
        <ele>66.3</ele>
        <time>2022-05-28T12:44:26Z</time>
      </trkpt>
      <trkpt lat="49.86458" lon="2.4001">
        <ele>66.3</ele>
        <time>2022-05-28T12:44:27Z</time>
      </trkpt>
      <trkpt lat="49.86458" lon="2.4001">
        <ele>66.3</ele>
        <time>2022-05-28T12:44:28Z</time>
      </trkpt>
      <trkpt lat="49.86458" lon="2.4001">
        <ele>66.3</ele>
        <time>2022-05-28T12:44:29Z</time>
      </trkpt>
      <trkpt lat="49.86458" lon="2.4001">
        <ele>66.3</ele>
        <time>2022-05-28T12:44:30Z</time>
      </trkpt>
      <trkpt lat="49.86458" lon="2.4001">
        <ele>66.3</ele>
        <time>2022-05-28T12:44:31Z</time>
      </trkpt>
      <trkpt lat="49.86458" lon="2.4001">
        <ele>66.3</ele>
        <time>2022-05-28T12:44:32Z</time>
      </trkpt>
      <trkpt lat="49.86458" lon="2.4001">
        <ele>66.3</ele>
        <time>2022-05-28T12:44:33Z</time>
      </trkpt>
      <trkpt lat="49.86458" lon="2.4001">
        <ele>66.3</ele>
        <time>2022-05-28T12:44:34Z</time>
      </trkpt>
      <trkpt lat="49.86458" lon="2.4001">
        <ele>66.3</ele>
        <time>2022-05-28T12:44:35Z</time>
      </trkpt>
      <trkpt lat="49.86458" lon="2.4001">
        <ele>66.3</ele>
        <time>2022-05-28T12:44:36Z</time>
      </trkpt>
      <trkpt lat="49.86459" lon="2.40008">
        <ele>66.3</ele>
        <time>2022-05-28T12:44:37Z</time>
      </trkpt>
      <trkpt lat="49.86459" lon="2.40008">
        <ele>66.2</ele>
        <time>2022-05-28T12:44:38Z</time>
      </trkpt>
      <trkpt lat="49.86459" lon="2.40008">
        <ele>66.2</ele>
        <time>2022-05-28T12:44:39Z</time>
      </trkpt>
      <trkpt lat="49.86458" lon="2.40008">
        <ele>66.2</ele>
        <time>2022-05-28T12:44:40Z</time>
      </trkpt>
      <trkpt lat="49.86458" lon="2.40008">
        <ele>66.2</ele>
        <time>2022-05-28T12:44:41Z</time>
      </trkpt>
      <trkpt lat="49.86458" lon="2.40008">
        <ele>66.2</ele>
        <time>2022-05-28T12:44:42Z</time>
      </trkpt>
      <trkpt lat="49.86458" lon="2.40008">
        <ele>66.2</ele>
        <time>2022-05-28T12:44:43Z</time>
      </trkpt>
      <trkpt lat="49.86458" lon="2.40008">
        <ele>66.2</ele>
        <time>2022-05-28T12:44:44Z</time>
      </trkpt>
      <trkpt lat="49.86458" lon="2.40008">
        <ele>66.2</ele>
        <time>2022-05-28T12:44:45Z</time>
      </trkpt>
      <trkpt lat="49.86458" lon="2.40008">
        <ele>66.2</ele>
        <time>2022-05-28T12:44:46Z</time>
      </trkpt>
      <trkpt lat="49.86458" lon="2.40008">
        <ele>66.2</ele>
        <time>2022-05-28T12:44:47Z</time>
      </trkpt>
      <trkpt lat="49.86458" lon="2.40008">
        <ele>66.2</ele>
        <time>2022-05-28T12:44:48Z</time>
      </trkpt>
      <trkpt lat="49.86458" lon="2.40008">
        <ele>66.2</ele>
        <time>2022-05-28T12:44:49Z</time>
      </trkpt>
      <trkpt lat="49.86458" lon="2.40008">
        <ele>66.2</ele>
        <time>2022-05-28T12:44:50Z</time>
      </trkpt>
      <trkpt lat="49.86458" lon="2.40008">
        <ele>66.2</ele>
        <time>2022-05-28T12:44:51Z</time>
      </trkpt>
      <trkpt lat="49.86458" lon="2.40008">
        <ele>66.2</ele>
        <time>2022-05-28T12:44:52Z</time>
      </trkpt>
      <trkpt lat="49.86459" lon="2.40007">
        <ele>66.2</ele>
        <time>2022-05-28T12:44:53Z</time>
      </trkpt>
      <trkpt lat="49.86459" lon="2.40007">
        <ele>66.2</ele>
        <time>2022-05-28T12:44:54Z</time>
      </trkpt>
      <trkpt lat="49.86458" lon="2.40007">
        <ele>66.2</ele>
        <time>2022-05-28T12:44:55Z</time>
      </trkpt>
      <trkpt lat="49.86458" lon="2.40007">
        <ele>66.2</ele>
        <time>2022-05-28T12:44:56Z</time>
      </trkpt>
      <trkpt lat="49.86458" lon="2.40007">
        <ele>66.2</ele>
        <time>2022-05-28T12:44:57Z</time>
      </trkpt>
      <trkpt lat="49.86458" lon="2.40007">
        <ele>66.2</ele>
        <time>2022-05-28T12:44:58Z</time>
      </trkpt>
      <trkpt lat="49.86458" lon="2.40006">
        <ele>66.2</ele>
        <time>2022-05-28T12:44:59Z</time>
      </trkpt>
      <trkpt lat="49.86458" lon="2.40006">
        <ele>66.2</ele>
        <time>2022-05-28T12:45:00Z</time>
      </trkpt>
      <trkpt lat="49.86458" lon="2.40006">
        <ele>66.2</ele>
        <time>2022-05-28T12:45:01Z</time>
      </trkpt>
      <trkpt lat="49.86458" lon="2.40006">
        <ele>66.2</ele>
        <time>2022-05-28T12:45:02Z</time>
      </trkpt>
      <trkpt lat="49.86458" lon="2.40006">
        <ele>66.2</ele>
        <time>2022-05-28T12:45:03Z</time>
      </trkpt>
      <trkpt lat="49.86458" lon="2.40006">
        <ele>66.2</ele>
        <time>2022-05-28T12:45:04Z</time>
      </trkpt>
      <trkpt lat="49.86458" lon="2.40006">
        <ele>66.2</ele>
        <time>2022-05-28T12:45:05Z</time>
      </trkpt>
      <trkpt lat="49.86458" lon="2.40006">
        <ele>66.2</ele>
        <time>2022-05-28T12:45:06Z</time>
      </trkpt>
      <trkpt lat="49.86458" lon="2.40006">
        <ele>66.2</ele>
        <time>2022-05-28T12:45:07Z</time>
      </trkpt>
      <trkpt lat="49.86458" lon="2.40006">
        <ele>66.2</ele>
        <time>2022-05-28T12:45:08Z</time>
      </trkpt>
      <trkpt lat="49.86458" lon="2.40006">
        <ele>66.2</ele>
        <time>2022-05-28T12:45:09Z</time>
      </trkpt>
      <trkpt lat="49.86458" lon="2.40006">
        <ele>66.2</ele>
        <time>2022-05-28T12:45:10Z</time>
      </trkpt>
      <trkpt lat="49.86458" lon="2.40006">
        <ele>66.2</ele>
        <time>2022-05-28T12:45:11Z</time>
      </trkpt>
      <trkpt lat="49.86458" lon="2.40006">
        <ele>66.2</ele>
        <time>2022-05-28T12:45:12Z</time>
      </trkpt>
      <trkpt lat="49.86458" lon="2.40006">
        <ele>66.2</ele>
        <time>2022-05-28T12:45:13Z</time>
      </trkpt>
      <trkpt lat="49.86458" lon="2.40006">
        <ele>66.2</ele>
        <time>2022-05-28T12:45:14Z</time>
      </trkpt>
      <trkpt lat="49.86458" lon="2.40006">
        <ele>66.2</ele>
        <time>2022-05-28T12:45:15Z</time>
      </trkpt>
      <trkpt lat="49.86458" lon="2.40006">
        <ele>66.2</ele>
        <time>2022-05-28T12:45:16Z</time>
      </trkpt>
      <trkpt lat="49.86458" lon="2.40006">
        <ele>66.2</ele>
        <time>2022-05-28T12:45:17Z</time>
      </trkpt>
      <trkpt lat="49.86458" lon="2.40006">
        <ele>66.2</ele>
        <time>2022-05-28T12:45:18Z</time>
      </trkpt>
      <trkpt lat="49.86458" lon="2.40006">
        <ele>66.2</ele>
        <time>2022-05-28T12:45:19Z</time>
      </trkpt>
      <trkpt lat="49.86458" lon="2.40006">
        <ele>66.2</ele>
        <time>2022-05-28T12:45:20Z</time>
      </trkpt>
      <trkpt lat="49.86458" lon="2.40006">
        <ele>66.2</ele>
        <time>2022-05-28T12:45:21Z</time>
      </trkpt>
      <trkpt lat="49.86458" lon="2.40006">
        <ele>66.2</ele>
        <time>2022-05-28T12:45:22Z</time>
      </trkpt>
      <trkpt lat="49.86458" lon="2.40006">
        <ele>66.2</ele>
        <time>2022-05-28T12:45:23Z</time>
      </trkpt>
      <trkpt lat="49.86458" lon="2.40006">
        <ele>66.2</ele>
        <time>2022-05-28T12:45:24Z</time>
      </trkpt>
      <trkpt lat="49.86458" lon="2.40006">
        <ele>66.2</ele>
        <time>2022-05-28T12:45:25Z</time>
      </trkpt>
      <trkpt lat="49.86458" lon="2.40006">
        <ele>66.2</ele>
        <time>2022-05-28T12:45:26Z</time>
      </trkpt>
      <trkpt lat="49.86458" lon="2.40006">
        <ele>66.2</ele>
        <time>2022-05-28T12:45:27Z</time>
      </trkpt>
      <trkpt lat="49.86458" lon="2.40006">
        <ele>66.2</ele>
        <time>2022-05-28T12:45:28Z</time>
      </trkpt>
      <trkpt lat="49.86458" lon="2.40006">
        <ele>66.2</ele>
        <time>2022-05-28T12:45:29Z</time>
      </trkpt>
      <trkpt lat="49.86458" lon="2.40006">
        <ele>66.2</ele>
        <time>2022-05-28T12:45:30Z</time>
      </trkpt>
      <trkpt lat="49.86458" lon="2.40006">
        <ele>66.2</ele>
        <time>2022-05-28T12:45:31Z</time>
      </trkpt>
      <trkpt lat="49.86458" lon="2.40006">
        <ele>66.2</ele>
        <time>2022-05-28T12:45:32Z</time>
      </trkpt>
      <trkpt lat="49.86458" lon="2.40006">
        <ele>66.2</ele>
        <time>2022-05-28T12:45:33Z</time>
      </trkpt>
      <trkpt lat="49.86458" lon="2.40006">
        <ele>66.2</ele>
        <time>2022-05-28T12:45:34Z</time>
      </trkpt>
      <trkpt lat="49.86458" lon="2.40006">
        <ele>66.2</ele>
        <time>2022-05-28T12:45:35Z</time>
      </trkpt>
      <trkpt lat="49.86458" lon="2.40006">
        <ele>66.2</ele>
        <time>2022-05-28T12:45:36Z</time>
      </trkpt>
      <trkpt lat="49.86458" lon="2.40006">
        <ele>66.2</ele>
        <time>2022-05-28T12:45:37Z</time>
      </trkpt>
      <trkpt lat="49.86458" lon="2.40006">
        <ele>66.2</ele>
        <time>2022-05-28T12:45:38Z</time>
      </trkpt>
      <trkpt lat="49.86458" lon="2.40006">
        <ele>66.2</ele>
        <time>2022-05-28T12:45:39Z</time>
      </trkpt>
      <trkpt lat="49.86458" lon="2.40006">
        <ele>66.2</ele>
        <time>2022-05-28T12:45:40Z</time>
      </trkpt>
      <trkpt lat="49.86458" lon="2.40006">
        <ele>66.2</ele>
        <time>2022-05-28T12:45:41Z</time>
      </trkpt>
      <trkpt lat="49.86458" lon="2.40006">
        <ele>66.2</ele>
        <time>2022-05-28T12:45:42Z</time>
      </trkpt>
      <trkpt lat="49.86458" lon="2.40006">
        <ele>66.2</ele>
        <time>2022-05-28T12:45:43Z</time>
      </trkpt>
      <trkpt lat="49.86458" lon="2.40006">
        <ele>66.2</ele>
        <time>2022-05-28T12:45:44Z</time>
      </trkpt>
      <trkpt lat="49.86457" lon="2.40006">
        <ele>66.4</ele>
        <time>2022-05-28T12:45:45Z</time>
      </trkpt>
      <trkpt lat="49.86456" lon="2.40006">
        <ele>66.4</ele>
        <time>2022-05-28T12:45:46Z</time>
      </trkpt>
      <trkpt lat="49.86455" lon="2.40006">
        <ele>66.4</ele>
        <time>2022-05-28T12:45:47Z</time>
      </trkpt>
      <trkpt lat="49.86453" lon="2.40006">
        <ele>66.6</ele>
        <time>2022-05-28T12:45:48Z</time>
      </trkpt>
      <trkpt lat="49.86453" lon="2.40006">
        <ele>66.6</ele>
        <time>2022-05-28T12:45:49Z</time>
      </trkpt>
      <trkpt lat="49.86452" lon="2.40006">
        <ele>66.8</ele>
        <time>2022-05-28T12:45:50Z</time>
      </trkpt>
      <trkpt lat="49.86451" lon="2.40006">
        <ele>66.8</ele>
        <time>2022-05-28T12:45:51Z</time>
      </trkpt>
      <trkpt lat="49.8645" lon="2.40007">
        <ele>66.8</ele>
        <time>2022-05-28T12:45:52Z</time>
      </trkpt>
      <trkpt lat="49.86449" lon="2.40007">
        <ele>66.8</ele>
        <time>2022-05-28T12:45:53Z</time>
      </trkpt>
      <trkpt lat="49.86448" lon="2.40007">
        <ele>67</ele>
        <time>2022-05-28T12:45:54Z</time>
      </trkpt>
      <trkpt lat="49.86447" lon="2.40008">
        <ele>67</ele>
        <time>2022-05-28T12:45:55Z</time>
      </trkpt>
      <trkpt lat="49.86446" lon="2.40008">
        <ele>67.2</ele>
        <time>2022-05-28T12:45:56Z</time>
      </trkpt>
      <trkpt lat="49.86446" lon="2.40008">
        <ele>67.2</ele>
        <time>2022-05-28T12:45:57Z</time>
      </trkpt>
      <trkpt lat="49.86445" lon="2.40007">
        <ele>67.2</ele>
        <time>2022-05-28T12:45:58Z</time>
      </trkpt>
      <trkpt lat="49.86444" lon="2.40006">
        <ele>67.2</ele>
        <time>2022-05-28T12:45:59Z</time>
      </trkpt>
      <trkpt lat="49.86443" lon="2.40006">
        <ele>67.5</ele>
        <time>2022-05-28T12:46:00Z</time>
      </trkpt>
      <trkpt lat="49.86443" lon="2.40005">
        <ele>67.5</ele>
        <time>2022-05-28T12:46:01Z</time>
      </trkpt>
      <trkpt lat="49.86442" lon="2.40005">
        <ele>67.5</ele>
        <time>2022-05-28T12:46:02Z</time>
      </trkpt>
      <trkpt lat="49.86442" lon="2.40005">
        <ele>67.5</ele>
        <time>2022-05-28T12:46:03Z</time>
      </trkpt>
      <trkpt lat="49.86442" lon="2.40005">
        <ele>67.5</ele>
        <time>2022-05-28T12:46:04Z</time>
      </trkpt>
      <trkpt lat="49.86442" lon="2.40005">
        <ele>67.5</ele>
        <time>2022-05-28T12:46:05Z</time>
      </trkpt>
      <trkpt lat="49.86442" lon="2.40006">
        <ele>67.5</ele>
        <time>2022-05-28T12:46:06Z</time>
      </trkpt>
      <trkpt lat="49.86442" lon="2.40006">
        <ele>67.5</ele>
        <time>2022-05-28T12:46:07Z</time>
      </trkpt>
      <trkpt lat="49.86442" lon="2.40006">
        <ele>67.5</ele>
        <time>2022-05-28T12:46:08Z</time>
      </trkpt>
      <trkpt lat="49.86442" lon="2.40006">
        <ele>67.5</ele>
        <time>2022-05-28T12:46:09Z</time>
      </trkpt>
      <trkpt lat="49.86442" lon="2.40006">
        <ele>67.5</ele>
        <time>2022-05-28T12:46:10Z</time>
      </trkpt>
      <trkpt lat="49.86442" lon="2.40006">
        <ele>67.5</ele>
        <time>2022-05-28T12:46:11Z</time>
      </trkpt>
      <trkpt lat="49.86443" lon="2.40006">
        <ele>67.5</ele>
        <time>2022-05-28T12:46:12Z</time>
      </trkpt>
      <trkpt lat="49.86443" lon="2.40006">
        <ele>67.5</ele>
        <time>2022-05-28T12:46:13Z</time>
      </trkpt>
      <trkpt lat="49.86443" lon="2.40006">
        <ele>67.5</ele>
        <time>2022-05-28T12:46:14Z</time>
      </trkpt>
      <trkpt lat="49.86443" lon="2.40006">
        <ele>67.5</ele>
        <time>2022-05-28T12:46:15Z</time>
      </trkpt>
      <trkpt lat="49.86443" lon="2.40006">
        <ele>67.5</ele>
        <time>2022-05-28T12:46:16Z</time>
      </trkpt>
      <trkpt lat="49.86443" lon="2.40006">
        <ele>67.5</ele>
        <time>2022-05-28T12:46:17Z</time>
      </trkpt>
      <trkpt lat="49.86443" lon="2.40006">
        <ele>67.5</ele>
        <time>2022-05-28T12:46:18Z</time>
      </trkpt>
      <trkpt lat="49.86443" lon="2.40006">
        <ele>67.5</ele>
        <time>2022-05-28T12:46:19Z</time>
      </trkpt>
      <trkpt lat="49.86443" lon="2.40006">
        <ele>67.5</ele>
        <time>2022-05-28T12:46:20Z</time>
      </trkpt>
      <trkpt lat="49.86443" lon="2.40006">
        <ele>67.5</ele>
        <time>2022-05-28T12:46:21Z</time>
      </trkpt>
      <trkpt lat="49.86443" lon="2.40006">
        <ele>67.5</ele>
        <time>2022-05-28T12:46:22Z</time>
      </trkpt>
      <trkpt lat="49.86443" lon="2.40006">
        <ele>67.5</ele>
        <time>2022-05-28T12:46:23Z</time>
      </trkpt>
      <trkpt lat="49.86444" lon="2.40007">
        <ele>67.2</ele>
        <time>2022-05-28T12:46:24Z</time>
      </trkpt>
      <trkpt lat="49.86444" lon="2.40008">
        <ele>67.2</ele>
        <time>2022-05-28T12:46:25Z</time>
      </trkpt>
      <trkpt lat="49.86443" lon="2.40008">
        <ele>67.6</ele>
        <time>2022-05-28T12:46:26Z</time>
      </trkpt>
      <trkpt lat="49.86443" lon="2.40009">
        <ele>67.6</ele>
        <time>2022-05-28T12:46:27Z</time>
      </trkpt>
      <trkpt lat="49.86442" lon="2.4001">
        <ele>67.6</ele>
        <time>2022-05-28T12:46:28Z</time>
      </trkpt>
      <trkpt lat="49.86441" lon="2.40011">
        <ele>67.6</ele>
        <time>2022-05-28T12:46:29Z</time>
      </trkpt>
      <trkpt lat="49.8644" lon="2.40012">
        <ele>67.8</ele>
        <time>2022-05-28T12:46:30Z</time>
      </trkpt>
      <trkpt lat="49.8644" lon="2.40012">
        <ele>67.8</ele>
        <time>2022-05-28T12:46:31Z</time>
      </trkpt>
      <trkpt lat="49.86439" lon="2.40013">
        <ele>68</ele>
        <time>2022-05-28T12:46:32Z</time>
      </trkpt>
      <trkpt lat="49.86438" lon="2.40013">
        <ele>68</ele>
        <time>2022-05-28T12:46:33Z</time>
      </trkpt>
      <trkpt lat="49.86438" lon="2.40014">
        <ele>68.2</ele>
        <time>2022-05-28T12:46:34Z</time>
      </trkpt>
      <trkpt lat="49.86437" lon="2.40015">
        <ele>68.2</ele>
        <time>2022-05-28T12:46:35Z</time>
      </trkpt>
      <trkpt lat="49.86436" lon="2.40016">
        <ele>68.2</ele>
        <time>2022-05-28T12:46:36Z</time>
      </trkpt>
      <trkpt lat="49.86435" lon="2.40016">
        <ele>68.5</ele>
        <time>2022-05-28T12:46:37Z</time>
      </trkpt>
      <trkpt lat="49.86434" lon="2.40017">
        <ele>68.5</ele>
        <time>2022-05-28T12:46:38Z</time>
      </trkpt>
      <trkpt lat="49.86434" lon="2.40017">
        <ele>68.6</ele>
        <time>2022-05-28T12:46:39Z</time>
      </trkpt>
      <trkpt lat="49.86433" lon="2.40018">
        <ele>68.6</ele>
        <time>2022-05-28T12:46:40Z</time>
      </trkpt>
      <trkpt lat="49.86432" lon="2.40018">
        <ele>68.9</ele>
        <time>2022-05-28T12:46:41Z</time>
      </trkpt>
      <trkpt lat="49.86431" lon="2.40018">
        <ele>68.9</ele>
        <time>2022-05-28T12:46:42Z</time>
      </trkpt>
      <trkpt lat="49.8643" lon="2.40019">
        <ele>68.9</ele>
        <time>2022-05-28T12:46:43Z</time>
      </trkpt>
      <trkpt lat="49.8643" lon="2.40019">
        <ele>69.1</ele>
        <time>2022-05-28T12:46:44Z</time>
      </trkpt>
      <trkpt lat="49.86429" lon="2.4002">
        <ele>69.1</ele>
        <time>2022-05-28T12:46:45Z</time>
      </trkpt>
      <trkpt lat="49.86428" lon="2.4002">
        <ele>69.1</ele>
        <time>2022-05-28T12:46:46Z</time>
      </trkpt>
      <trkpt lat="49.86427" lon="2.40021">
        <ele>69.3</ele>
        <time>2022-05-28T12:46:47Z</time>
      </trkpt>
      <trkpt lat="49.86426" lon="2.40021">
        <ele>69.3</ele>
        <time>2022-05-28T12:46:48Z</time>
      </trkpt>
      <trkpt lat="49.86425" lon="2.40021">
        <ele>69.3</ele>
        <time>2022-05-28T12:46:49Z</time>
      </trkpt>
      <trkpt lat="49.86424" lon="2.40021">
        <ele>69.5</ele>
        <time>2022-05-28T12:46:50Z</time>
      </trkpt>
      <trkpt lat="49.86423" lon="2.40022">
        <ele>69.7</ele>
        <time>2022-05-28T12:46:51Z</time>
      </trkpt>
      <trkpt lat="49.86422" lon="2.40022">
        <ele>69.7</ele>
        <time>2022-05-28T12:46:52Z</time>
      </trkpt>
      <trkpt lat="49.86421" lon="2.40022">
        <ele>70</ele>
        <time>2022-05-28T12:46:53Z</time>
      </trkpt>
      <trkpt lat="49.8642" lon="2.40022">
        <ele>70</ele>
        <time>2022-05-28T12:46:54Z</time>
      </trkpt>
      <trkpt lat="49.8642" lon="2.40022">
        <ele>70</ele>
        <time>2022-05-28T12:46:55Z</time>
      </trkpt>
      <trkpt lat="49.86419" lon="2.40022">
        <ele>70.2</ele>
        <time>2022-05-28T12:46:56Z</time>
      </trkpt>
      <trkpt lat="49.86418" lon="2.40023">
        <ele>70.2</ele>
        <time>2022-05-28T12:46:57Z</time>
      </trkpt>
      <trkpt lat="49.86417" lon="2.40023">
        <ele>70.2</ele>
        <time>2022-05-28T12:46:58Z</time>
      </trkpt>
      <trkpt lat="49.86416" lon="2.40024">
        <ele>70.2</ele>
        <time>2022-05-28T12:46:59Z</time>
      </trkpt>
      <trkpt lat="49.86415" lon="2.40024">
        <ele>70.4</ele>
        <time>2022-05-28T12:47:00Z</time>
      </trkpt>
      <trkpt lat="49.86414" lon="2.40025">
        <ele>70.4</ele>
        <time>2022-05-28T12:47:01Z</time>
      </trkpt>
      <trkpt lat="49.86413" lon="2.40026">
        <ele>70.4</ele>
        <time>2022-05-28T12:47:02Z</time>
      </trkpt>
      <trkpt lat="49.86413" lon="2.40026">
        <ele>70.8</ele>
        <time>2022-05-28T12:47:03Z</time>
      </trkpt>
      <trkpt lat="49.86412" lon="2.40026">
        <ele>70.8</ele>
        <time>2022-05-28T12:47:04Z</time>
      </trkpt>
      <trkpt lat="49.86411" lon="2.40027">
        <ele>70.8</ele>
        <time>2022-05-28T12:47:05Z</time>
      </trkpt>
      <trkpt lat="49.86409" lon="2.40027">
        <ele>71.1</ele>
        <time>2022-05-28T12:47:06Z</time>
      </trkpt>
      <trkpt lat="49.86409" lon="2.40028">
        <ele>71.1</ele>
        <time>2022-05-28T12:47:07Z</time>
      </trkpt>
      <trkpt lat="49.86409" lon="2.40029">
        <ele>71.1</ele>
        <time>2022-05-28T12:47:08Z</time>
      </trkpt>
      <trkpt lat="49.86409" lon="2.4003">
        <ele>71.1</ele>
        <time>2022-05-28T12:47:09Z</time>
      </trkpt>
      <trkpt lat="49.86409" lon="2.40031">
        <ele>71.3</ele>
        <time>2022-05-28T12:47:10Z</time>
      </trkpt>
      <trkpt lat="49.86409" lon="2.40031">
        <ele>71.3</ele>
        <time>2022-05-28T12:47:11Z</time>
      </trkpt>
      <trkpt lat="49.86409" lon="2.40032">
        <ele>71.3</ele>
        <time>2022-05-28T12:47:12Z</time>
      </trkpt>
      <trkpt lat="49.86409" lon="2.40032">
        <ele>71.3</ele>
        <time>2022-05-28T12:47:13Z</time>
      </trkpt>
      <trkpt lat="49.86409" lon="2.40033">
        <ele>71.3</ele>
        <time>2022-05-28T12:47:14Z</time>
      </trkpt>
      <trkpt lat="49.86409" lon="2.40033">
        <ele>71.3</ele>
        <time>2022-05-28T12:47:15Z</time>
      </trkpt>
      <trkpt lat="49.86409" lon="2.40033">
        <ele>71.3</ele>
        <time>2022-05-28T12:47:16Z</time>
      </trkpt>
      <trkpt lat="49.86409" lon="2.40033">
        <ele>71.3</ele>
        <time>2022-05-28T12:47:17Z</time>
      </trkpt>
      <trkpt lat="49.86409" lon="2.40033">
        <ele>71.3</ele>
        <time>2022-05-28T12:47:18Z</time>
      </trkpt>
      <trkpt lat="49.86408" lon="2.40033">
        <ele>71.3</ele>
        <time>2022-05-28T12:47:19Z</time>
      </trkpt>
      <trkpt lat="49.86408" lon="2.40033">
        <ele>71.5</ele>
        <time>2022-05-28T12:47:20Z</time>
      </trkpt>
      <trkpt lat="49.86407" lon="2.40032">
        <ele>71.5</ele>
        <time>2022-05-28T12:47:21Z</time>
      </trkpt>
      <trkpt lat="49.86406" lon="2.40031">
        <ele>71.5</ele>
        <time>2022-05-28T12:47:22Z</time>
      </trkpt>
      <trkpt lat="49.86405" lon="2.40031">
        <ele>71.5</ele>
        <time>2022-05-28T12:47:23Z</time>
      </trkpt>
      <trkpt lat="49.86404" lon="2.40031">
        <ele>71.7</ele>
        <time>2022-05-28T12:47:24Z</time>
      </trkpt>
      <trkpt lat="49.86403" lon="2.40031">
        <ele>71.7</ele>
        <time>2022-05-28T12:47:25Z</time>
      </trkpt>
      <trkpt lat="49.86402" lon="2.40031">
        <ele>72</ele>
        <time>2022-05-28T12:47:26Z</time>
      </trkpt>
      <trkpt lat="49.86401" lon="2.40031">
        <ele>72</ele>
        <time>2022-05-28T12:47:27Z</time>
      </trkpt>
      <trkpt lat="49.864" lon="2.40031">
        <ele>72</ele>
        <time>2022-05-28T12:47:28Z</time>
      </trkpt>
      <trkpt lat="49.864" lon="2.40031">
        <ele>72</ele>
        <time>2022-05-28T12:47:29Z</time>
      </trkpt>
      <trkpt lat="49.86399" lon="2.40031">
        <ele>72.2</ele>
        <time>2022-05-28T12:47:30Z</time>
      </trkpt>
      <trkpt lat="49.86398" lon="2.4003">
        <ele>72.2</ele>
        <time>2022-05-28T12:47:31Z</time>
      </trkpt>
      <trkpt lat="49.86397" lon="2.4003">
        <ele>72.2</ele>
        <time>2022-05-28T12:47:32Z</time>
      </trkpt>
      <trkpt lat="49.86396" lon="2.4003">
        <ele>72.2</ele>
        <time>2022-05-28T12:47:33Z</time>
      </trkpt>
      <trkpt lat="49.86396" lon="2.4003">
        <ele>72.2</ele>
        <time>2022-05-28T12:47:34Z</time>
      </trkpt>
      <trkpt lat="49.86395" lon="2.40029">
        <ele>72.2</ele>
        <time>2022-05-28T12:47:35Z</time>
      </trkpt>
      <trkpt lat="49.86394" lon="2.40029">
        <ele>72.2</ele>
        <time>2022-05-28T12:47:36Z</time>
      </trkpt>
      <trkpt lat="49.86393" lon="2.40029">
        <ele>72.4</ele>
        <time>2022-05-28T12:47:37Z</time>
      </trkpt>
      <trkpt lat="49.86393" lon="2.40029">
        <ele>72.4</ele>
        <time>2022-05-28T12:47:38Z</time>
      </trkpt>
      <trkpt lat="49.86392" lon="2.40028">
        <ele>72.4</ele>
        <time>2022-05-28T12:47:39Z</time>
      </trkpt>
      <trkpt lat="49.86391" lon="2.40028">
        <ele>72.4</ele>
        <time>2022-05-28T12:47:40Z</time>
      </trkpt>
      <trkpt lat="49.86391" lon="2.40028">
        <ele>72.7</ele>
        <time>2022-05-28T12:47:41Z</time>
      </trkpt>
      <trkpt lat="49.86391" lon="2.40028">
        <ele>72.7</ele>
        <time>2022-05-28T12:47:42Z</time>
      </trkpt>
      <trkpt lat="49.8639" lon="2.40027">
        <ele>72.7</ele>
        <time>2022-05-28T12:47:43Z</time>
      </trkpt>
      <trkpt lat="49.8639" lon="2.40027">
        <ele>72.7</ele>
        <time>2022-05-28T12:47:44Z</time>
      </trkpt>
      <trkpt lat="49.86389" lon="2.40027">
        <ele>72.7</ele>
        <time>2022-05-28T12:47:45Z</time>
      </trkpt>
      <trkpt lat="49.86388" lon="2.40027">
        <ele>72.9</ele>
        <time>2022-05-28T12:47:46Z</time>
      </trkpt>
      <trkpt lat="49.86388" lon="2.40027">
        <ele>72.9</ele>
        <time>2022-05-28T12:47:47Z</time>
      </trkpt>
      <trkpt lat="49.86387" lon="2.40027">
        <ele>72.9</ele>
        <time>2022-05-28T12:47:48Z</time>
      </trkpt>
      <trkpt lat="49.86386" lon="2.40027">
        <ele>72.9</ele>
        <time>2022-05-28T12:47:49Z</time>
      </trkpt>
      <trkpt lat="49.86386" lon="2.40027">
        <ele>72.9</ele>
        <time>2022-05-28T12:47:50Z</time>
      </trkpt>
      <trkpt lat="49.86385" lon="2.40027">
        <ele>73.1</ele>
        <time>2022-05-28T12:47:51Z</time>
      </trkpt>
      <trkpt lat="49.86384" lon="2.40027">
        <ele>73.1</ele>
        <time>2022-05-28T12:47:52Z</time>
      </trkpt>
      <trkpt lat="49.86383" lon="2.40027">
        <ele>73.1</ele>
        <time>2022-05-28T12:47:53Z</time>
      </trkpt>
      <trkpt lat="49.86382" lon="2.40027">
        <ele>73.3</ele>
        <time>2022-05-28T12:47:54Z</time>
      </trkpt>
      <trkpt lat="49.86381" lon="2.40026">
        <ele>73.3</ele>
        <time>2022-05-28T12:47:55Z</time>
      </trkpt>
      <trkpt lat="49.8638" lon="2.40026">
        <ele>73.3</ele>
        <time>2022-05-28T12:47:56Z</time>
      </trkpt>
      <trkpt lat="49.86379" lon="2.40026">
        <ele>73.6</ele>
        <time>2022-05-28T12:47:57Z</time>
      </trkpt>
      <trkpt lat="49.86378" lon="2.40026">
        <ele>73.6</ele>
        <time>2022-05-28T12:47:58Z</time>
      </trkpt>
      <trkpt lat="49.86377" lon="2.40026">
        <ele>73.8</ele>
        <time>2022-05-28T12:47:59Z</time>
      </trkpt>
      <trkpt lat="49.86376" lon="2.40026">
        <ele>73.6</ele>
        <time>2022-05-28T12:48:00Z</time>
      </trkpt>
      <trkpt lat="49.86375" lon="2.40025">
        <ele>73.6</ele>
        <time>2022-05-28T12:48:01Z</time>
      </trkpt>
      <trkpt lat="49.86375" lon="2.40025">
        <ele>73.6</ele>
        <time>2022-05-28T12:48:02Z</time>
      </trkpt>
      <trkpt lat="49.86374" lon="2.40025">
        <ele>73.8</ele>
        <time>2022-05-28T12:48:03Z</time>
      </trkpt>
      <trkpt lat="49.86373" lon="2.40025">
        <ele>73.8</ele>
        <time>2022-05-28T12:48:04Z</time>
      </trkpt>
      <trkpt lat="49.86372" lon="2.40025">
        <ele>73.8</ele>
        <time>2022-05-28T12:48:05Z</time>
      </trkpt>
      <trkpt lat="49.86371" lon="2.40025">
        <ele>74</ele>
        <time>2022-05-28T12:48:06Z</time>
      </trkpt>
      <trkpt lat="49.8637" lon="2.40025">
        <ele>74</ele>
        <time>2022-05-28T12:48:07Z</time>
      </trkpt>
      <trkpt lat="49.86369" lon="2.40025">
        <ele>74</ele>
        <time>2022-05-28T12:48:08Z</time>
      </trkpt>
      <trkpt lat="49.86368" lon="2.40025">
        <ele>74.2</ele>
        <time>2022-05-28T12:48:09Z</time>
      </trkpt>
      <trkpt lat="49.86366" lon="2.40025">
        <ele>74.5</ele>
        <time>2022-05-28T12:48:10Z</time>
      </trkpt>
      <trkpt lat="49.86365" lon="2.40025">
        <ele>74.5</ele>
        <time>2022-05-28T12:48:11Z</time>
      </trkpt>
      <trkpt lat="49.86364" lon="2.40025">
        <ele>74.5</ele>
        <time>2022-05-28T12:48:12Z</time>
      </trkpt>
      <trkpt lat="49.86363" lon="2.40024">
        <ele>74.7</ele>
        <time>2022-05-28T12:48:13Z</time>
      </trkpt>
      <trkpt lat="49.86361" lon="2.40024">
        <ele>74.7</ele>
        <time>2022-05-28T12:48:14Z</time>
      </trkpt>
      <trkpt lat="49.8636" lon="2.40024">
        <ele>74.9</ele>
        <time>2022-05-28T12:48:15Z</time>
      </trkpt>
      <trkpt lat="49.86359" lon="2.40024">
        <ele>74.9</ele>
        <time>2022-05-28T12:48:16Z</time>
      </trkpt>
      <trkpt lat="49.86358" lon="2.40024">
        <ele>74.9</ele>
        <time>2022-05-28T12:48:17Z</time>
      </trkpt>
      <trkpt lat="49.86357" lon="2.40023">
        <ele>75.1</ele>
        <time>2022-05-28T12:48:18Z</time>
      </trkpt>
      <trkpt lat="49.86356" lon="2.40023">
        <ele>75.1</ele>
        <time>2022-05-28T12:48:19Z</time>
      </trkpt>
      <trkpt lat="49.86355" lon="2.40023">
        <ele>75.3</ele>
        <time>2022-05-28T12:48:20Z</time>
      </trkpt>
      <trkpt lat="49.86354" lon="2.40022">
        <ele>75.3</ele>
        <time>2022-05-28T12:48:21Z</time>
      </trkpt>
      <trkpt lat="49.86353" lon="2.40022">
        <ele>75.3</ele>
        <time>2022-05-28T12:48:22Z</time>
      </trkpt>
      <trkpt lat="49.86353" lon="2.40021">
        <ele>75.1</ele>
        <time>2022-05-28T12:48:23Z</time>
      </trkpt>
      <trkpt lat="49.86352" lon="2.4002">
        <ele>75.3</ele>
        <time>2022-05-28T12:48:24Z</time>
      </trkpt>
      <trkpt lat="49.86351" lon="2.4002">
        <ele>75.3</ele>
        <time>2022-05-28T12:48:25Z</time>
      </trkpt>
      <trkpt lat="49.8635" lon="2.40019">
        <ele>75.3</ele>
        <time>2022-05-28T12:48:26Z</time>
      </trkpt>
      <trkpt lat="49.86349" lon="2.40019">
        <ele>75.4</ele>
        <time>2022-05-28T12:48:27Z</time>
      </trkpt>
      <trkpt lat="49.86348" lon="2.40018">
        <ele>75.4</ele>
        <time>2022-05-28T12:48:28Z</time>
      </trkpt>
      <trkpt lat="49.86347" lon="2.40018">
        <ele>75.4</ele>
        <time>2022-05-28T12:48:29Z</time>
      </trkpt>
      <trkpt lat="49.86346" lon="2.40018">
        <ele>75.6</ele>
        <time>2022-05-28T12:48:30Z</time>
      </trkpt>
      <trkpt lat="49.86345" lon="2.40018">
        <ele>75.6</ele>
        <time>2022-05-28T12:48:31Z</time>
      </trkpt>
      <trkpt lat="49.86345" lon="2.40019">
        <ele>75.6</ele>
        <time>2022-05-28T12:48:32Z</time>
      </trkpt>
      <trkpt lat="49.86344" lon="2.40019">
        <ele>75.8</ele>
        <time>2022-05-28T12:48:33Z</time>
      </trkpt>
      <trkpt lat="49.86344" lon="2.40021">
        <ele>75.8</ele>
        <time>2022-05-28T12:48:34Z</time>
      </trkpt>
      <trkpt lat="49.86344" lon="2.40022">
        <ele>76</ele>
        <time>2022-05-28T12:48:35Z</time>
      </trkpt>
      <trkpt lat="49.86343" lon="2.40024">
        <ele>76</ele>
        <time>2022-05-28T12:48:36Z</time>
      </trkpt>
      <trkpt lat="49.86343" lon="2.40025">
        <ele>76</ele>
        <time>2022-05-28T12:48:37Z</time>
      </trkpt>
      <trkpt lat="49.86343" lon="2.40026">
        <ele>76.3</ele>
        <time>2022-05-28T12:48:38Z</time>
      </trkpt>
      <trkpt lat="49.86342" lon="2.40027">
        <ele>76.3</ele>
        <time>2022-05-28T12:48:39Z</time>
      </trkpt>
      <trkpt lat="49.86342" lon="2.40028">
        <ele>76.3</ele>
        <time>2022-05-28T12:48:40Z</time>
      </trkpt>
      <trkpt lat="49.86342" lon="2.40029">
        <ele>76.3</ele>
        <time>2022-05-28T12:48:41Z</time>
      </trkpt>
      <trkpt lat="49.86341" lon="2.4003">
        <ele>76.7</ele>
        <time>2022-05-28T12:48:42Z</time>
      </trkpt>
      <trkpt lat="49.8634" lon="2.40031">
        <ele>76.7</ele>
        <time>2022-05-28T12:48:43Z</time>
      </trkpt>
      <trkpt lat="49.86339" lon="2.40031">
        <ele>76.7</ele>
        <time>2022-05-28T12:48:44Z</time>
      </trkpt>
      <trkpt lat="49.86339" lon="2.40029">
        <ele>76.4</ele>
        <time>2022-05-28T12:48:45Z</time>
      </trkpt>
      <trkpt lat="49.86339" lon="2.40028">
        <ele>76.4</ele>
        <time>2022-05-28T12:48:46Z</time>
      </trkpt>
      <trkpt lat="49.86339" lon="2.40027">
        <ele>76.4</ele>
        <time>2022-05-28T12:48:47Z</time>
      </trkpt>
      <trkpt lat="49.86339" lon="2.40025">
        <ele>76.2</ele>
        <time>2022-05-28T12:48:48Z</time>
      </trkpt>
      <trkpt lat="49.86339" lon="2.40023">
        <ele>76.2</ele>
        <time>2022-05-28T12:48:49Z</time>
      </trkpt>
      <trkpt lat="49.8634" lon="2.40021">
        <ele>76.2</ele>
        <time>2022-05-28T12:48:50Z</time>
      </trkpt>
      <trkpt lat="49.8634" lon="2.4002">
        <ele>76</ele>
        <time>2022-05-28T12:48:51Z</time>
      </trkpt>
      <trkpt lat="49.8634" lon="2.40019">
        <ele>76</ele>
        <time>2022-05-28T12:48:52Z</time>
      </trkpt>
      <trkpt lat="49.86341" lon="2.40019">
        <ele>76</ele>
        <time>2022-05-28T12:48:53Z</time>
      </trkpt>
      <trkpt lat="49.86341" lon="2.40018">
        <ele>76</ele>
        <time>2022-05-28T12:48:54Z</time>
      </trkpt>
      <trkpt lat="49.86341" lon="2.40018">
        <ele>76</ele>
        <time>2022-05-28T12:48:55Z</time>
      </trkpt>
      <trkpt lat="49.86341" lon="2.40017">
        <ele>76</ele>
        <time>2022-05-28T12:48:56Z</time>
      </trkpt>
      <trkpt lat="49.86341" lon="2.40017">
        <ele>76</ele>
        <time>2022-05-28T12:48:57Z</time>
      </trkpt>
      <trkpt lat="49.86341" lon="2.40017">
        <ele>75.6</ele>
        <time>2022-05-28T12:48:58Z</time>
      </trkpt>
      <trkpt lat="49.86341" lon="2.40016">
        <ele>75.6</ele>
        <time>2022-05-28T12:48:59Z</time>
      </trkpt>
      <trkpt lat="49.86341" lon="2.40016">
        <ele>75.6</ele>
        <time>2022-05-28T12:49:00Z</time>
      </trkpt>
      <trkpt lat="49.86342" lon="2.40016">
        <ele>75.6</ele>
        <time>2022-05-28T12:49:01Z</time>
      </trkpt>
      <trkpt lat="49.86342" lon="2.40016">
        <ele>75.6</ele>
        <time>2022-05-28T12:49:02Z</time>
      </trkpt>
      <trkpt lat="49.86342" lon="2.40016">
        <ele>75.6</ele>
        <time>2022-05-28T12:49:03Z</time>
      </trkpt>
      <trkpt lat="49.86342" lon="2.40015">
        <ele>75.6</ele>
        <time>2022-05-28T12:49:04Z</time>
      </trkpt>
      <trkpt lat="49.86342" lon="2.40015">
        <ele>75.6</ele>
        <time>2022-05-28T12:49:05Z</time>
      </trkpt>
      <trkpt lat="49.86342" lon="2.40015">
        <ele>75.6</ele>
        <time>2022-05-28T12:49:06Z</time>
      </trkpt>
      <trkpt lat="49.86342" lon="2.40015">
        <ele>75.6</ele>
        <time>2022-05-28T12:49:07Z</time>
      </trkpt>
      <trkpt lat="49.86342" lon="2.40016">
        <ele>75.6</ele>
        <time>2022-05-28T12:49:08Z</time>
      </trkpt>
      <trkpt lat="49.86342" lon="2.40016">
        <ele>75.6</ele>
        <time>2022-05-28T12:49:09Z</time>
      </trkpt>
      <trkpt lat="49.86342" lon="2.40016">
        <ele>75.6</ele>
        <time>2022-05-28T12:49:10Z</time>
      </trkpt>
      <trkpt lat="49.86342" lon="2.40016">
        <ele>75.6</ele>
        <time>2022-05-28T12:49:11Z</time>
      </trkpt>
      <trkpt lat="49.86342" lon="2.40016">
        <ele>75.6</ele>
        <time>2022-05-28T12:49:12Z</time>
      </trkpt>
      <trkpt lat="49.86342" lon="2.40016">
        <ele>75.6</ele>
        <time>2022-05-28T12:49:13Z</time>
      </trkpt>
      <trkpt lat="49.86342" lon="2.40016">
        <ele>75.6</ele>
        <time>2022-05-28T12:49:14Z</time>
      </trkpt>
      <trkpt lat="49.86342" lon="2.40016">
        <ele>75.6</ele>
        <time>2022-05-28T12:49:15Z</time>
      </trkpt>
      <trkpt lat="49.86342" lon="2.40016">
        <ele>75.6</ele>
        <time>2022-05-28T12:49:16Z</time>
      </trkpt>
      <trkpt lat="49.86342" lon="2.40016">
        <ele>75.6</ele>
        <time>2022-05-28T12:49:17Z</time>
      </trkpt>
      <trkpt lat="49.86342" lon="2.40016">
        <ele>75.6</ele>
        <time>2022-05-28T12:49:18Z</time>
      </trkpt>
      <trkpt lat="49.86342" lon="2.40016">
        <ele>75.6</ele>
        <time>2022-05-28T12:49:19Z</time>
      </trkpt>
      <trkpt lat="49.86342" lon="2.40016">
        <ele>75.6</ele>
        <time>2022-05-28T12:49:20Z</time>
      </trkpt>
      <trkpt lat="49.86342" lon="2.40016">
        <ele>75.6</ele>
        <time>2022-05-28T12:49:21Z</time>
      </trkpt>
      <trkpt lat="49.86342" lon="2.40016">
        <ele>75.6</ele>
        <time>2022-05-28T12:49:22Z</time>
      </trkpt>
      <trkpt lat="49.86342" lon="2.40016">
        <ele>75.6</ele>
        <time>2022-05-28T12:49:23Z</time>
      </trkpt>
      <trkpt lat="49.86342" lon="2.40016">
        <ele>75.6</ele>
        <time>2022-05-28T12:49:24Z</time>
      </trkpt>
      <trkpt lat="49.86342" lon="2.40016">
        <ele>75.6</ele>
        <time>2022-05-28T12:49:25Z</time>
      </trkpt>
      <trkpt lat="49.86342" lon="2.40016">
        <ele>75.6</ele>
        <time>2022-05-28T12:49:26Z</time>
      </trkpt>
      <trkpt lat="49.86342" lon="2.40016">
        <ele>75.6</ele>
        <time>2022-05-28T12:49:27Z</time>
      </trkpt>
      <trkpt lat="49.86342" lon="2.40016">
        <ele>75.6</ele>
        <time>2022-05-28T12:49:28Z</time>
      </trkpt>
      <trkpt lat="49.86342" lon="2.40016">
        <ele>75.6</ele>
        <time>2022-05-28T12:49:29Z</time>
      </trkpt>
      <trkpt lat="49.86342" lon="2.40016">
        <ele>75.6</ele>
        <time>2022-05-28T12:49:30Z</time>
      </trkpt>
      <trkpt lat="49.86342" lon="2.40016">
        <ele>75.6</ele>
        <time>2022-05-28T12:49:31Z</time>
      </trkpt>
      <trkpt lat="49.86342" lon="2.40016">
        <ele>75.6</ele>
        <time>2022-05-28T12:49:32Z</time>
      </trkpt>
      <trkpt lat="49.86342" lon="2.40016">
        <ele>75.6</ele>
        <time>2022-05-28T12:49:33Z</time>
      </trkpt>
      <trkpt lat="49.86342" lon="2.40016">
        <ele>75.6</ele>
        <time>2022-05-28T12:49:34Z</time>
      </trkpt>
      <trkpt lat="49.86342" lon="2.40016">
        <ele>75.6</ele>
        <time>2022-05-28T12:49:35Z</time>
      </trkpt>
      <trkpt lat="49.86342" lon="2.40016">
        <ele>75.6</ele>
        <time>2022-05-28T12:49:36Z</time>
      </trkpt>
      <trkpt lat="49.86342" lon="2.40016">
        <ele>75.6</ele>
        <time>2022-05-28T12:49:37Z</time>
      </trkpt>
      <trkpt lat="49.86342" lon="2.40016">
        <ele>75.6</ele>
        <time>2022-05-28T12:49:38Z</time>
      </trkpt>
      <trkpt lat="49.86342" lon="2.40016">
        <ele>75.6</ele>
        <time>2022-05-28T12:49:39Z</time>
      </trkpt>
      <trkpt lat="49.86342" lon="2.40016">
        <ele>75.6</ele>
        <time>2022-05-28T12:49:40Z</time>
      </trkpt>
      <trkpt lat="49.86342" lon="2.40016">
        <ele>75.6</ele>
        <time>2022-05-28T12:49:41Z</time>
      </trkpt>
      <trkpt lat="49.86342" lon="2.40016">
        <ele>75.6</ele>
        <time>2022-05-28T12:49:42Z</time>
      </trkpt>
      <trkpt lat="49.86342" lon="2.40016">
        <ele>75.6</ele>
        <time>2022-05-28T12:49:43Z</time>
      </trkpt>
      <trkpt lat="49.86342" lon="2.40016">
        <ele>75.6</ele>
        <time>2022-05-28T12:49:44Z</time>
      </trkpt>
      <trkpt lat="49.86342" lon="2.40016">
        <ele>75.6</ele>
        <time>2022-05-28T12:49:45Z</time>
      </trkpt>
      <trkpt lat="49.86342" lon="2.40016">
        <ele>75.6</ele>
        <time>2022-05-28T12:49:46Z</time>
      </trkpt>
      <trkpt lat="49.86342" lon="2.40016">
        <ele>75.6</ele>
        <time>2022-05-28T12:49:47Z</time>
      </trkpt>
      <trkpt lat="49.86342" lon="2.40016">
        <ele>75.6</ele>
        <time>2022-05-28T12:49:48Z</time>
      </trkpt>
      <trkpt lat="49.86342" lon="2.40016">
        <ele>75.6</ele>
        <time>2022-05-28T12:49:49Z</time>
      </trkpt>
      <trkpt lat="49.86342" lon="2.40016">
        <ele>75.6</ele>
        <time>2022-05-28T12:49:50Z</time>
      </trkpt>
      <trkpt lat="49.86342" lon="2.40016">
        <ele>75.6</ele>
        <time>2022-05-28T12:49:51Z</time>
      </trkpt>
      <trkpt lat="49.86342" lon="2.40016">
        <ele>75.6</ele>
        <time>2022-05-28T12:49:52Z</time>
      </trkpt>
      <trkpt lat="49.86342" lon="2.40016">
        <ele>75.6</ele>
        <time>2022-05-28T12:49:53Z</time>
      </trkpt>
      <trkpt lat="49.86342" lon="2.40016">
        <ele>75.6</ele>
        <time>2022-05-28T12:49:54Z</time>
      </trkpt>
      <trkpt lat="49.86342" lon="2.40016">
        <ele>75.6</ele>
        <time>2022-05-28T12:49:55Z</time>
      </trkpt>
      <trkpt lat="49.86342" lon="2.40016">
        <ele>75.6</ele>
        <time>2022-05-28T12:49:56Z</time>
      </trkpt>
      <trkpt lat="49.86342" lon="2.40016">
        <ele>75.6</ele>
        <time>2022-05-28T12:49:57Z</time>
      </trkpt>
      <trkpt lat="49.86342" lon="2.40016">
        <ele>75.6</ele>
        <time>2022-05-28T12:49:58Z</time>
      </trkpt>
      <trkpt lat="49.86342" lon="2.40016">
        <ele>75.6</ele>
        <time>2022-05-28T12:49:59Z</time>
      </trkpt>
      <trkpt lat="49.86342" lon="2.40016">
        <ele>75.6</ele>
        <time>2022-05-28T12:50:00Z</time>
      </trkpt>
      <trkpt lat="49.86341" lon="2.40016">
        <ele>75.6</ele>
        <time>2022-05-28T12:50:01Z</time>
      </trkpt>
      <trkpt lat="49.86341" lon="2.40016">
        <ele>75.6</ele>
        <time>2022-05-28T12:50:02Z</time>
      </trkpt>
      <trkpt lat="49.86341" lon="2.40016">
        <ele>75.6</ele>
        <time>2022-05-28T12:50:03Z</time>
      </trkpt>
      <trkpt lat="49.86341" lon="2.40016">
        <ele>75.6</ele>
        <time>2022-05-28T12:50:04Z</time>
      </trkpt>
      <trkpt lat="49.86342" lon="2.40016">
        <ele>75.6</ele>
        <time>2022-05-28T12:50:05Z</time>
      </trkpt>
      <trkpt lat="49.86342" lon="2.40016">
        <ele>75.6</ele>
        <time>2022-05-28T12:50:06Z</time>
      </trkpt>
      <trkpt lat="49.86342" lon="2.40016">
        <ele>75.6</ele>
        <time>2022-05-28T12:50:07Z</time>
      </trkpt>
      <trkpt lat="49.86342" lon="2.40016">
        <ele>75.6</ele>
        <time>2022-05-28T12:50:08Z</time>
      </trkpt>
      <trkpt lat="49.86342" lon="2.40016">
        <ele>75.6</ele>
        <time>2022-05-28T12:50:09Z</time>
      </trkpt>
      <trkpt lat="49.86342" lon="2.40015">
        <ele>75.6</ele>
        <time>2022-05-28T12:50:10Z</time>
      </trkpt>
      <trkpt lat="49.86342" lon="2.40015">
        <ele>75.6</ele>
        <time>2022-05-28T12:50:11Z</time>
      </trkpt>
      <trkpt lat="49.86342" lon="2.40015">
        <ele>75.6</ele>
        <time>2022-05-28T12:50:12Z</time>
      </trkpt>
      <trkpt lat="49.86342" lon="2.40016">
        <ele>75.6</ele>
        <time>2022-05-28T12:50:13Z</time>
      </trkpt>
      <trkpt lat="49.86343" lon="2.40018">
        <ele>75.8</ele>
        <time>2022-05-28T12:50:14Z</time>
      </trkpt>
      <trkpt lat="49.86343" lon="2.40019">
        <ele>75.8</ele>
        <time>2022-05-28T12:50:15Z</time>
      </trkpt>
      <trkpt lat="49.86344" lon="2.4002">
        <ele>75.8</ele>
        <time>2022-05-28T12:50:16Z</time>
      </trkpt>
      <trkpt lat="49.86344" lon="2.40021">
        <ele>75.6</ele>
        <time>2022-05-28T12:50:17Z</time>
      </trkpt>
      <trkpt lat="49.86345" lon="2.40021">
        <ele>75.9</ele>
        <time>2022-05-28T12:50:18Z</time>
      </trkpt>
      <trkpt lat="49.86345" lon="2.40022">
        <ele>75.9</ele>
        <time>2022-05-28T12:50:19Z</time>
      </trkpt>
      <trkpt lat="49.86345" lon="2.40023">
        <ele>75.9</ele>
        <time>2022-05-28T12:50:20Z</time>
      </trkpt>
      <trkpt lat="49.86345" lon="2.40024">
        <ele>75.9</ele>
        <time>2022-05-28T12:50:21Z</time>
      </trkpt>
      <trkpt lat="49.86345" lon="2.40024">
        <ele>75.9</ele>
        <time>2022-05-28T12:50:22Z</time>
      </trkpt>
      <trkpt lat="49.86345" lon="2.40024">
        <ele>75.9</ele>
        <time>2022-05-28T12:50:23Z</time>
      </trkpt>
      <trkpt lat="49.86345" lon="2.40025">
        <ele>75.9</ele>
        <time>2022-05-28T12:50:24Z</time>
      </trkpt>
      <trkpt lat="49.86345" lon="2.40025">
        <ele>75.9</ele>
        <time>2022-05-28T12:50:25Z</time>
      </trkpt>
      <trkpt lat="49.86346" lon="2.40026">
        <ele>76.1</ele>
        <time>2022-05-28T12:50:26Z</time>
      </trkpt>
      <trkpt lat="49.86346" lon="2.40026">
        <ele>76.1</ele>
        <time>2022-05-28T12:50:27Z</time>
      </trkpt>
      <trkpt lat="49.86346" lon="2.40026">
        <ele>76.1</ele>
        <time>2022-05-28T12:50:28Z</time>
      </trkpt>
      <trkpt lat="49.86346" lon="2.40026">
        <ele>76.1</ele>
        <time>2022-05-28T12:50:29Z</time>
      </trkpt>
      <trkpt lat="49.86346" lon="2.40025">
        <ele>75.9</ele>
        <time>2022-05-28T12:50:30Z</time>
      </trkpt>
      <trkpt lat="49.86346" lon="2.40024">
        <ele>75.9</ele>
        <time>2022-05-28T12:50:31Z</time>
      </trkpt>
      <trkpt lat="49.86346" lon="2.40022">
        <ele>75.9</ele>
        <time>2022-05-28T12:50:32Z</time>
      </trkpt>
      <trkpt lat="49.86347" lon="2.40021">
        <ele>75.6</ele>
        <time>2022-05-28T12:50:33Z</time>
      </trkpt>
      <trkpt lat="49.86347" lon="2.4002">
        <ele>75.6</ele>
        <time>2022-05-28T12:50:34Z</time>
      </trkpt>
      <trkpt lat="49.86347" lon="2.40019">
        <ele>75.6</ele>
        <time>2022-05-28T12:50:35Z</time>
      </trkpt>
      <trkpt lat="49.86346" lon="2.40018">
        <ele>75.6</ele>
        <time>2022-05-28T12:50:36Z</time>
      </trkpt>
      <trkpt lat="49.86346" lon="2.40017">
        <ele>75.6</ele>
        <time>2022-05-28T12:50:37Z</time>
      </trkpt>
      <trkpt lat="49.86345" lon="2.40016">
        <ele>75.4</ele>
        <time>2022-05-28T12:50:38Z</time>
      </trkpt>
      <trkpt lat="49.86344" lon="2.40014">
        <ele>75.6</ele>
        <time>2022-05-28T12:50:39Z</time>
      </trkpt>
      <trkpt lat="49.86343" lon="2.40013">
        <ele>75.6</ele>
        <time>2022-05-28T12:50:40Z</time>
      </trkpt>
      <trkpt lat="49.86342" lon="2.40012">
        <ele>75.4</ele>
        <time>2022-05-28T12:50:41Z</time>
      </trkpt>
      <trkpt lat="49.8634" lon="2.40011">
        <ele>75.6</ele>
        <time>2022-05-28T12:50:42Z</time>
      </trkpt>
      <trkpt lat="49.86339" lon="2.40009">
        <ele>75.6</ele>
        <time>2022-05-28T12:50:43Z</time>
      </trkpt>
      <trkpt lat="49.86338" lon="2.40008">
        <ele>75.5</ele>
        <time>2022-05-28T12:50:44Z</time>
      </trkpt>
      <trkpt lat="49.86336" lon="2.40008">
        <ele>75.5</ele>
        <time>2022-05-28T12:50:45Z</time>
      </trkpt>
      <trkpt lat="49.86335" lon="2.40007">
        <ele>75.7</ele>
        <time>2022-05-28T12:50:46Z</time>
      </trkpt>
      <trkpt lat="49.86334" lon="2.40006">
        <ele>75.7</ele>
        <time>2022-05-28T12:50:47Z</time>
      </trkpt>
      <trkpt lat="49.86333" lon="2.40006">
        <ele>75.7</ele>
        <time>2022-05-28T12:50:48Z</time>
      </trkpt>
      <trkpt lat="49.86331" lon="2.40005">
        <ele>75.9</ele>
        <time>2022-05-28T12:50:49Z</time>
      </trkpt>
      <trkpt lat="49.8633" lon="2.40005">
        <ele>75.9</ele>
        <time>2022-05-28T12:50:50Z</time>
      </trkpt>
      <trkpt lat="49.86329" lon="2.40005">
        <ele>76</ele>
        <time>2022-05-28T12:50:51Z</time>
      </trkpt>
      <trkpt lat="49.86326" lon="2.40004">
        <ele>76.2</ele>
        <time>2022-05-28T12:50:52Z</time>
      </trkpt>
      <trkpt lat="49.86325" lon="2.40004">
        <ele>76.2</ele>
        <time>2022-05-28T12:50:53Z</time>
      </trkpt>
      <trkpt lat="49.86324" lon="2.40004">
        <ele>76.1</ele>
        <time>2022-05-28T12:50:54Z</time>
      </trkpt>
      <trkpt lat="49.86322" lon="2.40004">
        <ele>76.1</ele>
        <time>2022-05-28T12:50:55Z</time>
      </trkpt>
      <trkpt lat="49.86321" lon="2.40003">
        <ele>76.3</ele>
        <time>2022-05-28T12:50:56Z</time>
      </trkpt>
      <trkpt lat="49.86321" lon="2.40003">
        <ele>76.3</ele>
        <time>2022-05-28T12:50:57Z</time>
      </trkpt>
      <trkpt lat="49.8632" lon="2.40003">
        <ele>76.3</ele>
        <time>2022-05-28T12:50:58Z</time>
      </trkpt>
      <trkpt lat="49.8632" lon="2.40003">
        <ele>76.3</ele>
        <time>2022-05-28T12:50:59Z</time>
      </trkpt>
      <trkpt lat="49.8632" lon="2.40003">
        <ele>76.3</ele>
        <time>2022-05-28T12:51:00Z</time>
      </trkpt>
      <trkpt lat="49.86319" lon="2.40003">
        <ele>76.3</ele>
        <time>2022-05-28T12:51:01Z</time>
      </trkpt>
      <trkpt lat="49.86319" lon="2.40003">
        <ele>76.4</ele>
        <time>2022-05-28T12:51:02Z</time>
      </trkpt>
      <trkpt lat="49.86318" lon="2.40003">
        <ele>76.4</ele>
        <time>2022-05-28T12:51:03Z</time>
      </trkpt>
      <trkpt lat="49.86316" lon="2.40003">
        <ele>76.5</ele>
        <time>2022-05-28T12:51:04Z</time>
      </trkpt>
      <trkpt lat="49.86312" lon="2.40002">
        <ele>76.6</ele>
        <time>2022-05-28T12:51:05Z</time>
      </trkpt>
      <trkpt lat="49.86311" lon="2.40002">
        <ele>76.6</ele>
        <time>2022-05-28T12:51:06Z</time>
      </trkpt>
      <trkpt lat="49.86308" lon="2.40002">
        <ele>76.7</ele>
        <time>2022-05-28T12:51:07Z</time>
      </trkpt>
      <trkpt lat="49.86305" lon="2.40001">
        <ele>76.8</ele>
        <time>2022-05-28T12:51:08Z</time>
      </trkpt>
      <trkpt lat="49.86302" lon="2.4">
        <ele>76.9</ele>
        <time>2022-05-28T12:51:09Z</time>
      </trkpt>
      <trkpt lat="49.86298" lon="2.4">
        <ele>76.8</ele>
        <time>2022-05-28T12:51:10Z</time>
      </trkpt>
      <trkpt lat="49.86297" lon="2.39999">
        <ele>76.8</ele>
        <time>2022-05-28T12:51:11Z</time>
      </trkpt>
      <trkpt lat="49.86294" lon="2.39999">
        <ele>76.9</ele>
        <time>2022-05-28T12:51:12Z</time>
      </trkpt>
      <trkpt lat="49.86293" lon="2.39999">
        <ele>76.9</ele>
        <time>2022-05-28T12:51:13Z</time>
      </trkpt>
      <trkpt lat="49.86291" lon="2.39998">
        <ele>76.9</ele>
        <time>2022-05-28T12:51:14Z</time>
      </trkpt>
      <trkpt lat="49.8629" lon="2.39998">
        <ele>76.9</ele>
        <time>2022-05-28T12:51:15Z</time>
      </trkpt>
      <trkpt lat="49.86289" lon="2.39998">
        <ele>76.9</ele>
        <time>2022-05-28T12:51:16Z</time>
      </trkpt>
      <trkpt lat="49.86288" lon="2.39998">
        <ele>76.9</ele>
        <time>2022-05-28T12:51:17Z</time>
      </trkpt>
      <trkpt lat="49.86287" lon="2.39998">
        <ele>76.9</ele>
        <time>2022-05-28T12:51:18Z</time>
      </trkpt>
      <trkpt lat="49.86286" lon="2.39998">
        <ele>76.9</ele>
        <time>2022-05-28T12:51:19Z</time>
      </trkpt>
      <trkpt lat="49.86285" lon="2.39998">
        <ele>76.9</ele>
        <time>2022-05-28T12:51:20Z</time>
      </trkpt>
      <trkpt lat="49.86284" lon="2.39998">
        <ele>76.9</ele>
        <time>2022-05-28T12:51:21Z</time>
      </trkpt>
      <trkpt lat="49.86283" lon="2.39998">
        <ele>76.9</ele>
        <time>2022-05-28T12:51:22Z</time>
      </trkpt>
      <trkpt lat="49.86281" lon="2.39998">
        <ele>76.9</ele>
        <time>2022-05-28T12:51:23Z</time>
      </trkpt>
      <trkpt lat="49.8628" lon="2.39998">
        <ele>76.9</ele>
        <time>2022-05-28T12:51:24Z</time>
      </trkpt>
      <trkpt lat="49.86279" lon="2.39999">
        <ele>76.9</ele>
        <time>2022-05-28T12:51:25Z</time>
      </trkpt>
      <trkpt lat="49.86277" lon="2.39999">
        <ele>76.8</ele>
        <time>2022-05-28T12:51:26Z</time>
      </trkpt>
      <trkpt lat="49.86276" lon="2.39999">
        <ele>76.8</ele>
        <time>2022-05-28T12:51:27Z</time>
      </trkpt>
      <trkpt lat="49.86276" lon="2.39999">
        <ele>76.8</ele>
        <time>2022-05-28T12:51:28Z</time>
      </trkpt>
      <trkpt lat="49.86273" lon="2.39999">
        <ele>76.8</ele>
        <time>2022-05-28T12:51:29Z</time>
      </trkpt>
      <trkpt lat="49.86273" lon="2.39999">
        <ele>76.8</ele>
        <time>2022-05-28T12:51:30Z</time>
      </trkpt>
      <trkpt lat="49.86272" lon="2.39999">
        <ele>76.8</ele>
        <time>2022-05-28T12:51:31Z</time>
      </trkpt>
      <trkpt lat="49.8627" lon="2.39999">
        <ele>76.8</ele>
        <time>2022-05-28T12:51:32Z</time>
      </trkpt>
      <trkpt lat="49.86269" lon="2.39999">
        <ele>76.8</ele>
        <time>2022-05-28T12:51:33Z</time>
      </trkpt>
      <trkpt lat="49.86267" lon="2.39999">
        <ele>76.8</ele>
        <time>2022-05-28T12:51:34Z</time>
      </trkpt>
      <trkpt lat="49.86266" lon="2.39999">
        <ele>76.7</ele>
        <time>2022-05-28T12:51:35Z</time>
      </trkpt>
      <trkpt lat="49.86265" lon="2.39999">
        <ele>76.7</ele>
        <time>2022-05-28T12:51:36Z</time>
      </trkpt>
      <trkpt lat="49.86264" lon="2.39999">
        <ele>76.7</ele>
        <time>2022-05-28T12:51:37Z</time>
      </trkpt>
      <trkpt lat="49.86263" lon="2.39999">
        <ele>76.7</ele>
        <time>2022-05-28T12:51:38Z</time>
      </trkpt>
      <trkpt lat="49.86261" lon="2.39999">
        <ele>76.7</ele>
        <time>2022-05-28T12:51:39Z</time>
      </trkpt>
      <trkpt lat="49.8626" lon="2.39999">
        <ele>76.6</ele>
        <time>2022-05-28T12:51:40Z</time>
      </trkpt>
      <trkpt lat="49.86259" lon="2.39999">
        <ele>76.6</ele>
        <time>2022-05-28T12:51:41Z</time>
      </trkpt>
      <trkpt lat="49.86259" lon="2.39999">
        <ele>76.6</ele>
        <time>2022-05-28T12:51:42Z</time>
      </trkpt>
      <trkpt lat="49.86258" lon="2.39999">
        <ele>76.6</ele>
        <time>2022-05-28T12:51:43Z</time>
      </trkpt>
      <trkpt lat="49.86257" lon="2.4">
        <ele>76.6</ele>
        <time>2022-05-28T12:51:44Z</time>
      </trkpt>
      <trkpt lat="49.86256" lon="2.4">
        <ele>76.6</ele>
        <time>2022-05-28T12:51:45Z</time>
      </trkpt>
      <trkpt lat="49.86256" lon="2.4">
        <ele>76.6</ele>
        <time>2022-05-28T12:51:46Z</time>
      </trkpt>
      <trkpt lat="49.86255" lon="2.39999">
        <ele>76.5</ele>
        <time>2022-05-28T12:51:47Z</time>
      </trkpt>
      <trkpt lat="49.86254" lon="2.39999">
        <ele>76.5</ele>
        <time>2022-05-28T12:51:48Z</time>
      </trkpt>
      <trkpt lat="49.86253" lon="2.39999">
        <ele>76.5</ele>
        <time>2022-05-28T12:51:49Z</time>
      </trkpt>
      <trkpt lat="49.86253" lon="2.39998">
        <ele>76.5</ele>
        <time>2022-05-28T12:51:50Z</time>
      </trkpt>
      <trkpt lat="49.86252" lon="2.39998">
        <ele>76.4</ele>
        <time>2022-05-28T12:51:51Z</time>
      </trkpt>
      <trkpt lat="49.86252" lon="2.39998">
        <ele>76.4</ele>
        <time>2022-05-28T12:51:52Z</time>
      </trkpt>
      <trkpt lat="49.86251" lon="2.39997">
        <ele>76.4</ele>
        <time>2022-05-28T12:51:53Z</time>
      </trkpt>
      <trkpt lat="49.8625" lon="2.39997">
        <ele>76.4</ele>
        <time>2022-05-28T12:51:54Z</time>
      </trkpt>
      <trkpt lat="49.86249" lon="2.39997">
        <ele>76.3</ele>
        <time>2022-05-28T12:51:55Z</time>
      </trkpt>
      <trkpt lat="49.86248" lon="2.39997">
        <ele>76.3</ele>
        <time>2022-05-28T12:51:56Z</time>
      </trkpt>
      <trkpt lat="49.86247" lon="2.39997">
        <ele>76.2</ele>
        <time>2022-05-28T12:51:57Z</time>
      </trkpt>
      <trkpt lat="49.86246" lon="2.39998">
        <ele>76.2</ele>
        <time>2022-05-28T12:51:58Z</time>
      </trkpt>
      <trkpt lat="49.86245" lon="2.39999">
        <ele>76.2</ele>
        <time>2022-05-28T12:51:59Z</time>
      </trkpt>
      <trkpt lat="49.86244" lon="2.39999">
        <ele>76.1</ele>
        <time>2022-05-28T12:52:00Z</time>
      </trkpt>
      <trkpt lat="49.86243" lon="2.4">
        <ele>76.2</ele>
        <time>2022-05-28T12:52:01Z</time>
      </trkpt>
      <trkpt lat="49.86243" lon="2.4">
        <ele>76.2</ele>
        <time>2022-05-28T12:52:02Z</time>
      </trkpt>
      <trkpt lat="49.86242" lon="2.4">
        <ele>76.1</ele>
        <time>2022-05-28T12:52:03Z</time>
      </trkpt>
      <trkpt lat="49.86242" lon="2.39999">
        <ele>76</ele>
        <time>2022-05-28T12:52:04Z</time>
      </trkpt>
      <trkpt lat="49.86242" lon="2.39999">
        <ele>76</ele>
        <time>2022-05-28T12:52:05Z</time>
      </trkpt>
      <trkpt lat="49.86242" lon="2.39999">
        <ele>76</ele>
        <time>2022-05-28T12:52:06Z</time>
      </trkpt>
      <trkpt lat="49.86242" lon="2.39999">
        <ele>76</ele>
        <time>2022-05-28T12:52:07Z</time>
      </trkpt>
      <trkpt lat="49.86242" lon="2.39999">
        <ele>76.1</ele>
        <time>2022-05-28T12:52:08Z</time>
      </trkpt>
      <trkpt lat="49.86242" lon="2.39999">
        <ele>76.1</ele>
        <time>2022-05-28T12:52:09Z</time>
      </trkpt>
      <trkpt lat="49.86242" lon="2.39999">
        <ele>76.1</ele>
        <time>2022-05-28T12:52:10Z</time>
      </trkpt>
      <trkpt lat="49.86242" lon="2.39999">
        <ele>76.1</ele>
        <time>2022-05-28T12:52:11Z</time>
      </trkpt>
      <trkpt lat="49.86242" lon="2.39999">
        <ele>76.1</ele>
        <time>2022-05-28T12:52:12Z</time>
      </trkpt>
      <trkpt lat="49.86242" lon="2.39999">
        <ele>76.1</ele>
        <time>2022-05-28T12:52:13Z</time>
      </trkpt>
      <trkpt lat="49.86242" lon="2.39999">
        <ele>76.1</ele>
        <time>2022-05-28T12:52:14Z</time>
      </trkpt>
      <trkpt lat="49.86242" lon="2.39999">
        <ele>76.1</ele>
        <time>2022-05-28T12:52:15Z</time>
      </trkpt>
      <trkpt lat="49.86242" lon="2.39999">
        <ele>76.1</ele>
        <time>2022-05-28T12:52:16Z</time>
      </trkpt>
      <trkpt lat="49.86242" lon="2.39999">
        <ele>76.1</ele>
        <time>2022-05-28T12:52:17Z</time>
      </trkpt>
      <trkpt lat="49.86242" lon="2.39999">
        <ele>76.1</ele>
        <time>2022-05-28T12:52:18Z</time>
      </trkpt>
      <trkpt lat="49.86242" lon="2.39999">
        <ele>76.1</ele>
        <time>2022-05-28T12:52:19Z</time>
      </trkpt>
      <trkpt lat="49.86242" lon="2.39999">
        <ele>76.1</ele>
        <time>2022-05-28T12:52:20Z</time>
      </trkpt>
      <trkpt lat="49.86242" lon="2.39999">
        <ele>76.1</ele>
        <time>2022-05-28T12:52:21Z</time>
      </trkpt>
      <trkpt lat="49.86242" lon="2.39998">
        <ele>76.1</ele>
        <time>2022-05-28T12:52:22Z</time>
      </trkpt>
      <trkpt lat="49.86242" lon="2.39998">
        <ele>76.1</ele>
        <time>2022-05-28T12:52:23Z</time>
      </trkpt>
      <trkpt lat="49.86242" lon="2.39997">
        <ele>76.1</ele>
        <time>2022-05-28T12:52:24Z</time>
      </trkpt>
      <trkpt lat="49.86242" lon="2.39997">
        <ele>76.1</ele>
        <time>2022-05-28T12:52:25Z</time>
      </trkpt>
      <trkpt lat="49.86242" lon="2.39997">
        <ele>76.1</ele>
        <time>2022-05-28T12:52:26Z</time>
      </trkpt>
      <trkpt lat="49.86242" lon="2.39997">
        <ele>76.1</ele>
        <time>2022-05-28T12:52:27Z</time>
      </trkpt>
      <trkpt lat="49.86242" lon="2.39997">
        <ele>76.1</ele>
        <time>2022-05-28T12:52:28Z</time>
      </trkpt>
      <trkpt lat="49.86242" lon="2.39997">
        <ele>76.1</ele>
        <time>2022-05-28T12:52:29Z</time>
      </trkpt>
      <trkpt lat="49.86242" lon="2.39997">
        <ele>76.1</ele>
        <time>2022-05-28T12:52:30Z</time>
      </trkpt>
      <trkpt lat="49.86242" lon="2.39997">
        <ele>76.1</ele>
        <time>2022-05-28T12:52:31Z</time>
      </trkpt>
      <trkpt lat="49.86242" lon="2.39997">
        <ele>76.1</ele>
        <time>2022-05-28T12:52:32Z</time>
      </trkpt>
      <trkpt lat="49.86242" lon="2.39997">
        <ele>76.1</ele>
        <time>2022-05-28T12:52:33Z</time>
      </trkpt>
      <trkpt lat="49.86242" lon="2.39997">
        <ele>76.1</ele>
        <time>2022-05-28T12:52:34Z</time>
      </trkpt>
      <trkpt lat="49.86243" lon="2.39997">
        <ele>76.1</ele>
        <time>2022-05-28T12:52:35Z</time>
      </trkpt>
      <trkpt lat="49.86243" lon="2.39997">
        <ele>76.1</ele>
        <time>2022-05-28T12:52:36Z</time>
      </trkpt>
      <trkpt lat="49.86243" lon="2.39997">
        <ele>76.1</ele>
        <time>2022-05-28T12:52:37Z</time>
      </trkpt>
      <trkpt lat="49.86243" lon="2.39997">
        <ele>76.1</ele>
        <time>2022-05-28T12:52:38Z</time>
      </trkpt>
      <trkpt lat="49.86243" lon="2.39997">
        <ele>76.1</ele>
        <time>2022-05-28T12:52:39Z</time>
      </trkpt>
      <trkpt lat="49.86243" lon="2.39997">
        <ele>76.1</ele>
        <time>2022-05-28T12:52:40Z</time>
      </trkpt>
      <trkpt lat="49.86243" lon="2.39997">
        <ele>76.1</ele>
        <time>2022-05-28T12:52:41Z</time>
      </trkpt>
      <trkpt lat="49.86243" lon="2.39997">
        <ele>76.1</ele>
        <time>2022-05-28T12:52:42Z</time>
      </trkpt>
      <trkpt lat="49.86243" lon="2.39997">
        <ele>76.1</ele>
        <time>2022-05-28T12:52:43Z</time>
      </trkpt>
      <trkpt lat="49.86243" lon="2.39997">
        <ele>76.1</ele>
        <time>2022-05-28T12:52:44Z</time>
      </trkpt>
      <trkpt lat="49.86243" lon="2.39997">
        <ele>76.1</ele>
        <time>2022-05-28T12:52:45Z</time>
      </trkpt>
      <trkpt lat="49.86243" lon="2.39997">
        <ele>76.1</ele>
        <time>2022-05-28T12:52:46Z</time>
      </trkpt>
      <trkpt lat="49.86243" lon="2.39997">
        <ele>76.1</ele>
        <time>2022-05-28T12:52:47Z</time>
      </trkpt>
      <trkpt lat="49.86243" lon="2.39997">
        <ele>76.1</ele>
        <time>2022-05-28T12:52:48Z</time>
      </trkpt>
      <trkpt lat="49.86243" lon="2.39997">
        <ele>76.1</ele>
        <time>2022-05-28T12:52:49Z</time>
      </trkpt>
      <trkpt lat="49.86243" lon="2.39997">
        <ele>76.1</ele>
        <time>2022-05-28T12:52:50Z</time>
      </trkpt>
      <trkpt lat="49.86243" lon="2.39997">
        <ele>76.1</ele>
        <time>2022-05-28T12:52:51Z</time>
      </trkpt>
      <trkpt lat="49.86243" lon="2.39997">
        <ele>76.1</ele>
        <time>2022-05-28T12:52:52Z</time>
      </trkpt>
      <trkpt lat="49.86243" lon="2.39997">
        <ele>76.1</ele>
        <time>2022-05-28T12:52:53Z</time>
      </trkpt>
      <trkpt lat="49.86243" lon="2.39997">
        <ele>76.1</ele>
        <time>2022-05-28T12:52:54Z</time>
      </trkpt>
      <trkpt lat="49.86243" lon="2.39997">
        <ele>76.1</ele>
        <time>2022-05-28T12:52:55Z</time>
      </trkpt>
      <trkpt lat="49.86243" lon="2.39997">
        <ele>76.1</ele>
        <time>2022-05-28T12:52:56Z</time>
      </trkpt>
      <trkpt lat="49.86243" lon="2.39997">
        <ele>76.1</ele>
        <time>2022-05-28T12:52:57Z</time>
      </trkpt>
      <trkpt lat="49.86243" lon="2.39997">
        <ele>76.1</ele>
        <time>2022-05-28T12:52:58Z</time>
      </trkpt>
      <trkpt lat="49.86243" lon="2.39997">
        <ele>76.1</ele>
        <time>2022-05-28T12:52:59Z</time>
      </trkpt>
      <trkpt lat="49.86243" lon="2.39997">
        <ele>76.1</ele>
        <time>2022-05-28T12:53:00Z</time>
      </trkpt>
      <trkpt lat="49.86243" lon="2.39997">
        <ele>76.1</ele>
        <time>2022-05-28T12:53:01Z</time>
      </trkpt>
      <trkpt lat="49.86243" lon="2.39997">
        <ele>76.1</ele>
        <time>2022-05-28T12:53:02Z</time>
      </trkpt>
      <trkpt lat="49.86243" lon="2.39997">
        <ele>76.1</ele>
        <time>2022-05-28T12:53:03Z</time>
      </trkpt>
      <trkpt lat="49.86243" lon="2.39997">
        <ele>76.1</ele>
        <time>2022-05-28T12:53:04Z</time>
      </trkpt>
      <trkpt lat="49.86243" lon="2.39997">
        <ele>76.1</ele>
        <time>2022-05-28T12:53:05Z</time>
      </trkpt>
      <trkpt lat="49.86243" lon="2.39997">
        <ele>76.1</ele>
        <time>2022-05-28T12:53:06Z</time>
      </trkpt>
      <trkpt lat="49.86243" lon="2.39997">
        <ele>76.1</ele>
        <time>2022-05-28T12:53:07Z</time>
      </trkpt>
      <trkpt lat="49.86243" lon="2.39997">
        <ele>76.1</ele>
        <time>2022-05-28T12:53:08Z</time>
      </trkpt>
      <trkpt lat="49.86243" lon="2.39997">
        <ele>76.1</ele>
        <time>2022-05-28T12:53:09Z</time>
      </trkpt>
      <trkpt lat="49.86243" lon="2.39997">
        <ele>76.1</ele>
        <time>2022-05-28T12:53:10Z</time>
      </trkpt>
      <trkpt lat="49.86243" lon="2.39997">
        <ele>76.1</ele>
        <time>2022-05-28T12:53:11Z</time>
      </trkpt>
      <trkpt lat="49.86243" lon="2.39997">
        <ele>76.1</ele>
        <time>2022-05-28T12:53:12Z</time>
      </trkpt>
      <trkpt lat="49.86243" lon="2.39997">
        <ele>76.1</ele>
        <time>2022-05-28T12:53:13Z</time>
      </trkpt>
      <trkpt lat="49.86243" lon="2.39997">
        <ele>76.1</ele>
        <time>2022-05-28T12:53:14Z</time>
      </trkpt>
      <trkpt lat="49.86243" lon="2.39997">
        <ele>76.1</ele>
        <time>2022-05-28T12:53:15Z</time>
      </trkpt>
      <trkpt lat="49.86243" lon="2.39996">
        <ele>76.1</ele>
        <time>2022-05-28T12:53:16Z</time>
      </trkpt>
      <trkpt lat="49.86244" lon="2.39995">
        <ele>76.1</ele>
        <time>2022-05-28T12:53:17Z</time>
      </trkpt>
      <trkpt lat="49.86245" lon="2.39994">
        <ele>76.1</ele>
        <time>2022-05-28T12:53:18Z</time>
      </trkpt>
      <trkpt lat="49.86245" lon="2.39994">
        <ele>76.1</ele>
        <time>2022-05-28T12:53:19Z</time>
      </trkpt>
      <trkpt lat="49.86245" lon="2.39993">
        <ele>76.1</ele>
        <time>2022-05-28T12:53:20Z</time>
      </trkpt>
      <trkpt lat="49.86245" lon="2.39993">
        <ele>76.1</ele>
        <time>2022-05-28T12:53:21Z</time>
      </trkpt>
      <trkpt lat="49.86245" lon="2.39993">
        <ele>76.1</ele>
        <time>2022-05-28T12:53:22Z</time>
      </trkpt>
      <trkpt lat="49.86245" lon="2.39993">
        <ele>76.1</ele>
        <time>2022-05-28T12:53:23Z</time>
      </trkpt>
      <trkpt lat="49.86245" lon="2.39992">
        <ele>76.1</ele>
        <time>2022-05-28T12:53:24Z</time>
      </trkpt>
      <trkpt lat="49.86245" lon="2.39992">
        <ele>76.1</ele>
        <time>2022-05-28T12:53:25Z</time>
      </trkpt>
      <trkpt lat="49.86245" lon="2.39992">
        <ele>76.1</ele>
        <time>2022-05-28T12:53:26Z</time>
      </trkpt>
      <trkpt lat="49.86245" lon="2.39992">
        <ele>76.1</ele>
        <time>2022-05-28T12:53:27Z</time>
      </trkpt>
      <trkpt lat="49.86245" lon="2.39992">
        <ele>76.1</ele>
        <time>2022-05-28T12:53:28Z</time>
      </trkpt>
      <trkpt lat="49.86245" lon="2.39992">
        <ele>76.1</ele>
        <time>2022-05-28T12:53:29Z</time>
      </trkpt>
      <trkpt lat="49.86244" lon="2.39992">
        <ele>76.1</ele>
        <time>2022-05-28T12:53:30Z</time>
      </trkpt>
      <trkpt lat="49.86245" lon="2.39992">
        <ele>76.1</ele>
        <time>2022-05-28T12:53:31Z</time>
      </trkpt>
      <trkpt lat="49.86245" lon="2.39992">
        <ele>76.1</ele>
        <time>2022-05-28T12:53:32Z</time>
      </trkpt>
      <trkpt lat="49.86245" lon="2.39991">
        <ele>76.1</ele>
        <time>2022-05-28T12:53:33Z</time>
      </trkpt>
      <trkpt lat="49.86245" lon="2.39991">
        <ele>76</ele>
        <time>2022-05-28T12:53:34Z</time>
      </trkpt>
      <trkpt lat="49.86245" lon="2.39991">
        <ele>76</ele>
        <time>2022-05-28T12:53:35Z</time>
      </trkpt>
      <trkpt lat="49.86245" lon="2.39991">
        <ele>76</ele>
        <time>2022-05-28T12:53:36Z</time>
      </trkpt>
      <trkpt lat="49.86245" lon="2.3999">
        <ele>76</ele>
        <time>2022-05-28T12:53:37Z</time>
      </trkpt>
      <trkpt lat="49.86245" lon="2.3999">
        <ele>76</ele>
        <time>2022-05-28T12:53:38Z</time>
      </trkpt>
      <trkpt lat="49.86245" lon="2.3999">
        <ele>76</ele>
        <time>2022-05-28T12:53:39Z</time>
      </trkpt>
      <trkpt lat="49.86245" lon="2.3999">
        <ele>76</ele>
        <time>2022-05-28T12:53:40Z</time>
      </trkpt>
      <trkpt lat="49.86245" lon="2.3999">
        <ele>76</ele>
        <time>2022-05-28T12:53:41Z</time>
      </trkpt>
      <trkpt lat="49.86245" lon="2.3999">
        <ele>76</ele>
        <time>2022-05-28T12:53:42Z</time>
      </trkpt>
      <trkpt lat="49.86245" lon="2.3999">
        <ele>76</ele>
        <time>2022-05-28T12:53:43Z</time>
      </trkpt>
      <trkpt lat="49.86245" lon="2.3999">
        <ele>76</ele>
        <time>2022-05-28T12:53:44Z</time>
      </trkpt>
      <trkpt lat="49.86245" lon="2.3999">
        <ele>76</ele>
        <time>2022-05-28T12:53:45Z</time>
      </trkpt>
      <trkpt lat="49.86245" lon="2.3999">
        <ele>76</ele>
        <time>2022-05-28T12:53:46Z</time>
      </trkpt>
      <trkpt lat="49.86245" lon="2.3999">
        <ele>76</ele>
        <time>2022-05-28T12:53:47Z</time>
      </trkpt>
      <trkpt lat="49.86245" lon="2.3999">
        <ele>76</ele>
        <time>2022-05-28T12:53:48Z</time>
      </trkpt>
      <trkpt lat="49.86245" lon="2.39989">
        <ele>76</ele>
        <time>2022-05-28T12:53:49Z</time>
      </trkpt>
      <trkpt lat="49.86245" lon="2.39989">
        <ele>76</ele>
        <time>2022-05-28T12:53:50Z</time>
      </trkpt>
      <trkpt lat="49.86246" lon="2.39988">
        <ele>76</ele>
        <time>2022-05-28T12:53:51Z</time>
      </trkpt>
      <trkpt lat="49.86246" lon="2.39987">
        <ele>76</ele>
        <time>2022-05-28T12:53:52Z</time>
      </trkpt>
      <trkpt lat="49.86246" lon="2.39987">
        <ele>75.9</ele>
        <time>2022-05-28T12:53:53Z</time>
      </trkpt>
      <trkpt lat="49.86246" lon="2.39986">
        <ele>75.9</ele>
        <time>2022-05-28T12:53:54Z</time>
      </trkpt>
      <trkpt lat="49.86246" lon="2.39985">
        <ele>75.9</ele>
        <time>2022-05-28T12:53:55Z</time>
      </trkpt>
      <trkpt lat="49.86246" lon="2.39984">
        <ele>75.9</ele>
        <time>2022-05-28T12:53:56Z</time>
      </trkpt>
      <trkpt lat="49.86246" lon="2.39983">
        <ele>75.9</ele>
        <time>2022-05-28T12:53:57Z</time>
      </trkpt>
      <trkpt lat="49.86246" lon="2.39983">
        <ele>75.9</ele>
        <time>2022-05-28T12:53:58Z</time>
      </trkpt>
      <trkpt lat="49.86246" lon="2.39984">
        <ele>75.9</ele>
        <time>2022-05-28T12:53:59Z</time>
      </trkpt>
      <trkpt lat="49.86246" lon="2.39984">
        <ele>75.9</ele>
        <time>2022-05-28T12:54:00Z</time>
      </trkpt>
      <trkpt lat="49.86246" lon="2.39984">
        <ele>75.9</ele>
        <time>2022-05-28T12:54:01Z</time>
      </trkpt>
      <trkpt lat="49.86246" lon="2.39984">
        <ele>75.9</ele>
        <time>2022-05-28T12:54:02Z</time>
      </trkpt>
      <trkpt lat="49.86246" lon="2.39984">
        <ele>75.9</ele>
        <time>2022-05-28T12:54:03Z</time>
      </trkpt>
      <trkpt lat="49.86246" lon="2.39984">
        <ele>75.9</ele>
        <time>2022-05-28T12:54:04Z</time>
      </trkpt>
      <trkpt lat="49.86246" lon="2.39985">
        <ele>75.9</ele>
        <time>2022-05-28T12:54:05Z</time>
      </trkpt>
      <trkpt lat="49.86246" lon="2.39985">
        <ele>75.9</ele>
        <time>2022-05-28T12:54:06Z</time>
      </trkpt>
      <trkpt lat="49.86246" lon="2.39985">
        <ele>75.9</ele>
        <time>2022-05-28T12:54:07Z</time>
      </trkpt>
      <trkpt lat="49.86246" lon="2.39985">
        <ele>75.9</ele>
        <time>2022-05-28T12:54:08Z</time>
      </trkpt>
      <trkpt lat="49.86246" lon="2.39985">
        <ele>75.9</ele>
        <time>2022-05-28T12:54:09Z</time>
      </trkpt>
      <trkpt lat="49.86246" lon="2.39985">
        <ele>75.9</ele>
        <time>2022-05-28T12:54:10Z</time>
      </trkpt>
      <trkpt lat="49.86246" lon="2.39986">
        <ele>75.9</ele>
        <time>2022-05-28T12:54:11Z</time>
      </trkpt>
      <trkpt lat="49.86246" lon="2.39986">
        <ele>75.9</ele>
        <time>2022-05-28T12:54:12Z</time>
      </trkpt>
      <trkpt lat="49.86246" lon="2.39986">
        <ele>75.9</ele>
        <time>2022-05-28T12:54:13Z</time>
      </trkpt>
      <trkpt lat="49.86246" lon="2.39986">
        <ele>75.9</ele>
        <time>2022-05-28T12:54:14Z</time>
      </trkpt>
      <trkpt lat="49.86246" lon="2.39986">
        <ele>75.9</ele>
        <time>2022-05-28T12:54:15Z</time>
      </trkpt>
      <trkpt lat="49.86245" lon="2.39986">
        <ele>75.9</ele>
        <time>2022-05-28T12:54:16Z</time>
      </trkpt>
      <trkpt lat="49.86245" lon="2.39987">
        <ele>75.9</ele>
        <time>2022-05-28T12:54:17Z</time>
      </trkpt>
      <trkpt lat="49.86245" lon="2.39987">
        <ele>75.9</ele>
        <time>2022-05-28T12:54:18Z</time>
      </trkpt>
      <trkpt lat="49.86245" lon="2.39987">
        <ele>76</ele>
        <time>2022-05-28T12:54:19Z</time>
      </trkpt>
      <trkpt lat="49.86245" lon="2.39987">
        <ele>76</ele>
        <time>2022-05-28T12:54:20Z</time>
      </trkpt>
      <trkpt lat="49.86245" lon="2.39987">
        <ele>76</ele>
        <time>2022-05-28T12:54:21Z</time>
      </trkpt>
      <trkpt lat="49.86245" lon="2.39987">
        <ele>76</ele>
        <time>2022-05-28T12:54:22Z</time>
      </trkpt>
      <trkpt lat="49.86245" lon="2.39988">
        <ele>76</ele>
        <time>2022-05-28T12:54:23Z</time>
      </trkpt>
      <trkpt lat="49.86245" lon="2.39988">
        <ele>76</ele>
        <time>2022-05-28T12:54:24Z</time>
      </trkpt>
      <trkpt lat="49.86245" lon="2.39988">
        <ele>76</ele>
        <time>2022-05-28T12:54:25Z</time>
      </trkpt>
      <trkpt lat="49.86245" lon="2.39988">
        <ele>76</ele>
        <time>2022-05-28T12:54:26Z</time>
      </trkpt>
      <trkpt lat="49.86245" lon="2.39988">
        <ele>76</ele>
        <time>2022-05-28T12:54:27Z</time>
      </trkpt>
      <trkpt lat="49.86245" lon="2.39988">
        <ele>76</ele>
        <time>2022-05-28T12:54:28Z</time>
      </trkpt>
      <trkpt lat="49.86245" lon="2.39989">
        <ele>76</ele>
        <time>2022-05-28T12:54:29Z</time>
      </trkpt>
      <trkpt lat="49.86245" lon="2.39989">
        <ele>76</ele>
        <time>2022-05-28T12:54:30Z</time>
      </trkpt>
      <trkpt lat="49.86245" lon="2.39989">
        <ele>76</ele>
        <time>2022-05-28T12:54:31Z</time>
      </trkpt>
      <trkpt lat="49.86245" lon="2.39989">
        <ele>76</ele>
        <time>2022-05-28T12:54:32Z</time>
      </trkpt>
      <trkpt lat="49.86245" lon="2.39989">
        <ele>76</ele>
        <time>2022-05-28T12:54:33Z</time>
      </trkpt>
      <trkpt lat="49.86245" lon="2.39989">
        <ele>76</ele>
        <time>2022-05-28T12:54:34Z</time>
      </trkpt>
      <trkpt lat="49.86245" lon="2.3999">
        <ele>76</ele>
        <time>2022-05-28T12:54:35Z</time>
      </trkpt>
      <trkpt lat="49.86245" lon="2.3999">
        <ele>76</ele>
        <time>2022-05-28T12:54:36Z</time>
      </trkpt>
      <trkpt lat="49.86245" lon="2.3999">
        <ele>76</ele>
        <time>2022-05-28T12:54:37Z</time>
      </trkpt>
      <trkpt lat="49.86245" lon="2.3999">
        <ele>76</ele>
        <time>2022-05-28T12:54:38Z</time>
      </trkpt>
      <trkpt lat="49.86245" lon="2.3999">
        <ele>76</ele>
        <time>2022-05-28T12:54:39Z</time>
      </trkpt>
      <trkpt lat="49.86245" lon="2.3999">
        <ele>76</ele>
        <time>2022-05-28T12:54:40Z</time>
      </trkpt>
      <trkpt lat="49.86245" lon="2.39991">
        <ele>76</ele>
        <time>2022-05-28T12:54:41Z</time>
      </trkpt>
      <trkpt lat="49.86245" lon="2.39991">
        <ele>76</ele>
        <time>2022-05-28T12:54:42Z</time>
      </trkpt>
      <trkpt lat="49.86245" lon="2.39991">
        <ele>76</ele>
        <time>2022-05-28T12:54:43Z</time>
      </trkpt>
      <trkpt lat="49.86245" lon="2.39991">
        <ele>76</ele>
        <time>2022-05-28T12:54:44Z</time>
      </trkpt>
      <trkpt lat="49.86244" lon="2.39991">
        <ele>76.1</ele>
        <time>2022-05-28T12:54:45Z</time>
      </trkpt>
      <trkpt lat="49.86244" lon="2.39991">
        <ele>76.1</ele>
        <time>2022-05-28T12:54:46Z</time>
      </trkpt>
      <trkpt lat="49.86244" lon="2.39994">
        <ele>76</ele>
        <time>2022-05-28T12:54:47Z</time>
      </trkpt>
      <trkpt lat="49.86243" lon="2.39995">
        <ele>76</ele>
        <time>2022-05-28T12:54:48Z</time>
      </trkpt>
      <trkpt lat="49.86243" lon="2.39996">
        <ele>76.1</ele>
        <time>2022-05-28T12:54:49Z</time>
      </trkpt>
      <trkpt lat="49.86243" lon="2.39996">
        <ele>76.1</ele>
        <time>2022-05-28T12:54:50Z</time>
      </trkpt>
      <trkpt lat="49.86243" lon="2.39996">
        <ele>76.1</ele>
        <time>2022-05-28T12:54:51Z</time>
      </trkpt>
      <trkpt lat="49.86243" lon="2.39996">
        <ele>76.1</ele>
        <time>2022-05-28T12:54:52Z</time>
      </trkpt>
      <trkpt lat="49.86243" lon="2.39996">
        <ele>76.1</ele>
        <time>2022-05-28T12:54:53Z</time>
      </trkpt>
      <trkpt lat="49.86243" lon="2.39996">
        <ele>76.1</ele>
        <time>2022-05-28T12:54:54Z</time>
      </trkpt>
      <trkpt lat="49.86243" lon="2.39996">
        <ele>76.1</ele>
        <time>2022-05-28T12:54:55Z</time>
      </trkpt>
      <trkpt lat="49.86243" lon="2.39996">
        <ele>76.1</ele>
        <time>2022-05-28T12:54:56Z</time>
      </trkpt>
      <trkpt lat="49.86243" lon="2.39996">
        <ele>76.1</ele>
        <time>2022-05-28T12:54:57Z</time>
      </trkpt>
      <trkpt lat="49.86243" lon="2.39996">
        <ele>76.1</ele>
        <time>2022-05-28T12:54:58Z</time>
      </trkpt>
      <trkpt lat="49.86243" lon="2.39996">
        <ele>76.1</ele>
        <time>2022-05-28T12:54:59Z</time>
      </trkpt>
      <trkpt lat="49.86243" lon="2.39996">
        <ele>76.1</ele>
        <time>2022-05-28T12:55:00Z</time>
      </trkpt>
      <trkpt lat="49.86243" lon="2.39996">
        <ele>76.1</ele>
        <time>2022-05-28T12:55:01Z</time>
      </trkpt>
      <trkpt lat="49.86243" lon="2.39996">
        <ele>76.1</ele>
        <time>2022-05-28T12:55:02Z</time>
      </trkpt>
      <trkpt lat="49.86243" lon="2.39996">
        <ele>76.1</ele>
        <time>2022-05-28T12:55:03Z</time>
      </trkpt>
      <trkpt lat="49.86243" lon="2.39996">
        <ele>76.1</ele>
        <time>2022-05-28T12:55:04Z</time>
      </trkpt>
      <trkpt lat="49.86243" lon="2.39996">
        <ele>76.1</ele>
        <time>2022-05-28T12:55:05Z</time>
      </trkpt>
      <trkpt lat="49.86243" lon="2.39996">
        <ele>76.1</ele>
        <time>2022-05-28T12:55:06Z</time>
      </trkpt>
      <trkpt lat="49.86243" lon="2.39996">
        <ele>76.1</ele>
        <time>2022-05-28T12:55:07Z</time>
      </trkpt>
      <trkpt lat="49.86243" lon="2.39996">
        <ele>76.1</ele>
        <time>2022-05-28T12:55:08Z</time>
      </trkpt>
      <trkpt lat="49.86243" lon="2.39996">
        <ele>76.1</ele>
        <time>2022-05-28T12:55:09Z</time>
      </trkpt>
      <trkpt lat="49.86243" lon="2.39996">
        <ele>76.1</ele>
        <time>2022-05-28T12:55:10Z</time>
      </trkpt>
      <trkpt lat="49.86243" lon="2.39996">
        <ele>76.1</ele>
        <time>2022-05-28T12:55:11Z</time>
      </trkpt>
      <trkpt lat="49.86243" lon="2.39996">
        <ele>76.1</ele>
        <time>2022-05-28T12:55:12Z</time>
      </trkpt>
      <trkpt lat="49.86243" lon="2.39996">
        <ele>76.1</ele>
        <time>2022-05-28T12:55:13Z</time>
      </trkpt>
      <trkpt lat="49.86243" lon="2.39996">
        <ele>76.1</ele>
        <time>2022-05-28T12:55:14Z</time>
      </trkpt>
      <trkpt lat="49.86243" lon="2.39996">
        <ele>76.1</ele>
        <time>2022-05-28T12:55:15Z</time>
      </trkpt>
      <trkpt lat="49.86243" lon="2.39996">
        <ele>76.1</ele>
        <time>2022-05-28T12:55:16Z</time>
      </trkpt>
      <trkpt lat="49.86243" lon="2.39996">
        <ele>76.1</ele>
        <time>2022-05-28T12:55:17Z</time>
      </trkpt>
      <trkpt lat="49.86243" lon="2.39996">
        <ele>76.1</ele>
        <time>2022-05-28T12:55:18Z</time>
      </trkpt>
      <trkpt lat="49.86243" lon="2.39996">
        <ele>76.1</ele>
        <time>2022-05-28T12:55:19Z</time>
      </trkpt>
      <trkpt lat="49.86243" lon="2.39996">
        <ele>76.1</ele>
        <time>2022-05-28T12:55:20Z</time>
      </trkpt>
      <trkpt lat="49.86243" lon="2.39996">
        <ele>76.1</ele>
        <time>2022-05-28T12:55:21Z</time>
      </trkpt>
      <trkpt lat="49.86243" lon="2.39996">
        <ele>76.1</ele>
        <time>2022-05-28T12:55:22Z</time>
      </trkpt>
      <trkpt lat="49.86243" lon="2.39996">
        <ele>76.1</ele>
        <time>2022-05-28T12:55:23Z</time>
      </trkpt>
      <trkpt lat="49.86243" lon="2.39996">
        <ele>76.1</ele>
        <time>2022-05-28T12:55:24Z</time>
      </trkpt>
      <trkpt lat="49.86243" lon="2.39996">
        <ele>76.1</ele>
        <time>2022-05-28T12:55:25Z</time>
      </trkpt>
      <trkpt lat="49.86243" lon="2.39996">
        <ele>76.1</ele>
        <time>2022-05-28T12:55:26Z</time>
      </trkpt>
      <trkpt lat="49.86243" lon="2.39996">
        <ele>76.1</ele>
        <time>2022-05-28T12:55:27Z</time>
      </trkpt>
      <trkpt lat="49.86243" lon="2.39996">
        <ele>76.1</ele>
        <time>2022-05-28T12:55:28Z</time>
      </trkpt>
      <trkpt lat="49.86243" lon="2.39996">
        <ele>76.1</ele>
        <time>2022-05-28T12:55:29Z</time>
      </trkpt>
      <trkpt lat="49.86243" lon="2.39996">
        <ele>76.1</ele>
        <time>2022-05-28T12:55:30Z</time>
      </trkpt>
      <trkpt lat="49.86243" lon="2.39996">
        <ele>76.1</ele>
        <time>2022-05-28T12:55:31Z</time>
      </trkpt>
      <trkpt lat="49.86243" lon="2.39996">
        <ele>76.1</ele>
        <time>2022-05-28T12:55:32Z</time>
      </trkpt>
      <trkpt lat="49.86243" lon="2.39996">
        <ele>76.1</ele>
        <time>2022-05-28T12:55:33Z</time>
      </trkpt>
      <trkpt lat="49.86243" lon="2.39996">
        <ele>76.1</ele>
        <time>2022-05-28T12:55:34Z</time>
      </trkpt>
      <trkpt lat="49.86243" lon="2.39996">
        <ele>76.1</ele>
        <time>2022-05-28T12:55:35Z</time>
      </trkpt>
      <trkpt lat="49.86243" lon="2.39996">
        <ele>76.1</ele>
        <time>2022-05-28T12:55:36Z</time>
      </trkpt>
      <trkpt lat="49.86243" lon="2.39996">
        <ele>76.1</ele>
        <time>2022-05-28T12:55:37Z</time>
      </trkpt>
      <trkpt lat="49.86243" lon="2.39996">
        <ele>76.1</ele>
        <time>2022-05-28T12:55:38Z</time>
      </trkpt>
      <trkpt lat="49.86243" lon="2.39996">
        <ele>76.1</ele>
        <time>2022-05-28T12:55:39Z</time>
      </trkpt>
      <trkpt lat="49.86243" lon="2.39996">
        <ele>76.1</ele>
        <time>2022-05-28T12:55:40Z</time>
      </trkpt>
      <trkpt lat="49.86243" lon="2.39996">
        <ele>76.1</ele>
        <time>2022-05-28T12:55:41Z</time>
      </trkpt>
      <trkpt lat="49.86243" lon="2.39996">
        <ele>76.1</ele>
        <time>2022-05-28T12:55:42Z</time>
      </trkpt>
      <trkpt lat="49.86243" lon="2.39996">
        <ele>76.1</ele>
        <time>2022-05-28T12:55:43Z</time>
      </trkpt>
      <trkpt lat="49.86243" lon="2.39996">
        <ele>76.1</ele>
        <time>2022-05-28T12:55:44Z</time>
      </trkpt>
      <trkpt lat="49.86243" lon="2.39996">
        <ele>76.1</ele>
        <time>2022-05-28T12:55:45Z</time>
      </trkpt>
      <trkpt lat="49.86243" lon="2.39996">
        <ele>76.1</ele>
        <time>2022-05-28T12:55:46Z</time>
      </trkpt>
      <trkpt lat="49.86243" lon="2.39996">
        <ele>76.1</ele>
        <time>2022-05-28T12:55:47Z</time>
      </trkpt>
      <trkpt lat="49.86243" lon="2.39996">
        <ele>76.1</ele>
        <time>2022-05-28T12:55:48Z</time>
      </trkpt>
      <trkpt lat="49.86243" lon="2.39996">
        <ele>76.1</ele>
        <time>2022-05-28T12:55:49Z</time>
      </trkpt>
      <trkpt lat="49.86243" lon="2.39996">
        <ele>76.1</ele>
        <time>2022-05-28T12:55:50Z</time>
      </trkpt>
      <trkpt lat="49.86243" lon="2.39996">
        <ele>76.1</ele>
        <time>2022-05-28T12:55:51Z</time>
      </trkpt>
      <trkpt lat="49.86243" lon="2.39996">
        <ele>76.1</ele>
        <time>2022-05-28T12:55:52Z</time>
      </trkpt>
      <trkpt lat="49.86243" lon="2.39996">
        <ele>76.1</ele>
        <time>2022-05-28T12:55:53Z</time>
      </trkpt>
      <trkpt lat="49.86243" lon="2.39996">
        <ele>76.1</ele>
        <time>2022-05-28T12:55:54Z</time>
      </trkpt>
      <trkpt lat="49.86243" lon="2.39996">
        <ele>76.1</ele>
        <time>2022-05-28T12:55:55Z</time>
      </trkpt>
      <trkpt lat="49.86243" lon="2.39996">
        <ele>76.1</ele>
        <time>2022-05-28T12:55:56Z</time>
      </trkpt>
      <trkpt lat="49.86243" lon="2.39996">
        <ele>76.1</ele>
        <time>2022-05-28T12:55:57Z</time>
      </trkpt>
      <trkpt lat="49.86243" lon="2.39996">
        <ele>76.1</ele>
        <time>2022-05-28T12:55:58Z</time>
      </trkpt>
      <trkpt lat="49.86243" lon="2.39996">
        <ele>76.1</ele>
        <time>2022-05-28T12:55:59Z</time>
      </trkpt>
      <trkpt lat="49.86243" lon="2.39996">
        <ele>76.1</ele>
        <time>2022-05-28T12:56:00Z</time>
      </trkpt>
      <trkpt lat="49.86243" lon="2.39996">
        <ele>76.1</ele>
        <time>2022-05-28T12:56:01Z</time>
      </trkpt>
      <trkpt lat="49.86243" lon="2.39996">
        <ele>76.1</ele>
        <time>2022-05-28T12:56:02Z</time>
      </trkpt>
      <trkpt lat="49.86243" lon="2.39996">
        <ele>76.1</ele>
        <time>2022-05-28T12:56:03Z</time>
      </trkpt>
      <trkpt lat="49.86243" lon="2.39996">
        <ele>76.1</ele>
        <time>2022-05-28T12:56:04Z</time>
      </trkpt>
      <trkpt lat="49.86243" lon="2.39996">
        <ele>76.1</ele>
        <time>2022-05-28T12:56:05Z</time>
      </trkpt>
      <trkpt lat="49.86243" lon="2.39996">
        <ele>76.1</ele>
        <time>2022-05-28T12:56:06Z</time>
      </trkpt>
      <trkpt lat="49.86243" lon="2.39996">
        <ele>76.1</ele>
        <time>2022-05-28T12:56:07Z</time>
      </trkpt>
      <trkpt lat="49.86243" lon="2.39996">
        <ele>76.1</ele>
        <time>2022-05-28T12:56:08Z</time>
      </trkpt>
      <trkpt lat="49.86243" lon="2.39996">
        <ele>76.1</ele>
        <time>2022-05-28T12:56:09Z</time>
      </trkpt>
      <trkpt lat="49.86243" lon="2.39996">
        <ele>76.1</ele>
        <time>2022-05-28T12:56:10Z</time>
      </trkpt>
      <trkpt lat="49.86243" lon="2.39996">
        <ele>76.1</ele>
        <time>2022-05-28T12:56:11Z</time>
      </trkpt>
      <trkpt lat="49.86243" lon="2.39996">
        <ele>76.1</ele>
        <time>2022-05-28T12:56:12Z</time>
      </trkpt>
      <trkpt lat="49.86243" lon="2.39996">
        <ele>76.1</ele>
        <time>2022-05-28T12:56:13Z</time>
      </trkpt>
      <trkpt lat="49.86243" lon="2.39996">
        <ele>76.1</ele>
        <time>2022-05-28T12:56:14Z</time>
      </trkpt>
      <trkpt lat="49.86243" lon="2.39996">
        <ele>76.1</ele>
        <time>2022-05-28T12:56:15Z</time>
      </trkpt>
      <trkpt lat="49.86243" lon="2.39996">
        <ele>76.1</ele>
        <time>2022-05-28T12:56:16Z</time>
      </trkpt>
      <trkpt lat="49.86243" lon="2.39996">
        <ele>76.1</ele>
        <time>2022-05-28T12:56:17Z</time>
      </trkpt>
      <trkpt lat="49.86243" lon="2.39996">
        <ele>76.1</ele>
        <time>2022-05-28T12:56:18Z</time>
      </trkpt>
      <trkpt lat="49.86243" lon="2.39996">
        <ele>76.1</ele>
        <time>2022-05-28T12:56:19Z</time>
      </trkpt>
      <trkpt lat="49.86243" lon="2.39996">
        <ele>76.1</ele>
        <time>2022-05-28T12:56:20Z</time>
      </trkpt>
      <trkpt lat="49.86243" lon="2.39996">
        <ele>76.1</ele>
        <time>2022-05-28T12:56:21Z</time>
      </trkpt>
      <trkpt lat="49.86243" lon="2.39996">
        <ele>76.1</ele>
        <time>2022-05-28T12:56:22Z</time>
      </trkpt>
      <trkpt lat="49.86243" lon="2.39996">
        <ele>76.1</ele>
        <time>2022-05-28T12:56:23Z</time>
      </trkpt>
      <trkpt lat="49.86243" lon="2.39996">
        <ele>76.1</ele>
        <time>2022-05-28T12:56:24Z</time>
      </trkpt>
      <trkpt lat="49.86243" lon="2.39996">
        <ele>76.1</ele>
        <time>2022-05-28T12:56:25Z</time>
      </trkpt>
      <trkpt lat="49.86243" lon="2.39996">
        <ele>76.1</ele>
        <time>2022-05-28T12:56:26Z</time>
      </trkpt>
      <trkpt lat="49.86243" lon="2.39996">
        <ele>76.1</ele>
        <time>2022-05-28T12:56:27Z</time>
      </trkpt>
      <trkpt lat="49.86243" lon="2.39996">
        <ele>76.1</ele>
        <time>2022-05-28T12:56:28Z</time>
      </trkpt>
      <trkpt lat="49.86243" lon="2.39996">
        <ele>76.1</ele>
        <time>2022-05-28T12:56:29Z</time>
      </trkpt>
      <trkpt lat="49.86243" lon="2.39996">
        <ele>76.1</ele>
        <time>2022-05-28T12:56:30Z</time>
      </trkpt>
      <trkpt lat="49.86243" lon="2.39996">
        <ele>76.1</ele>
        <time>2022-05-28T12:56:31Z</time>
      </trkpt>
      <trkpt lat="49.86243" lon="2.39996">
        <ele>76.1</ele>
        <time>2022-05-28T12:56:32Z</time>
      </trkpt>
      <trkpt lat="49.86243" lon="2.39996">
        <ele>76.1</ele>
        <time>2022-05-28T12:56:33Z</time>
      </trkpt>
      <trkpt lat="49.86243" lon="2.39996">
        <ele>76.1</ele>
        <time>2022-05-28T12:56:34Z</time>
      </trkpt>
      <trkpt lat="49.86243" lon="2.39996">
        <ele>76.1</ele>
        <time>2022-05-28T12:56:35Z</time>
      </trkpt>
      <trkpt lat="49.86243" lon="2.39996">
        <ele>76.1</ele>
        <time>2022-05-28T12:56:36Z</time>
      </trkpt>
      <trkpt lat="49.86243" lon="2.39996">
        <ele>76.1</ele>
        <time>2022-05-28T12:56:37Z</time>
      </trkpt>
      <trkpt lat="49.86243" lon="2.39996">
        <ele>76.1</ele>
        <time>2022-05-28T12:56:38Z</time>
      </trkpt>
      <trkpt lat="49.86243" lon="2.39996">
        <ele>76.1</ele>
        <time>2022-05-28T12:56:39Z</time>
      </trkpt>
      <trkpt lat="49.86243" lon="2.39996">
        <ele>76.1</ele>
        <time>2022-05-28T12:56:40Z</time>
      </trkpt>
      <trkpt lat="49.86243" lon="2.39996">
        <ele>76.1</ele>
        <time>2022-05-28T12:56:41Z</time>
      </trkpt>
      <trkpt lat="49.86243" lon="2.39996">
        <ele>76.1</ele>
        <time>2022-05-28T12:56:42Z</time>
      </trkpt>
      <trkpt lat="49.86243" lon="2.39996">
        <ele>76.1</ele>
        <time>2022-05-28T12:56:43Z</time>
      </trkpt>
      <trkpt lat="49.86243" lon="2.39996">
        <ele>76.1</ele>
        <time>2022-05-28T12:56:44Z</time>
      </trkpt>
      <trkpt lat="49.86243" lon="2.39996">
        <ele>76.1</ele>
        <time>2022-05-28T12:56:45Z</time>
      </trkpt>
      <trkpt lat="49.86243" lon="2.39996">
        <ele>76.1</ele>
        <time>2022-05-28T12:56:46Z</time>
      </trkpt>
      <trkpt lat="49.86243" lon="2.39996">
        <ele>76.1</ele>
        <time>2022-05-28T12:56:47Z</time>
      </trkpt>
      <trkpt lat="49.86243" lon="2.39996">
        <ele>76.1</ele>
        <time>2022-05-28T12:56:48Z</time>
      </trkpt>
      <trkpt lat="49.86243" lon="2.39996">
        <ele>76.1</ele>
        <time>2022-05-28T12:56:49Z</time>
      </trkpt>
      <trkpt lat="49.86243" lon="2.39996">
        <ele>76.1</ele>
        <time>2022-05-28T12:56:50Z</time>
      </trkpt>
      <trkpt lat="49.86243" lon="2.39996">
        <ele>76.1</ele>
        <time>2022-05-28T12:56:51Z</time>
      </trkpt>
      <trkpt lat="49.86243" lon="2.39996">
        <ele>76.1</ele>
        <time>2022-05-28T12:56:52Z</time>
      </trkpt>
      <trkpt lat="49.86243" lon="2.39996">
        <ele>76.1</ele>
        <time>2022-05-28T12:56:53Z</time>
      </trkpt>
      <trkpt lat="49.86243" lon="2.39996">
        <ele>76.1</ele>
        <time>2022-05-28T12:56:54Z</time>
      </trkpt>
      <trkpt lat="49.86243" lon="2.39996">
        <ele>76.1</ele>
        <time>2022-05-28T12:56:55Z</time>
      </trkpt>
      <trkpt lat="49.86243" lon="2.39996">
        <ele>76.1</ele>
        <time>2022-05-28T12:56:56Z</time>
      </trkpt>
      <trkpt lat="49.86243" lon="2.39996">
        <ele>76.1</ele>
        <time>2022-05-28T12:56:57Z</time>
      </trkpt>
      <trkpt lat="49.86243" lon="2.39996">
        <ele>76.1</ele>
        <time>2022-05-28T12:56:58Z</time>
      </trkpt>
      <trkpt lat="49.86243" lon="2.39996">
        <ele>76.1</ele>
        <time>2022-05-28T12:56:59Z</time>
      </trkpt>
      <trkpt lat="49.86243" lon="2.39996">
        <ele>76.1</ele>
        <time>2022-05-28T12:57:00Z</time>
      </trkpt>
      <trkpt lat="49.86243" lon="2.39996">
        <ele>76.1</ele>
        <time>2022-05-28T12:57:01Z</time>
      </trkpt>
      <trkpt lat="49.86243" lon="2.39996">
        <ele>76.1</ele>
        <time>2022-05-28T12:57:02Z</time>
      </trkpt>
      <trkpt lat="49.86243" lon="2.39996">
        <ele>76.1</ele>
        <time>2022-05-28T12:57:03Z</time>
      </trkpt>
      <trkpt lat="49.86243" lon="2.39996">
        <ele>76.1</ele>
        <time>2022-05-28T12:57:04Z</time>
      </trkpt>
      <trkpt lat="49.86243" lon="2.39996">
        <ele>76.1</ele>
        <time>2022-05-28T12:57:05Z</time>
      </trkpt>
      <trkpt lat="49.86243" lon="2.39996">
        <ele>76.1</ele>
        <time>2022-05-28T12:57:06Z</time>
      </trkpt>
      <trkpt lat="49.86243" lon="2.39996">
        <ele>76.1</ele>
        <time>2022-05-28T12:57:07Z</time>
      </trkpt>
      <trkpt lat="49.86243" lon="2.39996">
        <ele>76.1</ele>
        <time>2022-05-28T12:57:08Z</time>
      </trkpt>
      <trkpt lat="49.86243" lon="2.39996">
        <ele>76.1</ele>
        <time>2022-05-28T12:57:09Z</time>
      </trkpt>
      <trkpt lat="49.86243" lon="2.39996">
        <ele>76.1</ele>
        <time>2022-05-28T12:57:10Z</time>
      </trkpt>
      <trkpt lat="49.86243" lon="2.39996">
        <ele>76.1</ele>
        <time>2022-05-28T12:57:11Z</time>
      </trkpt>
      <trkpt lat="49.86243" lon="2.39996">
        <ele>76.1</ele>
        <time>2022-05-28T12:57:12Z</time>
      </trkpt>
      <trkpt lat="49.86243" lon="2.39996">
        <ele>76.1</ele>
        <time>2022-05-28T12:57:13Z</time>
      </trkpt>
      <trkpt lat="49.86243" lon="2.39996">
        <ele>76.1</ele>
        <time>2022-05-28T12:57:14Z</time>
      </trkpt>
      <trkpt lat="49.86243" lon="2.39996">
        <ele>76.1</ele>
        <time>2022-05-28T12:57:15Z</time>
      </trkpt>
      <trkpt lat="49.86243" lon="2.39996">
        <ele>76.1</ele>
        <time>2022-05-28T12:57:16Z</time>
      </trkpt>
      <trkpt lat="49.86243" lon="2.39996">
        <ele>76.1</ele>
        <time>2022-05-28T12:57:17Z</time>
      </trkpt>
      <trkpt lat="49.86243" lon="2.39996">
        <ele>76.1</ele>
        <time>2022-05-28T12:57:18Z</time>
      </trkpt>
      <trkpt lat="49.86243" lon="2.39996">
        <ele>76.1</ele>
        <time>2022-05-28T12:57:19Z</time>
      </trkpt>
      <trkpt lat="49.86243" lon="2.39996">
        <ele>76.1</ele>
        <time>2022-05-28T12:57:20Z</time>
      </trkpt>
      <trkpt lat="49.86243" lon="2.39996">
        <ele>76.1</ele>
        <time>2022-05-28T12:57:21Z</time>
      </trkpt>
      <trkpt lat="49.86243" lon="2.39996">
        <ele>76.1</ele>
        <time>2022-05-28T12:57:22Z</time>
      </trkpt>
      <trkpt lat="49.86243" lon="2.39996">
        <ele>76.1</ele>
        <time>2022-05-28T12:57:23Z</time>
      </trkpt>
      <trkpt lat="49.86243" lon="2.39996">
        <ele>76.1</ele>
        <time>2022-05-28T12:57:24Z</time>
      </trkpt>
      <trkpt lat="49.86243" lon="2.39996">
        <ele>76.1</ele>
        <time>2022-05-28T12:57:25Z</time>
      </trkpt>
      <trkpt lat="49.86243" lon="2.39996">
        <ele>76.1</ele>
        <time>2022-05-28T12:57:26Z</time>
      </trkpt>
      <trkpt lat="49.86243" lon="2.39996">
        <ele>76.1</ele>
        <time>2022-05-28T12:57:27Z</time>
      </trkpt>
      <trkpt lat="49.86243" lon="2.39996">
        <ele>76.1</ele>
        <time>2022-05-28T12:57:28Z</time>
      </trkpt>
      <trkpt lat="49.86243" lon="2.39996">
        <ele>76.1</ele>
        <time>2022-05-28T12:57:29Z</time>
      </trkpt>
      <trkpt lat="49.86243" lon="2.39996">
        <ele>76.1</ele>
        <time>2022-05-28T12:57:30Z</time>
      </trkpt>
      <trkpt lat="49.86243" lon="2.39996">
        <ele>76.1</ele>
        <time>2022-05-28T12:57:31Z</time>
      </trkpt>
      <trkpt lat="49.86243" lon="2.39996">
        <ele>76.1</ele>
        <time>2022-05-28T12:57:32Z</time>
      </trkpt>
      <trkpt lat="49.86243" lon="2.39996">
        <ele>76.1</ele>
        <time>2022-05-28T12:57:33Z</time>
      </trkpt>
      <trkpt lat="49.86243" lon="2.39996">
        <ele>76.1</ele>
        <time>2022-05-28T12:57:34Z</time>
      </trkpt>
      <trkpt lat="49.86243" lon="2.39996">
        <ele>76.1</ele>
        <time>2022-05-28T12:57:35Z</time>
      </trkpt>
      <trkpt lat="49.86243" lon="2.39996">
        <ele>76.1</ele>
        <time>2022-05-28T12:57:36Z</time>
      </trkpt>
      <trkpt lat="49.86243" lon="2.39996">
        <ele>76.1</ele>
        <time>2022-05-28T12:57:37Z</time>
      </trkpt>
      <trkpt lat="49.86243" lon="2.39996">
        <ele>76.1</ele>
        <time>2022-05-28T12:57:38Z</time>
      </trkpt>
      <trkpt lat="49.86243" lon="2.39996">
        <ele>76.1</ele>
        <time>2022-05-28T12:57:39Z</time>
      </trkpt>
      <trkpt lat="49.86243" lon="2.39996">
        <ele>76.1</ele>
        <time>2022-05-28T12:57:40Z</time>
      </trkpt>
      <trkpt lat="49.86243" lon="2.39996">
        <ele>76.1</ele>
        <time>2022-05-28T12:57:41Z</time>
      </trkpt>
      <trkpt lat="49.86243" lon="2.39996">
        <ele>76.1</ele>
        <time>2022-05-28T12:57:42Z</time>
      </trkpt>
      <trkpt lat="49.86243" lon="2.39996">
        <ele>76.1</ele>
        <time>2022-05-28T12:57:43Z</time>
      </trkpt>
      <trkpt lat="49.86243" lon="2.39996">
        <ele>76.1</ele>
        <time>2022-05-28T12:57:44Z</time>
      </trkpt>
      <trkpt lat="49.86243" lon="2.39996">
        <ele>76.1</ele>
        <time>2022-05-28T12:57:45Z</time>
      </trkpt>
      <trkpt lat="49.86243" lon="2.39996">
        <ele>76.1</ele>
        <time>2022-05-28T12:57:46Z</time>
      </trkpt>
      <trkpt lat="49.86243" lon="2.39996">
        <ele>76.1</ele>
        <time>2022-05-28T12:57:47Z</time>
      </trkpt>
      <trkpt lat="49.86243" lon="2.39996">
        <ele>76.1</ele>
        <time>2022-05-28T12:57:48Z</time>
      </trkpt>
      <trkpt lat="49.86243" lon="2.39996">
        <ele>76.1</ele>
        <time>2022-05-28T12:57:49Z</time>
      </trkpt>
      <trkpt lat="49.86243" lon="2.39996">
        <ele>76.1</ele>
        <time>2022-05-28T12:57:50Z</time>
      </trkpt>
      <trkpt lat="49.86243" lon="2.39996">
        <ele>76.1</ele>
        <time>2022-05-28T12:57:51Z</time>
      </trkpt>
      <trkpt lat="49.86243" lon="2.39996">
        <ele>76.1</ele>
        <time>2022-05-28T12:57:52Z</time>
      </trkpt>
      <trkpt lat="49.86243" lon="2.39996">
        <ele>76.1</ele>
        <time>2022-05-28T12:57:53Z</time>
      </trkpt>
      <trkpt lat="49.86243" lon="2.39996">
        <ele>76.1</ele>
        <time>2022-05-28T12:57:54Z</time>
      </trkpt>
      <trkpt lat="49.86243" lon="2.39996">
        <ele>76.1</ele>
        <time>2022-05-28T12:57:55Z</time>
      </trkpt>
      <trkpt lat="49.86243" lon="2.39996">
        <ele>76.1</ele>
        <time>2022-05-28T12:57:56Z</time>
      </trkpt>
      <trkpt lat="49.86243" lon="2.39996">
        <ele>76.1</ele>
        <time>2022-05-28T12:57:57Z</time>
      </trkpt>
      <trkpt lat="49.86243" lon="2.39996">
        <ele>76.1</ele>
        <time>2022-05-28T12:57:58Z</time>
      </trkpt>
      <trkpt lat="49.86243" lon="2.39996">
        <ele>76.1</ele>
        <time>2022-05-28T12:57:59Z</time>
      </trkpt>
      <trkpt lat="49.86243" lon="2.39996">
        <ele>76.1</ele>
        <time>2022-05-28T12:58:00Z</time>
      </trkpt>
      <trkpt lat="49.86243" lon="2.39996">
        <ele>76.1</ele>
        <time>2022-05-28T12:58:01Z</time>
      </trkpt>
      <trkpt lat="49.86243" lon="2.39996">
        <ele>76.1</ele>
        <time>2022-05-28T12:58:02Z</time>
      </trkpt>
      <trkpt lat="49.86243" lon="2.39996">
        <ele>76.1</ele>
        <time>2022-05-28T12:58:03Z</time>
      </trkpt>
      <trkpt lat="49.86243" lon="2.39996">
        <ele>76.1</ele>
        <time>2022-05-28T12:58:04Z</time>
      </trkpt>
      <trkpt lat="49.86243" lon="2.39996">
        <ele>76.1</ele>
        <time>2022-05-28T12:58:05Z</time>
      </trkpt>
      <trkpt lat="49.86243" lon="2.39996">
        <ele>76.1</ele>
        <time>2022-05-28T12:58:06Z</time>
      </trkpt>
      <trkpt lat="49.86243" lon="2.39996">
        <ele>76.1</ele>
        <time>2022-05-28T12:58:07Z</time>
      </trkpt>
      <trkpt lat="49.86243" lon="2.39996">
        <ele>76.1</ele>
        <time>2022-05-28T12:58:08Z</time>
      </trkpt>
      <trkpt lat="49.86243" lon="2.39996">
        <ele>76.1</ele>
        <time>2022-05-28T12:58:09Z</time>
      </trkpt>
      <trkpt lat="49.86243" lon="2.39996">
        <ele>76.1</ele>
        <time>2022-05-28T12:58:10Z</time>
      </trkpt>
      <trkpt lat="49.86243" lon="2.39996">
        <ele>76.1</ele>
        <time>2022-05-28T12:58:11Z</time>
      </trkpt>
      <trkpt lat="49.86243" lon="2.39996">
        <ele>76.1</ele>
        <time>2022-05-28T12:58:12Z</time>
      </trkpt>
      <trkpt lat="49.86243" lon="2.39996">
        <ele>76.1</ele>
        <time>2022-05-28T12:58:13Z</time>
      </trkpt>
      <trkpt lat="49.86243" lon="2.39996">
        <ele>76.1</ele>
        <time>2022-05-28T12:58:14Z</time>
      </trkpt>
      <trkpt lat="49.86243" lon="2.39996">
        <ele>76.1</ele>
        <time>2022-05-28T12:58:15Z</time>
      </trkpt>
      <trkpt lat="49.86243" lon="2.39996">
        <ele>76.1</ele>
        <time>2022-05-28T12:58:16Z</time>
      </trkpt>
      <trkpt lat="49.86243" lon="2.39996">
        <ele>76.1</ele>
        <time>2022-05-28T12:58:17Z</time>
      </trkpt>
      <trkpt lat="49.86243" lon="2.39996">
        <ele>76.1</ele>
        <time>2022-05-28T12:58:18Z</time>
      </trkpt>
      <trkpt lat="49.86243" lon="2.39996">
        <ele>76.1</ele>
        <time>2022-05-28T12:58:19Z</time>
      </trkpt>
      <trkpt lat="49.86243" lon="2.39996">
        <ele>76.1</ele>
        <time>2022-05-28T12:58:20Z</time>
      </trkpt>
      <trkpt lat="49.86243" lon="2.39996">
        <ele>76.1</ele>
        <time>2022-05-28T12:58:21Z</time>
      </trkpt>
      <trkpt lat="49.86243" lon="2.39996">
        <ele>76.1</ele>
        <time>2022-05-28T12:58:22Z</time>
      </trkpt>
      <trkpt lat="49.86243" lon="2.39996">
        <ele>76.1</ele>
        <time>2022-05-28T12:58:23Z</time>
      </trkpt>
      <trkpt lat="49.86243" lon="2.39996">
        <ele>76.1</ele>
        <time>2022-05-28T12:58:24Z</time>
      </trkpt>
      <trkpt lat="49.86243" lon="2.39996">
        <ele>76.1</ele>
        <time>2022-05-28T12:58:25Z</time>
      </trkpt>
      <trkpt lat="49.86243" lon="2.39996">
        <ele>76.1</ele>
        <time>2022-05-28T12:58:26Z</time>
      </trkpt>
      <trkpt lat="49.86243" lon="2.39996">
        <ele>76.1</ele>
        <time>2022-05-28T12:58:27Z</time>
      </trkpt>
      <trkpt lat="49.86243" lon="2.39996">
        <ele>76.1</ele>
        <time>2022-05-28T12:58:28Z</time>
      </trkpt>
      <trkpt lat="49.86242" lon="2.39996">
        <ele>76.1</ele>
        <time>2022-05-28T12:58:29Z</time>
      </trkpt>
      <trkpt lat="49.86241" lon="2.39996">
        <ele>76</ele>
        <time>2022-05-28T12:58:30Z</time>
      </trkpt>
      <trkpt lat="49.86241" lon="2.39997">
        <ele>76</ele>
        <time>2022-05-28T12:58:31Z</time>
      </trkpt>
      <trkpt lat="49.86241" lon="2.39997">
        <ele>76</ele>
        <time>2022-05-28T12:58:32Z</time>
      </trkpt>
      <trkpt lat="49.8624" lon="2.39997">
        <ele>76</ele>
        <time>2022-05-28T12:58:33Z</time>
      </trkpt>
      <trkpt lat="49.8624" lon="2.39997">
        <ele>76</ele>
        <time>2022-05-28T12:58:34Z</time>
      </trkpt>
      <trkpt lat="49.8624" lon="2.39997">
        <ele>76</ele>
        <time>2022-05-28T12:58:35Z</time>
      </trkpt>
      <trkpt lat="49.8624" lon="2.39998">
        <ele>76</ele>
        <time>2022-05-28T12:58:36Z</time>
      </trkpt>
      <trkpt lat="49.8624" lon="2.39998">
        <ele>76</ele>
        <time>2022-05-28T12:58:37Z</time>
      </trkpt>
      <trkpt lat="49.8624" lon="2.39998">
        <ele>76</ele>
        <time>2022-05-28T12:58:38Z</time>
      </trkpt>
      <trkpt lat="49.8624" lon="2.39998">
        <ele>76</ele>
        <time>2022-05-28T12:58:39Z</time>
      </trkpt>
      <trkpt lat="49.8624" lon="2.39999">
        <ele>76</ele>
        <time>2022-05-28T12:58:40Z</time>
      </trkpt>
      <trkpt lat="49.8624" lon="2.39999">
        <ele>76</ele>
        <time>2022-05-28T12:58:41Z</time>
      </trkpt>
      <trkpt lat="49.8624" lon="2.39999">
        <ele>76</ele>
        <time>2022-05-28T12:58:42Z</time>
      </trkpt>
      <trkpt lat="49.8624" lon="2.39999">
        <ele>76</ele>
        <time>2022-05-28T12:58:43Z</time>
      </trkpt>
      <trkpt lat="49.86239" lon="2.39999">
        <ele>76</ele>
        <time>2022-05-28T12:58:44Z</time>
      </trkpt>
      <trkpt lat="49.86239" lon="2.4">
        <ele>76</ele>
        <time>2022-05-28T12:58:45Z</time>
      </trkpt>
      <trkpt lat="49.86239" lon="2.4">
        <ele>76</ele>
        <time>2022-05-28T12:58:46Z</time>
      </trkpt>
      <trkpt lat="49.86239" lon="2.4">
        <ele>76.1</ele>
        <time>2022-05-28T12:58:47Z</time>
      </trkpt>
      <trkpt lat="49.86239" lon="2.4">
        <ele>76.1</ele>
        <time>2022-05-28T12:58:48Z</time>
      </trkpt>
      <trkpt lat="49.86239" lon="2.4">
        <ele>76.1</ele>
        <time>2022-05-28T12:58:49Z</time>
      </trkpt>
      <trkpt lat="49.86239" lon="2.40001">
        <ele>76.1</ele>
        <time>2022-05-28T12:58:50Z</time>
      </trkpt>
      <trkpt lat="49.86239" lon="2.40001">
        <ele>75.9</ele>
        <time>2022-05-28T12:58:51Z</time>
      </trkpt>
      <trkpt lat="49.86239" lon="2.40001">
        <ele>75.9</ele>
        <time>2022-05-28T12:58:52Z</time>
      </trkpt>
      <trkpt lat="49.86239" lon="2.40001">
        <ele>75.9</ele>
        <time>2022-05-28T12:58:53Z</time>
      </trkpt>
      <trkpt lat="49.86238" lon="2.40003">
        <ele>75.9</ele>
        <time>2022-05-28T12:58:54Z</time>
      </trkpt>
      <trkpt lat="49.86237" lon="2.40006">
        <ele>76</ele>
        <time>2022-05-28T12:58:55Z</time>
      </trkpt>
      <trkpt lat="49.86236" lon="2.40008">
        <ele>75.8</ele>
        <time>2022-05-28T12:58:56Z</time>
      </trkpt>
      <trkpt lat="49.86235" lon="2.4001">
        <ele>75.9</ele>
        <time>2022-05-28T12:58:57Z</time>
      </trkpt>
      <trkpt lat="49.86233" lon="2.40012">
        <ele>75.9</ele>
        <time>2022-05-28T12:58:58Z</time>
      </trkpt>
      <trkpt lat="49.86232" lon="2.40014">
        <ele>75.8</ele>
        <time>2022-05-28T12:58:59Z</time>
      </trkpt>
      <trkpt lat="49.86232" lon="2.40016">
        <ele>75.8</ele>
        <time>2022-05-28T12:59:00Z</time>
      </trkpt>
      <trkpt lat="49.86231" lon="2.40018">
        <ele>75.9</ele>
        <time>2022-05-28T12:59:01Z</time>
      </trkpt>
      <trkpt lat="49.86231" lon="2.40019">
        <ele>75.9</ele>
        <time>2022-05-28T12:59:02Z</time>
      </trkpt>
      <trkpt lat="49.8623" lon="2.4002">
        <ele>75.6</ele>
        <time>2022-05-28T12:59:03Z</time>
      </trkpt>
      <trkpt lat="49.8623" lon="2.40021">
        <ele>75.6</ele>
        <time>2022-05-28T12:59:04Z</time>
      </trkpt>
      <trkpt lat="49.8623" lon="2.40021">
        <ele>75.7</ele>
        <time>2022-05-28T12:59:05Z</time>
      </trkpt>
      <trkpt lat="49.86229" lon="2.40022">
        <ele>75.7</ele>
        <time>2022-05-28T12:59:06Z</time>
      </trkpt>
      <trkpt lat="49.86229" lon="2.40022">
        <ele>75.7</ele>
        <time>2022-05-28T12:59:07Z</time>
      </trkpt>
      <trkpt lat="49.86229" lon="2.40023">
        <ele>75.7</ele>
        <time>2022-05-28T12:59:08Z</time>
      </trkpt>
      <trkpt lat="49.86229" lon="2.40023">
        <ele>75.7</ele>
        <time>2022-05-28T12:59:09Z</time>
      </trkpt>
      <trkpt lat="49.86229" lon="2.40024">
        <ele>75.7</ele>
        <time>2022-05-28T12:59:10Z</time>
      </trkpt>
      <trkpt lat="49.86228" lon="2.40024">
        <ele>75.7</ele>
        <time>2022-05-28T12:59:11Z</time>
      </trkpt>
      <trkpt lat="49.86228" lon="2.40025">
        <ele>75.7</ele>
        <time>2022-05-28T12:59:12Z</time>
      </trkpt>
      <trkpt lat="49.86228" lon="2.40026">
        <ele>75.8</ele>
        <time>2022-05-28T12:59:13Z</time>
      </trkpt>
      <trkpt lat="49.86228" lon="2.40027">
        <ele>75.8</ele>
        <time>2022-05-28T12:59:14Z</time>
      </trkpt>
      <trkpt lat="49.86228" lon="2.40027">
        <ele>75.8</ele>
        <time>2022-05-28T12:59:15Z</time>
      </trkpt>
      <trkpt lat="49.86228" lon="2.40028">
        <ele>75.8</ele>
        <time>2022-05-28T12:59:16Z</time>
      </trkpt>
      <trkpt lat="49.86228" lon="2.40028">
        <ele>75.8</ele>
        <time>2022-05-28T12:59:17Z</time>
      </trkpt>
      <trkpt lat="49.86228" lon="2.40029">
        <ele>75.8</ele>
        <time>2022-05-28T12:59:18Z</time>
      </trkpt>
      <trkpt lat="49.86228" lon="2.40029">
        <ele>75.5</ele>
        <time>2022-05-28T12:59:19Z</time>
      </trkpt>
      <trkpt lat="49.86227" lon="2.4003">
        <ele>75.6</ele>
        <time>2022-05-28T12:59:20Z</time>
      </trkpt>
      <trkpt lat="49.86228" lon="2.40031">
        <ele>75.8</ele>
        <time>2022-05-28T12:59:21Z</time>
      </trkpt>
      <trkpt lat="49.86228" lon="2.40032">
        <ele>75.8</ele>
        <time>2022-05-28T12:59:22Z</time>
      </trkpt>
      <trkpt lat="49.86228" lon="2.40033">
        <ele>75.8</ele>
        <time>2022-05-28T12:59:23Z</time>
      </trkpt>
      <trkpt lat="49.86228" lon="2.40034">
        <ele>75.8</ele>
        <time>2022-05-28T12:59:24Z</time>
      </trkpt>
      <trkpt lat="49.86228" lon="2.40035">
        <ele>75.9</ele>
        <time>2022-05-28T12:59:25Z</time>
      </trkpt>
      <trkpt lat="49.86228" lon="2.40036">
        <ele>75.9</ele>
        <time>2022-05-28T12:59:26Z</time>
      </trkpt>
      <trkpt lat="49.86228" lon="2.40039">
        <ele>75.7</ele>
        <time>2022-05-28T12:59:27Z</time>
      </trkpt>
      <trkpt lat="49.86227" lon="2.4004">
        <ele>75.7</ele>
        <time>2022-05-28T12:59:28Z</time>
      </trkpt>
      <trkpt lat="49.86227" lon="2.40041">
        <ele>75.7</ele>
        <time>2022-05-28T12:59:29Z</time>
      </trkpt>
      <trkpt lat="49.86227" lon="2.40043">
        <ele>75.7</ele>
        <time>2022-05-28T12:59:30Z</time>
      </trkpt>
      <trkpt lat="49.86227" lon="2.40044">
        <ele>75.7</ele>
        <time>2022-05-28T12:59:31Z</time>
      </trkpt>
      <trkpt lat="49.86227" lon="2.40046">
        <ele>75.7</ele>
        <time>2022-05-28T12:59:32Z</time>
      </trkpt>
      <trkpt lat="49.86227" lon="2.40048">
        <ele>75.8</ele>
        <time>2022-05-28T12:59:33Z</time>
      </trkpt>
      <trkpt lat="49.86227" lon="2.40051">
        <ele>75.8</ele>
        <time>2022-05-28T12:59:34Z</time>
      </trkpt>
      <trkpt lat="49.86227" lon="2.40053">
        <ele>75.9</ele>
        <time>2022-05-28T12:59:35Z</time>
      </trkpt>
      <trkpt lat="49.86227" lon="2.40054">
        <ele>75.9</ele>
        <time>2022-05-28T12:59:36Z</time>
      </trkpt>
      <trkpt lat="49.86226" lon="2.40056">
        <ele>75.9</ele>
        <time>2022-05-28T12:59:37Z</time>
      </trkpt>
      <trkpt lat="49.86226" lon="2.40057">
        <ele>75.9</ele>
        <time>2022-05-28T12:59:38Z</time>
      </trkpt>
      <trkpt lat="49.86226" lon="2.40058">
        <ele>75.9</ele>
        <time>2022-05-28T12:59:39Z</time>
      </trkpt>
      <trkpt lat="49.86226" lon="2.40059">
        <ele>75.9</ele>
        <time>2022-05-28T12:59:40Z</time>
      </trkpt>
      <trkpt lat="49.86226" lon="2.4006">
        <ele>76</ele>
        <time>2022-05-28T12:59:41Z</time>
      </trkpt>
      <trkpt lat="49.86226" lon="2.40061">
        <ele>76</ele>
        <time>2022-05-28T12:59:42Z</time>
      </trkpt>
      <trkpt lat="49.86226" lon="2.40062">
        <ele>76</ele>
        <time>2022-05-28T12:59:43Z</time>
      </trkpt>
      <trkpt lat="49.86226" lon="2.40062">
        <ele>76</ele>
        <time>2022-05-28T12:59:44Z</time>
      </trkpt>
      <trkpt lat="49.86226" lon="2.40063">
        <ele>76</ele>
        <time>2022-05-28T12:59:45Z</time>
      </trkpt>
      <trkpt lat="49.86226" lon="2.40063">
        <ele>76</ele>
        <time>2022-05-28T12:59:46Z</time>
      </trkpt>
      <trkpt lat="49.86226" lon="2.40064">
        <ele>76</ele>
        <time>2022-05-28T12:59:47Z</time>
      </trkpt>
      <trkpt lat="49.86226" lon="2.40064">
        <ele>76</ele>
        <time>2022-05-28T12:59:48Z</time>
      </trkpt>
      <trkpt lat="49.86226" lon="2.40065">
        <ele>76</ele>
        <time>2022-05-28T12:59:49Z</time>
      </trkpt>
      <trkpt lat="49.86226" lon="2.40065">
        <ele>76</ele>
        <time>2022-05-28T12:59:50Z</time>
      </trkpt>
      <trkpt lat="49.86226" lon="2.40066">
        <ele>76</ele>
        <time>2022-05-28T12:59:51Z</time>
      </trkpt>
      <trkpt lat="49.86226" lon="2.40066">
        <ele>76</ele>
        <time>2022-05-28T12:59:52Z</time>
      </trkpt>
      <trkpt lat="49.86226" lon="2.40067">
        <ele>76</ele>
        <time>2022-05-28T12:59:53Z</time>
      </trkpt>
      <trkpt lat="49.86226" lon="2.40068">
        <ele>76</ele>
        <time>2022-05-28T12:59:54Z</time>
      </trkpt>
      <trkpt lat="49.86225" lon="2.40069">
        <ele>76.1</ele>
        <time>2022-05-28T12:59:55Z</time>
      </trkpt>
      <trkpt lat="49.86225" lon="2.40071">
        <ele>76.1</ele>
        <time>2022-05-28T12:59:56Z</time>
      </trkpt>
      <trkpt lat="49.86225" lon="2.40074">
        <ele>75.9</ele>
        <time>2022-05-28T12:59:57Z</time>
      </trkpt>
      <trkpt lat="49.86225" lon="2.40075">
        <ele>75.9</ele>
        <time>2022-05-28T12:59:58Z</time>
      </trkpt>
      <trkpt lat="49.86225" lon="2.40077">
        <ele>75.9</ele>
        <time>2022-05-28T12:59:59Z</time>
      </trkpt>
      <trkpt lat="49.86225" lon="2.40079">
        <ele>75.9</ele>
        <time>2022-05-28T13:00:00Z</time>
      </trkpt>
      <trkpt lat="49.86224" lon="2.40081">
        <ele>75.9</ele>
        <time>2022-05-28T13:00:01Z</time>
      </trkpt>
      <trkpt lat="49.86224" lon="2.40082">
        <ele>76</ele>
        <time>2022-05-28T13:00:02Z</time>
      </trkpt>
      <trkpt lat="49.86224" lon="2.40083">
        <ele>76</ele>
        <time>2022-05-28T13:00:03Z</time>
      </trkpt>
      <trkpt lat="49.86224" lon="2.40084">
        <ele>76</ele>
        <time>2022-05-28T13:00:04Z</time>
      </trkpt>
      <trkpt lat="49.86224" lon="2.40086">
        <ele>76</ele>
        <time>2022-05-28T13:00:05Z</time>
      </trkpt>
      <trkpt lat="49.86224" lon="2.40086">
        <ele>76</ele>
        <time>2022-05-28T13:00:06Z</time>
      </trkpt>
      <trkpt lat="49.86223" lon="2.40087">
        <ele>76</ele>
        <time>2022-05-28T13:00:07Z</time>
      </trkpt>
      <trkpt lat="49.86223" lon="2.40088">
        <ele>76</ele>
        <time>2022-05-28T13:00:08Z</time>
      </trkpt>
      <trkpt lat="49.86223" lon="2.40089">
        <ele>76</ele>
        <time>2022-05-28T13:00:09Z</time>
      </trkpt>
      <trkpt lat="49.86223" lon="2.4009">
        <ele>76.1</ele>
        <time>2022-05-28T13:00:10Z</time>
      </trkpt>
      <trkpt lat="49.86223" lon="2.40091">
        <ele>76.1</ele>
        <time>2022-05-28T13:00:11Z</time>
      </trkpt>
      <trkpt lat="49.86223" lon="2.40092">
        <ele>76.1</ele>
        <time>2022-05-28T13:00:12Z</time>
      </trkpt>
      <trkpt lat="49.86222" lon="2.40093">
        <ele>76.1</ele>
        <time>2022-05-28T13:00:13Z</time>
      </trkpt>
      <trkpt lat="49.86222" lon="2.40094">
        <ele>75.8</ele>
        <time>2022-05-28T13:00:14Z</time>
      </trkpt>
      <trkpt lat="49.86222" lon="2.40095">
        <ele>75.8</ele>
        <time>2022-05-28T13:00:15Z</time>
      </trkpt>
      <trkpt lat="49.86222" lon="2.40096">
        <ele>75.8</ele>
        <time>2022-05-28T13:00:16Z</time>
      </trkpt>
      <trkpt lat="49.86222" lon="2.40097">
        <ele>75.8</ele>
        <time>2022-05-28T13:00:17Z</time>
      </trkpt>
      <trkpt lat="49.86222" lon="2.40099">
        <ele>75.9</ele>
        <time>2022-05-28T13:00:18Z</time>
      </trkpt>
      <trkpt lat="49.86221" lon="2.401">
        <ele>75.9</ele>
        <time>2022-05-28T13:00:19Z</time>
      </trkpt>
      <trkpt lat="49.86221" lon="2.40102">
        <ele>75.9</ele>
        <time>2022-05-28T13:00:20Z</time>
      </trkpt>
      <trkpt lat="49.86221" lon="2.40104">
        <ele>75.9</ele>
        <time>2022-05-28T13:00:21Z</time>
      </trkpt>
      <trkpt lat="49.86221" lon="2.40105">
        <ele>75.9</ele>
        <time>2022-05-28T13:00:22Z</time>
      </trkpt>
      <trkpt lat="49.8622" lon="2.40106">
        <ele>75.9</ele>
        <time>2022-05-28T13:00:23Z</time>
      </trkpt>
      <trkpt lat="49.8622" lon="2.40108">
        <ele>76</ele>
        <time>2022-05-28T13:00:24Z</time>
      </trkpt>
      <trkpt lat="49.8622" lon="2.4011">
        <ele>76</ele>
        <time>2022-05-28T13:00:25Z</time>
      </trkpt>
      <trkpt lat="49.86219" lon="2.40111">
        <ele>75.7</ele>
        <time>2022-05-28T13:00:26Z</time>
      </trkpt>
      <trkpt lat="49.86219" lon="2.40112">
        <ele>75.7</ele>
        <time>2022-05-28T13:00:27Z</time>
      </trkpt>
      <trkpt lat="49.86218" lon="2.40114">
        <ele>75.7</ele>
        <time>2022-05-28T13:00:28Z</time>
      </trkpt>
      <trkpt lat="49.86218" lon="2.40115">
        <ele>75.7</ele>
        <time>2022-05-28T13:00:29Z</time>
      </trkpt>
      <trkpt lat="49.86218" lon="2.40116">
        <ele>75.8</ele>
        <time>2022-05-28T13:00:30Z</time>
      </trkpt>
      <trkpt lat="49.86218" lon="2.40118">
        <ele>75.8</ele>
        <time>2022-05-28T13:00:31Z</time>
      </trkpt>
      <trkpt lat="49.86218" lon="2.40118">
        <ele>75.8</ele>
        <time>2022-05-28T13:00:32Z</time>
      </trkpt>
      <trkpt lat="49.86218" lon="2.40119">
        <ele>75.8</ele>
        <time>2022-05-28T13:00:33Z</time>
      </trkpt>
      <trkpt lat="49.86218" lon="2.40119">
        <ele>75.8</ele>
        <time>2022-05-28T13:00:34Z</time>
      </trkpt>
      <trkpt lat="49.86218" lon="2.40119">
        <ele>75.8</ele>
        <time>2022-05-28T13:00:35Z</time>
      </trkpt>
      <trkpt lat="49.86217" lon="2.4012">
        <ele>75.8</ele>
        <time>2022-05-28T13:00:36Z</time>
      </trkpt>
      <trkpt lat="49.86217" lon="2.40121">
        <ele>75.8</ele>
        <time>2022-05-28T13:00:37Z</time>
      </trkpt>
      <trkpt lat="49.86217" lon="2.40121">
        <ele>75.8</ele>
        <time>2022-05-28T13:00:38Z</time>
      </trkpt>
      <trkpt lat="49.86217" lon="2.40122">
        <ele>75.8</ele>
        <time>2022-05-28T13:00:39Z</time>
      </trkpt>
      <trkpt lat="49.86217" lon="2.40123">
        <ele>75.8</ele>
        <time>2022-05-28T13:00:40Z</time>
      </trkpt>
      <trkpt lat="49.86217" lon="2.40124">
        <ele>75.9</ele>
        <time>2022-05-28T13:00:41Z</time>
      </trkpt>
      <trkpt lat="49.86217" lon="2.40126">
        <ele>75.9</ele>
        <time>2022-05-28T13:00:42Z</time>
      </trkpt>
      <trkpt lat="49.86218" lon="2.40129">
        <ele>75.9</ele>
        <time>2022-05-28T13:00:43Z</time>
      </trkpt>
      <trkpt lat="49.86218" lon="2.40131">
        <ele>75.9</ele>
        <time>2022-05-28T13:00:44Z</time>
      </trkpt>
      <trkpt lat="49.86218" lon="2.40132">
        <ele>75.9</ele>
        <time>2022-05-28T13:00:45Z</time>
      </trkpt>
      <trkpt lat="49.86218" lon="2.40134">
        <ele>76</ele>
        <time>2022-05-28T13:00:46Z</time>
      </trkpt>
      <trkpt lat="49.86218" lon="2.40135">
        <ele>76</ele>
        <time>2022-05-28T13:00:47Z</time>
      </trkpt>
      <trkpt lat="49.86218" lon="2.40136">
        <ele>76</ele>
        <time>2022-05-28T13:00:48Z</time>
      </trkpt>
      <trkpt lat="49.86218" lon="2.40137">
        <ele>76</ele>
        <time>2022-05-28T13:00:49Z</time>
      </trkpt>
      <trkpt lat="49.86218" lon="2.40137">
        <ele>76</ele>
        <time>2022-05-28T13:00:50Z</time>
      </trkpt>
      <trkpt lat="49.86218" lon="2.40139">
        <ele>76</ele>
        <time>2022-05-28T13:00:51Z</time>
      </trkpt>
      <trkpt lat="49.86218" lon="2.40138">
        <ele>76</ele>
        <time>2022-05-28T13:00:52Z</time>
      </trkpt>
      <trkpt lat="49.86218" lon="2.40139">
        <ele>76</ele>
        <time>2022-05-28T13:00:53Z</time>
      </trkpt>
      <trkpt lat="49.86218" lon="2.4014">
        <ele>76</ele>
        <time>2022-05-28T13:00:54Z</time>
      </trkpt>
      <trkpt lat="49.86218" lon="2.40141">
        <ele>76</ele>
        <time>2022-05-28T13:00:55Z</time>
      </trkpt>
      <trkpt lat="49.86218" lon="2.40142">
        <ele>76.2</ele>
        <time>2022-05-28T13:00:56Z</time>
      </trkpt>
      <trkpt lat="49.86218" lon="2.40144">
        <ele>76.2</ele>
        <time>2022-05-28T13:00:57Z</time>
      </trkpt>
      <trkpt lat="49.86217" lon="2.40147">
        <ele>76.2</ele>
        <time>2022-05-28T13:00:58Z</time>
      </trkpt>
      <trkpt lat="49.86217" lon="2.40148">
        <ele>76.2</ele>
        <time>2022-05-28T13:00:59Z</time>
      </trkpt>
      <trkpt lat="49.86217" lon="2.4015">
        <ele>76</ele>
        <time>2022-05-28T13:01:00Z</time>
      </trkpt>
      <trkpt lat="49.86216" lon="2.40151">
        <ele>76.1</ele>
        <time>2022-05-28T13:01:01Z</time>
      </trkpt>
      <trkpt lat="49.86216" lon="2.40152">
        <ele>76.1</ele>
        <time>2022-05-28T13:01:02Z</time>
      </trkpt>
      <trkpt lat="49.86216" lon="2.40154">
        <ele>76.1</ele>
        <time>2022-05-28T13:01:03Z</time>
      </trkpt>
      <trkpt lat="49.86215" lon="2.40156">
        <ele>76.1</ele>
        <time>2022-05-28T13:01:04Z</time>
      </trkpt>
      <trkpt lat="49.86215" lon="2.40157">
        <ele>76.1</ele>
        <time>2022-05-28T13:01:05Z</time>
      </trkpt>
      <trkpt lat="49.86215" lon="2.40158">
        <ele>76.2</ele>
        <time>2022-05-28T13:01:06Z</time>
      </trkpt>
      <trkpt lat="49.86215" lon="2.40159">
        <ele>76.2</ele>
        <time>2022-05-28T13:01:07Z</time>
      </trkpt>
      <trkpt lat="49.86215" lon="2.40161">
        <ele>76.3</ele>
        <time>2022-05-28T13:01:08Z</time>
      </trkpt>
      <trkpt lat="49.86214" lon="2.40162">
        <ele>76.3</ele>
        <time>2022-05-28T13:01:09Z</time>
      </trkpt>
      <trkpt lat="49.86214" lon="2.40164">
        <ele>76.4</ele>
        <time>2022-05-28T13:01:10Z</time>
      </trkpt>
      <trkpt lat="49.86214" lon="2.40165">
        <ele>76.1</ele>
        <time>2022-05-28T13:01:11Z</time>
      </trkpt>
      <trkpt lat="49.86214" lon="2.40166">
        <ele>76.1</ele>
        <time>2022-05-28T13:01:12Z</time>
      </trkpt>
      <trkpt lat="49.86214" lon="2.40167">
        <ele>76.1</ele>
        <time>2022-05-28T13:01:13Z</time>
      </trkpt>
      <trkpt lat="49.86214" lon="2.40168">
        <ele>76.2</ele>
        <time>2022-05-28T13:01:14Z</time>
      </trkpt>
      <trkpt lat="49.86213" lon="2.40169">
        <ele>76.2</ele>
        <time>2022-05-28T13:01:15Z</time>
      </trkpt>
      <trkpt lat="49.86213" lon="2.40171">
        <ele>76.2</ele>
        <time>2022-05-28T13:01:16Z</time>
      </trkpt>
      <trkpt lat="49.86213" lon="2.40173">
        <ele>76.3</ele>
        <time>2022-05-28T13:01:17Z</time>
      </trkpt>
      <trkpt lat="49.86213" lon="2.40175">
        <ele>76.3</ele>
        <time>2022-05-28T13:01:18Z</time>
      </trkpt>
      <trkpt lat="49.86213" lon="2.40176">
        <ele>76.3</ele>
        <time>2022-05-28T13:01:19Z</time>
      </trkpt>
      <trkpt lat="49.86213" lon="2.40177">
        <ele>76.3</ele>
        <time>2022-05-28T13:01:20Z</time>
      </trkpt>
      <trkpt lat="49.86213" lon="2.40178">
        <ele>76.4</ele>
        <time>2022-05-28T13:01:21Z</time>
      </trkpt>
      <trkpt lat="49.86213" lon="2.40178">
        <ele>76.4</ele>
        <time>2022-05-28T13:01:22Z</time>
      </trkpt>
      <trkpt lat="49.86213" lon="2.40179">
        <ele>76.4</ele>
        <time>2022-05-28T13:01:23Z</time>
      </trkpt>
      <trkpt lat="49.86213" lon="2.40179">
        <ele>76.4</ele>
        <time>2022-05-28T13:01:24Z</time>
      </trkpt>
      <trkpt lat="49.86213" lon="2.40179">
        <ele>76.4</ele>
        <time>2022-05-28T13:01:25Z</time>
      </trkpt>
      <trkpt lat="49.86213" lon="2.40179">
        <ele>76.4</ele>
        <time>2022-05-28T13:01:26Z</time>
      </trkpt>
      <trkpt lat="49.86213" lon="2.4018">
        <ele>76.4</ele>
        <time>2022-05-28T13:01:27Z</time>
      </trkpt>
      <trkpt lat="49.86213" lon="2.4018">
        <ele>76.4</ele>
        <time>2022-05-28T13:01:28Z</time>
      </trkpt>
      <trkpt lat="49.86213" lon="2.4018">
        <ele>76.5</ele>
        <time>2022-05-28T13:01:29Z</time>
      </trkpt>
      <trkpt lat="49.86213" lon="2.4018">
        <ele>76.5</ele>
        <time>2022-05-28T13:01:30Z</time>
      </trkpt>
      <trkpt lat="49.86213" lon="2.40181">
        <ele>76.5</ele>
        <time>2022-05-28T13:01:31Z</time>
      </trkpt>
      <trkpt lat="49.86213" lon="2.40181">
        <ele>76.5</ele>
        <time>2022-05-28T13:01:32Z</time>
      </trkpt>
      <trkpt lat="49.86213" lon="2.40181">
        <ele>76.6</ele>
        <time>2022-05-28T13:01:33Z</time>
      </trkpt>
      <trkpt lat="49.86213" lon="2.40182">
        <ele>76.6</ele>
        <time>2022-05-28T13:01:34Z</time>
      </trkpt>
      <trkpt lat="49.86213" lon="2.40183">
        <ele>76.6</ele>
        <time>2022-05-28T13:01:35Z</time>
      </trkpt>
      <trkpt lat="49.86213" lon="2.40185">
        <ele>76.6</ele>
        <time>2022-05-28T13:01:36Z</time>
      </trkpt>
      <trkpt lat="49.86213" lon="2.40186">
        <ele>76.6</ele>
        <time>2022-05-28T13:01:37Z</time>
      </trkpt>
      <trkpt lat="49.86212" lon="2.40188">
        <ele>76.6</ele>
        <time>2022-05-28T13:01:38Z</time>
      </trkpt>
      <trkpt lat="49.86212" lon="2.40189">
        <ele>76.7</ele>
        <time>2022-05-28T13:01:39Z</time>
      </trkpt>
      <trkpt lat="49.86212" lon="2.4019">
        <ele>76.7</ele>
        <time>2022-05-28T13:01:40Z</time>
      </trkpt>
      <trkpt lat="49.86212" lon="2.40191">
        <ele>76.7</ele>
        <time>2022-05-28T13:01:41Z</time>
      </trkpt>
      <trkpt lat="49.86212" lon="2.40192">
        <ele>76.7</ele>
        <time>2022-05-28T13:01:42Z</time>
      </trkpt>
      <trkpt lat="49.86212" lon="2.40193">
        <ele>76.7</ele>
        <time>2022-05-28T13:01:43Z</time>
      </trkpt>
      <trkpt lat="49.86212" lon="2.40194">
        <ele>76.7</ele>
        <time>2022-05-28T13:01:44Z</time>
      </trkpt>
      <trkpt lat="49.86212" lon="2.40194">
        <ele>76.7</ele>
        <time>2022-05-28T13:01:45Z</time>
      </trkpt>
      <trkpt lat="49.86212" lon="2.40194">
        <ele>76.8</ele>
        <time>2022-05-28T13:01:46Z</time>
      </trkpt>
      <trkpt lat="49.86212" lon="2.40195">
        <ele>76.8</ele>
        <time>2022-05-28T13:01:47Z</time>
      </trkpt>
      <trkpt lat="49.86211" lon="2.40196">
        <ele>76.8</ele>
        <time>2022-05-28T13:01:48Z</time>
      </trkpt>
      <trkpt lat="49.86211" lon="2.40196">
        <ele>76.8</ele>
        <time>2022-05-28T13:01:49Z</time>
      </trkpt>
      <trkpt lat="49.86211" lon="2.40196">
        <ele>76.8</ele>
        <time>2022-05-28T13:01:50Z</time>
      </trkpt>
      <trkpt lat="49.86211" lon="2.40197">
        <ele>76.6</ele>
        <time>2022-05-28T13:01:51Z</time>
      </trkpt>
      <trkpt lat="49.86211" lon="2.40197">
        <ele>76.6</ele>
        <time>2022-05-28T13:01:52Z</time>
      </trkpt>
      <trkpt lat="49.86211" lon="2.40198">
        <ele>76.6</ele>
        <time>2022-05-28T13:01:53Z</time>
      </trkpt>
      <trkpt lat="49.86211" lon="2.40198">
        <ele>76.6</ele>
        <time>2022-05-28T13:01:54Z</time>
      </trkpt>
      <trkpt lat="49.86211" lon="2.40198">
        <ele>76.6</ele>
        <time>2022-05-28T13:01:55Z</time>
      </trkpt>
      <trkpt lat="49.86211" lon="2.40198">
        <ele>76.6</ele>
        <time>2022-05-28T13:01:56Z</time>
      </trkpt>
      <trkpt lat="49.86211" lon="2.40198">
        <ele>76.6</ele>
        <time>2022-05-28T13:01:57Z</time>
      </trkpt>
      <trkpt lat="49.86211" lon="2.40198">
        <ele>76.7</ele>
        <time>2022-05-28T13:01:58Z</time>
      </trkpt>
      <trkpt lat="49.86211" lon="2.40198">
        <ele>76.7</ele>
        <time>2022-05-28T13:01:59Z</time>
      </trkpt>
      <trkpt lat="49.86211" lon="2.40199">
        <ele>76.7</ele>
        <time>2022-05-28T13:02:00Z</time>
      </trkpt>
      <trkpt lat="49.86211" lon="2.40199">
        <ele>76.7</ele>
        <time>2022-05-28T13:02:01Z</time>
      </trkpt>
      <trkpt lat="49.86211" lon="2.40199">
        <ele>76.7</ele>
        <time>2022-05-28T13:02:02Z</time>
      </trkpt>
      <trkpt lat="49.86211" lon="2.40199">
        <ele>76.7</ele>
        <time>2022-05-28T13:02:03Z</time>
      </trkpt>
      <trkpt lat="49.86211" lon="2.402">
        <ele>76.7</ele>
        <time>2022-05-28T13:02:04Z</time>
      </trkpt>
      <trkpt lat="49.8621" lon="2.40201">
        <ele>76.7</ele>
        <time>2022-05-28T13:02:05Z</time>
      </trkpt>
      <trkpt lat="49.8621" lon="2.402">
        <ele>76.7</ele>
        <time>2022-05-28T13:02:06Z</time>
      </trkpt>
      <trkpt lat="49.8621" lon="2.402">
        <ele>76.7</ele>
        <time>2022-05-28T13:02:07Z</time>
      </trkpt>
      <trkpt lat="49.86211" lon="2.402">
        <ele>76.7</ele>
        <time>2022-05-28T13:02:08Z</time>
      </trkpt>
      <trkpt lat="49.8621" lon="2.40202">
        <ele>76.8</ele>
        <time>2022-05-28T13:02:09Z</time>
      </trkpt>
      <trkpt lat="49.8621" lon="2.40204">
        <ele>76.8</ele>
        <time>2022-05-28T13:02:10Z</time>
      </trkpt>
      <trkpt lat="49.86209" lon="2.40205">
        <ele>76.9</ele>
        <time>2022-05-28T13:02:11Z</time>
      </trkpt>
      <trkpt lat="49.86209" lon="2.40206">
        <ele>76.9</ele>
        <time>2022-05-28T13:02:12Z</time>
      </trkpt>
      <trkpt lat="49.86209" lon="2.40207">
        <ele>76.9</ele>
        <time>2022-05-28T13:02:13Z</time>
      </trkpt>
      <trkpt lat="49.86209" lon="2.40208">
        <ele>76.9</ele>
        <time>2022-05-28T13:02:14Z</time>
      </trkpt>
      <trkpt lat="49.86209" lon="2.40209">
        <ele>76.9</ele>
        <time>2022-05-28T13:02:15Z</time>
      </trkpt>
      <trkpt lat="49.86209" lon="2.40209">
        <ele>76.9</ele>
        <time>2022-05-28T13:02:16Z</time>
      </trkpt>
      <trkpt lat="49.86208" lon="2.40209">
        <ele>76.7</ele>
        <time>2022-05-28T13:02:17Z</time>
      </trkpt>
      <trkpt lat="49.86208" lon="2.4021">
        <ele>76.7</ele>
        <time>2022-05-28T13:02:18Z</time>
      </trkpt>
      <trkpt lat="49.86208" lon="2.4021">
        <ele>76.7</ele>
        <time>2022-05-28T13:02:19Z</time>
      </trkpt>
      <trkpt lat="49.86208" lon="2.4021">
        <ele>76.7</ele>
        <time>2022-05-28T13:02:20Z</time>
      </trkpt>
      <trkpt lat="49.86208" lon="2.40211">
        <ele>76.7</ele>
        <time>2022-05-28T13:02:21Z</time>
      </trkpt>
      <trkpt lat="49.86208" lon="2.40211">
        <ele>76.7</ele>
        <time>2022-05-28T13:02:22Z</time>
      </trkpt>
      <trkpt lat="49.86208" lon="2.40212">
        <ele>76.8</ele>
        <time>2022-05-28T13:02:23Z</time>
      </trkpt>
      <trkpt lat="49.86208" lon="2.40213">
        <ele>76.8</ele>
        <time>2022-05-28T13:02:24Z</time>
      </trkpt>
      <trkpt lat="49.86208" lon="2.40214">
        <ele>76.8</ele>
        <time>2022-05-28T13:02:25Z</time>
      </trkpt>
      <trkpt lat="49.86208" lon="2.40215">
        <ele>76.9</ele>
        <time>2022-05-28T13:02:26Z</time>
      </trkpt>
      <trkpt lat="49.86209" lon="2.40216">
        <ele>77.1</ele>
        <time>2022-05-28T13:02:27Z</time>
      </trkpt>
      <trkpt lat="49.86209" lon="2.40217">
        <ele>77.1</ele>
        <time>2022-05-28T13:02:28Z</time>
      </trkpt>
      <trkpt lat="49.86209" lon="2.40218">
        <ele>77.1</ele>
        <time>2022-05-28T13:02:29Z</time>
      </trkpt>
      <trkpt lat="49.86209" lon="2.40218">
        <ele>77.1</ele>
        <time>2022-05-28T13:02:30Z</time>
      </trkpt>
      <trkpt lat="49.86209" lon="2.40219">
        <ele>77.1</ele>
        <time>2022-05-28T13:02:31Z</time>
      </trkpt>
      <trkpt lat="49.86209" lon="2.4022">
        <ele>77.1</ele>
        <time>2022-05-28T13:02:32Z</time>
      </trkpt>
      <trkpt lat="49.86209" lon="2.40222">
        <ele>77.1</ele>
        <time>2022-05-28T13:02:33Z</time>
      </trkpt>
      <trkpt lat="49.86209" lon="2.40223">
        <ele>77.2</ele>
        <time>2022-05-28T13:02:34Z</time>
      </trkpt>
      <trkpt lat="49.86209" lon="2.40224">
        <ele>77.2</ele>
        <time>2022-05-28T13:02:35Z</time>
      </trkpt>
      <trkpt lat="49.8621" lon="2.40226">
        <ele>77.2</ele>
        <time>2022-05-28T13:02:36Z</time>
      </trkpt>
      <trkpt lat="49.8621" lon="2.40227">
        <ele>77.2</ele>
        <time>2022-05-28T13:02:37Z</time>
      </trkpt>
      <trkpt lat="49.8621" lon="2.40228">
        <ele>77.2</ele>
        <time>2022-05-28T13:02:38Z</time>
      </trkpt>
      <trkpt lat="49.8621" lon="2.40229">
        <ele>77.2</ele>
        <time>2022-05-28T13:02:39Z</time>
      </trkpt>
      <trkpt lat="49.8621" lon="2.4023">
        <ele>77.2</ele>
        <time>2022-05-28T13:02:40Z</time>
      </trkpt>
      <trkpt lat="49.8621" lon="2.4023">
        <ele>77.2</ele>
        <time>2022-05-28T13:02:41Z</time>
      </trkpt>
      <trkpt lat="49.86211" lon="2.40231">
        <ele>77.2</ele>
        <time>2022-05-28T13:02:42Z</time>
      </trkpt>
      <trkpt lat="49.86211" lon="2.40231">
        <ele>77.2</ele>
        <time>2022-05-28T13:02:43Z</time>
      </trkpt>
      <trkpt lat="49.86211" lon="2.40232">
        <ele>77.2</ele>
        <time>2022-05-28T13:02:44Z</time>
      </trkpt>
      <trkpt lat="49.86211" lon="2.40232">
        <ele>77.2</ele>
        <time>2022-05-28T13:02:45Z</time>
      </trkpt>
      <trkpt lat="49.86211" lon="2.40233">
        <ele>77.2</ele>
        <time>2022-05-28T13:02:46Z</time>
      </trkpt>
      <trkpt lat="49.86211" lon="2.40233">
        <ele>77.2</ele>
        <time>2022-05-28T13:02:47Z</time>
      </trkpt>
      <trkpt lat="49.86211" lon="2.40234">
        <ele>77.2</ele>
        <time>2022-05-28T13:02:48Z</time>
      </trkpt>
      <trkpt lat="49.86211" lon="2.40234">
        <ele>77.2</ele>
        <time>2022-05-28T13:02:49Z</time>
      </trkpt>
      <trkpt lat="49.86211" lon="2.40235">
        <ele>77.2</ele>
        <time>2022-05-28T13:02:50Z</time>
      </trkpt>
      <trkpt lat="49.86211" lon="2.40235">
        <ele>77.2</ele>
        <time>2022-05-28T13:02:51Z</time>
      </trkpt>
      <trkpt lat="49.86211" lon="2.40236">
        <ele>77.2</ele>
        <time>2022-05-28T13:02:52Z</time>
      </trkpt>
      <trkpt lat="49.86211" lon="2.40236">
        <ele>77.4</ele>
        <time>2022-05-28T13:02:53Z</time>
      </trkpt>
      <trkpt lat="49.86211" lon="2.40237">
        <ele>77.4</ele>
        <time>2022-05-28T13:02:54Z</time>
      </trkpt>
      <trkpt lat="49.86212" lon="2.40239">
        <ele>77.4</ele>
        <time>2022-05-28T13:02:55Z</time>
      </trkpt>
      <trkpt lat="49.86212" lon="2.4024">
        <ele>77.4</ele>
        <time>2022-05-28T13:02:56Z</time>
      </trkpt>
      <trkpt lat="49.86212" lon="2.4024">
        <ele>77.4</ele>
        <time>2022-05-28T13:02:57Z</time>
      </trkpt>
      <trkpt lat="49.86212" lon="2.4024">
        <ele>77.5</ele>
        <time>2022-05-28T13:02:58Z</time>
      </trkpt>
      <trkpt lat="49.86212" lon="2.4024">
        <ele>77.4</ele>
        <time>2022-05-28T13:02:59Z</time>
      </trkpt>
      <trkpt lat="49.86212" lon="2.4024">
        <ele>77.4</ele>
        <time>2022-05-28T13:03:00Z</time>
      </trkpt>
      <trkpt lat="49.86212" lon="2.40239">
        <ele>77.4</ele>
        <time>2022-05-28T13:03:01Z</time>
      </trkpt>
      <trkpt lat="49.86213" lon="2.40239">
        <ele>77.4</ele>
        <time>2022-05-28T13:03:02Z</time>
      </trkpt>
      <trkpt lat="49.86213" lon="2.40237">
        <ele>77.4</ele>
        <time>2022-05-28T13:03:03Z</time>
      </trkpt>
      <trkpt lat="49.86213" lon="2.40237">
        <ele>77.4</ele>
        <time>2022-05-28T13:03:04Z</time>
      </trkpt>
      <trkpt lat="49.86213" lon="2.40236">
        <ele>77.4</ele>
        <time>2022-05-28T13:03:05Z</time>
      </trkpt>
      <trkpt lat="49.86214" lon="2.40235">
        <ele>77.4</ele>
        <time>2022-05-28T13:03:06Z</time>
      </trkpt>
      <trkpt lat="49.86214" lon="2.40234">
        <ele>77.4</ele>
        <time>2022-05-28T13:03:07Z</time>
      </trkpt>
      <trkpt lat="49.86214" lon="2.40233">
        <ele>77.6</ele>
        <time>2022-05-28T13:03:08Z</time>
      </trkpt>
      <trkpt lat="49.86215" lon="2.40232">
        <ele>77.6</ele>
        <time>2022-05-28T13:03:09Z</time>
      </trkpt>
      <trkpt lat="49.86215" lon="2.40231">
        <ele>77.6</ele>
        <time>2022-05-28T13:03:10Z</time>
      </trkpt>
      <trkpt lat="49.86216" lon="2.4023">
        <ele>77.6</ele>
        <time>2022-05-28T13:03:11Z</time>
      </trkpt>
      <trkpt lat="49.86216" lon="2.40229">
        <ele>77.6</ele>
        <time>2022-05-28T13:03:12Z</time>
      </trkpt>
      <trkpt lat="49.86216" lon="2.40227">
        <ele>77.5</ele>
        <time>2022-05-28T13:03:13Z</time>
      </trkpt>
      <trkpt lat="49.86217" lon="2.40226">
        <ele>77.5</ele>
        <time>2022-05-28T13:03:14Z</time>
      </trkpt>
      <trkpt lat="49.86217" lon="2.40225">
        <ele>77.5</ele>
        <time>2022-05-28T13:03:15Z</time>
      </trkpt>
      <trkpt lat="49.86217" lon="2.40224">
        <ele>77.7</ele>
        <time>2022-05-28T13:03:16Z</time>
      </trkpt>
      <trkpt lat="49.86217" lon="2.40223">
        <ele>77.7</ele>
        <time>2022-05-28T13:03:17Z</time>
      </trkpt>
      <trkpt lat="49.86217" lon="2.40222">
        <ele>77.7</ele>
        <time>2022-05-28T13:03:18Z</time>
      </trkpt>
      <trkpt lat="49.86217" lon="2.40221">
        <ele>77.7</ele>
        <time>2022-05-28T13:03:19Z</time>
      </trkpt>
      <trkpt lat="49.86217" lon="2.40221">
        <ele>77.7</ele>
        <time>2022-05-28T13:03:20Z</time>
      </trkpt>
      <trkpt lat="49.86217" lon="2.4022">
        <ele>77.7</ele>
        <time>2022-05-28T13:03:21Z</time>
      </trkpt>
      <trkpt lat="49.86218" lon="2.40219">
        <ele>77.7</ele>
        <time>2022-05-28T13:03:22Z</time>
      </trkpt>
      <trkpt lat="49.86218" lon="2.40218">
        <ele>77.7</ele>
        <time>2022-05-28T13:03:23Z</time>
      </trkpt>
      <trkpt lat="49.86218" lon="2.40218">
        <ele>77.7</ele>
        <time>2022-05-28T13:03:24Z</time>
      </trkpt>
      <trkpt lat="49.86218" lon="2.40216">
        <ele>77.7</ele>
        <time>2022-05-28T13:03:25Z</time>
      </trkpt>
      <trkpt lat="49.86219" lon="2.40215">
        <ele>77.7</ele>
        <time>2022-05-28T13:03:26Z</time>
      </trkpt>
      <trkpt lat="49.86219" lon="2.40213">
        <ele>77.6</ele>
        <time>2022-05-28T13:03:27Z</time>
      </trkpt>
      <trkpt lat="49.86219" lon="2.40211">
        <ele>77.6</ele>
        <time>2022-05-28T13:03:28Z</time>
      </trkpt>
      <trkpt lat="49.86219" lon="2.4021">
        <ele>77.6</ele>
        <time>2022-05-28T13:03:29Z</time>
      </trkpt>
      <trkpt lat="49.8622" lon="2.40209">
        <ele>77.8</ele>
        <time>2022-05-28T13:03:30Z</time>
      </trkpt>
      <trkpt lat="49.8622" lon="2.40205">
        <ele>77.8</ele>
        <time>2022-05-28T13:03:31Z</time>
      </trkpt>
      <trkpt lat="49.8622" lon="2.40204">
        <ele>77.8</ele>
        <time>2022-05-28T13:03:32Z</time>
      </trkpt>
      <trkpt lat="49.8622" lon="2.40203">
        <ele>77.8</ele>
        <time>2022-05-28T13:03:33Z</time>
      </trkpt>
      <trkpt lat="49.8622" lon="2.40202">
        <ele>77.8</ele>
        <time>2022-05-28T13:03:34Z</time>
      </trkpt>
      <trkpt lat="49.8622" lon="2.40201">
        <ele>77.8</ele>
        <time>2022-05-28T13:03:35Z</time>
      </trkpt>
      <trkpt lat="49.8622" lon="2.40199">
        <ele>77.8</ele>
        <time>2022-05-28T13:03:36Z</time>
      </trkpt>
      <trkpt lat="49.8622" lon="2.40199">
        <ele>77.8</ele>
        <time>2022-05-28T13:03:37Z</time>
      </trkpt>
      <trkpt lat="49.8622" lon="2.40197">
        <ele>77.8</ele>
        <time>2022-05-28T13:03:38Z</time>
      </trkpt>
      <trkpt lat="49.8622" lon="2.40197">
        <ele>77.7</ele>
        <time>2022-05-28T13:03:39Z</time>
      </trkpt>
      <trkpt lat="49.8622" lon="2.40197">
        <ele>77.7</ele>
        <time>2022-05-28T13:03:40Z</time>
      </trkpt>
      <trkpt lat="49.8622" lon="2.40196">
        <ele>77.7</ele>
        <time>2022-05-28T13:03:41Z</time>
      </trkpt>
      <trkpt lat="49.8622" lon="2.40196">
        <ele>77.7</ele>
        <time>2022-05-28T13:03:42Z</time>
      </trkpt>
      <trkpt lat="49.8622" lon="2.40195">
        <ele>77.7</ele>
        <time>2022-05-28T13:03:43Z</time>
      </trkpt>
      <trkpt lat="49.8622" lon="2.40195">
        <ele>77.7</ele>
        <time>2022-05-28T13:03:44Z</time>
      </trkpt>
      <trkpt lat="49.8622" lon="2.40195">
        <ele>77.7</ele>
        <time>2022-05-28T13:03:45Z</time>
      </trkpt>
      <trkpt lat="49.8622" lon="2.40194">
        <ele>77.7</ele>
        <time>2022-05-28T13:03:46Z</time>
      </trkpt>
      <trkpt lat="49.8622" lon="2.40193">
        <ele>77.7</ele>
        <time>2022-05-28T13:03:47Z</time>
      </trkpt>
      <trkpt lat="49.8622" lon="2.40192">
        <ele>77.7</ele>
        <time>2022-05-28T13:03:48Z</time>
      </trkpt>
      <trkpt lat="49.86221" lon="2.4019">
        <ele>77.7</ele>
        <time>2022-05-28T13:03:49Z</time>
      </trkpt>
      <trkpt lat="49.86221" lon="2.40188">
        <ele>77.7</ele>
        <time>2022-05-28T13:03:50Z</time>
      </trkpt>
      <trkpt lat="49.86221" lon="2.40186">
        <ele>77.7</ele>
        <time>2022-05-28T13:03:51Z</time>
      </trkpt>
      <trkpt lat="49.86221" lon="2.40184">
        <ele>77.6</ele>
        <time>2022-05-28T13:03:52Z</time>
      </trkpt>
      <trkpt lat="49.86221" lon="2.40179">
        <ele>77.6</ele>
        <time>2022-05-28T13:03:53Z</time>
      </trkpt>
      <trkpt lat="49.86221" lon="2.40177">
        <ele>77.6</ele>
        <time>2022-05-28T13:03:54Z</time>
      </trkpt>
      <trkpt lat="49.86221" lon="2.40174">
        <ele>77.5</ele>
        <time>2022-05-28T13:03:55Z</time>
      </trkpt>
      <trkpt lat="49.86221" lon="2.40172">
        <ele>77.5</ele>
        <time>2022-05-28T13:03:56Z</time>
      </trkpt>
      <trkpt lat="49.86221" lon="2.40169">
        <ele>77.5</ele>
        <time>2022-05-28T13:03:57Z</time>
      </trkpt>
      <trkpt lat="49.86221" lon="2.40167">
        <ele>77.5</ele>
        <time>2022-05-28T13:03:58Z</time>
      </trkpt>
      <trkpt lat="49.86221" lon="2.40166">
        <ele>77.4</ele>
        <time>2022-05-28T13:03:59Z</time>
      </trkpt>
      <trkpt lat="49.86221" lon="2.40164">
        <ele>77.4</ele>
        <time>2022-05-28T13:04:00Z</time>
      </trkpt>
      <trkpt lat="49.86222" lon="2.40162">
        <ele>77.4</ele>
        <time>2022-05-28T13:04:01Z</time>
      </trkpt>
      <trkpt lat="49.86222" lon="2.4016">
        <ele>77.4</ele>
        <time>2022-05-28T13:04:02Z</time>
      </trkpt>
      <trkpt lat="49.86222" lon="2.4016">
        <ele>77.4</ele>
        <time>2022-05-28T13:04:03Z</time>
      </trkpt>
      <trkpt lat="49.86222" lon="2.40159">
        <ele>77.4</ele>
        <time>2022-05-28T13:04:04Z</time>
      </trkpt>
      <trkpt lat="49.86222" lon="2.40159">
        <ele>77.4</ele>
        <time>2022-05-28T13:04:05Z</time>
      </trkpt>
      <trkpt lat="49.86222" lon="2.40159">
        <ele>77.3</ele>
        <time>2022-05-28T13:04:06Z</time>
      </trkpt>
      <trkpt lat="49.86222" lon="2.40159">
        <ele>77.3</ele>
        <time>2022-05-28T13:04:07Z</time>
      </trkpt>
      <trkpt lat="49.86222" lon="2.40158">
        <ele>77.3</ele>
        <time>2022-05-28T13:04:08Z</time>
      </trkpt>
      <trkpt lat="49.86222" lon="2.40158">
        <ele>77.3</ele>
        <time>2022-05-28T13:04:09Z</time>
      </trkpt>
      <trkpt lat="49.86222" lon="2.40157">
        <ele>77.3</ele>
        <time>2022-05-28T13:04:10Z</time>
      </trkpt>
      <trkpt lat="49.86222" lon="2.40157">
        <ele>77.3</ele>
        <time>2022-05-28T13:04:11Z</time>
      </trkpt>
      <trkpt lat="49.86222" lon="2.40156">
        <ele>77.3</ele>
        <time>2022-05-28T13:04:12Z</time>
      </trkpt>
      <trkpt lat="49.86222" lon="2.40155">
        <ele>77.3</ele>
        <time>2022-05-28T13:04:13Z</time>
      </trkpt>
      <trkpt lat="49.86222" lon="2.40154">
        <ele>77.3</ele>
        <time>2022-05-28T13:04:14Z</time>
      </trkpt>
      <trkpt lat="49.86222" lon="2.40153">
        <ele>77.3</ele>
        <time>2022-05-28T13:04:15Z</time>
      </trkpt>
      <trkpt lat="49.86223" lon="2.4015">
        <ele>77.4</ele>
        <time>2022-05-28T13:04:16Z</time>
      </trkpt>
      <trkpt lat="49.86223" lon="2.40148">
        <ele>77.4</ele>
        <time>2022-05-28T13:04:17Z</time>
      </trkpt>
      <trkpt lat="49.86223" lon="2.40147">
        <ele>77.4</ele>
        <time>2022-05-28T13:04:18Z</time>
      </trkpt>
      <trkpt lat="49.86224" lon="2.40142">
        <ele>77.4</ele>
        <time>2022-05-28T13:04:19Z</time>
      </trkpt>
      <trkpt lat="49.86224" lon="2.40141">
        <ele>77.4</ele>
        <time>2022-05-28T13:04:20Z</time>
      </trkpt>
      <trkpt lat="49.86224" lon="2.4014">
        <ele>77.3</ele>
        <time>2022-05-28T13:04:21Z</time>
      </trkpt>
      <trkpt lat="49.86225" lon="2.40139">
        <ele>77.3</ele>
        <time>2022-05-28T13:04:22Z</time>
      </trkpt>
      <trkpt lat="49.86225" lon="2.40139">
        <ele>77.3</ele>
        <time>2022-05-28T13:04:23Z</time>
      </trkpt>
      <trkpt lat="49.86225" lon="2.40138">
        <ele>77.3</ele>
        <time>2022-05-28T13:04:24Z</time>
      </trkpt>
      <trkpt lat="49.86225" lon="2.40138">
        <ele>77.6</ele>
        <time>2022-05-28T13:04:25Z</time>
      </trkpt>
      <trkpt lat="49.86225" lon="2.40137">
        <ele>77.5</ele>
        <time>2022-05-28T13:04:26Z</time>
      </trkpt>
      <trkpt lat="49.86225" lon="2.40137">
        <ele>77.5</ele>
        <time>2022-05-28T13:04:27Z</time>
      </trkpt>
      <trkpt lat="49.86226" lon="2.40136">
        <ele>77.5</ele>
        <time>2022-05-28T13:04:28Z</time>
      </trkpt>
      <trkpt lat="49.86226" lon="2.40136">
        <ele>77.5</ele>
        <time>2022-05-28T13:04:29Z</time>
      </trkpt>
      <trkpt lat="49.86226" lon="2.40136">
        <ele>77.5</ele>
        <time>2022-05-28T13:04:30Z</time>
      </trkpt>
      <trkpt lat="49.86226" lon="2.40135">
        <ele>77.5</ele>
        <time>2022-05-28T13:04:31Z</time>
      </trkpt>
      <trkpt lat="49.86226" lon="2.40134">
        <ele>77.5</ele>
        <time>2022-05-28T13:04:32Z</time>
      </trkpt>
      <trkpt lat="49.86226" lon="2.40134">
        <ele>77.5</ele>
        <time>2022-05-28T13:04:33Z</time>
      </trkpt>
      <trkpt lat="49.86227" lon="2.4013">
        <ele>77.5</ele>
        <time>2022-05-28T13:04:34Z</time>
      </trkpt>
      <trkpt lat="49.86227" lon="2.40129">
        <ele>77.5</ele>
        <time>2022-05-28T13:04:35Z</time>
      </trkpt>
      <trkpt lat="49.86227" lon="2.40128">
        <ele>77.5</ele>
        <time>2022-05-28T13:04:36Z</time>
      </trkpt>
      <trkpt lat="49.86227" lon="2.40126">
        <ele>77.5</ele>
        <time>2022-05-28T13:04:37Z</time>
      </trkpt>
      <trkpt lat="49.86228" lon="2.40123">
        <ele>77.4</ele>
        <time>2022-05-28T13:04:38Z</time>
      </trkpt>
      <trkpt lat="49.86228" lon="2.4012">
        <ele>77.7</ele>
        <time>2022-05-28T13:04:39Z</time>
      </trkpt>
      <trkpt lat="49.86228" lon="2.4012">
        <ele>77.6</ele>
        <time>2022-05-28T13:04:40Z</time>
      </trkpt>
      <trkpt lat="49.86228" lon="2.40119">
        <ele>77.6</ele>
        <time>2022-05-28T13:04:41Z</time>
      </trkpt>
      <trkpt lat="49.86228" lon="2.40118">
        <ele>77.6</ele>
        <time>2022-05-28T13:04:42Z</time>
      </trkpt>
      <trkpt lat="49.86228" lon="2.40118">
        <ele>77.6</ele>
        <time>2022-05-28T13:04:43Z</time>
      </trkpt>
      <trkpt lat="49.86228" lon="2.40116">
        <ele>77.6</ele>
        <time>2022-05-28T13:04:44Z</time>
      </trkpt>
      <trkpt lat="49.86228" lon="2.40115">
        <ele>77.6</ele>
        <time>2022-05-28T13:04:45Z</time>
      </trkpt>
      <trkpt lat="49.86228" lon="2.40114">
        <ele>77.6</ele>
        <time>2022-05-28T13:04:46Z</time>
      </trkpt>
      <trkpt lat="49.86228" lon="2.40113">
        <ele>77.6</ele>
        <time>2022-05-28T13:04:47Z</time>
      </trkpt>
      <trkpt lat="49.86228" lon="2.40113">
        <ele>77.6</ele>
        <time>2022-05-28T13:04:48Z</time>
      </trkpt>
      <trkpt lat="49.86229" lon="2.40112">
        <ele>77.6</ele>
        <time>2022-05-28T13:04:49Z</time>
      </trkpt>
      <trkpt lat="49.86229" lon="2.40112">
        <ele>77.6</ele>
        <time>2022-05-28T13:04:50Z</time>
      </trkpt>
      <trkpt lat="49.86229" lon="2.40112">
        <ele>77.6</ele>
        <time>2022-05-28T13:04:51Z</time>
      </trkpt>
      <trkpt lat="49.86229" lon="2.40111">
        <ele>77.6</ele>
        <time>2022-05-28T13:04:52Z</time>
      </trkpt>
      <trkpt lat="49.86229" lon="2.40111">
        <ele>77.6</ele>
        <time>2022-05-28T13:04:53Z</time>
      </trkpt>
      <trkpt lat="49.86229" lon="2.4011">
        <ele>77.6</ele>
        <time>2022-05-28T13:04:54Z</time>
      </trkpt>
      <trkpt lat="49.86229" lon="2.4011">
        <ele>77.6</ele>
        <time>2022-05-28T13:04:55Z</time>
      </trkpt>
      <trkpt lat="49.86229" lon="2.40107">
        <ele>77.6</ele>
        <time>2022-05-28T13:04:56Z</time>
      </trkpt>
      <trkpt lat="49.86229" lon="2.40106">
        <ele>77.5</ele>
        <time>2022-05-28T13:04:57Z</time>
      </trkpt>
      <trkpt lat="49.86229" lon="2.40104">
        <ele>77.5</ele>
        <time>2022-05-28T13:04:58Z</time>
      </trkpt>
      <trkpt lat="49.8623" lon="2.40103">
        <ele>77.5</ele>
        <time>2022-05-28T13:04:59Z</time>
      </trkpt>
      <trkpt lat="49.8623" lon="2.401">
        <ele>77.5</ele>
        <time>2022-05-28T13:05:00Z</time>
      </trkpt>
      <trkpt lat="49.8623" lon="2.40098">
        <ele>77.4</ele>
        <time>2022-05-28T13:05:01Z</time>
      </trkpt>
      <trkpt lat="49.8623" lon="2.40097">
        <ele>77.4</ele>
        <time>2022-05-28T13:05:02Z</time>
      </trkpt>
      <trkpt lat="49.8623" lon="2.40096">
        <ele>77.4</ele>
        <time>2022-05-28T13:05:03Z</time>
      </trkpt>
      <trkpt lat="49.8623" lon="2.40095">
        <ele>77.4</ele>
        <time>2022-05-28T13:05:04Z</time>
      </trkpt>
      <trkpt lat="49.8623" lon="2.40094">
        <ele>77.4</ele>
        <time>2022-05-28T13:05:05Z</time>
      </trkpt>
      <trkpt lat="49.8623" lon="2.40094">
        <ele>77.4</ele>
        <time>2022-05-28T13:05:06Z</time>
      </trkpt>
      <trkpt lat="49.8623" lon="2.40093">
        <ele>77.4</ele>
        <time>2022-05-28T13:05:07Z</time>
      </trkpt>
      <trkpt lat="49.8623" lon="2.40093">
        <ele>77.4</ele>
        <time>2022-05-28T13:05:08Z</time>
      </trkpt>
      <trkpt lat="49.86229" lon="2.40093">
        <ele>77.4</ele>
        <time>2022-05-28T13:05:09Z</time>
      </trkpt>
      <trkpt lat="49.86229" lon="2.40092">
        <ele>77.4</ele>
        <time>2022-05-28T13:05:10Z</time>
      </trkpt>
      <trkpt lat="49.86229" lon="2.40092">
        <ele>77.4</ele>
        <time>2022-05-28T13:05:11Z</time>
      </trkpt>
      <trkpt lat="49.86229" lon="2.40091">
        <ele>77.4</ele>
        <time>2022-05-28T13:05:12Z</time>
      </trkpt>
      <trkpt lat="49.86229" lon="2.40091">
        <ele>77.4</ele>
        <time>2022-05-28T13:05:13Z</time>
      </trkpt>
      <trkpt lat="49.86229" lon="2.40091">
        <ele>77.4</ele>
        <time>2022-05-28T13:05:14Z</time>
      </trkpt>
      <trkpt lat="49.86229" lon="2.4009">
        <ele>77.4</ele>
        <time>2022-05-28T13:05:15Z</time>
      </trkpt>
      <trkpt lat="49.86229" lon="2.4009">
        <ele>77.4</ele>
        <time>2022-05-28T13:05:16Z</time>
      </trkpt>
      <trkpt lat="49.86229" lon="2.4009">
        <ele>77.4</ele>
        <time>2022-05-28T13:05:17Z</time>
      </trkpt>
      <trkpt lat="49.86229" lon="2.4009">
        <ele>77.4</ele>
        <time>2022-05-28T13:05:18Z</time>
      </trkpt>
      <trkpt lat="49.86229" lon="2.4009">
        <ele>77.4</ele>
        <time>2022-05-28T13:05:19Z</time>
      </trkpt>
      <trkpt lat="49.86229" lon="2.4009">
        <ele>77.4</ele>
        <time>2022-05-28T13:05:20Z</time>
      </trkpt>
      <trkpt lat="49.86229" lon="2.4009">
        <ele>77.4</ele>
        <time>2022-05-28T13:05:21Z</time>
      </trkpt>
      <trkpt lat="49.86229" lon="2.4009">
        <ele>77.4</ele>
        <time>2022-05-28T13:05:22Z</time>
      </trkpt>
      <trkpt lat="49.86229" lon="2.4009">
        <ele>77.4</ele>
        <time>2022-05-28T13:05:23Z</time>
      </trkpt>
      <trkpt lat="49.86229" lon="2.4009">
        <ele>77.4</ele>
        <time>2022-05-28T13:05:24Z</time>
      </trkpt>
      <trkpt lat="49.86229" lon="2.4009">
        <ele>77.4</ele>
        <time>2022-05-28T13:05:25Z</time>
      </trkpt>
      <trkpt lat="49.86229" lon="2.4009">
        <ele>77.4</ele>
        <time>2022-05-28T13:05:26Z</time>
      </trkpt>
      <trkpt lat="49.86229" lon="2.4009">
        <ele>77.4</ele>
        <time>2022-05-28T13:05:27Z</time>
      </trkpt>
      <trkpt lat="49.86229" lon="2.4009">
        <ele>77.4</ele>
        <time>2022-05-28T13:05:28Z</time>
      </trkpt>
      <trkpt lat="49.86229" lon="2.4009">
        <ele>77.4</ele>
        <time>2022-05-28T13:05:29Z</time>
      </trkpt>
      <trkpt lat="49.86229" lon="2.4009">
        <ele>77.4</ele>
        <time>2022-05-28T13:05:30Z</time>
      </trkpt>
      <trkpt lat="49.86229" lon="2.4009">
        <ele>77.4</ele>
        <time>2022-05-28T13:05:31Z</time>
      </trkpt>
      <trkpt lat="49.86229" lon="2.40089">
        <ele>77.4</ele>
        <time>2022-05-28T13:05:32Z</time>
      </trkpt>
      <trkpt lat="49.86229" lon="2.40089">
        <ele>77.4</ele>
        <time>2022-05-28T13:05:33Z</time>
      </trkpt>
      <trkpt lat="49.86229" lon="2.40089">
        <ele>77.4</ele>
        <time>2022-05-28T13:05:34Z</time>
      </trkpt>
      <trkpt lat="49.86229" lon="2.40089">
        <ele>77.4</ele>
        <time>2022-05-28T13:05:35Z</time>
      </trkpt>
      <trkpt lat="49.86229" lon="2.40089">
        <ele>77.4</ele>
        <time>2022-05-28T13:05:36Z</time>
      </trkpt>
      <trkpt lat="49.86229" lon="2.40089">
        <ele>77.4</ele>
        <time>2022-05-28T13:05:37Z</time>
      </trkpt>
      <trkpt lat="49.86229" lon="2.40089">
        <ele>77.4</ele>
        <time>2022-05-28T13:05:38Z</time>
      </trkpt>
      <trkpt lat="49.86229" lon="2.40088">
        <ele>77.4</ele>
        <time>2022-05-28T13:05:39Z</time>
      </trkpt>
      <trkpt lat="49.8623" lon="2.40086">
        <ele>77.4</ele>
        <time>2022-05-28T13:05:40Z</time>
      </trkpt>
      <trkpt lat="49.8623" lon="2.40085">
        <ele>77.3</ele>
        <time>2022-05-28T13:05:41Z</time>
      </trkpt>
      <trkpt lat="49.8623" lon="2.40084">
        <ele>77.3</ele>
        <time>2022-05-28T13:05:42Z</time>
      </trkpt>
      <trkpt lat="49.86231" lon="2.40083">
        <ele>77.5</ele>
        <time>2022-05-28T13:05:43Z</time>
      </trkpt>
      <trkpt lat="49.86232" lon="2.40078">
        <ele>77.5</ele>
        <time>2022-05-28T13:05:44Z</time>
      </trkpt>
      <trkpt lat="49.86232" lon="2.40077">
        <ele>77.5</ele>
        <time>2022-05-28T13:05:45Z</time>
      </trkpt>
      <trkpt lat="49.86232" lon="2.40075">
        <ele>77.4</ele>
        <time>2022-05-28T13:05:46Z</time>
      </trkpt>
      <trkpt lat="49.86233" lon="2.40074">
        <ele>77.4</ele>
        <time>2022-05-28T13:05:47Z</time>
      </trkpt>
      <trkpt lat="49.86233" lon="2.40073">
        <ele>77.4</ele>
        <time>2022-05-28T13:05:48Z</time>
      </trkpt>
      <trkpt lat="49.86233" lon="2.40072">
        <ele>77.4</ele>
        <time>2022-05-28T13:05:49Z</time>
      </trkpt>
      <trkpt lat="49.86233" lon="2.40072">
        <ele>77.4</ele>
        <time>2022-05-28T13:05:50Z</time>
      </trkpt>
      <trkpt lat="49.86233" lon="2.40071">
        <ele>77.6</ele>
        <time>2022-05-28T13:05:51Z</time>
      </trkpt>
      <trkpt lat="49.86234" lon="2.4007">
        <ele>77.6</ele>
        <time>2022-05-28T13:05:52Z</time>
      </trkpt>
      <trkpt lat="49.86234" lon="2.4007">
        <ele>77.6</ele>
        <time>2022-05-28T13:05:53Z</time>
      </trkpt>
      <trkpt lat="49.86234" lon="2.40068">
        <ele>77.5</ele>
        <time>2022-05-28T13:05:54Z</time>
      </trkpt>
      <trkpt lat="49.86234" lon="2.40068">
        <ele>77.5</ele>
        <time>2022-05-28T13:05:55Z</time>
      </trkpt>
      <trkpt lat="49.86234" lon="2.40067">
        <ele>77.5</ele>
        <time>2022-05-28T13:05:56Z</time>
      </trkpt>
      <trkpt lat="49.86234" lon="2.40065">
        <ele>77.5</ele>
        <time>2022-05-28T13:05:57Z</time>
      </trkpt>
      <trkpt lat="49.86235" lon="2.40063">
        <ele>77.5</ele>
        <time>2022-05-28T13:05:58Z</time>
      </trkpt>
      <trkpt lat="49.86235" lon="2.40061">
        <ele>77.5</ele>
        <time>2022-05-28T13:05:59Z</time>
      </trkpt>
      <trkpt lat="49.86236" lon="2.4006">
        <ele>77.4</ele>
        <time>2022-05-28T13:06:00Z</time>
      </trkpt>
      <trkpt lat="49.86236" lon="2.40058">
        <ele>77.4</ele>
        <time>2022-05-28T13:06:01Z</time>
      </trkpt>
      <trkpt lat="49.86236" lon="2.40057">
        <ele>77.6</ele>
        <time>2022-05-28T13:06:02Z</time>
      </trkpt>
      <trkpt lat="49.86236" lon="2.40056">
        <ele>77.6</ele>
        <time>2022-05-28T13:06:03Z</time>
      </trkpt>
      <trkpt lat="49.86237" lon="2.40055">
        <ele>77.6</ele>
        <time>2022-05-28T13:06:04Z</time>
      </trkpt>
      <trkpt lat="49.86237" lon="2.40055">
        <ele>77.6</ele>
        <time>2022-05-28T13:06:05Z</time>
      </trkpt>
      <trkpt lat="49.86237" lon="2.40055">
        <ele>77.6</ele>
        <time>2022-05-28T13:06:06Z</time>
      </trkpt>
      <trkpt lat="49.86237" lon="2.40054">
        <ele>77.6</ele>
        <time>2022-05-28T13:06:07Z</time>
      </trkpt>
      <trkpt lat="49.86237" lon="2.40053">
        <ele>77.6</ele>
        <time>2022-05-28T13:06:08Z</time>
      </trkpt>
      <trkpt lat="49.86237" lon="2.40052">
        <ele>77.6</ele>
        <time>2022-05-28T13:06:09Z</time>
      </trkpt>
      <trkpt lat="49.86238" lon="2.40051">
        <ele>77.5</ele>
        <time>2022-05-28T13:06:10Z</time>
      </trkpt>
      <trkpt lat="49.86238" lon="2.4005">
        <ele>77.5</ele>
        <time>2022-05-28T13:06:11Z</time>
      </trkpt>
      <trkpt lat="49.86238" lon="2.4005">
        <ele>77.5</ele>
        <time>2022-05-28T13:06:12Z</time>
      </trkpt>
      <trkpt lat="49.86238" lon="2.40049">
        <ele>77.5</ele>
        <time>2022-05-28T13:06:13Z</time>
      </trkpt>
      <trkpt lat="49.86238" lon="2.40048">
        <ele>77.5</ele>
        <time>2022-05-28T13:06:14Z</time>
      </trkpt>
      <trkpt lat="49.86238" lon="2.40044">
        <ele>77.4</ele>
        <time>2022-05-28T13:06:15Z</time>
      </trkpt>
      <trkpt lat="49.86238" lon="2.40042">
        <ele>77.4</ele>
        <time>2022-05-28T13:06:16Z</time>
      </trkpt>
      <trkpt lat="49.86239" lon="2.4004">
        <ele>77.4</ele>
        <time>2022-05-28T13:06:17Z</time>
      </trkpt>
      <trkpt lat="49.86239" lon="2.40035">
        <ele>77.5</ele>
        <time>2022-05-28T13:06:18Z</time>
      </trkpt>
      <trkpt lat="49.86239" lon="2.40033">
        <ele>77.4</ele>
        <time>2022-05-28T13:06:19Z</time>
      </trkpt>
      <trkpt lat="49.86239" lon="2.40028">
        <ele>77.4</ele>
        <time>2022-05-28T13:06:20Z</time>
      </trkpt>
      <trkpt lat="49.86239" lon="2.40026">
        <ele>77.4</ele>
        <time>2022-05-28T13:06:21Z</time>
      </trkpt>
      <trkpt lat="49.86239" lon="2.40021">
        <ele>77.2</ele>
        <time>2022-05-28T13:06:22Z</time>
      </trkpt>
      <trkpt lat="49.86239" lon="2.4002">
        <ele>77.2</ele>
        <time>2022-05-28T13:06:23Z</time>
      </trkpt>
      <trkpt lat="49.8624" lon="2.40017">
        <ele>77.1</ele>
        <time>2022-05-28T13:06:24Z</time>
      </trkpt>
      <trkpt lat="49.86239" lon="2.40015">
        <ele>77.1</ele>
        <time>2022-05-28T13:06:25Z</time>
      </trkpt>
      <trkpt lat="49.86239" lon="2.40014">
        <ele>77.1</ele>
        <time>2022-05-28T13:06:26Z</time>
      </trkpt>
      <trkpt lat="49.8624" lon="2.40013">
        <ele>77.1</ele>
        <time>2022-05-28T13:06:27Z</time>
      </trkpt>
      <trkpt lat="49.8624" lon="2.40012">
        <ele>77.1</ele>
        <time>2022-05-28T13:06:28Z</time>
      </trkpt>
      <trkpt lat="49.8624" lon="2.40011">
        <ele>77.1</ele>
        <time>2022-05-28T13:06:29Z</time>
      </trkpt>
      <trkpt lat="49.8624" lon="2.4001">
        <ele>77.1</ele>
        <time>2022-05-28T13:06:30Z</time>
      </trkpt>
      <trkpt lat="49.8624" lon="2.4001">
        <ele>77.1</ele>
        <time>2022-05-28T13:06:31Z</time>
      </trkpt>
      <trkpt lat="49.8624" lon="2.40009">
        <ele>77.1</ele>
        <time>2022-05-28T13:06:32Z</time>
      </trkpt>
      <trkpt lat="49.8624" lon="2.40007">
        <ele>77</ele>
        <time>2022-05-28T13:06:33Z</time>
      </trkpt>
      <trkpt lat="49.8624" lon="2.40005">
        <ele>77</ele>
        <time>2022-05-28T13:06:34Z</time>
      </trkpt>
      <trkpt lat="49.86241" lon="2.40001">
        <ele>76.9</ele>
        <time>2022-05-28T13:06:35Z</time>
      </trkpt>
      <trkpt lat="49.86241" lon="2.4">
        <ele>76.9</ele>
        <time>2022-05-28T13:06:36Z</time>
      </trkpt>
      <trkpt lat="49.86241" lon="2.39997">
        <ele>76.8</ele>
        <time>2022-05-28T13:06:37Z</time>
      </trkpt>
      <trkpt lat="49.86241" lon="2.39995">
        <ele>76.7</ele>
        <time>2022-05-28T13:06:38Z</time>
      </trkpt>
      <trkpt lat="49.86241" lon="2.39994">
        <ele>76.7</ele>
        <time>2022-05-28T13:06:39Z</time>
      </trkpt>
      <trkpt lat="49.86241" lon="2.39993">
        <ele>76.7</ele>
        <time>2022-05-28T13:06:40Z</time>
      </trkpt>
      <trkpt lat="49.86242" lon="2.39992">
        <ele>76.7</ele>
        <time>2022-05-28T13:06:41Z</time>
      </trkpt>
      <trkpt lat="49.86242" lon="2.39992">
        <ele>76.7</ele>
        <time>2022-05-28T13:06:42Z</time>
      </trkpt>
      <trkpt lat="49.86242" lon="2.39992">
        <ele>76.7</ele>
        <time>2022-05-28T13:06:43Z</time>
      </trkpt>
      <trkpt lat="49.86242" lon="2.3999">
        <ele>76.7</ele>
        <time>2022-05-28T13:06:44Z</time>
      </trkpt>
      <trkpt lat="49.86242" lon="2.39988">
        <ele>76.7</ele>
        <time>2022-05-28T13:06:45Z</time>
      </trkpt>
      <trkpt lat="49.86243" lon="2.39987">
        <ele>76.6</ele>
        <time>2022-05-28T13:06:46Z</time>
      </trkpt>
      <trkpt lat="49.86243" lon="2.39986">
        <ele>76.6</ele>
        <time>2022-05-28T13:06:47Z</time>
      </trkpt>
      <trkpt lat="49.86243" lon="2.39985">
        <ele>76.6</ele>
        <time>2022-05-28T13:06:48Z</time>
      </trkpt>
      <trkpt lat="49.86244" lon="2.39983">
        <ele>76.6</ele>
        <time>2022-05-28T13:06:49Z</time>
      </trkpt>
      <trkpt lat="49.86244" lon="2.39982">
        <ele>76.5</ele>
        <time>2022-05-28T13:06:50Z</time>
      </trkpt>
      <trkpt lat="49.86244" lon="2.39981">
        <ele>76.5</ele>
        <time>2022-05-28T13:06:51Z</time>
      </trkpt>
      <trkpt lat="49.86244" lon="2.3998">
        <ele>76.5</ele>
        <time>2022-05-28T13:06:52Z</time>
      </trkpt>
      <trkpt lat="49.86245" lon="2.39979">
        <ele>76.6</ele>
        <time>2022-05-28T13:06:53Z</time>
      </trkpt>
      <trkpt lat="49.86245" lon="2.39978">
        <ele>76.4</ele>
        <time>2022-05-28T13:06:54Z</time>
      </trkpt>
      <trkpt lat="49.86245" lon="2.39977">
        <ele>76.4</ele>
        <time>2022-05-28T13:06:55Z</time>
      </trkpt>
      <trkpt lat="49.86245" lon="2.39977">
        <ele>76.4</ele>
        <time>2022-05-28T13:06:56Z</time>
      </trkpt>
      <trkpt lat="49.86245" lon="2.39976">
        <ele>76.4</ele>
        <time>2022-05-28T13:06:57Z</time>
      </trkpt>
      <trkpt lat="49.86245" lon="2.39975">
        <ele>76.4</ele>
        <time>2022-05-28T13:06:58Z</time>
      </trkpt>
      <trkpt lat="49.86246" lon="2.39974">
        <ele>76.2</ele>
        <time>2022-05-28T13:06:59Z</time>
      </trkpt>
      <trkpt lat="49.86246" lon="2.39973">
        <ele>76.2</ele>
        <time>2022-05-28T13:07:00Z</time>
      </trkpt>
      <trkpt lat="49.86246" lon="2.39972">
        <ele>76.2</ele>
        <time>2022-05-28T13:07:01Z</time>
      </trkpt>
      <trkpt lat="49.86246" lon="2.3997">
        <ele>76.2</ele>
        <time>2022-05-28T13:07:02Z</time>
      </trkpt>
      <trkpt lat="49.86246" lon="2.39969">
        <ele>76.1</ele>
        <time>2022-05-28T13:07:03Z</time>
      </trkpt>
      <trkpt lat="49.86247" lon="2.39967">
        <ele>76.1</ele>
        <time>2022-05-28T13:07:04Z</time>
      </trkpt>
      <trkpt lat="49.86246" lon="2.39967">
        <ele>76.1</ele>
        <time>2022-05-28T13:07:05Z</time>
      </trkpt>
      <trkpt lat="49.86247" lon="2.39966">
        <ele>76.1</ele>
        <time>2022-05-28T13:07:06Z</time>
      </trkpt>
      <trkpt lat="49.86247" lon="2.39963">
        <ele>75.9</ele>
        <time>2022-05-28T13:07:07Z</time>
      </trkpt>
      <trkpt lat="49.86247" lon="2.39961">
        <ele>75.9</ele>
        <time>2022-05-28T13:07:08Z</time>
      </trkpt>
      <trkpt lat="49.86247" lon="2.3996">
        <ele>75.8</ele>
        <time>2022-05-28T13:07:09Z</time>
      </trkpt>
      <trkpt lat="49.86247" lon="2.39957">
        <ele>75.8</ele>
        <time>2022-05-28T13:07:10Z</time>
      </trkpt>
      <trkpt lat="49.86247" lon="2.39955">
        <ele>75.6</ele>
        <time>2022-05-28T13:07:11Z</time>
      </trkpt>
      <trkpt lat="49.86248" lon="2.39952">
        <ele>75.5</ele>
        <time>2022-05-28T13:07:12Z</time>
      </trkpt>
      <trkpt lat="49.86248" lon="2.39951">
        <ele>75.5</ele>
        <time>2022-05-28T13:07:13Z</time>
      </trkpt>
      <trkpt lat="49.86248" lon="2.39949">
        <ele>75.5</ele>
        <time>2022-05-28T13:07:14Z</time>
      </trkpt>
      <trkpt lat="49.86248" lon="2.39948">
        <ele>75.3</ele>
        <time>2022-05-28T13:07:15Z</time>
      </trkpt>
      <trkpt lat="49.86248" lon="2.39947">
        <ele>75.3</ele>
        <time>2022-05-28T13:07:16Z</time>
      </trkpt>
      <trkpt lat="49.86248" lon="2.39946">
        <ele>75.3</ele>
        <time>2022-05-28T13:07:17Z</time>
      </trkpt>
      <trkpt lat="49.86248" lon="2.39945">
        <ele>75.3</ele>
        <time>2022-05-28T13:07:18Z</time>
      </trkpt>
      <trkpt lat="49.86249" lon="2.39944">
        <ele>75.1</ele>
        <time>2022-05-28T13:07:19Z</time>
      </trkpt>
      <trkpt lat="49.86249" lon="2.39944">
        <ele>75.1</ele>
        <time>2022-05-28T13:07:20Z</time>
      </trkpt>
      <trkpt lat="49.86249" lon="2.39943">
        <ele>75.1</ele>
        <time>2022-05-28T13:07:21Z</time>
      </trkpt>
      <trkpt lat="49.86249" lon="2.39941">
        <ele>75.1</ele>
        <time>2022-05-28T13:07:22Z</time>
      </trkpt>
      <trkpt lat="49.86249" lon="2.3994">
        <ele>75.1</ele>
        <time>2022-05-28T13:07:23Z</time>
      </trkpt>
      <trkpt lat="49.86249" lon="2.39939">
        <ele>74.9</ele>
        <time>2022-05-28T13:07:24Z</time>
      </trkpt>
      <trkpt lat="49.86248" lon="2.39936">
        <ele>74.9</ele>
        <time>2022-05-28T13:07:25Z</time>
      </trkpt>
      <trkpt lat="49.86248" lon="2.39935">
        <ele>74.8</ele>
        <time>2022-05-28T13:07:26Z</time>
      </trkpt>
      <trkpt lat="49.86248" lon="2.39934">
        <ele>74.8</ele>
        <time>2022-05-28T13:07:27Z</time>
      </trkpt>
      <trkpt lat="49.86248" lon="2.39933">
        <ele>74.8</ele>
        <time>2022-05-28T13:07:28Z</time>
      </trkpt>
      <trkpt lat="49.86247" lon="2.39931">
        <ele>74.6</ele>
        <time>2022-05-28T13:07:29Z</time>
      </trkpt>
      <trkpt lat="49.86247" lon="2.39931">
        <ele>74.6</ele>
        <time>2022-05-28T13:07:30Z</time>
      </trkpt>
      <trkpt lat="49.86247" lon="2.39929">
        <ele>74.6</ele>
        <time>2022-05-28T13:07:31Z</time>
      </trkpt>
      <trkpt lat="49.86247" lon="2.39928">
        <ele>74.6</ele>
        <time>2022-05-28T13:07:32Z</time>
      </trkpt>
      <trkpt lat="49.86247" lon="2.39926">
        <ele>74.5</ele>
        <time>2022-05-28T13:07:33Z</time>
      </trkpt>
      <trkpt lat="49.86247" lon="2.39921">
        <ele>74.3</ele>
        <time>2022-05-28T13:07:34Z</time>
      </trkpt>
      <trkpt lat="49.86248" lon="2.39918">
        <ele>74.3</ele>
        <time>2022-05-28T13:07:35Z</time>
      </trkpt>
      <trkpt lat="49.86248" lon="2.39914">
        <ele>74</ele>
        <time>2022-05-28T13:07:36Z</time>
      </trkpt>
      <trkpt lat="49.86248" lon="2.39913">
        <ele>74</ele>
        <time>2022-05-28T13:07:37Z</time>
      </trkpt>
      <trkpt lat="49.86248" lon="2.39911">
        <ele>74</ele>
        <time>2022-05-28T13:07:38Z</time>
      </trkpt>
      <trkpt lat="49.86248" lon="2.3991">
        <ele>73.9</ele>
        <time>2022-05-28T13:07:39Z</time>
      </trkpt>
      <trkpt lat="49.86248" lon="2.39909">
        <ele>73.9</ele>
        <time>2022-05-28T13:07:40Z</time>
      </trkpt>
      <trkpt lat="49.86248" lon="2.39908">
        <ele>73.9</ele>
        <time>2022-05-28T13:07:41Z</time>
      </trkpt>
      <trkpt lat="49.86248" lon="2.39907">
        <ele>73.9</ele>
        <time>2022-05-28T13:07:42Z</time>
      </trkpt>
      <trkpt lat="49.86248" lon="2.39906">
        <ele>73.9</ele>
        <time>2022-05-28T13:07:43Z</time>
      </trkpt>
      <trkpt lat="49.86248" lon="2.39906">
        <ele>73.9</ele>
        <time>2022-05-28T13:07:44Z</time>
      </trkpt>
      <trkpt lat="49.86248" lon="2.39905">
        <ele>73.8</ele>
        <time>2022-05-28T13:07:45Z</time>
      </trkpt>
      <trkpt lat="49.86248" lon="2.39904">
        <ele>73.8</ele>
        <time>2022-05-28T13:07:46Z</time>
      </trkpt>
      <trkpt lat="49.86248" lon="2.39902">
        <ele>73.8</ele>
        <time>2022-05-28T13:07:47Z</time>
      </trkpt>
      <trkpt lat="49.86248" lon="2.39901">
        <ele>73.6</ele>
        <time>2022-05-28T13:07:48Z</time>
      </trkpt>
      <trkpt lat="49.86248" lon="2.39898">
        <ele>73.6</ele>
        <time>2022-05-28T13:07:49Z</time>
      </trkpt>
      <trkpt lat="49.86249" lon="2.39896">
        <ele>73.5</ele>
        <time>2022-05-28T13:07:50Z</time>
      </trkpt>
      <trkpt lat="49.86249" lon="2.39894">
        <ele>73.5</ele>
        <time>2022-05-28T13:07:51Z</time>
      </trkpt>
      <trkpt lat="49.86249" lon="2.39893">
        <ele>73.5</ele>
        <time>2022-05-28T13:07:52Z</time>
      </trkpt>
      <trkpt lat="49.86249" lon="2.39891">
        <ele>73.4</ele>
        <time>2022-05-28T13:07:53Z</time>
      </trkpt>
      <trkpt lat="49.86249" lon="2.3989">
        <ele>73.4</ele>
        <time>2022-05-28T13:07:54Z</time>
      </trkpt>
      <trkpt lat="49.86249" lon="2.3989">
        <ele>73.4</ele>
        <time>2022-05-28T13:07:55Z</time>
      </trkpt>
      <trkpt lat="49.86249" lon="2.39889">
        <ele>73.4</ele>
        <time>2022-05-28T13:07:56Z</time>
      </trkpt>
      <trkpt lat="49.8625" lon="2.39886">
        <ele>73.3</ele>
        <time>2022-05-28T13:07:57Z</time>
      </trkpt>
      <trkpt lat="49.8625" lon="2.39884">
        <ele>73.3</ele>
        <time>2022-05-28T13:07:58Z</time>
      </trkpt>
      <trkpt lat="49.8625" lon="2.39883">
        <ele>73.2</ele>
        <time>2022-05-28T13:07:59Z</time>
      </trkpt>
      <trkpt lat="49.86251" lon="2.39881">
        <ele>73.2</ele>
        <time>2022-05-28T13:08:00Z</time>
      </trkpt>
      <trkpt lat="49.86251" lon="2.3988">
        <ele>73.2</ele>
        <time>2022-05-28T13:08:01Z</time>
      </trkpt>
      <trkpt lat="49.86251" lon="2.39879">
        <ele>73.1</ele>
        <time>2022-05-28T13:08:02Z</time>
      </trkpt>
      <trkpt lat="49.86251" lon="2.39878">
        <ele>73.1</ele>
        <time>2022-05-28T13:08:03Z</time>
      </trkpt>
      <trkpt lat="49.86252" lon="2.39877">
        <ele>73.1</ele>
        <time>2022-05-28T13:08:04Z</time>
      </trkpt>
      <trkpt lat="49.86252" lon="2.39876">
        <ele>73.1</ele>
        <time>2022-05-28T13:08:05Z</time>
      </trkpt>
      <trkpt lat="49.86252" lon="2.39875">
        <ele>73</ele>
        <time>2022-05-28T13:08:06Z</time>
      </trkpt>
      <trkpt lat="49.86252" lon="2.39874">
        <ele>73</ele>
        <time>2022-05-28T13:08:07Z</time>
      </trkpt>
      <trkpt lat="49.86253" lon="2.39873">
        <ele>73</ele>
        <time>2022-05-28T13:08:08Z</time>
      </trkpt>
      <trkpt lat="49.86253" lon="2.39871">
        <ele>72.9</ele>
        <time>2022-05-28T13:08:09Z</time>
      </trkpt>
      <trkpt lat="49.86254" lon="2.39868">
        <ele>72.9</ele>
        <time>2022-05-28T13:08:10Z</time>
      </trkpt>
      <trkpt lat="49.86255" lon="2.39866">
        <ele>72.8</ele>
        <time>2022-05-28T13:08:11Z</time>
      </trkpt>
      <trkpt lat="49.86255" lon="2.39865">
        <ele>72.8</ele>
        <time>2022-05-28T13:08:12Z</time>
      </trkpt>
      <trkpt lat="49.86255" lon="2.39864">
        <ele>72.8</ele>
        <time>2022-05-28T13:08:13Z</time>
      </trkpt>
      <trkpt lat="49.86256" lon="2.39863">
        <ele>72.8</ele>
        <time>2022-05-28T13:08:14Z</time>
      </trkpt>
      <trkpt lat="49.86256" lon="2.39861">
        <ele>72.7</ele>
        <time>2022-05-28T13:08:15Z</time>
      </trkpt>
      <trkpt lat="49.86257" lon="2.3986">
        <ele>72.7</ele>
        <time>2022-05-28T13:08:16Z</time>
      </trkpt>
      <trkpt lat="49.86257" lon="2.3986">
        <ele>72.7</ele>
        <time>2022-05-28T13:08:17Z</time>
      </trkpt>
      <trkpt lat="49.86257" lon="2.39859">
        <ele>72.7</ele>
        <time>2022-05-28T13:08:18Z</time>
      </trkpt>
      <trkpt lat="49.86257" lon="2.39859">
        <ele>72.7</ele>
        <time>2022-05-28T13:08:19Z</time>
      </trkpt>
      <trkpt lat="49.86257" lon="2.39858">
        <ele>72.6</ele>
        <time>2022-05-28T13:08:20Z</time>
      </trkpt>
      <trkpt lat="49.86257" lon="2.39857">
        <ele>72.6</ele>
        <time>2022-05-28T13:08:21Z</time>
      </trkpt>
      <trkpt lat="49.86258" lon="2.39856">
        <ele>72.6</ele>
        <time>2022-05-28T13:08:22Z</time>
      </trkpt>
      <trkpt lat="49.86258" lon="2.39855">
        <ele>72.6</ele>
        <time>2022-05-28T13:08:23Z</time>
      </trkpt>
      <trkpt lat="49.86258" lon="2.39853">
        <ele>72.5</ele>
        <time>2022-05-28T13:08:24Z</time>
      </trkpt>
      <trkpt lat="49.86258" lon="2.3985">
        <ele>72.5</ele>
        <time>2022-05-28T13:08:25Z</time>
      </trkpt>
      <trkpt lat="49.86258" lon="2.39848">
        <ele>72.4</ele>
        <time>2022-05-28T13:08:26Z</time>
      </trkpt>
      <trkpt lat="49.86258" lon="2.39845">
        <ele>72.4</ele>
        <time>2022-05-28T13:08:27Z</time>
      </trkpt>
      <trkpt lat="49.86258" lon="2.39842">
        <ele>72.4</ele>
        <time>2022-05-28T13:08:28Z</time>
      </trkpt>
      <trkpt lat="49.86258" lon="2.39839">
        <ele>72.3</ele>
        <time>2022-05-28T13:08:29Z</time>
      </trkpt>
      <trkpt lat="49.86258" lon="2.39834">
        <ele>72.2</ele>
        <time>2022-05-28T13:08:30Z</time>
      </trkpt>
      <trkpt lat="49.86258" lon="2.39833">
        <ele>72.2</ele>
        <time>2022-05-28T13:08:31Z</time>
      </trkpt>
      <trkpt lat="49.86257" lon="2.39832">
        <ele>72.1</ele>
        <time>2022-05-28T13:08:32Z</time>
      </trkpt>
      <trkpt lat="49.86257" lon="2.39831">
        <ele>72.1</ele>
        <time>2022-05-28T13:08:33Z</time>
      </trkpt>
      <trkpt lat="49.86257" lon="2.3983">
        <ele>72.1</ele>
        <time>2022-05-28T13:08:34Z</time>
      </trkpt>
      <trkpt lat="49.86257" lon="2.39829">
        <ele>72.1</ele>
        <time>2022-05-28T13:08:35Z</time>
      </trkpt>
      <trkpt lat="49.86257" lon="2.39829">
        <ele>72.1</ele>
        <time>2022-05-28T13:08:36Z</time>
      </trkpt>
      <trkpt lat="49.86257" lon="2.39828">
        <ele>72.1</ele>
        <time>2022-05-28T13:08:37Z</time>
      </trkpt>
      <trkpt lat="49.86257" lon="2.39827">
        <ele>72.1</ele>
        <time>2022-05-28T13:08:38Z</time>
      </trkpt>
      <trkpt lat="49.86257" lon="2.39827">
        <ele>72.1</ele>
        <time>2022-05-28T13:08:39Z</time>
      </trkpt>
      <trkpt lat="49.86257" lon="2.39826">
        <ele>72.1</ele>
        <time>2022-05-28T13:08:40Z</time>
      </trkpt>
      <trkpt lat="49.86258" lon="2.39825">
        <ele>72.1</ele>
        <time>2022-05-28T13:08:41Z</time>
      </trkpt>
      <trkpt lat="49.86258" lon="2.39824">
        <ele>72.1</ele>
        <time>2022-05-28T13:08:42Z</time>
      </trkpt>
      <trkpt lat="49.86258" lon="2.39823">
        <ele>72</ele>
        <time>2022-05-28T13:08:43Z</time>
      </trkpt>
      <trkpt lat="49.86258" lon="2.39823">
        <ele>72</ele>
        <time>2022-05-28T13:08:44Z</time>
      </trkpt>
      <trkpt lat="49.86258" lon="2.39822">
        <ele>72</ele>
        <time>2022-05-28T13:08:45Z</time>
      </trkpt>
      <trkpt lat="49.86258" lon="2.39822">
        <ele>72</ele>
        <time>2022-05-28T13:08:46Z</time>
      </trkpt>
      <trkpt lat="49.86258" lon="2.39822">
        <ele>72</ele>
        <time>2022-05-28T13:08:47Z</time>
      </trkpt>
      <trkpt lat="49.86258" lon="2.39822">
        <ele>72</ele>
        <time>2022-05-28T13:08:48Z</time>
      </trkpt>
      <trkpt lat="49.86258" lon="2.39822">
        <ele>72</ele>
        <time>2022-05-28T13:08:49Z</time>
      </trkpt>
      <trkpt lat="49.86258" lon="2.39822">
        <ele>72</ele>
        <time>2022-05-28T13:08:50Z</time>
      </trkpt>
      <trkpt lat="49.86258" lon="2.39823">
        <ele>72</ele>
        <time>2022-05-28T13:08:51Z</time>
      </trkpt>
      <trkpt lat="49.86258" lon="2.39823">
        <ele>72</ele>
        <time>2022-05-28T13:08:52Z</time>
      </trkpt>
      <trkpt lat="49.86258" lon="2.39823">
        <ele>72</ele>
        <time>2022-05-28T13:08:53Z</time>
      </trkpt>
      <trkpt lat="49.86258" lon="2.39822">
        <ele>72</ele>
        <time>2022-05-28T13:08:54Z</time>
      </trkpt>
      <trkpt lat="49.86258" lon="2.39821">
        <ele>72</ele>
        <time>2022-05-28T13:08:55Z</time>
      </trkpt>
      <trkpt lat="49.86258" lon="2.3982">
        <ele>72</ele>
        <time>2022-05-28T13:08:56Z</time>
      </trkpt>
      <trkpt lat="49.86258" lon="2.3982">
        <ele>72</ele>
        <time>2022-05-28T13:08:57Z</time>
      </trkpt>
      <trkpt lat="49.86258" lon="2.39819">
        <ele>72</ele>
        <time>2022-05-28T13:08:58Z</time>
      </trkpt>
      <trkpt lat="49.86258" lon="2.39819">
        <ele>72</ele>
        <time>2022-05-28T13:08:59Z</time>
      </trkpt>
      <trkpt lat="49.86258" lon="2.39818">
        <ele>72</ele>
        <time>2022-05-28T13:09:00Z</time>
      </trkpt>
      <trkpt lat="49.86259" lon="2.39817">
        <ele>72</ele>
        <time>2022-05-28T13:09:01Z</time>
      </trkpt>
      <trkpt lat="49.86259" lon="2.39816">
        <ele>72</ele>
        <time>2022-05-28T13:09:02Z</time>
      </trkpt>
      <trkpt lat="49.86259" lon="2.39815">
        <ele>72</ele>
        <time>2022-05-28T13:09:03Z</time>
      </trkpt>
      <trkpt lat="49.86259" lon="2.39815">
        <ele>72</ele>
        <time>2022-05-28T13:09:04Z</time>
      </trkpt>
      <trkpt lat="49.86259" lon="2.39814">
        <ele>72</ele>
        <time>2022-05-28T13:09:05Z</time>
      </trkpt>
      <trkpt lat="49.86259" lon="2.39813">
        <ele>72</ele>
        <time>2022-05-28T13:09:06Z</time>
      </trkpt>
      <trkpt lat="49.86259" lon="2.39813">
        <ele>72</ele>
        <time>2022-05-28T13:09:07Z</time>
      </trkpt>
      <trkpt lat="49.86259" lon="2.39813">
        <ele>72</ele>
        <time>2022-05-28T13:09:08Z</time>
      </trkpt>
      <trkpt lat="49.86259" lon="2.39813">
        <ele>72</ele>
        <time>2022-05-28T13:09:09Z</time>
      </trkpt>
      <trkpt lat="49.86259" lon="2.39812">
        <ele>72</ele>
        <time>2022-05-28T13:09:10Z</time>
      </trkpt>
      <trkpt lat="49.86259" lon="2.39811">
        <ele>72</ele>
        <time>2022-05-28T13:09:11Z</time>
      </trkpt>
      <trkpt lat="49.86259" lon="2.39811">
        <ele>71.9</ele>
        <time>2022-05-28T13:09:12Z</time>
      </trkpt>
      <trkpt lat="49.86259" lon="2.3981">
        <ele>71.9</ele>
        <time>2022-05-28T13:09:13Z</time>
      </trkpt>
      <trkpt lat="49.86259" lon="2.39809">
        <ele>71.9</ele>
        <time>2022-05-28T13:09:14Z</time>
      </trkpt>
      <trkpt lat="49.86259" lon="2.39808">
        <ele>71.9</ele>
        <time>2022-05-28T13:09:15Z</time>
      </trkpt>
      <trkpt lat="49.86259" lon="2.39806">
        <ele>71.9</ele>
        <time>2022-05-28T13:09:16Z</time>
      </trkpt>
      <trkpt lat="49.86259" lon="2.39803">
        <ele>71.9</ele>
        <time>2022-05-28T13:09:17Z</time>
      </trkpt>
      <trkpt lat="49.86259" lon="2.39801">
        <ele>71.8</ele>
        <time>2022-05-28T13:09:18Z</time>
      </trkpt>
      <trkpt lat="49.86259" lon="2.39799">
        <ele>71.8</ele>
        <time>2022-05-28T13:09:19Z</time>
      </trkpt>
      <trkpt lat="49.8626" lon="2.39794">
        <ele>71.8</ele>
        <time>2022-05-28T13:09:20Z</time>
      </trkpt>
      <trkpt lat="49.8626" lon="2.39792">
        <ele>71.8</ele>
        <time>2022-05-28T13:09:21Z</time>
      </trkpt>
      <trkpt lat="49.8626" lon="2.3979">
        <ele>71.8</ele>
        <time>2022-05-28T13:09:22Z</time>
      </trkpt>
      <trkpt lat="49.86261" lon="2.39787">
        <ele>71.7</ele>
        <time>2022-05-28T13:09:23Z</time>
      </trkpt>
      <trkpt lat="49.86261" lon="2.39784">
        <ele>71.7</ele>
        <time>2022-05-28T13:09:24Z</time>
      </trkpt>
      <trkpt lat="49.86261" lon="2.39782">
        <ele>71.7</ele>
        <time>2022-05-28T13:09:25Z</time>
      </trkpt>
      <trkpt lat="49.86262" lon="2.3978">
        <ele>71.6</ele>
        <time>2022-05-28T13:09:26Z</time>
      </trkpt>
      <trkpt lat="49.86262" lon="2.39779">
        <ele>71.6</ele>
        <time>2022-05-28T13:09:27Z</time>
      </trkpt>
      <trkpt lat="49.86262" lon="2.39778">
        <ele>71.6</ele>
        <time>2022-05-28T13:09:28Z</time>
      </trkpt>
      <trkpt lat="49.86263" lon="2.39775">
        <ele>71.6</ele>
        <time>2022-05-28T13:09:29Z</time>
      </trkpt>
      <trkpt lat="49.86263" lon="2.39773">
        <ele>71.6</ele>
        <time>2022-05-28T13:09:30Z</time>
      </trkpt>
      <trkpt lat="49.86263" lon="2.39772">
        <ele>71.5</ele>
        <time>2022-05-28T13:09:31Z</time>
      </trkpt>
      <trkpt lat="49.86264" lon="2.3977">
        <ele>71.5</ele>
        <time>2022-05-28T13:09:32Z</time>
      </trkpt>
      <trkpt lat="49.86264" lon="2.39769">
        <ele>71.5</ele>
        <time>2022-05-28T13:09:33Z</time>
      </trkpt>
      <trkpt lat="49.86264" lon="2.39768">
        <ele>71.4</ele>
        <time>2022-05-28T13:09:34Z</time>
      </trkpt>
      <trkpt lat="49.86264" lon="2.39767">
        <ele>71.4</ele>
        <time>2022-05-28T13:09:35Z</time>
      </trkpt>
      <trkpt lat="49.86264" lon="2.39766">
        <ele>71.4</ele>
        <time>2022-05-28T13:09:36Z</time>
      </trkpt>
      <trkpt lat="49.86264" lon="2.39766">
        <ele>71.4</ele>
        <time>2022-05-28T13:09:37Z</time>
      </trkpt>
      <trkpt lat="49.86264" lon="2.39766">
        <ele>71.4</ele>
        <time>2022-05-28T13:09:38Z</time>
      </trkpt>
      <trkpt lat="49.86264" lon="2.39766">
        <ele>71.4</ele>
        <time>2022-05-28T13:09:39Z</time>
      </trkpt>
      <trkpt lat="49.86265" lon="2.39766">
        <ele>71.4</ele>
        <time>2022-05-28T13:09:40Z</time>
      </trkpt>
      <trkpt lat="49.86265" lon="2.39765">
        <ele>71.4</ele>
        <time>2022-05-28T13:09:41Z</time>
      </trkpt>
      <trkpt lat="49.86265" lon="2.39765">
        <ele>71.4</ele>
        <time>2022-05-28T13:09:42Z</time>
      </trkpt>
      <trkpt lat="49.86265" lon="2.39764">
        <ele>71.4</ele>
        <time>2022-05-28T13:09:43Z</time>
      </trkpt>
      <trkpt lat="49.86265" lon="2.39764">
        <ele>71.4</ele>
        <time>2022-05-28T13:09:44Z</time>
      </trkpt>
      <trkpt lat="49.86265" lon="2.39762">
        <ele>71.4</ele>
        <time>2022-05-28T13:09:45Z</time>
      </trkpt>
      <trkpt lat="49.86265" lon="2.39759">
        <ele>71.3</ele>
        <time>2022-05-28T13:09:46Z</time>
      </trkpt>
      <trkpt lat="49.86265" lon="2.39757">
        <ele>71.3</ele>
        <time>2022-05-28T13:09:47Z</time>
      </trkpt>
      <trkpt lat="49.86265" lon="2.39753">
        <ele>71.2</ele>
        <time>2022-05-28T13:09:48Z</time>
      </trkpt>
      <trkpt lat="49.86266" lon="2.39752">
        <ele>71.2</ele>
        <time>2022-05-28T13:09:49Z</time>
      </trkpt>
      <trkpt lat="49.86266" lon="2.3975">
        <ele>71.2</ele>
        <time>2022-05-28T13:09:50Z</time>
      </trkpt>
      <trkpt lat="49.86266" lon="2.39747">
        <ele>71.2</ele>
        <time>2022-05-28T13:09:51Z</time>
      </trkpt>
      <trkpt lat="49.86266" lon="2.39745">
        <ele>71.1</ele>
        <time>2022-05-28T13:09:52Z</time>
      </trkpt>
      <trkpt lat="49.86266" lon="2.39744">
        <ele>71.1</ele>
        <time>2022-05-28T13:09:53Z</time>
      </trkpt>
      <trkpt lat="49.86266" lon="2.39742">
        <ele>71</ele>
        <time>2022-05-28T13:09:54Z</time>
      </trkpt>
      <trkpt lat="49.86266" lon="2.39741">
        <ele>71</ele>
        <time>2022-05-28T13:09:55Z</time>
      </trkpt>
      <trkpt lat="49.86267" lon="2.39737">
        <ele>70.9</ele>
        <time>2022-05-28T13:09:56Z</time>
      </trkpt>
      <trkpt lat="49.86267" lon="2.39736">
        <ele>70.9</ele>
        <time>2022-05-28T13:09:57Z</time>
      </trkpt>
      <trkpt lat="49.86267" lon="2.39735">
        <ele>70.9</ele>
        <time>2022-05-28T13:09:58Z</time>
      </trkpt>
      <trkpt lat="49.86268" lon="2.39731">
        <ele>70.8</ele>
        <time>2022-05-28T13:09:59Z</time>
      </trkpt>
      <trkpt lat="49.86268" lon="2.39729">
        <ele>70.7</ele>
        <time>2022-05-28T13:10:00Z</time>
      </trkpt>
      <trkpt lat="49.86268" lon="2.39725">
        <ele>70.6</ele>
        <time>2022-05-28T13:10:01Z</time>
      </trkpt>
      <trkpt lat="49.86268" lon="2.39724">
        <ele>70.6</ele>
        <time>2022-05-28T13:10:02Z</time>
      </trkpt>
      <trkpt lat="49.86269" lon="2.39722">
        <ele>70.6</ele>
        <time>2022-05-28T13:10:03Z</time>
      </trkpt>
      <trkpt lat="49.86269" lon="2.39721">
        <ele>70.5</ele>
        <time>2022-05-28T13:10:04Z</time>
      </trkpt>
      <trkpt lat="49.86269" lon="2.39719">
        <ele>70.5</ele>
        <time>2022-05-28T13:10:05Z</time>
      </trkpt>
      <trkpt lat="49.86269" lon="2.39718">
        <ele>70.5</ele>
        <time>2022-05-28T13:10:06Z</time>
      </trkpt>
      <trkpt lat="49.86269" lon="2.39718">
        <ele>70.5</ele>
        <time>2022-05-28T13:10:07Z</time>
      </trkpt>
      <trkpt lat="49.86269" lon="2.39718">
        <ele>70.5</ele>
        <time>2022-05-28T13:10:08Z</time>
      </trkpt>
      <trkpt lat="49.86269" lon="2.39717">
        <ele>70.5</ele>
        <time>2022-05-28T13:10:09Z</time>
      </trkpt>
      <trkpt lat="49.86269" lon="2.39717">
        <ele>70.5</ele>
        <time>2022-05-28T13:10:10Z</time>
      </trkpt>
      <trkpt lat="49.86269" lon="2.39715">
        <ele>70.4</ele>
        <time>2022-05-28T13:10:11Z</time>
      </trkpt>
      <trkpt lat="49.86269" lon="2.39714">
        <ele>70.4</ele>
        <time>2022-05-28T13:10:12Z</time>
      </trkpt>
      <trkpt lat="49.8627" lon="2.39713">
        <ele>70.4</ele>
        <time>2022-05-28T13:10:13Z</time>
      </trkpt>
      <trkpt lat="49.86271" lon="2.39711">
        <ele>70.3</ele>
        <time>2022-05-28T13:10:14Z</time>
      </trkpt>
      <trkpt lat="49.86272" lon="2.39707">
        <ele>70.1</ele>
        <time>2022-05-28T13:10:15Z</time>
      </trkpt>
      <trkpt lat="49.86273" lon="2.39705">
        <ele>70.1</ele>
        <time>2022-05-28T13:10:16Z</time>
      </trkpt>
      <trkpt lat="49.86274" lon="2.39703">
        <ele>70</ele>
        <time>2022-05-28T13:10:17Z</time>
      </trkpt>
      <trkpt lat="49.86274" lon="2.39701">
        <ele>70</ele>
        <time>2022-05-28T13:10:18Z</time>
      </trkpt>
      <trkpt lat="49.86275" lon="2.39699">
        <ele>70</ele>
        <time>2022-05-28T13:10:19Z</time>
      </trkpt>
      <trkpt lat="49.86275" lon="2.39698">
        <ele>69.8</ele>
        <time>2022-05-28T13:10:20Z</time>
      </trkpt>
      <trkpt lat="49.86275" lon="2.39696">
        <ele>69.8</ele>
        <time>2022-05-28T13:10:21Z</time>
      </trkpt>
      <trkpt lat="49.86275" lon="2.39694">
        <ele>69.7</ele>
        <time>2022-05-28T13:10:22Z</time>
      </trkpt>
      <trkpt lat="49.86276" lon="2.39691">
        <ele>69.5</ele>
        <time>2022-05-28T13:10:23Z</time>
      </trkpt>
      <trkpt lat="49.86276" lon="2.39688">
        <ele>69.5</ele>
        <time>2022-05-28T13:10:24Z</time>
      </trkpt>
      <trkpt lat="49.86276" lon="2.39686">
        <ele>69.4</ele>
        <time>2022-05-28T13:10:25Z</time>
      </trkpt>
      <trkpt lat="49.86276" lon="2.39684">
        <ele>69.4</ele>
        <time>2022-05-28T13:10:26Z</time>
      </trkpt>
      <trkpt lat="49.86276" lon="2.39684">
        <ele>69.4</ele>
        <time>2022-05-28T13:10:27Z</time>
      </trkpt>
      <trkpt lat="49.86276" lon="2.39683">
        <ele>69.4</ele>
        <time>2022-05-28T13:10:28Z</time>
      </trkpt>
      <trkpt lat="49.86276" lon="2.39683">
        <ele>69.4</ele>
        <time>2022-05-28T13:10:29Z</time>
      </trkpt>
      <trkpt lat="49.86276" lon="2.39682">
        <ele>69.2</ele>
        <time>2022-05-28T13:10:30Z</time>
      </trkpt>
      <trkpt lat="49.86276" lon="2.39681">
        <ele>69.2</ele>
        <time>2022-05-28T13:10:31Z</time>
      </trkpt>
      <trkpt lat="49.86276" lon="2.39681">
        <ele>69.2</ele>
        <time>2022-05-28T13:10:32Z</time>
      </trkpt>
      <trkpt lat="49.86276" lon="2.3968">
        <ele>69.2</ele>
        <time>2022-05-28T13:10:33Z</time>
      </trkpt>
      <trkpt lat="49.86276" lon="2.3968">
        <ele>69.2</ele>
        <time>2022-05-28T13:10:34Z</time>
      </trkpt>
      <trkpt lat="49.86276" lon="2.3968">
        <ele>69.2</ele>
        <time>2022-05-28T13:10:35Z</time>
      </trkpt>
      <trkpt lat="49.86276" lon="2.39679">
        <ele>69.2</ele>
        <time>2022-05-28T13:10:36Z</time>
      </trkpt>
      <trkpt lat="49.86276" lon="2.39679">
        <ele>69.2</ele>
        <time>2022-05-28T13:10:37Z</time>
      </trkpt>
      <trkpt lat="49.86276" lon="2.39679">
        <ele>69.2</ele>
        <time>2022-05-28T13:10:38Z</time>
      </trkpt>
      <trkpt lat="49.86276" lon="2.39678">
        <ele>69</ele>
        <time>2022-05-28T13:10:39Z</time>
      </trkpt>
      <trkpt lat="49.86276" lon="2.39676">
        <ele>69</ele>
        <time>2022-05-28T13:10:40Z</time>
      </trkpt>
      <trkpt lat="49.86276" lon="2.39674">
        <ele>69</ele>
        <time>2022-05-28T13:10:41Z</time>
      </trkpt>
      <trkpt lat="49.86276" lon="2.39673">
        <ele>68.8</ele>
        <time>2022-05-28T13:10:42Z</time>
      </trkpt>
      <trkpt lat="49.86276" lon="2.39673">
        <ele>68.8</ele>
        <time>2022-05-28T13:10:43Z</time>
      </trkpt>
      <trkpt lat="49.86276" lon="2.39672">
        <ele>68.8</ele>
        <time>2022-05-28T13:10:44Z</time>
      </trkpt>
      <trkpt lat="49.86276" lon="2.39671">
        <ele>68.8</ele>
        <time>2022-05-28T13:10:45Z</time>
      </trkpt>
      <trkpt lat="49.86276" lon="2.3967">
        <ele>68.8</ele>
        <time>2022-05-28T13:10:46Z</time>
      </trkpt>
      <trkpt lat="49.86276" lon="2.39669">
        <ele>68.6</ele>
        <time>2022-05-28T13:10:47Z</time>
      </trkpt>
      <trkpt lat="49.86276" lon="2.39668">
        <ele>68.6</ele>
        <time>2022-05-28T13:10:48Z</time>
      </trkpt>
      <trkpt lat="49.86276" lon="2.39667">
        <ele>68.6</ele>
        <time>2022-05-28T13:10:49Z</time>
      </trkpt>
      <trkpt lat="49.86276" lon="2.39664">
        <ele>68.4</ele>
        <time>2022-05-28T13:10:50Z</time>
      </trkpt>
      <trkpt lat="49.86276" lon="2.39662">
        <ele>68.4</ele>
        <time>2022-05-28T13:10:51Z</time>
      </trkpt>
      <trkpt lat="49.86276" lon="2.39661">
        <ele>68.4</ele>
        <time>2022-05-28T13:10:52Z</time>
      </trkpt>
      <trkpt lat="49.86276" lon="2.3966">
        <ele>68.2</ele>
        <time>2022-05-28T13:10:53Z</time>
      </trkpt>
      <trkpt lat="49.86276" lon="2.39658">
        <ele>68.2</ele>
        <time>2022-05-28T13:10:54Z</time>
      </trkpt>
      <trkpt lat="49.86276" lon="2.39658">
        <ele>68.2</ele>
        <time>2022-05-28T13:10:55Z</time>
      </trkpt>
      <trkpt lat="49.86276" lon="2.39657">
        <ele>68.2</ele>
        <time>2022-05-28T13:10:56Z</time>
      </trkpt>
      <trkpt lat="49.86276" lon="2.39657">
        <ele>68.2</ele>
        <time>2022-05-28T13:10:57Z</time>
      </trkpt>
      <trkpt lat="49.86276" lon="2.39657">
        <ele>68.2</ele>
        <time>2022-05-28T13:10:58Z</time>
      </trkpt>
      <trkpt lat="49.86276" lon="2.39657">
        <ele>68.2</ele>
        <time>2022-05-28T13:10:59Z</time>
      </trkpt>
      <trkpt lat="49.86276" lon="2.39656">
        <ele>68</ele>
        <time>2022-05-28T13:11:00Z</time>
      </trkpt>
      <trkpt lat="49.86276" lon="2.39654">
        <ele>68</ele>
        <time>2022-05-28T13:11:01Z</time>
      </trkpt>
      <trkpt lat="49.86276" lon="2.39654">
        <ele>68</ele>
        <time>2022-05-28T13:11:02Z</time>
      </trkpt>
      <trkpt lat="49.86276" lon="2.39652">
        <ele>68</ele>
        <time>2022-05-28T13:11:03Z</time>
      </trkpt>
      <trkpt lat="49.86276" lon="2.39649">
        <ele>67.8</ele>
        <time>2022-05-28T13:11:04Z</time>
      </trkpt>
      <trkpt lat="49.86277" lon="2.39647">
        <ele>67.6</ele>
        <time>2022-05-28T13:11:05Z</time>
      </trkpt>
      <trkpt lat="49.86277" lon="2.39645">
        <ele>67.6</ele>
        <time>2022-05-28T13:11:06Z</time>
      </trkpt>
      <trkpt lat="49.86277" lon="2.39644">
        <ele>67.6</ele>
        <time>2022-05-28T13:11:07Z</time>
      </trkpt>
      <trkpt lat="49.86277" lon="2.39643">
        <ele>67.4</ele>
        <time>2022-05-28T13:11:08Z</time>
      </trkpt>
      <trkpt lat="49.86277" lon="2.39642">
        <ele>67.4</ele>
        <time>2022-05-28T13:11:09Z</time>
      </trkpt>
      <trkpt lat="49.86277" lon="2.39641">
        <ele>67.4</ele>
        <time>2022-05-28T13:11:10Z</time>
      </trkpt>
      <trkpt lat="49.86277" lon="2.39639">
        <ele>67.4</ele>
        <time>2022-05-28T13:11:11Z</time>
      </trkpt>
      <trkpt lat="49.86277" lon="2.39638">
        <ele>67.2</ele>
        <time>2022-05-28T13:11:12Z</time>
      </trkpt>
      <trkpt lat="49.86277" lon="2.39638">
        <ele>67.2</ele>
        <time>2022-05-28T13:11:13Z</time>
      </trkpt>
      <trkpt lat="49.86277" lon="2.39638">
        <ele>67.2</ele>
        <time>2022-05-28T13:11:14Z</time>
      </trkpt>
      <trkpt lat="49.86277" lon="2.39637">
        <ele>67.2</ele>
        <time>2022-05-28T13:11:15Z</time>
      </trkpt>
      <trkpt lat="49.86277" lon="2.39637">
        <ele>67.2</ele>
        <time>2022-05-28T13:11:16Z</time>
      </trkpt>
      <trkpt lat="49.86276" lon="2.39635">
        <ele>67.2</ele>
        <time>2022-05-28T13:11:17Z</time>
      </trkpt>
      <trkpt lat="49.86277" lon="2.39633">
        <ele>67</ele>
        <time>2022-05-28T13:11:18Z</time>
      </trkpt>
      <trkpt lat="49.86276" lon="2.39631">
        <ele>67</ele>
        <time>2022-05-28T13:11:19Z</time>
      </trkpt>
      <trkpt lat="49.86276" lon="2.39629">
        <ele>66.8</ele>
        <time>2022-05-28T13:11:20Z</time>
      </trkpt>
      <trkpt lat="49.86276" lon="2.39627">
        <ele>66.8</ele>
        <time>2022-05-28T13:11:21Z</time>
      </trkpt>
      <trkpt lat="49.86276" lon="2.39626">
        <ele>66.6</ele>
        <time>2022-05-28T13:11:22Z</time>
      </trkpt>
      <trkpt lat="49.86277" lon="2.39626">
        <ele>66.6</ele>
        <time>2022-05-28T13:11:23Z</time>
      </trkpt>
      <trkpt lat="49.86277" lon="2.39625">
        <ele>66.6</ele>
        <time>2022-05-28T13:11:24Z</time>
      </trkpt>
      <trkpt lat="49.86277" lon="2.39625">
        <ele>66.6</ele>
        <time>2022-05-28T13:11:25Z</time>
      </trkpt>
      <trkpt lat="49.86277" lon="2.39624">
        <ele>66.6</ele>
        <time>2022-05-28T13:11:26Z</time>
      </trkpt>
      <trkpt lat="49.86277" lon="2.39624">
        <ele>66.6</ele>
        <time>2022-05-28T13:11:27Z</time>
      </trkpt>
      <trkpt lat="49.86277" lon="2.39623">
        <ele>66.6</ele>
        <time>2022-05-28T13:11:28Z</time>
      </trkpt>
      <trkpt lat="49.86277" lon="2.39623">
        <ele>66.6</ele>
        <time>2022-05-28T13:11:29Z</time>
      </trkpt>
      <trkpt lat="49.86277" lon="2.39623">
        <ele>66.6</ele>
        <time>2022-05-28T13:11:30Z</time>
      </trkpt>
      <trkpt lat="49.86277" lon="2.39622">
        <ele>66.6</ele>
        <time>2022-05-28T13:11:31Z</time>
      </trkpt>
      <trkpt lat="49.86277" lon="2.39622">
        <ele>66.5</ele>
        <time>2022-05-28T13:11:32Z</time>
      </trkpt>
      <trkpt lat="49.86277" lon="2.39622">
        <ele>66.6</ele>
        <time>2022-05-28T13:11:33Z</time>
      </trkpt>
      <trkpt lat="49.86277" lon="2.39622">
        <ele>66.6</ele>
        <time>2022-05-28T13:11:34Z</time>
      </trkpt>
      <trkpt lat="49.86277" lon="2.39622">
        <ele>66.6</ele>
        <time>2022-05-28T13:11:35Z</time>
      </trkpt>
      <trkpt lat="49.86277" lon="2.39623">
        <ele>66.6</ele>
        <time>2022-05-28T13:11:36Z</time>
      </trkpt>
      <trkpt lat="49.86277" lon="2.39623">
        <ele>66.6</ele>
        <time>2022-05-28T13:11:37Z</time>
      </trkpt>
      <trkpt lat="49.86277" lon="2.39623">
        <ele>66.6</ele>
        <time>2022-05-28T13:11:38Z</time>
      </trkpt>
      <trkpt lat="49.86277" lon="2.39623">
        <ele>66.6</ele>
        <time>2022-05-28T13:11:39Z</time>
      </trkpt>
      <trkpt lat="49.86277" lon="2.39623">
        <ele>66.6</ele>
        <time>2022-05-28T13:11:40Z</time>
      </trkpt>
      <trkpt lat="49.86277" lon="2.39623">
        <ele>66.6</ele>
        <time>2022-05-28T13:11:41Z</time>
      </trkpt>
      <trkpt lat="49.86277" lon="2.39623">
        <ele>66.6</ele>
        <time>2022-05-28T13:11:42Z</time>
      </trkpt>
      <trkpt lat="49.86277" lon="2.39623">
        <ele>66.6</ele>
        <time>2022-05-28T13:11:43Z</time>
      </trkpt>
      <trkpt lat="49.86277" lon="2.39623">
        <ele>66.6</ele>
        <time>2022-05-28T13:11:44Z</time>
      </trkpt>
      <trkpt lat="49.86277" lon="2.39623">
        <ele>66.6</ele>
        <time>2022-05-28T13:11:45Z</time>
      </trkpt>
      <trkpt lat="49.86277" lon="2.39623">
        <ele>66.6</ele>
        <time>2022-05-28T13:11:46Z</time>
      </trkpt>
      <trkpt lat="49.86277" lon="2.39623">
        <ele>66.6</ele>
        <time>2022-05-28T13:11:47Z</time>
      </trkpt>
      <trkpt lat="49.86277" lon="2.39623">
        <ele>66.6</ele>
        <time>2022-05-28T13:11:48Z</time>
      </trkpt>
      <trkpt lat="49.86277" lon="2.39623">
        <ele>66.6</ele>
        <time>2022-05-28T13:11:49Z</time>
      </trkpt>
      <trkpt lat="49.86277" lon="2.39623">
        <ele>66.6</ele>
        <time>2022-05-28T13:11:50Z</time>
      </trkpt>
      <trkpt lat="49.86277" lon="2.39623">
        <ele>66.6</ele>
        <time>2022-05-28T13:11:51Z</time>
      </trkpt>
      <trkpt lat="49.86277" lon="2.39623">
        <ele>66.6</ele>
        <time>2022-05-28T13:11:52Z</time>
      </trkpt>
      <trkpt lat="49.86277" lon="2.39623">
        <ele>66.6</ele>
        <time>2022-05-28T13:11:53Z</time>
      </trkpt>
      <trkpt lat="49.86277" lon="2.39623">
        <ele>66.6</ele>
        <time>2022-05-28T13:11:54Z</time>
      </trkpt>
      <trkpt lat="49.86277" lon="2.39623">
        <ele>66.6</ele>
        <time>2022-05-28T13:11:55Z</time>
      </trkpt>
      <trkpt lat="49.86277" lon="2.39623">
        <ele>66.6</ele>
        <time>2022-05-28T13:11:56Z</time>
      </trkpt>
      <trkpt lat="49.86277" lon="2.39623">
        <ele>66.6</ele>
        <time>2022-05-28T13:11:57Z</time>
      </trkpt>
      <trkpt lat="49.86277" lon="2.39623">
        <ele>66.6</ele>
        <time>2022-05-28T13:11:58Z</time>
      </trkpt>
      <trkpt lat="49.86277" lon="2.39623">
        <ele>66.6</ele>
        <time>2022-05-28T13:11:59Z</time>
      </trkpt>
      <trkpt lat="49.86277" lon="2.39623">
        <ele>66.6</ele>
        <time>2022-05-28T13:12:00Z</time>
      </trkpt>
      <trkpt lat="49.86277" lon="2.39623">
        <ele>66.6</ele>
        <time>2022-05-28T13:12:01Z</time>
      </trkpt>
      <trkpt lat="49.86277" lon="2.39624">
        <ele>66.6</ele>
        <time>2022-05-28T13:12:02Z</time>
      </trkpt>
      <trkpt lat="49.86277" lon="2.39624">
        <ele>66.6</ele>
        <time>2022-05-28T13:12:03Z</time>
      </trkpt>
      <trkpt lat="49.86277" lon="2.39624">
        <ele>66.6</ele>
        <time>2022-05-28T13:12:04Z</time>
      </trkpt>
      <trkpt lat="49.86277" lon="2.39624">
        <ele>66.6</ele>
        <time>2022-05-28T13:12:05Z</time>
      </trkpt>
      <trkpt lat="49.86277" lon="2.39624">
        <ele>66.6</ele>
        <time>2022-05-28T13:12:06Z</time>
      </trkpt>
      <trkpt lat="49.86277" lon="2.39624">
        <ele>66.6</ele>
        <time>2022-05-28T13:12:07Z</time>
      </trkpt>
      <trkpt lat="49.86277" lon="2.39624">
        <ele>66.6</ele>
        <time>2022-05-28T13:12:08Z</time>
      </trkpt>
      <trkpt lat="49.86277" lon="2.39624">
        <ele>66.6</ele>
        <time>2022-05-28T13:12:09Z</time>
      </trkpt>
      <trkpt lat="49.86277" lon="2.39624">
        <ele>66.6</ele>
        <time>2022-05-28T13:12:10Z</time>
      </trkpt>
      <trkpt lat="49.86277" lon="2.39624">
        <ele>66.6</ele>
        <time>2022-05-28T13:12:11Z</time>
      </trkpt>
      <trkpt lat="49.86277" lon="2.39624">
        <ele>66.6</ele>
        <time>2022-05-28T13:12:12Z</time>
      </trkpt>
      <trkpt lat="49.86277" lon="2.39624">
        <ele>66.6</ele>
        <time>2022-05-28T13:12:13Z</time>
      </trkpt>
      <trkpt lat="49.86277" lon="2.39624">
        <ele>66.6</ele>
        <time>2022-05-28T13:12:14Z</time>
      </trkpt>
      <trkpt lat="49.86277" lon="2.39624">
        <ele>66.6</ele>
        <time>2022-05-28T13:12:15Z</time>
      </trkpt>
      <trkpt lat="49.86277" lon="2.39624">
        <ele>66.6</ele>
        <time>2022-05-28T13:12:16Z</time>
      </trkpt>
      <trkpt lat="49.86277" lon="2.39622">
        <ele>66.5</ele>
        <time>2022-05-28T13:12:17Z</time>
      </trkpt>
      <trkpt lat="49.86276" lon="2.39621">
        <ele>66.5</ele>
        <time>2022-05-28T13:12:18Z</time>
      </trkpt>
      <trkpt lat="49.86276" lon="2.39621">
        <ele>66.5</ele>
        <time>2022-05-28T13:12:19Z</time>
      </trkpt>
      <trkpt lat="49.86276" lon="2.39621">
        <ele>66.5</ele>
        <time>2022-05-28T13:12:20Z</time>
      </trkpt>
      <trkpt lat="49.86276" lon="2.39621">
        <ele>66.5</ele>
        <time>2022-05-28T13:12:21Z</time>
      </trkpt>
      <trkpt lat="49.86276" lon="2.39621">
        <ele>66.5</ele>
        <time>2022-05-28T13:12:22Z</time>
      </trkpt>
      <trkpt lat="49.86276" lon="2.39621">
        <ele>66.5</ele>
        <time>2022-05-28T13:12:23Z</time>
      </trkpt>
      <trkpt lat="49.86276" lon="2.39621">
        <ele>66.5</ele>
        <time>2022-05-28T13:12:24Z</time>
      </trkpt>
      <trkpt lat="49.86276" lon="2.39621">
        <ele>66.5</ele>
        <time>2022-05-28T13:12:25Z</time>
      </trkpt>
      <trkpt lat="49.86276" lon="2.39622">
        <ele>66.5</ele>
        <time>2022-05-28T13:12:26Z</time>
      </trkpt>
      <trkpt lat="49.86275" lon="2.39622">
        <ele>66.5</ele>
        <time>2022-05-28T13:12:27Z</time>
      </trkpt>
      <trkpt lat="49.86275" lon="2.39622">
        <ele>66.5</ele>
        <time>2022-05-28T13:12:28Z</time>
      </trkpt>
      <trkpt lat="49.86275" lon="2.39622">
        <ele>66.5</ele>
        <time>2022-05-28T13:12:29Z</time>
      </trkpt>
      <trkpt lat="49.86275" lon="2.39622">
        <ele>66.6</ele>
        <time>2022-05-28T13:12:30Z</time>
      </trkpt>
      <trkpt lat="49.86275" lon="2.39622">
        <ele>66.6</ele>
        <time>2022-05-28T13:12:31Z</time>
      </trkpt>
      <trkpt lat="49.86276" lon="2.39623">
        <ele>66.6</ele>
        <time>2022-05-28T13:12:32Z</time>
      </trkpt>
      <trkpt lat="49.86275" lon="2.39623">
        <ele>66.6</ele>
        <time>2022-05-28T13:12:33Z</time>
      </trkpt>
      <trkpt lat="49.86275" lon="2.39623">
        <ele>66.6</ele>
        <time>2022-05-28T13:12:34Z</time>
      </trkpt>
      <trkpt lat="49.86275" lon="2.39623">
        <ele>66.6</ele>
        <time>2022-05-28T13:12:35Z</time>
      </trkpt>
      <trkpt lat="49.86275" lon="2.39623">
        <ele>66.6</ele>
        <time>2022-05-28T13:12:36Z</time>
      </trkpt>
      <trkpt lat="49.86275" lon="2.39623">
        <ele>66.6</ele>
        <time>2022-05-28T13:12:37Z</time>
      </trkpt>
      <trkpt lat="49.86275" lon="2.39623">
        <ele>66.6</ele>
        <time>2022-05-28T13:12:38Z</time>
      </trkpt>
      <trkpt lat="49.86275" lon="2.39623">
        <ele>66.6</ele>
        <time>2022-05-28T13:12:39Z</time>
      </trkpt>
      <trkpt lat="49.86275" lon="2.39623">
        <ele>66.6</ele>
        <time>2022-05-28T13:12:40Z</time>
      </trkpt>
      <trkpt lat="49.86275" lon="2.39623">
        <ele>66.6</ele>
        <time>2022-05-28T13:12:41Z</time>
      </trkpt>
      <trkpt lat="49.86274" lon="2.39624">
        <ele>66.7</ele>
        <time>2022-05-28T13:12:42Z</time>
      </trkpt>
      <trkpt lat="49.86274" lon="2.39626">
        <ele>66.7</ele>
        <time>2022-05-28T13:12:43Z</time>
      </trkpt>
      <trkpt lat="49.86274" lon="2.39627">
        <ele>66.9</ele>
        <time>2022-05-28T13:12:44Z</time>
      </trkpt>
      <trkpt lat="49.86273" lon="2.39628">
        <ele>66.9</ele>
        <time>2022-05-28T13:12:45Z</time>
      </trkpt>
      <trkpt lat="49.86273" lon="2.39629">
        <ele>66.9</ele>
        <time>2022-05-28T13:12:46Z</time>
      </trkpt>
      <trkpt lat="49.86273" lon="2.3963">
        <ele>66.9</ele>
        <time>2022-05-28T13:12:47Z</time>
      </trkpt>
      <trkpt lat="49.86273" lon="2.39632">
        <ele>67</ele>
        <time>2022-05-28T13:12:48Z</time>
      </trkpt>
      <trkpt lat="49.86273" lon="2.39634">
        <ele>67</ele>
        <time>2022-05-28T13:12:49Z</time>
      </trkpt>
      <trkpt lat="49.86273" lon="2.39636">
        <ele>67.2</ele>
        <time>2022-05-28T13:12:50Z</time>
      </trkpt>
      <trkpt lat="49.86273" lon="2.39637">
        <ele>67.2</ele>
        <time>2022-05-28T13:12:51Z</time>
      </trkpt>
      <trkpt lat="49.86273" lon="2.3964">
        <ele>67.4</ele>
        <time>2022-05-28T13:12:52Z</time>
      </trkpt>
      <trkpt lat="49.86273" lon="2.39642">
        <ele>67.4</ele>
        <time>2022-05-28T13:12:53Z</time>
      </trkpt>
      <trkpt lat="49.86272" lon="2.39643">
        <ele>67.4</ele>
        <time>2022-05-28T13:12:54Z</time>
      </trkpt>
      <trkpt lat="49.86272" lon="2.39645">
        <ele>67.6</ele>
        <time>2022-05-28T13:12:55Z</time>
      </trkpt>
      <trkpt lat="49.86272" lon="2.39646">
        <ele>67.6</ele>
        <time>2022-05-28T13:12:56Z</time>
      </trkpt>
      <trkpt lat="49.86272" lon="2.39647">
        <ele>67.6</ele>
        <time>2022-05-28T13:12:57Z</time>
      </trkpt>
      <trkpt lat="49.86272" lon="2.39647">
        <ele>67.6</ele>
        <time>2022-05-28T13:12:58Z</time>
      </trkpt>
      <trkpt lat="49.86272" lon="2.39648">
        <ele>67.9</ele>
        <time>2022-05-28T13:12:59Z</time>
      </trkpt>
      <trkpt lat="49.86271" lon="2.39649">
        <ele>67.9</ele>
        <time>2022-05-28T13:13:00Z</time>
      </trkpt>
      <trkpt lat="49.86271" lon="2.39649">
        <ele>67.9</ele>
        <time>2022-05-28T13:13:01Z</time>
      </trkpt>
      <trkpt lat="49.86271" lon="2.3965">
        <ele>67.9</ele>
        <time>2022-05-28T13:13:02Z</time>
      </trkpt>
      <trkpt lat="49.86271" lon="2.39651">
        <ele>67.9</ele>
        <time>2022-05-28T13:13:03Z</time>
      </trkpt>
      <trkpt lat="49.86271" lon="2.39652">
        <ele>67.9</ele>
        <time>2022-05-28T13:13:04Z</time>
      </trkpt>
      <trkpt lat="49.86271" lon="2.39653">
        <ele>68.1</ele>
        <time>2022-05-28T13:13:05Z</time>
      </trkpt>
      <trkpt lat="49.86271" lon="2.39654">
        <ele>68.1</ele>
        <time>2022-05-28T13:13:06Z</time>
      </trkpt>
      <trkpt lat="49.86271" lon="2.39656">
        <ele>68.1</ele>
        <time>2022-05-28T13:13:07Z</time>
      </trkpt>
      <trkpt lat="49.86271" lon="2.39657">
        <ele>68.3</ele>
        <time>2022-05-28T13:13:08Z</time>
      </trkpt>
      <trkpt lat="49.86271" lon="2.39657">
        <ele>68.3</ele>
        <time>2022-05-28T13:13:09Z</time>
      </trkpt>
      <trkpt lat="49.8627" lon="2.39659">
        <ele>68.3</ele>
        <time>2022-05-28T13:13:10Z</time>
      </trkpt>
      <trkpt lat="49.8627" lon="2.3966">
        <ele>68.3</ele>
        <time>2022-05-28T13:13:11Z</time>
      </trkpt>
      <trkpt lat="49.8627" lon="2.39662">
        <ele>68.5</ele>
        <time>2022-05-28T13:13:12Z</time>
      </trkpt>
      <trkpt lat="49.8627" lon="2.39662">
        <ele>68.5</ele>
        <time>2022-05-28T13:13:13Z</time>
      </trkpt>
      <trkpt lat="49.8627" lon="2.39664">
        <ele>68.5</ele>
        <time>2022-05-28T13:13:14Z</time>
      </trkpt>
      <trkpt lat="49.86269" lon="2.39664">
        <ele>68.5</ele>
        <time>2022-05-28T13:13:15Z</time>
      </trkpt>
      <trkpt lat="49.86269" lon="2.39666">
        <ele>68.7</ele>
        <time>2022-05-28T13:13:16Z</time>
      </trkpt>
      <trkpt lat="49.86269" lon="2.39668">
        <ele>68.7</ele>
        <time>2022-05-28T13:13:17Z</time>
      </trkpt>
      <trkpt lat="49.86269" lon="2.39668">
        <ele>68.7</ele>
        <time>2022-05-28T13:13:18Z</time>
      </trkpt>
      <trkpt lat="49.86268" lon="2.39669">
        <ele>68.7</ele>
        <time>2022-05-28T13:13:19Z</time>
      </trkpt>
      <trkpt lat="49.86268" lon="2.3967">
        <ele>68.9</ele>
        <time>2022-05-28T13:13:20Z</time>
      </trkpt>
      <trkpt lat="49.86268" lon="2.39671">
        <ele>68.9</ele>
        <time>2022-05-28T13:13:21Z</time>
      </trkpt>
      <trkpt lat="49.86267" lon="2.39672">
        <ele>68.9</ele>
        <time>2022-05-28T13:13:22Z</time>
      </trkpt>
      <trkpt lat="49.86267" lon="2.39674">
        <ele>69.1</ele>
        <time>2022-05-28T13:13:23Z</time>
      </trkpt>
      <trkpt lat="49.86267" lon="2.39675">
        <ele>69.1</ele>
        <time>2022-05-28T13:13:24Z</time>
      </trkpt>
      <trkpt lat="49.86266" lon="2.39676">
        <ele>69.1</ele>
        <time>2022-05-28T13:13:25Z</time>
      </trkpt>
      <trkpt lat="49.86266" lon="2.39677">
        <ele>69.1</ele>
        <time>2022-05-28T13:13:26Z</time>
      </trkpt>
      <trkpt lat="49.86266" lon="2.39678">
        <ele>69.3</ele>
        <time>2022-05-28T13:13:27Z</time>
      </trkpt>
      <trkpt lat="49.86265" lon="2.39681">
        <ele>69.3</ele>
        <time>2022-05-28T13:13:28Z</time>
      </trkpt>
      <trkpt lat="49.86265" lon="2.39682">
        <ele>69.5</ele>
        <time>2022-05-28T13:13:29Z</time>
      </trkpt>
      <trkpt lat="49.86265" lon="2.39686">
        <ele>69.5</ele>
        <time>2022-05-28T13:13:30Z</time>
      </trkpt>
      <trkpt lat="49.86264" lon="2.3969">
        <ele>69.7</ele>
        <time>2022-05-28T13:13:31Z</time>
      </trkpt>
      <trkpt lat="49.86264" lon="2.39692">
        <ele>69.8</ele>
        <time>2022-05-28T13:13:32Z</time>
      </trkpt>
      <trkpt lat="49.86264" lon="2.39694">
        <ele>69.8</ele>
        <time>2022-05-28T13:13:33Z</time>
      </trkpt>
      <trkpt lat="49.86264" lon="2.39696">
        <ele>70</ele>
        <time>2022-05-28T13:13:34Z</time>
      </trkpt>
      <trkpt lat="49.86264" lon="2.39696">
        <ele>70</ele>
        <time>2022-05-28T13:13:35Z</time>
      </trkpt>
      <trkpt lat="49.86263" lon="2.39697">
        <ele>70</ele>
        <time>2022-05-28T13:13:36Z</time>
      </trkpt>
      <trkpt lat="49.86263" lon="2.39698">
        <ele>70</ele>
        <time>2022-05-28T13:13:37Z</time>
      </trkpt>
      <trkpt lat="49.86263" lon="2.39698">
        <ele>70</ele>
        <time>2022-05-28T13:13:38Z</time>
      </trkpt>
      <trkpt lat="49.86263" lon="2.39699">
        <ele>70</ele>
        <time>2022-05-28T13:13:39Z</time>
      </trkpt>
      <trkpt lat="49.86263" lon="2.39699">
        <ele>70</ele>
        <time>2022-05-28T13:13:40Z</time>
      </trkpt>
      <trkpt lat="49.86263" lon="2.397">
        <ele>70.1</ele>
        <time>2022-05-28T13:13:41Z</time>
      </trkpt>
      <trkpt lat="49.86263" lon="2.397">
        <ele>70.1</ele>
        <time>2022-05-28T13:13:42Z</time>
      </trkpt>
      <trkpt lat="49.86263" lon="2.39701">
        <ele>70.1</ele>
        <time>2022-05-28T13:13:43Z</time>
      </trkpt>
      <trkpt lat="49.86263" lon="2.39702">
        <ele>70.1</ele>
        <time>2022-05-28T13:13:44Z</time>
      </trkpt>
      <trkpt lat="49.86263" lon="2.39703">
        <ele>70.1</ele>
        <time>2022-05-28T13:13:45Z</time>
      </trkpt>
      <trkpt lat="49.86263" lon="2.39704">
        <ele>70.3</ele>
        <time>2022-05-28T13:13:46Z</time>
      </trkpt>
      <trkpt lat="49.86263" lon="2.39705">
        <ele>70.3</ele>
        <time>2022-05-28T13:13:47Z</time>
      </trkpt>
      <trkpt lat="49.86262" lon="2.39707">
        <ele>70.3</ele>
        <time>2022-05-28T13:13:48Z</time>
      </trkpt>
      <trkpt lat="49.86262" lon="2.39708">
        <ele>70.4</ele>
        <time>2022-05-28T13:13:49Z</time>
      </trkpt>
      <trkpt lat="49.86262" lon="2.39709">
        <ele>70.4</ele>
        <time>2022-05-28T13:13:50Z</time>
      </trkpt>
      <trkpt lat="49.86262" lon="2.3971">
        <ele>70.4</ele>
        <time>2022-05-28T13:13:51Z</time>
      </trkpt>
      <trkpt lat="49.86262" lon="2.39711">
        <ele>70.4</ele>
        <time>2022-05-28T13:13:52Z</time>
      </trkpt>
      <trkpt lat="49.86262" lon="2.39712">
        <ele>70.4</ele>
        <time>2022-05-28T13:13:53Z</time>
      </trkpt>
      <trkpt lat="49.86261" lon="2.39713">
        <ele>70.5</ele>
        <time>2022-05-28T13:13:54Z</time>
      </trkpt>
      <trkpt lat="49.86261" lon="2.39714">
        <ele>70.5</ele>
        <time>2022-05-28T13:13:55Z</time>
      </trkpt>
      <trkpt lat="49.86261" lon="2.39718">
        <ele>70.6</ele>
        <time>2022-05-28T13:13:56Z</time>
      </trkpt>
      <trkpt lat="49.86261" lon="2.39719">
        <ele>70.6</ele>
        <time>2022-05-28T13:13:57Z</time>
      </trkpt>
      <trkpt lat="49.86261" lon="2.39721">
        <ele>70.6</ele>
        <time>2022-05-28T13:13:58Z</time>
      </trkpt>
      <trkpt lat="49.8626" lon="2.39726">
        <ele>70.8</ele>
        <time>2022-05-28T13:13:59Z</time>
      </trkpt>
      <trkpt lat="49.8626" lon="2.39727">
        <ele>70.8</ele>
        <time>2022-05-28T13:14:00Z</time>
      </trkpt>
      <trkpt lat="49.8626" lon="2.39729">
        <ele>70.8</ele>
        <time>2022-05-28T13:14:01Z</time>
      </trkpt>
      <trkpt lat="49.86259" lon="2.3973">
        <ele>70.9</ele>
        <time>2022-05-28T13:14:02Z</time>
      </trkpt>
      <trkpt lat="49.86259" lon="2.39731">
        <ele>70.9</ele>
        <time>2022-05-28T13:14:03Z</time>
      </trkpt>
      <trkpt lat="49.86259" lon="2.39732">
        <ele>70.9</ele>
        <time>2022-05-28T13:14:04Z</time>
      </trkpt>
      <trkpt lat="49.86259" lon="2.39732">
        <ele>70.9</ele>
        <time>2022-05-28T13:14:05Z</time>
      </trkpt>
      <trkpt lat="49.86259" lon="2.39733">
        <ele>70.9</ele>
        <time>2022-05-28T13:14:06Z</time>
      </trkpt>
      <trkpt lat="49.86259" lon="2.39733">
        <ele>70.9</ele>
        <time>2022-05-28T13:14:07Z</time>
      </trkpt>
      <trkpt lat="49.86259" lon="2.39734">
        <ele>70.9</ele>
        <time>2022-05-28T13:14:08Z</time>
      </trkpt>
      <trkpt lat="49.86259" lon="2.39734">
        <ele>71</ele>
        <time>2022-05-28T13:14:09Z</time>
      </trkpt>
      <trkpt lat="49.86259" lon="2.39735">
        <ele>71</ele>
        <time>2022-05-28T13:14:10Z</time>
      </trkpt>
      <trkpt lat="49.86259" lon="2.39735">
        <ele>71</ele>
        <time>2022-05-28T13:14:11Z</time>
      </trkpt>
      <trkpt lat="49.86259" lon="2.39735">
        <ele>71</ele>
        <time>2022-05-28T13:14:12Z</time>
      </trkpt>
      <trkpt lat="49.86259" lon="2.39735">
        <ele>71</ele>
        <time>2022-05-28T13:14:13Z</time>
      </trkpt>
      <trkpt lat="49.86259" lon="2.39736">
        <ele>71</ele>
        <time>2022-05-28T13:14:14Z</time>
      </trkpt>
      <trkpt lat="49.86259" lon="2.39737">
        <ele>71</ele>
        <time>2022-05-28T13:14:15Z</time>
      </trkpt>
      <trkpt lat="49.86259" lon="2.39738">
        <ele>71</ele>
        <time>2022-05-28T13:14:16Z</time>
      </trkpt>
      <trkpt lat="49.86259" lon="2.39739">
        <ele>71</ele>
        <time>2022-05-28T13:14:17Z</time>
      </trkpt>
      <trkpt lat="49.86259" lon="2.39741">
        <ele>71</ele>
        <time>2022-05-28T13:14:18Z</time>
      </trkpt>
      <trkpt lat="49.86259" lon="2.39744">
        <ele>71.1</ele>
        <time>2022-05-28T13:14:19Z</time>
      </trkpt>
      <trkpt lat="49.86259" lon="2.39745">
        <ele>71.1</ele>
        <time>2022-05-28T13:14:20Z</time>
      </trkpt>
      <trkpt lat="49.8626" lon="2.39746">
        <ele>71.1</ele>
        <time>2022-05-28T13:14:21Z</time>
      </trkpt>
      <trkpt lat="49.8626" lon="2.39747">
        <ele>71.2</ele>
        <time>2022-05-28T13:14:22Z</time>
      </trkpt>
      <trkpt lat="49.8626" lon="2.39748">
        <ele>71.2</ele>
        <time>2022-05-28T13:14:23Z</time>
      </trkpt>
      <trkpt lat="49.8626" lon="2.39749">
        <ele>71.2</ele>
        <time>2022-05-28T13:14:24Z</time>
      </trkpt>
      <trkpt lat="49.8626" lon="2.3975">
        <ele>71.2</ele>
        <time>2022-05-28T13:14:25Z</time>
      </trkpt>
      <trkpt lat="49.8626" lon="2.39751">
        <ele>71.2</ele>
        <time>2022-05-28T13:14:26Z</time>
      </trkpt>
      <trkpt lat="49.8626" lon="2.39752">
        <ele>71.3</ele>
        <time>2022-05-28T13:14:27Z</time>
      </trkpt>
      <trkpt lat="49.8626" lon="2.39752">
        <ele>71.3</ele>
        <time>2022-05-28T13:14:28Z</time>
      </trkpt>
      <trkpt lat="49.8626" lon="2.39754">
        <ele>71.3</ele>
        <time>2022-05-28T13:14:29Z</time>
      </trkpt>
      <trkpt lat="49.8626" lon="2.39755">
        <ele>71.3</ele>
        <time>2022-05-28T13:14:30Z</time>
      </trkpt>
      <trkpt lat="49.8626" lon="2.39756">
        <ele>71.3</ele>
        <time>2022-05-28T13:14:31Z</time>
      </trkpt>
      <trkpt lat="49.8626" lon="2.39757">
        <ele>71.3</ele>
        <time>2022-05-28T13:14:32Z</time>
      </trkpt>
      <trkpt lat="49.8626" lon="2.39758">
        <ele>71.3</ele>
        <time>2022-05-28T13:14:33Z</time>
      </trkpt>
      <trkpt lat="49.8626" lon="2.39759">
        <ele>71.3</ele>
        <time>2022-05-28T13:14:34Z</time>
      </trkpt>
      <trkpt lat="49.8626" lon="2.3976">
        <ele>71.4</ele>
        <time>2022-05-28T13:14:35Z</time>
      </trkpt>
      <trkpt lat="49.8626" lon="2.39761">
        <ele>71.4</ele>
        <time>2022-05-28T13:14:36Z</time>
      </trkpt>
      <trkpt lat="49.8626" lon="2.39762">
        <ele>71.4</ele>
        <time>2022-05-28T13:14:37Z</time>
      </trkpt>
      <trkpt lat="49.8626" lon="2.39763">
        <ele>71.4</ele>
        <time>2022-05-28T13:14:38Z</time>
      </trkpt>
      <trkpt lat="49.8626" lon="2.39764">
        <ele>71.5</ele>
        <time>2022-05-28T13:14:39Z</time>
      </trkpt>
      <trkpt lat="49.86259" lon="2.39766">
        <ele>71.5</ele>
        <time>2022-05-28T13:14:40Z</time>
      </trkpt>
      <trkpt lat="49.86259" lon="2.39767">
        <ele>71.5</ele>
        <time>2022-05-28T13:14:41Z</time>
      </trkpt>
      <trkpt lat="49.86259" lon="2.39768">
        <ele>71.5</ele>
        <time>2022-05-28T13:14:42Z</time>
      </trkpt>
      <trkpt lat="49.86259" lon="2.39769">
        <ele>71.5</ele>
        <time>2022-05-28T13:14:43Z</time>
      </trkpt>
      <trkpt lat="49.86259" lon="2.3977">
        <ele>71.5</ele>
        <time>2022-05-28T13:14:44Z</time>
      </trkpt>
      <trkpt lat="49.86259" lon="2.39772">
        <ele>71.5</ele>
        <time>2022-05-28T13:14:45Z</time>
      </trkpt>
      <trkpt lat="49.86259" lon="2.39773">
        <ele>71.6</ele>
        <time>2022-05-28T13:14:46Z</time>
      </trkpt>
      <trkpt lat="49.86259" lon="2.39774">
        <ele>71.6</ele>
        <time>2022-05-28T13:14:47Z</time>
      </trkpt>
      <trkpt lat="49.86258" lon="2.39776">
        <ele>71.6</ele>
        <time>2022-05-28T13:14:48Z</time>
      </trkpt>
      <trkpt lat="49.86258" lon="2.39778">
        <ele>71.6</ele>
        <time>2022-05-28T13:14:49Z</time>
      </trkpt>
      <trkpt lat="49.86258" lon="2.39779">
        <ele>71.6</ele>
        <time>2022-05-28T13:14:50Z</time>
      </trkpt>
      <trkpt lat="49.86258" lon="2.3978">
        <ele>71.6</ele>
        <time>2022-05-28T13:14:51Z</time>
      </trkpt>
      <trkpt lat="49.86257" lon="2.39782">
        <ele>71.7</ele>
        <time>2022-05-28T13:14:52Z</time>
      </trkpt>
      <trkpt lat="49.86257" lon="2.39783">
        <ele>71.7</ele>
        <time>2022-05-28T13:14:53Z</time>
      </trkpt>
      <trkpt lat="49.86257" lon="2.39785">
        <ele>71.7</ele>
        <time>2022-05-28T13:14:54Z</time>
      </trkpt>
      <trkpt lat="49.86257" lon="2.39787">
        <ele>71.7</ele>
        <time>2022-05-28T13:14:55Z</time>
      </trkpt>
      <trkpt lat="49.86257" lon="2.39788">
        <ele>71.7</ele>
        <time>2022-05-28T13:14:56Z</time>
      </trkpt>
      <trkpt lat="49.86256" lon="2.3979">
        <ele>71.8</ele>
        <time>2022-05-28T13:14:57Z</time>
      </trkpt>
      <trkpt lat="49.86256" lon="2.39792">
        <ele>71.8</ele>
        <time>2022-05-28T13:14:58Z</time>
      </trkpt>
      <trkpt lat="49.86256" lon="2.39795">
        <ele>71.8</ele>
        <time>2022-05-28T13:14:59Z</time>
      </trkpt>
      <trkpt lat="49.86255" lon="2.39797">
        <ele>71.8</ele>
        <time>2022-05-28T13:15:00Z</time>
      </trkpt>
      <trkpt lat="49.86255" lon="2.398">
        <ele>71.8</ele>
        <time>2022-05-28T13:15:01Z</time>
      </trkpt>
      <trkpt lat="49.86255" lon="2.39802">
        <ele>71.8</ele>
        <time>2022-05-28T13:15:02Z</time>
      </trkpt>
      <trkpt lat="49.86255" lon="2.39804">
        <ele>71.9</ele>
        <time>2022-05-28T13:15:03Z</time>
      </trkpt>
      <trkpt lat="49.86254" lon="2.39807">
        <ele>71.9</ele>
        <time>2022-05-28T13:15:04Z</time>
      </trkpt>
      <trkpt lat="49.86254" lon="2.39808">
        <ele>71.9</ele>
        <time>2022-05-28T13:15:05Z</time>
      </trkpt>
      <trkpt lat="49.86254" lon="2.39809">
        <ele>71.9</ele>
        <time>2022-05-28T13:15:06Z</time>
      </trkpt>
      <trkpt lat="49.86254" lon="2.39811">
        <ele>71.9</ele>
        <time>2022-05-28T13:15:07Z</time>
      </trkpt>
      <trkpt lat="49.86253" lon="2.39813">
        <ele>71.9</ele>
        <time>2022-05-28T13:15:08Z</time>
      </trkpt>
      <trkpt lat="49.86253" lon="2.39814">
        <ele>71.9</ele>
        <time>2022-05-28T13:15:09Z</time>
      </trkpt>
      <trkpt lat="49.86253" lon="2.39816">
        <ele>72</ele>
        <time>2022-05-28T13:15:10Z</time>
      </trkpt>
      <trkpt lat="49.86253" lon="2.39817">
        <ele>71.9</ele>
        <time>2022-05-28T13:15:11Z</time>
      </trkpt>
      <trkpt lat="49.86253" lon="2.39818">
        <ele>71.9</ele>
        <time>2022-05-28T13:15:12Z</time>
      </trkpt>
      <trkpt lat="49.86252" lon="2.39819">
        <ele>71.9</ele>
        <time>2022-05-28T13:15:13Z</time>
      </trkpt>
      <trkpt lat="49.86252" lon="2.3982">
        <ele>72</ele>
        <time>2022-05-28T13:15:14Z</time>
      </trkpt>
      <trkpt lat="49.86252" lon="2.39822">
        <ele>72</ele>
        <time>2022-05-28T13:15:15Z</time>
      </trkpt>
      <trkpt lat="49.86252" lon="2.39823">
        <ele>72</ele>
        <time>2022-05-28T13:15:16Z</time>
      </trkpt>
      <trkpt lat="49.86251" lon="2.39824">
        <ele>72</ele>
        <time>2022-05-28T13:15:17Z</time>
      </trkpt>
      <trkpt lat="49.86251" lon="2.39826">
        <ele>72</ele>
        <time>2022-05-28T13:15:18Z</time>
      </trkpt>
      <trkpt lat="49.86251" lon="2.39827">
        <ele>72</ele>
        <time>2022-05-28T13:15:19Z</time>
      </trkpt>
      <trkpt lat="49.86251" lon="2.39828">
        <ele>72</ele>
        <time>2022-05-28T13:15:20Z</time>
      </trkpt>
      <trkpt lat="49.8625" lon="2.3983">
        <ele>72.1</ele>
        <time>2022-05-28T13:15:21Z</time>
      </trkpt>
      <trkpt lat="49.8625" lon="2.39831">
        <ele>72.1</ele>
        <time>2022-05-28T13:15:22Z</time>
      </trkpt>
      <trkpt lat="49.8625" lon="2.39832">
        <ele>72</ele>
        <time>2022-05-28T13:15:23Z</time>
      </trkpt>
      <trkpt lat="49.8625" lon="2.39834">
        <ele>72.1</ele>
        <time>2022-05-28T13:15:24Z</time>
      </trkpt>
      <trkpt lat="49.8625" lon="2.39834">
        <ele>72.1</ele>
        <time>2022-05-28T13:15:25Z</time>
      </trkpt>
      <trkpt lat="49.86249" lon="2.39835">
        <ele>72.1</ele>
        <time>2022-05-28T13:15:26Z</time>
      </trkpt>
      <trkpt lat="49.86249" lon="2.39835">
        <ele>72.1</ele>
        <time>2022-05-28T13:15:27Z</time>
      </trkpt>
      <trkpt lat="49.86249" lon="2.39836">
        <ele>72.1</ele>
        <time>2022-05-28T13:15:28Z</time>
      </trkpt>
      <trkpt lat="49.86249" lon="2.39837">
        <ele>72.2</ele>
        <time>2022-05-28T13:15:29Z</time>
      </trkpt>
      <trkpt lat="49.86249" lon="2.39838">
        <ele>72.2</ele>
        <time>2022-05-28T13:15:30Z</time>
      </trkpt>
      <trkpt lat="49.86249" lon="2.39839">
        <ele>72.2</ele>
        <time>2022-05-28T13:15:31Z</time>
      </trkpt>
      <trkpt lat="49.86249" lon="2.3984">
        <ele>72.2</ele>
        <time>2022-05-28T13:15:32Z</time>
      </trkpt>
      <trkpt lat="49.86249" lon="2.39841">
        <ele>72.2</ele>
        <time>2022-05-28T13:15:33Z</time>
      </trkpt>
      <trkpt lat="49.86248" lon="2.39842">
        <ele>72.2</ele>
        <time>2022-05-28T13:15:34Z</time>
      </trkpt>
      <trkpt lat="49.86248" lon="2.39842">
        <ele>72.2</ele>
        <time>2022-05-28T13:15:35Z</time>
      </trkpt>
      <trkpt lat="49.86248" lon="2.39843">
        <ele>72.2</ele>
        <time>2022-05-28T13:15:36Z</time>
      </trkpt>
      <trkpt lat="49.86248" lon="2.39844">
        <ele>72.2</ele>
        <time>2022-05-28T13:15:37Z</time>
      </trkpt>
      <trkpt lat="49.86248" lon="2.39846">
        <ele>72.3</ele>
        <time>2022-05-28T13:15:38Z</time>
      </trkpt>
      <trkpt lat="49.86248" lon="2.39848">
        <ele>72.3</ele>
        <time>2022-05-28T13:15:39Z</time>
      </trkpt>
      <trkpt lat="49.86247" lon="2.3985">
        <ele>72.4</ele>
        <time>2022-05-28T13:15:40Z</time>
      </trkpt>
      <trkpt lat="49.86247" lon="2.39853">
        <ele>72.3</ele>
        <time>2022-05-28T13:15:41Z</time>
      </trkpt>
      <trkpt lat="49.86247" lon="2.39855">
        <ele>72.4</ele>
        <time>2022-05-28T13:15:42Z</time>
      </trkpt>
      <trkpt lat="49.86246" lon="2.39857">
        <ele>72.4</ele>
        <time>2022-05-28T13:15:43Z</time>
      </trkpt>
      <trkpt lat="49.86246" lon="2.3986">
        <ele>72.5</ele>
        <time>2022-05-28T13:15:44Z</time>
      </trkpt>
      <trkpt lat="49.86246" lon="2.39861">
        <ele>72.5</ele>
        <time>2022-05-28T13:15:45Z</time>
      </trkpt>
      <trkpt lat="49.86246" lon="2.39862">
        <ele>72.5</ele>
        <time>2022-05-28T13:15:46Z</time>
      </trkpt>
      <trkpt lat="49.86245" lon="2.39864">
        <ele>72.6</ele>
        <time>2022-05-28T13:15:47Z</time>
      </trkpt>
      <trkpt lat="49.86245" lon="2.39866">
        <ele>72.6</ele>
        <time>2022-05-28T13:15:48Z</time>
      </trkpt>
      <trkpt lat="49.86245" lon="2.39869">
        <ele>72.7</ele>
        <time>2022-05-28T13:15:49Z</time>
      </trkpt>
      <trkpt lat="49.86244" lon="2.3987">
        <ele>72.7</ele>
        <time>2022-05-28T13:15:50Z</time>
      </trkpt>
      <trkpt lat="49.86244" lon="2.39871">
        <ele>72.8</ele>
        <time>2022-05-28T13:15:51Z</time>
      </trkpt>
      <trkpt lat="49.86244" lon="2.39872">
        <ele>72.8</ele>
        <time>2022-05-28T13:15:52Z</time>
      </trkpt>
      <trkpt lat="49.86244" lon="2.39873">
        <ele>72.8</ele>
        <time>2022-05-28T13:15:53Z</time>
      </trkpt>
      <trkpt lat="49.86244" lon="2.39874">
        <ele>72.8</ele>
        <time>2022-05-28T13:15:54Z</time>
      </trkpt>
      <trkpt lat="49.86244" lon="2.39874">
        <ele>72.8</ele>
        <time>2022-05-28T13:15:55Z</time>
      </trkpt>
      <trkpt lat="49.86244" lon="2.39875">
        <ele>72.8</ele>
        <time>2022-05-28T13:15:56Z</time>
      </trkpt>
      <trkpt lat="49.86244" lon="2.39875">
        <ele>72.8</ele>
        <time>2022-05-28T13:15:57Z</time>
      </trkpt>
      <trkpt lat="49.86244" lon="2.39875">
        <ele>72.9</ele>
        <time>2022-05-28T13:15:58Z</time>
      </trkpt>
      <trkpt lat="49.86244" lon="2.39876">
        <ele>72.9</ele>
        <time>2022-05-28T13:15:59Z</time>
      </trkpt>
      <trkpt lat="49.86244" lon="2.39876">
        <ele>72.9</ele>
        <time>2022-05-28T13:16:00Z</time>
      </trkpt>
      <trkpt lat="49.86244" lon="2.39877">
        <ele>72.9</ele>
        <time>2022-05-28T13:16:01Z</time>
      </trkpt>
      <trkpt lat="49.86244" lon="2.39877">
        <ele>72.9</ele>
        <time>2022-05-28T13:16:02Z</time>
      </trkpt>
      <trkpt lat="49.86244" lon="2.39878">
        <ele>72.9</ele>
        <time>2022-05-28T13:16:03Z</time>
      </trkpt>
      <trkpt lat="49.86243" lon="2.3988">
        <ele>73</ele>
        <time>2022-05-28T13:16:04Z</time>
      </trkpt>
      <trkpt lat="49.86243" lon="2.39881">
        <ele>73</ele>
        <time>2022-05-28T13:16:05Z</time>
      </trkpt>
      <trkpt lat="49.86243" lon="2.39883">
        <ele>73</ele>
        <time>2022-05-28T13:16:06Z</time>
      </trkpt>
      <trkpt lat="49.86242" lon="2.39885">
        <ele>73.1</ele>
        <time>2022-05-28T13:16:07Z</time>
      </trkpt>
      <trkpt lat="49.86242" lon="2.39888">
        <ele>73.1</ele>
        <time>2022-05-28T13:16:08Z</time>
      </trkpt>
      <trkpt lat="49.86241" lon="2.39892">
        <ele>73.1</ele>
        <time>2022-05-28T13:16:09Z</time>
      </trkpt>
      <trkpt lat="49.86241" lon="2.39893">
        <ele>73.3</ele>
        <time>2022-05-28T13:16:10Z</time>
      </trkpt>
      <trkpt lat="49.8624" lon="2.39895">
        <ele>73.3</ele>
        <time>2022-05-28T13:16:11Z</time>
      </trkpt>
      <trkpt lat="49.8624" lon="2.39897">
        <ele>73.4</ele>
        <time>2022-05-28T13:16:12Z</time>
      </trkpt>
      <trkpt lat="49.8624" lon="2.399">
        <ele>73.4</ele>
        <time>2022-05-28T13:16:13Z</time>
      </trkpt>
      <trkpt lat="49.86239" lon="2.39902">
        <ele>73.5</ele>
        <time>2022-05-28T13:16:14Z</time>
      </trkpt>
      <trkpt lat="49.86239" lon="2.39904">
        <ele>73.5</ele>
        <time>2022-05-28T13:16:15Z</time>
      </trkpt>
      <trkpt lat="49.86239" lon="2.39904">
        <ele>73.5</ele>
        <time>2022-05-28T13:16:16Z</time>
      </trkpt>
      <trkpt lat="49.86239" lon="2.39905">
        <ele>73.5</ele>
        <time>2022-05-28T13:16:17Z</time>
      </trkpt>
      <trkpt lat="49.86239" lon="2.39906">
        <ele>73.6</ele>
        <time>2022-05-28T13:16:18Z</time>
      </trkpt>
      <trkpt lat="49.86239" lon="2.39906">
        <ele>73.6</ele>
        <time>2022-05-28T13:16:19Z</time>
      </trkpt>
      <trkpt lat="49.86239" lon="2.39907">
        <ele>73.6</ele>
        <time>2022-05-28T13:16:20Z</time>
      </trkpt>
      <trkpt lat="49.86239" lon="2.39908">
        <ele>73.6</ele>
        <time>2022-05-28T13:16:21Z</time>
      </trkpt>
      <trkpt lat="49.86239" lon="2.39908">
        <ele>73.6</ele>
        <time>2022-05-28T13:16:22Z</time>
      </trkpt>
      <trkpt lat="49.86239" lon="2.39909">
        <ele>73.6</ele>
        <time>2022-05-28T13:16:23Z</time>
      </trkpt>
      <trkpt lat="49.86239" lon="2.3991">
        <ele>73.7</ele>
        <time>2022-05-28T13:16:24Z</time>
      </trkpt>
      <trkpt lat="49.86239" lon="2.39914">
        <ele>73.7</ele>
        <time>2022-05-28T13:16:25Z</time>
      </trkpt>
      <trkpt lat="49.86239" lon="2.39915">
        <ele>73.9</ele>
        <time>2022-05-28T13:16:26Z</time>
      </trkpt>
      <trkpt lat="49.86239" lon="2.39916">
        <ele>73.9</ele>
        <time>2022-05-28T13:16:27Z</time>
      </trkpt>
      <trkpt lat="49.86239" lon="2.39918">
        <ele>73.9</ele>
        <time>2022-05-28T13:16:28Z</time>
      </trkpt>
      <trkpt lat="49.86239" lon="2.39919">
        <ele>74</ele>
        <time>2022-05-28T13:16:29Z</time>
      </trkpt>
      <trkpt lat="49.86239" lon="2.39921">
        <ele>74</ele>
        <time>2022-05-28T13:16:30Z</time>
      </trkpt>
      <trkpt lat="49.86239" lon="2.39921">
        <ele>74</ele>
        <time>2022-05-28T13:16:31Z</time>
      </trkpt>
      <trkpt lat="49.86239" lon="2.39922">
        <ele>74</ele>
        <time>2022-05-28T13:16:32Z</time>
      </trkpt>
      <trkpt lat="49.86239" lon="2.39923">
        <ele>74.2</ele>
        <time>2022-05-28T13:16:33Z</time>
      </trkpt>
      <trkpt lat="49.86239" lon="2.39924">
        <ele>74.2</ele>
        <time>2022-05-28T13:16:34Z</time>
      </trkpt>
      <trkpt lat="49.86239" lon="2.39926">
        <ele>74.2</ele>
        <time>2022-05-28T13:16:35Z</time>
      </trkpt>
      <trkpt lat="49.86239" lon="2.39928">
        <ele>74.3</ele>
        <time>2022-05-28T13:16:36Z</time>
      </trkpt>
      <trkpt lat="49.86239" lon="2.39929">
        <ele>74.3</ele>
        <time>2022-05-28T13:16:37Z</time>
      </trkpt>
      <trkpt lat="49.86239" lon="2.39932">
        <ele>74.5</ele>
        <time>2022-05-28T13:16:38Z</time>
      </trkpt>
      <trkpt lat="49.86239" lon="2.39933">
        <ele>74.5</ele>
        <time>2022-05-28T13:16:39Z</time>
      </trkpt>
      <trkpt lat="49.86239" lon="2.39936">
        <ele>74.6</ele>
        <time>2022-05-28T13:16:40Z</time>
      </trkpt>
      <trkpt lat="49.86239" lon="2.39937">
        <ele>74.6</ele>
        <time>2022-05-28T13:16:41Z</time>
      </trkpt>
      <trkpt lat="49.86239" lon="2.39938">
        <ele>74.6</ele>
        <time>2022-05-28T13:16:42Z</time>
      </trkpt>
      <trkpt lat="49.8624" lon="2.39939">
        <ele>74.6</ele>
        <time>2022-05-28T13:16:43Z</time>
      </trkpt>
      <trkpt lat="49.8624" lon="2.3994">
        <ele>74.8</ele>
        <time>2022-05-28T13:16:44Z</time>
      </trkpt>
      <trkpt lat="49.8624" lon="2.39941">
        <ele>74.8</ele>
        <time>2022-05-28T13:16:45Z</time>
      </trkpt>
      <trkpt lat="49.8624" lon="2.39941">
        <ele>74.8</ele>
        <time>2022-05-28T13:16:46Z</time>
      </trkpt>
      <trkpt lat="49.8624" lon="2.39941">
        <ele>74.8</ele>
        <time>2022-05-28T13:16:47Z</time>
      </trkpt>
      <trkpt lat="49.8624" lon="2.39942">
        <ele>74.8</ele>
        <time>2022-05-28T13:16:48Z</time>
      </trkpt>
      <trkpt lat="49.8624" lon="2.39942">
        <ele>74.8</ele>
        <time>2022-05-28T13:16:49Z</time>
      </trkpt>
      <trkpt lat="49.8624" lon="2.39942">
        <ele>74.8</ele>
        <time>2022-05-28T13:16:50Z</time>
      </trkpt>
      <trkpt lat="49.8624" lon="2.39942">
        <ele>74.8</ele>
        <time>2022-05-28T13:16:51Z</time>
      </trkpt>
      <trkpt lat="49.8624" lon="2.39943">
        <ele>74.8</ele>
        <time>2022-05-28T13:16:52Z</time>
      </trkpt>
      <trkpt lat="49.8624" lon="2.39944">
        <ele>74.8</ele>
        <time>2022-05-28T13:16:53Z</time>
      </trkpt>
      <trkpt lat="49.8624" lon="2.39945">
        <ele>75</ele>
        <time>2022-05-28T13:16:54Z</time>
      </trkpt>
      <trkpt lat="49.8624" lon="2.39947">
        <ele>75</ele>
        <time>2022-05-28T13:16:55Z</time>
      </trkpt>
      <trkpt lat="49.8624" lon="2.39948">
        <ele>75</ele>
        <time>2022-05-28T13:16:56Z</time>
      </trkpt>
      <trkpt lat="49.8624" lon="2.39949">
        <ele>75.2</ele>
        <time>2022-05-28T13:16:57Z</time>
      </trkpt>
      <trkpt lat="49.86239" lon="2.3995">
        <ele>75.2</ele>
        <time>2022-05-28T13:16:58Z</time>
      </trkpt>
      <trkpt lat="49.86239" lon="2.39951">
        <ele>75.2</ele>
        <time>2022-05-28T13:16:59Z</time>
      </trkpt>
      <trkpt lat="49.86239" lon="2.39952">
        <ele>75.2</ele>
        <time>2022-05-28T13:17:00Z</time>
      </trkpt>
      <trkpt lat="49.86239" lon="2.39953">
        <ele>75.2</ele>
        <time>2022-05-28T13:17:01Z</time>
      </trkpt>
      <trkpt lat="49.86239" lon="2.39953">
        <ele>75.3</ele>
        <time>2022-05-28T13:17:02Z</time>
      </trkpt>
      <trkpt lat="49.86239" lon="2.39954">
        <ele>75.3</ele>
        <time>2022-05-28T13:17:03Z</time>
      </trkpt>
      <trkpt lat="49.86239" lon="2.39954">
        <ele>75.2</ele>
        <time>2022-05-28T13:17:04Z</time>
      </trkpt>
      <trkpt lat="49.86239" lon="2.39955">
        <ele>75.2</ele>
        <time>2022-05-28T13:17:05Z</time>
      </trkpt>
      <trkpt lat="49.86239" lon="2.39955">
        <ele>75.2</ele>
        <time>2022-05-28T13:17:06Z</time>
      </trkpt>
      <trkpt lat="49.86239" lon="2.39955">
        <ele>75.2</ele>
        <time>2022-05-28T13:17:07Z</time>
      </trkpt>
      <trkpt lat="49.86239" lon="2.39957">
        <ele>75.2</ele>
        <time>2022-05-28T13:17:08Z</time>
      </trkpt>
      <trkpt lat="49.86238" lon="2.39958">
        <ele>75.4</ele>
        <time>2022-05-28T13:17:09Z</time>
      </trkpt>
      <trkpt lat="49.86238" lon="2.3996">
        <ele>75.4</ele>
        <time>2022-05-28T13:17:10Z</time>
      </trkpt>
      <trkpt lat="49.86238" lon="2.39963">
        <ele>75.6</ele>
        <time>2022-05-28T13:17:11Z</time>
      </trkpt>
      <trkpt lat="49.86238" lon="2.39965">
        <ele>75.6</ele>
        <time>2022-05-28T13:17:12Z</time>
      </trkpt>
      <trkpt lat="49.86238" lon="2.39968">
        <ele>75.7</ele>
        <time>2022-05-28T13:17:13Z</time>
      </trkpt>
      <trkpt lat="49.86237" lon="2.39973">
        <ele>75.9</ele>
        <time>2022-05-28T13:17:14Z</time>
      </trkpt>
      <trkpt lat="49.86237" lon="2.39975">
        <ele>76</ele>
        <time>2022-05-28T13:17:15Z</time>
      </trkpt>
      <trkpt lat="49.86236" lon="2.3998">
        <ele>76.2</ele>
        <time>2022-05-28T13:17:16Z</time>
      </trkpt>
      <trkpt lat="49.86236" lon="2.39982">
        <ele>76</ele>
        <time>2022-05-28T13:17:17Z</time>
      </trkpt>
      <trkpt lat="49.86235" lon="2.39985">
        <ele>76.2</ele>
        <time>2022-05-28T13:17:18Z</time>
      </trkpt>
      <trkpt lat="49.86235" lon="2.39986">
        <ele>76.2</ele>
        <time>2022-05-28T13:17:19Z</time>
      </trkpt>
      <trkpt lat="49.86235" lon="2.39988">
        <ele>76.3</ele>
        <time>2022-05-28T13:17:20Z</time>
      </trkpt>
      <trkpt lat="49.86235" lon="2.3999">
        <ele>76.3</ele>
        <time>2022-05-28T13:17:21Z</time>
      </trkpt>
      <trkpt lat="49.86235" lon="2.39991">
        <ele>76.4</ele>
        <time>2022-05-28T13:17:22Z</time>
      </trkpt>
      <trkpt lat="49.86234" lon="2.39993">
        <ele>76.4</ele>
        <time>2022-05-28T13:17:23Z</time>
      </trkpt>
      <trkpt lat="49.86234" lon="2.39994">
        <ele>76.4</ele>
        <time>2022-05-28T13:17:24Z</time>
      </trkpt>
      <trkpt lat="49.86234" lon="2.39996">
        <ele>76.5</ele>
        <time>2022-05-28T13:17:25Z</time>
      </trkpt>
      <trkpt lat="49.86234" lon="2.39996">
        <ele>76.5</ele>
        <time>2022-05-28T13:17:26Z</time>
      </trkpt>
      <trkpt lat="49.86234" lon="2.39997">
        <ele>76.5</ele>
        <time>2022-05-28T13:17:27Z</time>
      </trkpt>
      <trkpt lat="49.86234" lon="2.39997">
        <ele>76.5</ele>
        <time>2022-05-28T13:17:28Z</time>
      </trkpt>
      <trkpt lat="49.86234" lon="2.39998">
        <ele>76.5</ele>
        <time>2022-05-28T13:17:29Z</time>
      </trkpt>
      <trkpt lat="49.86234" lon="2.39998">
        <ele>76.5</ele>
        <time>2022-05-28T13:17:30Z</time>
      </trkpt>
      <trkpt lat="49.86234" lon="2.39999">
        <ele>76.5</ele>
        <time>2022-05-28T13:17:31Z</time>
      </trkpt>
      <trkpt lat="49.86234" lon="2.39999">
        <ele>76.5</ele>
        <time>2022-05-28T13:17:32Z</time>
      </trkpt>
      <trkpt lat="49.86233" lon="2.4">
        <ele>76.4</ele>
        <time>2022-05-28T13:17:33Z</time>
      </trkpt>
      <trkpt lat="49.86233" lon="2.40001">
        <ele>76.4</ele>
        <time>2022-05-28T13:17:34Z</time>
      </trkpt>
      <trkpt lat="49.86233" lon="2.40003">
        <ele>76.4</ele>
        <time>2022-05-28T13:17:35Z</time>
      </trkpt>
      <trkpt lat="49.86233" lon="2.40004">
        <ele>76.4</ele>
        <time>2022-05-28T13:17:36Z</time>
      </trkpt>
      <trkpt lat="49.86232" lon="2.40004">
        <ele>76.4</ele>
        <time>2022-05-28T13:17:37Z</time>
      </trkpt>
      <trkpt lat="49.86232" lon="2.40004">
        <ele>76.4</ele>
        <time>2022-05-28T13:17:38Z</time>
      </trkpt>
      <trkpt lat="49.86232" lon="2.40004">
        <ele>76.5</ele>
        <time>2022-05-28T13:17:39Z</time>
      </trkpt>
      <trkpt lat="49.86232" lon="2.40005">
        <ele>76.5</ele>
        <time>2022-05-28T13:17:40Z</time>
      </trkpt>
      <trkpt lat="49.86232" lon="2.40005">
        <ele>76.5</ele>
        <time>2022-05-28T13:17:41Z</time>
      </trkpt>
      <trkpt lat="49.86232" lon="2.40005">
        <ele>76.5</ele>
        <time>2022-05-28T13:17:42Z</time>
      </trkpt>
      <trkpt lat="49.86232" lon="2.40005">
        <ele>76.5</ele>
        <time>2022-05-28T13:17:43Z</time>
      </trkpt>
      <trkpt lat="49.86232" lon="2.40005">
        <ele>76.5</ele>
        <time>2022-05-28T13:17:44Z</time>
      </trkpt>
      <trkpt lat="49.86232" lon="2.40005">
        <ele>76.5</ele>
        <time>2022-05-28T13:17:45Z</time>
      </trkpt>
      <trkpt lat="49.86232" lon="2.40006">
        <ele>76.5</ele>
        <time>2022-05-28T13:17:46Z</time>
      </trkpt>
      <trkpt lat="49.86232" lon="2.40006">
        <ele>76.5</ele>
        <time>2022-05-28T13:17:47Z</time>
      </trkpt>
      <trkpt lat="49.86233" lon="2.40006">
        <ele>76.5</ele>
        <time>2022-05-28T13:17:48Z</time>
      </trkpt>
      <trkpt lat="49.86233" lon="2.40006">
        <ele>76.5</ele>
        <time>2022-05-28T13:17:49Z</time>
      </trkpt>
      <trkpt lat="49.86233" lon="2.40007">
        <ele>76.5</ele>
        <time>2022-05-28T13:17:50Z</time>
      </trkpt>
      <trkpt lat="49.86233" lon="2.40007">
        <ele>76.5</ele>
        <time>2022-05-28T13:17:51Z</time>
      </trkpt>
      <trkpt lat="49.86233" lon="2.40007">
        <ele>76.5</ele>
        <time>2022-05-28T13:17:52Z</time>
      </trkpt>
      <trkpt lat="49.86233" lon="2.40007">
        <ele>76.5</ele>
        <time>2022-05-28T13:17:53Z</time>
      </trkpt>
      <trkpt lat="49.86234" lon="2.40007">
        <ele>76.7</ele>
        <time>2022-05-28T13:17:54Z</time>
      </trkpt>
      <trkpt lat="49.86235" lon="2.40008">
        <ele>76.7</ele>
        <time>2022-05-28T13:17:55Z</time>
      </trkpt>
      <trkpt lat="49.86235" lon="2.40008">
        <ele>76.7</ele>
        <time>2022-05-28T13:17:56Z</time>
      </trkpt>
      <trkpt lat="49.86236" lon="2.40009">
        <ele>76.9</ele>
        <time>2022-05-28T13:17:57Z</time>
      </trkpt>
      <trkpt lat="49.86238" lon="2.40009">
        <ele>76.9</ele>
        <time>2022-05-28T13:17:58Z</time>
      </trkpt>
      <trkpt lat="49.86239" lon="2.4001">
        <ele>77.1</ele>
        <time>2022-05-28T13:17:59Z</time>
      </trkpt>
      <trkpt lat="49.86241" lon="2.4001">
        <ele>77.1</ele>
        <time>2022-05-28T13:18:00Z</time>
      </trkpt>
      <trkpt lat="49.86242" lon="2.40011">
        <ele>77.2</ele>
        <time>2022-05-28T13:18:01Z</time>
      </trkpt>
      <trkpt lat="49.86243" lon="2.40011">
        <ele>77.2</ele>
        <time>2022-05-28T13:18:02Z</time>
      </trkpt>
      <trkpt lat="49.86244" lon="2.40011">
        <ele>77.2</ele>
        <time>2022-05-28T13:18:03Z</time>
      </trkpt>
      <trkpt lat="49.86245" lon="2.40011">
        <ele>77.3</ele>
        <time>2022-05-28T13:18:04Z</time>
      </trkpt>
      <trkpt lat="49.86245" lon="2.40011">
        <ele>77.3</ele>
        <time>2022-05-28T13:18:05Z</time>
      </trkpt>
      <trkpt lat="49.86247" lon="2.40012">
        <ele>77.3</ele>
        <time>2022-05-28T13:18:06Z</time>
      </trkpt>
      <trkpt lat="49.86248" lon="2.40012">
        <ele>77.4</ele>
        <time>2022-05-28T13:18:07Z</time>
      </trkpt>
      <trkpt lat="49.86249" lon="2.40012">
        <ele>77.4</ele>
        <time>2022-05-28T13:18:08Z</time>
      </trkpt>
      <trkpt lat="49.8625" lon="2.40012">
        <ele>77.4</ele>
        <time>2022-05-28T13:18:09Z</time>
      </trkpt>
      <trkpt lat="49.86252" lon="2.40012">
        <ele>77.5</ele>
        <time>2022-05-28T13:18:10Z</time>
      </trkpt>
      <trkpt lat="49.86254" lon="2.40013">
        <ele>77.7</ele>
        <time>2022-05-28T13:18:11Z</time>
      </trkpt>
      <trkpt lat="49.86256" lon="2.40013">
        <ele>77.8</ele>
        <time>2022-05-28T13:18:12Z</time>
      </trkpt>
      <trkpt lat="49.86257" lon="2.40014">
        <ele>77.8</ele>
        <time>2022-05-28T13:18:13Z</time>
      </trkpt>
      <trkpt lat="49.86258" lon="2.40014">
        <ele>77.8</ele>
        <time>2022-05-28T13:18:14Z</time>
      </trkpt>
      <trkpt lat="49.8626" lon="2.40014">
        <ele>77.8</ele>
        <time>2022-05-28T13:18:15Z</time>
      </trkpt>
      <trkpt lat="49.86261" lon="2.40015">
        <ele>77.9</ele>
        <time>2022-05-28T13:18:16Z</time>
      </trkpt>
      <trkpt lat="49.86263" lon="2.40016">
        <ele>77.9</ele>
        <time>2022-05-28T13:18:17Z</time>
      </trkpt>
      <trkpt lat="49.86264" lon="2.40016">
        <ele>77.9</ele>
        <time>2022-05-28T13:18:18Z</time>
      </trkpt>
      <trkpt lat="49.86265" lon="2.40017">
        <ele>77.9</ele>
        <time>2022-05-28T13:18:19Z</time>
      </trkpt>
      <trkpt lat="49.86266" lon="2.40018">
        <ele>78</ele>
        <time>2022-05-28T13:18:20Z</time>
      </trkpt>
      <trkpt lat="49.86267" lon="2.40018">
        <ele>78.1</ele>
        <time>2022-05-28T13:18:21Z</time>
      </trkpt>
      <trkpt lat="49.86268" lon="2.40019">
        <ele>78.1</ele>
        <time>2022-05-28T13:18:22Z</time>
      </trkpt>
      <trkpt lat="49.86269" lon="2.4002">
        <ele>78.1</ele>
        <time>2022-05-28T13:18:23Z</time>
      </trkpt>
      <trkpt lat="49.86269" lon="2.4002">
        <ele>78.1</ele>
        <time>2022-05-28T13:18:24Z</time>
      </trkpt>
      <trkpt lat="49.8627" lon="2.40021">
        <ele>78.1</ele>
        <time>2022-05-28T13:18:25Z</time>
      </trkpt>
      <trkpt lat="49.86271" lon="2.40021">
        <ele>78.1</ele>
        <time>2022-05-28T13:18:26Z</time>
      </trkpt>
      <trkpt lat="49.86272" lon="2.40022">
        <ele>78.2</ele>
        <time>2022-05-28T13:18:27Z</time>
      </trkpt>
      <trkpt lat="49.86272" lon="2.40022">
        <ele>78.2</ele>
        <time>2022-05-28T13:18:28Z</time>
      </trkpt>
      <trkpt lat="49.86273" lon="2.40022">
        <ele>78.2</ele>
        <time>2022-05-28T13:18:29Z</time>
      </trkpt>
      <trkpt lat="49.86274" lon="2.40023">
        <ele>78.2</ele>
        <time>2022-05-28T13:18:30Z</time>
      </trkpt>
      <trkpt lat="49.86275" lon="2.40023">
        <ele>78.2</ele>
        <time>2022-05-28T13:18:31Z</time>
      </trkpt>
      <trkpt lat="49.86275" lon="2.40023">
        <ele>78.3</ele>
        <time>2022-05-28T13:18:32Z</time>
      </trkpt>
      <trkpt lat="49.86276" lon="2.40023">
        <ele>78.3</ele>
        <time>2022-05-28T13:18:33Z</time>
      </trkpt>
      <trkpt lat="49.86276" lon="2.40023">
        <ele>78.3</ele>
        <time>2022-05-28T13:18:34Z</time>
      </trkpt>
      <trkpt lat="49.86277" lon="2.40023">
        <ele>78.3</ele>
        <time>2022-05-28T13:18:35Z</time>
      </trkpt>
      <trkpt lat="49.86277" lon="2.40024">
        <ele>78.3</ele>
        <time>2022-05-28T13:18:36Z</time>
      </trkpt>
      <trkpt lat="49.86278" lon="2.40024">
        <ele>78.3</ele>
        <time>2022-05-28T13:18:37Z</time>
      </trkpt>
      <trkpt lat="49.86278" lon="2.40024">
        <ele>78.3</ele>
        <time>2022-05-28T13:18:38Z</time>
      </trkpt>
      <trkpt lat="49.86279" lon="2.40024">
        <ele>78.3</ele>
        <time>2022-05-28T13:18:39Z</time>
      </trkpt>
      <trkpt lat="49.8628" lon="2.40024">
        <ele>78.3</ele>
        <time>2022-05-28T13:18:40Z</time>
      </trkpt>
      <trkpt lat="49.8628" lon="2.40024">
        <ele>78.3</ele>
        <time>2022-05-28T13:18:41Z</time>
      </trkpt>
      <trkpt lat="49.86281" lon="2.40024">
        <ele>78.3</ele>
        <time>2022-05-28T13:18:42Z</time>
      </trkpt>
      <trkpt lat="49.86282" lon="2.40024">
        <ele>78.3</ele>
        <time>2022-05-28T13:18:43Z</time>
      </trkpt>
      <trkpt lat="49.86283" lon="2.40023">
        <ele>78.3</ele>
        <time>2022-05-28T13:18:44Z</time>
      </trkpt>
      <trkpt lat="49.86284" lon="2.40023">
        <ele>78.3</ele>
        <time>2022-05-28T13:18:45Z</time>
      </trkpt>
      <trkpt lat="49.86284" lon="2.40023">
        <ele>78.3</ele>
        <time>2022-05-28T13:18:46Z</time>
      </trkpt>
      <trkpt lat="49.86285" lon="2.40023">
        <ele>78.3</ele>
        <time>2022-05-28T13:18:47Z</time>
      </trkpt>
      <trkpt lat="49.86285" lon="2.40023">
        <ele>78.3</ele>
        <time>2022-05-28T13:18:48Z</time>
      </trkpt>
      <trkpt lat="49.86285" lon="2.40023">
        <ele>78.3</ele>
        <time>2022-05-28T13:18:49Z</time>
      </trkpt>
      <trkpt lat="49.86286" lon="2.40023">
        <ele>78.4</ele>
        <time>2022-05-28T13:18:50Z</time>
      </trkpt>
      <trkpt lat="49.86286" lon="2.40023">
        <ele>78.4</ele>
        <time>2022-05-28T13:18:51Z</time>
      </trkpt>
      <trkpt lat="49.86287" lon="2.40023">
        <ele>78.4</ele>
        <time>2022-05-28T13:18:52Z</time>
      </trkpt>
      <trkpt lat="49.86287" lon="2.40022">
        <ele>78.4</ele>
        <time>2022-05-28T13:18:53Z</time>
      </trkpt>
      <trkpt lat="49.86287" lon="2.40022">
        <ele>78.4</ele>
        <time>2022-05-28T13:18:54Z</time>
      </trkpt>
      <trkpt lat="49.86287" lon="2.40022">
        <ele>78.4</ele>
        <time>2022-05-28T13:18:55Z</time>
      </trkpt>
      <trkpt lat="49.86287" lon="2.40022">
        <ele>78.4</ele>
        <time>2022-05-28T13:18:56Z</time>
      </trkpt>
      <trkpt lat="49.86288" lon="2.40022">
        <ele>78.4</ele>
        <time>2022-05-28T13:18:57Z</time>
      </trkpt>
      <trkpt lat="49.86289" lon="2.40023">
        <ele>78.4</ele>
        <time>2022-05-28T13:18:58Z</time>
      </trkpt>
      <trkpt lat="49.86289" lon="2.40023">
        <ele>78.4</ele>
        <time>2022-05-28T13:18:59Z</time>
      </trkpt>
      <trkpt lat="49.8629" lon="2.40023">
        <ele>78.4</ele>
        <time>2022-05-28T13:19:00Z</time>
      </trkpt>
      <trkpt lat="49.86291" lon="2.40023">
        <ele>78.4</ele>
        <time>2022-05-28T13:19:01Z</time>
      </trkpt>
      <trkpt lat="49.86291" lon="2.40023">
        <ele>78.4</ele>
        <time>2022-05-28T13:19:02Z</time>
      </trkpt>
      <trkpt lat="49.86291" lon="2.40023">
        <ele>78.4</ele>
        <time>2022-05-28T13:19:03Z</time>
      </trkpt>
      <trkpt lat="49.86291" lon="2.40023">
        <ele>78.4</ele>
        <time>2022-05-28T13:19:04Z</time>
      </trkpt>
      <trkpt lat="49.86292" lon="2.40023">
        <ele>78.4</ele>
        <time>2022-05-28T13:19:05Z</time>
      </trkpt>
      <trkpt lat="49.86292" lon="2.40023">
        <ele>78.4</ele>
        <time>2022-05-28T13:19:06Z</time>
      </trkpt>
      <trkpt lat="49.86292" lon="2.40023">
        <ele>78.4</ele>
        <time>2022-05-28T13:19:07Z</time>
      </trkpt>
      <trkpt lat="49.86292" lon="2.40023">
        <ele>78.4</ele>
        <time>2022-05-28T13:19:08Z</time>
      </trkpt>
      <trkpt lat="49.86292" lon="2.40023">
        <ele>78.4</ele>
        <time>2022-05-28T13:19:09Z</time>
      </trkpt>
      <trkpt lat="49.86293" lon="2.40023">
        <ele>78.4</ele>
        <time>2022-05-28T13:19:10Z</time>
      </trkpt>
      <trkpt lat="49.86292" lon="2.40023">
        <ele>78.4</ele>
        <time>2022-05-28T13:19:11Z</time>
      </trkpt>
      <trkpt lat="49.86293" lon="2.40023">
        <ele>78.4</ele>
        <time>2022-05-28T13:19:12Z</time>
      </trkpt>
      <trkpt lat="49.86293" lon="2.40023">
        <ele>78.4</ele>
        <time>2022-05-28T13:19:13Z</time>
      </trkpt>
      <trkpt lat="49.86293" lon="2.40023">
        <ele>78.4</ele>
        <time>2022-05-28T13:19:14Z</time>
      </trkpt>
      <trkpt lat="49.86294" lon="2.40023">
        <ele>78.4</ele>
        <time>2022-05-28T13:19:15Z</time>
      </trkpt>
      <trkpt lat="49.86294" lon="2.40023">
        <ele>78.4</ele>
        <time>2022-05-28T13:19:16Z</time>
      </trkpt>
      <trkpt lat="49.86295" lon="2.40023">
        <ele>78.4</ele>
        <time>2022-05-28T13:19:17Z</time>
      </trkpt>
      <trkpt lat="49.86296" lon="2.40023">
        <ele>78.4</ele>
        <time>2022-05-28T13:19:18Z</time>
      </trkpt>
      <trkpt lat="49.86297" lon="2.40023">
        <ele>78.4</ele>
        <time>2022-05-28T13:19:19Z</time>
      </trkpt>
      <trkpt lat="49.86298" lon="2.40023">
        <ele>78.3</ele>
        <time>2022-05-28T13:19:20Z</time>
      </trkpt>
      <trkpt lat="49.86299" lon="2.40023">
        <ele>78.3</ele>
        <time>2022-05-28T13:19:21Z</time>
      </trkpt>
      <trkpt lat="49.863" lon="2.40023">
        <ele>78.3</ele>
        <time>2022-05-28T13:19:22Z</time>
      </trkpt>
      <trkpt lat="49.86301" lon="2.40023">
        <ele>78.3</ele>
        <time>2022-05-28T13:19:23Z</time>
      </trkpt>
      <trkpt lat="49.86302" lon="2.40023">
        <ele>78.3</ele>
        <time>2022-05-28T13:19:24Z</time>
      </trkpt>
      <trkpt lat="49.86303" lon="2.40023">
        <ele>78.3</ele>
        <time>2022-05-28T13:19:25Z</time>
      </trkpt>
      <trkpt lat="49.86304" lon="2.40023">
        <ele>78.3</ele>
        <time>2022-05-28T13:19:26Z</time>
      </trkpt>
      <trkpt lat="49.86304" lon="2.40023">
        <ele>78.3</ele>
        <time>2022-05-28T13:19:27Z</time>
      </trkpt>
      <trkpt lat="49.86304" lon="2.40023">
        <ele>78.3</ele>
        <time>2022-05-28T13:19:28Z</time>
      </trkpt>
      <trkpt lat="49.86305" lon="2.40023">
        <ele>78.3</ele>
        <time>2022-05-28T13:19:29Z</time>
      </trkpt>
      <trkpt lat="49.86306" lon="2.40023">
        <ele>78.3</ele>
        <time>2022-05-28T13:19:30Z</time>
      </trkpt>
      <trkpt lat="49.86308" lon="2.40023">
        <ele>78.3</ele>
        <time>2022-05-28T13:19:31Z</time>
      </trkpt>
      <trkpt lat="49.86309" lon="2.40023">
        <ele>78.2</ele>
        <time>2022-05-28T13:19:32Z</time>
      </trkpt>
      <trkpt lat="49.8631" lon="2.40023">
        <ele>78.2</ele>
        <time>2022-05-28T13:19:33Z</time>
      </trkpt>
      <trkpt lat="49.86311" lon="2.40023">
        <ele>78.2</ele>
        <time>2022-05-28T13:19:34Z</time>
      </trkpt>
      <trkpt lat="49.86313" lon="2.40023">
        <ele>78.1</ele>
        <time>2022-05-28T13:19:35Z</time>
      </trkpt>
      <trkpt lat="49.86314" lon="2.40023">
        <ele>78.1</ele>
        <time>2022-05-28T13:19:36Z</time>
      </trkpt>
      <trkpt lat="49.86315" lon="2.40023">
        <ele>78.1</ele>
        <time>2022-05-28T13:19:37Z</time>
      </trkpt>
      <trkpt lat="49.86316" lon="2.40023">
        <ele>78.1</ele>
        <time>2022-05-28T13:19:38Z</time>
      </trkpt>
      <trkpt lat="49.86317" lon="2.40023">
        <ele>78</ele>
        <time>2022-05-28T13:19:39Z</time>
      </trkpt>
      <trkpt lat="49.86317" lon="2.40023">
        <ele>78</ele>
        <time>2022-05-28T13:19:40Z</time>
      </trkpt>
      <trkpt lat="49.86318" lon="2.40023">
        <ele>78</ele>
        <time>2022-05-28T13:19:41Z</time>
      </trkpt>
      <trkpt lat="49.86319" lon="2.40023">
        <ele>78</ele>
        <time>2022-05-28T13:19:42Z</time>
      </trkpt>
      <trkpt lat="49.8632" lon="2.40023">
        <ele>77.9</ele>
        <time>2022-05-28T13:19:43Z</time>
      </trkpt>
      <trkpt lat="49.86321" lon="2.40023">
        <ele>77.9</ele>
        <time>2022-05-28T13:19:44Z</time>
      </trkpt>
      <trkpt lat="49.86323" lon="2.40023">
        <ele>77.8</ele>
        <time>2022-05-28T13:19:45Z</time>
      </trkpt>
      <trkpt lat="49.86324" lon="2.40024">
        <ele>77.8</ele>
        <time>2022-05-28T13:19:46Z</time>
      </trkpt>
      <trkpt lat="49.86325" lon="2.40024">
        <ele>77.8</ele>
        <time>2022-05-28T13:19:47Z</time>
      </trkpt>
      <trkpt lat="49.86325" lon="2.40024">
        <ele>77.7</ele>
        <time>2022-05-28T13:19:48Z</time>
      </trkpt>
      <trkpt lat="49.86326" lon="2.40024">
        <ele>77.7</ele>
        <time>2022-05-28T13:19:49Z</time>
      </trkpt>
      <trkpt lat="49.86327" lon="2.40024">
        <ele>77.7</ele>
        <time>2022-05-28T13:19:50Z</time>
      </trkpt>
      <trkpt lat="49.86327" lon="2.40024">
        <ele>77.7</ele>
        <time>2022-05-28T13:19:51Z</time>
      </trkpt>
      <trkpt lat="49.86328" lon="2.40024">
        <ele>77.6</ele>
        <time>2022-05-28T13:19:52Z</time>
      </trkpt>
      <trkpt lat="49.86328" lon="2.40024">
        <ele>77.6</ele>
        <time>2022-05-28T13:19:53Z</time>
      </trkpt>
      <trkpt lat="49.86328" lon="2.40024">
        <ele>77.6</ele>
        <time>2022-05-28T13:19:54Z</time>
      </trkpt>
      <trkpt lat="49.86329" lon="2.40024">
        <ele>77.6</ele>
        <time>2022-05-28T13:19:55Z</time>
      </trkpt>
      <trkpt lat="49.8633" lon="2.40024">
        <ele>77.6</ele>
        <time>2022-05-28T13:19:56Z</time>
      </trkpt>
      <trkpt lat="49.86331" lon="2.40024">
        <ele>77.5</ele>
        <time>2022-05-28T13:19:57Z</time>
      </trkpt>
      <trkpt lat="49.86332" lon="2.40024">
        <ele>77.5</ele>
        <time>2022-05-28T13:19:58Z</time>
      </trkpt>
      <trkpt lat="49.86333" lon="2.40024">
        <ele>77.5</ele>
        <time>2022-05-28T13:19:59Z</time>
      </trkpt>
      <trkpt lat="49.86334" lon="2.40024">
        <ele>77.3</ele>
        <time>2022-05-28T13:20:00Z</time>
      </trkpt>
      <trkpt lat="49.86335" lon="2.40024">
        <ele>77.3</ele>
        <time>2022-05-28T13:20:01Z</time>
      </trkpt>
      <trkpt lat="49.86335" lon="2.40024">
        <ele>77.3</ele>
        <time>2022-05-28T13:20:02Z</time>
      </trkpt>
      <trkpt lat="49.86336" lon="2.40025">
        <ele>77.3</ele>
        <time>2022-05-28T13:20:03Z</time>
      </trkpt>
      <trkpt lat="49.86336" lon="2.40025">
        <ele>77.2</ele>
        <time>2022-05-28T13:20:04Z</time>
      </trkpt>
      <trkpt lat="49.86337" lon="2.40025">
        <ele>77.2</ele>
        <time>2022-05-28T13:20:05Z</time>
      </trkpt>
      <trkpt lat="49.86338" lon="2.40025">
        <ele>77.2</ele>
        <time>2022-05-28T13:20:06Z</time>
      </trkpt>
      <trkpt lat="49.86339" lon="2.40025">
        <ele>77</ele>
        <time>2022-05-28T13:20:07Z</time>
      </trkpt>
      <trkpt lat="49.8634" lon="2.40025">
        <ele>77</ele>
        <time>2022-05-28T13:20:08Z</time>
      </trkpt>
      <trkpt lat="49.86341" lon="2.40026">
        <ele>77.2</ele>
        <time>2022-05-28T13:20:09Z</time>
      </trkpt>
      <trkpt lat="49.86342" lon="2.40026">
        <ele>77.1</ele>
        <time>2022-05-28T13:20:10Z</time>
      </trkpt>
      <trkpt lat="49.86343" lon="2.40026">
        <ele>77.1</ele>
        <time>2022-05-28T13:20:11Z</time>
      </trkpt>
      <trkpt lat="49.86343" lon="2.40026">
        <ele>77.1</ele>
        <time>2022-05-28T13:20:12Z</time>
      </trkpt>
      <trkpt lat="49.86344" lon="2.40027">
        <ele>76.9</ele>
        <time>2022-05-28T13:20:13Z</time>
      </trkpt>
      <trkpt lat="49.86345" lon="2.40027">
        <ele>76.9</ele>
        <time>2022-05-28T13:20:14Z</time>
      </trkpt>
      <trkpt lat="49.86345" lon="2.40027">
        <ele>76.9</ele>
        <time>2022-05-28T13:20:15Z</time>
      </trkpt>
      <trkpt lat="49.86346" lon="2.40027">
        <ele>76.9</ele>
        <time>2022-05-28T13:20:16Z</time>
      </trkpt>
      <trkpt lat="49.86347" lon="2.40027">
        <ele>76.9</ele>
        <time>2022-05-28T13:20:17Z</time>
      </trkpt>
      <trkpt lat="49.86347" lon="2.40027">
        <ele>76.7</ele>
        <time>2022-05-28T13:20:18Z</time>
      </trkpt>
      <trkpt lat="49.86348" lon="2.40028">
        <ele>76.7</ele>
        <time>2022-05-28T13:20:19Z</time>
      </trkpt>
      <trkpt lat="49.86348" lon="2.40028">
        <ele>76.7</ele>
        <time>2022-05-28T13:20:20Z</time>
      </trkpt>
      <trkpt lat="49.86349" lon="2.40028">
        <ele>76.7</ele>
        <time>2022-05-28T13:20:21Z</time>
      </trkpt>
      <trkpt lat="49.8635" lon="2.40028">
        <ele>76.5</ele>
        <time>2022-05-28T13:20:22Z</time>
      </trkpt>
      <trkpt lat="49.86351" lon="2.40028">
        <ele>76.5</ele>
        <time>2022-05-28T13:20:23Z</time>
      </trkpt>
      <trkpt lat="49.86351" lon="2.40028">
        <ele>76.5</ele>
        <time>2022-05-28T13:20:24Z</time>
      </trkpt>
      <trkpt lat="49.86352" lon="2.40028">
        <ele>76.5</ele>
        <time>2022-05-28T13:20:25Z</time>
      </trkpt>
      <trkpt lat="49.86353" lon="2.40028">
        <ele>76.4</ele>
        <time>2022-05-28T13:20:26Z</time>
      </trkpt>
      <trkpt lat="49.86354" lon="2.40028">
        <ele>76.4</ele>
        <time>2022-05-28T13:20:27Z</time>
      </trkpt>
      <trkpt lat="49.86354" lon="2.40029">
        <ele>76.4</ele>
        <time>2022-05-28T13:20:28Z</time>
      </trkpt>
      <trkpt lat="49.86355" lon="2.40029">
        <ele>76.4</ele>
        <time>2022-05-28T13:20:29Z</time>
      </trkpt>
      <trkpt lat="49.86356" lon="2.40029">
        <ele>76.1</ele>
        <time>2022-05-28T13:20:30Z</time>
      </trkpt>
      <trkpt lat="49.86356" lon="2.40029">
        <ele>76.1</ele>
        <time>2022-05-28T13:20:31Z</time>
      </trkpt>
      <trkpt lat="49.86357" lon="2.4003">
        <ele>76.1</ele>
        <time>2022-05-28T13:20:32Z</time>
      </trkpt>
      <trkpt lat="49.86358" lon="2.4003">
        <ele>76.4</ele>
        <time>2022-05-28T13:20:33Z</time>
      </trkpt>
      <trkpt lat="49.86359" lon="2.40031">
        <ele>76.2</ele>
        <time>2022-05-28T13:20:34Z</time>
      </trkpt>
      <trkpt lat="49.86359" lon="2.40031">
        <ele>76.2</ele>
        <time>2022-05-28T13:20:35Z</time>
      </trkpt>
      <trkpt lat="49.8636" lon="2.40031">
        <ele>76.2</ele>
        <time>2022-05-28T13:20:36Z</time>
      </trkpt>
      <trkpt lat="49.86362" lon="2.40032">
        <ele>76</ele>
        <time>2022-05-28T13:20:37Z</time>
      </trkpt>
      <trkpt lat="49.86362" lon="2.40032">
        <ele>76</ele>
        <time>2022-05-28T13:20:38Z</time>
      </trkpt>
      <trkpt lat="49.86363" lon="2.40032">
        <ele>76</ele>
        <time>2022-05-28T13:20:39Z</time>
      </trkpt>
      <trkpt lat="49.86364" lon="2.40033">
        <ele>75.7</ele>
        <time>2022-05-28T13:20:40Z</time>
      </trkpt>
      <trkpt lat="49.86364" lon="2.40033">
        <ele>75.7</ele>
        <time>2022-05-28T13:20:41Z</time>
      </trkpt>
      <trkpt lat="49.86365" lon="2.40033">
        <ele>75.7</ele>
        <time>2022-05-28T13:20:42Z</time>
      </trkpt>
      <trkpt lat="49.86365" lon="2.40033">
        <ele>75.7</ele>
        <time>2022-05-28T13:20:43Z</time>
      </trkpt>
      <trkpt lat="49.86365" lon="2.40034">
        <ele>75.7</ele>
        <time>2022-05-28T13:20:44Z</time>
      </trkpt>
      <trkpt lat="49.86366" lon="2.40034">
        <ele>75.7</ele>
        <time>2022-05-28T13:20:45Z</time>
      </trkpt>
      <trkpt lat="49.86366" lon="2.40034">
        <ele>75.5</ele>
        <time>2022-05-28T13:20:46Z</time>
      </trkpt>
      <trkpt lat="49.86366" lon="2.40034">
        <ele>75.5</ele>
        <time>2022-05-28T13:20:47Z</time>
      </trkpt>
      <trkpt lat="49.86367" lon="2.40034">
        <ele>75.5</ele>
        <time>2022-05-28T13:20:48Z</time>
      </trkpt>
      <trkpt lat="49.86367" lon="2.40034">
        <ele>75.8</ele>
        <time>2022-05-28T13:20:49Z</time>
      </trkpt>
      <trkpt lat="49.86368" lon="2.40034">
        <ele>75.8</ele>
        <time>2022-05-28T13:20:50Z</time>
      </trkpt>
      <trkpt lat="49.86369" lon="2.40035">
        <ele>75.5</ele>
        <time>2022-05-28T13:20:51Z</time>
      </trkpt>
      <trkpt lat="49.8637" lon="2.40035">
        <ele>75.5</ele>
        <time>2022-05-28T13:20:52Z</time>
      </trkpt>
      <trkpt lat="49.86371" lon="2.40035">
        <ele>75.5</ele>
        <time>2022-05-28T13:20:53Z</time>
      </trkpt>
      <trkpt lat="49.86373" lon="2.40035">
        <ele>75.3</ele>
        <time>2022-05-28T13:20:54Z</time>
      </trkpt>
      <trkpt lat="49.86374" lon="2.40036">
        <ele>75.3</ele>
        <time>2022-05-28T13:20:55Z</time>
      </trkpt>
      <trkpt lat="49.86375" lon="2.40036">
        <ele>75.1</ele>
        <time>2022-05-28T13:20:56Z</time>
      </trkpt>
      <trkpt lat="49.86376" lon="2.40036">
        <ele>75.1</ele>
        <time>2022-05-28T13:20:57Z</time>
      </trkpt>
      <trkpt lat="49.86376" lon="2.40036">
        <ele>75.1</ele>
        <time>2022-05-28T13:20:58Z</time>
      </trkpt>
      <trkpt lat="49.86377" lon="2.40036">
        <ele>75.1</ele>
        <time>2022-05-28T13:20:59Z</time>
      </trkpt>
      <trkpt lat="49.86377" lon="2.40036">
        <ele>75.1</ele>
        <time>2022-05-28T13:21:00Z</time>
      </trkpt>
      <trkpt lat="49.86378" lon="2.40036">
        <ele>74.8</ele>
        <time>2022-05-28T13:21:01Z</time>
      </trkpt>
      <trkpt lat="49.86379" lon="2.40036">
        <ele>74.8</ele>
        <time>2022-05-28T13:21:02Z</time>
      </trkpt>
      <trkpt lat="49.86379" lon="2.40036">
        <ele>74.8</ele>
        <time>2022-05-28T13:21:03Z</time>
      </trkpt>
      <trkpt lat="49.8638" lon="2.40036">
        <ele>74.6</ele>
        <time>2022-05-28T13:21:04Z</time>
      </trkpt>
      <trkpt lat="49.86381" lon="2.40036">
        <ele>74.6</ele>
        <time>2022-05-28T13:21:05Z</time>
      </trkpt>
      <trkpt lat="49.86383" lon="2.40037">
        <ele>74.4</ele>
        <time>2022-05-28T13:21:06Z</time>
      </trkpt>
      <trkpt lat="49.86384" lon="2.40037">
        <ele>74.4</ele>
        <time>2022-05-28T13:21:07Z</time>
      </trkpt>
      <trkpt lat="49.86386" lon="2.40037">
        <ele>74.2</ele>
        <time>2022-05-28T13:21:08Z</time>
      </trkpt>
      <trkpt lat="49.86387" lon="2.40037">
        <ele>74.2</ele>
        <time>2022-05-28T13:21:09Z</time>
      </trkpt>
      <trkpt lat="49.86387" lon="2.40037">
        <ele>74.2</ele>
        <time>2022-05-28T13:21:10Z</time>
      </trkpt>
      <trkpt lat="49.86389" lon="2.40037">
        <ele>73.9</ele>
        <time>2022-05-28T13:21:11Z</time>
      </trkpt>
      <trkpt lat="49.86389" lon="2.40037">
        <ele>73.9</ele>
        <time>2022-05-28T13:21:12Z</time>
      </trkpt>
      <trkpt lat="49.8639" lon="2.40037">
        <ele>73.9</ele>
        <time>2022-05-28T13:21:13Z</time>
      </trkpt>
      <trkpt lat="49.8639" lon="2.40037">
        <ele>73.9</ele>
        <time>2022-05-28T13:21:14Z</time>
      </trkpt>
      <trkpt lat="49.86391" lon="2.40037">
        <ele>73.9</ele>
        <time>2022-05-28T13:21:15Z</time>
      </trkpt>
      <trkpt lat="49.86392" lon="2.40037">
        <ele>73.7</ele>
        <time>2022-05-28T13:21:16Z</time>
      </trkpt>
      <trkpt lat="49.86393" lon="2.40037">
        <ele>73.7</ele>
        <time>2022-05-28T13:21:17Z</time>
      </trkpt>
      <trkpt lat="49.86394" lon="2.40037">
        <ele>73.4</ele>
        <time>2022-05-28T13:21:18Z</time>
      </trkpt>
      <trkpt lat="49.86395" lon="2.40037">
        <ele>73.4</ele>
        <time>2022-05-28T13:21:19Z</time>
      </trkpt>
      <trkpt lat="49.86396" lon="2.40036">
        <ele>73.4</ele>
        <time>2022-05-28T13:21:20Z</time>
      </trkpt>
      <trkpt lat="49.86396" lon="2.40036">
        <ele>73.4</ele>
        <time>2022-05-28T13:21:21Z</time>
      </trkpt>
      <trkpt lat="49.86397" lon="2.40036">
        <ele>73.2</ele>
        <time>2022-05-28T13:21:22Z</time>
      </trkpt>
      <trkpt lat="49.86397" lon="2.40036">
        <ele>73.2</ele>
        <time>2022-05-28T13:21:23Z</time>
      </trkpt>
      <trkpt lat="49.86398" lon="2.40036">
        <ele>73.2</ele>
        <time>2022-05-28T13:21:24Z</time>
      </trkpt>
      <trkpt lat="49.86398" lon="2.40036">
        <ele>73.2</ele>
        <time>2022-05-28T13:21:25Z</time>
      </trkpt>
      <trkpt lat="49.86399" lon="2.40036">
        <ele>73.2</ele>
        <time>2022-05-28T13:21:26Z</time>
      </trkpt>
      <trkpt lat="49.86399" lon="2.40036">
        <ele>73.2</ele>
        <time>2022-05-28T13:21:27Z</time>
      </trkpt>
      <trkpt lat="49.864" lon="2.40035">
        <ele>72.9</ele>
        <time>2022-05-28T13:21:28Z</time>
      </trkpt>
      <trkpt lat="49.86401" lon="2.40035">
        <ele>72.9</ele>
        <time>2022-05-28T13:21:29Z</time>
      </trkpt>
      <trkpt lat="49.86402" lon="2.40035">
        <ele>72.9</ele>
        <time>2022-05-28T13:21:30Z</time>
      </trkpt>
      <trkpt lat="49.86403" lon="2.40035">
        <ele>72.7</ele>
        <time>2022-05-28T13:21:31Z</time>
      </trkpt>
      <trkpt lat="49.86404" lon="2.40034">
        <ele>72.7</ele>
        <time>2022-05-28T13:21:32Z</time>
      </trkpt>
      <trkpt lat="49.86405" lon="2.40034">
        <ele>72.5</ele>
        <time>2022-05-28T13:21:33Z</time>
      </trkpt>
      <trkpt lat="49.86406" lon="2.40033">
        <ele>72.3</ele>
        <time>2022-05-28T13:21:34Z</time>
      </trkpt>
      <trkpt lat="49.86407" lon="2.40033">
        <ele>72.3</ele>
        <time>2022-05-28T13:21:35Z</time>
      </trkpt>
      <trkpt lat="49.86408" lon="2.40032">
        <ele>72</ele>
        <time>2022-05-28T13:21:36Z</time>
      </trkpt>
      <trkpt lat="49.86408" lon="2.40032">
        <ele>72</ele>
        <time>2022-05-28T13:21:37Z</time>
      </trkpt>
      <trkpt lat="49.86409" lon="2.40031">
        <ele>72</ele>
        <time>2022-05-28T13:21:38Z</time>
      </trkpt>
      <trkpt lat="49.86411" lon="2.4003">
        <ele>71.8</ele>
        <time>2022-05-28T13:21:39Z</time>
      </trkpt>
      <trkpt lat="49.86412" lon="2.4003">
        <ele>71.6</ele>
        <time>2022-05-28T13:21:40Z</time>
      </trkpt>
      <trkpt lat="49.86413" lon="2.40029">
        <ele>71.6</ele>
        <time>2022-05-28T13:21:41Z</time>
      </trkpt>
      <trkpt lat="49.86414" lon="2.40029">
        <ele>71.4</ele>
        <time>2022-05-28T13:21:42Z</time>
      </trkpt>
      <trkpt lat="49.86414" lon="2.40028">
        <ele>71.4</ele>
        <time>2022-05-28T13:21:43Z</time>
      </trkpt>
      <trkpt lat="49.86415" lon="2.40028">
        <ele>71.4</ele>
        <time>2022-05-28T13:21:44Z</time>
      </trkpt>
      <trkpt lat="49.86415" lon="2.40027">
        <ele>71.4</ele>
        <time>2022-05-28T13:21:45Z</time>
      </trkpt>
      <trkpt lat="49.86416" lon="2.40027">
        <ele>71.1</ele>
        <time>2022-05-28T13:21:46Z</time>
      </trkpt>
      <trkpt lat="49.86417" lon="2.40026">
        <ele>71.1</ele>
        <time>2022-05-28T13:21:47Z</time>
      </trkpt>
      <trkpt lat="49.86417" lon="2.40026">
        <ele>71.1</ele>
        <time>2022-05-28T13:21:48Z</time>
      </trkpt>
      <trkpt lat="49.86418" lon="2.40026">
        <ele>71</ele>
        <time>2022-05-28T13:21:49Z</time>
      </trkpt>
      <trkpt lat="49.86419" lon="2.40025">
        <ele>71</ele>
        <time>2022-05-28T13:21:50Z</time>
      </trkpt>
      <trkpt lat="49.86419" lon="2.40025">
        <ele>70.7</ele>
        <time>2022-05-28T13:21:51Z</time>
      </trkpt>
      <trkpt lat="49.8642" lon="2.40024">
        <ele>70.7</ele>
        <time>2022-05-28T13:21:52Z</time>
      </trkpt>
      <trkpt lat="49.8642" lon="2.40024">
        <ele>70.7</ele>
        <time>2022-05-28T13:21:53Z</time>
      </trkpt>
      <trkpt lat="49.86421" lon="2.40024">
        <ele>70.7</ele>
        <time>2022-05-28T13:21:54Z</time>
      </trkpt>
      <trkpt lat="49.86421" lon="2.40024">
        <ele>70.7</ele>
        <time>2022-05-28T13:21:55Z</time>
      </trkpt>
      <trkpt lat="49.86422" lon="2.40023">
        <ele>70.5</ele>
        <time>2022-05-28T13:21:56Z</time>
      </trkpt>
      <trkpt lat="49.86422" lon="2.40023">
        <ele>70.5</ele>
        <time>2022-05-28T13:21:57Z</time>
      </trkpt>
      <trkpt lat="49.86422" lon="2.40023">
        <ele>70.5</ele>
        <time>2022-05-28T13:21:58Z</time>
      </trkpt>
      <trkpt lat="49.86422" lon="2.40023">
        <ele>70.5</ele>
        <time>2022-05-28T13:21:59Z</time>
      </trkpt>
      <trkpt lat="49.86423" lon="2.40022">
        <ele>70.5</ele>
        <time>2022-05-28T13:22:00Z</time>
      </trkpt>
      <trkpt lat="49.86424" lon="2.40022">
        <ele>70.5</ele>
        <time>2022-05-28T13:22:01Z</time>
      </trkpt>
      <trkpt lat="49.86425" lon="2.40021">
        <ele>70.3</ele>
        <time>2022-05-28T13:22:02Z</time>
      </trkpt>
      <trkpt lat="49.86426" lon="2.40021">
        <ele>70.1</ele>
        <time>2022-05-28T13:22:03Z</time>
      </trkpt>
      <trkpt lat="49.86426" lon="2.40021">
        <ele>70.1</ele>
        <time>2022-05-28T13:22:04Z</time>
      </trkpt>
      <trkpt lat="49.86427" lon="2.4002">
        <ele>69.9</ele>
        <time>2022-05-28T13:22:05Z</time>
      </trkpt>
      <trkpt lat="49.86428" lon="2.4002">
        <ele>69.9</ele>
        <time>2022-05-28T13:22:06Z</time>
      </trkpt>
      <trkpt lat="49.86429" lon="2.40019">
        <ele>69.9</ele>
        <time>2022-05-28T13:22:07Z</time>
      </trkpt>
      <trkpt lat="49.86429" lon="2.40019">
        <ele>69.9</ele>
        <time>2022-05-28T13:22:08Z</time>
      </trkpt>
      <trkpt lat="49.8643" lon="2.40018">
        <ele>69.6</ele>
        <time>2022-05-28T13:22:09Z</time>
      </trkpt>
      <trkpt lat="49.86431" lon="2.40018">
        <ele>69.6</ele>
        <time>2022-05-28T13:22:10Z</time>
      </trkpt>
      <trkpt lat="49.86432" lon="2.40017">
        <ele>69.6</ele>
        <time>2022-05-28T13:22:11Z</time>
      </trkpt>
      <trkpt lat="49.86433" lon="2.40017">
        <ele>69.2</ele>
        <time>2022-05-28T13:22:12Z</time>
      </trkpt>
      <trkpt lat="49.86434" lon="2.40016">
        <ele>69.2</ele>
        <time>2022-05-28T13:22:13Z</time>
      </trkpt>
      <trkpt lat="49.86434" lon="2.40016">
        <ele>69.2</ele>
        <time>2022-05-28T13:22:14Z</time>
      </trkpt>
      <trkpt lat="49.86435" lon="2.40015">
        <ele>69.2</ele>
        <time>2022-05-28T13:22:15Z</time>
      </trkpt>
      <trkpt lat="49.86436" lon="2.40015">
        <ele>69</ele>
        <time>2022-05-28T13:22:16Z</time>
      </trkpt>
      <trkpt lat="49.86436" lon="2.40014">
        <ele>69</ele>
        <time>2022-05-28T13:22:17Z</time>
      </trkpt>
      <trkpt lat="49.86437" lon="2.40014">
        <ele>69</ele>
        <time>2022-05-28T13:22:18Z</time>
      </trkpt>
      <trkpt lat="49.86437" lon="2.40014">
        <ele>69</ele>
        <time>2022-05-28T13:22:19Z</time>
      </trkpt>
      <trkpt lat="49.86438" lon="2.40014">
        <ele>69</ele>
        <time>2022-05-28T13:22:20Z</time>
      </trkpt>
      <trkpt lat="49.86438" lon="2.40014">
        <ele>68.8</ele>
        <time>2022-05-28T13:22:21Z</time>
      </trkpt>
      <trkpt lat="49.86439" lon="2.40013">
        <ele>68.8</ele>
        <time>2022-05-28T13:22:22Z</time>
      </trkpt>
      <trkpt lat="49.8644" lon="2.40013">
        <ele>68.8</ele>
        <time>2022-05-28T13:22:23Z</time>
      </trkpt>
      <trkpt lat="49.86441" lon="2.40013">
        <ele>68.6</ele>
        <time>2022-05-28T13:22:24Z</time>
      </trkpt>
      <trkpt lat="49.86441" lon="2.40012">
        <ele>68.4</ele>
        <time>2022-05-28T13:22:25Z</time>
      </trkpt>
      <trkpt lat="49.86442" lon="2.40012">
        <ele>68.4</ele>
        <time>2022-05-28T13:22:26Z</time>
      </trkpt>
      <trkpt lat="49.86442" lon="2.40011">
        <ele>68.4</ele>
        <time>2022-05-28T13:22:27Z</time>
      </trkpt>
      <trkpt lat="49.86442" lon="2.40011">
        <ele>68.4</ele>
        <time>2022-05-28T13:22:28Z</time>
      </trkpt>
      <trkpt lat="49.86443" lon="2.40011">
        <ele>68.4</ele>
        <time>2022-05-28T13:22:29Z</time>
      </trkpt>
      <trkpt lat="49.86443" lon="2.40011">
        <ele>68.4</ele>
        <time>2022-05-28T13:22:30Z</time>
      </trkpt>
      <trkpt lat="49.86443" lon="2.40011">
        <ele>68.4</ele>
        <time>2022-05-28T13:22:31Z</time>
      </trkpt>
      <trkpt lat="49.86444" lon="2.40011">
        <ele>68.2</ele>
        <time>2022-05-28T13:22:32Z</time>
      </trkpt>
      <trkpt lat="49.86444" lon="2.40011">
        <ele>68.2</ele>
        <time>2022-05-28T13:22:33Z</time>
      </trkpt>
      <trkpt lat="49.86444" lon="2.4001">
        <ele>68.2</ele>
        <time>2022-05-28T13:22:34Z</time>
      </trkpt>
      <trkpt lat="49.86445" lon="2.4001">
        <ele>68.2</ele>
        <time>2022-05-28T13:22:35Z</time>
      </trkpt>
      <trkpt lat="49.86445" lon="2.4001">
        <ele>68.2</ele>
        <time>2022-05-28T13:22:36Z</time>
      </trkpt>
      <trkpt lat="49.86446" lon="2.40009">
        <ele>68.2</ele>
        <time>2022-05-28T13:22:37Z</time>
      </trkpt>
      <trkpt lat="49.86446" lon="2.40009">
        <ele>68.2</ele>
        <time>2022-05-28T13:22:38Z</time>
      </trkpt>
      <trkpt lat="49.86447" lon="2.40009">
        <ele>67.9</ele>
        <time>2022-05-28T13:22:39Z</time>
      </trkpt>
      <trkpt lat="49.86447" lon="2.40009">
        <ele>67.9</ele>
        <time>2022-05-28T13:22:40Z</time>
      </trkpt>
      <trkpt lat="49.86447" lon="2.40009">
        <ele>67.9</ele>
        <time>2022-05-28T13:22:41Z</time>
      </trkpt>
      <trkpt lat="49.86448" lon="2.40008">
        <ele>67.8</ele>
        <time>2022-05-28T13:22:42Z</time>
      </trkpt>
      <trkpt lat="49.86448" lon="2.40008">
        <ele>67.8</ele>
        <time>2022-05-28T13:22:43Z</time>
      </trkpt>
      <trkpt lat="49.86449" lon="2.40007">
        <ele>67.8</ele>
        <time>2022-05-28T13:22:44Z</time>
      </trkpt>
      <trkpt lat="49.8645" lon="2.40007">
        <ele>67.6</ele>
        <time>2022-05-28T13:22:45Z</time>
      </trkpt>
      <trkpt lat="49.8645" lon="2.40006">
        <ele>67.6</ele>
        <time>2022-05-28T13:22:46Z</time>
      </trkpt>
      <trkpt lat="49.86451" lon="2.40005">
        <ele>67.6</ele>
        <time>2022-05-28T13:22:47Z</time>
      </trkpt>
      <trkpt lat="49.86452" lon="2.40005">
        <ele>67.6</ele>
        <time>2022-05-28T13:22:48Z</time>
      </trkpt>
      <trkpt lat="49.86452" lon="2.40004">
        <ele>67.4</ele>
        <time>2022-05-28T13:22:49Z</time>
      </trkpt>
      <trkpt lat="49.86453" lon="2.40004">
        <ele>67.2</ele>
        <time>2022-05-28T13:22:50Z</time>
      </trkpt>
      <trkpt lat="49.86453" lon="2.40004">
        <ele>67.2</ele>
        <time>2022-05-28T13:22:51Z</time>
      </trkpt>
      <trkpt lat="49.86453" lon="2.40003">
        <ele>67.2</ele>
        <time>2022-05-28T13:22:52Z</time>
      </trkpt>
      <trkpt lat="49.86454" lon="2.40002">
        <ele>67.2</ele>
        <time>2022-05-28T13:22:53Z</time>
      </trkpt>
      <trkpt lat="49.86454" lon="2.40002">
        <ele>67.2</ele>
        <time>2022-05-28T13:22:54Z</time>
      </trkpt>
      <trkpt lat="49.86455" lon="2.4">
        <ele>67</ele>
        <time>2022-05-28T13:22:55Z</time>
      </trkpt>
      <trkpt lat="49.86457" lon="2.39999">
        <ele>66.9</ele>
        <time>2022-05-28T13:22:56Z</time>
      </trkpt>
      <trkpt lat="49.86458" lon="2.39998">
        <ele>66.7</ele>
        <time>2022-05-28T13:22:57Z</time>
      </trkpt>
      <trkpt lat="49.86459" lon="2.39997">
        <ele>66.7</ele>
        <time>2022-05-28T13:22:58Z</time>
      </trkpt>
      <trkpt lat="49.8646" lon="2.39996">
        <ele>66.7</ele>
        <time>2022-05-28T13:22:59Z</time>
      </trkpt>
      <trkpt lat="49.8646" lon="2.39995">
        <ele>66.4</ele>
        <time>2022-05-28T13:23:00Z</time>
      </trkpt>
      <trkpt lat="49.86461" lon="2.39994">
        <ele>66.4</ele>
        <time>2022-05-28T13:23:01Z</time>
      </trkpt>
      <trkpt lat="49.86462" lon="2.39993">
        <ele>66.4</ele>
        <time>2022-05-28T13:23:02Z</time>
      </trkpt>
      <trkpt lat="49.86462" lon="2.39992">
        <ele>66.4</ele>
        <time>2022-05-28T13:23:03Z</time>
      </trkpt>
      <trkpt lat="49.86462" lon="2.39992">
        <ele>66.4</ele>
        <time>2022-05-28T13:23:04Z</time>
      </trkpt>
      <trkpt lat="49.86463" lon="2.39991">
        <ele>66.3</ele>
        <time>2022-05-28T13:23:05Z</time>
      </trkpt>
      <trkpt lat="49.86463" lon="2.3999">
        <ele>66.3</ele>
        <time>2022-05-28T13:23:06Z</time>
      </trkpt>
      <trkpt lat="49.86463" lon="2.39989">
        <ele>66.3</ele>
        <time>2022-05-28T13:23:07Z</time>
      </trkpt>
      <trkpt lat="49.86463" lon="2.39989">
        <ele>66.3</ele>
        <time>2022-05-28T13:23:08Z</time>
      </trkpt>
      <trkpt lat="49.86463" lon="2.39989">
        <ele>66.3</ele>
        <time>2022-05-28T13:23:09Z</time>
      </trkpt>
      <trkpt lat="49.86463" lon="2.39989">
        <ele>66.3</ele>
        <time>2022-05-28T13:23:10Z</time>
      </trkpt>
      <trkpt lat="49.86463" lon="2.39989">
        <ele>66.3</ele>
        <time>2022-05-28T13:23:11Z</time>
      </trkpt>
      <trkpt lat="49.86462" lon="2.39989">
        <ele>66.3</ele>
        <time>2022-05-28T13:23:12Z</time>
      </trkpt>
      <trkpt lat="49.86462" lon="2.39989">
        <ele>66.3</ele>
        <time>2022-05-28T13:23:13Z</time>
      </trkpt>
      <trkpt lat="49.86463" lon="2.39988">
        <ele>66.3</ele>
        <time>2022-05-28T13:23:14Z</time>
      </trkpt>
      <trkpt lat="49.86463" lon="2.39988">
        <ele>66.3</ele>
        <time>2022-05-28T13:23:15Z</time>
      </trkpt>
      <trkpt lat="49.86463" lon="2.39987">
        <ele>66.3</ele>
        <time>2022-05-28T13:23:16Z</time>
      </trkpt>
      <trkpt lat="49.86463" lon="2.39984">
        <ele>66.1</ele>
        <time>2022-05-28T13:23:17Z</time>
      </trkpt>
      <trkpt lat="49.86463" lon="2.39983">
        <ele>66</ele>
        <time>2022-05-28T13:23:18Z</time>
      </trkpt>
      <trkpt lat="49.86464" lon="2.39981">
        <ele>66</ele>
        <time>2022-05-28T13:23:19Z</time>
      </trkpt>
      <trkpt lat="49.86464" lon="2.3998">
        <ele>66</ele>
        <time>2022-05-28T13:23:20Z</time>
      </trkpt>
      <trkpt lat="49.86464" lon="2.3998">
        <ele>66</ele>
        <time>2022-05-28T13:23:21Z</time>
      </trkpt>
      <trkpt lat="49.86464" lon="2.39979">
        <ele>66</ele>
        <time>2022-05-28T13:23:22Z</time>
      </trkpt>
      <trkpt lat="49.86464" lon="2.39979">
        <ele>66</ele>
        <time>2022-05-28T13:23:23Z</time>
      </trkpt>
      <trkpt lat="49.86464" lon="2.39979">
        <ele>66</ele>
        <time>2022-05-28T13:23:24Z</time>
      </trkpt>
      <trkpt lat="49.86464" lon="2.39979">
        <ele>66</ele>
        <time>2022-05-28T13:23:25Z</time>
      </trkpt>
      <trkpt lat="49.86464" lon="2.39978">
        <ele>66</ele>
        <time>2022-05-28T13:23:26Z</time>
      </trkpt>
      <trkpt lat="49.86464" lon="2.39978">
        <ele>65.9</ele>
        <time>2022-05-28T13:23:27Z</time>
      </trkpt>
      <trkpt lat="49.86464" lon="2.39978">
        <ele>65.9</ele>
        <time>2022-05-28T13:23:28Z</time>
      </trkpt>
      <trkpt lat="49.86465" lon="2.39977">
        <ele>65.9</ele>
        <time>2022-05-28T13:23:29Z</time>
      </trkpt>
      <trkpt lat="49.86465" lon="2.39976">
        <ele>65.9</ele>
        <time>2022-05-28T13:23:30Z</time>
      </trkpt>
      <trkpt lat="49.86465" lon="2.39975">
        <ele>65.9</ele>
        <time>2022-05-28T13:23:31Z</time>
      </trkpt>
      <trkpt lat="49.86465" lon="2.39974">
        <ele>65.9</ele>
        <time>2022-05-28T13:23:32Z</time>
      </trkpt>
      <trkpt lat="49.86465" lon="2.39973">
        <ele>65.8</ele>
        <time>2022-05-28T13:23:33Z</time>
      </trkpt>
      <trkpt lat="49.86465" lon="2.39973">
        <ele>65.8</ele>
        <time>2022-05-28T13:23:34Z</time>
      </trkpt>
      <trkpt lat="49.86465" lon="2.39972">
        <ele>65.8</ele>
        <time>2022-05-28T13:23:35Z</time>
      </trkpt>
      <trkpt lat="49.86465" lon="2.39972">
        <ele>65.8</ele>
        <time>2022-05-28T13:23:36Z</time>
      </trkpt>
      <trkpt lat="49.86466" lon="2.39972">
        <ele>65.8</ele>
        <time>2022-05-28T13:23:37Z</time>
      </trkpt>
      <trkpt lat="49.86466" lon="2.39971">
        <ele>65.7</ele>
        <time>2022-05-28T13:23:38Z</time>
      </trkpt>
      <trkpt lat="49.86466" lon="2.39969">
        <ele>65.6</ele>
        <time>2022-05-28T13:23:39Z</time>
      </trkpt>
      <trkpt lat="49.86466" lon="2.39968">
        <ele>65.6</ele>
        <time>2022-05-28T13:23:40Z</time>
      </trkpt>
      <trkpt lat="49.86466" lon="2.39966">
        <ele>65.6</ele>
        <time>2022-05-28T13:23:41Z</time>
      </trkpt>
      <trkpt lat="49.86467" lon="2.39965">
        <ele>65.5</ele>
        <time>2022-05-28T13:23:42Z</time>
      </trkpt>
      <trkpt lat="49.86467" lon="2.39964">
        <ele>65.5</ele>
        <time>2022-05-28T13:23:43Z</time>
      </trkpt>
      <trkpt lat="49.86467" lon="2.39963">
        <ele>65.5</ele>
        <time>2022-05-28T13:23:44Z</time>
      </trkpt>
      <trkpt lat="49.86467" lon="2.39962">
        <ele>65.5</ele>
        <time>2022-05-28T13:23:45Z</time>
      </trkpt>
      <trkpt lat="49.86468" lon="2.39961">
        <ele>65.5</ele>
        <time>2022-05-28T13:23:46Z</time>
      </trkpt>
      <trkpt lat="49.86468" lon="2.3996">
        <ele>65.5</ele>
        <time>2022-05-28T13:23:47Z</time>
      </trkpt>
      <trkpt lat="49.86468" lon="2.39958">
        <ele>65.5</ele>
        <time>2022-05-28T13:23:48Z</time>
      </trkpt>
      <trkpt lat="49.86469" lon="2.39958">
        <ele>65.3</ele>
        <time>2022-05-28T13:23:49Z</time>
      </trkpt>
      <trkpt lat="49.86469" lon="2.39957">
        <ele>65.3</ele>
        <time>2022-05-28T13:23:50Z</time>
      </trkpt>
      <trkpt lat="49.86469" lon="2.39956">
        <ele>65.3</ele>
        <time>2022-05-28T13:23:51Z</time>
      </trkpt>
      <trkpt lat="49.86469" lon="2.39956">
        <ele>65.3</ele>
        <time>2022-05-28T13:23:52Z</time>
      </trkpt>
      <trkpt lat="49.8647" lon="2.39956">
        <ele>65.3</ele>
        <time>2022-05-28T13:23:53Z</time>
      </trkpt>
      <trkpt lat="49.8647" lon="2.39955">
        <ele>65.3</ele>
        <time>2022-05-28T13:23:54Z</time>
      </trkpt>
      <trkpt lat="49.8647" lon="2.39955">
        <ele>65.3</ele>
        <time>2022-05-28T13:23:55Z</time>
      </trkpt>
      <trkpt lat="49.8647" lon="2.39955">
        <ele>65.3</ele>
        <time>2022-05-28T13:23:56Z</time>
      </trkpt>
      <trkpt lat="49.8647" lon="2.39955">
        <ele>65.3</ele>
        <time>2022-05-28T13:23:57Z</time>
      </trkpt>
      <trkpt lat="49.86471" lon="2.39955">
        <ele>65.3</ele>
        <time>2022-05-28T13:23:58Z</time>
      </trkpt>
      <trkpt lat="49.86472" lon="2.39954">
        <ele>65.1</ele>
        <time>2022-05-28T13:23:59Z</time>
      </trkpt>
      <trkpt lat="49.86473" lon="2.39954">
        <ele>65.1</ele>
        <time>2022-05-28T13:24:00Z</time>
      </trkpt>
      <trkpt lat="49.86474" lon="2.39954">
        <ele>65.1</ele>
        <time>2022-05-28T13:24:01Z</time>
      </trkpt>
      <trkpt lat="49.86474" lon="2.39954">
        <ele>65</ele>
        <time>2022-05-28T13:24:02Z</time>
      </trkpt>
      <trkpt lat="49.86475" lon="2.39954">
        <ele>65</ele>
        <time>2022-05-28T13:24:03Z</time>
      </trkpt>
      <trkpt lat="49.86475" lon="2.39954">
        <ele>65</ele>
        <time>2022-05-28T13:24:04Z</time>
      </trkpt>
      <trkpt lat="49.86476" lon="2.39954">
        <ele>65</ele>
        <time>2022-05-28T13:24:05Z</time>
      </trkpt>
      <trkpt lat="49.86476" lon="2.39954">
        <ele>65</ele>
        <time>2022-05-28T13:24:06Z</time>
      </trkpt>
      <trkpt lat="49.86476" lon="2.39954">
        <ele>65</ele>
        <time>2022-05-28T13:24:07Z</time>
      </trkpt>
      <trkpt lat="49.86477" lon="2.39954">
        <ele>65</ele>
        <time>2022-05-28T13:24:08Z</time>
      </trkpt>
      <trkpt lat="49.86477" lon="2.39954">
        <ele>65</ele>
        <time>2022-05-28T13:24:09Z</time>
      </trkpt>
      <trkpt lat="49.86476" lon="2.39954">
        <ele>65</ele>
        <time>2022-05-28T13:24:10Z</time>
      </trkpt>
      <trkpt lat="49.86476" lon="2.39954">
        <ele>65</ele>
        <time>2022-05-28T13:24:11Z</time>
      </trkpt>
      <trkpt lat="49.86476" lon="2.39954">
        <ele>65</ele>
        <time>2022-05-28T13:24:12Z</time>
      </trkpt>
      <trkpt lat="49.86476" lon="2.39954">
        <ele>65</ele>
        <time>2022-05-28T13:24:13Z</time>
      </trkpt>
      <trkpt lat="49.86476" lon="2.39954">
        <ele>65</ele>
        <time>2022-05-28T13:24:14Z</time>
      </trkpt>
      <trkpt lat="49.86476" lon="2.39954">
        <ele>65</ele>
        <time>2022-05-28T13:24:15Z</time>
      </trkpt>
      <trkpt lat="49.86476" lon="2.39954">
        <ele>65</ele>
        <time>2022-05-28T13:24:16Z</time>
      </trkpt>
      <trkpt lat="49.86477" lon="2.39954">
        <ele>65</ele>
        <time>2022-05-28T13:24:17Z</time>
      </trkpt>
      <trkpt lat="49.86477" lon="2.39954">
        <ele>64.9</ele>
        <time>2022-05-28T13:24:18Z</time>
      </trkpt>
      <trkpt lat="49.86478" lon="2.39954">
        <ele>64.9</ele>
        <time>2022-05-28T13:24:19Z</time>
      </trkpt>
      <trkpt lat="49.86478" lon="2.39954">
        <ele>64.9</ele>
        <time>2022-05-28T13:24:20Z</time>
      </trkpt>
      <trkpt lat="49.86478" lon="2.39954">
        <ele>64.9</ele>
        <time>2022-05-28T13:24:21Z</time>
      </trkpt>
      <trkpt lat="49.86478" lon="2.39954">
        <ele>64.9</ele>
        <time>2022-05-28T13:24:22Z</time>
      </trkpt>
      <trkpt lat="49.86478" lon="2.39954">
        <ele>64.9</ele>
        <time>2022-05-28T13:24:23Z</time>
      </trkpt>
      <trkpt lat="49.86478" lon="2.39954">
        <ele>64.9</ele>
        <time>2022-05-28T13:24:24Z</time>
      </trkpt>
      <trkpt lat="49.86478" lon="2.39954">
        <ele>64.9</ele>
        <time>2022-05-28T13:24:25Z</time>
      </trkpt>
      <trkpt lat="49.86478" lon="2.39954">
        <ele>64.9</ele>
        <time>2022-05-28T13:24:26Z</time>
      </trkpt>
      <trkpt lat="49.86478" lon="2.39954">
        <ele>64.9</ele>
        <time>2022-05-28T13:24:27Z</time>
      </trkpt>
      <trkpt lat="49.86477" lon="2.39953">
        <ele>64.9</ele>
        <time>2022-05-28T13:24:28Z</time>
      </trkpt>
      <trkpt lat="49.86477" lon="2.39952">
        <ele>64.9</ele>
        <time>2022-05-28T13:24:29Z</time>
      </trkpt>
      <trkpt lat="49.86477" lon="2.3995">
        <ele>65</ele>
        <time>2022-05-28T13:24:30Z</time>
      </trkpt>
      <trkpt lat="49.86477" lon="2.39949">
        <ele>65</ele>
        <time>2022-05-28T13:24:31Z</time>
      </trkpt>
      <trkpt lat="49.86476" lon="2.39948">
        <ele>64.9</ele>
        <time>2022-05-28T13:24:32Z</time>
      </trkpt>
      <trkpt lat="49.86476" lon="2.39947">
        <ele>64.9</ele>
        <time>2022-05-28T13:24:33Z</time>
      </trkpt>
      <trkpt lat="49.86476" lon="2.39946">
        <ele>64.9</ele>
        <time>2022-05-28T13:24:34Z</time>
      </trkpt>
      <trkpt lat="49.86476" lon="2.39946">
        <ele>64.9</ele>
        <time>2022-05-28T13:24:35Z</time>
      </trkpt>
      <trkpt lat="49.86476" lon="2.39946">
        <ele>64.9</ele>
        <time>2022-05-28T13:24:36Z</time>
      </trkpt>
      <trkpt lat="49.86476" lon="2.39945">
        <ele>64.9</ele>
        <time>2022-05-28T13:24:37Z</time>
      </trkpt>
      <trkpt lat="49.86476" lon="2.39945">
        <ele>64.9</ele>
        <time>2022-05-28T13:24:38Z</time>
      </trkpt>
      <trkpt lat="49.86476" lon="2.39945">
        <ele>64.9</ele>
        <time>2022-05-28T13:24:39Z</time>
      </trkpt>
      <trkpt lat="49.86476" lon="2.39945">
        <ele>64.9</ele>
        <time>2022-05-28T13:24:40Z</time>
      </trkpt>
      <trkpt lat="49.86476" lon="2.39945">
        <ele>64.9</ele>
        <time>2022-05-28T13:24:41Z</time>
      </trkpt>
      <trkpt lat="49.86476" lon="2.39945">
        <ele>64.9</ele>
        <time>2022-05-28T13:24:42Z</time>
      </trkpt>
      <trkpt lat="49.86476" lon="2.39945">
        <ele>64.9</ele>
        <time>2022-05-28T13:24:43Z</time>
      </trkpt>
      <trkpt lat="49.86476" lon="2.39946">
        <ele>64.9</ele>
        <time>2022-05-28T13:24:44Z</time>
      </trkpt>
      <trkpt lat="49.86476" lon="2.39946">
        <ele>64.9</ele>
        <time>2022-05-28T13:24:45Z</time>
      </trkpt>
      <trkpt lat="49.86476" lon="2.39946">
        <ele>64.9</ele>
        <time>2022-05-28T13:24:46Z</time>
      </trkpt>
      <trkpt lat="49.86476" lon="2.39946">
        <ele>64.9</ele>
        <time>2022-05-28T13:24:47Z</time>
      </trkpt>
      <trkpt lat="49.86476" lon="2.39946">
        <ele>64.9</ele>
        <time>2022-05-28T13:24:48Z</time>
      </trkpt>
      <trkpt lat="49.86476" lon="2.39946">
        <ele>64.9</ele>
        <time>2022-05-28T13:24:49Z</time>
      </trkpt>
      <trkpt lat="49.86476" lon="2.39946">
        <ele>64.9</ele>
        <time>2022-05-28T13:24:50Z</time>
      </trkpt>
      <trkpt lat="49.86476" lon="2.39945">
        <ele>64.9</ele>
        <time>2022-05-28T13:24:51Z</time>
      </trkpt>
      <trkpt lat="49.86476" lon="2.39944">
        <ele>64.9</ele>
        <time>2022-05-28T13:24:52Z</time>
      </trkpt>
      <trkpt lat="49.86477" lon="2.39943">
        <ele>64.9</ele>
        <time>2022-05-28T13:24:53Z</time>
      </trkpt>
      <trkpt lat="49.86477" lon="2.39942">
        <ele>64.8</ele>
        <time>2022-05-28T13:24:54Z</time>
      </trkpt>
      <trkpt lat="49.86477" lon="2.39942">
        <ele>64.8</ele>
        <time>2022-05-28T13:24:55Z</time>
      </trkpt>
      <trkpt lat="49.86478" lon="2.39942">
        <ele>64.8</ele>
        <time>2022-05-28T13:24:56Z</time>
      </trkpt>
      <trkpt lat="49.86478" lon="2.39941">
        <ele>64.8</ele>
        <time>2022-05-28T13:24:57Z</time>
      </trkpt>
      <trkpt lat="49.86479" lon="2.39941">
        <ele>64.8</ele>
        <time>2022-05-28T13:24:58Z</time>
      </trkpt>
      <trkpt lat="49.8648" lon="2.3994">
        <ele>64.7</ele>
        <time>2022-05-28T13:24:59Z</time>
      </trkpt>
      <trkpt lat="49.86481" lon="2.3994">
        <ele>64.7</ele>
        <time>2022-05-28T13:25:00Z</time>
      </trkpt>
      <trkpt lat="49.86481" lon="2.3994">
        <ele>64.7</ele>
        <time>2022-05-28T13:25:01Z</time>
      </trkpt>
      <trkpt lat="49.86482" lon="2.39939">
        <ele>64.7</ele>
        <time>2022-05-28T13:25:02Z</time>
      </trkpt>
      <trkpt lat="49.86483" lon="2.39939">
        <ele>64.7</ele>
        <time>2022-05-28T13:25:03Z</time>
      </trkpt>
      <trkpt lat="49.86484" lon="2.39939">
        <ele>64.7</ele>
        <time>2022-05-28T13:25:04Z</time>
      </trkpt>
      <trkpt lat="49.86485" lon="2.39939">
        <ele>64.6</ele>
        <time>2022-05-28T13:25:05Z</time>
      </trkpt>
      <trkpt lat="49.86486" lon="2.39939">
        <ele>64.6</ele>
        <time>2022-05-28T13:25:06Z</time>
      </trkpt>
      <trkpt lat="49.86486" lon="2.39939">
        <ele>64.6</ele>
        <time>2022-05-28T13:25:07Z</time>
      </trkpt>
      <trkpt lat="49.86487" lon="2.39939">
        <ele>64.6</ele>
        <time>2022-05-28T13:25:08Z</time>
      </trkpt>
      <trkpt lat="49.86488" lon="2.39938">
        <ele>64.6</ele>
        <time>2022-05-28T13:25:09Z</time>
      </trkpt>
      <trkpt lat="49.86488" lon="2.39939">
        <ele>64.6</ele>
        <time>2022-05-28T13:25:10Z</time>
      </trkpt>
      <trkpt lat="49.86489" lon="2.39938">
        <ele>64.6</ele>
        <time>2022-05-28T13:25:11Z</time>
      </trkpt>
      <trkpt lat="49.8649" lon="2.39939">
        <ele>64.5</ele>
        <time>2022-05-28T13:25:12Z</time>
      </trkpt>
      <trkpt lat="49.86491" lon="2.39939">
        <ele>64.5</ele>
        <time>2022-05-28T13:25:13Z</time>
      </trkpt>
      <trkpt lat="49.86492" lon="2.39939">
        <ele>64.5</ele>
        <time>2022-05-28T13:25:14Z</time>
      </trkpt>
      <trkpt lat="49.86493" lon="2.39938">
        <ele>64.5</ele>
        <time>2022-05-28T13:25:15Z</time>
      </trkpt>
      <trkpt lat="49.86494" lon="2.39938">
        <ele>64.5</ele>
        <time>2022-05-28T13:25:16Z</time>
      </trkpt>
      <trkpt lat="49.86494" lon="2.39939">
        <ele>64.5</ele>
        <time>2022-05-28T13:25:17Z</time>
      </trkpt>
      <trkpt lat="49.86495" lon="2.39938">
        <ele>64.5</ele>
        <time>2022-05-28T13:25:18Z</time>
      </trkpt>
      <trkpt lat="49.86497" lon="2.39938">
        <ele>64.4</ele>
        <time>2022-05-28T13:25:19Z</time>
      </trkpt>
      <trkpt lat="49.86498" lon="2.39938">
        <ele>64.4</ele>
        <time>2022-05-28T13:25:20Z</time>
      </trkpt>
      <trkpt lat="49.86498" lon="2.39938">
        <ele>64.4</ele>
        <time>2022-05-28T13:25:21Z</time>
      </trkpt>
      <trkpt lat="49.86499" lon="2.39938">
        <ele>64.4</ele>
        <time>2022-05-28T13:25:22Z</time>
      </trkpt>
      <trkpt lat="49.865" lon="2.39938">
        <ele>64.4</ele>
        <time>2022-05-28T13:25:23Z</time>
      </trkpt>
      <trkpt lat="49.865" lon="2.39938">
        <ele>64.4</ele>
        <time>2022-05-28T13:25:24Z</time>
      </trkpt>
      <trkpt lat="49.86501" lon="2.39938">
        <ele>64.4</ele>
        <time>2022-05-28T13:25:25Z</time>
      </trkpt>
      <trkpt lat="49.86502" lon="2.39939">
        <ele>64.4</ele>
        <time>2022-05-28T13:25:26Z</time>
      </trkpt>
      <trkpt lat="49.86503" lon="2.39939">
        <ele>64.3</ele>
        <time>2022-05-28T13:25:27Z</time>
      </trkpt>
      <trkpt lat="49.86503" lon="2.39939">
        <ele>64.3</ele>
        <time>2022-05-28T13:25:28Z</time>
      </trkpt>
      <trkpt lat="49.86504" lon="2.39939">
        <ele>64.3</ele>
        <time>2022-05-28T13:25:29Z</time>
      </trkpt>
      <trkpt lat="49.86505" lon="2.39939">
        <ele>64.3</ele>
        <time>2022-05-28T13:25:30Z</time>
      </trkpt>
      <trkpt lat="49.86505" lon="2.3994">
        <ele>64.3</ele>
        <time>2022-05-28T13:25:31Z</time>
      </trkpt>
      <trkpt lat="49.86507" lon="2.3994">
        <ele>64.3</ele>
        <time>2022-05-28T13:25:32Z</time>
      </trkpt>
      <trkpt lat="49.86508" lon="2.3994">
        <ele>64.3</ele>
        <time>2022-05-28T13:25:33Z</time>
      </trkpt>
      <trkpt lat="49.8651" lon="2.3994">
        <ele>64.2</ele>
        <time>2022-05-28T13:25:34Z</time>
      </trkpt>
      <trkpt lat="49.86511" lon="2.3994">
        <ele>64.2</ele>
        <time>2022-05-28T13:25:35Z</time>
      </trkpt>
      <trkpt lat="49.86512" lon="2.3994">
        <ele>64.2</ele>
        <time>2022-05-28T13:25:36Z</time>
      </trkpt>
      <trkpt lat="49.86513" lon="2.3994">
        <ele>64.2</ele>
        <time>2022-05-28T13:25:37Z</time>
      </trkpt>
      <trkpt lat="49.86514" lon="2.3994">
        <ele>64.2</ele>
        <time>2022-05-28T13:25:38Z</time>
      </trkpt>
      <trkpt lat="49.86515" lon="2.3994">
        <ele>64.2</ele>
        <time>2022-05-28T13:25:39Z</time>
      </trkpt>
      <trkpt lat="49.86516" lon="2.3994">
        <ele>64.1</ele>
        <time>2022-05-28T13:25:40Z</time>
      </trkpt>
      <trkpt lat="49.86518" lon="2.3994">
        <ele>64.1</ele>
        <time>2022-05-28T13:25:41Z</time>
      </trkpt>
      <trkpt lat="49.86519" lon="2.3994">
        <ele>64.1</ele>
        <time>2022-05-28T13:25:42Z</time>
      </trkpt>
      <trkpt lat="49.8652" lon="2.3994">
        <ele>64.1</ele>
        <time>2022-05-28T13:25:43Z</time>
      </trkpt>
      <trkpt lat="49.86523" lon="2.39941">
        <ele>64</ele>
        <time>2022-05-28T13:25:44Z</time>
      </trkpt>
      <trkpt lat="49.86524" lon="2.39941">
        <ele>64</ele>
        <time>2022-05-28T13:25:45Z</time>
      </trkpt>
      <trkpt lat="49.86525" lon="2.3994">
        <ele>64</ele>
        <time>2022-05-28T13:25:46Z</time>
      </trkpt>
      <trkpt lat="49.86526" lon="2.3994">
        <ele>64</ele>
        <time>2022-05-28T13:25:47Z</time>
      </trkpt>
      <trkpt lat="49.86527" lon="2.3994">
        <ele>64</ele>
        <time>2022-05-28T13:25:48Z</time>
      </trkpt>
      <trkpt lat="49.86529" lon="2.3994">
        <ele>64</ele>
        <time>2022-05-28T13:25:49Z</time>
      </trkpt>
      <trkpt lat="49.8653" lon="2.3994">
        <ele>63.9</ele>
        <time>2022-05-28T13:25:50Z</time>
      </trkpt>
      <trkpt lat="49.8653" lon="2.3994">
        <ele>63.9</ele>
        <time>2022-05-28T13:25:51Z</time>
      </trkpt>
      <trkpt lat="49.86532" lon="2.3994">
        <ele>63.9</ele>
        <time>2022-05-28T13:25:52Z</time>
      </trkpt>
      <trkpt lat="49.86532" lon="2.39939">
        <ele>63.9</ele>
        <time>2022-05-28T13:25:53Z</time>
      </trkpt>
      <trkpt lat="49.86534" lon="2.39939">
        <ele>63.9</ele>
        <time>2022-05-28T13:25:54Z</time>
      </trkpt>
      <trkpt lat="49.86534" lon="2.39939">
        <ele>63.9</ele>
        <time>2022-05-28T13:25:55Z</time>
      </trkpt>
      <trkpt lat="49.86535" lon="2.39938">
        <ele>63.9</ele>
        <time>2022-05-28T13:25:56Z</time>
      </trkpt>
      <trkpt lat="49.86536" lon="2.39938">
        <ele>63.9</ele>
        <time>2022-05-28T13:25:57Z</time>
      </trkpt>
      <trkpt lat="49.86536" lon="2.39938">
        <ele>63.9</ele>
        <time>2022-05-28T13:25:58Z</time>
      </trkpt>
      <trkpt lat="49.86536" lon="2.39938">
        <ele>63.9</ele>
        <time>2022-05-28T13:25:59Z</time>
      </trkpt>
      <trkpt lat="49.86536" lon="2.39938">
        <ele>63.9</ele>
        <time>2022-05-28T13:26:00Z</time>
      </trkpt>
      <trkpt lat="49.86536" lon="2.39938">
        <ele>63.9</ele>
        <time>2022-05-28T13:26:01Z</time>
      </trkpt>
      <trkpt lat="49.86537" lon="2.39937">
        <ele>63.9</ele>
        <time>2022-05-28T13:26:02Z</time>
      </trkpt>
      <trkpt lat="49.86537" lon="2.39937">
        <ele>63.9</ele>
        <time>2022-05-28T13:26:03Z</time>
      </trkpt>
      <trkpt lat="49.86537" lon="2.39937">
        <ele>63.9</ele>
        <time>2022-05-28T13:26:04Z</time>
      </trkpt>
      <trkpt lat="49.86537" lon="2.39937">
        <ele>63.9</ele>
        <time>2022-05-28T13:26:05Z</time>
      </trkpt>
      <trkpt lat="49.86537" lon="2.39937">
        <ele>63.9</ele>
        <time>2022-05-28T13:26:06Z</time>
      </trkpt>
      <trkpt lat="49.86537" lon="2.39937">
        <ele>63.9</ele>
        <time>2022-05-28T13:26:07Z</time>
      </trkpt>
      <trkpt lat="49.86537" lon="2.39937">
        <ele>63.9</ele>
        <time>2022-05-28T13:26:08Z</time>
      </trkpt>
      <trkpt lat="49.86537" lon="2.39937">
        <ele>63.9</ele>
        <time>2022-05-28T13:26:09Z</time>
      </trkpt>
      <trkpt lat="49.86537" lon="2.39937">
        <ele>63.9</ele>
        <time>2022-05-28T13:26:10Z</time>
      </trkpt>
      <trkpt lat="49.86537" lon="2.39937">
        <ele>63.9</ele>
        <time>2022-05-28T13:26:11Z</time>
      </trkpt>
      <trkpt lat="49.86538" lon="2.39937">
        <ele>63.9</ele>
        <time>2022-05-28T13:26:12Z</time>
      </trkpt>
      <trkpt lat="49.86538" lon="2.39937">
        <ele>63.9</ele>
        <time>2022-05-28T13:26:13Z</time>
      </trkpt>
      <trkpt lat="49.86538" lon="2.39937">
        <ele>63.8</ele>
        <time>2022-05-28T13:26:14Z</time>
      </trkpt>
      <trkpt lat="49.86538" lon="2.39937">
        <ele>63.8</ele>
        <time>2022-05-28T13:26:15Z</time>
      </trkpt>
      <trkpt lat="49.86538" lon="2.39936">
        <ele>63.8</ele>
        <time>2022-05-28T13:26:16Z</time>
      </trkpt>
      <trkpt lat="49.86538" lon="2.39936">
        <ele>63.8</ele>
        <time>2022-05-28T13:26:17Z</time>
      </trkpt>
      <trkpt lat="49.86538" lon="2.39936">
        <ele>63.8</ele>
        <time>2022-05-28T13:26:18Z</time>
      </trkpt>
      <trkpt lat="49.86538" lon="2.39936">
        <ele>63.8</ele>
        <time>2022-05-28T13:26:19Z</time>
      </trkpt>
      <trkpt lat="49.86538" lon="2.39936">
        <ele>63.8</ele>
        <time>2022-05-28T13:26:20Z</time>
      </trkpt>
      <trkpt lat="49.86538" lon="2.39936">
        <ele>63.8</ele>
        <time>2022-05-28T13:26:21Z</time>
      </trkpt>
      <trkpt lat="49.86538" lon="2.39936">
        <ele>63.8</ele>
        <time>2022-05-28T13:26:22Z</time>
      </trkpt>
      <trkpt lat="49.86539" lon="2.39936">
        <ele>63.8</ele>
        <time>2022-05-28T13:26:23Z</time>
      </trkpt>
      <trkpt lat="49.86539" lon="2.39936">
        <ele>63.8</ele>
        <time>2022-05-28T13:26:24Z</time>
      </trkpt>
      <trkpt lat="49.86539" lon="2.39936">
        <ele>63.8</ele>
        <time>2022-05-28T13:26:25Z</time>
      </trkpt>
      <trkpt lat="49.86539" lon="2.39936">
        <ele>63.8</ele>
        <time>2022-05-28T13:26:26Z</time>
      </trkpt>
      <trkpt lat="49.86539" lon="2.39936">
        <ele>63.8</ele>
        <time>2022-05-28T13:26:27Z</time>
      </trkpt>
      <trkpt lat="49.86539" lon="2.39936">
        <ele>63.8</ele>
        <time>2022-05-28T13:26:28Z</time>
      </trkpt>
      <trkpt lat="49.86539" lon="2.39936">
        <ele>63.8</ele>
        <time>2022-05-28T13:26:29Z</time>
      </trkpt>
      <trkpt lat="49.8654" lon="2.39935">
        <ele>63.8</ele>
        <time>2022-05-28T13:26:30Z</time>
      </trkpt>
      <trkpt lat="49.86541" lon="2.39935">
        <ele>63.8</ele>
        <time>2022-05-28T13:26:31Z</time>
      </trkpt>
      <trkpt lat="49.86542" lon="2.39935">
        <ele>63.8</ele>
        <time>2022-05-28T13:26:32Z</time>
      </trkpt>
      <trkpt lat="49.86542" lon="2.39934">
        <ele>63.8</ele>
        <time>2022-05-28T13:26:33Z</time>
      </trkpt>
      <trkpt lat="49.86542" lon="2.39934">
        <ele>63.8</ele>
        <time>2022-05-28T13:26:34Z</time>
      </trkpt>
      <trkpt lat="49.86542" lon="2.39934">
        <ele>63.8</ele>
        <time>2022-05-28T13:26:35Z</time>
      </trkpt>
      <trkpt lat="49.86542" lon="2.39934">
        <ele>63.8</ele>
        <time>2022-05-28T13:26:36Z</time>
      </trkpt>
      <trkpt lat="49.86541" lon="2.39935">
        <ele>63.8</ele>
        <time>2022-05-28T13:26:37Z</time>
      </trkpt>
      <trkpt lat="49.86541" lon="2.39935">
        <ele>63.8</ele>
        <time>2022-05-28T13:26:38Z</time>
      </trkpt>
      <trkpt lat="49.86541" lon="2.39935">
        <ele>63.8</ele>
        <time>2022-05-28T13:26:39Z</time>
      </trkpt>
      <trkpt lat="49.86541" lon="2.39935">
        <ele>63.8</ele>
        <time>2022-05-28T13:26:40Z</time>
      </trkpt>
      <trkpt lat="49.86541" lon="2.39935">
        <ele>63.8</ele>
        <time>2022-05-28T13:26:41Z</time>
      </trkpt>
      <trkpt lat="49.86541" lon="2.39935">
        <ele>63.8</ele>
        <time>2022-05-28T13:26:42Z</time>
      </trkpt>
      <trkpt lat="49.8654" lon="2.39936">
        <ele>63.8</ele>
        <time>2022-05-28T13:26:43Z</time>
      </trkpt>
      <trkpt lat="49.86539" lon="2.39937">
        <ele>63.8</ele>
        <time>2022-05-28T13:26:44Z</time>
      </trkpt>
      <trkpt lat="49.86539" lon="2.39937">
        <ele>63.8</ele>
        <time>2022-05-28T13:26:45Z</time>
      </trkpt>
      <trkpt lat="49.8654" lon="2.39937">
        <ele>63.8</ele>
        <time>2022-05-28T13:26:46Z</time>
      </trkpt>
      <trkpt lat="49.8654" lon="2.39937">
        <ele>63.8</ele>
        <time>2022-05-28T13:26:47Z</time>
      </trkpt>
      <trkpt lat="49.8654" lon="2.39938">
        <ele>63.8</ele>
        <time>2022-05-28T13:26:48Z</time>
      </trkpt>
      <trkpt lat="49.86541" lon="2.39938">
        <ele>63.8</ele>
        <time>2022-05-28T13:26:49Z</time>
      </trkpt>
      <trkpt lat="49.86542" lon="2.39938">
        <ele>63.8</ele>
        <time>2022-05-28T13:26:50Z</time>
      </trkpt>
      <trkpt lat="49.86542" lon="2.39938">
        <ele>63.8</ele>
        <time>2022-05-28T13:26:51Z</time>
      </trkpt>
      <trkpt lat="49.86543" lon="2.39939">
        <ele>63.8</ele>
        <time>2022-05-28T13:26:52Z</time>
      </trkpt>
      <trkpt lat="49.86544" lon="2.3994">
        <ele>63.8</ele>
        <time>2022-05-28T13:26:53Z</time>
      </trkpt>
      <trkpt lat="49.86546" lon="2.39941">
        <ele>63.8</ele>
        <time>2022-05-28T13:26:54Z</time>
      </trkpt>
      <trkpt lat="49.86547" lon="2.39942">
        <ele>63.8</ele>
        <time>2022-05-28T13:26:55Z</time>
      </trkpt>
      <trkpt lat="49.86548" lon="2.39942">
        <ele>63.8</ele>
        <time>2022-05-28T13:26:56Z</time>
      </trkpt>
      <trkpt lat="49.86549" lon="2.39942">
        <ele>63.8</ele>
        <time>2022-05-28T13:26:57Z</time>
      </trkpt>
      <trkpt lat="49.8655" lon="2.39942">
        <ele>63.8</ele>
        <time>2022-05-28T13:26:58Z</time>
      </trkpt>
      <trkpt lat="49.86551" lon="2.39941">
        <ele>63.8</ele>
        <time>2022-05-28T13:26:59Z</time>
      </trkpt>
      <trkpt lat="49.86551" lon="2.39941">
        <ele>63.8</ele>
        <time>2022-05-28T13:27:00Z</time>
      </trkpt>
      <trkpt lat="49.86552" lon="2.39941">
        <ele>63.8</ele>
        <time>2022-05-28T13:27:01Z</time>
      </trkpt>
      <trkpt lat="49.86552" lon="2.39941">
        <ele>63.8</ele>
        <time>2022-05-28T13:27:02Z</time>
      </trkpt>
      <trkpt lat="49.86553" lon="2.3994">
        <ele>63.8</ele>
        <time>2022-05-28T13:27:03Z</time>
      </trkpt>
      <trkpt lat="49.86553" lon="2.3994">
        <ele>63.8</ele>
        <time>2022-05-28T13:27:04Z</time>
      </trkpt>
      <trkpt lat="49.86552" lon="2.3994">
        <ele>63.8</ele>
        <time>2022-05-28T13:27:05Z</time>
      </trkpt>
      <trkpt lat="49.86552" lon="2.3994">
        <ele>63.8</ele>
        <time>2022-05-28T13:27:06Z</time>
      </trkpt>
      <trkpt lat="49.86552" lon="2.3994">
        <ele>63.8</ele>
        <time>2022-05-28T13:27:07Z</time>
      </trkpt>
      <trkpt lat="49.86551" lon="2.3994">
        <ele>63.8</ele>
        <time>2022-05-28T13:27:08Z</time>
      </trkpt>
      <trkpt lat="49.86551" lon="2.3994">
        <ele>63.8</ele>
        <time>2022-05-28T13:27:09Z</time>
      </trkpt>
      <trkpt lat="49.8655" lon="2.39939">
        <ele>63.8</ele>
        <time>2022-05-28T13:27:10Z</time>
      </trkpt>
      <trkpt lat="49.8655" lon="2.39939">
        <ele>63.8</ele>
        <time>2022-05-28T13:27:11Z</time>
      </trkpt>
      <trkpt lat="49.86549" lon="2.39939">
        <ele>63.8</ele>
        <time>2022-05-28T13:27:13Z</time>
      </trkpt>
      <trkpt lat="49.86549" lon="2.39938">
        <ele>63.8</ele>
        <time>2022-05-28T13:27:14Z</time>
      </trkpt>
      <trkpt lat="49.86549" lon="2.39938">
        <ele>63.8</ele>
        <time>2022-05-28T13:27:15Z</time>
      </trkpt>
      <trkpt lat="49.86548" lon="2.39938">
        <ele>63.8</ele>
        <time>2022-05-28T13:27:16Z</time>
      </trkpt>
      <trkpt lat="49.86548" lon="2.39938">
        <ele>63.8</ele>
        <time>2022-05-28T13:27:17Z</time>
      </trkpt>
      <trkpt lat="49.86548" lon="2.39938">
        <ele>63.8</ele>
        <time>2022-05-28T13:27:18Z</time>
      </trkpt>
      <trkpt lat="49.86548" lon="2.39938">
        <ele>63.8</ele>
        <time>2022-05-28T13:27:19Z</time>
      </trkpt>
      <trkpt lat="49.86548" lon="2.39938">
        <ele>63.8</ele>
        <time>2022-05-28T13:27:20Z</time>
      </trkpt>
      <trkpt lat="49.86548" lon="2.39938">
        <ele>63.8</ele>
        <time>2022-05-28T13:27:22Z</time>
      </trkpt>
      <trkpt lat="49.86548" lon="2.39938">
        <ele>63.8</ele>
        <time>2022-05-28T13:27:23Z</time>
      </trkpt>
      <trkpt lat="49.86549" lon="2.39938">
        <ele>63.8</ele>
        <time>2022-05-28T13:27:24Z</time>
      </trkpt>
      <trkpt lat="49.8655" lon="2.39938">
        <ele>63.8</ele>
        <time>2022-05-28T13:27:25Z</time>
      </trkpt>
      <trkpt lat="49.86551" lon="2.39938">
        <ele>63.8</ele>
        <time>2022-05-28T13:27:26Z</time>
      </trkpt>
      <trkpt lat="49.86552" lon="2.39938">
        <ele>63.8</ele>
        <time>2022-05-28T13:27:27Z</time>
      </trkpt>
      <trkpt lat="49.86552" lon="2.39938">
        <ele>63.9</ele>
        <time>2022-05-28T13:27:28Z</time>
      </trkpt>
      <trkpt lat="49.86553" lon="2.39938">
        <ele>63.9</ele>
        <time>2022-05-28T13:27:29Z</time>
      </trkpt>
      <trkpt lat="49.86554" lon="2.39938">
        <ele>63.9</ele>
        <time>2022-05-28T13:27:30Z</time>
      </trkpt>
      <trkpt lat="49.86555" lon="2.39937">
        <ele>63.9</ele>
        <time>2022-05-28T13:27:31Z</time>
      </trkpt>
      <trkpt lat="49.86556" lon="2.39937">
        <ele>63.9</ele>
        <time>2022-05-28T13:27:32Z</time>
      </trkpt>
      <trkpt lat="49.86557" lon="2.39937">
        <ele>63.9</ele>
        <time>2022-05-28T13:27:33Z</time>
      </trkpt>
      <trkpt lat="49.86558" lon="2.39936">
        <ele>63.9</ele>
        <time>2022-05-28T13:27:34Z</time>
      </trkpt>
      <trkpt lat="49.8656" lon="2.39936">
        <ele>63.9</ele>
        <time>2022-05-28T13:27:35Z</time>
      </trkpt>
      <trkpt lat="49.86561" lon="2.39936">
        <ele>63.9</ele>
        <time>2022-05-28T13:27:36Z</time>
      </trkpt>
      <trkpt lat="49.86561" lon="2.39936">
        <ele>63.9</ele>
        <time>2022-05-28T13:27:37Z</time>
      </trkpt>
      <trkpt lat="49.86562" lon="2.39936">
        <ele>63.9</ele>
        <time>2022-05-28T13:27:38Z</time>
      </trkpt>
      <trkpt lat="49.86563" lon="2.39936">
        <ele>63.9</ele>
        <time>2022-05-28T13:27:39Z</time>
      </trkpt>
      <trkpt lat="49.86564" lon="2.39936">
        <ele>63.9</ele>
        <time>2022-05-28T13:27:40Z</time>
      </trkpt>
      <trkpt lat="49.86565" lon="2.39936">
        <ele>63.9</ele>
        <time>2022-05-28T13:27:41Z</time>
      </trkpt>
      <trkpt lat="49.86567" lon="2.39936">
        <ele>63.9</ele>
        <time>2022-05-28T13:27:42Z</time>
      </trkpt>
      <trkpt lat="49.86568" lon="2.39937">
        <ele>63.9</ele>
        <time>2022-05-28T13:27:43Z</time>
      </trkpt>
      <trkpt lat="49.86569" lon="2.39937">
        <ele>63.9</ele>
        <time>2022-05-28T13:27:44Z</time>
      </trkpt>
      <trkpt lat="49.86571" lon="2.39937">
        <ele>63.9</ele>
        <time>2022-05-28T13:27:45Z</time>
      </trkpt>
      <trkpt lat="49.86572" lon="2.39937">
        <ele>64</ele>
        <time>2022-05-28T13:27:46Z</time>
      </trkpt>
      <trkpt lat="49.86573" lon="2.39937">
        <ele>64</ele>
        <time>2022-05-28T13:27:47Z</time>
      </trkpt>
      <trkpt lat="49.86574" lon="2.39937">
        <ele>64</ele>
        <time>2022-05-28T13:27:48Z</time>
      </trkpt>
      <trkpt lat="49.86575" lon="2.39937">
        <ele>64</ele>
        <time>2022-05-28T13:27:49Z</time>
      </trkpt>
      <trkpt lat="49.86576" lon="2.39937">
        <ele>64</ele>
        <time>2022-05-28T13:27:50Z</time>
      </trkpt>
      <trkpt lat="49.86577" lon="2.39937">
        <ele>64</ele>
        <time>2022-05-28T13:27:51Z</time>
      </trkpt>
      <trkpt lat="49.86578" lon="2.39937">
        <ele>64</ele>
        <time>2022-05-28T13:27:52Z</time>
      </trkpt>
      <trkpt lat="49.86579" lon="2.39936">
        <ele>64</ele>
        <time>2022-05-28T13:27:53Z</time>
      </trkpt>
      <trkpt lat="49.8658" lon="2.39936">
        <ele>64</ele>
        <time>2022-05-28T13:27:54Z</time>
      </trkpt>
      <trkpt lat="49.86581" lon="2.39936">
        <ele>64</ele>
        <time>2022-05-28T13:27:55Z</time>
      </trkpt>
      <trkpt lat="49.86582" lon="2.39936">
        <ele>64</ele>
        <time>2022-05-28T13:27:56Z</time>
      </trkpt>
      <trkpt lat="49.86583" lon="2.39936">
        <ele>64</ele>
        <time>2022-05-28T13:27:57Z</time>
      </trkpt>
      <trkpt lat="49.86584" lon="2.39936">
        <ele>64</ele>
        <time>2022-05-28T13:27:58Z</time>
      </trkpt>
      <trkpt lat="49.86585" lon="2.39936">
        <ele>64</ele>
        <time>2022-05-28T13:27:59Z</time>
      </trkpt>
      <trkpt lat="49.86587" lon="2.39936">
        <ele>64</ele>
        <time>2022-05-28T13:28:00Z</time>
      </trkpt>
      <trkpt lat="49.86587" lon="2.39936">
        <ele>64</ele>
        <time>2022-05-28T13:28:01Z</time>
      </trkpt>
      <trkpt lat="49.86588" lon="2.39936">
        <ele>64</ele>
        <time>2022-05-28T13:28:02Z</time>
      </trkpt>
      <trkpt lat="49.86589" lon="2.39936">
        <ele>64</ele>
        <time>2022-05-28T13:28:03Z</time>
      </trkpt>
      <trkpt lat="49.8659" lon="2.39936">
        <ele>64</ele>
        <time>2022-05-28T13:28:04Z</time>
      </trkpt>
      <trkpt lat="49.86591" lon="2.39936">
        <ele>64</ele>
        <time>2022-05-28T13:28:05Z</time>
      </trkpt>
      <trkpt lat="49.86591" lon="2.39937">
        <ele>64</ele>
        <time>2022-05-28T13:28:06Z</time>
      </trkpt>
      <trkpt lat="49.86592" lon="2.39937">
        <ele>64</ele>
        <time>2022-05-28T13:28:07Z</time>
      </trkpt>
      <trkpt lat="49.86593" lon="2.39937">
        <ele>64</ele>
        <time>2022-05-28T13:28:08Z</time>
      </trkpt>
      <trkpt lat="49.86594" lon="2.39937">
        <ele>64</ele>
        <time>2022-05-28T13:28:09Z</time>
      </trkpt>
      <trkpt lat="49.86595" lon="2.39937">
        <ele>64</ele>
        <time>2022-05-28T13:28:10Z</time>
      </trkpt>
      <trkpt lat="49.86595" lon="2.39937">
        <ele>64</ele>
        <time>2022-05-28T13:28:11Z</time>
      </trkpt>
      <trkpt lat="49.86597" lon="2.39937">
        <ele>64</ele>
        <time>2022-05-28T13:28:12Z</time>
      </trkpt>
      <trkpt lat="49.86597" lon="2.39937">
        <ele>64</ele>
        <time>2022-05-28T13:28:13Z</time>
      </trkpt>
      <trkpt lat="49.86598" lon="2.39937">
        <ele>64</ele>
        <time>2022-05-28T13:28:14Z</time>
      </trkpt>
      <trkpt lat="49.86599" lon="2.39937">
        <ele>64</ele>
        <time>2022-05-28T13:28:15Z</time>
      </trkpt>
      <trkpt lat="49.866" lon="2.39937">
        <ele>64</ele>
        <time>2022-05-28T13:28:16Z</time>
      </trkpt>
      <trkpt lat="49.86601" lon="2.39937">
        <ele>64</ele>
        <time>2022-05-28T13:28:17Z</time>
      </trkpt>
      <trkpt lat="49.86602" lon="2.39937">
        <ele>64</ele>
        <time>2022-05-28T13:28:18Z</time>
      </trkpt>
      <trkpt lat="49.86602" lon="2.39937">
        <ele>64</ele>
        <time>2022-05-28T13:28:19Z</time>
      </trkpt>
      <trkpt lat="49.86603" lon="2.39936">
        <ele>64</ele>
        <time>2022-05-28T13:28:20Z</time>
      </trkpt>
      <trkpt lat="49.86604" lon="2.39936">
        <ele>64</ele>
        <time>2022-05-28T13:28:21Z</time>
      </trkpt>
      <trkpt lat="49.86605" lon="2.39936">
        <ele>64</ele>
        <time>2022-05-28T13:28:22Z</time>
      </trkpt>
      <trkpt lat="49.86606" lon="2.39936">
        <ele>64</ele>
        <time>2022-05-28T13:28:23Z</time>
      </trkpt>
      <trkpt lat="49.86607" lon="2.39936">
        <ele>64</ele>
        <time>2022-05-28T13:28:24Z</time>
      </trkpt>
      <trkpt lat="49.86608" lon="2.39935">
        <ele>64</ele>
        <time>2022-05-28T13:28:25Z</time>
      </trkpt>
      <trkpt lat="49.86609" lon="2.39935">
        <ele>64</ele>
        <time>2022-05-28T13:28:26Z</time>
      </trkpt>
      <trkpt lat="49.8661" lon="2.39935">
        <ele>64</ele>
        <time>2022-05-28T13:28:27Z</time>
      </trkpt>
      <trkpt lat="49.8661" lon="2.39935">
        <ele>64</ele>
        <time>2022-05-28T13:28:28Z</time>
      </trkpt>
      <trkpt lat="49.86611" lon="2.39935">
        <ele>64</ele>
        <time>2022-05-28T13:28:29Z</time>
      </trkpt>
      <trkpt lat="49.86613" lon="2.39935">
        <ele>64</ele>
        <time>2022-05-28T13:28:30Z</time>
      </trkpt>
      <trkpt lat="49.86614" lon="2.39935">
        <ele>64</ele>
        <time>2022-05-28T13:28:31Z</time>
      </trkpt>
      <trkpt lat="49.86615" lon="2.39935">
        <ele>64</ele>
        <time>2022-05-28T13:28:32Z</time>
      </trkpt>
      <trkpt lat="49.86615" lon="2.39935">
        <ele>64</ele>
        <time>2022-05-28T13:28:33Z</time>
      </trkpt>
      <trkpt lat="49.86616" lon="2.39935">
        <ele>64</ele>
        <time>2022-05-28T13:28:34Z</time>
      </trkpt>
      <trkpt lat="49.86618" lon="2.39935">
        <ele>64</ele>
        <time>2022-05-28T13:28:35Z</time>
      </trkpt>
      <trkpt lat="49.86619" lon="2.39934">
        <ele>64</ele>
        <time>2022-05-28T13:28:36Z</time>
      </trkpt>
      <trkpt lat="49.8662" lon="2.39934">
        <ele>63.9</ele>
        <time>2022-05-28T13:28:37Z</time>
      </trkpt>
      <trkpt lat="49.86621" lon="2.39933">
        <ele>63.9</ele>
        <time>2022-05-28T13:28:38Z</time>
      </trkpt>
      <trkpt lat="49.86622" lon="2.39933">
        <ele>63.9</ele>
        <time>2022-05-28T13:28:39Z</time>
      </trkpt>
      <trkpt lat="49.86623" lon="2.39933">
        <ele>63.9</ele>
        <time>2022-05-28T13:28:40Z</time>
      </trkpt>
      <trkpt lat="49.86624" lon="2.39932">
        <ele>63.9</ele>
        <time>2022-05-28T13:28:41Z</time>
      </trkpt>
      <trkpt lat="49.86625" lon="2.39932">
        <ele>63.9</ele>
        <time>2022-05-28T13:28:42Z</time>
      </trkpt>
      <trkpt lat="49.86626" lon="2.39931">
        <ele>63.9</ele>
        <time>2022-05-28T13:28:43Z</time>
      </trkpt>
      <trkpt lat="49.86627" lon="2.3993">
        <ele>63.9</ele>
        <time>2022-05-28T13:28:44Z</time>
      </trkpt>
      <trkpt lat="49.86627" lon="2.3993">
        <ele>63.9</ele>
        <time>2022-05-28T13:28:45Z</time>
      </trkpt>
      <trkpt lat="49.86627" lon="2.3993">
        <ele>63.9</ele>
        <time>2022-05-28T13:28:46Z</time>
      </trkpt>
      <trkpt lat="49.86628" lon="2.3993">
        <ele>63.9</ele>
        <time>2022-05-28T13:28:47Z</time>
      </trkpt>
      <trkpt lat="49.86629" lon="2.3993">
        <ele>63.9</ele>
        <time>2022-05-28T13:28:48Z</time>
      </trkpt>
      <trkpt lat="49.8663" lon="2.3993">
        <ele>63.9</ele>
        <time>2022-05-28T13:28:49Z</time>
      </trkpt>
      <trkpt lat="49.86631" lon="2.3993">
        <ele>63.9</ele>
        <time>2022-05-28T13:28:50Z</time>
      </trkpt>
      <trkpt lat="49.86632" lon="2.3993">
        <ele>63.9</ele>
        <time>2022-05-28T13:28:51Z</time>
      </trkpt>
      <trkpt lat="49.86633" lon="2.3993">
        <ele>63.8</ele>
        <time>2022-05-28T13:28:52Z</time>
      </trkpt>
      <trkpt lat="49.86634" lon="2.3993">
        <ele>63.8</ele>
        <time>2022-05-28T13:28:53Z</time>
      </trkpt>
      <trkpt lat="49.86635" lon="2.3993">
        <ele>63.8</ele>
        <time>2022-05-28T13:28:54Z</time>
      </trkpt>
      <trkpt lat="49.86636" lon="2.3993">
        <ele>63.8</ele>
        <time>2022-05-28T13:28:55Z</time>
      </trkpt>
      <trkpt lat="49.86636" lon="2.3993">
        <ele>63.8</ele>
        <time>2022-05-28T13:28:56Z</time>
      </trkpt>
      <trkpt lat="49.86637" lon="2.3993">
        <ele>63.8</ele>
        <time>2022-05-28T13:28:57Z</time>
      </trkpt>
      <trkpt lat="49.86637" lon="2.3993">
        <ele>63.8</ele>
        <time>2022-05-28T13:28:58Z</time>
      </trkpt>
      <trkpt lat="49.86637" lon="2.3993">
        <ele>63.8</ele>
        <time>2022-05-28T13:28:59Z</time>
      </trkpt>
      <trkpt lat="49.86637" lon="2.3993">
        <ele>63.8</ele>
        <time>2022-05-28T13:29:00Z</time>
      </trkpt>
      <trkpt lat="49.86637" lon="2.39931">
        <ele>63.8</ele>
        <time>2022-05-28T13:29:01Z</time>
      </trkpt>
      <trkpt lat="49.86637" lon="2.39931">
        <ele>63.8</ele>
        <time>2022-05-28T13:29:02Z</time>
      </trkpt>
      <trkpt lat="49.86637" lon="2.39931">
        <ele>63.8</ele>
        <time>2022-05-28T13:29:03Z</time>
      </trkpt>
      <trkpt lat="49.86637" lon="2.39931">
        <ele>63.8</ele>
        <time>2022-05-28T13:29:04Z</time>
      </trkpt>
      <trkpt lat="49.86637" lon="2.39931">
        <ele>63.8</ele>
        <time>2022-05-28T13:29:05Z</time>
      </trkpt>
      <trkpt lat="49.86637" lon="2.39931">
        <ele>63.8</ele>
        <time>2022-05-28T13:29:06Z</time>
      </trkpt>
      <trkpt lat="49.86637" lon="2.39931">
        <ele>63.8</ele>
        <time>2022-05-28T13:29:07Z</time>
      </trkpt>
      <trkpt lat="49.86637" lon="2.39931">
        <ele>63.8</ele>
        <time>2022-05-28T13:29:08Z</time>
      </trkpt>
      <trkpt lat="49.86637" lon="2.39931">
        <ele>63.8</ele>
        <time>2022-05-28T13:29:09Z</time>
      </trkpt>
      <trkpt lat="49.86637" lon="2.39931">
        <ele>63.8</ele>
        <time>2022-05-28T13:29:10Z</time>
      </trkpt>
      <trkpt lat="49.86637" lon="2.39931">
        <ele>63.8</ele>
        <time>2022-05-28T13:29:11Z</time>
      </trkpt>
      <trkpt lat="49.86637" lon="2.39931">
        <ele>63.8</ele>
        <time>2022-05-28T13:29:12Z</time>
      </trkpt>
      <trkpt lat="49.86637" lon="2.39931">
        <ele>63.8</ele>
        <time>2022-05-28T13:29:13Z</time>
      </trkpt>
      <trkpt lat="49.86637" lon="2.39931">
        <ele>63.8</ele>
        <time>2022-05-28T13:29:14Z</time>
      </trkpt>
      <trkpt lat="49.86637" lon="2.39931">
        <ele>63.8</ele>
        <time>2022-05-28T13:29:15Z</time>
      </trkpt>
      <trkpt lat="49.86637" lon="2.39931">
        <ele>63.8</ele>
        <time>2022-05-28T13:29:16Z</time>
      </trkpt>
      <trkpt lat="49.86637" lon="2.39931">
        <ele>63.8</ele>
        <time>2022-05-28T13:29:17Z</time>
      </trkpt>
      <trkpt lat="49.86637" lon="2.39931">
        <ele>63.8</ele>
        <time>2022-05-28T13:29:18Z</time>
      </trkpt>
      <trkpt lat="49.86637" lon="2.39931">
        <ele>63.8</ele>
        <time>2022-05-28T13:29:19Z</time>
      </trkpt>
      <trkpt lat="49.86637" lon="2.39931">
        <ele>63.8</ele>
        <time>2022-05-28T13:29:20Z</time>
      </trkpt>
      <trkpt lat="49.86637" lon="2.39931">
        <ele>63.8</ele>
        <time>2022-05-28T13:29:21Z</time>
      </trkpt>
      <trkpt lat="49.86637" lon="2.39931">
        <ele>63.8</ele>
        <time>2022-05-28T13:29:22Z</time>
      </trkpt>
      <trkpt lat="49.86637" lon="2.39931">
        <ele>63.8</ele>
        <time>2022-05-28T13:29:23Z</time>
      </trkpt>
      <trkpt lat="49.86637" lon="2.39931">
        <ele>63.8</ele>
        <time>2022-05-28T13:29:24Z</time>
      </trkpt>
      <trkpt lat="49.86637" lon="2.39931">
        <ele>63.8</ele>
        <time>2022-05-28T13:29:25Z</time>
      </trkpt>
      <trkpt lat="49.86637" lon="2.39931">
        <ele>63.8</ele>
        <time>2022-05-28T13:29:26Z</time>
      </trkpt>
      <trkpt lat="49.86637" lon="2.39931">
        <ele>63.8</ele>
        <time>2022-05-28T13:29:27Z</time>
      </trkpt>
      <trkpt lat="49.86637" lon="2.39931">
        <ele>63.8</ele>
        <time>2022-05-28T13:29:28Z</time>
      </trkpt>
      <trkpt lat="49.86637" lon="2.39931">
        <ele>63.8</ele>
        <time>2022-05-28T13:29:29Z</time>
      </trkpt>
      <trkpt lat="49.86637" lon="2.39931">
        <ele>63.8</ele>
        <time>2022-05-28T13:29:30Z</time>
      </trkpt>
      <trkpt lat="49.86637" lon="2.39931">
        <ele>63.8</ele>
        <time>2022-05-28T13:29:31Z</time>
      </trkpt>
      <trkpt lat="49.86637" lon="2.39931">
        <ele>63.8</ele>
        <time>2022-05-28T13:29:32Z</time>
      </trkpt>
      <trkpt lat="49.86637" lon="2.39931">
        <ele>63.8</ele>
        <time>2022-05-28T13:29:33Z</time>
      </trkpt>
      <trkpt lat="49.86637" lon="2.39931">
        <ele>63.8</ele>
        <time>2022-05-28T13:29:34Z</time>
      </trkpt>
      <trkpt lat="49.86637" lon="2.39931">
        <ele>63.8</ele>
        <time>2022-05-28T13:29:35Z</time>
      </trkpt>
      <trkpt lat="49.86637" lon="2.39931">
        <ele>63.8</ele>
        <time>2022-05-28T13:29:36Z</time>
      </trkpt>
      <trkpt lat="49.86637" lon="2.39931">
        <ele>63.8</ele>
        <time>2022-05-28T13:29:37Z</time>
      </trkpt>
      <trkpt lat="49.86637" lon="2.39931">
        <ele>63.8</ele>
        <time>2022-05-28T13:29:38Z</time>
      </trkpt>
      <trkpt lat="49.86637" lon="2.39931">
        <ele>63.8</ele>
        <time>2022-05-28T13:29:39Z</time>
      </trkpt>
      <trkpt lat="49.86637" lon="2.39931">
        <ele>63.8</ele>
        <time>2022-05-28T13:29:40Z</time>
      </trkpt>
      <trkpt lat="49.86637" lon="2.39931">
        <ele>63.8</ele>
        <time>2022-05-28T13:29:41Z</time>
      </trkpt>
      <trkpt lat="49.86637" lon="2.39931">
        <ele>63.8</ele>
        <time>2022-05-28T13:29:42Z</time>
      </trkpt>
      <trkpt lat="49.86637" lon="2.39931">
        <ele>63.8</ele>
        <time>2022-05-28T13:29:43Z</time>
      </trkpt>
      <trkpt lat="49.86637" lon="2.39931">
        <ele>63.8</ele>
        <time>2022-05-28T13:29:44Z</time>
      </trkpt>
      <trkpt lat="49.86637" lon="2.39931">
        <ele>63.8</ele>
        <time>2022-05-28T13:29:45Z</time>
      </trkpt>
      <trkpt lat="49.86637" lon="2.39931">
        <ele>63.8</ele>
        <time>2022-05-28T13:29:46Z</time>
      </trkpt>
      <trkpt lat="49.86637" lon="2.39931">
        <ele>63.8</ele>
        <time>2022-05-28T13:29:47Z</time>
      </trkpt>
      <trkpt lat="49.86637" lon="2.39931">
        <ele>63.8</ele>
        <time>2022-05-28T13:29:48Z</time>
      </trkpt>
      <trkpt lat="49.86637" lon="2.39931">
        <ele>63.8</ele>
        <time>2022-05-28T13:29:49Z</time>
      </trkpt>
      <trkpt lat="49.86637" lon="2.39931">
        <ele>63.8</ele>
        <time>2022-05-28T13:29:50Z</time>
      </trkpt>
      <trkpt lat="49.86637" lon="2.39931">
        <ele>63.8</ele>
        <time>2022-05-28T13:29:51Z</time>
      </trkpt>
      <trkpt lat="49.86637" lon="2.39931">
        <ele>63.8</ele>
        <time>2022-05-28T13:29:52Z</time>
      </trkpt>
      <trkpt lat="49.86637" lon="2.39931">
        <ele>63.8</ele>
        <time>2022-05-28T13:29:53Z</time>
      </trkpt>
      <trkpt lat="49.86637" lon="2.39931">
        <ele>63.8</ele>
        <time>2022-05-28T13:29:54Z</time>
      </trkpt>
      <trkpt lat="49.86637" lon="2.39931">
        <ele>63.8</ele>
        <time>2022-05-28T13:29:55Z</time>
      </trkpt>
      <trkpt lat="49.86637" lon="2.39931">
        <ele>63.8</ele>
        <time>2022-05-28T13:29:56Z</time>
      </trkpt>
      <trkpt lat="49.86637" lon="2.39931">
        <ele>63.8</ele>
        <time>2022-05-28T13:29:57Z</time>
      </trkpt>
      <trkpt lat="49.86637" lon="2.39931">
        <ele>63.8</ele>
        <time>2022-05-28T13:29:58Z</time>
      </trkpt>
      <trkpt lat="49.86637" lon="2.39931">
        <ele>63.8</ele>
        <time>2022-05-28T13:29:59Z</time>
      </trkpt>
      <trkpt lat="49.86637" lon="2.39931">
        <ele>63.8</ele>
        <time>2022-05-28T13:30:00Z</time>
      </trkpt>
      <trkpt lat="49.86637" lon="2.39931">
        <ele>63.8</ele>
        <time>2022-05-28T13:30:01Z</time>
      </trkpt>
      <trkpt lat="49.86637" lon="2.39931">
        <ele>63.8</ele>
        <time>2022-05-28T13:30:02Z</time>
      </trkpt>
      <trkpt lat="49.86637" lon="2.39931">
        <ele>63.8</ele>
        <time>2022-05-28T13:30:03Z</time>
      </trkpt>
      <trkpt lat="49.86637" lon="2.39931">
        <ele>63.8</ele>
        <time>2022-05-28T13:30:04Z</time>
      </trkpt>
      <trkpt lat="49.86637" lon="2.39931">
        <ele>63.8</ele>
        <time>2022-05-28T13:30:05Z</time>
      </trkpt>
      <trkpt lat="49.86637" lon="2.39931">
        <ele>63.8</ele>
        <time>2022-05-28T13:30:06Z</time>
      </trkpt>
      <trkpt lat="49.86637" lon="2.39931">
        <ele>63.8</ele>
        <time>2022-05-28T13:30:07Z</time>
      </trkpt>
      <trkpt lat="49.86637" lon="2.39931">
        <ele>63.8</ele>
        <time>2022-05-28T13:30:08Z</time>
      </trkpt>
      <trkpt lat="49.86637" lon="2.39931">
        <ele>63.8</ele>
        <time>2022-05-28T13:30:09Z</time>
      </trkpt>
      <trkpt lat="49.86637" lon="2.39931">
        <ele>63.8</ele>
        <time>2022-05-28T13:30:10Z</time>
      </trkpt>
      <trkpt lat="49.86637" lon="2.39931">
        <ele>63.8</ele>
        <time>2022-05-28T13:30:11Z</time>
      </trkpt>
      <trkpt lat="49.86637" lon="2.39931">
        <ele>63.8</ele>
        <time>2022-05-28T13:30:12Z</time>
      </trkpt>
      <trkpt lat="49.86637" lon="2.39931">
        <ele>63.8</ele>
        <time>2022-05-28T13:30:13Z</time>
      </trkpt>
      <trkpt lat="49.86637" lon="2.39931">
        <ele>63.8</ele>
        <time>2022-05-28T13:30:14Z</time>
      </trkpt>
      <trkpt lat="49.86637" lon="2.39931">
        <ele>63.8</ele>
        <time>2022-05-28T13:30:15Z</time>
      </trkpt>
      <trkpt lat="49.86637" lon="2.39931">
        <ele>63.8</ele>
        <time>2022-05-28T13:30:16Z</time>
      </trkpt>
      <trkpt lat="49.86637" lon="2.39931">
        <ele>63.8</ele>
        <time>2022-05-28T13:30:17Z</time>
      </trkpt>
      <trkpt lat="49.86637" lon="2.39931">
        <ele>63.8</ele>
        <time>2022-05-28T13:30:18Z</time>
      </trkpt>
      <trkpt lat="49.86637" lon="2.39931">
        <ele>63.8</ele>
        <time>2022-05-28T13:30:19Z</time>
      </trkpt>
      <trkpt lat="49.86637" lon="2.39931">
        <ele>63.8</ele>
        <time>2022-05-28T13:30:20Z</time>
      </trkpt>
      <trkpt lat="49.86637" lon="2.39931">
        <ele>63.8</ele>
        <time>2022-05-28T13:30:21Z</time>
      </trkpt>
      <trkpt lat="49.86637" lon="2.39931">
        <ele>63.8</ele>
        <time>2022-05-28T13:30:22Z</time>
      </trkpt>
      <trkpt lat="49.86637" lon="2.39931">
        <ele>63.8</ele>
        <time>2022-05-28T13:30:23Z</time>
      </trkpt>
      <trkpt lat="49.86637" lon="2.39931">
        <ele>63.8</ele>
        <time>2022-05-28T13:30:24Z</time>
      </trkpt>
      <trkpt lat="49.86637" lon="2.39931">
        <ele>63.8</ele>
        <time>2022-05-28T13:30:25Z</time>
      </trkpt>
      <trkpt lat="49.86637" lon="2.39931">
        <ele>63.8</ele>
        <time>2022-05-28T13:30:26Z</time>
      </trkpt>
      <trkpt lat="49.86637" lon="2.39931">
        <ele>63.8</ele>
        <time>2022-05-28T13:30:27Z</time>
      </trkpt>
      <trkpt lat="49.86637" lon="2.39931">
        <ele>63.8</ele>
        <time>2022-05-28T13:30:28Z</time>
      </trkpt>
      <trkpt lat="49.86637" lon="2.39931">
        <ele>63.8</ele>
        <time>2022-05-28T13:30:29Z</time>
      </trkpt>
      <trkpt lat="49.86637" lon="2.39931">
        <ele>63.8</ele>
        <time>2022-05-28T13:30:30Z</time>
      </trkpt>
      <trkpt lat="49.86637" lon="2.39931">
        <ele>63.8</ele>
        <time>2022-05-28T13:30:31Z</time>
      </trkpt>
      <trkpt lat="49.86637" lon="2.39931">
        <ele>63.8</ele>
        <time>2022-05-28T13:30:32Z</time>
      </trkpt>
      <trkpt lat="49.86637" lon="2.39931">
        <ele>63.8</ele>
        <time>2022-05-28T13:30:33Z</time>
      </trkpt>
      <trkpt lat="49.86637" lon="2.39931">
        <ele>63.8</ele>
        <time>2022-05-28T13:30:34Z</time>
      </trkpt>
      <trkpt lat="49.86637" lon="2.39931">
        <ele>63.8</ele>
        <time>2022-05-28T13:30:35Z</time>
      </trkpt>
      <trkpt lat="49.86637" lon="2.39931">
        <ele>63.8</ele>
        <time>2022-05-28T13:30:36Z</time>
      </trkpt>
      <trkpt lat="49.86637" lon="2.39931">
        <ele>63.8</ele>
        <time>2022-05-28T13:30:37Z</time>
      </trkpt>
      <trkpt lat="49.86637" lon="2.39931">
        <ele>63.8</ele>
        <time>2022-05-28T13:30:38Z</time>
      </trkpt>
      <trkpt lat="49.86637" lon="2.39931">
        <ele>63.8</ele>
        <time>2022-05-28T13:30:39Z</time>
      </trkpt>
      <trkpt lat="49.86637" lon="2.39931">
        <ele>63.8</ele>
        <time>2022-05-28T13:30:40Z</time>
      </trkpt>
      <trkpt lat="49.86637" lon="2.39931">
        <ele>63.8</ele>
        <time>2022-05-28T13:30:41Z</time>
      </trkpt>
      <trkpt lat="49.86637" lon="2.39931">
        <ele>63.8</ele>
        <time>2022-05-28T13:30:42Z</time>
      </trkpt>
      <trkpt lat="49.86637" lon="2.39931">
        <ele>63.8</ele>
        <time>2022-05-28T13:30:43Z</time>
      </trkpt>
      <trkpt lat="49.86637" lon="2.39931">
        <ele>63.8</ele>
        <time>2022-05-28T13:30:44Z</time>
      </trkpt>
      <trkpt lat="49.86637" lon="2.39931">
        <ele>63.8</ele>
        <time>2022-05-28T13:30:45Z</time>
      </trkpt>
      <trkpt lat="49.86637" lon="2.39931">
        <ele>63.8</ele>
        <time>2022-05-28T13:30:46Z</time>
      </trkpt>
      <trkpt lat="49.86637" lon="2.39931">
        <ele>63.8</ele>
        <time>2022-05-28T13:30:47Z</time>
      </trkpt>
      <trkpt lat="49.86637" lon="2.39931">
        <ele>63.8</ele>
        <time>2022-05-28T13:30:48Z</time>
      </trkpt>
      <trkpt lat="49.86637" lon="2.39931">
        <ele>63.8</ele>
        <time>2022-05-28T13:30:49Z</time>
      </trkpt>
      <trkpt lat="49.86637" lon="2.39931">
        <ele>63.8</ele>
        <time>2022-05-28T13:30:50Z</time>
      </trkpt>
      <trkpt lat="49.86637" lon="2.39931">
        <ele>63.8</ele>
        <time>2022-05-28T13:30:51Z</time>
      </trkpt>
      <trkpt lat="49.86637" lon="2.39931">
        <ele>63.8</ele>
        <time>2022-05-28T13:30:52Z</time>
      </trkpt>
      <trkpt lat="49.86637" lon="2.39931">
        <ele>63.8</ele>
        <time>2022-05-28T13:30:53Z</time>
      </trkpt>
      <trkpt lat="49.86637" lon="2.39931">
        <ele>63.8</ele>
        <time>2022-05-28T13:30:54Z</time>
      </trkpt>
      <trkpt lat="49.86637" lon="2.39931">
        <ele>63.8</ele>
        <time>2022-05-28T13:30:55Z</time>
      </trkpt>
      <trkpt lat="49.86637" lon="2.39931">
        <ele>63.8</ele>
        <time>2022-05-28T13:30:56Z</time>
      </trkpt>
      <trkpt lat="49.86637" lon="2.39931">
        <ele>63.8</ele>
        <time>2022-05-28T13:30:57Z</time>
      </trkpt>
      <trkpt lat="49.86637" lon="2.39931">
        <ele>63.8</ele>
        <time>2022-05-28T13:30:58Z</time>
      </trkpt>
      <trkpt lat="49.86637" lon="2.39931">
        <ele>63.8</ele>
        <time>2022-05-28T13:30:59Z</time>
      </trkpt>
      <trkpt lat="49.86637" lon="2.39931">
        <ele>63.8</ele>
        <time>2022-05-28T13:31:00Z</time>
      </trkpt>
      <trkpt lat="49.86637" lon="2.39931">
        <ele>63.8</ele>
        <time>2022-05-28T13:31:01Z</time>
      </trkpt>
      <trkpt lat="49.86637" lon="2.39931">
        <ele>63.8</ele>
        <time>2022-05-28T13:31:02Z</time>
      </trkpt>
      <trkpt lat="49.86637" lon="2.39931">
        <ele>63.8</ele>
        <time>2022-05-28T13:31:03Z</time>
      </trkpt>
      <trkpt lat="49.86637" lon="2.39931">
        <ele>63.8</ele>
        <time>2022-05-28T13:31:04Z</time>
      </trkpt>
      <trkpt lat="49.86637" lon="2.39931">
        <ele>63.8</ele>
        <time>2022-05-28T13:31:05Z</time>
      </trkpt>
      <trkpt lat="49.86637" lon="2.39931">
        <ele>63.8</ele>
        <time>2022-05-28T13:31:06Z</time>
      </trkpt>
      <trkpt lat="49.86637" lon="2.39931">
        <ele>63.8</ele>
        <time>2022-05-28T13:31:07Z</time>
      </trkpt>
      <trkpt lat="49.86637" lon="2.39931">
        <ele>63.8</ele>
        <time>2022-05-28T13:31:08Z</time>
      </trkpt>
      <trkpt lat="49.86637" lon="2.39931">
        <ele>63.8</ele>
        <time>2022-05-28T13:31:09Z</time>
      </trkpt>
      <trkpt lat="49.86637" lon="2.39931">
        <ele>63.8</ele>
        <time>2022-05-28T13:31:10Z</time>
      </trkpt>
      <trkpt lat="49.86637" lon="2.39931">
        <ele>63.8</ele>
        <time>2022-05-28T13:31:11Z</time>
      </trkpt>
      <trkpt lat="49.86637" lon="2.39931">
        <ele>63.8</ele>
        <time>2022-05-28T13:31:12Z</time>
      </trkpt>
      <trkpt lat="49.86637" lon="2.39931">
        <ele>63.8</ele>
        <time>2022-05-28T13:31:13Z</time>
      </trkpt>
      <trkpt lat="49.86637" lon="2.39931">
        <ele>63.8</ele>
        <time>2022-05-28T13:31:14Z</time>
      </trkpt>
      <trkpt lat="49.86637" lon="2.39931">
        <ele>63.8</ele>
        <time>2022-05-28T13:31:15Z</time>
      </trkpt>
      <trkpt lat="49.86637" lon="2.39931">
        <ele>63.8</ele>
        <time>2022-05-28T13:31:16Z</time>
      </trkpt>
      <trkpt lat="49.86637" lon="2.39931">
        <ele>63.8</ele>
        <time>2022-05-28T13:31:17Z</time>
      </trkpt>
      <trkpt lat="49.86637" lon="2.39931">
        <ele>63.8</ele>
        <time>2022-05-28T13:31:18Z</time>
      </trkpt>
      <trkpt lat="49.86637" lon="2.39931">
        <ele>63.8</ele>
        <time>2022-05-28T13:31:19Z</time>
      </trkpt>
      <trkpt lat="49.86637" lon="2.39931">
        <ele>63.8</ele>
        <time>2022-05-28T13:31:20Z</time>
      </trkpt>
      <trkpt lat="49.86637" lon="2.39931">
        <ele>63.8</ele>
        <time>2022-05-28T13:31:21Z</time>
      </trkpt>
      <trkpt lat="49.86637" lon="2.39931">
        <ele>63.8</ele>
        <time>2022-05-28T13:31:22Z</time>
      </trkpt>
      <trkpt lat="49.86637" lon="2.39931">
        <ele>63.8</ele>
        <time>2022-05-28T13:31:23Z</time>
      </trkpt>
      <trkpt lat="49.86637" lon="2.39931">
        <ele>63.8</ele>
        <time>2022-05-28T13:31:24Z</time>
      </trkpt>
      <trkpt lat="49.86637" lon="2.39931">
        <ele>63.8</ele>
        <time>2022-05-28T13:31:25Z</time>
      </trkpt>
      <trkpt lat="49.86637" lon="2.39931">
        <ele>63.8</ele>
        <time>2022-05-28T13:31:26Z</time>
      </trkpt>
      <trkpt lat="49.86637" lon="2.39931">
        <ele>63.8</ele>
        <time>2022-05-28T13:31:27Z</time>
      </trkpt>
      <trkpt lat="49.86637" lon="2.39931">
        <ele>63.8</ele>
        <time>2022-05-28T13:31:28Z</time>
      </trkpt>
      <trkpt lat="49.86637" lon="2.39931">
        <ele>63.8</ele>
        <time>2022-05-28T13:31:29Z</time>
      </trkpt>
      <trkpt lat="49.86637" lon="2.39931">
        <ele>63.8</ele>
        <time>2022-05-28T13:31:30Z</time>
      </trkpt>
      <trkpt lat="49.86637" lon="2.39931">
        <ele>63.8</ele>
        <time>2022-05-28T13:31:31Z</time>
      </trkpt>
      <trkpt lat="49.86637" lon="2.39931">
        <ele>63.8</ele>
        <time>2022-05-28T13:31:32Z</time>
      </trkpt>
      <trkpt lat="49.86637" lon="2.39931">
        <ele>63.8</ele>
        <time>2022-05-28T13:31:33Z</time>
      </trkpt>
      <trkpt lat="49.86637" lon="2.39931">
        <ele>63.8</ele>
        <time>2022-05-28T13:31:34Z</time>
      </trkpt>
      <trkpt lat="49.86637" lon="2.39931">
        <ele>63.8</ele>
        <time>2022-05-28T13:31:35Z</time>
      </trkpt>
      <trkpt lat="49.86637" lon="2.39931">
        <ele>63.8</ele>
        <time>2022-05-28T13:31:36Z</time>
      </trkpt>
      <trkpt lat="49.86637" lon="2.39931">
        <ele>63.8</ele>
        <time>2022-05-28T13:31:37Z</time>
      </trkpt>
      <trkpt lat="49.86637" lon="2.39931">
        <ele>63.8</ele>
        <time>2022-05-28T13:31:38Z</time>
      </trkpt>
      <trkpt lat="49.86637" lon="2.39931">
        <ele>63.8</ele>
        <time>2022-05-28T13:31:39Z</time>
      </trkpt>
      <trkpt lat="49.86637" lon="2.39931">
        <ele>63.8</ele>
        <time>2022-05-28T13:31:40Z</time>
      </trkpt>
      <trkpt lat="49.86637" lon="2.39931">
        <ele>63.8</ele>
        <time>2022-05-28T13:31:41Z</time>
      </trkpt>
      <trkpt lat="49.86637" lon="2.39931">
        <ele>63.8</ele>
        <time>2022-05-28T13:31:42Z</time>
      </trkpt>
      <trkpt lat="49.86637" lon="2.39931">
        <ele>63.8</ele>
        <time>2022-05-28T13:31:43Z</time>
      </trkpt>
      <trkpt lat="49.86637" lon="2.39931">
        <ele>63.8</ele>
        <time>2022-05-28T13:31:44Z</time>
      </trkpt>
      <trkpt lat="49.86637" lon="2.39931">
        <ele>63.8</ele>
        <time>2022-05-28T13:31:45Z</time>
      </trkpt>
      <trkpt lat="49.86637" lon="2.39931">
        <ele>63.8</ele>
        <time>2022-05-28T13:31:46Z</time>
      </trkpt>
      <trkpt lat="49.86637" lon="2.39931">
        <ele>63.8</ele>
        <time>2022-05-28T13:31:47Z</time>
      </trkpt>
      <trkpt lat="49.86637" lon="2.39931">
        <ele>63.8</ele>
        <time>2022-05-28T13:31:48Z</time>
      </trkpt>
      <trkpt lat="49.86637" lon="2.39931">
        <ele>63.8</ele>
        <time>2022-05-28T13:31:49Z</time>
      </trkpt>
      <trkpt lat="49.86637" lon="2.39931">
        <ele>63.8</ele>
        <time>2022-05-28T13:31:50Z</time>
      </trkpt>
      <trkpt lat="49.86637" lon="2.39931">
        <ele>63.8</ele>
        <time>2022-05-28T13:31:51Z</time>
      </trkpt>
      <trkpt lat="49.86637" lon="2.39931">
        <ele>63.8</ele>
        <time>2022-05-28T13:31:52Z</time>
      </trkpt>
      <trkpt lat="49.86637" lon="2.39931">
        <ele>63.8</ele>
        <time>2022-05-28T13:31:53Z</time>
      </trkpt>
      <trkpt lat="49.86637" lon="2.39931">
        <ele>63.8</ele>
        <time>2022-05-28T13:31:54Z</time>
      </trkpt>
      <trkpt lat="49.86637" lon="2.39931">
        <ele>63.8</ele>
        <time>2022-05-28T13:31:55Z</time>
      </trkpt>
      <trkpt lat="49.86637" lon="2.39931">
        <ele>63.8</ele>
        <time>2022-05-28T13:31:56Z</time>
      </trkpt>
      <trkpt lat="49.86637" lon="2.39931">
        <ele>63.8</ele>
        <time>2022-05-28T13:31:57Z</time>
      </trkpt>
      <trkpt lat="49.86637" lon="2.39931">
        <ele>63.8</ele>
        <time>2022-05-28T13:31:58Z</time>
      </trkpt>
      <trkpt lat="49.86637" lon="2.39931">
        <ele>63.8</ele>
        <time>2022-05-28T13:31:59Z</time>
      </trkpt>
      <trkpt lat="49.86637" lon="2.39931">
        <ele>63.8</ele>
        <time>2022-05-28T13:32:00Z</time>
      </trkpt>
      <trkpt lat="49.86637" lon="2.39931">
        <ele>63.8</ele>
        <time>2022-05-28T13:32:01Z</time>
      </trkpt>
      <trkpt lat="49.86637" lon="2.39931">
        <ele>63.8</ele>
        <time>2022-05-28T13:32:02Z</time>
      </trkpt>
      <trkpt lat="49.86637" lon="2.39931">
        <ele>63.8</ele>
        <time>2022-05-28T13:32:03Z</time>
      </trkpt>
      <trkpt lat="49.86637" lon="2.39931">
        <ele>63.8</ele>
        <time>2022-05-28T13:32:04Z</time>
      </trkpt>
      <trkpt lat="49.86637" lon="2.39931">
        <ele>63.8</ele>
        <time>2022-05-28T13:32:05Z</time>
      </trkpt>
      <trkpt lat="49.86637" lon="2.39931">
        <ele>63.8</ele>
        <time>2022-05-28T13:32:06Z</time>
      </trkpt>
      <trkpt lat="49.86637" lon="2.39931">
        <ele>63.8</ele>
        <time>2022-05-28T13:32:07Z</time>
      </trkpt>
      <trkpt lat="49.86637" lon="2.39931">
        <ele>63.8</ele>
        <time>2022-05-28T13:32:08Z</time>
      </trkpt>
      <trkpt lat="49.86637" lon="2.39931">
        <ele>63.8</ele>
        <time>2022-05-28T13:32:09Z</time>
      </trkpt>
      <trkpt lat="49.86637" lon="2.39931">
        <ele>63.8</ele>
        <time>2022-05-28T13:32:10Z</time>
      </trkpt>
      <trkpt lat="49.86637" lon="2.39931">
        <ele>63.8</ele>
        <time>2022-05-28T13:32:11Z</time>
      </trkpt>
      <trkpt lat="49.86637" lon="2.39931">
        <ele>63.8</ele>
        <time>2022-05-28T13:32:12Z</time>
      </trkpt>
      <trkpt lat="49.86637" lon="2.39931">
        <ele>63.8</ele>
        <time>2022-05-28T13:32:13Z</time>
      </trkpt>
      <trkpt lat="49.86637" lon="2.39931">
        <ele>63.8</ele>
        <time>2022-05-28T13:32:14Z</time>
      </trkpt>
      <trkpt lat="49.86637" lon="2.39931">
        <ele>63.8</ele>
        <time>2022-05-28T13:32:15Z</time>
      </trkpt>
      <trkpt lat="49.86637" lon="2.39931">
        <ele>63.8</ele>
        <time>2022-05-28T13:32:16Z</time>
      </trkpt>
      <trkpt lat="49.86637" lon="2.39931">
        <ele>63.8</ele>
        <time>2022-05-28T13:32:17Z</time>
      </trkpt>
      <trkpt lat="49.86637" lon="2.39931">
        <ele>63.8</ele>
        <time>2022-05-28T13:32:18Z</time>
      </trkpt>
      <trkpt lat="49.86637" lon="2.39931">
        <ele>63.8</ele>
        <time>2022-05-28T13:32:19Z</time>
      </trkpt>
      <trkpt lat="49.86637" lon="2.39931">
        <ele>63.8</ele>
        <time>2022-05-28T13:32:20Z</time>
      </trkpt>
      <trkpt lat="49.86637" lon="2.39931">
        <ele>63.8</ele>
        <time>2022-05-28T13:32:21Z</time>
      </trkpt>
      <trkpt lat="49.86637" lon="2.39931">
        <ele>63.8</ele>
        <time>2022-05-28T13:32:22Z</time>
      </trkpt>
      <trkpt lat="49.86637" lon="2.39931">
        <ele>63.8</ele>
        <time>2022-05-28T13:32:23Z</time>
      </trkpt>
      <trkpt lat="49.86637" lon="2.39931">
        <ele>63.8</ele>
        <time>2022-05-28T13:32:24Z</time>
      </trkpt>
      <trkpt lat="49.86637" lon="2.39931">
        <ele>63.8</ele>
        <time>2022-05-28T13:32:25Z</time>
      </trkpt>
      <trkpt lat="49.86637" lon="2.39931">
        <ele>63.8</ele>
        <time>2022-05-28T13:32:26Z</time>
      </trkpt>
      <trkpt lat="49.86637" lon="2.39931">
        <ele>63.8</ele>
        <time>2022-05-28T13:32:27Z</time>
      </trkpt>
      <trkpt lat="49.86637" lon="2.39931">
        <ele>63.8</ele>
        <time>2022-05-28T13:32:28Z</time>
      </trkpt>
      <trkpt lat="49.86637" lon="2.39931">
        <ele>63.8</ele>
        <time>2022-05-28T13:32:29Z</time>
      </trkpt>
      <trkpt lat="49.86637" lon="2.39931">
        <ele>63.8</ele>
        <time>2022-05-28T13:32:30Z</time>
      </trkpt>
      <trkpt lat="49.86637" lon="2.39931">
        <ele>63.8</ele>
        <time>2022-05-28T13:32:31Z</time>
      </trkpt>
      <trkpt lat="49.86637" lon="2.39931">
        <ele>63.8</ele>
        <time>2022-05-28T13:32:32Z</time>
      </trkpt>
      <trkpt lat="49.86637" lon="2.39931">
        <ele>63.8</ele>
        <time>2022-05-28T13:32:33Z</time>
      </trkpt>
      <trkpt lat="49.86637" lon="2.39931">
        <ele>63.8</ele>
        <time>2022-05-28T13:32:34Z</time>
      </trkpt>
      <trkpt lat="49.86637" lon="2.39931">
        <ele>63.8</ele>
        <time>2022-05-28T13:32:35Z</time>
      </trkpt>
      <trkpt lat="49.86637" lon="2.39931">
        <ele>63.8</ele>
        <time>2022-05-28T13:32:36Z</time>
      </trkpt>
      <trkpt lat="49.86637" lon="2.39931">
        <ele>63.8</ele>
        <time>2022-05-28T13:32:37Z</time>
      </trkpt>
      <trkpt lat="49.86637" lon="2.39931">
        <ele>63.8</ele>
        <time>2022-05-28T13:32:38Z</time>
      </trkpt>
      <trkpt lat="49.86637" lon="2.39931">
        <ele>63.8</ele>
        <time>2022-05-28T13:32:39Z</time>
      </trkpt>
      <trkpt lat="49.86637" lon="2.39931">
        <ele>63.8</ele>
        <time>2022-05-28T13:32:40Z</time>
      </trkpt>
      <trkpt lat="49.86637" lon="2.39931">
        <ele>63.8</ele>
        <time>2022-05-28T13:32:41Z</time>
      </trkpt>
      <trkpt lat="49.86637" lon="2.39931">
        <ele>63.8</ele>
        <time>2022-05-28T13:32:42Z</time>
      </trkpt>
      <trkpt lat="49.86637" lon="2.39931">
        <ele>63.8</ele>
        <time>2022-05-28T13:32:43Z</time>
      </trkpt>
      <trkpt lat="49.86637" lon="2.39931">
        <ele>63.8</ele>
        <time>2022-05-28T13:32:44Z</time>
      </trkpt>
      <trkpt lat="49.86637" lon="2.39931">
        <ele>63.8</ele>
        <time>2022-05-28T13:32:45Z</time>
      </trkpt>
      <trkpt lat="49.86637" lon="2.39931">
        <ele>63.8</ele>
        <time>2022-05-28T13:32:46Z</time>
      </trkpt>
      <trkpt lat="49.86637" lon="2.39931">
        <ele>63.8</ele>
        <time>2022-05-28T13:32:47Z</time>
      </trkpt>
      <trkpt lat="49.86637" lon="2.39931">
        <ele>63.8</ele>
        <time>2022-05-28T13:32:48Z</time>
      </trkpt>
      <trkpt lat="49.86637" lon="2.39931">
        <ele>63.8</ele>
        <time>2022-05-28T13:32:49Z</time>
      </trkpt>
      <trkpt lat="49.86637" lon="2.39931">
        <ele>63.8</ele>
        <time>2022-05-28T13:32:50Z</time>
      </trkpt>
      <trkpt lat="49.86637" lon="2.39931">
        <ele>63.8</ele>
        <time>2022-05-28T13:32:51Z</time>
      </trkpt>
      <trkpt lat="49.86637" lon="2.39931">
        <ele>63.8</ele>
        <time>2022-05-28T13:32:52Z</time>
      </trkpt>
      <trkpt lat="49.86637" lon="2.39931">
        <ele>63.8</ele>
        <time>2022-05-28T13:32:53Z</time>
      </trkpt>
      <trkpt lat="49.86637" lon="2.39931">
        <ele>63.8</ele>
        <time>2022-05-28T13:32:54Z</time>
      </trkpt>
      <trkpt lat="49.86637" lon="2.39931">
        <ele>63.8</ele>
        <time>2022-05-28T13:32:55Z</time>
      </trkpt>
      <trkpt lat="49.86637" lon="2.39931">
        <ele>63.8</ele>
        <time>2022-05-28T13:32:56Z</time>
      </trkpt>
      <trkpt lat="49.86637" lon="2.39931">
        <ele>63.8</ele>
        <time>2022-05-28T13:32:57Z</time>
      </trkpt>
      <trkpt lat="49.86637" lon="2.39931">
        <ele>63.8</ele>
        <time>2022-05-28T13:32:58Z</time>
      </trkpt>
      <trkpt lat="49.86637" lon="2.39931">
        <ele>63.8</ele>
        <time>2022-05-28T13:32:59Z</time>
      </trkpt>
      <trkpt lat="49.86637" lon="2.39931">
        <ele>63.8</ele>
        <time>2022-05-28T13:33:00Z</time>
      </trkpt>
      <trkpt lat="49.86637" lon="2.39931">
        <ele>63.8</ele>
        <time>2022-05-28T13:33:01Z</time>
      </trkpt>
      <trkpt lat="49.86637" lon="2.39931">
        <ele>63.8</ele>
        <time>2022-05-28T13:33:02Z</time>
      </trkpt>
      <trkpt lat="49.86637" lon="2.39931">
        <ele>63.8</ele>
        <time>2022-05-28T13:33:03Z</time>
      </trkpt>
      <trkpt lat="49.86637" lon="2.39931">
        <ele>63.8</ele>
        <time>2022-05-28T13:33:04Z</time>
      </trkpt>
      <trkpt lat="49.86637" lon="2.39931">
        <ele>63.8</ele>
        <time>2022-05-28T13:33:05Z</time>
      </trkpt>
      <trkpt lat="49.86637" lon="2.39931">
        <ele>63.8</ele>
        <time>2022-05-28T13:33:06Z</time>
      </trkpt>
      <trkpt lat="49.86637" lon="2.39931">
        <ele>63.8</ele>
        <time>2022-05-28T13:33:07Z</time>
      </trkpt>
      <trkpt lat="49.86637" lon="2.39931">
        <ele>63.8</ele>
        <time>2022-05-28T13:33:08Z</time>
      </trkpt>
      <trkpt lat="49.86637" lon="2.39931">
        <ele>63.8</ele>
        <time>2022-05-28T13:33:09Z</time>
      </trkpt>
      <trkpt lat="49.86637" lon="2.39931">
        <ele>63.8</ele>
        <time>2022-05-28T13:33:10Z</time>
      </trkpt>
      <trkpt lat="49.86637" lon="2.39931">
        <ele>63.8</ele>
        <time>2022-05-28T13:33:11Z</time>
      </trkpt>
      <trkpt lat="49.86637" lon="2.39931">
        <ele>63.8</ele>
        <time>2022-05-28T13:33:12Z</time>
      </trkpt>
      <trkpt lat="49.86637" lon="2.39931">
        <ele>63.8</ele>
        <time>2022-05-28T13:33:13Z</time>
      </trkpt>
      <trkpt lat="49.86637" lon="2.39931">
        <ele>63.8</ele>
        <time>2022-05-28T13:33:14Z</time>
      </trkpt>
      <trkpt lat="49.86637" lon="2.39931">
        <ele>63.8</ele>
        <time>2022-05-28T13:33:15Z</time>
      </trkpt>
      <trkpt lat="49.86637" lon="2.39931">
        <ele>63.8</ele>
        <time>2022-05-28T13:33:16Z</time>
      </trkpt>
      <trkpt lat="49.86637" lon="2.39931">
        <ele>63.8</ele>
        <time>2022-05-28T13:33:17Z</time>
      </trkpt>
      <trkpt lat="49.86637" lon="2.39931">
        <ele>63.8</ele>
        <time>2022-05-28T13:33:18Z</time>
      </trkpt>
      <trkpt lat="49.86637" lon="2.39931">
        <ele>63.8</ele>
        <time>2022-05-28T13:33:19Z</time>
      </trkpt>
      <trkpt lat="49.86637" lon="2.39931">
        <ele>63.8</ele>
        <time>2022-05-28T13:33:20Z</time>
      </trkpt>
      <trkpt lat="49.86637" lon="2.39931">
        <ele>63.8</ele>
        <time>2022-05-28T13:33:21Z</time>
      </trkpt>
      <trkpt lat="49.86637" lon="2.39931">
        <ele>63.8</ele>
        <time>2022-05-28T13:33:22Z</time>
      </trkpt>
      <trkpt lat="49.86637" lon="2.39931">
        <ele>63.8</ele>
        <time>2022-05-28T13:33:23Z</time>
      </trkpt>
      <trkpt lat="49.86637" lon="2.39931">
        <ele>63.8</ele>
        <time>2022-05-28T13:33:24Z</time>
      </trkpt>
      <trkpt lat="49.86637" lon="2.39931">
        <ele>63.8</ele>
        <time>2022-05-28T13:33:25Z</time>
      </trkpt>
      <trkpt lat="49.86637" lon="2.39931">
        <ele>63.8</ele>
        <time>2022-05-28T13:33:26Z</time>
      </trkpt>
      <trkpt lat="49.86637" lon="2.39931">
        <ele>63.8</ele>
        <time>2022-05-28T13:33:27Z</time>
      </trkpt>
      <trkpt lat="49.86637" lon="2.39931">
        <ele>63.8</ele>
        <time>2022-05-28T13:33:28Z</time>
      </trkpt>
      <trkpt lat="49.86637" lon="2.39931">
        <ele>63.8</ele>
        <time>2022-05-28T13:33:29Z</time>
      </trkpt>
      <trkpt lat="49.86637" lon="2.39931">
        <ele>63.8</ele>
        <time>2022-05-28T13:33:30Z</time>
      </trkpt>
      <trkpt lat="49.86637" lon="2.39931">
        <ele>63.8</ele>
        <time>2022-05-28T13:33:31Z</time>
      </trkpt>
      <trkpt lat="49.86637" lon="2.39931">
        <ele>63.8</ele>
        <time>2022-05-28T13:33:32Z</time>
      </trkpt>
      <trkpt lat="49.86637" lon="2.39931">
        <ele>63.8</ele>
        <time>2022-05-28T13:33:33Z</time>
      </trkpt>
      <trkpt lat="49.86637" lon="2.39931">
        <ele>63.8</ele>
        <time>2022-05-28T13:33:34Z</time>
      </trkpt>
      <trkpt lat="49.86637" lon="2.39931">
        <ele>63.8</ele>
        <time>2022-05-28T13:33:35Z</time>
      </trkpt>
      <trkpt lat="49.86637" lon="2.39931">
        <ele>63.8</ele>
        <time>2022-05-28T13:33:36Z</time>
      </trkpt>
      <trkpt lat="49.86637" lon="2.39931">
        <ele>63.8</ele>
        <time>2022-05-28T13:33:37Z</time>
      </trkpt>
      <trkpt lat="49.86637" lon="2.39931">
        <ele>63.8</ele>
        <time>2022-05-28T13:33:38Z</time>
      </trkpt>
      <trkpt lat="49.86637" lon="2.39931">
        <ele>63.8</ele>
        <time>2022-05-28T13:33:39Z</time>
      </trkpt>
      <trkpt lat="49.86637" lon="2.39931">
        <ele>63.8</ele>
        <time>2022-05-28T13:33:40Z</time>
      </trkpt>
      <trkpt lat="49.86637" lon="2.39931">
        <ele>63.8</ele>
        <time>2022-05-28T13:33:41Z</time>
      </trkpt>
      <trkpt lat="49.86637" lon="2.39931">
        <ele>63.8</ele>
        <time>2022-05-28T13:33:42Z</time>
      </trkpt>
      <trkpt lat="49.86637" lon="2.39931">
        <ele>63.8</ele>
        <time>2022-05-28T13:33:43Z</time>
      </trkpt>
      <trkpt lat="49.86637" lon="2.39931">
        <ele>63.8</ele>
        <time>2022-05-28T13:33:44Z</time>
      </trkpt>
      <trkpt lat="49.86637" lon="2.39931">
        <ele>63.8</ele>
        <time>2022-05-28T13:33:45Z</time>
      </trkpt>
      <trkpt lat="49.86637" lon="2.39931">
        <ele>63.8</ele>
        <time>2022-05-28T13:33:46Z</time>
      </trkpt>
      <trkpt lat="49.86637" lon="2.39931">
        <ele>63.8</ele>
        <time>2022-05-28T13:33:47Z</time>
      </trkpt>
      <trkpt lat="49.86637" lon="2.39931">
        <ele>63.8</ele>
        <time>2022-05-28T13:33:48Z</time>
      </trkpt>
      <trkpt lat="49.86637" lon="2.39931">
        <ele>63.8</ele>
        <time>2022-05-28T13:33:49Z</time>
      </trkpt>
      <trkpt lat="49.86637" lon="2.39931">
        <ele>63.8</ele>
        <time>2022-05-28T13:33:50Z</time>
      </trkpt>
      <trkpt lat="49.86637" lon="2.39931">
        <ele>63.8</ele>
        <time>2022-05-28T13:33:51Z</time>
      </trkpt>
      <trkpt lat="49.86637" lon="2.39931">
        <ele>63.8</ele>
        <time>2022-05-28T13:33:52Z</time>
      </trkpt>
      <trkpt lat="49.86637" lon="2.39931">
        <ele>63.8</ele>
        <time>2022-05-28T13:33:53Z</time>
      </trkpt>
      <trkpt lat="49.86637" lon="2.39931">
        <ele>63.8</ele>
        <time>2022-05-28T13:33:54Z</time>
      </trkpt>
      <trkpt lat="49.86637" lon="2.39931">
        <ele>63.8</ele>
        <time>2022-05-28T13:33:55Z</time>
      </trkpt>
      <trkpt lat="49.86637" lon="2.39931">
        <ele>63.8</ele>
        <time>2022-05-28T13:33:56Z</time>
      </trkpt>
      <trkpt lat="49.86637" lon="2.39931">
        <ele>63.8</ele>
        <time>2022-05-28T13:33:57Z</time>
      </trkpt>
      <trkpt lat="49.86637" lon="2.39931">
        <ele>63.8</ele>
        <time>2022-05-28T13:33:58Z</time>
      </trkpt>
      <trkpt lat="49.86637" lon="2.39931">
        <ele>63.8</ele>
        <time>2022-05-28T13:33:59Z</time>
      </trkpt>
      <trkpt lat="49.86637" lon="2.39931">
        <ele>63.8</ele>
        <time>2022-05-28T13:34:00Z</time>
      </trkpt>
      <trkpt lat="49.86637" lon="2.39931">
        <ele>63.8</ele>
        <time>2022-05-28T13:34:01Z</time>
      </trkpt>
      <trkpt lat="49.86637" lon="2.39931">
        <ele>63.8</ele>
        <time>2022-05-28T13:34:02Z</time>
      </trkpt>
      <trkpt lat="49.86637" lon="2.39931">
        <ele>63.8</ele>
        <time>2022-05-28T13:34:03Z</time>
      </trkpt>
      <trkpt lat="49.86637" lon="2.39931">
        <ele>63.8</ele>
        <time>2022-05-28T13:34:04Z</time>
      </trkpt>
      <trkpt lat="49.86637" lon="2.39931">
        <ele>63.8</ele>
        <time>2022-05-28T13:34:05Z</time>
      </trkpt>
      <trkpt lat="49.86637" lon="2.39931">
        <ele>63.8</ele>
        <time>2022-05-28T13:34:06Z</time>
      </trkpt>
      <trkpt lat="49.86637" lon="2.39931">
        <ele>63.8</ele>
        <time>2022-05-28T13:34:07Z</time>
      </trkpt>
      <trkpt lat="49.86637" lon="2.39931">
        <ele>63.8</ele>
        <time>2022-05-28T13:34:08Z</time>
      </trkpt>
      <trkpt lat="49.86637" lon="2.39931">
        <ele>63.8</ele>
        <time>2022-05-28T13:34:09Z</time>
      </trkpt>
      <trkpt lat="49.86637" lon="2.39931">
        <ele>63.8</ele>
        <time>2022-05-28T13:34:10Z</time>
      </trkpt>
      <trkpt lat="49.86637" lon="2.39931">
        <ele>63.8</ele>
        <time>2022-05-28T13:34:11Z</time>
      </trkpt>
      <trkpt lat="49.86637" lon="2.39931">
        <ele>63.8</ele>
        <time>2022-05-28T13:34:12Z</time>
      </trkpt>
      <trkpt lat="49.86637" lon="2.39931">
        <ele>63.8</ele>
        <time>2022-05-28T13:34:13Z</time>
      </trkpt>
      <trkpt lat="49.86637" lon="2.39931">
        <ele>63.8</ele>
        <time>2022-05-28T13:34:14Z</time>
      </trkpt>
      <trkpt lat="49.86637" lon="2.39931">
        <ele>63.8</ele>
        <time>2022-05-28T13:34:15Z</time>
      </trkpt>
      <trkpt lat="49.86637" lon="2.39931">
        <ele>63.8</ele>
        <time>2022-05-28T13:34:16Z</time>
      </trkpt>
      <trkpt lat="49.86637" lon="2.39931">
        <ele>63.8</ele>
        <time>2022-05-28T13:34:17Z</time>
      </trkpt>
      <trkpt lat="49.86637" lon="2.39931">
        <ele>63.8</ele>
        <time>2022-05-28T13:34:18Z</time>
      </trkpt>
      <trkpt lat="49.86637" lon="2.39931">
        <ele>63.8</ele>
        <time>2022-05-28T13:34:19Z</time>
      </trkpt>
      <trkpt lat="49.86637" lon="2.39931">
        <ele>63.8</ele>
        <time>2022-05-28T13:34:20Z</time>
      </trkpt>
      <trkpt lat="49.86637" lon="2.39931">
        <ele>63.8</ele>
        <time>2022-05-28T13:34:21Z</time>
      </trkpt>
      <trkpt lat="49.86637" lon="2.39931">
        <ele>63.8</ele>
        <time>2022-05-28T13:34:22Z</time>
      </trkpt>
      <trkpt lat="49.86637" lon="2.39931">
        <ele>63.8</ele>
        <time>2022-05-28T13:34:23Z</time>
      </trkpt>
      <trkpt lat="49.86637" lon="2.39931">
        <ele>63.8</ele>
        <time>2022-05-28T13:34:24Z</time>
      </trkpt>
      <trkpt lat="49.86637" lon="2.39931">
        <ele>63.8</ele>
        <time>2022-05-28T13:34:25Z</time>
      </trkpt>
      <trkpt lat="49.86637" lon="2.39931">
        <ele>63.8</ele>
        <time>2022-05-28T13:34:26Z</time>
      </trkpt>
      <trkpt lat="49.86637" lon="2.39931">
        <ele>63.8</ele>
        <time>2022-05-28T13:34:27Z</time>
      </trkpt>
      <trkpt lat="49.86637" lon="2.39931">
        <ele>63.8</ele>
        <time>2022-05-28T13:34:28Z</time>
      </trkpt>
      <trkpt lat="49.86637" lon="2.39931">
        <ele>63.8</ele>
        <time>2022-05-28T13:34:29Z</time>
      </trkpt>
      <trkpt lat="49.86637" lon="2.39931">
        <ele>63.8</ele>
        <time>2022-05-28T13:34:30Z</time>
      </trkpt>
      <trkpt lat="49.86637" lon="2.39931">
        <ele>63.8</ele>
        <time>2022-05-28T13:34:31Z</time>
      </trkpt>
      <trkpt lat="49.86637" lon="2.39931">
        <ele>63.8</ele>
        <time>2022-05-28T13:34:32Z</time>
      </trkpt>
      <trkpt lat="49.86637" lon="2.39931">
        <ele>63.8</ele>
        <time>2022-05-28T13:34:33Z</time>
      </trkpt>
      <trkpt lat="49.86637" lon="2.39931">
        <ele>63.8</ele>
        <time>2022-05-28T13:34:34Z</time>
      </trkpt>
      <trkpt lat="49.86637" lon="2.39931">
        <ele>63.8</ele>
        <time>2022-05-28T13:34:35Z</time>
      </trkpt>
      <trkpt lat="49.86637" lon="2.39931">
        <ele>63.8</ele>
        <time>2022-05-28T13:34:36Z</time>
      </trkpt>
      <trkpt lat="49.86637" lon="2.39931">
        <ele>63.8</ele>
        <time>2022-05-28T13:34:37Z</time>
      </trkpt>
      <trkpt lat="49.86637" lon="2.39931">
        <ele>63.8</ele>
        <time>2022-05-28T13:34:38Z</time>
      </trkpt>
      <trkpt lat="49.86637" lon="2.39931">
        <ele>63.8</ele>
        <time>2022-05-28T13:34:39Z</time>
      </trkpt>
      <trkpt lat="49.86637" lon="2.39931">
        <ele>63.8</ele>
        <time>2022-05-28T13:34:40Z</time>
      </trkpt>
      <trkpt lat="49.86637" lon="2.39931">
        <ele>63.8</ele>
        <time>2022-05-28T13:34:41Z</time>
      </trkpt>
      <trkpt lat="49.86637" lon="2.3993">
        <ele>63.8</ele>
        <time>2022-05-28T13:34:42Z</time>
      </trkpt>
      <trkpt lat="49.86638" lon="2.39929">
        <ele>63.8</ele>
        <time>2022-05-28T13:34:43Z</time>
      </trkpt>
      <trkpt lat="49.86639" lon="2.39929">
        <ele>63.8</ele>
        <time>2022-05-28T13:34:44Z</time>
      </trkpt>
      <trkpt lat="49.86639" lon="2.3993">
        <ele>63.8</ele>
        <time>2022-05-28T13:34:45Z</time>
      </trkpt>
      <trkpt lat="49.8664" lon="2.39931">
        <ele>63.8</ele>
        <time>2022-05-28T13:34:46Z</time>
      </trkpt>
      <trkpt lat="49.86641" lon="2.39932">
        <ele>63.8</ele>
        <time>2022-05-28T13:34:47Z</time>
      </trkpt>
      <trkpt lat="49.86641" lon="2.39933">
        <ele>63.7</ele>
        <time>2022-05-28T13:34:48Z</time>
      </trkpt>
      <trkpt lat="49.86642" lon="2.39933">
        <ele>63.7</ele>
        <time>2022-05-28T13:34:49Z</time>
      </trkpt>
      <trkpt lat="49.86642" lon="2.39933">
        <ele>63.7</ele>
        <time>2022-05-28T13:34:50Z</time>
      </trkpt>
      <trkpt lat="49.86642" lon="2.39934">
        <ele>63.7</ele>
        <time>2022-05-28T13:34:51Z</time>
      </trkpt>
      <trkpt lat="49.86643" lon="2.39934">
        <ele>63.7</ele>
        <time>2022-05-28T13:34:52Z</time>
      </trkpt>
      <trkpt lat="49.86643" lon="2.39934">
        <ele>63.7</ele>
        <time>2022-05-28T13:34:53Z</time>
      </trkpt>
      <trkpt lat="49.86643" lon="2.39934">
        <ele>63.7</ele>
        <time>2022-05-28T13:34:54Z</time>
      </trkpt>
      <trkpt lat="49.86643" lon="2.39934">
        <ele>63.7</ele>
        <time>2022-05-28T13:34:55Z</time>
      </trkpt>
      <trkpt lat="49.86643" lon="2.39934">
        <ele>63.7</ele>
        <time>2022-05-28T13:34:56Z</time>
      </trkpt>
      <trkpt lat="49.86643" lon="2.39934">
        <ele>63.7</ele>
        <time>2022-05-28T13:34:57Z</time>
      </trkpt>
      <trkpt lat="49.86644" lon="2.39934">
        <ele>63.7</ele>
        <time>2022-05-28T13:34:58Z</time>
      </trkpt>
      <trkpt lat="49.86644" lon="2.39934">
        <ele>63.7</ele>
        <time>2022-05-28T13:34:59Z</time>
      </trkpt>
      <trkpt lat="49.86645" lon="2.39934">
        <ele>63.7</ele>
        <time>2022-05-28T13:35:00Z</time>
      </trkpt>
      <trkpt lat="49.86645" lon="2.39934">
        <ele>63.7</ele>
        <time>2022-05-28T13:35:01Z</time>
      </trkpt>
      <trkpt lat="49.86645" lon="2.39934">
        <ele>63.7</ele>
        <time>2022-05-28T13:35:02Z</time>
      </trkpt>
      <trkpt lat="49.86645" lon="2.39934">
        <ele>63.7</ele>
        <time>2022-05-28T13:35:03Z</time>
      </trkpt>
      <trkpt lat="49.86645" lon="2.39934">
        <ele>63.7</ele>
        <time>2022-05-28T13:35:04Z</time>
      </trkpt>
      <trkpt lat="49.86645" lon="2.39934">
        <ele>63.7</ele>
        <time>2022-05-28T13:35:05Z</time>
      </trkpt>
      <trkpt lat="49.86646" lon="2.39934">
        <ele>63.7</ele>
        <time>2022-05-28T13:35:06Z</time>
      </trkpt>
      <trkpt lat="49.86647" lon="2.39934">
        <ele>63.7</ele>
        <time>2022-05-28T13:35:07Z</time>
      </trkpt>
      <trkpt lat="49.86648" lon="2.39934">
        <ele>63.7</ele>
        <time>2022-05-28T13:35:08Z</time>
      </trkpt>
      <trkpt lat="49.8665" lon="2.39933">
        <ele>63.7</ele>
        <time>2022-05-28T13:35:09Z</time>
      </trkpt>
      <trkpt lat="49.86651" lon="2.39933">
        <ele>63.7</ele>
        <time>2022-05-28T13:35:10Z</time>
      </trkpt>
      <trkpt lat="49.86652" lon="2.39933">
        <ele>63.6</ele>
        <time>2022-05-28T13:35:11Z</time>
      </trkpt>
      <trkpt lat="49.86653" lon="2.39932">
        <ele>63.6</ele>
        <time>2022-05-28T13:35:12Z</time>
      </trkpt>
      <trkpt lat="49.86653" lon="2.39932">
        <ele>63.6</ele>
        <time>2022-05-28T13:35:13Z</time>
      </trkpt>
      <trkpt lat="49.86655" lon="2.39932">
        <ele>63.6</ele>
        <time>2022-05-28T13:35:14Z</time>
      </trkpt>
      <trkpt lat="49.86655" lon="2.39932">
        <ele>63.6</ele>
        <time>2022-05-28T13:35:15Z</time>
      </trkpt>
      <trkpt lat="49.86657" lon="2.39932">
        <ele>63.6</ele>
        <time>2022-05-28T13:35:16Z</time>
      </trkpt>
      <trkpt lat="49.86657" lon="2.39932">
        <ele>63.6</ele>
        <time>2022-05-28T13:35:17Z</time>
      </trkpt>
      <trkpt lat="49.86658" lon="2.39932">
        <ele>63.6</ele>
        <time>2022-05-28T13:35:18Z</time>
      </trkpt>
      <trkpt lat="49.86659" lon="2.39931">
        <ele>63.6</ele>
        <time>2022-05-28T13:35:19Z</time>
      </trkpt>
      <trkpt lat="49.8666" lon="2.39931">
        <ele>63.6</ele>
        <time>2022-05-28T13:35:20Z</time>
      </trkpt>
      <trkpt lat="49.86661" lon="2.39931">
        <ele>63.6</ele>
        <time>2022-05-28T13:35:21Z</time>
      </trkpt>
      <trkpt lat="49.86663" lon="2.39931">
        <ele>63.6</ele>
        <time>2022-05-28T13:35:22Z</time>
      </trkpt>
      <trkpt lat="49.86664" lon="2.39931">
        <ele>63.6</ele>
        <time>2022-05-28T13:35:23Z</time>
      </trkpt>
      <trkpt lat="49.86665" lon="2.39931">
        <ele>63.6</ele>
        <time>2022-05-28T13:35:24Z</time>
      </trkpt>
      <trkpt lat="49.86668" lon="2.39932">
        <ele>63.5</ele>
        <time>2022-05-28T13:35:25Z</time>
      </trkpt>
      <trkpt lat="49.86669" lon="2.39932">
        <ele>63.5</ele>
        <time>2022-05-28T13:35:26Z</time>
      </trkpt>
      <trkpt lat="49.8667" lon="2.39932">
        <ele>63.5</ele>
        <time>2022-05-28T13:35:27Z</time>
      </trkpt>
      <trkpt lat="49.86671" lon="2.39932">
        <ele>63.5</ele>
        <time>2022-05-28T13:35:28Z</time>
      </trkpt>
      <trkpt lat="49.86672" lon="2.39931">
        <ele>63.5</ele>
        <time>2022-05-28T13:35:29Z</time>
      </trkpt>
      <trkpt lat="49.86673" lon="2.39931">
        <ele>63.5</ele>
        <time>2022-05-28T13:35:30Z</time>
      </trkpt>
      <trkpt lat="49.86674" lon="2.39931">
        <ele>63.5</ele>
        <time>2022-05-28T13:35:31Z</time>
      </trkpt>
      <trkpt lat="49.86675" lon="2.39931">
        <ele>63.5</ele>
        <time>2022-05-28T13:35:32Z</time>
      </trkpt>
      <trkpt lat="49.86676" lon="2.39931">
        <ele>63.5</ele>
        <time>2022-05-28T13:35:33Z</time>
      </trkpt>
      <trkpt lat="49.86677" lon="2.39931">
        <ele>63.5</ele>
        <time>2022-05-28T13:35:34Z</time>
      </trkpt>
      <trkpt lat="49.86678" lon="2.39932">
        <ele>63.5</ele>
        <time>2022-05-28T13:35:35Z</time>
      </trkpt>
      <trkpt lat="49.86679" lon="2.39932">
        <ele>63.5</ele>
        <time>2022-05-28T13:35:36Z</time>
      </trkpt>
      <trkpt lat="49.86679" lon="2.39932">
        <ele>63.5</ele>
        <time>2022-05-28T13:35:37Z</time>
      </trkpt>
      <trkpt lat="49.8668" lon="2.39932">
        <ele>63.5</ele>
        <time>2022-05-28T13:35:38Z</time>
      </trkpt>
      <trkpt lat="49.8668" lon="2.39932">
        <ele>63.5</ele>
        <time>2022-05-28T13:35:39Z</time>
      </trkpt>
      <trkpt lat="49.86681" lon="2.39932">
        <ele>63.5</ele>
        <time>2022-05-28T13:35:40Z</time>
      </trkpt>
      <trkpt lat="49.86682" lon="2.39932">
        <ele>63.5</ele>
        <time>2022-05-28T13:35:41Z</time>
      </trkpt>
      <trkpt lat="49.86682" lon="2.39932">
        <ele>63.5</ele>
        <time>2022-05-28T13:35:42Z</time>
      </trkpt>
      <trkpt lat="49.86683" lon="2.39933">
        <ele>63.5</ele>
        <time>2022-05-28T13:35:43Z</time>
      </trkpt>
      <trkpt lat="49.86684" lon="2.39933">
        <ele>63.5</ele>
        <time>2022-05-28T13:35:44Z</time>
      </trkpt>
      <trkpt lat="49.86685" lon="2.39933">
        <ele>63.5</ele>
        <time>2022-05-28T13:35:45Z</time>
      </trkpt>
      <trkpt lat="49.86686" lon="2.39934">
        <ele>63.5</ele>
        <time>2022-05-28T13:35:46Z</time>
      </trkpt>
      <trkpt lat="49.86686" lon="2.39934">
        <ele>63.5</ele>
        <time>2022-05-28T13:35:47Z</time>
      </trkpt>
      <trkpt lat="49.86687" lon="2.39935">
        <ele>63.5</ele>
        <time>2022-05-28T13:35:48Z</time>
      </trkpt>
      <trkpt lat="49.86687" lon="2.39935">
        <ele>63.5</ele>
        <time>2022-05-28T13:35:49Z</time>
      </trkpt>
      <trkpt lat="49.86688" lon="2.39935">
        <ele>63.5</ele>
        <time>2022-05-28T13:35:50Z</time>
      </trkpt>
      <trkpt lat="49.86689" lon="2.39936">
        <ele>63.5</ele>
        <time>2022-05-28T13:35:51Z</time>
      </trkpt>
      <trkpt lat="49.8669" lon="2.39936">
        <ele>63.5</ele>
        <time>2022-05-28T13:35:52Z</time>
      </trkpt>
      <trkpt lat="49.86691" lon="2.39936">
        <ele>63.4</ele>
        <time>2022-05-28T13:35:53Z</time>
      </trkpt>
      <trkpt lat="49.86692" lon="2.39936">
        <ele>63.4</ele>
        <time>2022-05-28T13:35:54Z</time>
      </trkpt>
      <trkpt lat="49.86692" lon="2.39936">
        <ele>63.4</ele>
        <time>2022-05-28T13:35:55Z</time>
      </trkpt>
      <trkpt lat="49.86694" lon="2.39936">
        <ele>63.4</ele>
        <time>2022-05-28T13:35:56Z</time>
      </trkpt>
      <trkpt lat="49.86695" lon="2.39936">
        <ele>63.4</ele>
        <time>2022-05-28T13:35:57Z</time>
      </trkpt>
      <trkpt lat="49.86695" lon="2.39936">
        <ele>63.4</ele>
        <time>2022-05-28T13:35:58Z</time>
      </trkpt>
      <trkpt lat="49.86696" lon="2.39936">
        <ele>63.4</ele>
        <time>2022-05-28T13:35:59Z</time>
      </trkpt>
      <trkpt lat="49.86697" lon="2.39936">
        <ele>63.4</ele>
        <time>2022-05-28T13:36:00Z</time>
      </trkpt>
      <trkpt lat="49.86698" lon="2.39936">
        <ele>63.4</ele>
        <time>2022-05-28T13:36:01Z</time>
      </trkpt>
      <trkpt lat="49.86699" lon="2.39936">
        <ele>63.4</ele>
        <time>2022-05-28T13:36:02Z</time>
      </trkpt>
      <trkpt lat="49.86701" lon="2.39936">
        <ele>63.4</ele>
        <time>2022-05-28T13:36:03Z</time>
      </trkpt>
      <trkpt lat="49.86701" lon="2.39936">
        <ele>63.4</ele>
        <time>2022-05-28T13:36:04Z</time>
      </trkpt>
      <trkpt lat="49.86702" lon="2.39936">
        <ele>63.4</ele>
        <time>2022-05-28T13:36:05Z</time>
      </trkpt>
      <trkpt lat="49.86703" lon="2.39936">
        <ele>63.4</ele>
        <time>2022-05-28T13:36:06Z</time>
      </trkpt>
      <trkpt lat="49.86704" lon="2.39936">
        <ele>63.4</ele>
        <time>2022-05-28T13:36:07Z</time>
      </trkpt>
      <trkpt lat="49.86705" lon="2.39936">
        <ele>63.4</ele>
        <time>2022-05-28T13:36:08Z</time>
      </trkpt>
      <trkpt lat="49.86706" lon="2.39937">
        <ele>63.4</ele>
        <time>2022-05-28T13:36:09Z</time>
      </trkpt>
      <trkpt lat="49.86708" lon="2.39937">
        <ele>63.4</ele>
        <time>2022-05-28T13:36:10Z</time>
      </trkpt>
      <trkpt lat="49.86709" lon="2.39937">
        <ele>63.4</ele>
        <time>2022-05-28T13:36:11Z</time>
      </trkpt>
      <trkpt lat="49.8671" lon="2.39937">
        <ele>63.4</ele>
        <time>2022-05-28T13:36:12Z</time>
      </trkpt>
      <trkpt lat="49.8671" lon="2.39935">
        <ele>63.4</ele>
        <time>2022-05-28T13:36:13Z</time>
      </trkpt>
      <trkpt lat="49.86709" lon="2.39934">
        <ele>63.4</ele>
        <time>2022-05-28T13:36:14Z</time>
      </trkpt>
      <trkpt lat="49.86709" lon="2.39933">
        <ele>63.4</ele>
        <time>2022-05-28T13:36:15Z</time>
      </trkpt>
      <trkpt lat="49.86708" lon="2.39932">
        <ele>63.4</ele>
        <time>2022-05-28T13:36:16Z</time>
      </trkpt>
      <trkpt lat="49.86707" lon="2.39931">
        <ele>63.4</ele>
        <time>2022-05-28T13:36:17Z</time>
      </trkpt>
      <trkpt lat="49.86707" lon="2.39931">
        <ele>63.4</ele>
        <time>2022-05-28T13:36:18Z</time>
      </trkpt>
      <trkpt lat="49.86706" lon="2.39931">
        <ele>63.4</ele>
        <time>2022-05-28T13:36:19Z</time>
      </trkpt>
      <trkpt lat="49.86706" lon="2.39931">
        <ele>63.4</ele>
        <time>2022-05-28T13:36:20Z</time>
      </trkpt>
      <trkpt lat="49.86705" lon="2.39931">
        <ele>63.3</ele>
        <time>2022-05-28T13:36:21Z</time>
      </trkpt>
      <trkpt lat="49.86705" lon="2.39931">
        <ele>63.3</ele>
        <time>2022-05-28T13:36:22Z</time>
      </trkpt>
      <trkpt lat="49.86705" lon="2.39931">
        <ele>63.3</ele>
        <time>2022-05-28T13:36:23Z</time>
      </trkpt>
      <trkpt lat="49.86705" lon="2.39931">
        <ele>63.3</ele>
        <time>2022-05-28T13:36:24Z</time>
      </trkpt>
      <trkpt lat="49.86705" lon="2.39931">
        <ele>63.3</ele>
        <time>2022-05-28T13:36:25Z</time>
      </trkpt>
      <trkpt lat="49.86705" lon="2.39931">
        <ele>63.3</ele>
        <time>2022-05-28T13:36:26Z</time>
      </trkpt>
      <trkpt lat="49.86705" lon="2.39931">
        <ele>63.3</ele>
        <time>2022-05-28T13:36:27Z</time>
      </trkpt>
      <trkpt lat="49.86705" lon="2.39931">
        <ele>63.3</ele>
        <time>2022-05-28T13:36:28Z</time>
      </trkpt>
      <trkpt lat="49.86705" lon="2.39931">
        <ele>63.3</ele>
        <time>2022-05-28T13:36:29Z</time>
      </trkpt>
      <trkpt lat="49.86705" lon="2.39931">
        <ele>63.3</ele>
        <time>2022-05-28T13:36:30Z</time>
      </trkpt>
      <trkpt lat="49.86705" lon="2.39931">
        <ele>63.3</ele>
        <time>2022-05-28T13:36:31Z</time>
      </trkpt>
      <trkpt lat="49.86705" lon="2.39931">
        <ele>63.3</ele>
        <time>2022-05-28T13:36:32Z</time>
      </trkpt>
      <trkpt lat="49.86705" lon="2.39931">
        <ele>63.3</ele>
        <time>2022-05-28T13:36:33Z</time>
      </trkpt>
      <trkpt lat="49.86705" lon="2.39931">
        <ele>63.3</ele>
        <time>2022-05-28T13:36:34Z</time>
      </trkpt>
      <trkpt lat="49.86705" lon="2.39931">
        <ele>63.3</ele>
        <time>2022-05-28T13:36:35Z</time>
      </trkpt>
      <trkpt lat="49.86705" lon="2.39931">
        <ele>63.3</ele>
        <time>2022-05-28T13:36:36Z</time>
      </trkpt>
      <trkpt lat="49.86705" lon="2.39931">
        <ele>63.3</ele>
        <time>2022-05-28T13:36:37Z</time>
      </trkpt>
      <trkpt lat="49.86705" lon="2.39931">
        <ele>63.3</ele>
        <time>2022-05-28T13:36:38Z</time>
      </trkpt>
      <trkpt lat="49.86705" lon="2.39931">
        <ele>63.3</ele>
        <time>2022-05-28T13:36:39Z</time>
      </trkpt>
      <trkpt lat="49.86706" lon="2.39931">
        <ele>63.3</ele>
        <time>2022-05-28T13:36:40Z</time>
      </trkpt>
      <trkpt lat="49.86708" lon="2.39932">
        <ele>63.3</ele>
        <time>2022-05-28T13:36:41Z</time>
      </trkpt>
      <trkpt lat="49.86711" lon="2.39932">
        <ele>63.3</ele>
        <time>2022-05-28T13:36:42Z</time>
      </trkpt>
      <trkpt lat="49.86711" lon="2.39932">
        <ele>63.3</ele>
        <time>2022-05-28T13:36:43Z</time>
      </trkpt>
      <trkpt lat="49.86712" lon="2.39932">
        <ele>63.3</ele>
        <time>2022-05-28T13:36:44Z</time>
      </trkpt>
      <trkpt lat="49.86714" lon="2.39932">
        <ele>63.3</ele>
        <time>2022-05-28T13:36:45Z</time>
      </trkpt>
      <trkpt lat="49.86715" lon="2.39932">
        <ele>63.3</ele>
        <time>2022-05-28T13:36:46Z</time>
      </trkpt>
      <trkpt lat="49.86716" lon="2.39932">
        <ele>63.3</ele>
        <time>2022-05-28T13:36:47Z</time>
      </trkpt>
      <trkpt lat="49.86718" lon="2.39931">
        <ele>63.3</ele>
        <time>2022-05-28T13:36:48Z</time>
      </trkpt>
      <trkpt lat="49.86719" lon="2.39931">
        <ele>63.3</ele>
        <time>2022-05-28T13:36:49Z</time>
      </trkpt>
      <trkpt lat="49.8672" lon="2.39931">
        <ele>63.3</ele>
        <time>2022-05-28T13:36:50Z</time>
      </trkpt>
      <trkpt lat="49.86722" lon="2.39931">
        <ele>63.3</ele>
        <time>2022-05-28T13:36:51Z</time>
      </trkpt>
      <trkpt lat="49.86724" lon="2.39932">
        <ele>63.2</ele>
        <time>2022-05-28T13:36:52Z</time>
      </trkpt>
      <trkpt lat="49.86725" lon="2.39932">
        <ele>63.2</ele>
        <time>2022-05-28T13:36:53Z</time>
      </trkpt>
      <trkpt lat="49.86727" lon="2.39932">
        <ele>63.2</ele>
        <time>2022-05-28T13:36:54Z</time>
      </trkpt>
      <trkpt lat="49.86729" lon="2.39932">
        <ele>63.2</ele>
        <time>2022-05-28T13:36:55Z</time>
      </trkpt>
      <trkpt lat="49.8673" lon="2.39932">
        <ele>63.2</ele>
        <time>2022-05-28T13:36:56Z</time>
      </trkpt>
      <trkpt lat="49.86731" lon="2.39932">
        <ele>63.2</ele>
        <time>2022-05-28T13:36:57Z</time>
      </trkpt>
      <trkpt lat="49.86731" lon="2.39931">
        <ele>63.2</ele>
        <time>2022-05-28T13:36:58Z</time>
      </trkpt>
      <trkpt lat="49.86732" lon="2.39929">
        <ele>63.2</ele>
        <time>2022-05-28T13:36:59Z</time>
      </trkpt>
      <trkpt lat="49.86732" lon="2.39928">
        <ele>63.2</ele>
        <time>2022-05-28T13:37:00Z</time>
      </trkpt>
      <trkpt lat="49.86731" lon="2.39927">
        <ele>63.2</ele>
        <time>2022-05-28T13:37:01Z</time>
      </trkpt>
      <trkpt lat="49.86731" lon="2.39926">
        <ele>63.2</ele>
        <time>2022-05-28T13:37:02Z</time>
      </trkpt>
      <trkpt lat="49.86731" lon="2.39926">
        <ele>63.2</ele>
        <time>2022-05-28T13:37:03Z</time>
      </trkpt>
      <trkpt lat="49.86731" lon="2.39926">
        <ele>63.2</ele>
        <time>2022-05-28T13:37:04Z</time>
      </trkpt>
      <trkpt lat="49.8673" lon="2.39925">
        <ele>63.2</ele>
        <time>2022-05-28T13:37:05Z</time>
      </trkpt>
      <trkpt lat="49.8673" lon="2.39926">
        <ele>63.2</ele>
        <time>2022-05-28T13:37:06Z</time>
      </trkpt>
      <trkpt lat="49.86731" lon="2.39925">
        <ele>63.2</ele>
        <time>2022-05-28T13:37:07Z</time>
      </trkpt>
      <trkpt lat="49.86732" lon="2.39925">
        <ele>63.2</ele>
        <time>2022-05-28T13:37:08Z</time>
      </trkpt>
      <trkpt lat="49.86733" lon="2.39925">
        <ele>63.2</ele>
        <time>2022-05-28T13:37:09Z</time>
      </trkpt>
      <trkpt lat="49.86733" lon="2.39925">
        <ele>63.2</ele>
        <time>2022-05-28T13:37:10Z</time>
      </trkpt>
      <trkpt lat="49.86734" lon="2.39925">
        <ele>63.2</ele>
        <time>2022-05-28T13:37:11Z</time>
      </trkpt>
      <trkpt lat="49.86735" lon="2.39926">
        <ele>63.2</ele>
        <time>2022-05-28T13:37:12Z</time>
      </trkpt>
      <trkpt lat="49.86736" lon="2.39927">
        <ele>63.2</ele>
        <time>2022-05-28T13:37:13Z</time>
      </trkpt>
      <trkpt lat="49.86737" lon="2.39928">
        <ele>63.1</ele>
        <time>2022-05-28T13:37:14Z</time>
      </trkpt>
      <trkpt lat="49.86739" lon="2.39928">
        <ele>63.1</ele>
        <time>2022-05-28T13:37:15Z</time>
      </trkpt>
      <trkpt lat="49.8674" lon="2.39928">
        <ele>63.1</ele>
        <time>2022-05-28T13:37:16Z</time>
      </trkpt>
      <trkpt lat="49.86741" lon="2.39928">
        <ele>63.1</ele>
        <time>2022-05-28T13:37:17Z</time>
      </trkpt>
      <trkpt lat="49.86743" lon="2.39928">
        <ele>63.1</ele>
        <time>2022-05-28T13:37:18Z</time>
      </trkpt>
      <trkpt lat="49.86744" lon="2.39928">
        <ele>63.1</ele>
        <time>2022-05-28T13:37:19Z</time>
      </trkpt>
      <trkpt lat="49.86744" lon="2.39928">
        <ele>63.1</ele>
        <time>2022-05-28T13:37:20Z</time>
      </trkpt>
      <trkpt lat="49.86747" lon="2.39929">
        <ele>63.1</ele>
        <time>2022-05-28T13:37:21Z</time>
      </trkpt>
      <trkpt lat="49.86748" lon="2.39929">
        <ele>63.1</ele>
        <time>2022-05-28T13:37:22Z</time>
      </trkpt>
      <trkpt lat="49.86749" lon="2.39929">
        <ele>63.1</ele>
        <time>2022-05-28T13:37:23Z</time>
      </trkpt>
      <trkpt lat="49.86751" lon="2.39929">
        <ele>63.1</ele>
        <time>2022-05-28T13:37:24Z</time>
      </trkpt>
      <trkpt lat="49.86752" lon="2.39929">
        <ele>63.1</ele>
        <time>2022-05-28T13:37:25Z</time>
      </trkpt>
      <trkpt lat="49.86754" lon="2.39928">
        <ele>63.1</ele>
        <time>2022-05-28T13:37:26Z</time>
      </trkpt>
      <trkpt lat="49.86755" lon="2.39926">
        <ele>63</ele>
        <time>2022-05-28T13:37:27Z</time>
      </trkpt>
      <trkpt lat="49.86756" lon="2.39925">
        <ele>63</ele>
        <time>2022-05-28T13:37:28Z</time>
      </trkpt>
      <trkpt lat="49.86756" lon="2.39924">
        <ele>63</ele>
        <time>2022-05-28T13:37:29Z</time>
      </trkpt>
      <trkpt lat="49.86757" lon="2.39923">
        <ele>63</ele>
        <time>2022-05-28T13:37:30Z</time>
      </trkpt>
      <trkpt lat="49.86758" lon="2.39923">
        <ele>63</ele>
        <time>2022-05-28T13:37:31Z</time>
      </trkpt>
      <trkpt lat="49.86759" lon="2.39922">
        <ele>63</ele>
        <time>2022-05-28T13:37:32Z</time>
      </trkpt>
      <trkpt lat="49.8676" lon="2.39922">
        <ele>63</ele>
        <time>2022-05-28T13:37:33Z</time>
      </trkpt>
      <trkpt lat="49.86761" lon="2.39922">
        <ele>63</ele>
        <time>2022-05-28T13:37:34Z</time>
      </trkpt>
      <trkpt lat="49.86762" lon="2.39922">
        <ele>63</ele>
        <time>2022-05-28T13:37:35Z</time>
      </trkpt>
      <trkpt lat="49.86764" lon="2.39923">
        <ele>63</ele>
        <time>2022-05-28T13:37:36Z</time>
      </trkpt>
      <trkpt lat="49.86765" lon="2.39923">
        <ele>63</ele>
        <time>2022-05-28T13:37:37Z</time>
      </trkpt>
      <trkpt lat="49.86766" lon="2.39923">
        <ele>63</ele>
        <time>2022-05-28T13:37:38Z</time>
      </trkpt>
      <trkpt lat="49.86768" lon="2.39924">
        <ele>63</ele>
        <time>2022-05-28T13:37:39Z</time>
      </trkpt>
      <trkpt lat="49.86769" lon="2.39924">
        <ele>63</ele>
        <time>2022-05-28T13:37:40Z</time>
      </trkpt>
      <trkpt lat="49.86769" lon="2.39925">
        <ele>63</ele>
        <time>2022-05-28T13:37:41Z</time>
      </trkpt>
      <trkpt lat="49.86771" lon="2.39926">
        <ele>62.9</ele>
        <time>2022-05-28T13:37:42Z</time>
      </trkpt>
      <trkpt lat="49.86772" lon="2.39926">
        <ele>62.9</ele>
        <time>2022-05-28T13:37:43Z</time>
      </trkpt>
      <trkpt lat="49.86773" lon="2.39927">
        <ele>62.9</ele>
        <time>2022-05-28T13:37:44Z</time>
      </trkpt>
      <trkpt lat="49.86775" lon="2.39927">
        <ele>62.9</ele>
        <time>2022-05-28T13:37:45Z</time>
      </trkpt>
      <trkpt lat="49.86776" lon="2.39928">
        <ele>62.9</ele>
        <time>2022-05-28T13:37:46Z</time>
      </trkpt>
      <trkpt lat="49.86778" lon="2.39928">
        <ele>62.9</ele>
        <time>2022-05-28T13:37:47Z</time>
      </trkpt>
      <trkpt lat="49.86779" lon="2.39928">
        <ele>62.9</ele>
        <time>2022-05-28T13:37:48Z</time>
      </trkpt>
      <trkpt lat="49.86781" lon="2.39928">
        <ele>62.9</ele>
        <time>2022-05-28T13:37:49Z</time>
      </trkpt>
      <trkpt lat="49.86782" lon="2.39928">
        <ele>62.8</ele>
        <time>2022-05-28T13:37:50Z</time>
      </trkpt>
      <trkpt lat="49.86784" lon="2.39928">
        <ele>62.8</ele>
        <time>2022-05-28T13:37:51Z</time>
      </trkpt>
      <trkpt lat="49.86786" lon="2.39928">
        <ele>62.8</ele>
        <time>2022-05-28T13:37:52Z</time>
      </trkpt>
      <trkpt lat="49.86787" lon="2.39927">
        <ele>62.8</ele>
        <time>2022-05-28T13:37:53Z</time>
      </trkpt>
      <trkpt lat="49.86789" lon="2.39927">
        <ele>62.8</ele>
        <time>2022-05-28T13:37:54Z</time>
      </trkpt>
      <trkpt lat="49.8679" lon="2.39926">
        <ele>62.8</ele>
        <time>2022-05-28T13:37:55Z</time>
      </trkpt>
      <trkpt lat="49.86791" lon="2.39926">
        <ele>62.8</ele>
        <time>2022-05-28T13:37:56Z</time>
      </trkpt>
      <trkpt lat="49.86793" lon="2.39925">
        <ele>62.8</ele>
        <time>2022-05-28T13:37:57Z</time>
      </trkpt>
      <trkpt lat="49.86794" lon="2.39924">
        <ele>62.8</ele>
        <time>2022-05-28T13:37:58Z</time>
      </trkpt>
      <trkpt lat="49.86795" lon="2.39923">
        <ele>62.8</ele>
        <time>2022-05-28T13:37:59Z</time>
      </trkpt>
      <trkpt lat="49.86796" lon="2.39922">
        <ele>62.7</ele>
        <time>2022-05-28T13:38:00Z</time>
      </trkpt>
      <trkpt lat="49.86797" lon="2.39921">
        <ele>62.7</ele>
        <time>2022-05-28T13:38:01Z</time>
      </trkpt>
      <trkpt lat="49.86798" lon="2.39919">
        <ele>62.7</ele>
        <time>2022-05-28T13:38:02Z</time>
      </trkpt>
      <trkpt lat="49.86799" lon="2.39918">
        <ele>62.7</ele>
        <time>2022-05-28T13:38:03Z</time>
      </trkpt>
      <trkpt lat="49.868" lon="2.39916">
        <ele>62.7</ele>
        <time>2022-05-28T13:38:04Z</time>
      </trkpt>
      <trkpt lat="49.86801" lon="2.39916">
        <ele>62.7</ele>
        <time>2022-05-28T13:38:05Z</time>
      </trkpt>
      <trkpt lat="49.86802" lon="2.39915">
        <ele>62.7</ele>
        <time>2022-05-28T13:38:06Z</time>
      </trkpt>
      <trkpt lat="49.86803" lon="2.39914">
        <ele>62.7</ele>
        <time>2022-05-28T13:38:07Z</time>
      </trkpt>
      <trkpt lat="49.86804" lon="2.39913">
        <ele>62.6</ele>
        <time>2022-05-28T13:38:08Z</time>
      </trkpt>
      <trkpt lat="49.86805" lon="2.39912">
        <ele>62.6</ele>
        <time>2022-05-28T13:38:09Z</time>
      </trkpt>
      <trkpt lat="49.86807" lon="2.39911">
        <ele>62.6</ele>
        <time>2022-05-28T13:38:10Z</time>
      </trkpt>
      <trkpt lat="49.86808" lon="2.39911">
        <ele>62.6</ele>
        <time>2022-05-28T13:38:11Z</time>
      </trkpt>
      <trkpt lat="49.86809" lon="2.3991">
        <ele>62.6</ele>
        <time>2022-05-28T13:38:12Z</time>
      </trkpt>
      <trkpt lat="49.8681" lon="2.3991">
        <ele>62.6</ele>
        <time>2022-05-28T13:38:13Z</time>
      </trkpt>
      <trkpt lat="49.86811" lon="2.39909">
        <ele>62.5</ele>
        <time>2022-05-28T13:38:14Z</time>
      </trkpt>
      <trkpt lat="49.86812" lon="2.39908">
        <ele>62.5</ele>
        <time>2022-05-28T13:38:15Z</time>
      </trkpt>
      <trkpt lat="49.86813" lon="2.39907">
        <ele>62.5</ele>
        <time>2022-05-28T13:38:16Z</time>
      </trkpt>
      <trkpt lat="49.86814" lon="2.39906">
        <ele>62.5</ele>
        <time>2022-05-28T13:38:17Z</time>
      </trkpt>
      <trkpt lat="49.86815" lon="2.39906">
        <ele>62.5</ele>
        <time>2022-05-28T13:38:18Z</time>
      </trkpt>
      <trkpt lat="49.86816" lon="2.39905">
        <ele>62.5</ele>
        <time>2022-05-28T13:38:19Z</time>
      </trkpt>
      <trkpt lat="49.86817" lon="2.39904">
        <ele>62.4</ele>
        <time>2022-05-28T13:38:20Z</time>
      </trkpt>
      <trkpt lat="49.86817" lon="2.39903">
        <ele>62.4</ele>
        <time>2022-05-28T13:38:21Z</time>
      </trkpt>
      <trkpt lat="49.86819" lon="2.39901">
        <ele>62.4</ele>
        <time>2022-05-28T13:38:22Z</time>
      </trkpt>
      <trkpt lat="49.8682" lon="2.39901">
        <ele>62.4</ele>
        <time>2022-05-28T13:38:23Z</time>
      </trkpt>
      <trkpt lat="49.8682" lon="2.399">
        <ele>62.4</ele>
        <time>2022-05-28T13:38:24Z</time>
      </trkpt>
      <trkpt lat="49.86822" lon="2.39897">
        <ele>62.4</ele>
        <time>2022-05-28T13:38:25Z</time>
      </trkpt>
      <trkpt lat="49.86823" lon="2.39896">
        <ele>62.4</ele>
        <time>2022-05-28T13:38:26Z</time>
      </trkpt>
      <trkpt lat="49.86823" lon="2.39895">
        <ele>62.3</ele>
        <time>2022-05-28T13:38:27Z</time>
      </trkpt>
      <trkpt lat="49.86824" lon="2.39894">
        <ele>62.3</ele>
        <time>2022-05-28T13:38:28Z</time>
      </trkpt>
      <trkpt lat="49.86825" lon="2.39893">
        <ele>62.3</ele>
        <time>2022-05-28T13:38:29Z</time>
      </trkpt>
      <trkpt lat="49.86826" lon="2.39891">
        <ele>62.3</ele>
        <time>2022-05-28T13:38:30Z</time>
      </trkpt>
      <trkpt lat="49.86827" lon="2.39889">
        <ele>62.3</ele>
        <time>2022-05-28T13:38:31Z</time>
      </trkpt>
      <trkpt lat="49.86828" lon="2.39888">
        <ele>62.3</ele>
        <time>2022-05-28T13:38:32Z</time>
      </trkpt>
      <trkpt lat="49.86829" lon="2.39887">
        <ele>62.3</ele>
        <time>2022-05-28T13:38:33Z</time>
      </trkpt>
      <trkpt lat="49.8683" lon="2.39885">
        <ele>62.2</ele>
        <time>2022-05-28T13:38:34Z</time>
      </trkpt>
      <trkpt lat="49.86831" lon="2.39884">
        <ele>62.2</ele>
        <time>2022-05-28T13:38:35Z</time>
      </trkpt>
      <trkpt lat="49.86832" lon="2.39883">
        <ele>62.2</ele>
        <time>2022-05-28T13:38:36Z</time>
      </trkpt>
      <trkpt lat="49.86833" lon="2.39881">
        <ele>62.2</ele>
        <time>2022-05-28T13:38:37Z</time>
      </trkpt>
      <trkpt lat="49.86834" lon="2.3988">
        <ele>62.2</ele>
        <time>2022-05-28T13:38:38Z</time>
      </trkpt>
      <trkpt lat="49.86835" lon="2.39878">
        <ele>62.2</ele>
        <time>2022-05-28T13:38:39Z</time>
      </trkpt>
      <trkpt lat="49.86836" lon="2.39877">
        <ele>62.2</ele>
        <time>2022-05-28T13:38:40Z</time>
      </trkpt>
      <trkpt lat="49.86837" lon="2.39876">
        <ele>62.2</ele>
        <time>2022-05-28T13:38:41Z</time>
      </trkpt>
      <trkpt lat="49.86837" lon="2.39873">
        <ele>62.2</ele>
        <time>2022-05-28T13:38:42Z</time>
      </trkpt>
      <trkpt lat="49.86838" lon="2.39872">
        <ele>62.2</ele>
        <time>2022-05-28T13:38:43Z</time>
      </trkpt>
      <trkpt lat="49.86838" lon="2.39869">
        <ele>62.3</ele>
        <time>2022-05-28T13:38:44Z</time>
      </trkpt>
      <trkpt lat="49.86839" lon="2.39867">
        <ele>62.3</ele>
        <time>2022-05-28T13:38:45Z</time>
      </trkpt>
      <trkpt lat="49.86839" lon="2.39866">
        <ele>62.3</ele>
        <time>2022-05-28T13:38:46Z</time>
      </trkpt>
      <trkpt lat="49.8684" lon="2.39864">
        <ele>62.4</ele>
        <time>2022-05-28T13:38:47Z</time>
      </trkpt>
      <trkpt lat="49.8684" lon="2.39862">
        <ele>62.4</ele>
        <time>2022-05-28T13:38:48Z</time>
      </trkpt>
      <trkpt lat="49.8684" lon="2.39861">
        <ele>62.4</ele>
        <time>2022-05-28T13:38:49Z</time>
      </trkpt>
      <trkpt lat="49.8684" lon="2.3986">
        <ele>62.4</ele>
        <time>2022-05-28T13:38:50Z</time>
      </trkpt>
      <trkpt lat="49.8684" lon="2.39858">
        <ele>62.5</ele>
        <time>2022-05-28T13:38:51Z</time>
      </trkpt>
      <trkpt lat="49.86841" lon="2.39856">
        <ele>62.5</ele>
        <time>2022-05-28T13:38:52Z</time>
      </trkpt>
      <trkpt lat="49.86841" lon="2.39853">
        <ele>62.6</ele>
        <time>2022-05-28T13:38:53Z</time>
      </trkpt>
      <trkpt lat="49.86842" lon="2.39851">
        <ele>62.6</ele>
        <time>2022-05-28T13:38:54Z</time>
      </trkpt>
      <trkpt lat="49.86842" lon="2.3985">
        <ele>62.6</ele>
        <time>2022-05-28T13:38:55Z</time>
      </trkpt>
      <trkpt lat="49.86842" lon="2.39847">
        <ele>62.7</ele>
        <time>2022-05-28T13:38:56Z</time>
      </trkpt>
      <trkpt lat="49.86842" lon="2.39845">
        <ele>62.7</ele>
        <time>2022-05-28T13:38:57Z</time>
      </trkpt>
      <trkpt lat="49.86842" lon="2.39844">
        <ele>62.7</ele>
        <time>2022-05-28T13:38:58Z</time>
      </trkpt>
      <trkpt lat="49.86843" lon="2.39841">
        <ele>62.8</ele>
        <time>2022-05-28T13:38:59Z</time>
      </trkpt>
      <trkpt lat="49.86843" lon="2.39839">
        <ele>62.8</ele>
        <time>2022-05-28T13:39:00Z</time>
      </trkpt>
      <trkpt lat="49.86843" lon="2.39838">
        <ele>62.8</ele>
        <time>2022-05-28T13:39:01Z</time>
      </trkpt>
      <trkpt lat="49.86844" lon="2.39834">
        <ele>62.9</ele>
        <time>2022-05-28T13:39:02Z</time>
      </trkpt>
      <trkpt lat="49.86844" lon="2.39834">
        <ele>62.9</ele>
        <time>2022-05-28T13:39:03Z</time>
      </trkpt>
      <trkpt lat="49.86844" lon="2.39832">
        <ele>62.9</ele>
        <time>2022-05-28T13:39:04Z</time>
      </trkpt>
      <trkpt lat="49.86845" lon="2.3983">
        <ele>62.9</ele>
        <time>2022-05-28T13:39:05Z</time>
      </trkpt>
      <trkpt lat="49.86845" lon="2.39828">
        <ele>62.9</ele>
        <time>2022-05-28T13:39:06Z</time>
      </trkpt>
      <trkpt lat="49.86845" lon="2.39825">
        <ele>62.9</ele>
        <time>2022-05-28T13:39:07Z</time>
      </trkpt>
      <trkpt lat="49.86845" lon="2.39824">
        <ele>62.9</ele>
        <time>2022-05-28T13:39:08Z</time>
      </trkpt>
      <trkpt lat="49.86845" lon="2.39822">
        <ele>62.9</ele>
        <time>2022-05-28T13:39:09Z</time>
      </trkpt>
      <trkpt lat="49.86845" lon="2.39821">
        <ele>62.9</ele>
        <time>2022-05-28T13:39:10Z</time>
      </trkpt>
      <trkpt lat="49.86845" lon="2.39819">
        <ele>62.9</ele>
        <time>2022-05-28T13:39:11Z</time>
      </trkpt>
      <trkpt lat="49.86846" lon="2.39816">
        <ele>62.9</ele>
        <time>2022-05-28T13:39:12Z</time>
      </trkpt>
      <trkpt lat="49.86846" lon="2.39815">
        <ele>62.9</ele>
        <time>2022-05-28T13:39:13Z</time>
      </trkpt>
      <trkpt lat="49.86846" lon="2.39814">
        <ele>62.9</ele>
        <time>2022-05-28T13:39:14Z</time>
      </trkpt>
      <trkpt lat="49.86846" lon="2.39811">
        <ele>62.9</ele>
        <time>2022-05-28T13:39:15Z</time>
      </trkpt>
      <trkpt lat="49.86845" lon="2.39809">
        <ele>62.9</ele>
        <time>2022-05-28T13:39:16Z</time>
      </trkpt>
      <trkpt lat="49.86845" lon="2.39806">
        <ele>62.9</ele>
        <time>2022-05-28T13:39:17Z</time>
      </trkpt>
      <trkpt lat="49.86845" lon="2.39804">
        <ele>62.9</ele>
        <time>2022-05-28T13:39:18Z</time>
      </trkpt>
      <trkpt lat="49.86845" lon="2.39803">
        <ele>62.9</ele>
        <time>2022-05-28T13:39:19Z</time>
      </trkpt>
      <trkpt lat="49.86844" lon="2.398">
        <ele>62.9</ele>
        <time>2022-05-28T13:39:20Z</time>
      </trkpt>
      <trkpt lat="49.86844" lon="2.39798">
        <ele>62.9</ele>
        <time>2022-05-28T13:39:21Z</time>
      </trkpt>
      <trkpt lat="49.86844" lon="2.39796">
        <ele>62.9</ele>
        <time>2022-05-28T13:39:22Z</time>
      </trkpt>
      <trkpt lat="49.86843" lon="2.39794">
        <ele>62.9</ele>
        <time>2022-05-28T13:39:23Z</time>
      </trkpt>
      <trkpt lat="49.86842" lon="2.39791">
        <ele>62.9</ele>
        <time>2022-05-28T13:39:24Z</time>
      </trkpt>
      <trkpt lat="49.86842" lon="2.39789">
        <ele>62.9</ele>
        <time>2022-05-28T13:39:25Z</time>
      </trkpt>
      <trkpt lat="49.86842" lon="2.39788">
        <ele>63</ele>
        <time>2022-05-28T13:39:26Z</time>
      </trkpt>
      <trkpt lat="49.86842" lon="2.39786">
        <ele>63</ele>
        <time>2022-05-28T13:39:27Z</time>
      </trkpt>
      <trkpt lat="49.86841" lon="2.39783">
        <ele>63</ele>
        <time>2022-05-28T13:39:28Z</time>
      </trkpt>
      <trkpt lat="49.86841" lon="2.3978">
        <ele>63</ele>
        <time>2022-05-28T13:39:29Z</time>
      </trkpt>
      <trkpt lat="49.8684" lon="2.39779">
        <ele>63</ele>
        <time>2022-05-28T13:39:30Z</time>
      </trkpt>
      <trkpt lat="49.8684" lon="2.39777">
        <ele>63</ele>
        <time>2022-05-28T13:39:31Z</time>
      </trkpt>
      <trkpt lat="49.8684" lon="2.39775">
        <ele>63</ele>
        <time>2022-05-28T13:39:32Z</time>
      </trkpt>
      <trkpt lat="49.8684" lon="2.39773">
        <ele>63</ele>
        <time>2022-05-28T13:39:33Z</time>
      </trkpt>
      <trkpt lat="49.86839" lon="2.39772">
        <ele>63</ele>
        <time>2022-05-28T13:39:34Z</time>
      </trkpt>
      <trkpt lat="49.86839" lon="2.3977">
        <ele>63.1</ele>
        <time>2022-05-28T13:39:35Z</time>
      </trkpt>
      <trkpt lat="49.86839" lon="2.39768">
        <ele>63.1</ele>
        <time>2022-05-28T13:39:36Z</time>
      </trkpt>
      <trkpt lat="49.86838" lon="2.39767">
        <ele>63.1</ele>
        <time>2022-05-28T13:39:37Z</time>
      </trkpt>
      <trkpt lat="49.86838" lon="2.39765">
        <ele>63.1</ele>
        <time>2022-05-28T13:39:38Z</time>
      </trkpt>
      <trkpt lat="49.86838" lon="2.39763">
        <ele>63.1</ele>
        <time>2022-05-28T13:39:39Z</time>
      </trkpt>
      <trkpt lat="49.86838" lon="2.39762">
        <ele>63.1</ele>
        <time>2022-05-28T13:39:40Z</time>
      </trkpt>
      <trkpt lat="49.86837" lon="2.3976">
        <ele>63.1</ele>
        <time>2022-05-28T13:39:41Z</time>
      </trkpt>
      <trkpt lat="49.86837" lon="2.39758">
        <ele>63.1</ele>
        <time>2022-05-28T13:39:42Z</time>
      </trkpt>
      <trkpt lat="49.86837" lon="2.39756">
        <ele>63.1</ele>
        <time>2022-05-28T13:39:43Z</time>
      </trkpt>
      <trkpt lat="49.86837" lon="2.39755">
        <ele>63.1</ele>
        <time>2022-05-28T13:39:44Z</time>
      </trkpt>
      <trkpt lat="49.86837" lon="2.39753">
        <ele>63.1</ele>
        <time>2022-05-28T13:39:45Z</time>
      </trkpt>
      <trkpt lat="49.86837" lon="2.39749">
        <ele>63.2</ele>
        <time>2022-05-28T13:39:46Z</time>
      </trkpt>
      <trkpt lat="49.86837" lon="2.39748">
        <ele>63.2</ele>
        <time>2022-05-28T13:39:47Z</time>
      </trkpt>
      <trkpt lat="49.86837" lon="2.39747">
        <ele>63.2</ele>
        <time>2022-05-28T13:39:48Z</time>
      </trkpt>
      <trkpt lat="49.86837" lon="2.39744">
        <ele>63.2</ele>
        <time>2022-05-28T13:39:49Z</time>
      </trkpt>
      <trkpt lat="49.86838" lon="2.39742">
        <ele>63.2</ele>
        <time>2022-05-28T13:39:50Z</time>
      </trkpt>
      <trkpt lat="49.86838" lon="2.39741">
        <ele>63.2</ele>
        <time>2022-05-28T13:39:51Z</time>
      </trkpt>
      <trkpt lat="49.86838" lon="2.39737">
        <ele>63.2</ele>
        <time>2022-05-28T13:39:52Z</time>
      </trkpt>
      <trkpt lat="49.86838" lon="2.39736">
        <ele>63.2</ele>
        <time>2022-05-28T13:39:53Z</time>
      </trkpt>
      <trkpt lat="49.86838" lon="2.39735">
        <ele>63.2</ele>
        <time>2022-05-28T13:39:54Z</time>
      </trkpt>
      <trkpt lat="49.86838" lon="2.39731">
        <ele>63.3</ele>
        <time>2022-05-28T13:39:55Z</time>
      </trkpt>
      <trkpt lat="49.86838" lon="2.3973">
        <ele>63.3</ele>
        <time>2022-05-28T13:39:56Z</time>
      </trkpt>
      <trkpt lat="49.86838" lon="2.39729">
        <ele>63.3</ele>
        <time>2022-05-28T13:39:57Z</time>
      </trkpt>
      <trkpt lat="49.86838" lon="2.39725">
        <ele>63.3</ele>
        <time>2022-05-28T13:39:58Z</time>
      </trkpt>
      <trkpt lat="49.86838" lon="2.39724">
        <ele>63.3</ele>
        <time>2022-05-28T13:39:59Z</time>
      </trkpt>
      <trkpt lat="49.86838" lon="2.39722">
        <ele>63.3</ele>
        <time>2022-05-28T13:40:00Z</time>
      </trkpt>
      <trkpt lat="49.86838" lon="2.39719">
        <ele>63.3</ele>
        <time>2022-05-28T13:40:01Z</time>
      </trkpt>
      <trkpt lat="49.86838" lon="2.39717">
        <ele>63.3</ele>
        <time>2022-05-28T13:40:02Z</time>
      </trkpt>
      <trkpt lat="49.86838" lon="2.39716">
        <ele>63.3</ele>
        <time>2022-05-28T13:40:03Z</time>
      </trkpt>
      <trkpt lat="49.86838" lon="2.39714">
        <ele>63.4</ele>
        <time>2022-05-28T13:40:04Z</time>
      </trkpt>
      <trkpt lat="49.86838" lon="2.39712">
        <ele>63.4</ele>
        <time>2022-05-28T13:40:05Z</time>
      </trkpt>
      <trkpt lat="49.86838" lon="2.3971">
        <ele>63.4</ele>
        <time>2022-05-28T13:40:06Z</time>
      </trkpt>
      <trkpt lat="49.86839" lon="2.39708">
        <ele>63.4</ele>
        <time>2022-05-28T13:40:07Z</time>
      </trkpt>
      <trkpt lat="49.86839" lon="2.39706">
        <ele>63.4</ele>
        <time>2022-05-28T13:40:08Z</time>
      </trkpt>
      <trkpt lat="49.86839" lon="2.39704">
        <ele>63.4</ele>
        <time>2022-05-28T13:40:09Z</time>
      </trkpt>
      <trkpt lat="49.86839" lon="2.39702">
        <ele>63.4</ele>
        <time>2022-05-28T13:40:10Z</time>
      </trkpt>
      <trkpt lat="49.86838" lon="2.397">
        <ele>63.4</ele>
        <time>2022-05-28T13:40:11Z</time>
      </trkpt>
      <trkpt lat="49.86838" lon="2.39698">
        <ele>63.4</ele>
        <time>2022-05-28T13:40:12Z</time>
      </trkpt>
      <trkpt lat="49.86839" lon="2.39696">
        <ele>63.4</ele>
        <time>2022-05-28T13:40:13Z</time>
      </trkpt>
      <trkpt lat="49.86839" lon="2.39695">
        <ele>63.4</ele>
        <time>2022-05-28T13:40:14Z</time>
      </trkpt>
      <trkpt lat="49.86839" lon="2.39693">
        <ele>63.4</ele>
        <time>2022-05-28T13:40:15Z</time>
      </trkpt>
      <trkpt lat="49.86839" lon="2.39691">
        <ele>63.4</ele>
        <time>2022-05-28T13:40:16Z</time>
      </trkpt>
      <trkpt lat="49.86839" lon="2.39688">
        <ele>63.4</ele>
        <time>2022-05-28T13:40:17Z</time>
      </trkpt>
      <trkpt lat="49.86839" lon="2.39686">
        <ele>63.5</ele>
        <time>2022-05-28T13:40:18Z</time>
      </trkpt>
      <trkpt lat="49.86839" lon="2.39685">
        <ele>63.5</ele>
        <time>2022-05-28T13:40:19Z</time>
      </trkpt>
      <trkpt lat="49.86839" lon="2.39682">
        <ele>63.5</ele>
        <time>2022-05-28T13:40:20Z</time>
      </trkpt>
      <trkpt lat="49.86839" lon="2.3968">
        <ele>63.5</ele>
        <time>2022-05-28T13:40:21Z</time>
      </trkpt>
      <trkpt lat="49.86839" lon="2.39679">
        <ele>63.5</ele>
        <time>2022-05-28T13:40:22Z</time>
      </trkpt>
      <trkpt lat="49.86839" lon="2.39675">
        <ele>63.5</ele>
        <time>2022-05-28T13:40:23Z</time>
      </trkpt>
      <trkpt lat="49.86839" lon="2.39674">
        <ele>63.5</ele>
        <time>2022-05-28T13:40:24Z</time>
      </trkpt>
      <trkpt lat="49.86839" lon="2.39673">
        <ele>63.5</ele>
        <time>2022-05-28T13:40:25Z</time>
      </trkpt>
      <trkpt lat="49.86839" lon="2.3967">
        <ele>63.5</ele>
        <time>2022-05-28T13:40:26Z</time>
      </trkpt>
      <trkpt lat="49.8684" lon="2.39668">
        <ele>63.5</ele>
        <time>2022-05-28T13:40:27Z</time>
      </trkpt>
      <trkpt lat="49.8684" lon="2.39667">
        <ele>63.5</ele>
        <time>2022-05-28T13:40:28Z</time>
      </trkpt>
      <trkpt lat="49.8684" lon="2.39665">
        <ele>63.5</ele>
        <time>2022-05-28T13:40:29Z</time>
      </trkpt>
      <trkpt lat="49.8684" lon="2.39664">
        <ele>63.5</ele>
        <time>2022-05-28T13:40:30Z</time>
      </trkpt>
      <trkpt lat="49.8684" lon="2.39662">
        <ele>63.5</ele>
        <time>2022-05-28T13:40:31Z</time>
      </trkpt>
      <trkpt lat="49.8684" lon="2.3966">
        <ele>63.5</ele>
        <time>2022-05-28T13:40:32Z</time>
      </trkpt>
      <trkpt lat="49.8684" lon="2.39657">
        <ele>63.5</ele>
        <time>2022-05-28T13:40:33Z</time>
      </trkpt>
      <trkpt lat="49.8684" lon="2.39656">
        <ele>63.5</ele>
        <time>2022-05-28T13:40:34Z</time>
      </trkpt>
      <trkpt lat="49.8684" lon="2.39654">
        <ele>63.6</ele>
        <time>2022-05-28T13:40:35Z</time>
      </trkpt>
      <trkpt lat="49.8684" lon="2.39652">
        <ele>63.6</ele>
        <time>2022-05-28T13:40:36Z</time>
      </trkpt>
      <trkpt lat="49.8684" lon="2.3965">
        <ele>63.6</ele>
        <time>2022-05-28T13:40:37Z</time>
      </trkpt>
      <trkpt lat="49.8684" lon="2.39647">
        <ele>63.6</ele>
        <time>2022-05-28T13:40:38Z</time>
      </trkpt>
      <trkpt lat="49.8684" lon="2.39646">
        <ele>63.6</ele>
        <time>2022-05-28T13:40:39Z</time>
      </trkpt>
      <trkpt lat="49.8684" lon="2.39644">
        <ele>63.6</ele>
        <time>2022-05-28T13:40:40Z</time>
      </trkpt>
      <trkpt lat="49.8684" lon="2.39642">
        <ele>63.6</ele>
        <time>2022-05-28T13:40:41Z</time>
      </trkpt>
      <trkpt lat="49.8684" lon="2.3964">
        <ele>63.6</ele>
        <time>2022-05-28T13:40:42Z</time>
      </trkpt>
      <trkpt lat="49.8684" lon="2.39638">
        <ele>63.6</ele>
        <time>2022-05-28T13:40:43Z</time>
      </trkpt>
      <trkpt lat="49.86839" lon="2.39634">
        <ele>63.6</ele>
        <time>2022-05-28T13:40:44Z</time>
      </trkpt>
      <trkpt lat="49.86839" lon="2.39633">
        <ele>63.6</ele>
        <time>2022-05-28T13:40:45Z</time>
      </trkpt>
      <trkpt lat="49.86839" lon="2.39632">
        <ele>63.6</ele>
        <time>2022-05-28T13:40:46Z</time>
      </trkpt>
      <trkpt lat="49.8684" lon="2.39628">
        <ele>63.6</ele>
        <time>2022-05-28T13:40:47Z</time>
      </trkpt>
      <trkpt lat="49.8684" lon="2.39627">
        <ele>63.6</ele>
        <time>2022-05-28T13:40:48Z</time>
      </trkpt>
      <trkpt lat="49.8684" lon="2.39626">
        <ele>63.6</ele>
        <time>2022-05-28T13:40:49Z</time>
      </trkpt>
      <trkpt lat="49.8684" lon="2.39622">
        <ele>63.6</ele>
        <time>2022-05-28T13:40:50Z</time>
      </trkpt>
      <trkpt lat="49.8684" lon="2.39621">
        <ele>63.6</ele>
        <time>2022-05-28T13:40:51Z</time>
      </trkpt>
      <trkpt lat="49.8684" lon="2.39619">
        <ele>63.7</ele>
        <time>2022-05-28T13:40:52Z</time>
      </trkpt>
      <trkpt lat="49.8684" lon="2.39616">
        <ele>63.7</ele>
        <time>2022-05-28T13:40:53Z</time>
      </trkpt>
      <trkpt lat="49.8684" lon="2.39614">
        <ele>63.7</ele>
        <time>2022-05-28T13:40:54Z</time>
      </trkpt>
      <trkpt lat="49.8684" lon="2.39613">
        <ele>63.7</ele>
        <time>2022-05-28T13:40:55Z</time>
      </trkpt>
      <trkpt lat="49.8684" lon="2.39611">
        <ele>63.7</ele>
        <time>2022-05-28T13:40:56Z</time>
      </trkpt>
      <trkpt lat="49.8684" lon="2.39609">
        <ele>63.7</ele>
        <time>2022-05-28T13:40:57Z</time>
      </trkpt>
      <trkpt lat="49.8684" lon="2.39606">
        <ele>63.7</ele>
        <time>2022-05-28T13:40:58Z</time>
      </trkpt>
      <trkpt lat="49.8684" lon="2.39605">
        <ele>63.7</ele>
        <time>2022-05-28T13:40:59Z</time>
      </trkpt>
      <trkpt lat="49.86841" lon="2.39603">
        <ele>63.7</ele>
        <time>2022-05-28T13:41:00Z</time>
      </trkpt>
      <trkpt lat="49.86842" lon="2.39601">
        <ele>63.7</ele>
        <time>2022-05-28T13:41:01Z</time>
      </trkpt>
      <trkpt lat="49.86843" lon="2.396">
        <ele>63.8</ele>
        <time>2022-05-28T13:41:02Z</time>
      </trkpt>
      <trkpt lat="49.86844" lon="2.39599">
        <ele>63.8</ele>
        <time>2022-05-28T13:41:03Z</time>
      </trkpt>
      <trkpt lat="49.86844" lon="2.39599">
        <ele>63.8</ele>
        <time>2022-05-28T13:41:04Z</time>
      </trkpt>
      <trkpt lat="49.86845" lon="2.39598">
        <ele>63.8</ele>
        <time>2022-05-28T13:41:05Z</time>
      </trkpt>
      <trkpt lat="49.86846" lon="2.39598">
        <ele>63.8</ele>
        <time>2022-05-28T13:41:06Z</time>
      </trkpt>
      <trkpt lat="49.86847" lon="2.39598">
        <ele>63.8</ele>
        <time>2022-05-28T13:41:07Z</time>
      </trkpt>
      <trkpt lat="49.86848" lon="2.39597">
        <ele>63.8</ele>
        <time>2022-05-28T13:41:08Z</time>
      </trkpt>
      <trkpt lat="49.86849" lon="2.39596">
        <ele>63.8</ele>
        <time>2022-05-28T13:41:09Z</time>
      </trkpt>
      <trkpt lat="49.86849" lon="2.39594">
        <ele>63.8</ele>
        <time>2022-05-28T13:41:10Z</time>
      </trkpt>
      <trkpt lat="49.8685" lon="2.39591">
        <ele>63.8</ele>
        <time>2022-05-28T13:41:11Z</time>
      </trkpt>
      <trkpt lat="49.8685" lon="2.39589">
        <ele>63.8</ele>
        <time>2022-05-28T13:41:12Z</time>
      </trkpt>
      <trkpt lat="49.8685" lon="2.39586">
        <ele>63.8</ele>
        <time>2022-05-28T13:41:13Z</time>
      </trkpt>
      <trkpt lat="49.86849" lon="2.39584">
        <ele>63.9</ele>
        <time>2022-05-28T13:41:14Z</time>
      </trkpt>
      <trkpt lat="49.86848" lon="2.39582">
        <ele>63.9</ele>
        <time>2022-05-28T13:41:15Z</time>
      </trkpt>
      <trkpt lat="49.86847" lon="2.3958">
        <ele>63.9</ele>
        <time>2022-05-28T13:41:16Z</time>
      </trkpt>
      <trkpt lat="49.86846" lon="2.3958">
        <ele>63.9</ele>
        <time>2022-05-28T13:41:17Z</time>
      </trkpt>
      <trkpt lat="49.86845" lon="2.39579">
        <ele>63.9</ele>
        <time>2022-05-28T13:41:18Z</time>
      </trkpt>
      <trkpt lat="49.86845" lon="2.39578">
        <ele>63.9</ele>
        <time>2022-05-28T13:41:19Z</time>
      </trkpt>
      <trkpt lat="49.86845" lon="2.39577">
        <ele>63.9</ele>
        <time>2022-05-28T13:41:20Z</time>
      </trkpt>
      <trkpt lat="49.86846" lon="2.39575">
        <ele>63.9</ele>
        <time>2022-05-28T13:41:21Z</time>
      </trkpt>
      <trkpt lat="49.86846" lon="2.39574">
        <ele>63.9</ele>
        <time>2022-05-28T13:41:22Z</time>
      </trkpt>
      <trkpt lat="49.86846" lon="2.39573">
        <ele>63.9</ele>
        <time>2022-05-28T13:41:23Z</time>
      </trkpt>
      <trkpt lat="49.86846" lon="2.39572">
        <ele>63.9</ele>
        <time>2022-05-28T13:41:24Z</time>
      </trkpt>
      <trkpt lat="49.86846" lon="2.3957">
        <ele>63.9</ele>
        <time>2022-05-28T13:41:25Z</time>
      </trkpt>
      <trkpt lat="49.86846" lon="2.39567">
        <ele>63.9</ele>
        <time>2022-05-28T13:41:26Z</time>
      </trkpt>
      <trkpt lat="49.86846" lon="2.39565">
        <ele>63.9</ele>
        <time>2022-05-28T13:41:27Z</time>
      </trkpt>
      <trkpt lat="49.86846" lon="2.39563">
        <ele>63.9</ele>
        <time>2022-05-28T13:41:28Z</time>
      </trkpt>
      <trkpt lat="49.86846" lon="2.39561">
        <ele>64</ele>
        <time>2022-05-28T13:41:29Z</time>
      </trkpt>
      <trkpt lat="49.86847" lon="2.39559">
        <ele>64</ele>
        <time>2022-05-28T13:41:30Z</time>
      </trkpt>
      <trkpt lat="49.86847" lon="2.39557">
        <ele>64</ele>
        <time>2022-05-28T13:41:31Z</time>
      </trkpt>
      <trkpt lat="49.86847" lon="2.39553">
        <ele>64</ele>
        <time>2022-05-28T13:41:32Z</time>
      </trkpt>
      <trkpt lat="49.86847" lon="2.39552">
        <ele>64</ele>
        <time>2022-05-28T13:41:33Z</time>
      </trkpt>
      <trkpt lat="49.86847" lon="2.39551">
        <ele>64</ele>
        <time>2022-05-28T13:41:34Z</time>
      </trkpt>
      <trkpt lat="49.86847" lon="2.39549">
        <ele>64</ele>
        <time>2022-05-28T13:41:35Z</time>
      </trkpt>
      <trkpt lat="49.86847" lon="2.39547">
        <ele>64</ele>
        <time>2022-05-28T13:41:36Z</time>
      </trkpt>
      <trkpt lat="49.86847" lon="2.39545">
        <ele>64</ele>
        <time>2022-05-28T13:41:37Z</time>
      </trkpt>
      <trkpt lat="49.86847" lon="2.39544">
        <ele>64</ele>
        <time>2022-05-28T13:41:38Z</time>
      </trkpt>
      <trkpt lat="49.86847" lon="2.39542">
        <ele>64</ele>
        <time>2022-05-28T13:41:39Z</time>
      </trkpt>
      <trkpt lat="49.86846" lon="2.3954">
        <ele>64</ele>
        <time>2022-05-28T13:41:40Z</time>
      </trkpt>
      <trkpt lat="49.86846" lon="2.39538">
        <ele>64</ele>
        <time>2022-05-28T13:41:41Z</time>
      </trkpt>
      <trkpt lat="49.86845" lon="2.39536">
        <ele>64</ele>
        <time>2022-05-28T13:41:42Z</time>
      </trkpt>
      <trkpt lat="49.86845" lon="2.39535">
        <ele>64</ele>
        <time>2022-05-28T13:41:43Z</time>
      </trkpt>
      <trkpt lat="49.86844" lon="2.39533">
        <ele>64.1</ele>
        <time>2022-05-28T13:41:44Z</time>
      </trkpt>
      <trkpt lat="49.86844" lon="2.39532">
        <ele>64.1</ele>
        <time>2022-05-28T13:41:45Z</time>
      </trkpt>
      <trkpt lat="49.86844" lon="2.3953">
        <ele>64.1</ele>
        <time>2022-05-28T13:41:46Z</time>
      </trkpt>
      <trkpt lat="49.86844" lon="2.39527">
        <ele>64.1</ele>
        <time>2022-05-28T13:41:47Z</time>
      </trkpt>
      <trkpt lat="49.86844" lon="2.39526">
        <ele>64.1</ele>
        <time>2022-05-28T13:41:48Z</time>
      </trkpt>
      <trkpt lat="49.86844" lon="2.39524">
        <ele>64.1</ele>
        <time>2022-05-28T13:41:49Z</time>
      </trkpt>
      <trkpt lat="49.86844" lon="2.39522">
        <ele>64.1</ele>
        <time>2022-05-28T13:41:50Z</time>
      </trkpt>
      <trkpt lat="49.86844" lon="2.3952">
        <ele>64.1</ele>
        <time>2022-05-28T13:41:51Z</time>
      </trkpt>
      <trkpt lat="49.86844" lon="2.39517">
        <ele>64.1</ele>
        <time>2022-05-28T13:41:52Z</time>
      </trkpt>
      <trkpt lat="49.86844" lon="2.39516">
        <ele>64.1</ele>
        <time>2022-05-28T13:41:53Z</time>
      </trkpt>
      <trkpt lat="49.86844" lon="2.39515">
        <ele>64.1</ele>
        <time>2022-05-28T13:41:54Z</time>
      </trkpt>
      <trkpt lat="49.86843" lon="2.39513">
        <ele>64.1</ele>
        <time>2022-05-28T13:41:55Z</time>
      </trkpt>
      <trkpt lat="49.86842" lon="2.39512">
        <ele>64.1</ele>
        <time>2022-05-28T13:41:56Z</time>
      </trkpt>
      <trkpt lat="49.86841" lon="2.39511">
        <ele>64.1</ele>
        <time>2022-05-28T13:41:57Z</time>
      </trkpt>
      <trkpt lat="49.86841" lon="2.3951">
        <ele>64.1</ele>
        <time>2022-05-28T13:41:58Z</time>
      </trkpt>
      <trkpt lat="49.86842" lon="2.39508">
        <ele>64.1</ele>
        <time>2022-05-28T13:41:59Z</time>
      </trkpt>
      <trkpt lat="49.86842" lon="2.39506">
        <ele>64.1</ele>
        <time>2022-05-28T13:42:00Z</time>
      </trkpt>
      <trkpt lat="49.86843" lon="2.39504">
        <ele>64.2</ele>
        <time>2022-05-28T13:42:01Z</time>
      </trkpt>
      <trkpt lat="49.86844" lon="2.39502">
        <ele>64.2</ele>
        <time>2022-05-28T13:42:02Z</time>
      </trkpt>
      <trkpt lat="49.86845" lon="2.39498">
        <ele>64.2</ele>
        <time>2022-05-28T13:42:03Z</time>
      </trkpt>
      <trkpt lat="49.86845" lon="2.39497">
        <ele>64.2</ele>
        <time>2022-05-28T13:42:04Z</time>
      </trkpt>
      <trkpt lat="49.86845" lon="2.39494">
        <ele>64.2</ele>
        <time>2022-05-28T13:42:05Z</time>
      </trkpt>
      <trkpt lat="49.86846" lon="2.39493">
        <ele>64.2</ele>
        <time>2022-05-28T13:42:06Z</time>
      </trkpt>
      <trkpt lat="49.86846" lon="2.39491">
        <ele>64.2</ele>
        <time>2022-05-28T13:42:07Z</time>
      </trkpt>
      <trkpt lat="49.86846" lon="2.3949">
        <ele>64.2</ele>
        <time>2022-05-28T13:42:08Z</time>
      </trkpt>
      <trkpt lat="49.86846" lon="2.39488">
        <ele>64.2</ele>
        <time>2022-05-28T13:42:09Z</time>
      </trkpt>
      <trkpt lat="49.86846" lon="2.39486">
        <ele>64.2</ele>
        <time>2022-05-28T13:42:10Z</time>
      </trkpt>
      <trkpt lat="49.86846" lon="2.39485">
        <ele>64.2</ele>
        <time>2022-05-28T13:42:11Z</time>
      </trkpt>
      <trkpt lat="49.86846" lon="2.39483">
        <ele>64.2</ele>
        <time>2022-05-28T13:42:12Z</time>
      </trkpt>
      <trkpt lat="49.86846" lon="2.39481">
        <ele>64.2</ele>
        <time>2022-05-28T13:42:13Z</time>
      </trkpt>
      <trkpt lat="49.86846" lon="2.39478">
        <ele>64.2</ele>
        <time>2022-05-28T13:42:14Z</time>
      </trkpt>
      <trkpt lat="49.86845" lon="2.39477">
        <ele>64.2</ele>
        <time>2022-05-28T13:42:15Z</time>
      </trkpt>
      <trkpt lat="49.86845" lon="2.39476">
        <ele>64.2</ele>
        <time>2022-05-28T13:42:16Z</time>
      </trkpt>
      <trkpt lat="49.86845" lon="2.39472">
        <ele>64.2</ele>
        <time>2022-05-28T13:42:17Z</time>
      </trkpt>
      <trkpt lat="49.86845" lon="2.39471">
        <ele>64.2</ele>
        <time>2022-05-28T13:42:18Z</time>
      </trkpt>
      <trkpt lat="49.86845" lon="2.39469">
        <ele>64.2</ele>
        <time>2022-05-28T13:42:19Z</time>
      </trkpt>
      <trkpt lat="49.86845" lon="2.39468">
        <ele>64.2</ele>
        <time>2022-05-28T13:42:20Z</time>
      </trkpt>
      <trkpt lat="49.86845" lon="2.39466">
        <ele>64.3</ele>
        <time>2022-05-28T13:42:21Z</time>
      </trkpt>
      <trkpt lat="49.86845" lon="2.39464">
        <ele>64.3</ele>
        <time>2022-05-28T13:42:22Z</time>
      </trkpt>
      <trkpt lat="49.86844" lon="2.39463">
        <ele>64.3</ele>
        <time>2022-05-28T13:42:23Z</time>
      </trkpt>
      <trkpt lat="49.86844" lon="2.39461">
        <ele>64.3</ele>
        <time>2022-05-28T13:42:24Z</time>
      </trkpt>
      <trkpt lat="49.86844" lon="2.39459">
        <ele>64.3</ele>
        <time>2022-05-28T13:42:25Z</time>
      </trkpt>
      <trkpt lat="49.86844" lon="2.39456">
        <ele>64.3</ele>
        <time>2022-05-28T13:42:26Z</time>
      </trkpt>
      <trkpt lat="49.86844" lon="2.39454">
        <ele>64.3</ele>
        <time>2022-05-28T13:42:27Z</time>
      </trkpt>
      <trkpt lat="49.86844" lon="2.39453">
        <ele>64.3</ele>
        <time>2022-05-28T13:42:28Z</time>
      </trkpt>
      <trkpt lat="49.86844" lon="2.39449">
        <ele>64.3</ele>
        <time>2022-05-28T13:42:29Z</time>
      </trkpt>
      <trkpt lat="49.86844" lon="2.39448">
        <ele>64.3</ele>
        <time>2022-05-28T13:42:30Z</time>
      </trkpt>
      <trkpt lat="49.86844" lon="2.39447">
        <ele>64.3</ele>
        <time>2022-05-28T13:42:31Z</time>
      </trkpt>
      <trkpt lat="49.86844" lon="2.39444">
        <ele>64.3</ele>
        <time>2022-05-28T13:42:32Z</time>
      </trkpt>
      <trkpt lat="49.86843" lon="2.39442">
        <ele>64.3</ele>
        <time>2022-05-28T13:42:33Z</time>
      </trkpt>
      <trkpt lat="49.86843" lon="2.39441">
        <ele>64.3</ele>
        <time>2022-05-28T13:42:34Z</time>
      </trkpt>
      <trkpt lat="49.86842" lon="2.39439">
        <ele>64.4</ele>
        <time>2022-05-28T13:42:35Z</time>
      </trkpt>
      <trkpt lat="49.86842" lon="2.39438">
        <ele>64.4</ele>
        <time>2022-05-28T13:42:36Z</time>
      </trkpt>
      <trkpt lat="49.86843" lon="2.39436">
        <ele>64.4</ele>
        <time>2022-05-28T13:42:37Z</time>
      </trkpt>
      <trkpt lat="49.86843" lon="2.39432">
        <ele>64.4</ele>
        <time>2022-05-28T13:42:38Z</time>
      </trkpt>
      <trkpt lat="49.86843" lon="2.39431">
        <ele>64.4</ele>
        <time>2022-05-28T13:42:39Z</time>
      </trkpt>
      <trkpt lat="49.86843" lon="2.3943">
        <ele>64.4</ele>
        <time>2022-05-28T13:42:40Z</time>
      </trkpt>
      <trkpt lat="49.86843" lon="2.39428">
        <ele>64.4</ele>
        <time>2022-05-28T13:42:41Z</time>
      </trkpt>
      <trkpt lat="49.86843" lon="2.39425">
        <ele>64.4</ele>
        <time>2022-05-28T13:42:42Z</time>
      </trkpt>
      <trkpt lat="49.86844" lon="2.39421">
        <ele>64.4</ele>
        <time>2022-05-28T13:42:43Z</time>
      </trkpt>
      <trkpt lat="49.86844" lon="2.39419">
        <ele>64.4</ele>
        <time>2022-05-28T13:42:44Z</time>
      </trkpt>
      <trkpt lat="49.86844" lon="2.39418">
        <ele>64.4</ele>
        <time>2022-05-28T13:42:45Z</time>
      </trkpt>
      <trkpt lat="49.86844" lon="2.39416">
        <ele>64.4</ele>
        <time>2022-05-28T13:42:46Z</time>
      </trkpt>
      <trkpt lat="49.86843" lon="2.39415">
        <ele>64.4</ele>
        <time>2022-05-28T13:42:47Z</time>
      </trkpt>
      <trkpt lat="49.86842" lon="2.39414">
        <ele>64.4</ele>
        <time>2022-05-28T13:42:48Z</time>
      </trkpt>
      <trkpt lat="49.86842" lon="2.3941">
        <ele>64.4</ele>
        <time>2022-05-28T13:42:49Z</time>
      </trkpt>
      <trkpt lat="49.86842" lon="2.3941">
        <ele>64.4</ele>
        <time>2022-05-28T13:42:50Z</time>
      </trkpt>
      <trkpt lat="49.86842" lon="2.39408">
        <ele>64.5</ele>
        <time>2022-05-28T13:42:51Z</time>
      </trkpt>
      <trkpt lat="49.86842" lon="2.39407">
        <ele>64.5</ele>
        <time>2022-05-28T13:42:52Z</time>
      </trkpt>
      <trkpt lat="49.86842" lon="2.39405">
        <ele>64.5</ele>
        <time>2022-05-28T13:42:53Z</time>
      </trkpt>
      <trkpt lat="49.86841" lon="2.39404">
        <ele>64.5</ele>
        <time>2022-05-28T13:42:54Z</time>
      </trkpt>
      <trkpt lat="49.8684" lon="2.39403">
        <ele>64.5</ele>
        <time>2022-05-28T13:42:55Z</time>
      </trkpt>
      <trkpt lat="49.8684" lon="2.39402">
        <ele>64.5</ele>
        <time>2022-05-28T13:42:56Z</time>
      </trkpt>
      <trkpt lat="49.8684" lon="2.39402">
        <ele>64.5</ele>
        <time>2022-05-28T13:42:57Z</time>
      </trkpt>
      <trkpt lat="49.8684" lon="2.39401">
        <ele>64.5</ele>
        <time>2022-05-28T13:42:58Z</time>
      </trkpt>
      <trkpt lat="49.8684" lon="2.39399">
        <ele>64.5</ele>
        <time>2022-05-28T13:42:59Z</time>
      </trkpt>
      <trkpt lat="49.8684" lon="2.39398">
        <ele>64.5</ele>
        <time>2022-05-28T13:43:00Z</time>
      </trkpt>
      <trkpt lat="49.8684" lon="2.39397">
        <ele>64.5</ele>
        <time>2022-05-28T13:43:01Z</time>
      </trkpt>
      <trkpt lat="49.86841" lon="2.39395">
        <ele>64.5</ele>
        <time>2022-05-28T13:43:02Z</time>
      </trkpt>
      <trkpt lat="49.86841" lon="2.39394">
        <ele>64.5</ele>
        <time>2022-05-28T13:43:03Z</time>
      </trkpt>
      <trkpt lat="49.86841" lon="2.39391">
        <ele>64.5</ele>
        <time>2022-05-28T13:43:04Z</time>
      </trkpt>
      <trkpt lat="49.86841" lon="2.3939">
        <ele>64.6</ele>
        <time>2022-05-28T13:43:05Z</time>
      </trkpt>
      <trkpt lat="49.86841" lon="2.39388">
        <ele>64.6</ele>
        <time>2022-05-28T13:43:06Z</time>
      </trkpt>
      <trkpt lat="49.86841" lon="2.39386">
        <ele>64.6</ele>
        <time>2022-05-28T13:43:07Z</time>
      </trkpt>
      <trkpt lat="49.86842" lon="2.39384">
        <ele>64.6</ele>
        <time>2022-05-28T13:43:08Z</time>
      </trkpt>
      <trkpt lat="49.86841" lon="2.39382">
        <ele>64.6</ele>
        <time>2022-05-28T13:43:09Z</time>
      </trkpt>
      <trkpt lat="49.86841" lon="2.39381">
        <ele>64.6</ele>
        <time>2022-05-28T13:43:10Z</time>
      </trkpt>
      <trkpt lat="49.8684" lon="2.39379">
        <ele>64.6</ele>
        <time>2022-05-28T13:43:11Z</time>
      </trkpt>
      <trkpt lat="49.8684" lon="2.39379">
        <ele>64.6</ele>
        <time>2022-05-28T13:43:12Z</time>
      </trkpt>
      <trkpt lat="49.86839" lon="2.39378">
        <ele>64.6</ele>
        <time>2022-05-28T13:43:13Z</time>
      </trkpt>
      <trkpt lat="49.86839" lon="2.39377">
        <ele>64.6</ele>
        <time>2022-05-28T13:43:14Z</time>
      </trkpt>
      <trkpt lat="49.8684" lon="2.39376">
        <ele>64.6</ele>
        <time>2022-05-28T13:43:15Z</time>
      </trkpt>
      <trkpt lat="49.8684" lon="2.39374">
        <ele>64.6</ele>
        <time>2022-05-28T13:43:16Z</time>
      </trkpt>
      <trkpt lat="49.86841" lon="2.39373">
        <ele>64.6</ele>
        <time>2022-05-28T13:43:17Z</time>
      </trkpt>
      <trkpt lat="49.86841" lon="2.39371">
        <ele>64.6</ele>
        <time>2022-05-28T13:43:18Z</time>
      </trkpt>
      <trkpt lat="49.8684" lon="2.39369">
        <ele>64.6</ele>
        <time>2022-05-28T13:43:19Z</time>
      </trkpt>
      <trkpt lat="49.8684" lon="2.39366">
        <ele>64.6</ele>
        <time>2022-05-28T13:43:20Z</time>
      </trkpt>
      <trkpt lat="49.86841" lon="2.39364">
        <ele>64.7</ele>
        <time>2022-05-28T13:43:21Z</time>
      </trkpt>
      <trkpt lat="49.86841" lon="2.39363">
        <ele>64.7</ele>
        <time>2022-05-28T13:43:22Z</time>
      </trkpt>
      <trkpt lat="49.86841" lon="2.39361">
        <ele>64.7</ele>
        <time>2022-05-28T13:43:23Z</time>
      </trkpt>
      <trkpt lat="49.86842" lon="2.39359">
        <ele>64.7</ele>
        <time>2022-05-28T13:43:24Z</time>
      </trkpt>
      <trkpt lat="49.86842" lon="2.39356">
        <ele>64.7</ele>
        <time>2022-05-28T13:43:25Z</time>
      </trkpt>
      <trkpt lat="49.86843" lon="2.39355">
        <ele>64.7</ele>
        <time>2022-05-28T13:43:26Z</time>
      </trkpt>
      <trkpt lat="49.86843" lon="2.39353">
        <ele>64.7</ele>
        <time>2022-05-28T13:43:27Z</time>
      </trkpt>
      <trkpt lat="49.86843" lon="2.39352">
        <ele>64.7</ele>
        <time>2022-05-28T13:43:28Z</time>
      </trkpt>
      <trkpt lat="49.86842" lon="2.3935">
        <ele>64.7</ele>
        <time>2022-05-28T13:43:29Z</time>
      </trkpt>
      <trkpt lat="49.86842" lon="2.39349">
        <ele>64.7</ele>
        <time>2022-05-28T13:43:30Z</time>
      </trkpt>
      <trkpt lat="49.86842" lon="2.39347">
        <ele>64.7</ele>
        <time>2022-05-28T13:43:31Z</time>
      </trkpt>
      <trkpt lat="49.86843" lon="2.39346">
        <ele>64.7</ele>
        <time>2022-05-28T13:43:32Z</time>
      </trkpt>
      <trkpt lat="49.86843" lon="2.39344">
        <ele>64.7</ele>
        <time>2022-05-28T13:43:33Z</time>
      </trkpt>
      <trkpt lat="49.86843" lon="2.39342">
        <ele>64.7</ele>
        <time>2022-05-28T13:43:34Z</time>
      </trkpt>
      <trkpt lat="49.86844" lon="2.39341">
        <ele>64.7</ele>
        <time>2022-05-28T13:43:35Z</time>
      </trkpt>
      <trkpt lat="49.86844" lon="2.3934">
        <ele>64.7</ele>
        <time>2022-05-28T13:43:36Z</time>
      </trkpt>
      <trkpt lat="49.86844" lon="2.39339">
        <ele>64.7</ele>
        <time>2022-05-28T13:43:37Z</time>
      </trkpt>
      <trkpt lat="49.86844" lon="2.39338">
        <ele>64.7</ele>
        <time>2022-05-28T13:43:38Z</time>
      </trkpt>
      <trkpt lat="49.86845" lon="2.39336">
        <ele>64.7</ele>
        <time>2022-05-28T13:43:39Z</time>
      </trkpt>
      <trkpt lat="49.86845" lon="2.39335">
        <ele>64.7</ele>
        <time>2022-05-28T13:43:40Z</time>
      </trkpt>
      <trkpt lat="49.86845" lon="2.39333">
        <ele>64.7</ele>
        <time>2022-05-28T13:43:41Z</time>
      </trkpt>
      <trkpt lat="49.86845" lon="2.39331">
        <ele>64.8</ele>
        <time>2022-05-28T13:43:42Z</time>
      </trkpt>
      <trkpt lat="49.86846" lon="2.39328">
        <ele>64.8</ele>
        <time>2022-05-28T13:43:43Z</time>
      </trkpt>
      <trkpt lat="49.86846" lon="2.39325">
        <ele>64.8</ele>
        <time>2022-05-28T13:43:44Z</time>
      </trkpt>
      <trkpt lat="49.86846" lon="2.39324">
        <ele>64.8</ele>
        <time>2022-05-28T13:43:45Z</time>
      </trkpt>
      <trkpt lat="49.86846" lon="2.39322">
        <ele>64.8</ele>
        <time>2022-05-28T13:43:46Z</time>
      </trkpt>
      <trkpt lat="49.86846" lon="2.3932">
        <ele>64.8</ele>
        <time>2022-05-28T13:43:47Z</time>
      </trkpt>
      <trkpt lat="49.86847" lon="2.39318">
        <ele>64.8</ele>
        <time>2022-05-28T13:43:48Z</time>
      </trkpt>
      <trkpt lat="49.86847" lon="2.39315">
        <ele>64.8</ele>
        <time>2022-05-28T13:43:49Z</time>
      </trkpt>
      <trkpt lat="49.86846" lon="2.39314">
        <ele>64.8</ele>
        <time>2022-05-28T13:43:50Z</time>
      </trkpt>
      <trkpt lat="49.86846" lon="2.39312">
        <ele>64.8</ele>
        <time>2022-05-28T13:43:51Z</time>
      </trkpt>
      <trkpt lat="49.86846" lon="2.39311">
        <ele>64.8</ele>
        <time>2022-05-28T13:43:52Z</time>
      </trkpt>
      <trkpt lat="49.86846" lon="2.39308">
        <ele>64.8</ele>
        <time>2022-05-28T13:43:53Z</time>
      </trkpt>
      <trkpt lat="49.86846" lon="2.39306">
        <ele>64.8</ele>
        <time>2022-05-28T13:43:54Z</time>
      </trkpt>
      <trkpt lat="49.86846" lon="2.39305">
        <ele>64.8</ele>
        <time>2022-05-28T13:43:55Z</time>
      </trkpt>
      <trkpt lat="49.86845" lon="2.39303">
        <ele>64.8</ele>
        <time>2022-05-28T13:43:56Z</time>
      </trkpt>
      <trkpt lat="49.86845" lon="2.39302">
        <ele>64.8</ele>
        <time>2022-05-28T13:43:57Z</time>
      </trkpt>
      <trkpt lat="49.86845" lon="2.393">
        <ele>64.8</ele>
        <time>2022-05-28T13:43:58Z</time>
      </trkpt>
      <trkpt lat="49.86845" lon="2.39296">
        <ele>64.8</ele>
        <time>2022-05-28T13:43:59Z</time>
      </trkpt>
      <trkpt lat="49.86845" lon="2.39295">
        <ele>64.8</ele>
        <time>2022-05-28T13:44:00Z</time>
      </trkpt>
      <trkpt lat="49.86845" lon="2.39294">
        <ele>64.8</ele>
        <time>2022-05-28T13:44:01Z</time>
      </trkpt>
      <trkpt lat="49.86844" lon="2.39291">
        <ele>64.8</ele>
        <time>2022-05-28T13:44:02Z</time>
      </trkpt>
      <trkpt lat="49.86844" lon="2.3929">
        <ele>64.8</ele>
        <time>2022-05-28T13:44:03Z</time>
      </trkpt>
      <trkpt lat="49.86844" lon="2.39288">
        <ele>64.8</ele>
        <time>2022-05-28T13:44:04Z</time>
      </trkpt>
      <trkpt lat="49.86843" lon="2.39285">
        <ele>64.9</ele>
        <time>2022-05-28T13:44:05Z</time>
      </trkpt>
      <trkpt lat="49.86843" lon="2.39284">
        <ele>64.9</ele>
        <time>2022-05-28T13:44:06Z</time>
      </trkpt>
      <trkpt lat="49.86843" lon="2.39283">
        <ele>64.9</ele>
        <time>2022-05-28T13:44:07Z</time>
      </trkpt>
      <trkpt lat="49.86842" lon="2.3928">
        <ele>64.9</ele>
        <time>2022-05-28T13:44:08Z</time>
      </trkpt>
      <trkpt lat="49.86842" lon="2.39279">
        <ele>64.9</ele>
        <time>2022-05-28T13:44:09Z</time>
      </trkpt>
      <trkpt lat="49.86842" lon="2.39277">
        <ele>64.9</ele>
        <time>2022-05-28T13:44:10Z</time>
      </trkpt>
      <trkpt lat="49.86842" lon="2.39276">
        <ele>64.9</ele>
        <time>2022-05-28T13:44:11Z</time>
      </trkpt>
      <trkpt lat="49.86842" lon="2.39274">
        <ele>64.9</ele>
        <time>2022-05-28T13:44:12Z</time>
      </trkpt>
      <trkpt lat="49.86842" lon="2.39272">
        <ele>64.9</ele>
        <time>2022-05-28T13:44:13Z</time>
      </trkpt>
      <trkpt lat="49.86842" lon="2.39271">
        <ele>64.9</ele>
        <time>2022-05-28T13:44:14Z</time>
      </trkpt>
      <trkpt lat="49.86841" lon="2.39269">
        <ele>64.9</ele>
        <time>2022-05-28T13:44:15Z</time>
      </trkpt>
      <trkpt lat="49.86841" lon="2.39268">
        <ele>64.9</ele>
        <time>2022-05-28T13:44:16Z</time>
      </trkpt>
      <trkpt lat="49.86841" lon="2.39266">
        <ele>64.9</ele>
        <time>2022-05-28T13:44:17Z</time>
      </trkpt>
      <trkpt lat="49.86841" lon="2.39265">
        <ele>64.9</ele>
        <time>2022-05-28T13:44:18Z</time>
      </trkpt>
      <trkpt lat="49.8684" lon="2.39263">
        <ele>64.9</ele>
        <time>2022-05-28T13:44:19Z</time>
      </trkpt>
      <trkpt lat="49.86839" lon="2.3926">
        <ele>64.9</ele>
        <time>2022-05-28T13:44:20Z</time>
      </trkpt>
      <trkpt lat="49.86839" lon="2.39258">
        <ele>64.9</ele>
        <time>2022-05-28T13:44:21Z</time>
      </trkpt>
      <trkpt lat="49.86839" lon="2.39257">
        <ele>64.9</ele>
        <time>2022-05-28T13:44:22Z</time>
      </trkpt>
      <trkpt lat="49.86839" lon="2.39255">
        <ele>65</ele>
        <time>2022-05-28T13:44:23Z</time>
      </trkpt>
      <trkpt lat="49.86839" lon="2.39253">
        <ele>65</ele>
        <time>2022-05-28T13:44:24Z</time>
      </trkpt>
      <trkpt lat="49.86839" lon="2.3925">
        <ele>65</ele>
        <time>2022-05-28T13:44:25Z</time>
      </trkpt>
      <trkpt lat="49.86838" lon="2.39248">
        <ele>65</ele>
        <time>2022-05-28T13:44:26Z</time>
      </trkpt>
      <trkpt lat="49.86838" lon="2.39247">
        <ele>65</ele>
        <time>2022-05-28T13:44:27Z</time>
      </trkpt>
      <trkpt lat="49.86837" lon="2.39247">
        <ele>65</ele>
        <time>2022-05-28T13:44:28Z</time>
      </trkpt>
      <trkpt lat="49.86837" lon="2.39246">
        <ele>65</ele>
        <time>2022-05-28T13:44:29Z</time>
      </trkpt>
      <trkpt lat="49.86837" lon="2.39244">
        <ele>65</ele>
        <time>2022-05-28T13:44:30Z</time>
      </trkpt>
      <trkpt lat="49.86838" lon="2.39243">
        <ele>65</ele>
        <time>2022-05-28T13:44:31Z</time>
      </trkpt>
      <trkpt lat="49.86838" lon="2.39241">
        <ele>65</ele>
        <time>2022-05-28T13:44:32Z</time>
      </trkpt>
      <trkpt lat="49.86837" lon="2.3924">
        <ele>65</ele>
        <time>2022-05-28T13:44:33Z</time>
      </trkpt>
      <trkpt lat="49.86838" lon="2.39238">
        <ele>65</ele>
        <time>2022-05-28T13:44:34Z</time>
      </trkpt>
      <trkpt lat="49.86838" lon="2.39236">
        <ele>65</ele>
        <time>2022-05-28T13:44:35Z</time>
      </trkpt>
      <trkpt lat="49.86838" lon="2.39234">
        <ele>65</ele>
        <time>2022-05-28T13:44:36Z</time>
      </trkpt>
      <trkpt lat="49.86839" lon="2.39231">
        <ele>65</ele>
        <time>2022-05-28T13:44:37Z</time>
      </trkpt>
      <trkpt lat="49.86839" lon="2.3923">
        <ele>65</ele>
        <time>2022-05-28T13:44:38Z</time>
      </trkpt>
      <trkpt lat="49.86839" lon="2.39228">
        <ele>65</ele>
        <time>2022-05-28T13:44:39Z</time>
      </trkpt>
      <trkpt lat="49.86839" lon="2.39225">
        <ele>65</ele>
        <time>2022-05-28T13:44:40Z</time>
      </trkpt>
      <trkpt lat="49.86839" lon="2.39224">
        <ele>65</ele>
        <time>2022-05-28T13:44:41Z</time>
      </trkpt>
      <trkpt lat="49.86839" lon="2.39222">
        <ele>65</ele>
        <time>2022-05-28T13:44:42Z</time>
      </trkpt>
      <trkpt lat="49.86839" lon="2.39219">
        <ele>65.1</ele>
        <time>2022-05-28T13:44:43Z</time>
      </trkpt>
      <trkpt lat="49.86839" lon="2.39218">
        <ele>65.1</ele>
        <time>2022-05-28T13:44:44Z</time>
      </trkpt>
      <trkpt lat="49.86838" lon="2.39217">
        <ele>65.1</ele>
        <time>2022-05-28T13:44:45Z</time>
      </trkpt>
      <trkpt lat="49.86838" lon="2.39214">
        <ele>65.1</ele>
        <time>2022-05-28T13:44:46Z</time>
      </trkpt>
      <trkpt lat="49.86838" lon="2.39213">
        <ele>65.1</ele>
        <time>2022-05-28T13:44:47Z</time>
      </trkpt>
      <trkpt lat="49.86838" lon="2.39211">
        <ele>65.1</ele>
        <time>2022-05-28T13:44:48Z</time>
      </trkpt>
      <trkpt lat="49.86838" lon="2.39209">
        <ele>65.1</ele>
        <time>2022-05-28T13:44:49Z</time>
      </trkpt>
      <trkpt lat="49.86838" lon="2.39207">
        <ele>65.1</ele>
        <time>2022-05-28T13:44:50Z</time>
      </trkpt>
      <trkpt lat="49.86838" lon="2.39204">
        <ele>65.1</ele>
        <time>2022-05-28T13:44:51Z</time>
      </trkpt>
      <trkpt lat="49.86838" lon="2.39202">
        <ele>65.1</ele>
        <time>2022-05-28T13:44:52Z</time>
      </trkpt>
      <trkpt lat="49.86838" lon="2.39201">
        <ele>65.1</ele>
        <time>2022-05-28T13:44:53Z</time>
      </trkpt>
      <trkpt lat="49.86838" lon="2.39199">
        <ele>65.1</ele>
        <time>2022-05-28T13:44:54Z</time>
      </trkpt>
      <trkpt lat="49.86837" lon="2.39197">
        <ele>65.1</ele>
        <time>2022-05-28T13:44:55Z</time>
      </trkpt>
      <trkpt lat="49.86836" lon="2.39194">
        <ele>65.1</ele>
        <time>2022-05-28T13:44:56Z</time>
      </trkpt>
      <trkpt lat="49.86836" lon="2.39192">
        <ele>65.2</ele>
        <time>2022-05-28T13:44:57Z</time>
      </trkpt>
      <trkpt lat="49.86836" lon="2.39191">
        <ele>65.2</ele>
        <time>2022-05-28T13:44:58Z</time>
      </trkpt>
      <trkpt lat="49.86836" lon="2.39189">
        <ele>65.2</ele>
        <time>2022-05-28T13:44:59Z</time>
      </trkpt>
      <trkpt lat="49.86835" lon="2.39188">
        <ele>65.2</ele>
        <time>2022-05-28T13:45:00Z</time>
      </trkpt>
      <trkpt lat="49.86834" lon="2.39187">
        <ele>65.2</ele>
        <time>2022-05-28T13:45:01Z</time>
      </trkpt>
      <trkpt lat="49.86833" lon="2.39187">
        <ele>65.2</ele>
        <time>2022-05-28T13:45:02Z</time>
      </trkpt>
      <trkpt lat="49.86833" lon="2.39187">
        <ele>65.2</ele>
        <time>2022-05-28T13:45:03Z</time>
      </trkpt>
      <trkpt lat="49.86832" lon="2.39186">
        <ele>65.2</ele>
        <time>2022-05-28T13:45:04Z</time>
      </trkpt>
      <trkpt lat="49.86832" lon="2.39186">
        <ele>65.2</ele>
        <time>2022-05-28T13:45:05Z</time>
      </trkpt>
      <trkpt lat="49.86832" lon="2.39186">
        <ele>65.2</ele>
        <time>2022-05-28T13:45:06Z</time>
      </trkpt>
      <trkpt lat="49.86832" lon="2.39185">
        <ele>65.2</ele>
        <time>2022-05-28T13:45:07Z</time>
      </trkpt>
      <trkpt lat="49.86832" lon="2.39185">
        <ele>65.2</ele>
        <time>2022-05-28T13:45:08Z</time>
      </trkpt>
      <trkpt lat="49.86832" lon="2.39185">
        <ele>65.2</ele>
        <time>2022-05-28T13:45:09Z</time>
      </trkpt>
      <trkpt lat="49.86832" lon="2.39185">
        <ele>65.2</ele>
        <time>2022-05-28T13:45:10Z</time>
      </trkpt>
      <trkpt lat="49.86832" lon="2.39185">
        <ele>65.2</ele>
        <time>2022-05-28T13:45:11Z</time>
      </trkpt>
      <trkpt lat="49.86833" lon="2.39184">
        <ele>65.2</ele>
        <time>2022-05-28T13:45:12Z</time>
      </trkpt>
      <trkpt lat="49.86833" lon="2.39183">
        <ele>65.2</ele>
        <time>2022-05-28T13:45:13Z</time>
      </trkpt>
      <trkpt lat="49.86833" lon="2.39182">
        <ele>65.2</ele>
        <time>2022-05-28T13:45:14Z</time>
      </trkpt>
      <trkpt lat="49.86834" lon="2.3918">
        <ele>65.2</ele>
        <time>2022-05-28T13:45:15Z</time>
      </trkpt>
      <trkpt lat="49.86834" lon="2.39178">
        <ele>65.2</ele>
        <time>2022-05-28T13:45:16Z</time>
      </trkpt>
      <trkpt lat="49.86834" lon="2.39176">
        <ele>65.2</ele>
        <time>2022-05-28T13:45:17Z</time>
      </trkpt>
      <trkpt lat="49.86835" lon="2.39173">
        <ele>65.2</ele>
        <time>2022-05-28T13:45:18Z</time>
      </trkpt>
      <trkpt lat="49.86835" lon="2.39171">
        <ele>65.2</ele>
        <time>2022-05-28T13:45:19Z</time>
      </trkpt>
      <trkpt lat="49.86835" lon="2.39169">
        <ele>65.2</ele>
        <time>2022-05-28T13:45:20Z</time>
      </trkpt>
      <trkpt lat="49.86836" lon="2.39167">
        <ele>65.2</ele>
        <time>2022-05-28T13:45:21Z</time>
      </trkpt>
      <trkpt lat="49.86836" lon="2.39164">
        <ele>65.2</ele>
        <time>2022-05-28T13:45:22Z</time>
      </trkpt>
      <trkpt lat="49.86836" lon="2.39161">
        <ele>65.2</ele>
        <time>2022-05-28T13:45:23Z</time>
      </trkpt>
      <trkpt lat="49.86836" lon="2.39159">
        <ele>65.2</ele>
        <time>2022-05-28T13:45:24Z</time>
      </trkpt>
      <trkpt lat="49.86837" lon="2.39158">
        <ele>65.2</ele>
        <time>2022-05-28T13:45:25Z</time>
      </trkpt>
      <trkpt lat="49.86837" lon="2.39156">
        <ele>65.2</ele>
        <time>2022-05-28T13:45:26Z</time>
      </trkpt>
      <trkpt lat="49.86837" lon="2.39154">
        <ele>65.2</ele>
        <time>2022-05-28T13:45:27Z</time>
      </trkpt>
      <trkpt lat="49.86837" lon="2.39152">
        <ele>65.2</ele>
        <time>2022-05-28T13:45:28Z</time>
      </trkpt>
      <trkpt lat="49.86837" lon="2.39151">
        <ele>65.2</ele>
        <time>2022-05-28T13:45:29Z</time>
      </trkpt>
      <trkpt lat="49.86837" lon="2.39149">
        <ele>65.2</ele>
        <time>2022-05-28T13:45:30Z</time>
      </trkpt>
      <trkpt lat="49.86837" lon="2.39147">
        <ele>65.2</ele>
        <time>2022-05-28T13:45:31Z</time>
      </trkpt>
      <trkpt lat="49.86836" lon="2.39146">
        <ele>65.2</ele>
        <time>2022-05-28T13:45:32Z</time>
      </trkpt>
      <trkpt lat="49.86836" lon="2.39144">
        <ele>65.2</ele>
        <time>2022-05-28T13:45:33Z</time>
      </trkpt>
      <trkpt lat="49.86836" lon="2.39142">
        <ele>65.2</ele>
        <time>2022-05-28T13:45:34Z</time>
      </trkpt>
      <trkpt lat="49.86836" lon="2.39141">
        <ele>65.2</ele>
        <time>2022-05-28T13:45:35Z</time>
      </trkpt>
      <trkpt lat="49.86836" lon="2.39139">
        <ele>65.2</ele>
        <time>2022-05-28T13:45:36Z</time>
      </trkpt>
      <trkpt lat="49.86835" lon="2.39138">
        <ele>65.2</ele>
        <time>2022-05-28T13:45:37Z</time>
      </trkpt>
      <trkpt lat="49.86835" lon="2.39136">
        <ele>65.2</ele>
        <time>2022-05-28T13:45:38Z</time>
      </trkpt>
      <trkpt lat="49.86835" lon="2.39135">
        <ele>65.2</ele>
        <time>2022-05-28T13:45:39Z</time>
      </trkpt>
      <trkpt lat="49.86835" lon="2.39133">
        <ele>65.2</ele>
        <time>2022-05-28T13:45:40Z</time>
      </trkpt>
      <trkpt lat="49.86834" lon="2.3913">
        <ele>65.2</ele>
        <time>2022-05-28T13:45:41Z</time>
      </trkpt>
      <trkpt lat="49.86834" lon="2.39129">
        <ele>65.2</ele>
        <time>2022-05-28T13:45:42Z</time>
      </trkpt>
      <trkpt lat="49.86834" lon="2.39127">
        <ele>65.2</ele>
        <time>2022-05-28T13:45:43Z</time>
      </trkpt>
      <trkpt lat="49.86834" lon="2.39125">
        <ele>65.2</ele>
        <time>2022-05-28T13:45:44Z</time>
      </trkpt>
      <trkpt lat="49.86834" lon="2.39122">
        <ele>65.2</ele>
        <time>2022-05-28T13:45:45Z</time>
      </trkpt>
      <trkpt lat="49.86834" lon="2.39121">
        <ele>65.2</ele>
        <time>2022-05-28T13:45:46Z</time>
      </trkpt>
      <trkpt lat="49.86834" lon="2.39119">
        <ele>65.2</ele>
        <time>2022-05-28T13:45:47Z</time>
      </trkpt>
      <trkpt lat="49.86833" lon="2.39117">
        <ele>65.2</ele>
        <time>2022-05-28T13:45:48Z</time>
      </trkpt>
      <trkpt lat="49.86833" lon="2.39114">
        <ele>65.2</ele>
        <time>2022-05-28T13:45:49Z</time>
      </trkpt>
      <trkpt lat="49.86833" lon="2.39113">
        <ele>65.2</ele>
        <time>2022-05-28T13:45:50Z</time>
      </trkpt>
      <trkpt lat="49.86833" lon="2.39111">
        <ele>65.2</ele>
        <time>2022-05-28T13:45:51Z</time>
      </trkpt>
      <trkpt lat="49.86833" lon="2.39108">
        <ele>65.2</ele>
        <time>2022-05-28T13:45:52Z</time>
      </trkpt>
      <trkpt lat="49.86833" lon="2.39107">
        <ele>65.2</ele>
        <time>2022-05-28T13:45:53Z</time>
      </trkpt>
      <trkpt lat="49.86834" lon="2.39106">
        <ele>65.2</ele>
        <time>2022-05-28T13:45:54Z</time>
      </trkpt>
      <trkpt lat="49.86833" lon="2.39103">
        <ele>65.2</ele>
        <time>2022-05-28T13:45:55Z</time>
      </trkpt>
      <trkpt lat="49.86833" lon="2.39101">
        <ele>65.2</ele>
        <time>2022-05-28T13:45:56Z</time>
      </trkpt>
      <trkpt lat="49.86833" lon="2.391">
        <ele>65.2</ele>
        <time>2022-05-28T13:45:57Z</time>
      </trkpt>
      <trkpt lat="49.86832" lon="2.39098">
        <ele>65.2</ele>
        <time>2022-05-28T13:45:58Z</time>
      </trkpt>
      <trkpt lat="49.86831" lon="2.39097">
        <ele>65.2</ele>
        <time>2022-05-28T13:45:59Z</time>
      </trkpt>
      <trkpt lat="49.86831" lon="2.39097">
        <ele>65.2</ele>
        <time>2022-05-28T13:46:00Z</time>
      </trkpt>
      <trkpt lat="49.8683" lon="2.39098">
        <ele>65.2</ele>
        <time>2022-05-28T13:46:01Z</time>
      </trkpt>
      <trkpt lat="49.8683" lon="2.39098">
        <ele>65.2</ele>
        <time>2022-05-28T13:46:02Z</time>
      </trkpt>
      <trkpt lat="49.8683" lon="2.39097">
        <ele>65.2</ele>
        <time>2022-05-28T13:46:03Z</time>
      </trkpt>
      <trkpt lat="49.8683" lon="2.39096">
        <ele>65.2</ele>
        <time>2022-05-28T13:46:04Z</time>
      </trkpt>
      <trkpt lat="49.86831" lon="2.39094">
        <ele>65.2</ele>
        <time>2022-05-28T13:46:05Z</time>
      </trkpt>
      <trkpt lat="49.86831" lon="2.39093">
        <ele>65.2</ele>
        <time>2022-05-28T13:46:06Z</time>
      </trkpt>
      <trkpt lat="49.86832" lon="2.39089">
        <ele>65.2</ele>
        <time>2022-05-28T13:46:07Z</time>
      </trkpt>
      <trkpt lat="49.86832" lon="2.39088">
        <ele>65.2</ele>
        <time>2022-05-28T13:46:08Z</time>
      </trkpt>
      <trkpt lat="49.86832" lon="2.39086">
        <ele>65.2</ele>
        <time>2022-05-28T13:46:09Z</time>
      </trkpt>
      <trkpt lat="49.86832" lon="2.39084">
        <ele>65.2</ele>
        <time>2022-05-28T13:46:10Z</time>
      </trkpt>
      <trkpt lat="49.86833" lon="2.39081">
        <ele>65.2</ele>
        <time>2022-05-28T13:46:11Z</time>
      </trkpt>
      <trkpt lat="49.86833" lon="2.39079">
        <ele>65.2</ele>
        <time>2022-05-28T13:46:12Z</time>
      </trkpt>
      <trkpt lat="49.86833" lon="2.39076">
        <ele>65.2</ele>
        <time>2022-05-28T13:46:13Z</time>
      </trkpt>
      <trkpt lat="49.86834" lon="2.39074">
        <ele>65.2</ele>
        <time>2022-05-28T13:46:14Z</time>
      </trkpt>
      <trkpt lat="49.86834" lon="2.39072">
        <ele>65.2</ele>
        <time>2022-05-28T13:46:15Z</time>
      </trkpt>
      <trkpt lat="49.86834" lon="2.39068">
        <ele>65.2</ele>
        <time>2022-05-28T13:46:16Z</time>
      </trkpt>
      <trkpt lat="49.86834" lon="2.39067">
        <ele>65.2</ele>
        <time>2022-05-28T13:46:17Z</time>
      </trkpt>
      <trkpt lat="49.86834" lon="2.39066">
        <ele>65.2</ele>
        <time>2022-05-28T13:46:18Z</time>
      </trkpt>
      <trkpt lat="49.86834" lon="2.39062">
        <ele>65.2</ele>
        <time>2022-05-28T13:46:19Z</time>
      </trkpt>
      <trkpt lat="49.86835" lon="2.39061">
        <ele>65.2</ele>
        <time>2022-05-28T13:46:20Z</time>
      </trkpt>
      <trkpt lat="49.86835" lon="2.3906">
        <ele>65.2</ele>
        <time>2022-05-28T13:46:21Z</time>
      </trkpt>
      <trkpt lat="49.86835" lon="2.39056">
        <ele>65.2</ele>
        <time>2022-05-28T13:46:22Z</time>
      </trkpt>
      <trkpt lat="49.86834" lon="2.39055">
        <ele>65.2</ele>
        <time>2022-05-28T13:46:23Z</time>
      </trkpt>
      <trkpt lat="49.86834" lon="2.39054">
        <ele>65.2</ele>
        <time>2022-05-28T13:46:24Z</time>
      </trkpt>
      <trkpt lat="49.86834" lon="2.39052">
        <ele>65.2</ele>
        <time>2022-05-28T13:46:25Z</time>
      </trkpt>
      <trkpt lat="49.86834" lon="2.3905">
        <ele>65.3</ele>
        <time>2022-05-28T13:46:26Z</time>
      </trkpt>
      <trkpt lat="49.86834" lon="2.39048">
        <ele>65.3</ele>
        <time>2022-05-28T13:46:27Z</time>
      </trkpt>
      <trkpt lat="49.86835" lon="2.39045">
        <ele>65.3</ele>
        <time>2022-05-28T13:46:28Z</time>
      </trkpt>
      <trkpt lat="49.86835" lon="2.39044">
        <ele>65.3</ele>
        <time>2022-05-28T13:46:29Z</time>
      </trkpt>
      <trkpt lat="49.86835" lon="2.39042">
        <ele>65.3</ele>
        <time>2022-05-28T13:46:30Z</time>
      </trkpt>
      <trkpt lat="49.86834" lon="2.39041">
        <ele>65.3</ele>
        <time>2022-05-28T13:46:31Z</time>
      </trkpt>
      <trkpt lat="49.86834" lon="2.3904">
        <ele>65.3</ele>
        <time>2022-05-28T13:46:32Z</time>
      </trkpt>
      <trkpt lat="49.86833" lon="2.39039">
        <ele>65.3</ele>
        <time>2022-05-28T13:46:33Z</time>
      </trkpt>
      <trkpt lat="49.86833" lon="2.39038">
        <ele>65.3</ele>
        <time>2022-05-28T13:46:34Z</time>
      </trkpt>
      <trkpt lat="49.86834" lon="2.39036">
        <ele>65.3</ele>
        <time>2022-05-28T13:46:35Z</time>
      </trkpt>
      <trkpt lat="49.86834" lon="2.39035">
        <ele>65.3</ele>
        <time>2022-05-28T13:46:36Z</time>
      </trkpt>
      <trkpt lat="49.86834" lon="2.39034">
        <ele>65.3</ele>
        <time>2022-05-28T13:46:37Z</time>
      </trkpt>
      <trkpt lat="49.86835" lon="2.39033">
        <ele>65.3</ele>
        <time>2022-05-28T13:46:38Z</time>
      </trkpt>
      <trkpt lat="49.86835" lon="2.39031">
        <ele>65.3</ele>
        <time>2022-05-28T13:46:39Z</time>
      </trkpt>
      <trkpt lat="49.86835" lon="2.39029">
        <ele>65.3</ele>
        <time>2022-05-28T13:46:40Z</time>
      </trkpt>
      <trkpt lat="49.86835" lon="2.39026">
        <ele>65.3</ele>
        <time>2022-05-28T13:46:41Z</time>
      </trkpt>
      <trkpt lat="49.86835" lon="2.39024">
        <ele>65.3</ele>
        <time>2022-05-28T13:46:42Z</time>
      </trkpt>
      <trkpt lat="49.86835" lon="2.39021">
        <ele>65.3</ele>
        <time>2022-05-28T13:46:43Z</time>
      </trkpt>
      <trkpt lat="49.86835" lon="2.39019">
        <ele>65.3</ele>
        <time>2022-05-28T13:46:44Z</time>
      </trkpt>
      <trkpt lat="49.86835" lon="2.39018">
        <ele>65.3</ele>
        <time>2022-05-28T13:46:45Z</time>
      </trkpt>
      <trkpt lat="49.86836" lon="2.39014">
        <ele>65.3</ele>
        <time>2022-05-28T13:46:46Z</time>
      </trkpt>
      <trkpt lat="49.86836" lon="2.39013">
        <ele>65.3</ele>
        <time>2022-05-28T13:46:47Z</time>
      </trkpt>
      <trkpt lat="49.86836" lon="2.39012">
        <ele>65.3</ele>
        <time>2022-05-28T13:46:48Z</time>
      </trkpt>
      <trkpt lat="49.86836" lon="2.3901">
        <ele>65.3</ele>
        <time>2022-05-28T13:46:49Z</time>
      </trkpt>
      <trkpt lat="49.86836" lon="2.39008">
        <ele>65.3</ele>
        <time>2022-05-28T13:46:50Z</time>
      </trkpt>
      <trkpt lat="49.86836" lon="2.39007">
        <ele>65.3</ele>
        <time>2022-05-28T13:46:51Z</time>
      </trkpt>
      <trkpt lat="49.86836" lon="2.39005">
        <ele>65.3</ele>
        <time>2022-05-28T13:46:52Z</time>
      </trkpt>
      <trkpt lat="49.86836" lon="2.39003">
        <ele>65.3</ele>
        <time>2022-05-28T13:46:53Z</time>
      </trkpt>
      <trkpt lat="49.86836" lon="2.39001">
        <ele>65.3</ele>
        <time>2022-05-28T13:46:54Z</time>
      </trkpt>
      <trkpt lat="49.86835" lon="2.38998">
        <ele>65.3</ele>
        <time>2022-05-28T13:46:55Z</time>
      </trkpt>
      <trkpt lat="49.86835" lon="2.38997">
        <ele>65.3</ele>
        <time>2022-05-28T13:46:56Z</time>
      </trkpt>
      <trkpt lat="49.86835" lon="2.38996">
        <ele>65.4</ele>
        <time>2022-05-28T13:46:57Z</time>
      </trkpt>
      <trkpt lat="49.86835" lon="2.38993">
        <ele>65.4</ele>
        <time>2022-05-28T13:46:58Z</time>
      </trkpt>
      <trkpt lat="49.86835" lon="2.38991">
        <ele>65.4</ele>
        <time>2022-05-28T13:46:59Z</time>
      </trkpt>
      <trkpt lat="49.86834" lon="2.3899">
        <ele>65.4</ele>
        <time>2022-05-28T13:47:00Z</time>
      </trkpt>
      <trkpt lat="49.86834" lon="2.38988">
        <ele>65.4</ele>
        <time>2022-05-28T13:47:01Z</time>
      </trkpt>
      <trkpt lat="49.86834" lon="2.38986">
        <ele>65.4</ele>
        <time>2022-05-28T13:47:02Z</time>
      </trkpt>
      <trkpt lat="49.86834" lon="2.38984">
        <ele>65.4</ele>
        <time>2022-05-28T13:47:03Z</time>
      </trkpt>
      <trkpt lat="49.86833" lon="2.38982">
        <ele>65.4</ele>
        <time>2022-05-28T13:47:04Z</time>
      </trkpt>
      <trkpt lat="49.86833" lon="2.3898">
        <ele>65.4</ele>
        <time>2022-05-28T13:47:05Z</time>
      </trkpt>
      <trkpt lat="49.86832" lon="2.38978">
        <ele>65.4</ele>
        <time>2022-05-28T13:47:06Z</time>
      </trkpt>
      <trkpt lat="49.86832" lon="2.38976">
        <ele>65.4</ele>
        <time>2022-05-28T13:47:07Z</time>
      </trkpt>
      <trkpt lat="49.86832" lon="2.38974">
        <ele>65.4</ele>
        <time>2022-05-28T13:47:08Z</time>
      </trkpt>
      <trkpt lat="49.86832" lon="2.38972">
        <ele>65.4</ele>
        <time>2022-05-28T13:47:09Z</time>
      </trkpt>
      <trkpt lat="49.86832" lon="2.38969">
        <ele>65.4</ele>
        <time>2022-05-28T13:47:10Z</time>
      </trkpt>
      <trkpt lat="49.86832" lon="2.38967">
        <ele>65.4</ele>
        <time>2022-05-28T13:47:11Z</time>
      </trkpt>
      <trkpt lat="49.86831" lon="2.38965">
        <ele>65.4</ele>
        <time>2022-05-28T13:47:12Z</time>
      </trkpt>
      <trkpt lat="49.86831" lon="2.38961">
        <ele>65.4</ele>
        <time>2022-05-28T13:47:13Z</time>
      </trkpt>
      <trkpt lat="49.86831" lon="2.3896">
        <ele>65.4</ele>
        <time>2022-05-28T13:47:14Z</time>
      </trkpt>
      <trkpt lat="49.86831" lon="2.38959">
        <ele>65.4</ele>
        <time>2022-05-28T13:47:15Z</time>
      </trkpt>
      <trkpt lat="49.86831" lon="2.38957">
        <ele>65.4</ele>
        <time>2022-05-28T13:47:16Z</time>
      </trkpt>
      <trkpt lat="49.86831" lon="2.38955">
        <ele>65.4</ele>
        <time>2022-05-28T13:47:17Z</time>
      </trkpt>
      <trkpt lat="49.86831" lon="2.38953">
        <ele>65.4</ele>
        <time>2022-05-28T13:47:18Z</time>
      </trkpt>
      <trkpt lat="49.86831" lon="2.38952">
        <ele>65.4</ele>
        <time>2022-05-28T13:47:19Z</time>
      </trkpt>
      <trkpt lat="49.86831" lon="2.3895">
        <ele>65.4</ele>
        <time>2022-05-28T13:47:20Z</time>
      </trkpt>
      <trkpt lat="49.86831" lon="2.38949">
        <ele>65.4</ele>
        <time>2022-05-28T13:47:21Z</time>
      </trkpt>
      <trkpt lat="49.86829" lon="2.38948">
        <ele>65.4</ele>
        <time>2022-05-28T13:47:22Z</time>
      </trkpt>
      <trkpt lat="49.86829" lon="2.38947">
        <ele>65.4</ele>
        <time>2022-05-28T13:47:23Z</time>
      </trkpt>
      <trkpt lat="49.86829" lon="2.38945">
        <ele>65.4</ele>
        <time>2022-05-28T13:47:24Z</time>
      </trkpt>
      <trkpt lat="49.86829" lon="2.38943">
        <ele>65.4</ele>
        <time>2022-05-28T13:47:25Z</time>
      </trkpt>
      <trkpt lat="49.86829" lon="2.38942">
        <ele>65.4</ele>
        <time>2022-05-28T13:47:26Z</time>
      </trkpt>
      <trkpt lat="49.8683" lon="2.3894">
        <ele>65.4</ele>
        <time>2022-05-28T13:47:27Z</time>
      </trkpt>
      <trkpt lat="49.8683" lon="2.38939">
        <ele>65.4</ele>
        <time>2022-05-28T13:47:28Z</time>
      </trkpt>
      <trkpt lat="49.8683" lon="2.38937">
        <ele>65.4</ele>
        <time>2022-05-28T13:47:29Z</time>
      </trkpt>
      <trkpt lat="49.8683" lon="2.38935">
        <ele>65.4</ele>
        <time>2022-05-28T13:47:30Z</time>
      </trkpt>
      <trkpt lat="49.86831" lon="2.38933">
        <ele>65.4</ele>
        <time>2022-05-28T13:47:31Z</time>
      </trkpt>
      <trkpt lat="49.86831" lon="2.38932">
        <ele>65.4</ele>
        <time>2022-05-28T13:47:32Z</time>
      </trkpt>
      <trkpt lat="49.86831" lon="2.3893">
        <ele>65.4</ele>
        <time>2022-05-28T13:47:33Z</time>
      </trkpt>
      <trkpt lat="49.86831" lon="2.38927">
        <ele>65.4</ele>
        <time>2022-05-28T13:47:34Z</time>
      </trkpt>
      <trkpt lat="49.86831" lon="2.38926">
        <ele>65.4</ele>
        <time>2022-05-28T13:47:35Z</time>
      </trkpt>
      <trkpt lat="49.86831" lon="2.38925">
        <ele>65.4</ele>
        <time>2022-05-28T13:47:36Z</time>
      </trkpt>
      <trkpt lat="49.86831" lon="2.38922">
        <ele>65.4</ele>
        <time>2022-05-28T13:47:37Z</time>
      </trkpt>
      <trkpt lat="49.8683" lon="2.3892">
        <ele>65.5</ele>
        <time>2022-05-28T13:47:38Z</time>
      </trkpt>
      <trkpt lat="49.8683" lon="2.38918">
        <ele>65.5</ele>
        <time>2022-05-28T13:47:39Z</time>
      </trkpt>
      <trkpt lat="49.8683" lon="2.38916">
        <ele>65.5</ele>
        <time>2022-05-28T13:47:40Z</time>
      </trkpt>
      <trkpt lat="49.8683" lon="2.38914">
        <ele>65.5</ele>
        <time>2022-05-28T13:47:41Z</time>
      </trkpt>
      <trkpt lat="49.8683" lon="2.38912">
        <ele>65.5</ele>
        <time>2022-05-28T13:47:42Z</time>
      </trkpt>
      <trkpt lat="49.8683" lon="2.3891">
        <ele>65.5</ele>
        <time>2022-05-28T13:47:43Z</time>
      </trkpt>
      <trkpt lat="49.8683" lon="2.38908">
        <ele>65.5</ele>
        <time>2022-05-28T13:47:44Z</time>
      </trkpt>
      <trkpt lat="49.8683" lon="2.38906">
        <ele>65.5</ele>
        <time>2022-05-28T13:47:45Z</time>
      </trkpt>
      <trkpt lat="49.8683" lon="2.38903">
        <ele>65.5</ele>
        <time>2022-05-28T13:47:46Z</time>
      </trkpt>
      <trkpt lat="49.8683" lon="2.38902">
        <ele>65.5</ele>
        <time>2022-05-28T13:47:47Z</time>
      </trkpt>
      <trkpt lat="49.8683" lon="2.38901">
        <ele>65.5</ele>
        <time>2022-05-28T13:47:48Z</time>
      </trkpt>
      <trkpt lat="49.8683" lon="2.38899">
        <ele>65.5</ele>
        <time>2022-05-28T13:47:49Z</time>
      </trkpt>
      <trkpt lat="49.8683" lon="2.38897">
        <ele>65.5</ele>
        <time>2022-05-28T13:47:50Z</time>
      </trkpt>
      <trkpt lat="49.8683" lon="2.38895">
        <ele>65.5</ele>
        <time>2022-05-28T13:47:51Z</time>
      </trkpt>
      <trkpt lat="49.8683" lon="2.38893">
        <ele>65.5</ele>
        <time>2022-05-28T13:47:52Z</time>
      </trkpt>
      <trkpt lat="49.8683" lon="2.38892">
        <ele>65.5</ele>
        <time>2022-05-28T13:47:53Z</time>
      </trkpt>
      <trkpt lat="49.8683" lon="2.3889">
        <ele>65.5</ele>
        <time>2022-05-28T13:47:54Z</time>
      </trkpt>
      <trkpt lat="49.8683" lon="2.38888">
        <ele>65.5</ele>
        <time>2022-05-28T13:47:55Z</time>
      </trkpt>
      <trkpt lat="49.86829" lon="2.38886">
        <ele>65.5</ele>
        <time>2022-05-28T13:47:56Z</time>
      </trkpt>
      <trkpt lat="49.86829" lon="2.38884">
        <ele>65.5</ele>
        <time>2022-05-28T13:47:57Z</time>
      </trkpt>
      <trkpt lat="49.86829" lon="2.38883">
        <ele>65.5</ele>
        <time>2022-05-28T13:47:58Z</time>
      </trkpt>
      <trkpt lat="49.86829" lon="2.38881">
        <ele>65.5</ele>
        <time>2022-05-28T13:47:59Z</time>
      </trkpt>
      <trkpt lat="49.86829" lon="2.38879">
        <ele>65.5</ele>
        <time>2022-05-28T13:48:00Z</time>
      </trkpt>
      <trkpt lat="49.86828" lon="2.38877">
        <ele>65.5</ele>
        <time>2022-05-28T13:48:01Z</time>
      </trkpt>
      <trkpt lat="49.86828" lon="2.38876">
        <ele>65.5</ele>
        <time>2022-05-28T13:48:02Z</time>
      </trkpt>
      <trkpt lat="49.86828" lon="2.38874">
        <ele>65.5</ele>
        <time>2022-05-28T13:48:03Z</time>
      </trkpt>
      <trkpt lat="49.86828" lon="2.38871">
        <ele>65.5</ele>
        <time>2022-05-28T13:48:04Z</time>
      </trkpt>
      <trkpt lat="49.86828" lon="2.38869">
        <ele>65.5</ele>
        <time>2022-05-28T13:48:05Z</time>
      </trkpt>
      <trkpt lat="49.86828" lon="2.38868">
        <ele>65.5</ele>
        <time>2022-05-28T13:48:06Z</time>
      </trkpt>
      <trkpt lat="49.86828" lon="2.38865">
        <ele>65.5</ele>
        <time>2022-05-28T13:48:07Z</time>
      </trkpt>
      <trkpt lat="49.86828" lon="2.38864">
        <ele>65.5</ele>
        <time>2022-05-28T13:48:08Z</time>
      </trkpt>
      <trkpt lat="49.86827" lon="2.38863">
        <ele>65.5</ele>
        <time>2022-05-28T13:48:09Z</time>
      </trkpt>
      <trkpt lat="49.86827" lon="2.38859">
        <ele>65.5</ele>
        <time>2022-05-28T13:48:10Z</time>
      </trkpt>
      <trkpt lat="49.86827" lon="2.38858">
        <ele>65.5</ele>
        <time>2022-05-28T13:48:11Z</time>
      </trkpt>
      <trkpt lat="49.86827" lon="2.38857">
        <ele>65.5</ele>
        <time>2022-05-28T13:48:12Z</time>
      </trkpt>
      <trkpt lat="49.86827" lon="2.38855">
        <ele>65.5</ele>
        <time>2022-05-28T13:48:13Z</time>
      </trkpt>
      <trkpt lat="49.86827" lon="2.38853">
        <ele>65.5</ele>
        <time>2022-05-28T13:48:14Z</time>
      </trkpt>
      <trkpt lat="49.86828" lon="2.38851">
        <ele>65.5</ele>
        <time>2022-05-28T13:48:15Z</time>
      </trkpt>
      <trkpt lat="49.86828" lon="2.38849">
        <ele>65.5</ele>
        <time>2022-05-28T13:48:16Z</time>
      </trkpt>
      <trkpt lat="49.86827" lon="2.38847">
        <ele>65.5</ele>
        <time>2022-05-28T13:48:17Z</time>
      </trkpt>
      <trkpt lat="49.86827" lon="2.38846">
        <ele>65.5</ele>
        <time>2022-05-28T13:48:18Z</time>
      </trkpt>
      <trkpt lat="49.86826" lon="2.38845">
        <ele>65.5</ele>
        <time>2022-05-28T13:48:19Z</time>
      </trkpt>
      <trkpt lat="49.86826" lon="2.38843">
        <ele>65.5</ele>
        <time>2022-05-28T13:48:20Z</time>
      </trkpt>
      <trkpt lat="49.86826" lon="2.38842">
        <ele>65.5</ele>
        <time>2022-05-28T13:48:21Z</time>
      </trkpt>
      <trkpt lat="49.86827" lon="2.3884">
        <ele>65.4</ele>
        <time>2022-05-28T13:48:22Z</time>
      </trkpt>
      <trkpt lat="49.86827" lon="2.38838">
        <ele>65.4</ele>
        <time>2022-05-28T13:48:23Z</time>
      </trkpt>
      <trkpt lat="49.86827" lon="2.38837">
        <ele>65.4</ele>
        <time>2022-05-28T13:48:24Z</time>
      </trkpt>
      <trkpt lat="49.86827" lon="2.38833">
        <ele>65.4</ele>
        <time>2022-05-28T13:48:25Z</time>
      </trkpt>
      <trkpt lat="49.86828" lon="2.38831">
        <ele>65.4</ele>
        <time>2022-05-28T13:48:26Z</time>
      </trkpt>
      <trkpt lat="49.86828" lon="2.3883">
        <ele>65.4</ele>
        <time>2022-05-28T13:48:27Z</time>
      </trkpt>
      <trkpt lat="49.86828" lon="2.38827">
        <ele>65.4</ele>
        <time>2022-05-28T13:48:28Z</time>
      </trkpt>
      <trkpt lat="49.86828" lon="2.38825">
        <ele>65.4</ele>
        <time>2022-05-28T13:48:29Z</time>
      </trkpt>
      <trkpt lat="49.86828" lon="2.38824">
        <ele>65.4</ele>
        <time>2022-05-28T13:48:30Z</time>
      </trkpt>
      <trkpt lat="49.86828" lon="2.38821">
        <ele>65.4</ele>
        <time>2022-05-28T13:48:31Z</time>
      </trkpt>
      <trkpt lat="49.86828" lon="2.38819">
        <ele>65.4</ele>
        <time>2022-05-28T13:48:32Z</time>
      </trkpt>
      <trkpt lat="49.86828" lon="2.38818">
        <ele>65.4</ele>
        <time>2022-05-28T13:48:33Z</time>
      </trkpt>
      <trkpt lat="49.86828" lon="2.38815">
        <ele>65.4</ele>
        <time>2022-05-28T13:48:34Z</time>
      </trkpt>
      <trkpt lat="49.86828" lon="2.38813">
        <ele>65.4</ele>
        <time>2022-05-28T13:48:35Z</time>
      </trkpt>
      <trkpt lat="49.86828" lon="2.38812">
        <ele>65.4</ele>
        <time>2022-05-28T13:48:36Z</time>
      </trkpt>
      <trkpt lat="49.86829" lon="2.38808">
        <ele>65.4</ele>
        <time>2022-05-28T13:48:37Z</time>
      </trkpt>
      <trkpt lat="49.86829" lon="2.38807">
        <ele>65.4</ele>
        <time>2022-05-28T13:48:38Z</time>
      </trkpt>
      <trkpt lat="49.86829" lon="2.38806">
        <ele>65.4</ele>
        <time>2022-05-28T13:48:39Z</time>
      </trkpt>
      <trkpt lat="49.86829" lon="2.38804">
        <ele>65.4</ele>
        <time>2022-05-28T13:48:40Z</time>
      </trkpt>
      <trkpt lat="49.86828" lon="2.38803">
        <ele>65.4</ele>
        <time>2022-05-28T13:48:41Z</time>
      </trkpt>
      <trkpt lat="49.86828" lon="2.38802">
        <ele>65.4</ele>
        <time>2022-05-28T13:48:42Z</time>
      </trkpt>
      <trkpt lat="49.86828" lon="2.388">
        <ele>65.4</ele>
        <time>2022-05-28T13:48:43Z</time>
      </trkpt>
      <trkpt lat="49.86828" lon="2.38798">
        <ele>65.4</ele>
        <time>2022-05-28T13:48:44Z</time>
      </trkpt>
      <trkpt lat="49.86828" lon="2.38797">
        <ele>65.4</ele>
        <time>2022-05-28T13:48:45Z</time>
      </trkpt>
      <trkpt lat="49.86828" lon="2.38793">
        <ele>65.4</ele>
        <time>2022-05-28T13:48:46Z</time>
      </trkpt>
      <trkpt lat="49.86828" lon="2.38792">
        <ele>65.4</ele>
        <time>2022-05-28T13:48:47Z</time>
      </trkpt>
      <trkpt lat="49.86828" lon="2.38791">
        <ele>65.4</ele>
        <time>2022-05-28T13:48:48Z</time>
      </trkpt>
      <trkpt lat="49.86828" lon="2.38788">
        <ele>65.4</ele>
        <time>2022-05-28T13:48:49Z</time>
      </trkpt>
      <trkpt lat="49.86828" lon="2.38786">
        <ele>65.4</ele>
        <time>2022-05-28T13:48:50Z</time>
      </trkpt>
      <trkpt lat="49.86829" lon="2.38785">
        <ele>65.4</ele>
        <time>2022-05-28T13:48:51Z</time>
      </trkpt>
      <trkpt lat="49.86828" lon="2.38783">
        <ele>65.5</ele>
        <time>2022-05-28T13:48:52Z</time>
      </trkpt>
      <trkpt lat="49.86827" lon="2.38781">
        <ele>65.5</ele>
        <time>2022-05-28T13:48:53Z</time>
      </trkpt>
      <trkpt lat="49.86827" lon="2.38781">
        <ele>65.5</ele>
        <time>2022-05-28T13:48:54Z</time>
      </trkpt>
      <trkpt lat="49.86826" lon="2.3878">
        <ele>65.5</ele>
        <time>2022-05-28T13:48:55Z</time>
      </trkpt>
      <trkpt lat="49.86826" lon="2.38779">
        <ele>65.5</ele>
        <time>2022-05-28T13:48:56Z</time>
      </trkpt>
      <trkpt lat="49.86826" lon="2.38778">
        <ele>65.5</ele>
        <time>2022-05-28T13:48:57Z</time>
      </trkpt>
      <trkpt lat="49.86826" lon="2.38776">
        <ele>65.5</ele>
        <time>2022-05-28T13:48:58Z</time>
      </trkpt>
      <trkpt lat="49.86826" lon="2.38775">
        <ele>65.5</ele>
        <time>2022-05-28T13:48:59Z</time>
      </trkpt>
      <trkpt lat="49.86827" lon="2.38773">
        <ele>65.5</ele>
        <time>2022-05-28T13:49:00Z</time>
      </trkpt>
      <trkpt lat="49.86827" lon="2.38771">
        <ele>65.5</ele>
        <time>2022-05-28T13:49:01Z</time>
      </trkpt>
      <trkpt lat="49.86827" lon="2.38769">
        <ele>65.5</ele>
        <time>2022-05-28T13:49:02Z</time>
      </trkpt>
      <trkpt lat="49.86827" lon="2.38768">
        <ele>65.5</ele>
        <time>2022-05-28T13:49:03Z</time>
      </trkpt>
      <trkpt lat="49.86828" lon="2.38766">
        <ele>65.5</ele>
        <time>2022-05-28T13:49:04Z</time>
      </trkpt>
      <trkpt lat="49.86828" lon="2.38763">
        <ele>65.5</ele>
        <time>2022-05-28T13:49:05Z</time>
      </trkpt>
      <trkpt lat="49.86828" lon="2.38761">
        <ele>65.5</ele>
        <time>2022-05-28T13:49:06Z</time>
      </trkpt>
      <trkpt lat="49.86828" lon="2.3876">
        <ele>65.5</ele>
        <time>2022-05-28T13:49:07Z</time>
      </trkpt>
      <trkpt lat="49.86828" lon="2.38757">
        <ele>65.5</ele>
        <time>2022-05-28T13:49:08Z</time>
      </trkpt>
      <trkpt lat="49.86828" lon="2.38756">
        <ele>65.5</ele>
        <time>2022-05-28T13:49:09Z</time>
      </trkpt>
      <trkpt lat="49.86828" lon="2.38754">
        <ele>65.5</ele>
        <time>2022-05-28T13:49:10Z</time>
      </trkpt>
      <trkpt lat="49.86828" lon="2.38753">
        <ele>65.6</ele>
        <time>2022-05-28T13:49:11Z</time>
      </trkpt>
      <trkpt lat="49.86828" lon="2.38751">
        <ele>65.6</ele>
        <time>2022-05-28T13:49:12Z</time>
      </trkpt>
      <trkpt lat="49.86828" lon="2.38749">
        <ele>65.6</ele>
        <time>2022-05-28T13:49:13Z</time>
      </trkpt>
      <trkpt lat="49.86828" lon="2.38747">
        <ele>65.6</ele>
        <time>2022-05-28T13:49:14Z</time>
      </trkpt>
      <trkpt lat="49.86828" lon="2.38745">
        <ele>65.6</ele>
        <time>2022-05-28T13:49:15Z</time>
      </trkpt>
      <trkpt lat="49.86828" lon="2.38743">
        <ele>65.6</ele>
        <time>2022-05-28T13:49:16Z</time>
      </trkpt>
      <trkpt lat="49.86828" lon="2.3874">
        <ele>65.6</ele>
        <time>2022-05-28T13:49:17Z</time>
      </trkpt>
      <trkpt lat="49.86827" lon="2.38739">
        <ele>65.6</ele>
        <time>2022-05-28T13:49:18Z</time>
      </trkpt>
      <trkpt lat="49.86827" lon="2.38738">
        <ele>65.6</ele>
        <time>2022-05-28T13:49:19Z</time>
      </trkpt>
      <trkpt lat="49.86827" lon="2.38735">
        <ele>65.6</ele>
        <time>2022-05-28T13:49:20Z</time>
      </trkpt>
      <trkpt lat="49.86827" lon="2.38733">
        <ele>65.6</ele>
        <time>2022-05-28T13:49:21Z</time>
      </trkpt>
      <trkpt lat="49.86827" lon="2.38732">
        <ele>65.6</ele>
        <time>2022-05-28T13:49:22Z</time>
      </trkpt>
      <trkpt lat="49.86827" lon="2.38729">
        <ele>65.6</ele>
        <time>2022-05-28T13:49:23Z</time>
      </trkpt>
      <trkpt lat="49.86827" lon="2.38728">
        <ele>65.6</ele>
        <time>2022-05-28T13:49:24Z</time>
      </trkpt>
      <trkpt lat="49.86827" lon="2.38726">
        <ele>65.6</ele>
        <time>2022-05-28T13:49:25Z</time>
      </trkpt>
      <trkpt lat="49.86827" lon="2.38723">
        <ele>65.6</ele>
        <time>2022-05-28T13:49:26Z</time>
      </trkpt>
      <trkpt lat="49.86827" lon="2.38722">
        <ele>65.7</ele>
        <time>2022-05-28T13:49:27Z</time>
      </trkpt>
      <trkpt lat="49.86827" lon="2.38721">
        <ele>65.7</ele>
        <time>2022-05-28T13:49:28Z</time>
      </trkpt>
      <trkpt lat="49.86828" lon="2.38717">
        <ele>65.7</ele>
        <time>2022-05-28T13:49:29Z</time>
      </trkpt>
      <trkpt lat="49.86828" lon="2.38716">
        <ele>65.7</ele>
        <time>2022-05-28T13:49:30Z</time>
      </trkpt>
      <trkpt lat="49.86828" lon="2.38714">
        <ele>65.7</ele>
        <time>2022-05-28T13:49:31Z</time>
      </trkpt>
      <trkpt lat="49.86828" lon="2.38712">
        <ele>65.7</ele>
        <time>2022-05-28T13:49:32Z</time>
      </trkpt>
      <trkpt lat="49.86828" lon="2.3871">
        <ele>65.7</ele>
        <time>2022-05-28T13:49:33Z</time>
      </trkpt>
      <trkpt lat="49.86828" lon="2.38708">
        <ele>65.7</ele>
        <time>2022-05-28T13:49:34Z</time>
      </trkpt>
      <trkpt lat="49.86828" lon="2.38706">
        <ele>65.7</ele>
        <time>2022-05-28T13:49:35Z</time>
      </trkpt>
      <trkpt lat="49.86828" lon="2.38705">
        <ele>65.7</ele>
        <time>2022-05-28T13:49:36Z</time>
      </trkpt>
      <trkpt lat="49.86828" lon="2.38703">
        <ele>65.7</ele>
        <time>2022-05-28T13:49:37Z</time>
      </trkpt>
      <trkpt lat="49.86828" lon="2.38701">
        <ele>65.7</ele>
        <time>2022-05-28T13:49:38Z</time>
      </trkpt>
      <trkpt lat="49.86828" lon="2.38699">
        <ele>65.7</ele>
        <time>2022-05-28T13:49:39Z</time>
      </trkpt>
      <trkpt lat="49.86828" lon="2.38697">
        <ele>65.7</ele>
        <time>2022-05-28T13:49:40Z</time>
      </trkpt>
      <trkpt lat="49.86828" lon="2.38695">
        <ele>65.7</ele>
        <time>2022-05-28T13:49:41Z</time>
      </trkpt>
      <trkpt lat="49.86828" lon="2.38694">
        <ele>65.7</ele>
        <time>2022-05-28T13:49:42Z</time>
      </trkpt>
      <trkpt lat="49.86828" lon="2.38691">
        <ele>65.7</ele>
        <time>2022-05-28T13:49:43Z</time>
      </trkpt>
      <trkpt lat="49.86828" lon="2.38689">
        <ele>65.7</ele>
        <time>2022-05-28T13:49:44Z</time>
      </trkpt>
      <trkpt lat="49.86828" lon="2.38688">
        <ele>65.7</ele>
        <time>2022-05-28T13:49:45Z</time>
      </trkpt>
      <trkpt lat="49.86828" lon="2.38685">
        <ele>65.8</ele>
        <time>2022-05-28T13:49:46Z</time>
      </trkpt>
      <trkpt lat="49.86828" lon="2.38683">
        <ele>65.8</ele>
        <time>2022-05-28T13:49:47Z</time>
      </trkpt>
      <trkpt lat="49.86828" lon="2.38682">
        <ele>65.8</ele>
        <time>2022-05-28T13:49:48Z</time>
      </trkpt>
      <trkpt lat="49.86827" lon="2.3868">
        <ele>65.8</ele>
        <time>2022-05-28T13:49:49Z</time>
      </trkpt>
      <trkpt lat="49.86826" lon="2.38679">
        <ele>65.8</ele>
        <time>2022-05-28T13:49:50Z</time>
      </trkpt>
      <trkpt lat="49.86826" lon="2.38677">
        <ele>65.8</ele>
        <time>2022-05-28T13:49:51Z</time>
      </trkpt>
      <trkpt lat="49.86826" lon="2.38675">
        <ele>65.8</ele>
        <time>2022-05-28T13:49:52Z</time>
      </trkpt>
      <trkpt lat="49.86826" lon="2.38673">
        <ele>65.8</ele>
        <time>2022-05-28T13:49:53Z</time>
      </trkpt>
      <trkpt lat="49.86826" lon="2.38672">
        <ele>65.8</ele>
        <time>2022-05-28T13:49:54Z</time>
      </trkpt>
      <trkpt lat="49.86827" lon="2.3867">
        <ele>65.8</ele>
        <time>2022-05-28T13:49:55Z</time>
      </trkpt>
      <trkpt lat="49.86827" lon="2.38668">
        <ele>65.8</ele>
        <time>2022-05-28T13:49:56Z</time>
      </trkpt>
      <trkpt lat="49.86827" lon="2.38666">
        <ele>65.7</ele>
        <time>2022-05-28T13:49:57Z</time>
      </trkpt>
      <trkpt lat="49.86827" lon="2.38663">
        <ele>65.7</ele>
        <time>2022-05-28T13:49:58Z</time>
      </trkpt>
      <trkpt lat="49.86827" lon="2.38662">
        <ele>65.7</ele>
        <time>2022-05-28T13:49:59Z</time>
      </trkpt>
      <trkpt lat="49.86827" lon="2.3866">
        <ele>65.7</ele>
        <time>2022-05-28T13:50:00Z</time>
      </trkpt>
      <trkpt lat="49.86826" lon="2.38657">
        <ele>65.6</ele>
        <time>2022-05-28T13:50:01Z</time>
      </trkpt>
      <trkpt lat="49.86826" lon="2.38656">
        <ele>65.6</ele>
        <time>2022-05-28T13:50:02Z</time>
      </trkpt>
      <trkpt lat="49.86826" lon="2.38655">
        <ele>65.6</ele>
        <time>2022-05-28T13:50:03Z</time>
      </trkpt>
      <trkpt lat="49.86825" lon="2.38652">
        <ele>65.6</ele>
        <time>2022-05-28T13:50:04Z</time>
      </trkpt>
      <trkpt lat="49.86825" lon="2.38651">
        <ele>65.6</ele>
        <time>2022-05-28T13:50:05Z</time>
      </trkpt>
      <trkpt lat="49.86825" lon="2.3865">
        <ele>65.5</ele>
        <time>2022-05-28T13:50:06Z</time>
      </trkpt>
      <trkpt lat="49.86825" lon="2.38647">
        <ele>65.5</ele>
        <time>2022-05-28T13:50:07Z</time>
      </trkpt>
      <trkpt lat="49.86825" lon="2.38645">
        <ele>65.5</ele>
        <time>2022-05-28T13:50:08Z</time>
      </trkpt>
      <trkpt lat="49.86824" lon="2.38644">
        <ele>65.5</ele>
        <time>2022-05-28T13:50:09Z</time>
      </trkpt>
      <trkpt lat="49.86824" lon="2.38642">
        <ele>65.5</ele>
        <time>2022-05-28T13:50:10Z</time>
      </trkpt>
      <trkpt lat="49.86824" lon="2.3864">
        <ele>65.5</ele>
        <time>2022-05-28T13:50:11Z</time>
      </trkpt>
      <trkpt lat="49.86824" lon="2.38638">
        <ele>65.5</ele>
        <time>2022-05-28T13:50:12Z</time>
      </trkpt>
      <trkpt lat="49.86823" lon="2.38635">
        <ele>65.4</ele>
        <time>2022-05-28T13:50:13Z</time>
      </trkpt>
      <trkpt lat="49.86823" lon="2.38634">
        <ele>65.4</ele>
        <time>2022-05-28T13:50:14Z</time>
      </trkpt>
      <trkpt lat="49.86823" lon="2.38632">
        <ele>65.4</ele>
        <time>2022-05-28T13:50:15Z</time>
      </trkpt>
      <trkpt lat="49.86823" lon="2.3863">
        <ele>65.4</ele>
        <time>2022-05-28T13:50:16Z</time>
      </trkpt>
      <trkpt lat="49.86823" lon="2.38628">
        <ele>65.4</ele>
        <time>2022-05-28T13:50:17Z</time>
      </trkpt>
      <trkpt lat="49.86823" lon="2.38625">
        <ele>65.4</ele>
        <time>2022-05-28T13:50:18Z</time>
      </trkpt>
      <trkpt lat="49.86823" lon="2.38623">
        <ele>65.4</ele>
        <time>2022-05-28T13:50:19Z</time>
      </trkpt>
      <trkpt lat="49.86822" lon="2.38622">
        <ele>65.4</ele>
        <time>2022-05-28T13:50:20Z</time>
      </trkpt>
      <trkpt lat="49.86822" lon="2.3862">
        <ele>65.4</ele>
        <time>2022-05-28T13:50:21Z</time>
      </trkpt>
      <trkpt lat="49.86822" lon="2.38618">
        <ele>65.4</ele>
        <time>2022-05-28T13:50:22Z</time>
      </trkpt>
      <trkpt lat="49.86822" lon="2.38617">
        <ele>65.4</ele>
        <time>2022-05-28T13:50:23Z</time>
      </trkpt>
      <trkpt lat="49.86822" lon="2.38615">
        <ele>65.4</ele>
        <time>2022-05-28T13:50:24Z</time>
      </trkpt>
      <trkpt lat="49.86822" lon="2.38613">
        <ele>65.4</ele>
        <time>2022-05-28T13:50:25Z</time>
      </trkpt>
      <trkpt lat="49.86822" lon="2.38611">
        <ele>65.4</ele>
        <time>2022-05-28T13:50:26Z</time>
      </trkpt>
      <trkpt lat="49.86822" lon="2.38609">
        <ele>65.4</ele>
        <time>2022-05-28T13:50:27Z</time>
      </trkpt>
      <trkpt lat="49.86822" lon="2.38607">
        <ele>65.4</ele>
        <time>2022-05-28T13:50:28Z</time>
      </trkpt>
      <trkpt lat="49.86821" lon="2.38605">
        <ele>65.4</ele>
        <time>2022-05-28T13:50:29Z</time>
      </trkpt>
      <trkpt lat="49.86821" lon="2.38604">
        <ele>65.4</ele>
        <time>2022-05-28T13:50:30Z</time>
      </trkpt>
      <trkpt lat="49.8682" lon="2.38603">
        <ele>65.4</ele>
        <time>2022-05-28T13:50:31Z</time>
      </trkpt>
      <trkpt lat="49.86819" lon="2.38603">
        <ele>65.4</ele>
        <time>2022-05-28T13:50:32Z</time>
      </trkpt>
      <trkpt lat="49.86819" lon="2.38603">
        <ele>65.4</ele>
        <time>2022-05-28T13:50:33Z</time>
      </trkpt>
      <trkpt lat="49.86819" lon="2.38602">
        <ele>65.4</ele>
        <time>2022-05-28T13:50:34Z</time>
      </trkpt>
      <trkpt lat="49.86819" lon="2.38602">
        <ele>65.4</ele>
        <time>2022-05-28T13:50:35Z</time>
      </trkpt>
      <trkpt lat="49.86819" lon="2.38601">
        <ele>65.3</ele>
        <time>2022-05-28T13:50:36Z</time>
      </trkpt>
      <trkpt lat="49.86819" lon="2.386">
        <ele>65.3</ele>
        <time>2022-05-28T13:50:37Z</time>
      </trkpt>
      <trkpt lat="49.86819" lon="2.38598">
        <ele>65.3</ele>
        <time>2022-05-28T13:50:38Z</time>
      </trkpt>
      <trkpt lat="49.86819" lon="2.38597">
        <ele>65.3</ele>
        <time>2022-05-28T13:50:39Z</time>
      </trkpt>
      <trkpt lat="49.86818" lon="2.38596">
        <ele>65.3</ele>
        <time>2022-05-28T13:50:40Z</time>
      </trkpt>
      <trkpt lat="49.86818" lon="2.38595">
        <ele>65.3</ele>
        <time>2022-05-28T13:50:41Z</time>
      </trkpt>
      <trkpt lat="49.86817" lon="2.38595">
        <ele>65.3</ele>
        <time>2022-05-28T13:50:42Z</time>
      </trkpt>
      <trkpt lat="49.86817" lon="2.38595">
        <ele>65.3</ele>
        <time>2022-05-28T13:50:43Z</time>
      </trkpt>
      <trkpt lat="49.86817" lon="2.38594">
        <ele>65.3</ele>
        <time>2022-05-28T13:50:44Z</time>
      </trkpt>
      <trkpt lat="49.86817" lon="2.38593">
        <ele>65.3</ele>
        <time>2022-05-28T13:50:45Z</time>
      </trkpt>
      <trkpt lat="49.86818" lon="2.38592">
        <ele>65.3</ele>
        <time>2022-05-28T13:50:46Z</time>
      </trkpt>
      <trkpt lat="49.86818" lon="2.3859">
        <ele>65.3</ele>
        <time>2022-05-28T13:50:47Z</time>
      </trkpt>
      <trkpt lat="49.86818" lon="2.38588">
        <ele>65.3</ele>
        <time>2022-05-28T13:50:48Z</time>
      </trkpt>
      <trkpt lat="49.86819" lon="2.38586">
        <ele>65.3</ele>
        <time>2022-05-28T13:50:49Z</time>
      </trkpt>
      <trkpt lat="49.86819" lon="2.38584">
        <ele>65.3</ele>
        <time>2022-05-28T13:50:50Z</time>
      </trkpt>
      <trkpt lat="49.86819" lon="2.38581">
        <ele>65.3</ele>
        <time>2022-05-28T13:50:51Z</time>
      </trkpt>
      <trkpt lat="49.8682" lon="2.38578">
        <ele>65.3</ele>
        <time>2022-05-28T13:50:52Z</time>
      </trkpt>
      <trkpt lat="49.8682" lon="2.38577">
        <ele>65.3</ele>
        <time>2022-05-28T13:50:53Z</time>
      </trkpt>
      <trkpt lat="49.8682" lon="2.38576">
        <ele>65.3</ele>
        <time>2022-05-28T13:50:54Z</time>
      </trkpt>
      <trkpt lat="49.8682" lon="2.38574">
        <ele>65.2</ele>
        <time>2022-05-28T13:50:55Z</time>
      </trkpt>
      <trkpt lat="49.8682" lon="2.38573">
        <ele>65.2</ele>
        <time>2022-05-28T13:50:56Z</time>
      </trkpt>
      <trkpt lat="49.8682" lon="2.38571">
        <ele>65.2</ele>
        <time>2022-05-28T13:50:57Z</time>
      </trkpt>
      <trkpt lat="49.8682" lon="2.3857">
        <ele>65.2</ele>
        <time>2022-05-28T13:50:58Z</time>
      </trkpt>
      <trkpt lat="49.86819" lon="2.3857">
        <ele>65.2</ele>
        <time>2022-05-28T13:50:59Z</time>
      </trkpt>
      <trkpt lat="49.86819" lon="2.3857">
        <ele>65.2</ele>
        <time>2022-05-28T13:51:00Z</time>
      </trkpt>
      <trkpt lat="49.86819" lon="2.38569">
        <ele>65.2</ele>
        <time>2022-05-28T13:51:01Z</time>
      </trkpt>
      <trkpt lat="49.86818" lon="2.38569">
        <ele>65.2</ele>
        <time>2022-05-28T13:51:02Z</time>
      </trkpt>
      <trkpt lat="49.86818" lon="2.3857">
        <ele>65.2</ele>
        <time>2022-05-28T13:51:03Z</time>
      </trkpt>
      <trkpt lat="49.86818" lon="2.3857">
        <ele>65.2</ele>
        <time>2022-05-28T13:51:04Z</time>
      </trkpt>
      <trkpt lat="49.86818" lon="2.3857">
        <ele>65.2</ele>
        <time>2022-05-28T13:51:05Z</time>
      </trkpt>
      <trkpt lat="49.86819" lon="2.38569">
        <ele>65.2</ele>
        <time>2022-05-28T13:51:06Z</time>
      </trkpt>
      <trkpt lat="49.86819" lon="2.38567">
        <ele>65.2</ele>
        <time>2022-05-28T13:51:07Z</time>
      </trkpt>
      <trkpt lat="49.8682" lon="2.38566">
        <ele>65.2</ele>
        <time>2022-05-28T13:51:08Z</time>
      </trkpt>
      <trkpt lat="49.8682" lon="2.38564">
        <ele>65.2</ele>
        <time>2022-05-28T13:51:09Z</time>
      </trkpt>
      <trkpt lat="49.86821" lon="2.38561">
        <ele>65.2</ele>
        <time>2022-05-28T13:51:10Z</time>
      </trkpt>
      <trkpt lat="49.86821" lon="2.38559">
        <ele>65.2</ele>
        <time>2022-05-28T13:51:11Z</time>
      </trkpt>
      <trkpt lat="49.86821" lon="2.38556">
        <ele>65.2</ele>
        <time>2022-05-28T13:51:12Z</time>
      </trkpt>
      <trkpt lat="49.86822" lon="2.38554">
        <ele>65.2</ele>
        <time>2022-05-28T13:51:13Z</time>
      </trkpt>
      <trkpt lat="49.86822" lon="2.38552">
        <ele>65.2</ele>
        <time>2022-05-28T13:51:14Z</time>
      </trkpt>
      <trkpt lat="49.86822" lon="2.3855">
        <ele>65.2</ele>
        <time>2022-05-28T13:51:15Z</time>
      </trkpt>
      <trkpt lat="49.86822" lon="2.38548">
        <ele>65.2</ele>
        <time>2022-05-28T13:51:16Z</time>
      </trkpt>
      <trkpt lat="49.86822" lon="2.38547">
        <ele>65.2</ele>
        <time>2022-05-28T13:51:17Z</time>
      </trkpt>
      <trkpt lat="49.86821" lon="2.38546">
        <ele>65.2</ele>
        <time>2022-05-28T13:51:18Z</time>
      </trkpt>
      <trkpt lat="49.86821" lon="2.38546">
        <ele>65.3</ele>
        <time>2022-05-28T13:51:19Z</time>
      </trkpt>
      <trkpt lat="49.8682" lon="2.38546">
        <ele>65.3</ele>
        <time>2022-05-28T13:51:20Z</time>
      </trkpt>
      <trkpt lat="49.8682" lon="2.38545">
        <ele>65.3</ele>
        <time>2022-05-28T13:51:21Z</time>
      </trkpt>
      <trkpt lat="49.86819" lon="2.38544">
        <ele>65.3</ele>
        <time>2022-05-28T13:51:22Z</time>
      </trkpt>
      <trkpt lat="49.86818" lon="2.38543">
        <ele>65.3</ele>
        <time>2022-05-28T13:51:23Z</time>
      </trkpt>
      <trkpt lat="49.86818" lon="2.38542">
        <ele>65.3</ele>
        <time>2022-05-28T13:51:24Z</time>
      </trkpt>
      <trkpt lat="49.86817" lon="2.38541">
        <ele>65.3</ele>
        <time>2022-05-28T13:51:25Z</time>
      </trkpt>
      <trkpt lat="49.86817" lon="2.38539">
        <ele>65.3</ele>
        <time>2022-05-28T13:51:26Z</time>
      </trkpt>
      <trkpt lat="49.86817" lon="2.38538">
        <ele>65.3</ele>
        <time>2022-05-28T13:51:27Z</time>
      </trkpt>
      <trkpt lat="49.86816" lon="2.38536">
        <ele>65.3</ele>
        <time>2022-05-28T13:51:28Z</time>
      </trkpt>
      <trkpt lat="49.86816" lon="2.38533">
        <ele>65.3</ele>
        <time>2022-05-28T13:51:29Z</time>
      </trkpt>
      <trkpt lat="49.86816" lon="2.38531">
        <ele>65.3</ele>
        <time>2022-05-28T13:51:30Z</time>
      </trkpt>
      <trkpt lat="49.86816" lon="2.3853">
        <ele>65.3</ele>
        <time>2022-05-28T13:51:31Z</time>
      </trkpt>
      <trkpt lat="49.86817" lon="2.38528">
        <ele>65.3</ele>
        <time>2022-05-28T13:51:32Z</time>
      </trkpt>
      <trkpt lat="49.86817" lon="2.38526">
        <ele>65.3</ele>
        <time>2022-05-28T13:51:33Z</time>
      </trkpt>
      <trkpt lat="49.86817" lon="2.38525">
        <ele>65.3</ele>
        <time>2022-05-28T13:51:34Z</time>
      </trkpt>
      <trkpt lat="49.86816" lon="2.38523">
        <ele>65.3</ele>
        <time>2022-05-28T13:51:35Z</time>
      </trkpt>
      <trkpt lat="49.86816" lon="2.38521">
        <ele>65.3</ele>
        <time>2022-05-28T13:51:36Z</time>
      </trkpt>
      <trkpt lat="49.86816" lon="2.3852">
        <ele>65.3</ele>
        <time>2022-05-28T13:51:37Z</time>
      </trkpt>
      <trkpt lat="49.86816" lon="2.38518">
        <ele>65.3</ele>
        <time>2022-05-28T13:51:38Z</time>
      </trkpt>
      <trkpt lat="49.86816" lon="2.38516">
        <ele>65.3</ele>
        <time>2022-05-28T13:51:39Z</time>
      </trkpt>
      <trkpt lat="49.86816" lon="2.38514">
        <ele>65.3</ele>
        <time>2022-05-28T13:51:40Z</time>
      </trkpt>
      <trkpt lat="49.86816" lon="2.38511">
        <ele>65.3</ele>
        <time>2022-05-28T13:51:41Z</time>
      </trkpt>
      <trkpt lat="49.86816" lon="2.3851">
        <ele>65.3</ele>
        <time>2022-05-28T13:51:42Z</time>
      </trkpt>
      <trkpt lat="49.86816" lon="2.38509">
        <ele>65.3</ele>
        <time>2022-05-28T13:51:43Z</time>
      </trkpt>
      <trkpt lat="49.86816" lon="2.38505">
        <ele>65.3</ele>
        <time>2022-05-28T13:51:44Z</time>
      </trkpt>
      <trkpt lat="49.86816" lon="2.38504">
        <ele>65.3</ele>
        <time>2022-05-28T13:51:45Z</time>
      </trkpt>
      <trkpt lat="49.86816" lon="2.38503">
        <ele>65.3</ele>
        <time>2022-05-28T13:51:46Z</time>
      </trkpt>
      <trkpt lat="49.86816" lon="2.385">
        <ele>65.3</ele>
        <time>2022-05-28T13:51:47Z</time>
      </trkpt>
      <trkpt lat="49.86816" lon="2.38498">
        <ele>65.3</ele>
        <time>2022-05-28T13:51:48Z</time>
      </trkpt>
      <trkpt lat="49.86816" lon="2.38497">
        <ele>65.3</ele>
        <time>2022-05-28T13:51:49Z</time>
      </trkpt>
      <trkpt lat="49.86816" lon="2.38493">
        <ele>65.2</ele>
        <time>2022-05-28T13:51:50Z</time>
      </trkpt>
      <trkpt lat="49.86816" lon="2.38492">
        <ele>65.2</ele>
        <time>2022-05-28T13:51:51Z</time>
      </trkpt>
      <trkpt lat="49.86816" lon="2.38491">
        <ele>65.2</ele>
        <time>2022-05-28T13:51:52Z</time>
      </trkpt>
      <trkpt lat="49.86816" lon="2.38487">
        <ele>65.2</ele>
        <time>2022-05-28T13:51:53Z</time>
      </trkpt>
      <trkpt lat="49.86816" lon="2.38486">
        <ele>65.2</ele>
        <time>2022-05-28T13:51:54Z</time>
      </trkpt>
      <trkpt lat="49.86817" lon="2.38485">
        <ele>65.2</ele>
        <time>2022-05-28T13:51:55Z</time>
      </trkpt>
      <trkpt lat="49.86817" lon="2.38481">
        <ele>65.2</ele>
        <time>2022-05-28T13:51:56Z</time>
      </trkpt>
      <trkpt lat="49.86816" lon="2.3848">
        <ele>65.2</ele>
        <time>2022-05-28T13:51:57Z</time>
      </trkpt>
      <trkpt lat="49.86816" lon="2.38479">
        <ele>65.2</ele>
        <time>2022-05-28T13:51:58Z</time>
      </trkpt>
      <trkpt lat="49.86816" lon="2.38475">
        <ele>65.2</ele>
        <time>2022-05-28T13:51:59Z</time>
      </trkpt>
      <trkpt lat="49.86816" lon="2.38474">
        <ele>65.2</ele>
        <time>2022-05-28T13:52:00Z</time>
      </trkpt>
      <trkpt lat="49.86816" lon="2.38473">
        <ele>65.2</ele>
        <time>2022-05-28T13:52:01Z</time>
      </trkpt>
      <trkpt lat="49.86816" lon="2.3847">
        <ele>65.2</ele>
        <time>2022-05-28T13:52:02Z</time>
      </trkpt>
      <trkpt lat="49.86816" lon="2.38468">
        <ele>65.2</ele>
        <time>2022-05-28T13:52:03Z</time>
      </trkpt>
      <trkpt lat="49.86816" lon="2.38467">
        <ele>65.2</ele>
        <time>2022-05-28T13:52:04Z</time>
      </trkpt>
      <trkpt lat="49.86816" lon="2.38464">
        <ele>65.2</ele>
        <time>2022-05-28T13:52:05Z</time>
      </trkpt>
      <trkpt lat="49.86816" lon="2.38462">
        <ele>65.2</ele>
        <time>2022-05-28T13:52:06Z</time>
      </trkpt>
      <trkpt lat="49.86816" lon="2.38461">
        <ele>65.2</ele>
        <time>2022-05-28T13:52:07Z</time>
      </trkpt>
      <trkpt lat="49.86816" lon="2.38459">
        <ele>65.1</ele>
        <time>2022-05-28T13:52:08Z</time>
      </trkpt>
      <trkpt lat="49.86816" lon="2.38458">
        <ele>65.1</ele>
        <time>2022-05-28T13:52:09Z</time>
      </trkpt>
      <trkpt lat="49.86816" lon="2.38456">
        <ele>65.1</ele>
        <time>2022-05-28T13:52:10Z</time>
      </trkpt>
      <trkpt lat="49.86816" lon="2.38454">
        <ele>65.1</ele>
        <time>2022-05-28T13:52:11Z</time>
      </trkpt>
      <trkpt lat="49.86816" lon="2.38451">
        <ele>65.1</ele>
        <time>2022-05-28T13:52:12Z</time>
      </trkpt>
      <trkpt lat="49.86816" lon="2.3845">
        <ele>65.1</ele>
        <time>2022-05-28T13:52:13Z</time>
      </trkpt>
      <trkpt lat="49.86816" lon="2.38448">
        <ele>65.1</ele>
        <time>2022-05-28T13:52:14Z</time>
      </trkpt>
      <trkpt lat="49.86816" lon="2.38446">
        <ele>65.2</ele>
        <time>2022-05-28T13:52:15Z</time>
      </trkpt>
      <trkpt lat="49.86816" lon="2.38442">
        <ele>65.2</ele>
        <time>2022-05-28T13:52:16Z</time>
      </trkpt>
      <trkpt lat="49.86816" lon="2.38441">
        <ele>65.2</ele>
        <time>2022-05-28T13:52:17Z</time>
      </trkpt>
      <trkpt lat="49.86816" lon="2.3844">
        <ele>65.2</ele>
        <time>2022-05-28T13:52:18Z</time>
      </trkpt>
      <trkpt lat="49.86817" lon="2.38436">
        <ele>65.2</ele>
        <time>2022-05-28T13:52:19Z</time>
      </trkpt>
      <trkpt lat="49.86817" lon="2.38434">
        <ele>65.2</ele>
        <time>2022-05-28T13:52:20Z</time>
      </trkpt>
      <trkpt lat="49.86817" lon="2.38433">
        <ele>65.2</ele>
        <time>2022-05-28T13:52:21Z</time>
      </trkpt>
      <trkpt lat="49.86817" lon="2.3843">
        <ele>65.2</ele>
        <time>2022-05-28T13:52:22Z</time>
      </trkpt>
      <trkpt lat="49.86817" lon="2.38428">
        <ele>65.2</ele>
        <time>2022-05-28T13:52:23Z</time>
      </trkpt>
      <trkpt lat="49.86817" lon="2.38427">
        <ele>65.2</ele>
        <time>2022-05-28T13:52:24Z</time>
      </trkpt>
      <trkpt lat="49.86817" lon="2.38425">
        <ele>65.2</ele>
        <time>2022-05-28T13:52:25Z</time>
      </trkpt>
      <trkpt lat="49.86817" lon="2.38423">
        <ele>65.2</ele>
        <time>2022-05-28T13:52:26Z</time>
      </trkpt>
      <trkpt lat="49.86816" lon="2.38421">
        <ele>65.2</ele>
        <time>2022-05-28T13:52:27Z</time>
      </trkpt>
      <trkpt lat="49.86816" lon="2.3842">
        <ele>65.2</ele>
        <time>2022-05-28T13:52:28Z</time>
      </trkpt>
      <trkpt lat="49.86816" lon="2.38418">
        <ele>65.2</ele>
        <time>2022-05-28T13:52:29Z</time>
      </trkpt>
      <trkpt lat="49.86816" lon="2.38416">
        <ele>65.2</ele>
        <time>2022-05-28T13:52:30Z</time>
      </trkpt>
      <trkpt lat="49.86816" lon="2.38414">
        <ele>65.2</ele>
        <time>2022-05-28T13:52:31Z</time>
      </trkpt>
      <trkpt lat="49.86816" lon="2.38412">
        <ele>65.2</ele>
        <time>2022-05-28T13:52:32Z</time>
      </trkpt>
      <trkpt lat="49.86816" lon="2.38411">
        <ele>65.2</ele>
        <time>2022-05-28T13:52:33Z</time>
      </trkpt>
      <trkpt lat="49.86816" lon="2.38407">
        <ele>65.2</ele>
        <time>2022-05-28T13:52:34Z</time>
      </trkpt>
      <trkpt lat="49.86816" lon="2.38406">
        <ele>65.2</ele>
        <time>2022-05-28T13:52:35Z</time>
      </trkpt>
      <trkpt lat="49.86816" lon="2.38405">
        <ele>65.2</ele>
        <time>2022-05-28T13:52:36Z</time>
      </trkpt>
      <trkpt lat="49.86815" lon="2.38402">
        <ele>65.2</ele>
        <time>2022-05-28T13:52:37Z</time>
      </trkpt>
      <trkpt lat="49.86815" lon="2.384">
        <ele>65.2</ele>
        <time>2022-05-28T13:52:38Z</time>
      </trkpt>
      <trkpt lat="49.86815" lon="2.38399">
        <ele>65.2</ele>
        <time>2022-05-28T13:52:39Z</time>
      </trkpt>
      <trkpt lat="49.86815" lon="2.38396">
        <ele>65.2</ele>
        <time>2022-05-28T13:52:40Z</time>
      </trkpt>
      <trkpt lat="49.86815" lon="2.38394">
        <ele>65.2</ele>
        <time>2022-05-28T13:52:41Z</time>
      </trkpt>
      <trkpt lat="49.86815" lon="2.38393">
        <ele>65.3</ele>
        <time>2022-05-28T13:52:42Z</time>
      </trkpt>
      <trkpt lat="49.86815" lon="2.3839">
        <ele>65.3</ele>
        <time>2022-05-28T13:52:43Z</time>
      </trkpt>
      <trkpt lat="49.86815" lon="2.38389">
        <ele>65.3</ele>
        <time>2022-05-28T13:52:44Z</time>
      </trkpt>
      <trkpt lat="49.86815" lon="2.38388">
        <ele>65.3</ele>
        <time>2022-05-28T13:52:45Z</time>
      </trkpt>
      <trkpt lat="49.86815" lon="2.38384">
        <ele>65.3</ele>
        <time>2022-05-28T13:52:46Z</time>
      </trkpt>
      <trkpt lat="49.86815" lon="2.38383">
        <ele>65.3</ele>
        <time>2022-05-28T13:52:47Z</time>
      </trkpt>
      <trkpt lat="49.86814" lon="2.38382">
        <ele>65.3</ele>
        <time>2022-05-28T13:52:48Z</time>
      </trkpt>
      <trkpt lat="49.86814" lon="2.3838">
        <ele>65.3</ele>
        <time>2022-05-28T13:52:49Z</time>
      </trkpt>
      <trkpt lat="49.86814" lon="2.38378">
        <ele>65.3</ele>
        <time>2022-05-28T13:52:50Z</time>
      </trkpt>
      <trkpt lat="49.86814" lon="2.38377">
        <ele>65.3</ele>
        <time>2022-05-28T13:52:51Z</time>
      </trkpt>
      <trkpt lat="49.86814" lon="2.38374">
        <ele>65.3</ele>
        <time>2022-05-28T13:52:52Z</time>
      </trkpt>
      <trkpt lat="49.86813" lon="2.38372">
        <ele>65.3</ele>
        <time>2022-05-28T13:52:53Z</time>
      </trkpt>
      <trkpt lat="49.86813" lon="2.38371">
        <ele>65.3</ele>
        <time>2022-05-28T13:52:54Z</time>
      </trkpt>
      <trkpt lat="49.86813" lon="2.38369">
        <ele>65.3</ele>
        <time>2022-05-28T13:52:55Z</time>
      </trkpt>
      <trkpt lat="49.86813" lon="2.38367">
        <ele>65.3</ele>
        <time>2022-05-28T13:52:56Z</time>
      </trkpt>
      <trkpt lat="49.86813" lon="2.38366">
        <ele>65.3</ele>
        <time>2022-05-28T13:52:57Z</time>
      </trkpt>
      <trkpt lat="49.86813" lon="2.38364">
        <ele>65.3</ele>
        <time>2022-05-28T13:52:58Z</time>
      </trkpt>
      <trkpt lat="49.86813" lon="2.38362">
        <ele>65.3</ele>
        <time>2022-05-28T13:52:59Z</time>
      </trkpt>
      <trkpt lat="49.86812" lon="2.3836">
        <ele>65.3</ele>
        <time>2022-05-28T13:53:00Z</time>
      </trkpt>
      <trkpt lat="49.86812" lon="2.38359">
        <ele>65.3</ele>
        <time>2022-05-28T13:53:01Z</time>
      </trkpt>
      <trkpt lat="49.86812" lon="2.38357">
        <ele>65.3</ele>
        <time>2022-05-28T13:53:02Z</time>
      </trkpt>
      <trkpt lat="49.86812" lon="2.38355">
        <ele>65.3</ele>
        <time>2022-05-28T13:53:03Z</time>
      </trkpt>
      <trkpt lat="49.86812" lon="2.38352">
        <ele>65.3</ele>
        <time>2022-05-28T13:53:04Z</time>
      </trkpt>
      <trkpt lat="49.86812" lon="2.38351">
        <ele>65.3</ele>
        <time>2022-05-28T13:53:05Z</time>
      </trkpt>
      <trkpt lat="49.86812" lon="2.38349">
        <ele>65.3</ele>
        <time>2022-05-28T13:53:06Z</time>
      </trkpt>
      <trkpt lat="49.86812" lon="2.38346">
        <ele>65.3</ele>
        <time>2022-05-28T13:53:07Z</time>
      </trkpt>
      <trkpt lat="49.86811" lon="2.38345">
        <ele>65.3</ele>
        <time>2022-05-28T13:53:08Z</time>
      </trkpt>
      <trkpt lat="49.86811" lon="2.38344">
        <ele>65.3</ele>
        <time>2022-05-28T13:53:09Z</time>
      </trkpt>
      <trkpt lat="49.86811" lon="2.38342">
        <ele>65.3</ele>
        <time>2022-05-28T13:53:10Z</time>
      </trkpt>
      <trkpt lat="49.86811" lon="2.3834">
        <ele>65.3</ele>
        <time>2022-05-28T13:53:11Z</time>
      </trkpt>
      <trkpt lat="49.8681" lon="2.38338">
        <ele>65.3</ele>
        <time>2022-05-28T13:53:12Z</time>
      </trkpt>
      <trkpt lat="49.8681" lon="2.38335">
        <ele>65.4</ele>
        <time>2022-05-28T13:53:13Z</time>
      </trkpt>
      <trkpt lat="49.8681" lon="2.38334">
        <ele>65.4</ele>
        <time>2022-05-28T13:53:14Z</time>
      </trkpt>
      <trkpt lat="49.86809" lon="2.38333">
        <ele>65.4</ele>
        <time>2022-05-28T13:53:15Z</time>
      </trkpt>
      <trkpt lat="49.86809" lon="2.38329">
        <ele>65.3</ele>
        <time>2022-05-28T13:53:16Z</time>
      </trkpt>
      <trkpt lat="49.86809" lon="2.38328">
        <ele>65.3</ele>
        <time>2022-05-28T13:53:17Z</time>
      </trkpt>
      <trkpt lat="49.86809" lon="2.38327">
        <ele>65.3</ele>
        <time>2022-05-28T13:53:18Z</time>
      </trkpt>
      <trkpt lat="49.86808" lon="2.38323">
        <ele>65.3</ele>
        <time>2022-05-28T13:53:19Z</time>
      </trkpt>
      <trkpt lat="49.86808" lon="2.38322">
        <ele>65.2</ele>
        <time>2022-05-28T13:53:20Z</time>
      </trkpt>
      <trkpt lat="49.86808" lon="2.38321">
        <ele>65.2</ele>
        <time>2022-05-28T13:53:21Z</time>
      </trkpt>
      <trkpt lat="49.86808" lon="2.38319">
        <ele>65.2</ele>
        <time>2022-05-28T13:53:22Z</time>
      </trkpt>
      <trkpt lat="49.86808" lon="2.38317">
        <ele>65.2</ele>
        <time>2022-05-28T13:53:23Z</time>
      </trkpt>
      <trkpt lat="49.86808" lon="2.38315">
        <ele>65.2</ele>
        <time>2022-05-28T13:53:24Z</time>
      </trkpt>
      <trkpt lat="49.86808" lon="2.38314">
        <ele>65.2</ele>
        <time>2022-05-28T13:53:25Z</time>
      </trkpt>
      <trkpt lat="49.86807" lon="2.38312">
        <ele>65.2</ele>
        <time>2022-05-28T13:53:26Z</time>
      </trkpt>
      <trkpt lat="49.86807" lon="2.3831">
        <ele>65.2</ele>
        <time>2022-05-28T13:53:27Z</time>
      </trkpt>
      <trkpt lat="49.86807" lon="2.38307">
        <ele>65.2</ele>
        <time>2022-05-28T13:53:28Z</time>
      </trkpt>
      <trkpt lat="49.86807" lon="2.38306">
        <ele>65.2</ele>
        <time>2022-05-28T13:53:29Z</time>
      </trkpt>
      <trkpt lat="49.86807" lon="2.38305">
        <ele>65.2</ele>
        <time>2022-05-28T13:53:30Z</time>
      </trkpt>
      <trkpt lat="49.86807" lon="2.38301">
        <ele>65.2</ele>
        <time>2022-05-28T13:53:31Z</time>
      </trkpt>
      <trkpt lat="49.86807" lon="2.383">
        <ele>65.2</ele>
        <time>2022-05-28T13:53:32Z</time>
      </trkpt>
      <trkpt lat="49.86807" lon="2.38298">
        <ele>65.2</ele>
        <time>2022-05-28T13:53:33Z</time>
      </trkpt>
      <trkpt lat="49.86807" lon="2.38297">
        <ele>65.2</ele>
        <time>2022-05-28T13:53:34Z</time>
      </trkpt>
      <trkpt lat="49.86807" lon="2.38295">
        <ele>65.2</ele>
        <time>2022-05-28T13:53:35Z</time>
      </trkpt>
      <trkpt lat="49.86807" lon="2.38293">
        <ele>65.2</ele>
        <time>2022-05-28T13:53:36Z</time>
      </trkpt>
      <trkpt lat="49.86807" lon="2.38289">
        <ele>65.2</ele>
        <time>2022-05-28T13:53:37Z</time>
      </trkpt>
      <trkpt lat="49.86807" lon="2.38288">
        <ele>65.2</ele>
        <time>2022-05-28T13:53:38Z</time>
      </trkpt>
      <trkpt lat="49.86807" lon="2.38287">
        <ele>65.2</ele>
        <time>2022-05-28T13:53:39Z</time>
      </trkpt>
      <trkpt lat="49.86807" lon="2.38284">
        <ele>65.2</ele>
        <time>2022-05-28T13:53:40Z</time>
      </trkpt>
      <trkpt lat="49.86807" lon="2.38282">
        <ele>65.2</ele>
        <time>2022-05-28T13:53:41Z</time>
      </trkpt>
      <trkpt lat="49.86807" lon="2.38281">
        <ele>65.2</ele>
        <time>2022-05-28T13:53:42Z</time>
      </trkpt>
      <trkpt lat="49.86807" lon="2.38278">
        <ele>65.3</ele>
        <time>2022-05-28T13:53:43Z</time>
      </trkpt>
      <trkpt lat="49.86807" lon="2.38277">
        <ele>65.3</ele>
        <time>2022-05-28T13:53:44Z</time>
      </trkpt>
      <trkpt lat="49.86807" lon="2.38275">
        <ele>65.3</ele>
        <time>2022-05-28T13:53:45Z</time>
      </trkpt>
      <trkpt lat="49.86807" lon="2.38274">
        <ele>65.3</ele>
        <time>2022-05-28T13:53:46Z</time>
      </trkpt>
      <trkpt lat="49.86807" lon="2.38272">
        <ele>65.3</ele>
        <time>2022-05-28T13:53:47Z</time>
      </trkpt>
      <trkpt lat="49.86807" lon="2.3827">
        <ele>65.3</ele>
        <time>2022-05-28T13:53:48Z</time>
      </trkpt>
      <trkpt lat="49.86807" lon="2.38267">
        <ele>65.3</ele>
        <time>2022-05-28T13:53:49Z</time>
      </trkpt>
      <trkpt lat="49.86807" lon="2.38266">
        <ele>65.3</ele>
        <time>2022-05-28T13:53:50Z</time>
      </trkpt>
      <trkpt lat="49.86807" lon="2.38264">
        <ele>65.3</ele>
        <time>2022-05-28T13:53:51Z</time>
      </trkpt>
      <trkpt lat="49.86807" lon="2.38261">
        <ele>65.3</ele>
        <time>2022-05-28T13:53:52Z</time>
      </trkpt>
      <trkpt lat="49.86807" lon="2.3826">
        <ele>65.3</ele>
        <time>2022-05-28T13:53:53Z</time>
      </trkpt>
      <trkpt lat="49.86807" lon="2.38259">
        <ele>65.3</ele>
        <time>2022-05-28T13:53:54Z</time>
      </trkpt>
      <trkpt lat="49.86807" lon="2.38255">
        <ele>65.3</ele>
        <time>2022-05-28T13:53:55Z</time>
      </trkpt>
      <trkpt lat="49.86807" lon="2.38254">
        <ele>65.3</ele>
        <time>2022-05-28T13:53:56Z</time>
      </trkpt>
      <trkpt lat="49.86807" lon="2.38253">
        <ele>65.3</ele>
        <time>2022-05-28T13:53:57Z</time>
      </trkpt>
      <trkpt lat="49.86807" lon="2.3825">
        <ele>65.3</ele>
        <time>2022-05-28T13:53:58Z</time>
      </trkpt>
      <trkpt lat="49.86807" lon="2.38248">
        <ele>65.4</ele>
        <time>2022-05-28T13:53:59Z</time>
      </trkpt>
      <trkpt lat="49.86807" lon="2.38246">
        <ele>65.4</ele>
        <time>2022-05-28T13:54:00Z</time>
      </trkpt>
      <trkpt lat="49.86807" lon="2.38244">
        <ele>65.4</ele>
        <time>2022-05-28T13:54:01Z</time>
      </trkpt>
      <trkpt lat="49.86807" lon="2.38242">
        <ele>65.4</ele>
        <time>2022-05-28T13:54:02Z</time>
      </trkpt>
      <trkpt lat="49.86807" lon="2.3824">
        <ele>65.4</ele>
        <time>2022-05-28T13:54:03Z</time>
      </trkpt>
      <trkpt lat="49.86808" lon="2.38238">
        <ele>65.4</ele>
        <time>2022-05-28T13:54:04Z</time>
      </trkpt>
      <trkpt lat="49.86808" lon="2.38236">
        <ele>65.4</ele>
        <time>2022-05-28T13:54:05Z</time>
      </trkpt>
      <trkpt lat="49.86808" lon="2.38232">
        <ele>65.4</ele>
        <time>2022-05-28T13:54:06Z</time>
      </trkpt>
      <trkpt lat="49.86809" lon="2.38231">
        <ele>65.4</ele>
        <time>2022-05-28T13:54:07Z</time>
      </trkpt>
      <trkpt lat="49.86809" lon="2.3823">
        <ele>65.4</ele>
        <time>2022-05-28T13:54:08Z</time>
      </trkpt>
      <trkpt lat="49.86809" lon="2.38226">
        <ele>65.4</ele>
        <time>2022-05-28T13:54:09Z</time>
      </trkpt>
      <trkpt lat="49.8681" lon="2.38225">
        <ele>65.4</ele>
        <time>2022-05-28T13:54:10Z</time>
      </trkpt>
      <trkpt lat="49.8681" lon="2.38224">
        <ele>65.4</ele>
        <time>2022-05-28T13:54:11Z</time>
      </trkpt>
      <trkpt lat="49.8681" lon="2.3822">
        <ele>65.4</ele>
        <time>2022-05-28T13:54:12Z</time>
      </trkpt>
      <trkpt lat="49.8681" lon="2.38219">
        <ele>65.4</ele>
        <time>2022-05-28T13:54:13Z</time>
      </trkpt>
      <trkpt lat="49.8681" lon="2.38217">
        <ele>65.4</ele>
        <time>2022-05-28T13:54:14Z</time>
      </trkpt>
      <trkpt lat="49.8681" lon="2.38215">
        <ele>65.4</ele>
        <time>2022-05-28T13:54:15Z</time>
      </trkpt>
      <trkpt lat="49.8681" lon="2.38213">
        <ele>65.4</ele>
        <time>2022-05-28T13:54:16Z</time>
      </trkpt>
      <trkpt lat="49.8681" lon="2.38211">
        <ele>65.4</ele>
        <time>2022-05-28T13:54:17Z</time>
      </trkpt>
      <trkpt lat="49.8681" lon="2.38209">
        <ele>65.4</ele>
        <time>2022-05-28T13:54:18Z</time>
      </trkpt>
      <trkpt lat="49.8681" lon="2.38207">
        <ele>65.4</ele>
        <time>2022-05-28T13:54:19Z</time>
      </trkpt>
      <trkpt lat="49.8681" lon="2.38205">
        <ele>65.4</ele>
        <time>2022-05-28T13:54:20Z</time>
      </trkpt>
      <trkpt lat="49.8681" lon="2.38202">
        <ele>65.4</ele>
        <time>2022-05-28T13:54:21Z</time>
      </trkpt>
      <trkpt lat="49.8681" lon="2.382">
        <ele>65.4</ele>
        <time>2022-05-28T13:54:22Z</time>
      </trkpt>
      <trkpt lat="49.8681" lon="2.38198">
        <ele>65.4</ele>
        <time>2022-05-28T13:54:23Z</time>
      </trkpt>
      <trkpt lat="49.8681" lon="2.38196">
        <ele>65.4</ele>
        <time>2022-05-28T13:54:24Z</time>
      </trkpt>
      <trkpt lat="49.8681" lon="2.38194">
        <ele>65.4</ele>
        <time>2022-05-28T13:54:25Z</time>
      </trkpt>
      <trkpt lat="49.8681" lon="2.38192">
        <ele>65.4</ele>
        <time>2022-05-28T13:54:26Z</time>
      </trkpt>
      <trkpt lat="49.8681" lon="2.38188">
        <ele>65.5</ele>
        <time>2022-05-28T13:54:27Z</time>
      </trkpt>
      <trkpt lat="49.8681" lon="2.38187">
        <ele>65.5</ele>
        <time>2022-05-28T13:54:28Z</time>
      </trkpt>
      <trkpt lat="49.8681" lon="2.38186">
        <ele>65.5</ele>
        <time>2022-05-28T13:54:29Z</time>
      </trkpt>
      <trkpt lat="49.8681" lon="2.38182">
        <ele>65.5</ele>
        <time>2022-05-28T13:54:30Z</time>
      </trkpt>
      <trkpt lat="49.8681" lon="2.38181">
        <ele>65.5</ele>
        <time>2022-05-28T13:54:31Z</time>
      </trkpt>
      <trkpt lat="49.8681" lon="2.3818">
        <ele>65.5</ele>
        <time>2022-05-28T13:54:32Z</time>
      </trkpt>
      <trkpt lat="49.8681" lon="2.38176">
        <ele>65.5</ele>
        <time>2022-05-28T13:54:33Z</time>
      </trkpt>
      <trkpt lat="49.8681" lon="2.38175">
        <ele>65.5</ele>
        <time>2022-05-28T13:54:34Z</time>
      </trkpt>
      <trkpt lat="49.8681" lon="2.38174">
        <ele>65.5</ele>
        <time>2022-05-28T13:54:35Z</time>
      </trkpt>
      <trkpt lat="49.8681" lon="2.38171">
        <ele>65.5</ele>
        <time>2022-05-28T13:54:36Z</time>
      </trkpt>
      <trkpt lat="49.8681" lon="2.38169">
        <ele>65.5</ele>
        <time>2022-05-28T13:54:37Z</time>
      </trkpt>
      <trkpt lat="49.86809" lon="2.38167">
        <ele>65.5</ele>
        <time>2022-05-28T13:54:38Z</time>
      </trkpt>
      <trkpt lat="49.86809" lon="2.38165">
        <ele>65.5</ele>
        <time>2022-05-28T13:54:39Z</time>
      </trkpt>
      <trkpt lat="49.8681" lon="2.38162">
        <ele>65.5</ele>
        <time>2022-05-28T13:54:40Z</time>
      </trkpt>
      <trkpt lat="49.8681" lon="2.3816">
        <ele>65.5</ele>
        <time>2022-05-28T13:54:41Z</time>
      </trkpt>
      <trkpt lat="49.8681" lon="2.38157">
        <ele>65.5</ele>
        <time>2022-05-28T13:54:42Z</time>
      </trkpt>
      <trkpt lat="49.8681" lon="2.38156">
        <ele>65.5</ele>
        <time>2022-05-28T13:54:43Z</time>
      </trkpt>
      <trkpt lat="49.8681" lon="2.38155">
        <ele>65.5</ele>
        <time>2022-05-28T13:54:44Z</time>
      </trkpt>
      <trkpt lat="49.8681" lon="2.38153">
        <ele>65.5</ele>
        <time>2022-05-28T13:54:45Z</time>
      </trkpt>
      <trkpt lat="49.8681" lon="2.38152">
        <ele>65.5</ele>
        <time>2022-05-28T13:54:46Z</time>
      </trkpt>
      <trkpt lat="49.8681" lon="2.38151">
        <ele>65.5</ele>
        <time>2022-05-28T13:54:47Z</time>
      </trkpt>
      <trkpt lat="49.8681" lon="2.38149">
        <ele>65.5</ele>
        <time>2022-05-28T13:54:48Z</time>
      </trkpt>
      <trkpt lat="49.8681" lon="2.38147">
        <ele>65.5</ele>
        <time>2022-05-28T13:54:49Z</time>
      </trkpt>
      <trkpt lat="49.86811" lon="2.38146">
        <ele>65.5</ele>
        <time>2022-05-28T13:54:50Z</time>
      </trkpt>
      <trkpt lat="49.86811" lon="2.38144">
        <ele>65.5</ele>
        <time>2022-05-28T13:54:51Z</time>
      </trkpt>
      <trkpt lat="49.86811" lon="2.38142">
        <ele>65.5</ele>
        <time>2022-05-28T13:54:52Z</time>
      </trkpt>
      <trkpt lat="49.86811" lon="2.3814">
        <ele>65.5</ele>
        <time>2022-05-28T13:54:53Z</time>
      </trkpt>
      <trkpt lat="49.86811" lon="2.38139">
        <ele>65.6</ele>
        <time>2022-05-28T13:54:54Z</time>
      </trkpt>
      <trkpt lat="49.86811" lon="2.38135">
        <ele>65.6</ele>
        <time>2022-05-28T13:54:55Z</time>
      </trkpt>
      <trkpt lat="49.86811" lon="2.38134">
        <ele>65.6</ele>
        <time>2022-05-28T13:54:56Z</time>
      </trkpt>
      <trkpt lat="49.86811" lon="2.38133">
        <ele>65.6</ele>
        <time>2022-05-28T13:54:57Z</time>
      </trkpt>
      <trkpt lat="49.86811" lon="2.3813">
        <ele>65.6</ele>
        <time>2022-05-28T13:54:58Z</time>
      </trkpt>
      <trkpt lat="49.86811" lon="2.38128">
        <ele>65.6</ele>
        <time>2022-05-28T13:54:59Z</time>
      </trkpt>
      <trkpt lat="49.86811" lon="2.38127">
        <ele>65.6</ele>
        <time>2022-05-28T13:55:00Z</time>
      </trkpt>
      <trkpt lat="49.86811" lon="2.38124">
        <ele>65.6</ele>
        <time>2022-05-28T13:55:01Z</time>
      </trkpt>
      <trkpt lat="49.8681" lon="2.38122">
        <ele>65.6</ele>
        <time>2022-05-28T13:55:02Z</time>
      </trkpt>
      <trkpt lat="49.8681" lon="2.38121">
        <ele>65.6</ele>
        <time>2022-05-28T13:55:03Z</time>
      </trkpt>
      <trkpt lat="49.8681" lon="2.38118">
        <ele>65.7</ele>
        <time>2022-05-28T13:55:04Z</time>
      </trkpt>
      <trkpt lat="49.8681" lon="2.38116">
        <ele>65.7</ele>
        <time>2022-05-28T13:55:05Z</time>
      </trkpt>
      <trkpt lat="49.8681" lon="2.38115">
        <ele>65.7</ele>
        <time>2022-05-28T13:55:06Z</time>
      </trkpt>
      <trkpt lat="49.8681" lon="2.38111">
        <ele>65.7</ele>
        <time>2022-05-28T13:55:07Z</time>
      </trkpt>
      <trkpt lat="49.8681" lon="2.3811">
        <ele>65.7</ele>
        <time>2022-05-28T13:55:08Z</time>
      </trkpt>
      <trkpt lat="49.86809" lon="2.38108">
        <ele>65.7</ele>
        <time>2022-05-28T13:55:09Z</time>
      </trkpt>
      <trkpt lat="49.86809" lon="2.38107">
        <ele>65.7</ele>
        <time>2022-05-28T13:55:10Z</time>
      </trkpt>
      <trkpt lat="49.86809" lon="2.38105">
        <ele>65.8</ele>
        <time>2022-05-28T13:55:11Z</time>
      </trkpt>
      <trkpt lat="49.86809" lon="2.38103">
        <ele>65.8</ele>
        <time>2022-05-28T13:55:12Z</time>
      </trkpt>
      <trkpt lat="49.86808" lon="2.381">
        <ele>65.8</ele>
        <time>2022-05-28T13:55:13Z</time>
      </trkpt>
      <trkpt lat="49.86808" lon="2.38099">
        <ele>65.8</ele>
        <time>2022-05-28T13:55:14Z</time>
      </trkpt>
      <trkpt lat="49.86808" lon="2.38097">
        <ele>65.8</ele>
        <time>2022-05-28T13:55:15Z</time>
      </trkpt>
      <trkpt lat="49.86807" lon="2.38096">
        <ele>65.8</ele>
        <time>2022-05-28T13:55:16Z</time>
      </trkpt>
      <trkpt lat="49.86807" lon="2.38094">
        <ele>65.8</ele>
        <time>2022-05-28T13:55:17Z</time>
      </trkpt>
      <trkpt lat="49.86807" lon="2.38092">
        <ele>65.8</ele>
        <time>2022-05-28T13:55:18Z</time>
      </trkpt>
      <trkpt lat="49.86806" lon="2.38089">
        <ele>65.8</ele>
        <time>2022-05-28T13:55:19Z</time>
      </trkpt>
      <trkpt lat="49.86806" lon="2.38087">
        <ele>65.8</ele>
        <time>2022-05-28T13:55:20Z</time>
      </trkpt>
      <trkpt lat="49.86806" lon="2.38086">
        <ele>65.8</ele>
        <time>2022-05-28T13:55:21Z</time>
      </trkpt>
      <trkpt lat="49.86806" lon="2.38085">
        <ele>65.8</ele>
        <time>2022-05-28T13:55:22Z</time>
      </trkpt>
      <trkpt lat="49.86806" lon="2.38083">
        <ele>65.9</ele>
        <time>2022-05-28T13:55:23Z</time>
      </trkpt>
      <trkpt lat="49.86805" lon="2.38082">
        <ele>65.9</ele>
        <time>2022-05-28T13:55:24Z</time>
      </trkpt>
      <trkpt lat="49.86805" lon="2.3808">
        <ele>65.9</ele>
        <time>2022-05-28T13:55:25Z</time>
      </trkpt>
      <trkpt lat="49.86805" lon="2.38078">
        <ele>65.9</ele>
        <time>2022-05-28T13:55:26Z</time>
      </trkpt>
      <trkpt lat="49.86805" lon="2.38076">
        <ele>65.9</ele>
        <time>2022-05-28T13:55:27Z</time>
      </trkpt>
      <trkpt lat="49.86805" lon="2.38075">
        <ele>65.9</ele>
        <time>2022-05-28T13:55:28Z</time>
      </trkpt>
      <trkpt lat="49.86805" lon="2.38073">
        <ele>65.9</ele>
        <time>2022-05-28T13:55:29Z</time>
      </trkpt>
      <trkpt lat="49.86805" lon="2.38071">
        <ele>65.9</ele>
        <time>2022-05-28T13:55:30Z</time>
      </trkpt>
      <trkpt lat="49.86804" lon="2.38068">
        <ele>65.9</ele>
        <time>2022-05-28T13:55:31Z</time>
      </trkpt>
      <trkpt lat="49.86804" lon="2.38067">
        <ele>65.9</ele>
        <time>2022-05-28T13:55:32Z</time>
      </trkpt>
      <trkpt lat="49.86804" lon="2.38065">
        <ele>65.9</ele>
        <time>2022-05-28T13:55:33Z</time>
      </trkpt>
      <trkpt lat="49.86804" lon="2.38062">
        <ele>65.9</ele>
        <time>2022-05-28T13:55:34Z</time>
      </trkpt>
      <trkpt lat="49.86805" lon="2.38061">
        <ele>65.9</ele>
        <time>2022-05-28T13:55:35Z</time>
      </trkpt>
      <trkpt lat="49.86805" lon="2.38059">
        <ele>65.9</ele>
        <time>2022-05-28T13:55:36Z</time>
      </trkpt>
      <trkpt lat="49.86805" lon="2.38056">
        <ele>65.9</ele>
        <time>2022-05-28T13:55:37Z</time>
      </trkpt>
      <trkpt lat="49.86805" lon="2.38055">
        <ele>65.9</ele>
        <time>2022-05-28T13:55:38Z</time>
      </trkpt>
      <trkpt lat="49.86805" lon="2.38054">
        <ele>66</ele>
        <time>2022-05-28T13:55:39Z</time>
      </trkpt>
      <trkpt lat="49.86805" lon="2.38052">
        <ele>66</ele>
        <time>2022-05-28T13:55:40Z</time>
      </trkpt>
      <trkpt lat="49.86805" lon="2.3805">
        <ele>66</ele>
        <time>2022-05-28T13:55:41Z</time>
      </trkpt>
      <trkpt lat="49.86805" lon="2.38048">
        <ele>66</ele>
        <time>2022-05-28T13:55:42Z</time>
      </trkpt>
      <trkpt lat="49.86805" lon="2.38045">
        <ele>65.9</ele>
        <time>2022-05-28T13:55:43Z</time>
      </trkpt>
      <trkpt lat="49.86805" lon="2.38044">
        <ele>65.9</ele>
        <time>2022-05-28T13:55:44Z</time>
      </trkpt>
      <trkpt lat="49.86805" lon="2.38042">
        <ele>65.9</ele>
        <time>2022-05-28T13:55:45Z</time>
      </trkpt>
      <trkpt lat="49.86805" lon="2.3804">
        <ele>65.9</ele>
        <time>2022-05-28T13:55:46Z</time>
      </trkpt>
      <trkpt lat="49.86805" lon="2.38039">
        <ele>65.9</ele>
        <time>2022-05-28T13:55:47Z</time>
      </trkpt>
      <trkpt lat="49.86804" lon="2.38037">
        <ele>65.9</ele>
        <time>2022-05-28T13:55:48Z</time>
      </trkpt>
      <trkpt lat="49.86804" lon="2.38036">
        <ele>65.9</ele>
        <time>2022-05-28T13:55:49Z</time>
      </trkpt>
      <trkpt lat="49.86804" lon="2.38034">
        <ele>65.9</ele>
        <time>2022-05-28T13:55:50Z</time>
      </trkpt>
      <trkpt lat="49.86804" lon="2.38033">
        <ele>65.9</ele>
        <time>2022-05-28T13:55:51Z</time>
      </trkpt>
      <trkpt lat="49.86804" lon="2.38029">
        <ele>65.9</ele>
        <time>2022-05-28T13:55:52Z</time>
      </trkpt>
      <trkpt lat="49.86804" lon="2.38028">
        <ele>65.9</ele>
        <time>2022-05-28T13:55:53Z</time>
      </trkpt>
      <trkpt lat="49.86804" lon="2.38027">
        <ele>65.9</ele>
        <time>2022-05-28T13:55:54Z</time>
      </trkpt>
      <trkpt lat="49.86803" lon="2.38024">
        <ele>65.8</ele>
        <time>2022-05-28T13:55:55Z</time>
      </trkpt>
      <trkpt lat="49.86803" lon="2.38022">
        <ele>65.8</ele>
        <time>2022-05-28T13:55:56Z</time>
      </trkpt>
      <trkpt lat="49.86802" lon="2.38021">
        <ele>65.8</ele>
        <time>2022-05-28T13:55:57Z</time>
      </trkpt>
      <trkpt lat="49.86802" lon="2.38018">
        <ele>65.8</ele>
        <time>2022-05-28T13:55:58Z</time>
      </trkpt>
      <trkpt lat="49.86801" lon="2.38017">
        <ele>65.8</ele>
        <time>2022-05-28T13:55:59Z</time>
      </trkpt>
      <trkpt lat="49.86801" lon="2.38016">
        <ele>65.8</ele>
        <time>2022-05-28T13:56:00Z</time>
      </trkpt>
      <trkpt lat="49.86801" lon="2.38012">
        <ele>65.8</ele>
        <time>2022-05-28T13:56:01Z</time>
      </trkpt>
      <trkpt lat="49.868" lon="2.38011">
        <ele>65.8</ele>
        <time>2022-05-28T13:56:02Z</time>
      </trkpt>
      <trkpt lat="49.868" lon="2.3801">
        <ele>65.8</ele>
        <time>2022-05-28T13:56:03Z</time>
      </trkpt>
      <trkpt lat="49.86799" lon="2.38008">
        <ele>65.8</ele>
        <time>2022-05-28T13:56:04Z</time>
      </trkpt>
      <trkpt lat="49.86799" lon="2.38006">
        <ele>65.8</ele>
        <time>2022-05-28T13:56:05Z</time>
      </trkpt>
      <trkpt lat="49.86798" lon="2.38004">
        <ele>65.8</ele>
        <time>2022-05-28T13:56:06Z</time>
      </trkpt>
      <trkpt lat="49.86798" lon="2.38003">
        <ele>65.8</ele>
        <time>2022-05-28T13:56:07Z</time>
      </trkpt>
      <trkpt lat="49.86797" lon="2.38002">
        <ele>65.8</ele>
        <time>2022-05-28T13:56:08Z</time>
      </trkpt>
      <trkpt lat="49.86796" lon="2.37999">
        <ele>65.7</ele>
        <time>2022-05-28T13:56:09Z</time>
      </trkpt>
      <trkpt lat="49.86796" lon="2.37998">
        <ele>65.7</ele>
        <time>2022-05-28T13:56:10Z</time>
      </trkpt>
      <trkpt lat="49.86796" lon="2.37997">
        <ele>65.7</ele>
        <time>2022-05-28T13:56:11Z</time>
      </trkpt>
      <trkpt lat="49.86795" lon="2.37996">
        <ele>65.7</ele>
        <time>2022-05-28T13:56:12Z</time>
      </trkpt>
      <trkpt lat="49.86795" lon="2.37995">
        <ele>65.7</ele>
        <time>2022-05-28T13:56:13Z</time>
      </trkpt>
      <trkpt lat="49.86794" lon="2.37994">
        <ele>65.7</ele>
        <time>2022-05-28T13:56:14Z</time>
      </trkpt>
      <trkpt lat="49.86794" lon="2.37993">
        <ele>65.7</ele>
        <time>2022-05-28T13:56:15Z</time>
      </trkpt>
      <trkpt lat="49.86793" lon="2.37992">
        <ele>65.7</ele>
        <time>2022-05-28T13:56:16Z</time>
      </trkpt>
      <trkpt lat="49.86793" lon="2.37991">
        <ele>65.7</ele>
        <time>2022-05-28T13:56:17Z</time>
      </trkpt>
      <trkpt lat="49.86792" lon="2.3799">
        <ele>65.7</ele>
        <time>2022-05-28T13:56:18Z</time>
      </trkpt>
      <trkpt lat="49.86792" lon="2.37989">
        <ele>65.7</ele>
        <time>2022-05-28T13:56:19Z</time>
      </trkpt>
      <trkpt lat="49.86792" lon="2.37989">
        <ele>65.7</ele>
        <time>2022-05-28T13:56:20Z</time>
      </trkpt>
      <trkpt lat="49.86791" lon="2.37988">
        <ele>65.7</ele>
        <time>2022-05-28T13:56:21Z</time>
      </trkpt>
      <trkpt lat="49.8679" lon="2.37987">
        <ele>65.7</ele>
        <time>2022-05-28T13:56:22Z</time>
      </trkpt>
      <trkpt lat="49.86789" lon="2.37987">
        <ele>65.7</ele>
        <time>2022-05-28T13:56:23Z</time>
      </trkpt>
      <trkpt lat="49.86789" lon="2.37986">
        <ele>65.7</ele>
        <time>2022-05-28T13:56:24Z</time>
      </trkpt>
      <trkpt lat="49.86788" lon="2.37986">
        <ele>65.8</ele>
        <time>2022-05-28T13:56:25Z</time>
      </trkpt>
      <trkpt lat="49.86787" lon="2.37985">
        <ele>65.8</ele>
        <time>2022-05-28T13:56:26Z</time>
      </trkpt>
      <trkpt lat="49.86786" lon="2.37984">
        <ele>65.8</ele>
        <time>2022-05-28T13:56:27Z</time>
      </trkpt>
      <trkpt lat="49.86785" lon="2.37983">
        <ele>65.8</ele>
        <time>2022-05-28T13:56:28Z</time>
      </trkpt>
      <trkpt lat="49.86785" lon="2.37982">
        <ele>65.8</ele>
        <time>2022-05-28T13:56:29Z</time>
      </trkpt>
      <trkpt lat="49.86784" lon="2.3798">
        <ele>65.8</ele>
        <time>2022-05-28T13:56:30Z</time>
      </trkpt>
      <trkpt lat="49.86782" lon="2.37978">
        <ele>65.7</ele>
        <time>2022-05-28T13:56:31Z</time>
      </trkpt>
      <trkpt lat="49.86782" lon="2.37977">
        <ele>65.7</ele>
        <time>2022-05-28T13:56:32Z</time>
      </trkpt>
      <trkpt lat="49.86781" lon="2.37976">
        <ele>65.7</ele>
        <time>2022-05-28T13:56:33Z</time>
      </trkpt>
      <trkpt lat="49.8678" lon="2.37975">
        <ele>65.7</ele>
        <time>2022-05-28T13:56:34Z</time>
      </trkpt>
      <trkpt lat="49.86779" lon="2.37973">
        <ele>65.7</ele>
        <time>2022-05-28T13:56:35Z</time>
      </trkpt>
      <trkpt lat="49.86777" lon="2.37971">
        <ele>65.7</ele>
        <time>2022-05-28T13:56:36Z</time>
      </trkpt>
      <trkpt lat="49.86776" lon="2.3797">
        <ele>65.7</ele>
        <time>2022-05-28T13:56:37Z</time>
      </trkpt>
      <trkpt lat="49.86775" lon="2.37968">
        <ele>65.7</ele>
        <time>2022-05-28T13:56:38Z</time>
      </trkpt>
      <trkpt lat="49.86774" lon="2.37967">
        <ele>65.7</ele>
        <time>2022-05-28T13:56:39Z</time>
      </trkpt>
      <trkpt lat="49.86773" lon="2.37966">
        <ele>65.7</ele>
        <time>2022-05-28T13:56:40Z</time>
      </trkpt>
      <trkpt lat="49.86771" lon="2.37964">
        <ele>65.7</ele>
        <time>2022-05-28T13:56:41Z</time>
      </trkpt>
      <trkpt lat="49.8677" lon="2.37963">
        <ele>65.7</ele>
        <time>2022-05-28T13:56:42Z</time>
      </trkpt>
      <trkpt lat="49.86769" lon="2.37962">
        <ele>65.7</ele>
        <time>2022-05-28T13:56:43Z</time>
      </trkpt>
      <trkpt lat="49.86767" lon="2.37961">
        <ele>65.7</ele>
        <time>2022-05-28T13:56:44Z</time>
      </trkpt>
      <trkpt lat="49.86766" lon="2.37959">
        <ele>65.8</ele>
        <time>2022-05-28T13:56:45Z</time>
      </trkpt>
      <trkpt lat="49.86765" lon="2.37958">
        <ele>65.8</ele>
        <time>2022-05-28T13:56:46Z</time>
      </trkpt>
      <trkpt lat="49.86763" lon="2.37957">
        <ele>65.8</ele>
        <time>2022-05-28T13:56:47Z</time>
      </trkpt>
      <trkpt lat="49.86763" lon="2.37955">
        <ele>65.8</ele>
        <time>2022-05-28T13:56:48Z</time>
      </trkpt>
      <trkpt lat="49.86762" lon="2.37953">
        <ele>65.8</ele>
        <time>2022-05-28T13:56:49Z</time>
      </trkpt>
      <trkpt lat="49.86762" lon="2.37949">
        <ele>65.7</ele>
        <time>2022-05-28T13:56:50Z</time>
      </trkpt>
      <trkpt lat="49.86762" lon="2.37948">
        <ele>65.7</ele>
        <time>2022-05-28T13:56:51Z</time>
      </trkpt>
      <trkpt lat="49.86761" lon="2.37947">
        <ele>65.7</ele>
        <time>2022-05-28T13:56:52Z</time>
      </trkpt>
      <trkpt lat="49.86761" lon="2.37944">
        <ele>65.7</ele>
        <time>2022-05-28T13:56:53Z</time>
      </trkpt>
      <trkpt lat="49.86761" lon="2.37942">
        <ele>65.7</ele>
        <time>2022-05-28T13:56:54Z</time>
      </trkpt>
      <trkpt lat="49.8676" lon="2.37939">
        <ele>65.6</ele>
        <time>2022-05-28T13:56:55Z</time>
      </trkpt>
      <trkpt lat="49.8676" lon="2.37938">
        <ele>65.6</ele>
        <time>2022-05-28T13:56:56Z</time>
      </trkpt>
      <trkpt lat="49.8676" lon="2.37937">
        <ele>65.6</ele>
        <time>2022-05-28T13:56:57Z</time>
      </trkpt>
      <trkpt lat="49.8676" lon="2.37933">
        <ele>65.6</ele>
        <time>2022-05-28T13:56:58Z</time>
      </trkpt>
      <trkpt lat="49.86759" lon="2.37932">
        <ele>65.6</ele>
        <time>2022-05-28T13:56:59Z</time>
      </trkpt>
      <trkpt lat="49.86759" lon="2.37931">
        <ele>65.6</ele>
        <time>2022-05-28T13:57:00Z</time>
      </trkpt>
      <trkpt lat="49.86759" lon="2.37929">
        <ele>65.6</ele>
        <time>2022-05-28T13:57:01Z</time>
      </trkpt>
      <trkpt lat="49.86758" lon="2.37928">
        <ele>65.6</ele>
        <time>2022-05-28T13:57:02Z</time>
      </trkpt>
      <trkpt lat="49.86757" lon="2.37926">
        <ele>65.6</ele>
        <time>2022-05-28T13:57:03Z</time>
      </trkpt>
      <trkpt lat="49.86757" lon="2.37925">
        <ele>65.6</ele>
        <time>2022-05-28T13:57:04Z</time>
      </trkpt>
      <trkpt lat="49.86756" lon="2.37924">
        <ele>65.6</ele>
        <time>2022-05-28T13:57:05Z</time>
      </trkpt>
      <trkpt lat="49.86755" lon="2.37924">
        <ele>65.6</ele>
        <time>2022-05-28T13:57:06Z</time>
      </trkpt>
      <trkpt lat="49.86753" lon="2.37925">
        <ele>65.6</ele>
        <time>2022-05-28T13:57:07Z</time>
      </trkpt>
      <trkpt lat="49.86752" lon="2.37925">
        <ele>65.6</ele>
        <time>2022-05-28T13:57:08Z</time>
      </trkpt>
      <trkpt lat="49.86751" lon="2.37926">
        <ele>65.6</ele>
        <time>2022-05-28T13:57:09Z</time>
      </trkpt>
      <trkpt lat="49.8675" lon="2.37927">
        <ele>65.6</ele>
        <time>2022-05-28T13:57:10Z</time>
      </trkpt>
      <trkpt lat="49.86749" lon="2.37927">
        <ele>65.6</ele>
        <time>2022-05-28T13:57:11Z</time>
      </trkpt>
      <trkpt lat="49.86748" lon="2.37927">
        <ele>65.6</ele>
        <time>2022-05-28T13:57:12Z</time>
      </trkpt>
      <trkpt lat="49.86747" lon="2.37928">
        <ele>65.6</ele>
        <time>2022-05-28T13:57:13Z</time>
      </trkpt>
      <trkpt lat="49.86746" lon="2.37928">
        <ele>65.6</ele>
        <time>2022-05-28T13:57:14Z</time>
      </trkpt>
      <trkpt lat="49.86745" lon="2.37928">
        <ele>65.6</ele>
        <time>2022-05-28T13:57:15Z</time>
      </trkpt>
      <trkpt lat="49.86744" lon="2.37929">
        <ele>65.6</ele>
        <time>2022-05-28T13:57:16Z</time>
      </trkpt>
      <trkpt lat="49.86743" lon="2.37929">
        <ele>65.6</ele>
        <time>2022-05-28T13:57:17Z</time>
      </trkpt>
      <trkpt lat="49.86742" lon="2.37929">
        <ele>65.6</ele>
        <time>2022-05-28T13:57:18Z</time>
      </trkpt>
      <trkpt lat="49.86741" lon="2.37929">
        <ele>65.6</ele>
        <time>2022-05-28T13:57:19Z</time>
      </trkpt>
      <trkpt lat="49.8674" lon="2.37929">
        <ele>65.6</ele>
        <time>2022-05-28T13:57:20Z</time>
      </trkpt>
      <trkpt lat="49.86739" lon="2.37929">
        <ele>65.6</ele>
        <time>2022-05-28T13:57:21Z</time>
      </trkpt>
      <trkpt lat="49.86737" lon="2.37927">
        <ele>65.6</ele>
        <time>2022-05-28T13:57:22Z</time>
      </trkpt>
      <trkpt lat="49.86737" lon="2.37926">
        <ele>65.6</ele>
        <time>2022-05-28T13:57:23Z</time>
      </trkpt>
      <trkpt lat="49.86736" lon="2.37925">
        <ele>65.6</ele>
        <time>2022-05-28T13:57:24Z</time>
      </trkpt>
      <trkpt lat="49.86735" lon="2.37922">
        <ele>65.7</ele>
        <time>2022-05-28T13:57:25Z</time>
      </trkpt>
      <trkpt lat="49.86735" lon="2.3792">
        <ele>65.7</ele>
        <time>2022-05-28T13:57:26Z</time>
      </trkpt>
      <trkpt lat="49.86734" lon="2.37919">
        <ele>65.7</ele>
        <time>2022-05-28T13:57:27Z</time>
      </trkpt>
      <trkpt lat="49.86733" lon="2.37917">
        <ele>65.7</ele>
        <time>2022-05-28T13:57:28Z</time>
      </trkpt>
      <trkpt lat="49.86732" lon="2.37916">
        <ele>65.7</ele>
        <time>2022-05-28T13:57:29Z</time>
      </trkpt>
      <trkpt lat="49.86732" lon="2.37915">
        <ele>65.7</ele>
        <time>2022-05-28T13:57:30Z</time>
      </trkpt>
      <trkpt lat="49.86731" lon="2.37914">
        <ele>65.7</ele>
        <time>2022-05-28T13:57:31Z</time>
      </trkpt>
      <trkpt lat="49.8673" lon="2.37913">
        <ele>65.7</ele>
        <time>2022-05-28T13:57:32Z</time>
      </trkpt>
      <trkpt lat="49.8673" lon="2.37913">
        <ele>65.7</ele>
        <time>2022-05-28T13:57:33Z</time>
      </trkpt>
      <trkpt lat="49.86729" lon="2.37912">
        <ele>65.7</ele>
        <time>2022-05-28T13:57:34Z</time>
      </trkpt>
      <trkpt lat="49.86729" lon="2.37912">
        <ele>65.7</ele>
        <time>2022-05-28T13:57:35Z</time>
      </trkpt>
      <trkpt lat="49.86728" lon="2.37911">
        <ele>65.7</ele>
        <time>2022-05-28T13:57:36Z</time>
      </trkpt>
      <trkpt lat="49.86727" lon="2.37911">
        <ele>65.7</ele>
        <time>2022-05-28T13:57:37Z</time>
      </trkpt>
      <trkpt lat="49.86726" lon="2.37911">
        <ele>65.7</ele>
        <time>2022-05-28T13:57:38Z</time>
      </trkpt>
      <trkpt lat="49.86725" lon="2.37911">
        <ele>65.7</ele>
        <time>2022-05-28T13:57:39Z</time>
      </trkpt>
      <trkpt lat="49.86724" lon="2.37911">
        <ele>65.8</ele>
        <time>2022-05-28T13:57:40Z</time>
      </trkpt>
      <trkpt lat="49.86723" lon="2.3791">
        <ele>65.8</ele>
        <time>2022-05-28T13:57:41Z</time>
      </trkpt>
      <trkpt lat="49.86722" lon="2.3791">
        <ele>65.8</ele>
        <time>2022-05-28T13:57:42Z</time>
      </trkpt>
      <trkpt lat="49.86721" lon="2.3791">
        <ele>65.8</ele>
        <time>2022-05-28T13:57:43Z</time>
      </trkpt>
      <trkpt lat="49.8672" lon="2.37909">
        <ele>65.8</ele>
        <time>2022-05-28T13:57:44Z</time>
      </trkpt>
      <trkpt lat="49.86719" lon="2.37908">
        <ele>65.8</ele>
        <time>2022-05-28T13:57:45Z</time>
      </trkpt>
      <trkpt lat="49.86718" lon="2.37907">
        <ele>65.8</ele>
        <time>2022-05-28T13:57:46Z</time>
      </trkpt>
      <trkpt lat="49.86717" lon="2.37907">
        <ele>65.9</ele>
        <time>2022-05-28T13:57:47Z</time>
      </trkpt>
      <trkpt lat="49.86716" lon="2.37906">
        <ele>65.9</ele>
        <time>2022-05-28T13:57:48Z</time>
      </trkpt>
      <trkpt lat="49.86715" lon="2.37906">
        <ele>65.9</ele>
        <time>2022-05-28T13:57:49Z</time>
      </trkpt>
      <trkpt lat="49.86715" lon="2.37906">
        <ele>65.9</ele>
        <time>2022-05-28T13:57:50Z</time>
      </trkpt>
      <trkpt lat="49.86714" lon="2.37906">
        <ele>65.9</ele>
        <time>2022-05-28T13:57:51Z</time>
      </trkpt>
      <trkpt lat="49.86713" lon="2.37905">
        <ele>65.9</ele>
        <time>2022-05-28T13:57:52Z</time>
      </trkpt>
      <trkpt lat="49.86712" lon="2.37905">
        <ele>65.9</ele>
        <time>2022-05-28T13:57:53Z</time>
      </trkpt>
      <trkpt lat="49.86711" lon="2.37905">
        <ele>66</ele>
        <time>2022-05-28T13:57:54Z</time>
      </trkpt>
      <trkpt lat="49.8671" lon="2.37905">
        <ele>66</ele>
        <time>2022-05-28T13:57:55Z</time>
      </trkpt>
      <trkpt lat="49.86709" lon="2.37906">
        <ele>66</ele>
        <time>2022-05-28T13:57:56Z</time>
      </trkpt>
      <trkpt lat="49.86708" lon="2.37906">
        <ele>66</ele>
        <time>2022-05-28T13:57:57Z</time>
      </trkpt>
      <trkpt lat="49.86707" lon="2.37907">
        <ele>66</ele>
        <time>2022-05-28T13:57:58Z</time>
      </trkpt>
      <trkpt lat="49.86706" lon="2.37907">
        <ele>66.1</ele>
        <time>2022-05-28T13:57:59Z</time>
      </trkpt>
      <trkpt lat="49.86705" lon="2.37907">
        <ele>66.1</ele>
        <time>2022-05-28T13:58:00Z</time>
      </trkpt>
      <trkpt lat="49.86704" lon="2.37907">
        <ele>66.1</ele>
        <time>2022-05-28T13:58:01Z</time>
      </trkpt>
      <trkpt lat="49.86704" lon="2.37907">
        <ele>66.1</ele>
        <time>2022-05-28T13:58:02Z</time>
      </trkpt>
      <trkpt lat="49.86703" lon="2.37907">
        <ele>66.1</ele>
        <time>2022-05-28T13:58:03Z</time>
      </trkpt>
      <trkpt lat="49.86702" lon="2.37907">
        <ele>66.2</ele>
        <time>2022-05-28T13:58:04Z</time>
      </trkpt>
      <trkpt lat="49.86701" lon="2.37908">
        <ele>66.2</ele>
        <time>2022-05-28T13:58:05Z</time>
      </trkpt>
      <trkpt lat="49.867" lon="2.37908">
        <ele>66.2</ele>
        <time>2022-05-28T13:58:06Z</time>
      </trkpt>
      <trkpt lat="49.867" lon="2.37909">
        <ele>66.2</ele>
        <time>2022-05-28T13:58:07Z</time>
      </trkpt>
      <trkpt lat="49.867" lon="2.3791">
        <ele>66.2</ele>
        <time>2022-05-28T13:58:08Z</time>
      </trkpt>
      <trkpt lat="49.867" lon="2.3791">
        <ele>66.2</ele>
        <time>2022-05-28T13:58:09Z</time>
      </trkpt>
      <trkpt lat="49.86701" lon="2.37911">
        <ele>66.2</ele>
        <time>2022-05-28T13:58:10Z</time>
      </trkpt>
      <trkpt lat="49.86701" lon="2.37911">
        <ele>66.2</ele>
        <time>2022-05-28T13:58:11Z</time>
      </trkpt>
      <trkpt lat="49.86701" lon="2.37911">
        <ele>66.2</ele>
        <time>2022-05-28T13:58:12Z</time>
      </trkpt>
      <trkpt lat="49.86702" lon="2.37911">
        <ele>66.3</ele>
        <time>2022-05-28T13:58:13Z</time>
      </trkpt>
      <trkpt lat="49.86702" lon="2.37911">
        <ele>66.3</ele>
        <time>2022-05-28T13:58:14Z</time>
      </trkpt>
      <trkpt lat="49.86702" lon="2.37911">
        <ele>66.3</ele>
        <time>2022-05-28T13:58:15Z</time>
      </trkpt>
      <trkpt lat="49.86702" lon="2.37911">
        <ele>66.3</ele>
        <time>2022-05-28T13:58:16Z</time>
      </trkpt>
      <trkpt lat="49.86702" lon="2.37911">
        <ele>66.3</ele>
        <time>2022-05-28T13:58:17Z</time>
      </trkpt>
      <trkpt lat="49.86702" lon="2.37911">
        <ele>66.3</ele>
        <time>2022-05-28T13:58:18Z</time>
      </trkpt>
      <trkpt lat="49.86702" lon="2.37911">
        <ele>66.3</ele>
        <time>2022-05-28T13:58:19Z</time>
      </trkpt>
      <trkpt lat="49.86702" lon="2.37911">
        <ele>66.3</ele>
        <time>2022-05-28T13:58:20Z</time>
      </trkpt>
      <trkpt lat="49.86703" lon="2.37911">
        <ele>66.3</ele>
        <time>2022-05-28T13:58:21Z</time>
      </trkpt>
      <trkpt lat="49.86703" lon="2.37911">
        <ele>66.3</ele>
        <time>2022-05-28T13:58:22Z</time>
      </trkpt>
      <trkpt lat="49.86703" lon="2.37911">
        <ele>66.3</ele>
        <time>2022-05-28T13:58:23Z</time>
      </trkpt>
      <trkpt lat="49.86703" lon="2.37911">
        <ele>66.3</ele>
        <time>2022-05-28T13:58:24Z</time>
      </trkpt>
      <trkpt lat="49.86703" lon="2.37911">
        <ele>66.3</ele>
        <time>2022-05-28T13:58:25Z</time>
      </trkpt>
      <trkpt lat="49.86703" lon="2.37911">
        <ele>66.3</ele>
        <time>2022-05-28T13:58:26Z</time>
      </trkpt>
      <trkpt lat="49.86703" lon="2.37911">
        <ele>66.3</ele>
        <time>2022-05-28T13:58:27Z</time>
      </trkpt>
      <trkpt lat="49.86703" lon="2.37911">
        <ele>66.3</ele>
        <time>2022-05-28T13:58:28Z</time>
      </trkpt>
      <trkpt lat="49.86703" lon="2.37911">
        <ele>66.3</ele>
        <time>2022-05-28T13:58:29Z</time>
      </trkpt>
      <trkpt lat="49.86703" lon="2.37911">
        <ele>66.3</ele>
        <time>2022-05-28T13:58:30Z</time>
      </trkpt>
      <trkpt lat="49.86703" lon="2.37911">
        <ele>66.3</ele>
        <time>2022-05-28T13:58:31Z</time>
      </trkpt>
      <trkpt lat="49.86704" lon="2.37911">
        <ele>66.3</ele>
        <time>2022-05-28T13:58:32Z</time>
      </trkpt>
      <trkpt lat="49.86704" lon="2.37911">
        <ele>66.3</ele>
        <time>2022-05-28T13:58:33Z</time>
      </trkpt>
      <trkpt lat="49.86704" lon="2.37912">
        <ele>66.3</ele>
        <time>2022-05-28T13:58:34Z</time>
      </trkpt>
      <trkpt lat="49.86705" lon="2.37912">
        <ele>66.3</ele>
        <time>2022-05-28T13:58:35Z</time>
      </trkpt>
      <trkpt lat="49.86705" lon="2.37912">
        <ele>66.3</ele>
        <time>2022-05-28T13:58:36Z</time>
      </trkpt>
      <trkpt lat="49.86705" lon="2.37912">
        <ele>66.3</ele>
        <time>2022-05-28T13:58:37Z</time>
      </trkpt>
      <trkpt lat="49.86705" lon="2.37912">
        <ele>66.3</ele>
        <time>2022-05-28T13:58:38Z</time>
      </trkpt>
      <trkpt lat="49.86705" lon="2.37912">
        <ele>66.3</ele>
        <time>2022-05-28T13:58:39Z</time>
      </trkpt>
      <trkpt lat="49.86705" lon="2.37912">
        <ele>66.3</ele>
        <time>2022-05-28T13:58:40Z</time>
      </trkpt>
      <trkpt lat="49.86705" lon="2.37912">
        <ele>66.3</ele>
        <time>2022-05-28T13:58:41Z</time>
      </trkpt>
      <trkpt lat="49.86705" lon="2.37912">
        <ele>66.4</ele>
        <time>2022-05-28T13:58:42Z</time>
      </trkpt>
      <trkpt lat="49.86706" lon="2.37913">
        <ele>66.4</ele>
        <time>2022-05-28T13:58:43Z</time>
      </trkpt>
      <trkpt lat="49.86706" lon="2.37913">
        <ele>66.4</ele>
        <time>2022-05-28T13:58:44Z</time>
      </trkpt>
      <trkpt lat="49.86706" lon="2.37913">
        <ele>66.4</ele>
        <time>2022-05-28T13:58:45Z</time>
      </trkpt>
      <trkpt lat="49.86706" lon="2.37913">
        <ele>66.4</ele>
        <time>2022-05-28T13:58:46Z</time>
      </trkpt>
      <trkpt lat="49.86706" lon="2.37913">
        <ele>66.4</ele>
        <time>2022-05-28T13:58:47Z</time>
      </trkpt>
      <trkpt lat="49.86706" lon="2.37913">
        <ele>66.4</ele>
        <time>2022-05-28T13:58:48Z</time>
      </trkpt>
      <trkpt lat="49.86706" lon="2.37913">
        <ele>66.4</ele>
        <time>2022-05-28T13:58:49Z</time>
      </trkpt>
      <trkpt lat="49.86706" lon="2.37913">
        <ele>66.4</ele>
        <time>2022-05-28T13:58:50Z</time>
      </trkpt>
      <trkpt lat="49.86706" lon="2.37913">
        <ele>66.4</ele>
        <time>2022-05-28T13:58:51Z</time>
      </trkpt>
      <trkpt lat="49.86706" lon="2.37913">
        <ele>66.4</ele>
        <time>2022-05-28T13:58:52Z</time>
      </trkpt>
      <trkpt lat="49.86706" lon="2.37913">
        <ele>66.4</ele>
        <time>2022-05-28T13:58:53Z</time>
      </trkpt>
      <trkpt lat="49.86706" lon="2.37913">
        <ele>66.4</ele>
        <time>2022-05-28T13:58:54Z</time>
      </trkpt>
      <trkpt lat="49.86706" lon="2.37913">
        <ele>66.4</ele>
        <time>2022-05-28T13:58:55Z</time>
      </trkpt>
      <trkpt lat="49.86706" lon="2.37912">
        <ele>66.4</ele>
        <time>2022-05-28T13:58:56Z</time>
      </trkpt>
      <trkpt lat="49.86706" lon="2.37912">
        <ele>66.4</ele>
        <time>2022-05-28T13:58:57Z</time>
      </trkpt>
      <trkpt lat="49.86706" lon="2.37912">
        <ele>66.4</ele>
        <time>2022-05-28T13:58:58Z</time>
      </trkpt>
      <trkpt lat="49.86706" lon="2.37912">
        <ele>66.4</ele>
        <time>2022-05-28T13:58:59Z</time>
      </trkpt>
      <trkpt lat="49.86706" lon="2.37912">
        <ele>66.4</ele>
        <time>2022-05-28T13:59:00Z</time>
      </trkpt>
      <trkpt lat="49.86706" lon="2.37912">
        <ele>66.4</ele>
        <time>2022-05-28T13:59:01Z</time>
      </trkpt>
      <trkpt lat="49.86706" lon="2.37912">
        <ele>66.4</ele>
        <time>2022-05-28T13:59:02Z</time>
      </trkpt>
      <trkpt lat="49.86706" lon="2.37912">
        <ele>66.4</ele>
        <time>2022-05-28T13:59:03Z</time>
      </trkpt>
      <trkpt lat="49.86706" lon="2.37912">
        <ele>66.4</ele>
        <time>2022-05-28T13:59:04Z</time>
      </trkpt>
      <trkpt lat="49.86706" lon="2.37912">
        <ele>66.4</ele>
        <time>2022-05-28T13:59:05Z</time>
      </trkpt>
      <trkpt lat="49.86706" lon="2.37912">
        <ele>66.4</ele>
        <time>2022-05-28T13:59:06Z</time>
      </trkpt>
      <trkpt lat="49.86706" lon="2.37912">
        <ele>66.4</ele>
        <time>2022-05-28T13:59:07Z</time>
      </trkpt>
      <trkpt lat="49.86706" lon="2.37912">
        <ele>66.4</ele>
        <time>2022-05-28T13:59:08Z</time>
      </trkpt>
      <trkpt lat="49.86706" lon="2.37912">
        <ele>66.4</ele>
        <time>2022-05-28T13:59:09Z</time>
      </trkpt>
      <trkpt lat="49.86706" lon="2.37912">
        <ele>66.4</ele>
        <time>2022-05-28T13:59:10Z</time>
      </trkpt>
      <trkpt lat="49.86706" lon="2.37912">
        <ele>66.4</ele>
        <time>2022-05-28T13:59:11Z</time>
      </trkpt>
      <trkpt lat="49.86706" lon="2.37912">
        <ele>66.4</ele>
        <time>2022-05-28T13:59:12Z</time>
      </trkpt>
      <trkpt lat="49.86706" lon="2.37912">
        <ele>66.4</ele>
        <time>2022-05-28T13:59:13Z</time>
      </trkpt>
      <trkpt lat="49.86706" lon="2.37912">
        <ele>66.4</ele>
        <time>2022-05-28T13:59:14Z</time>
      </trkpt>
      <trkpt lat="49.86706" lon="2.37912">
        <ele>66.4</ele>
        <time>2022-05-28T13:59:15Z</time>
      </trkpt>
      <trkpt lat="49.86706" lon="2.37912">
        <ele>66.4</ele>
        <time>2022-05-28T13:59:16Z</time>
      </trkpt>
      <trkpt lat="49.86706" lon="2.37912">
        <ele>66.4</ele>
        <time>2022-05-28T13:59:17Z</time>
      </trkpt>
      <trkpt lat="49.86706" lon="2.37912">
        <ele>66.4</ele>
        <time>2022-05-28T13:59:18Z</time>
      </trkpt>
      <trkpt lat="49.86706" lon="2.37912">
        <ele>66.4</ele>
        <time>2022-05-28T13:59:19Z</time>
      </trkpt>
      <trkpt lat="49.86706" lon="2.37912">
        <ele>66.4</ele>
        <time>2022-05-28T13:59:20Z</time>
      </trkpt>
      <trkpt lat="49.86706" lon="2.37912">
        <ele>66.4</ele>
        <time>2022-05-28T13:59:21Z</time>
      </trkpt>
      <trkpt lat="49.86706" lon="2.37912">
        <ele>66.4</ele>
        <time>2022-05-28T13:59:22Z</time>
      </trkpt>
      <trkpt lat="49.86706" lon="2.37912">
        <ele>66.4</ele>
        <time>2022-05-28T13:59:23Z</time>
      </trkpt>
      <trkpt lat="49.86706" lon="2.37912">
        <ele>66.4</ele>
        <time>2022-05-28T13:59:24Z</time>
      </trkpt>
      <trkpt lat="49.86706" lon="2.37912">
        <ele>66.4</ele>
        <time>2022-05-28T13:59:25Z</time>
      </trkpt>
      <trkpt lat="49.86706" lon="2.37912">
        <ele>66.4</ele>
        <time>2022-05-28T13:59:26Z</time>
      </trkpt>
      <trkpt lat="49.86706" lon="2.37912">
        <ele>66.4</ele>
        <time>2022-05-28T13:59:27Z</time>
      </trkpt>
      <trkpt lat="49.86706" lon="2.37912">
        <ele>66.4</ele>
        <time>2022-05-28T13:59:28Z</time>
      </trkpt>
      <trkpt lat="49.86706" lon="2.37912">
        <ele>66.4</ele>
        <time>2022-05-28T13:59:29Z</time>
      </trkpt>
      <trkpt lat="49.86706" lon="2.37912">
        <ele>66.4</ele>
        <time>2022-05-28T13:59:30Z</time>
      </trkpt>
      <trkpt lat="49.86706" lon="2.37912">
        <ele>66.4</ele>
        <time>2022-05-28T13:59:31Z</time>
      </trkpt>
      <trkpt lat="49.86706" lon="2.37912">
        <ele>66.4</ele>
        <time>2022-05-28T13:59:32Z</time>
      </trkpt>
      <trkpt lat="49.86706" lon="2.37912">
        <ele>66.4</ele>
        <time>2022-05-28T13:59:33Z</time>
      </trkpt>
      <trkpt lat="49.86706" lon="2.37912">
        <ele>66.4</ele>
        <time>2022-05-28T13:59:34Z</time>
      </trkpt>
      <trkpt lat="49.86706" lon="2.37912">
        <ele>66.4</ele>
        <time>2022-05-28T13:59:35Z</time>
      </trkpt>
      <trkpt lat="49.86706" lon="2.37912">
        <ele>66.4</ele>
        <time>2022-05-28T13:59:36Z</time>
      </trkpt>
      <trkpt lat="49.86706" lon="2.37912">
        <ele>66.4</ele>
        <time>2022-05-28T13:59:37Z</time>
      </trkpt>
      <trkpt lat="49.86706" lon="2.37912">
        <ele>66.4</ele>
        <time>2022-05-28T13:59:38Z</time>
      </trkpt>
      <trkpt lat="49.86706" lon="2.37912">
        <ele>66.4</ele>
        <time>2022-05-28T13:59:39Z</time>
      </trkpt>
      <trkpt lat="49.86706" lon="2.37912">
        <ele>66.4</ele>
        <time>2022-05-28T13:59:40Z</time>
      </trkpt>
      <trkpt lat="49.86706" lon="2.37912">
        <ele>66.4</ele>
        <time>2022-05-28T13:59:41Z</time>
      </trkpt>
      <trkpt lat="49.86706" lon="2.37912">
        <ele>66.4</ele>
        <time>2022-05-28T13:59:42Z</time>
      </trkpt>
      <trkpt lat="49.86706" lon="2.37912">
        <ele>66.4</ele>
        <time>2022-05-28T13:59:43Z</time>
      </trkpt>
      <trkpt lat="49.86706" lon="2.37912">
        <ele>66.4</ele>
        <time>2022-05-28T13:59:44Z</time>
      </trkpt>
      <trkpt lat="49.86706" lon="2.37912">
        <ele>66.4</ele>
        <time>2022-05-28T13:59:45Z</time>
      </trkpt>
      <trkpt lat="49.86706" lon="2.37912">
        <ele>66.4</ele>
        <time>2022-05-28T13:59:46Z</time>
      </trkpt>
      <trkpt lat="49.86706" lon="2.37912">
        <ele>66.4</ele>
        <time>2022-05-28T13:59:47Z</time>
      </trkpt>
      <trkpt lat="49.86706" lon="2.37912">
        <ele>66.4</ele>
        <time>2022-05-28T13:59:48Z</time>
      </trkpt>
    </trkseg>
  </trk>
</gpx>